﻿<?xml version="1.0" encoding="utf-8"?><gpx creator="Garmin Desktop App" version="1.1" xsi:schemaLocation="http://www.topografix.com/GPX/1/1 http://www.topografix.com/GPX/1/1/gpx.xsd http://www.garmin.com/xmlschemas/WaypointExtension/v1 http://www8.garmin.com/xmlschemas/WaypointExtensionv1.xsd http://www.garmin.com/xmlschemas/TrackPointExtension/v1 http://www.garmin.com/xmlschemas/TrackPointExtensionv1.xsd http://www.garmin.com/xmlschemas/GpxExtensions/v3 http://www8.garmin.com/xmlschemas/GpxExtensionsv3.xsd http://www.garmin.com/xmlschemas/ActivityExtension/v1 http://www8.garmin.com/xmlschemas/ActivityExtensionv1.xsd http://www.garmin.com/xmlschemas/AdventuresExtensions/v1 http://www8.garmin.com/xmlschemas/AdventuresExtensionv1.xsd http://www.garmin.com/xmlschemas/PressureExtension/v1 http://www.garmin.com/xmlschemas/PressureExtensionv1.xsd http://www.garmin.com/xmlschemas/TripExtensions/v1 http://www.garmin.com/xmlschemas/TripExtensionsv1.xsd http://www.garmin.com/xmlschemas/TripMetaDataExtensions/v1 http://www.garmin.com/xmlschemas/TripMetaDataExtensionsv1.xsd http://www.garmin.com/xmlschemas/ViaPointTransportationModeExtensions/v1 http://www.garmin.com/xmlschemas/ViaPointTransportationModeExtensionsv1.xsd http://www.garmin.com/xmlschemas/CreationTimeExtension/v1 http://www.garmin.com/xmlschemas/CreationTimeExtensionsv1.xsd http://www.garmin.com/xmlschemas/AccelerationExtension/v1 http://www.garmin.com/xmlschemas/AccelerationExtensionv1.xsd http://www.garmin.com/xmlschemas/PowerExtension/v1 http://www.garmin.com/xmlschemas/PowerExtensionv1.xsd http://www.garmin.com/xmlschemas/VideoExtension/v1 http://www.garmin.com/xmlschemas/VideoExtensionv1.xsd" xmlns="http://www.topografix.com/GPX/1/1" xmlns:xsi="http://www.w3.org/2001/XMLSchema-instance" xmlns:wptx1="http://www.garmin.com/xmlschemas/WaypointExtension/v1" xmlns:gpxtrx="http://www.garmin.com/xmlschemas/GpxExtensions/v3" xmlns:gpxtpx="http://www.garmin.com/xmlschemas/TrackPointExtension/v1" xmlns:gpxx="http://www.garmin.com/xmlschemas/GpxExtensions/v3" xmlns:trp="http://www.garmin.com/xmlschemas/TripExtensions/v1" xmlns:adv="http://www.garmin.com/xmlschemas/AdventuresExtensions/v1" xmlns:prs="http://www.garmin.com/xmlschemas/PressureExtension/v1" xmlns:tmd="http://www.garmin.com/xmlschemas/TripMetaDataExtensions/v1" xmlns:vptm="http://www.garmin.com/xmlschemas/ViaPointTransportationModeExtensions/v1" xmlns:ctx="http://www.garmin.com/xmlschemas/CreationTimeExtension/v1" xmlns:gpxacc="http://www.garmin.com/xmlschemas/AccelerationExtension/v1" xmlns:gpxpx="http://www.garmin.com/xmlschemas/PowerExtension/v1" xmlns:vidx1="http://www.garmin.com/xmlschemas/VideoExtension/v1">

  <metadata>
    <link href="http://www.garmin.com">
      <text>Garmin International</text>
    </link>
    <time>2023-09-02T20:53:28Z</time>
    <bounds maxlat="56.358288992196321" maxlon="-4.018556037917733" minlat="55.097049018368125" minlon="-4.856864959001541" />
  </metadata>

  <trk>
    <name>Track 230902</name>
    <extensions>
      <gpxx:TrackExtension>
        <gpxx:DisplayColor>DarkGray</gpxx:DisplayColor>
      </gpxx:TrackExtension>
    </extensions>
    <trkseg>
      <trkpt lat="56.325485995039344" lon="-4.33266400359571">
        <ele>128.47</ele>
        <time>2023-09-02T07:32:04Z</time>
      </trkpt>
      <trkpt lat="56.32545598782599" lon="-4.332066960632801">
        <ele>140.49000000000001</ele>
        <time>2023-09-02T07:32:51Z</time>
      </trkpt>
      <trkpt lat="56.325419023633003" lon="-4.331966964527965">
        <ele>141.93000000000001</ele>
        <time>2023-09-02T07:33:33Z</time>
      </trkpt>
      <trkpt lat="56.325420029461384" lon="-4.33193301782012">
        <ele>140.97</ele>
        <time>2023-09-02T07:33:35Z</time>
      </trkpt>
      <trkpt lat="56.325452970340848" lon="-4.331813994795084">
        <ele>139.05000000000001</ele>
        <time>2023-09-02T07:33:44Z</time>
      </trkpt>
      <trkpt lat="56.325609963387251" lon="-4.331653984263539">
        <ele>137.61000000000001</ele>
        <time>2023-09-02T07:33:53Z</time>
      </trkpt>
      <trkpt lat="56.325626978650689" lon="-4.331531021744013">
        <ele>136.63999999999999</ele>
        <time>2023-09-02T07:33:57Z</time>
      </trkpt>
      <trkpt lat="56.325610969215631" lon="-4.331476958468556">
        <ele>136.63999999999999</ele>
        <time>2023-09-02T07:33:58Z</time>
      </trkpt>
      <trkpt lat="56.325590014457703" lon="-4.331405041739345">
        <ele>136.16</ele>
        <time>2023-09-02T07:33:59Z</time>
      </trkpt>
      <trkpt lat="56.325522037222981" lon="-4.331174036487937">
        <ele>132.80000000000001</ele>
        <time>2023-09-02T07:34:06Z</time>
      </trkpt>
      <trkpt lat="56.325508039444685" lon="-4.331126008182764">
        <ele>130.88</ele>
        <time>2023-09-02T07:34:15Z</time>
      </trkpt>
      <trkpt lat="56.325536035001278" lon="-4.331125002354384">
        <ele>130.40000000000001</ele>
        <time>2023-09-02T07:34:16Z</time>
      </trkpt>
      <trkpt lat="56.325537962839007" lon="-4.331228015944362">
        <ele>128.47</ele>
        <time>2023-09-02T07:34:18Z</time>
      </trkpt>
      <trkpt lat="56.325590014457703" lon="-4.331404035910964">
        <ele>126.06999999999999</ele>
        <time>2023-09-02T07:34:20Z</time>
      </trkpt>
      <trkpt lat="56.325722029432654" lon="-4.331854982301593">
        <ele>121.26000000000001</ele>
        <time>2023-09-02T07:34:24Z</time>
      </trkpt>
      <trkpt lat="56.325746001675725" lon="-4.331938968971372">
        <ele>120.3</ele>
        <time>2023-09-02T07:34:25Z</time>
      </trkpt>
      <trkpt lat="56.32580098696053" lon="-4.332014992833138">
        <ele>119.81999999999999</ele>
        <time>2023-09-02T07:34:26Z</time>
      </trkpt>
      <trkpt lat="56.325898971408606" lon="-4.332151031121612">
        <ele>118.86</ele>
        <time>2023-09-02T07:34:28Z</time>
      </trkpt>
      <trkpt lat="56.32595001719892" lon="-4.332222025841475">
        <ele>118.86</ele>
        <time>2023-09-02T07:34:29Z</time>
      </trkpt>
      <trkpt lat="56.326025035232306" lon="-4.332325961440802">
        <ele>118.86</ele>
        <time>2023-09-02T07:34:30Z</time>
      </trkpt>
      <trkpt lat="56.326168030500412" lon="-4.332372983917594">
        <ele>118.38</ele>
        <time>2023-09-02T07:34:32Z</time>
      </trkpt>
      <trkpt lat="56.326247993856668" lon="-4.332399973645806">
        <ele>118.38</ele>
        <time>2023-09-02T07:34:33Z</time>
      </trkpt>
      <trkpt lat="56.326322006061673" lon="-4.332424029707909">
        <ele>117.90000000000001</ele>
        <time>2023-09-02T07:34:34Z</time>
      </trkpt>
      <trkpt lat="56.326389983296394" lon="-4.332446996122599">
        <ele>118.38</ele>
        <time>2023-09-02T07:34:35Z</time>
      </trkpt>
      <trkpt lat="56.326460978016257" lon="-4.332470968365669">
        <ele>118.38</ele>
        <time>2023-09-02T07:34:36Z</time>
      </trkpt>
      <trkpt lat="56.326540019363165" lon="-4.332497036084533">
        <ele>118.38</ele>
        <time>2023-09-02T07:34:37Z</time>
      </trkpt>
      <trkpt lat="56.32661403156817" lon="-4.332470968365669">
        <ele>118.86</ele>
        <time>2023-09-02T07:34:38Z</time>
      </trkpt>
      <trkpt lat="56.326708998531103" lon="-4.332437021657825">
        <ele>118.86</ele>
        <time>2023-09-02T07:34:39Z</time>
      </trkpt>
      <trkpt lat="56.326803965494037" lon="-4.332402991130948">
        <ele>118.86</ele>
        <time>2023-09-02T07:34:40Z</time>
      </trkpt>
      <trkpt lat="56.326974034309387" lon="-4.332341970875859">
        <ele>118.86</ele>
        <time>2023-09-02T07:34:42Z</time>
      </trkpt>
      <trkpt lat="56.327061038464308" lon="-4.332311041653156">
        <ele>118.86</ele>
        <time>2023-09-02T07:34:43Z</time>
      </trkpt>
      <trkpt lat="56.327311992645264" lon="-4.332274999469519">
        <ele>119.34</ele>
        <time>2023-09-02T07:34:46Z</time>
      </trkpt>
      <trkpt lat="56.327394973486662" lon="-4.332271981984377">
        <ele>119.34</ele>
        <time>2023-09-02T07:34:47Z</time>
      </trkpt>
      <trkpt lat="56.327472003176808" lon="-4.332267958670855">
        <ele>119.81999999999999</ele>
        <time>2023-09-02T07:34:48Z</time>
      </trkpt>
      <trkpt lat="56.327636037021875" lon="-4.332259995862842">
        <ele>120.3</ele>
        <time>2023-09-02T07:34:50Z</time>
      </trkpt>
      <trkpt lat="56.327971983700991" lon="-4.332064026966691">
        <ele>122.70999999999999</ele>
        <time>2023-09-02T07:34:54Z</time>
      </trkpt>
      <trkpt lat="56.328730965033174" lon="-4.331822963431478">
        <ele>123.19</ele>
        <time>2023-09-02T07:35:02Z</time>
      </trkpt>
      <trkpt lat="56.32880799472332" lon="-4.331797985360026">
        <ele>123.19</ele>
        <time>2023-09-02T07:35:03Z</time>
      </trkpt>
      <trkpt lat="56.32887102663517" lon="-4.331775018945336">
        <ele>122.70999999999999</ele>
        <time>2023-09-02T07:35:04Z</time>
      </trkpt>
      <trkpt lat="56.329175038263202" lon="-4.331738976761699">
        <ele>120.3</ele>
        <time>2023-09-02T07:35:07Z</time>
      </trkpt>
      <trkpt lat="56.329607041552663" lon="-4.331949027255178">
        <ele>116.45999999999999</ele>
        <time>2023-09-02T07:35:11Z</time>
      </trkpt>
      <trkpt lat="56.329698991030455" lon="-4.332006024196744">
        <ele>115.5</ele>
        <time>2023-09-02T07:35:12Z</time>
      </trkpt>
      <trkpt lat="56.329789012670517" lon="-4.33206302113831">
        <ele>114.05</ele>
        <time>2023-09-02T07:35:13Z</time>
      </trkpt>
      <trkpt lat="56.329960003495216" lon="-4.332169974222779">
        <ele>111.65000000000001</ele>
        <time>2023-09-02T07:35:15Z</time>
      </trkpt>
      <trkpt lat="56.330233002081513" lon="-4.332413971424103">
        <ele>107.31999999999999</ele>
        <time>2023-09-02T07:35:19Z</time>
      </trkpt>
      <trkpt lat="56.330295028164983" lon="-4.332475997507572">
        <ele>106.36</ele>
        <time>2023-09-02T07:35:20Z</time>
      </trkpt>
      <trkpt lat="56.330377003178" lon="-4.332460993900895">
        <ele>105.88</ele>
        <time>2023-09-02T07:35:21Z</time>
      </trkpt>
      <trkpt lat="56.330473981797695" lon="-4.332442972809076">
        <ele>105.40000000000001</ele>
        <time>2023-09-02T07:35:22Z</time>
      </trkpt>
      <trkpt lat="56.330557968467474" lon="-4.332413971424103">
        <ele>104.44</ele>
        <time>2023-09-02T07:35:23Z</time>
      </trkpt>
      <trkpt lat="56.330642960965633" lon="-4.332354962825775">
        <ele>103.95999999999999</ele>
        <time>2023-09-02T07:35:24Z</time>
      </trkpt>
      <trkpt lat="56.330731976777315" lon="-4.332293020561338">
        <ele>103</ele>
        <time>2023-09-02T07:35:25Z</time>
      </trkpt>
      <trkpt lat="56.330832978710532" lon="-4.332223031669855">
        <ele>102.04000000000001</ele>
        <time>2023-09-02T07:35:26Z</time>
      </trkpt>
      <trkpt lat="56.330932974815369" lon="-4.332152958959341">
        <ele>101.56</ele>
        <time>2023-09-02T07:35:27Z</time>
      </trkpt>
      <trkpt lat="56.331245033070445" lon="-4.332027984783053">
        <ele>99.150000000000006</ele>
        <time>2023-09-02T07:35:30Z</time>
      </trkpt>
      <trkpt lat="56.332194032147527" lon="-4.331762026995421">
        <ele>90.980000000000004</ele>
        <time>2023-09-02T07:35:39Z</time>
      </trkpt>
      <trkpt lat="56.332370974123478" lon="-4.331712992861867">
        <ele>88.579999999999998</ele>
        <time>2023-09-02T07:35:41Z</time>
      </trkpt>
      <trkpt lat="56.332522016018629" lon="-4.331670999526978">
        <ele>86.659999999999997</ele>
        <time>2023-09-02T07:35:43Z</time>
      </trkpt>
      <trkpt lat="56.332633998245001" lon="-4.331638980656862">
        <ele>86.659999999999997</ele>
        <time>2023-09-02T07:35:44Z</time>
      </trkpt>
      <trkpt lat="56.332685966044664" lon="-4.331652978435159">
        <ele>86.659999999999997</ele>
        <time>2023-09-02T07:35:45Z</time>
      </trkpt>
      <trkpt lat="56.332787973806262" lon="-4.331686003133655">
        <ele>86.180000000000007</ele>
        <time>2023-09-02T07:35:46Z</time>
      </trkpt>
      <trkpt lat="56.332837007939816" lon="-4.33174098841846">
        <ele>86.180000000000007</ele>
        <time>2023-09-02T07:35:47Z</time>
      </trkpt>
      <trkpt lat="56.332886964082718" lon="-4.331796979531646">
        <ele>86.180000000000007</ele>
        <time>2023-09-02T07:35:48Z</time>
      </trkpt>
      <trkpt lat="56.333055021241307" lon="-4.331984985619783">
        <ele>87.140000000000001</ele>
        <time>2023-09-02T07:35:51Z</time>
      </trkpt>
      <trkpt lat="56.333196004852653" lon="-4.332143990322948">
        <ele>86.180000000000007</ele>
        <time>2023-09-02T07:35:53Z</time>
      </trkpt>
      <trkpt lat="56.333315027877688" lon="-4.33227701112628">
        <ele>84.25</ele>
        <time>2023-09-02T07:35:55Z</time>
      </trkpt>
      <trkpt lat="56.333374958485365" lon="-4.33234398253262">
        <ele>83.290000000000006</ele>
        <time>2023-09-02T07:35:56Z</time>
      </trkpt>
      <trkpt lat="56.333434972912073" lon="-4.332411959767342">
        <ele>81.849999999999994</ele>
        <time>2023-09-02T07:35:57Z</time>
      </trkpt>
      <trkpt lat="56.333566987887025" lon="-4.332576999440789">
        <ele>80.409999999999997</ele>
        <time>2023-09-02T07:35:59Z</time>
      </trkpt>
      <trkpt lat="56.333628008142114" lon="-4.332659980282188">
        <ele>79.930000000000007</ele>
        <time>2023-09-02T07:36:00Z</time>
      </trkpt>
      <trkpt lat="56.333752982318401" lon="-4.332829965278506">
        <ele>79.930000000000007</ele>
        <time>2023-09-02T07:36:02Z</time>
      </trkpt>
      <trkpt lat="56.333832023665309" lon="-4.332938008010387">
        <ele>79.930000000000007</ele>
        <time>2023-09-02T07:36:03Z</time>
      </trkpt>
      <trkpt lat="56.33396496064961" lon="-4.333118973299861">
        <ele>79.930000000000007</ele>
        <time>2023-09-02T07:36:04Z</time>
      </trkpt>
      <trkpt lat="56.333987005054951" lon="-4.333134982734919">
        <ele>79.930000000000007</ele>
        <time>2023-09-02T07:36:05Z</time>
      </trkpt>
      <trkpt lat="56.334068980067968" lon="-4.333191979676485">
        <ele>79.930000000000007</ele>
        <time>2023-09-02T07:36:06Z</time>
      </trkpt>
      <trkpt lat="56.334226978942752" lon="-4.333295999094844">
        <ele>79.930000000000007</ele>
        <time>2023-09-02T07:36:08Z</time>
      </trkpt>
      <trkpt lat="56.334520010277629" lon="-4.333457015454769">
        <ele>79.930000000000007</ele>
        <time>2023-09-02T07:36:12Z</time>
      </trkpt>
      <trkpt lat="56.33460802026093" lon="-4.333505965769291">
        <ele>79.930000000000007</ele>
        <time>2023-09-02T07:36:13Z</time>
      </trkpt>
      <trkpt lat="56.334707010537386" lon="-4.333585007116199">
        <ele>80.409999999999997</ele>
        <time>2023-09-02T07:36:14Z</time>
      </trkpt>
      <trkpt lat="56.334817986935377" lon="-4.33367402292788">
        <ele>80.409999999999997</ele>
        <time>2023-09-02T07:36:15Z</time>
      </trkpt>
      <trkpt lat="56.334934998303652" lon="-4.333766978234053">
        <ele>80.409999999999997</ele>
        <time>2023-09-02T07:36:16Z</time>
      </trkpt>
      <trkpt lat="56.335252001881599" lon="-4.334021033719182">
        <ele>79.930000000000007</ele>
        <time>2023-09-02T07:36:18Z</time>
      </trkpt>
      <trkpt lat="56.335300030186772" lon="-4.334044000133872">
        <ele>79.930000000000007</ele>
        <time>2023-09-02T07:36:19Z</time>
      </trkpt>
      <trkpt lat="56.335408994928002" lon="-4.334095967933536">
        <ele>79.930000000000007</ele>
        <time>2023-09-02T07:36:20Z</time>
      </trkpt>
      <trkpt lat="56.335507985204458" lon="-4.334143996238709">
        <ele>79.930000000000007</ele>
        <time>2023-09-02T07:36:21Z</time>
      </trkpt>
      <trkpt lat="56.335589038208127" lon="-4.334182972088456">
        <ele>79.930000000000007</ele>
        <time>2023-09-02T07:36:22Z</time>
      </trkpt>
      <trkpt lat="56.335674030706286" lon="-4.334223959594965">
        <ele>79.930000000000007</ele>
        <time>2023-09-02T07:36:23Z</time>
      </trkpt>
      <trkpt lat="56.336508030071855" lon="-4.334821002557874">
        <ele>77.040000000000006</ele>
        <time>2023-09-02T07:36:31Z</time>
      </trkpt>
      <trkpt lat="56.337392991408706" lon="-4.335322994738817">
        <ele>74.159999999999997</ele>
        <time>2023-09-02T07:36:39Z</time>
      </trkpt>
      <trkpt lat="56.337674958631396" lon="-4.335422990843654">
        <ele>73.680000000000007</ele>
        <time>2023-09-02T07:36:42Z</time>
      </trkpt>
      <trkpt lat="56.337759029120207" lon="-4.335444029420614">
        <ele>73.680000000000007</ele>
        <time>2023-09-02T07:36:43Z</time>
      </trkpt>
      <trkpt lat="56.337847039103508" lon="-4.335466995835304">
        <ele>73.680000000000007</ele>
        <time>2023-09-02T07:36:44Z</time>
      </trkpt>
      <trkpt lat="56.337976958602667" lon="-4.335501026362181">
        <ele>73.680000000000007</ele>
        <time>2023-09-02T07:36:45Z</time>
      </trkpt>
      <trkpt lat="56.338050970807672" lon="-4.335495997220278">
        <ele>73.680000000000007</ele>
        <time>2023-09-02T07:36:46Z</time>
      </trkpt>
      <trkpt lat="56.338255992159247" lon="-4.33547998778522">
        <ele>74.159999999999997</ele>
        <time>2023-09-02T07:36:48Z</time>
      </trkpt>
      <trkpt lat="56.338293040171266" lon="-4.335431959480047">
        <ele>74.159999999999997</ele>
        <time>2023-09-02T07:36:49Z</time>
      </trkpt>
      <trkpt lat="56.338356994092464" lon="-4.33534998446703">
        <ele>74.159999999999997</ele>
        <time>2023-09-02T07:36:50Z</time>
      </trkpt>
      <trkpt lat="56.338558997958899" lon="-4.335087966173887">
        <ele>75.120000000000005</ele>
        <time>2023-09-02T07:36:53Z</time>
      </trkpt>
      <trkpt lat="56.338628986850381" lon="-4.334999034181237">
        <ele>75.120000000000005</ele>
        <time>2023-09-02T07:36:54Z</time>
      </trkpt>
      <trkpt lat="56.338770976290107" lon="-4.33481496758759">
        <ele>75.599999999999994</ele>
        <time>2023-09-02T07:36:55Z</time>
      </trkpt>
      <trkpt lat="56.339582009240985" lon="-4.334535012021661">
        <ele>81.849999999999994</ele>
        <time>2023-09-02T07:37:03Z</time>
      </trkpt>
      <trkpt lat="56.339689968153834" lon="-4.334509028121829">
        <ele>82.329999999999998</ele>
        <time>2023-09-02T07:37:04Z</time>
      </trkpt>
      <trkpt lat="56.339899012818933" lon="-4.334458988159895">
        <ele>83.290000000000006</ele>
        <time>2023-09-02T07:37:06Z</time>
      </trkpt>
      <trkpt lat="56.339987022802234" lon="-4.334438033401966">
        <ele>83.290000000000006</ele>
        <time>2023-09-02T07:37:07Z</time>
      </trkpt>
      <trkpt lat="56.340062040835619" lon="-4.334420012310147">
        <ele>82.810000000000002</ele>
        <time>2023-09-02T07:37:08Z</time>
      </trkpt>
      <trkpt lat="56.340134041383862" lon="-4.334401991218329">
        <ele>82.810000000000002</ele>
        <time>2023-09-02T07:37:09Z</time>
      </trkpt>
      <trkpt lat="56.340203024446964" lon="-4.33438497595489">
        <ele>82.329999999999998</ele>
        <time>2023-09-02T07:37:10Z</time>
      </trkpt>
      <trkpt lat="56.340401004999876" lon="-4.334353040903807">
        <ele>82.810000000000002</ele>
        <time>2023-09-02T07:37:12Z</time>
      </trkpt>
      <trkpt lat="56.340567972511053" lon="-4.334442978724837">
        <ele>84.730000000000004</ele>
        <time>2023-09-02T07:37:14Z</time>
      </trkpt>
      <trkpt lat="56.340638967230916" lon="-4.334511961787939">
        <ele>85.689999999999998</ele>
        <time>2023-09-02T07:37:15Z</time>
      </trkpt>
      <trkpt lat="56.340877013280988" lon="-4.334741039201617">
        <ele>86.659999999999997</ele>
        <time>2023-09-02T07:37:18Z</time>
      </trkpt>
      <trkpt lat="56.34103300049901" lon="-4.334891997277737">
        <ele>86.659999999999997</ele>
        <time>2023-09-02T07:37:20Z</time>
      </trkpt>
      <trkpt lat="56.341130984947085" lon="-4.33498595841229">
        <ele>86.659999999999997</ele>
        <time>2023-09-02T07:37:21Z</time>
      </trkpt>
      <trkpt lat="56.341186976060271" lon="-4.335047984495759">
        <ele>86.659999999999997</ele>
        <time>2023-09-02T07:37:22Z</time>
      </trkpt>
      <trkpt lat="56.341267023235559" lon="-4.33513599447906">
        <ele>87.140000000000001</ele>
        <time>2023-09-02T07:37:23Z</time>
      </trkpt>
      <trkpt lat="56.341342041268945" lon="-4.335219981148839">
        <ele>87.620000000000005</ele>
        <time>2023-09-02T07:37:24Z</time>
      </trkpt>
      <trkpt lat="56.341417981311679" lon="-4.335302961990237">
        <ele>87.620000000000005</ele>
        <time>2023-09-02T07:37:25Z</time>
      </trkpt>
      <trkpt lat="56.341504985466599" lon="-4.335400024428964">
        <ele>88.099999999999994</ele>
        <time>2023-09-02T07:37:26Z</time>
      </trkpt>
      <trkpt lat="56.341598024591804" lon="-4.335503038018942">
        <ele>88.099999999999994</ele>
        <time>2023-09-02T07:37:27Z</time>
      </trkpt>
      <trkpt lat="56.341797010973096" lon="-4.335721973329783">
        <ele>88.099999999999994</ele>
        <time>2023-09-02T07:37:29Z</time>
      </trkpt>
      <trkpt lat="56.341889966279268" lon="-4.335825992748141">
        <ele>88.099999999999994</ele>
        <time>2023-09-02T07:37:30Z</time>
      </trkpt>
      <trkpt lat="56.342613995075226" lon="-4.336495036259294">
        <ele>89.060000000000002</ele>
        <time>2023-09-02T07:37:38Z</time>
      </trkpt>
      <trkpt lat="56.342897973954678" lon="-4.336731992661953">
        <ele>90.5</ele>
        <time>2023-09-02T07:37:41Z</time>
      </trkpt>
      <trkpt lat="56.342981960624456" lon="-4.336815979331732">
        <ele>90.980000000000004</ele>
        <time>2023-09-02T07:37:42Z</time>
      </trkpt>
      <trkpt lat="56.343068964779377" lon="-4.336902983486652">
        <ele>90.980000000000004</ele>
        <time>2023-09-02T07:37:43Z</time>
      </trkpt>
      <trkpt lat="56.343791987746954" lon="-4.337625000625849">
        <ele>92.900000000000006</ele>
        <time>2023-09-02T07:37:51Z</time>
      </trkpt>
      <trkpt lat="56.344113014638424" lon="-4.337889030575752">
        <ele>99.150000000000006</ele>
        <time>2023-09-02T07:37:54Z</time>
      </trkpt>
      <trkpt lat="56.345022032037377" lon="-4.338061027228832">
        <ele>105.40000000000001</ele>
        <time>2023-09-02T07:38:02Z</time>
      </trkpt>
      <trkpt lat="56.34518195874989" lon="-4.338086005300283">
        <ele>105.88</ele>
        <time>2023-09-02T07:38:04Z</time>
      </trkpt>
      <trkpt lat="56.345284972339869" lon="-4.338067984208465">
        <ele>106.36</ele>
        <time>2023-09-02T07:38:05Z</time>
      </trkpt>
      <trkpt lat="56.345356972888112" lon="-4.338003024458885">
        <ele>106.36</ele>
        <time>2023-09-02T07:38:06Z</time>
      </trkpt>
      <trkpt lat="56.345515977591276" lon="-4.33786204084754">
        <ele>106.84</ele>
        <time>2023-09-02T07:38:08Z</time>
      </trkpt>
      <trkpt lat="56.345904981717467" lon="-4.337377985939384">
        <ele>106.84</ele>
        <time>2023-09-02T07:38:13Z</time>
      </trkpt>
      <trkpt lat="56.346202958375216" lon="-4.336901977658272">
        <ele>103.48</ele>
        <time>2023-09-02T07:38:17Z</time>
      </trkpt>
      <trkpt lat="56.346277976408601" lon="-4.336753031238914">
        <ele>102.52</ele>
        <time>2023-09-02T07:38:18Z</time>
      </trkpt>
      <trkpt lat="56.346950037404895" lon="-4.335408993065357">
        <ele>94.829999999999998</ele>
        <time>2023-09-02T07:38:27Z</time>
      </trkpt>
      <trkpt lat="56.347028994932771" lon="-4.335260968655348">
        <ele>94.349999999999994</ele>
        <time>2023-09-02T07:38:28Z</time>
      </trkpt>
      <trkpt lat="56.347114993259311" lon="-4.335139011964202">
        <ele>93.390000000000001</ele>
        <time>2023-09-02T07:38:29Z</time>
      </trkpt>
      <trkpt lat="56.347270980477333" lon="-4.334916975349188">
        <ele>92.420000000000002</ele>
        <time>2023-09-02T07:38:31Z</time>
      </trkpt>
      <trkpt lat="56.347430991008878" lon="-4.334700973704457">
        <ele>91.459999999999994</ele>
        <time>2023-09-02T07:38:33Z</time>
      </trkpt>
      <trkpt lat="56.347498968243599" lon="-4.334667026996613">
        <ele>90.5</ele>
        <time>2023-09-02T07:38:34Z</time>
      </trkpt>
      <trkpt lat="56.347592007368803" lon="-4.334659986197949">
        <ele>89.540000000000006</ele>
        <time>2023-09-02T07:38:35Z</time>
      </trkpt>
      <trkpt lat="56.347661996260285" lon="-4.334687981754541">
        <ele>89.060000000000002</ele>
        <time>2023-09-02T07:38:36Z</time>
      </trkpt>
      <trkpt lat="56.347728967666626" lon="-4.334713965654373">
        <ele>87.620000000000005</ele>
        <time>2023-09-02T07:38:37Z</time>
      </trkpt>
      <trkpt lat="56.347791999578476" lon="-4.334738021716476">
        <ele>86.180000000000007</ele>
        <time>2023-09-02T07:38:38Z</time>
      </trkpt>
      <trkpt lat="56.347858970984817" lon="-4.334764005616307">
        <ele>84.25</ele>
        <time>2023-09-02T07:38:39Z</time>
      </trkpt>
      <trkpt lat="56.347928959876299" lon="-4.33479099534452">
        <ele>83.290000000000006</ele>
        <time>2023-09-02T07:38:40Z</time>
      </trkpt>
      <trkpt lat="56.348004983738065" lon="-4.334821002557874">
        <ele>81.370000000000005</ele>
        <time>2023-09-02T07:38:41Z</time>
      </trkpt>
      <trkpt lat="56.3481430336833" lon="-4.334874982014298">
        <ele>78.480000000000004</ele>
        <time>2023-09-02T07:38:43Z</time>
      </trkpt>
      <trkpt lat="56.34818896651268" lon="-4.334891997277737">
        <ele>78</ele>
        <time>2023-09-02T07:38:44Z</time>
      </trkpt>
      <trkpt lat="56.348214028403163" lon="-4.334901971742511">
        <ele>78.969999999999999</ele>
        <time>2023-09-02T07:38:45Z</time>
      </trkpt>
      <trkpt lat="56.348414020612836" lon="-4.33511302806437">
        <ele>79.450000000000003</ele>
        <time>2023-09-02T07:38:53Z</time>
      </trkpt>
      <trkpt lat="56.348455008119345" lon="-4.335187962278724">
        <ele>78.969999999999999</ele>
        <time>2023-09-02T07:38:54Z</time>
      </trkpt>
      <trkpt lat="56.348533965647221" lon="-4.335330035537481">
        <ele>78.480000000000004</ele>
        <time>2023-09-02T07:38:55Z</time>
      </trkpt>
      <trkpt lat="56.34855299256742" lon="-4.335409998893738">
        <ele>77.040000000000006</ele>
        <time>2023-09-02T07:38:56Z</time>
      </trkpt>
      <trkpt lat="56.348586017265916" lon="-4.335555005818605">
        <ele>76.560000000000002</ele>
        <time>2023-09-02T07:38:57Z</time>
      </trkpt>
      <trkpt lat="56.348780980333686" lon="-4.336395962163806">
        <ele>74.159999999999997</ele>
        <time>2023-09-02T07:39:03Z</time>
      </trkpt>
      <trkpt lat="56.348808975890279" lon="-4.336513979360461">
        <ele>73.680000000000007</ele>
        <time>2023-09-02T07:39:04Z</time>
      </trkpt>
      <trkpt lat="56.348834037780762" lon="-4.336624033749104">
        <ele>73.680000000000007</ele>
        <time>2023-09-02T07:39:05Z</time>
      </trkpt>
      <trkpt lat="56.348858010023832" lon="-4.336727969348431">
        <ele>73.680000000000007</ele>
        <time>2023-09-02T07:39:06Z</time>
      </trkpt>
      <trkpt lat="56.348882988095284" lon="-4.33683299459517">
        <ele>74.159999999999997</ele>
        <time>2023-09-02T07:39:07Z</time>
      </trkpt>
      <trkpt lat="56.348908971995115" lon="-4.336946988478303">
        <ele>74.640000000000001</ele>
        <time>2023-09-02T07:39:08Z</time>
      </trkpt>
      <trkpt lat="56.348937973380089" lon="-4.337070034816861">
        <ele>74.640000000000001</ele>
        <time>2023-09-02T07:39:09Z</time>
      </trkpt>
      <trkpt lat="56.349099995568395" lon="-4.337417967617512">
        <ele>74.159999999999997</ele>
        <time>2023-09-02T07:39:12Z</time>
      </trkpt>
      <trkpt lat="56.349140983074903" lon="-4.337560962885618">
        <ele>74.159999999999997</ele>
        <time>2023-09-02T07:39:13Z</time>
      </trkpt>
      <trkpt lat="56.349231004714966" lon="-4.337876960635185">
        <ele>74.159999999999997</ele>
        <time>2023-09-02T07:39:15Z</time>
      </trkpt>
      <trkpt lat="56.349322032183409" lon="-4.338192958384752">
        <ele>73.680000000000007</ele>
        <time>2023-09-02T07:39:17Z</time>
      </trkpt>
      <trkpt lat="56.34936997666955" lon="-4.338339976966381">
        <ele>74.159999999999997</ele>
        <time>2023-09-02T07:39:18Z</time>
      </trkpt>
      <trkpt lat="56.349424039945006" lon="-4.338469980284572">
        <ele>74.159999999999997</ele>
        <time>2023-09-02T07:39:19Z</time>
      </trkpt>
      <trkpt lat="56.349479025229812" lon="-4.338599983602762">
        <ele>74.640000000000001</ele>
        <time>2023-09-02T07:39:20Z</time>
      </trkpt>
      <trkpt lat="56.349564017727971" lon="-4.338806010782719">
        <ele>74.640000000000001</ele>
        <time>2023-09-02T07:39:21Z</time>
      </trkpt>
      <trkpt lat="56.349732996895909" lon="-4.339574966579676">
        <ele>76.079999999999998</ele>
        <time>2023-09-02T07:39:26Z</time>
      </trkpt>
      <trkpt lat="56.349767027422786" lon="-4.339732965454459">
        <ele>76.079999999999998</ele>
        <time>2023-09-02T07:39:27Z</time>
      </trkpt>
      <trkpt lat="56.349944975227118" lon="-4.340546010062099">
        <ele>77.519999999999996</ele>
        <time>2023-09-02T07:39:32Z</time>
      </trkpt>
      <trkpt lat="56.349981017410755" lon="-4.340712977573276">
        <ele>77.519999999999996</ele>
        <time>2023-09-02T07:39:33Z</time>
      </trkpt>
      <trkpt lat="56.350017981603742" lon="-4.340882040560246">
        <ele>78</ele>
        <time>2023-09-02T07:39:34Z</time>
      </trkpt>
      <trkpt lat="56.350411009043455" lon="-4.34261198155582">
        <ele>83.769999999999996</ele>
        <time>2023-09-02T07:39:44Z</time>
      </trkpt>
      <trkpt lat="56.35053195990622" lon="-4.343082038685679">
        <ele>87.140000000000001</ele>
        <time>2023-09-02T07:39:47Z</time>
      </trkpt>
      <trkpt lat="56.350569007918239" lon="-4.343226961791515">
        <ele>88.579999999999998</ele>
        <time>2023-09-02T07:39:48Z</time>
      </trkpt>
      <trkpt lat="56.350605972111225" lon="-4.343368029221892">
        <ele>90.019999999999996</ele>
        <time>2023-09-02T07:39:49Z</time>
      </trkpt>
      <trkpt lat="56.350702028721571" lon="-4.343741023913026">
        <ele>91.939999999999998</ele>
        <time>2023-09-02T07:39:51Z</time>
      </trkpt>
      <trkpt lat="56.350764976814389" lon="-4.34540499933064">
        <ele>98.670000000000002</ele>
        <time>2023-09-02T07:39:59Z</time>
      </trkpt>
      <trkpt lat="56.350784003734589" lon="-4.345638016238809">
        <ele>99.150000000000006</ele>
        <time>2023-09-02T07:40:00Z</time>
      </trkpt>
      <trkpt lat="56.350802024826407" lon="-4.345872038975358">
        <ele>100.11</ele>
        <time>2023-09-02T07:40:01Z</time>
      </trkpt>
      <trkpt lat="56.351046022027731" lon="-4.348257025703788">
        <ele>104.44</ele>
        <time>2023-09-02T07:40:12Z</time>
      </trkpt>
      <trkpt lat="56.351190023124218" lon="-4.3491439986974">
        <ele>104.44</ele>
        <time>2023-09-02T07:40:17Z</time>
      </trkpt>
      <trkpt lat="56.351213995367289" lon="-4.349296968430281">
        <ele>103.95999999999999</ele>
        <time>2023-09-02T07:40:18Z</time>
      </trkpt>
      <trkpt lat="56.35125900618732" lon="-4.349577007815242">
        <ele>103.48</ele>
        <time>2023-09-02T07:40:19Z</time>
      </trkpt>
      <trkpt lat="56.35121600702405" lon="-4.350396003574133">
        <ele>101.08</ele>
        <time>2023-09-02T07:40:24Z</time>
      </trkpt>
      <trkpt lat="56.351206032559276" lon="-4.350590966641903">
        <ele>100.59999999999999</ele>
        <time>2023-09-02T07:40:25Z</time>
      </trkpt>
      <trkpt lat="56.35119698010385" lon="-4.350814009085298">
        <ele>100.11</ele>
        <time>2023-09-02T07:40:26Z</time>
      </trkpt>
      <trkpt lat="56.351433014497161" lon="-4.352339012548327">
        <ele>98.670000000000002</ele>
        <time>2023-09-02T07:40:34Z</time>
      </trkpt>
      <trkpt lat="56.351448018103838" lon="-4.35264796949923">
        <ele>97.709999999999994</ele>
        <time>2023-09-02T07:40:36Z</time>
      </trkpt>
      <trkpt lat="56.351460004225373" lon="-4.352896995842457">
        <ele>97.230000000000004</ele>
        <time>2023-09-02T07:40:38Z</time>
      </trkpt>
      <trkpt lat="56.351466039195657" lon="-4.353022975847125">
        <ele>96.269999999999996</ele>
        <time>2023-09-02T07:40:39Z</time>
      </trkpt>
      <trkpt lat="56.35147400200367" lon="-4.353181980550289">
        <ele>95.790000000000006</ele>
        <time>2023-09-02T07:40:40Z</time>
      </trkpt>
      <trkpt lat="56.351422034204006" lon="-4.353694031015039">
        <ele>91.939999999999998</ele>
        <time>2023-09-02T07:40:44Z</time>
      </trkpt>
      <trkpt lat="56.351408958435059" lon="-4.353821016848087">
        <ele>90.980000000000004</ele>
        <time>2023-09-02T07:40:45Z</time>
      </trkpt>
      <trkpt lat="56.351525969803333" lon="-4.355513993650675">
        <ele>76.079999999999998</ele>
        <time>2023-09-02T07:40:55Z</time>
      </trkpt>
      <trkpt lat="56.351573998108506" lon="-4.356014980003238">
        <ele>73.200000000000003</ele>
        <time>2023-09-02T07:40:58Z</time>
      </trkpt>
      <trkpt lat="56.351590007543564" lon="-4.356177002191544">
        <ele>72.239999999999995</ele>
        <time>2023-09-02T07:40:59Z</time>
      </trkpt>
      <trkpt lat="56.351605011150241" lon="-4.356331983581185">
        <ele>71.269999999999996</ele>
        <time>2023-09-02T07:41:00Z</time>
      </trkpt>
      <trkpt lat="56.351680029183626" lon="-4.356710007414222">
        <ele>68.390000000000001</ele>
        <time>2023-09-02T07:41:03Z</time>
      </trkpt>
      <trkpt lat="56.351765021681786" lon="-4.356984011828899">
        <ele>59.740000000000002</ele>
        <time>2023-09-02T07:41:10Z</time>
      </trkpt>
      <trkpt lat="56.351765021681786" lon="-4.356984011828899">
        <ele>55.890000000000001</ele>
        <time>2023-09-02T07:41:13Z</time>
      </trkpt>
      <trkpt lat="56.351398983970284" lon="-4.357707034796476">
        <ele>53.969999999999999</ele>
        <time>2023-09-02T07:41:16Z</time>
      </trkpt>
      <trkpt lat="56.351402001455426" lon="-4.358450006693602">
        <ele>48.68</ele>
        <time>2023-09-02T07:41:22Z</time>
      </trkpt>
      <trkpt lat="56.351624960079789" lon="-4.360814038664103">
        <ele>39.07</ele>
        <time>2023-09-02T07:41:35Z</time>
      </trkpt>
      <trkpt lat="56.35181799530983" lon="-4.362864000722766">
        <ele>46.280000000000001</ele>
        <time>2023-09-02T07:41:46Z</time>
      </trkpt>
      <trkpt lat="56.351944981142879" lon="-4.364543985575438">
        <ele>52.530000000000001</ele>
        <time>2023-09-02T07:41:54Z</time>
      </trkpt>
      <trkpt lat="56.352027961984277" lon="-4.366536028683186">
        <ele>55.409999999999997</ele>
        <time>2023-09-02T07:42:04Z</time>
      </trkpt>
      <trkpt lat="56.351943975314498" lon="-4.367315964773297">
        <ele>57.340000000000003</ele>
        <time>2023-09-02T07:42:09Z</time>
      </trkpt>
      <trkpt lat="56.35188203305006" lon="-4.367647971957922">
        <ele>56.859999999999999</ele>
        <time>2023-09-02T07:42:11Z</time>
      </trkpt>
      <trkpt lat="56.351865017786622" lon="-4.368044016882777">
        <ele>55.890000000000001</ele>
        <time>2023-09-02T07:42:14Z</time>
      </trkpt>
      <trkpt lat="56.351986974477768" lon="-4.368387004360557">
        <ele>56.369999999999997</ele>
        <time>2023-09-02T07:42:18Z</time>
      </trkpt>
      <trkpt lat="56.352196019142866" lon="-4.369044983759522">
        <ele>60.219999999999999</ele>
        <time>2023-09-02T07:42:26Z</time>
      </trkpt>
      <trkpt lat="56.352133993059397" lon="-4.369279006496072">
        <ele>59.740000000000002</ele>
        <time>2023-09-02T07:42:28Z</time>
      </trkpt>
      <trkpt lat="56.352117983624339" lon="-4.369961963966489">
        <ele>59.740000000000002</ele>
        <time>2023-09-02T07:42:32Z</time>
      </trkpt>
      <trkpt lat="56.351935006678104" lon="-4.369971016421914">
        <ele>60.700000000000003</ele>
        <time>2023-09-02T07:42:34Z</time>
      </trkpt>
      <trkpt lat="56.352083031088114" lon="-4.370099008083344">
        <ele>65.989999999999995</ele>
        <time>2023-09-02T07:42:39Z</time>
      </trkpt>
      <trkpt lat="56.352532971650362" lon="-4.370021978393197">
        <ele>72.239999999999995</ele>
        <time>2023-09-02T07:42:44Z</time>
      </trkpt>
      <trkpt lat="56.352769006043673" lon="-4.370197998359799">
        <ele>73.200000000000003</ele>
        <time>2023-09-02T07:42:47Z</time>
      </trkpt>
      <trkpt lat="56.353742983192205" lon="-4.371227966621518">
        <ele>79.930000000000007</ele>
        <time>2023-09-02T07:42:58Z</time>
      </trkpt>
      <trkpt lat="56.353825964033604" lon="-4.371328968554735">
        <ele>80.409999999999997</ele>
        <time>2023-09-02T07:42:59Z</time>
      </trkpt>
      <trkpt lat="56.353997960686684" lon="-4.371536001563072">
        <ele>83.290000000000006</ele>
        <time>2023-09-02T07:43:01Z</time>
      </trkpt>
      <trkpt lat="56.354151014238596" lon="-4.37170397490263">
        <ele>84.730000000000004</ele>
        <time>2023-09-02T07:43:03Z</time>
      </trkpt>
      <trkpt lat="56.354255033656955" lon="-4.371728030964732">
        <ele>85.209999999999994</ele>
        <time>2023-09-02T07:43:04Z</time>
      </trkpt>
      <trkpt lat="56.354356035590172" lon="-4.371752003207803">
        <ele>86.180000000000007</ele>
        <time>2023-09-02T07:43:05Z</time>
      </trkpt>
      <trkpt lat="56.354441028088331" lon="-4.371772035956383">
        <ele>86.659999999999997</ele>
        <time>2023-09-02T07:43:06Z</time>
      </trkpt>
      <trkpt lat="56.354507999494672" lon="-4.37178703956306">
        <ele>87.140000000000001</ele>
        <time>2023-09-02T07:43:07Z</time>
      </trkpt>
      <trkpt lat="56.354572037234902" lon="-4.371801959350705">
        <ele>88.099999999999994</ele>
        <time>2023-09-02T07:43:08Z</time>
      </trkpt>
      <trkpt lat="56.354624005034566" lon="-4.371814029291272">
        <ele>88.579999999999998</ele>
        <time>2023-09-02T07:43:09Z</time>
      </trkpt>
      <trkpt lat="56.354777980595827" lon="-4.371850993484259">
        <ele>89.540000000000006</ele>
        <time>2023-09-02T07:43:10Z</time>
      </trkpt>
      <trkpt lat="56.354790972545743" lon="-4.371906984597445">
        <ele>90.019999999999996</ele>
        <time>2023-09-02T07:43:11Z</time>
      </trkpt>
      <trkpt lat="56.354812011122704" lon="-4.37200304120779">
        <ele>90.019999999999996</ele>
        <time>2023-09-02T07:43:12Z</time>
      </trkpt>
      <trkpt lat="56.354863978922367" lon="-4.372236980125308">
        <ele>90.5</ele>
        <time>2023-09-02T07:43:13Z</time>
      </trkpt>
      <trkpt lat="56.354863978922367" lon="-4.372236980125308">
        <ele>91.459999999999994</ele>
        <time>2023-09-02T07:43:14Z</time>
      </trkpt>
      <trkpt lat="56.354902032762766" lon="-4.372289031744003">
        <ele>91.459999999999994</ele>
        <time>2023-09-02T07:43:15Z</time>
      </trkpt>
      <trkpt lat="56.354966992512345" lon="-4.372380981221795">
        <ele>91.939999999999998</ele>
        <time>2023-09-02T07:43:16Z</time>
      </trkpt>
      <trkpt lat="56.355261029675603" lon="-4.372795969247818">
        <ele>92.900000000000006</ele>
        <time>2023-09-02T07:43:20Z</time>
      </trkpt>
      <trkpt lat="56.355365971103311" lon="-4.372909963130951">
        <ele>92.900000000000006</ele>
        <time>2023-09-02T07:43:21Z</time>
      </trkpt>
      <trkpt lat="56.355724968016148" lon="-4.373008031398058">
        <ele>92.900000000000006</ele>
        <time>2023-09-02T07:43:24Z</time>
      </trkpt>
      <trkpt lat="56.356280017644167" lon="-4.373301984742284">
        <ele>95.790000000000006</ele>
        <time>2023-09-02T07:43:29Z</time>
      </trkpt>
      <trkpt lat="56.356387976557016" lon="-4.373354036360979">
        <ele>96.269999999999996</ele>
        <time>2023-09-02T07:43:30Z</time>
      </trkpt>
      <trkpt lat="56.356845963746309" lon="-4.373392006382346">
        <ele>99.629999999999995</ele>
        <time>2023-09-02T07:43:37Z</time>
      </trkpt>
      <trkpt lat="56.356916036456823" lon="-4.373371973633766">
        <ele>101.56</ele>
        <time>2023-09-02T07:43:40Z</time>
      </trkpt>
      <trkpt lat="56.356912013143301" lon="-4.373278012499213">
        <ele>102.04000000000001</ele>
        <time>2023-09-02T07:43:41Z</time>
      </trkpt>
      <trkpt lat="56.35693397372961" lon="-4.373190002515912">
        <ele>103</ele>
        <time>2023-09-02T07:43:42Z</time>
      </trkpt>
      <trkpt lat="56.35714503005147" lon="-4.372505033388734">
        <ele>105.40000000000001</ele>
        <time>2023-09-02T07:43:48Z</time>
      </trkpt>
      <trkpt lat="56.357238991186023" lon="-4.372274028137326">
        <ele>107.31999999999999</ele>
        <time>2023-09-02T07:43:54Z</time>
      </trkpt>
      <trkpt lat="56.357238991186023" lon="-4.372274028137326">
        <ele>108.77</ele>
        <time>2023-09-02T07:44:10Z</time>
      </trkpt>
      <trkpt lat="56.357251983135939" lon="-4.372243015095592">
        <ele>108.77</ele>
        <time>2023-09-02T07:44:12Z</time>
      </trkpt>
      <trkpt lat="56.357263969257474" lon="-4.372214013710618">
        <ele>109.73</ele>
        <time>2023-09-02T07:44:13Z</time>
      </trkpt>
      <trkpt lat="56.357289031147957" lon="-4.372150981798768">
        <ele>110.69</ele>
        <time>2023-09-02T07:44:14Z</time>
      </trkpt>
      <trkpt lat="56.357294982299209" lon="-4.372132960706949">
        <ele>111.17</ele>
        <time>2023-09-02T07:44:15Z</time>
      </trkpt>
      <trkpt lat="56.357304034754634" lon="-4.372104965150356">
        <ele>111.65000000000001</ele>
        <time>2023-09-02T07:44:16Z</time>
      </trkpt>
      <trkpt lat="56.357304034754634" lon="-4.372104965150356">
        <ele>115.5</ele>
        <time>2023-09-02T07:44:28Z</time>
      </trkpt>
      <trkpt lat="56.357304034754634" lon="-4.372104965150356">
        <ele>116.45999999999999</ele>
        <time>2023-09-02T07:44:37Z</time>
      </trkpt>
      <trkpt lat="56.357291964814067" lon="-4.372187023982406">
        <ele>117.90000000000001</ele>
        <time>2023-09-02T07:44:39Z</time>
      </trkpt>
      <trkpt lat="56.357030030339956" lon="-4.37282002530992">
        <ele>120.3</ele>
        <time>2023-09-02T07:44:46Z</time>
      </trkpt>
      <trkpt lat="56.356945037841797" lon="-4.373148009181023">
        <ele>120.3</ele>
        <time>2023-09-02T07:44:49Z</time>
      </trkpt>
      <trkpt lat="56.356928022578359" lon="-4.373214980587363">
        <ele>120.3</ele>
        <time>2023-09-02T07:44:50Z</time>
      </trkpt>
      <trkpt lat="56.356914024800062" lon="-4.373269965872169">
        <ele>119.81999999999999</ele>
        <time>2023-09-02T07:44:51Z</time>
      </trkpt>
      <trkpt lat="56.356881000101566" lon="-4.373395023867488">
        <ele>119.81999999999999</ele>
        <time>2023-09-02T07:44:52Z</time>
      </trkpt>
      <trkpt lat="56.356946965679526" lon="-4.373350013047457">
        <ele>119.81999999999999</ele>
        <time>2023-09-02T07:44:53Z</time>
      </trkpt>
      <trkpt lat="56.356960963457823" lon="-4.373340038582683">
        <ele>119.81999999999999</ele>
        <time>2023-09-02T07:44:54Z</time>
      </trkpt>
      <trkpt lat="56.356980996206403" lon="-4.373326962813735">
        <ele>119.81999999999999</ele>
        <time>2023-09-02T07:44:55Z</time>
      </trkpt>
      <trkpt lat="56.357001028954983" lon="-4.373312965035439">
        <ele>119.81999999999999</ele>
        <time>2023-09-02T07:44:56Z</time>
      </trkpt>
      <trkpt lat="56.357020977884531" lon="-4.373298967257142">
        <ele>119.81999999999999</ele>
        <time>2023-09-02T07:44:57Z</time>
      </trkpt>
      <trkpt lat="56.357041010633111" lon="-4.373284969478846">
        <ele>119.81999999999999</ele>
        <time>2023-09-02T07:44:58Z</time>
      </trkpt>
      <trkpt lat="56.357056014239788" lon="-4.373274995014072">
        <ele>119.81999999999999</ele>
        <time>2023-09-02T07:44:59Z</time>
      </trkpt>
      <trkpt lat="56.357071017846465" lon="-4.373264014720917">
        <ele>119.81999999999999</ele>
        <time>2023-09-02T07:45:00Z</time>
      </trkpt>
      <trkpt lat="56.357088033109903" lon="-4.373253034427762">
        <ele>119.81999999999999</ele>
        <time>2023-09-02T07:45:01Z</time>
      </trkpt>
      <trkpt lat="56.357088033109903" lon="-4.373253034427762">
        <ele>119.81999999999999</ele>
        <time>2023-09-02T07:45:14Z</time>
      </trkpt>
      <trkpt lat="56.358288992196321" lon="-4.37209197320044">
        <ele>137.61000000000001</ele>
        <time>2023-09-02T08:07:33Z</time>
      </trkpt>
      <trkpt lat="56.358180027455091" lon="-4.37198300845921">
        <ele>145.30000000000001</ele>
        <time>2023-09-02T08:07:43Z</time>
      </trkpt>
      <trkpt lat="56.358154965564609" lon="-4.371975967660546">
        <ele>144.34</ele>
        <time>2023-09-02T08:07:44Z</time>
      </trkpt>
      <trkpt lat="56.357923038303852" lon="-4.371877983212471">
        <ele>140.49000000000001</ele>
        <time>2023-09-02T08:07:58Z</time>
      </trkpt>
      <trkpt lat="56.357535040006042" lon="-4.371976973488927">
        <ele>129.43000000000001</ele>
        <time>2023-09-02T08:08:14Z</time>
      </trkpt>
      <trkpt lat="56.357457004487514" lon="-4.372009998187423">
        <ele>126.06999999999999</ele>
        <time>2023-09-02T08:08:21Z</time>
      </trkpt>
      <trkpt lat="56.357362037524581" lon="-4.371931962668896">
        <ele>126.55</ele>
        <time>2023-09-02T08:08:24Z</time>
      </trkpt>
      <trkpt lat="56.357376035302877" lon="-4.371889969334006">
        <ele>126.55</ele>
        <time>2023-09-02T08:08:25Z</time>
      </trkpt>
      <trkpt lat="56.357401013374329" lon="-4.371815035119653">
        <ele>126.55</ele>
        <time>2023-09-02T08:08:26Z</time>
      </trkpt>
      <trkpt lat="56.357434038072824" lon="-4.371715961024165">
        <ele>126.55</ele>
        <time>2023-09-02T08:08:27Z</time>
      </trkpt>
      <trkpt lat="56.357524981722236" lon="-4.371442962437868">
        <ele>125.59</ele>
        <time>2023-09-02T08:08:31Z</time>
      </trkpt>
      <trkpt lat="56.357548031955957" lon="-4.371296027675271">
        <ele>125.11</ele>
        <time>2023-09-02T08:08:32Z</time>
      </trkpt>
      <trkpt lat="56.357566975057125" lon="-4.371180022135377">
        <ele>124.63</ele>
        <time>2023-09-02T08:08:33Z</time>
      </trkpt>
      <trkpt lat="56.357587007805705" lon="-4.371053036302328">
        <ele>124.63</ele>
        <time>2023-09-02T08:08:34Z</time>
      </trkpt>
      <trkpt lat="56.357608968392015" lon="-4.370912974700332">
        <ele>124.15000000000001</ele>
        <time>2023-09-02T08:08:35Z</time>
      </trkpt>
      <trkpt lat="56.357633024454117" lon="-4.370765034109354">
        <ele>123.67</ele>
        <time>2023-09-02T08:08:36Z</time>
      </trkpt>
      <trkpt lat="56.357655990868807" lon="-4.370618015527725">
        <ele>123.67</ele>
        <time>2023-09-02T08:08:37Z</time>
      </trkpt>
      <trkpt lat="56.357665965333581" lon="-4.370444007217884">
        <ele>123.19</ele>
        <time>2023-09-02T08:08:38Z</time>
      </trkpt>
      <trkpt lat="56.357639981433749" lon="-4.370289025828242">
        <ele>123.19</ele>
        <time>2023-09-02T08:08:39Z</time>
      </trkpt>
      <trkpt lat="56.357541996985674" lon="-4.369631968438625">
        <ele>122.22</ele>
        <time>2023-09-02T08:08:43Z</time>
      </trkpt>
      <trkpt lat="56.35753302834928" lon="-4.369443040341139">
        <ele>121.73999999999999</ele>
        <time>2023-09-02T08:08:44Z</time>
      </trkpt>
      <trkpt lat="56.357527999207377" lon="-4.36925201676786">
        <ele>121.73999999999999</ele>
        <time>2023-09-02T08:08:45Z</time>
      </trkpt>
      <trkpt lat="56.357734026387334" lon="-4.367432976141572">
        <ele>127.51000000000001</ele>
        <time>2023-09-02T08:08:53Z</time>
      </trkpt>
      <trkpt lat="56.357761016115546" lon="-4.366143001243472">
        <ele>131.84</ele>
        <time>2023-09-02T08:08:59Z</time>
      </trkpt>
      <trkpt lat="56.357788005843759" lon="-4.365982990711927">
        <ele>132.31999999999999</ele>
        <time>2023-09-02T08:09:00Z</time>
      </trkpt>
      <trkpt lat="56.357849026098847" lon="-4.365613013505936">
        <ele>133.75999999999999</ele>
        <time>2023-09-02T08:09:02Z</time>
      </trkpt>
      <trkpt lat="56.357879033312201" lon="-4.365434981882572">
        <ele>134.72</ele>
        <time>2023-09-02T08:09:03Z</time>
      </trkpt>
      <trkpt lat="56.357910968363285" lon="-4.365242030471563">
        <ele>135.68000000000001</ele>
        <time>2023-09-02T08:09:04Z</time>
      </trkpt>
      <trkpt lat="56.357901999726892" lon="-4.364829976111651">
        <ele>137.13</ele>
        <time>2023-09-02T08:09:06Z</time>
      </trkpt>
      <trkpt lat="56.357896970584989" lon="-4.364612968638539">
        <ele>137.61000000000001</ele>
        <time>2023-09-02T08:09:07Z</time>
      </trkpt>
      <trkpt lat="56.357867969200015" lon="-4.363417960703373">
        <ele>141.93000000000001</ele>
        <time>2023-09-02T08:09:13Z</time>
      </trkpt>
      <trkpt lat="56.357909962534904" lon="-4.36162599362433">
        <ele>141.93000000000001</ele>
        <time>2023-09-02T08:09:22Z</time>
      </trkpt>
      <trkpt lat="56.357953967526555" lon="-4.359365981072187">
        <ele>140.49000000000001</ele>
        <time>2023-09-02T08:09:34Z</time>
      </trkpt>
      <trkpt lat="56.357918009161949" lon="-4.35818899422884">
        <ele>142.88999999999999</ele>
        <time>2023-09-02T08:09:40Z</time>
      </trkpt>
      <trkpt lat="56.357883978635073" lon="-4.358001993969083">
        <ele>143.37</ele>
        <time>2023-09-02T08:09:41Z</time>
      </trkpt>
      <trkpt lat="56.357658002525568" lon="-4.356596013531089">
        <ele>144.81999999999999</ele>
        <time>2023-09-02T08:09:48Z</time>
      </trkpt>
      <trkpt lat="56.357645010575652" lon="-4.356389986351132">
        <ele>145.30000000000001</ele>
        <time>2023-09-02T08:09:49Z</time>
      </trkpt>
      <trkpt lat="56.357630006968975" lon="-4.356173984706402">
        <ele>145.30000000000001</ele>
        <time>2023-09-02T08:09:50Z</time>
      </trkpt>
      <trkpt lat="56.357615003362298" lon="-4.355950020253658">
        <ele>145.30000000000001</ele>
        <time>2023-09-02T08:09:51Z</time>
      </trkpt>
      <trkpt lat="56.357567980885506" lon="-4.355712980031967">
        <ele>145.78</ele>
        <time>2023-09-02T08:09:52Z</time>
      </trkpt>
      <trkpt lat="56.357514001429081" lon="-4.355491027235985">
        <ele>145.78</ele>
        <time>2023-09-02T08:09:53Z</time>
      </trkpt>
      <trkpt lat="56.357460021972656" lon="-4.355273013934493">
        <ele>145.78</ele>
        <time>2023-09-02T08:09:54Z</time>
      </trkpt>
      <trkpt lat="56.357047967612743" lon="-4.353753961622715">
        <ele>145.30000000000001</ele>
        <time>2023-09-02T08:10:02Z</time>
      </trkpt>
      <trkpt lat="56.357009997591376" lon="-4.353580037131906">
        <ele>145.30000000000001</ele>
        <time>2023-09-02T08:10:03Z</time>
      </trkpt>
      <trkpt lat="56.356881000101566" lon="-4.352861037477851">
        <ele>146.25999999999999</ele>
        <time>2023-09-02T08:10:08Z</time>
      </trkpt>
      <trkpt lat="56.356903966516256" lon="-4.35266699641943">
        <ele>146.74000000000001</ele>
        <time>2023-09-02T08:10:09Z</time>
      </trkpt>
      <trkpt lat="56.356920981779695" lon="-4.352528024464846">
        <ele>146.74000000000001</ele>
        <time>2023-09-02T08:10:10Z</time>
      </trkpt>
      <trkpt lat="56.356955012306571" lon="-4.352240022271872">
        <ele>147.69999999999999</ele>
        <time>2023-09-02T08:10:12Z</time>
      </trkpt>
      <trkpt lat="56.356972027570009" lon="-4.352099960669875">
        <ele>147.69999999999999</ele>
        <time>2023-09-02T08:10:13Z</time>
      </trkpt>
      <trkpt lat="56.356988959014416" lon="-4.35195897705853">
        <ele>147.69999999999999</ele>
        <time>2023-09-02T08:10:14Z</time>
      </trkpt>
      <trkpt lat="56.356951994821429" lon="-4.351794021204114">
        <ele>147.69999999999999</ele>
        <time>2023-09-02T08:10:15Z</time>
      </trkpt>
      <trkpt lat="56.356917964294553" lon="-4.351641973480582">
        <ele>147.22</ele>
        <time>2023-09-02T08:10:16Z</time>
      </trkpt>
      <trkpt lat="56.356885023415089" lon="-4.351493027061224">
        <ele>146.74000000000001</ele>
        <time>2023-09-02T08:10:17Z</time>
      </trkpt>
      <trkpt lat="56.356851998716593" lon="-4.351342990994453">
        <ele>146.25999999999999</ele>
        <time>2023-09-02T08:10:18Z</time>
      </trkpt>
      <trkpt lat="56.356753008440137" lon="-4.350897995755076">
        <ele>145.78</ele>
        <time>2023-09-02T08:10:21Z</time>
      </trkpt>
      <trkpt lat="56.356730964034796" lon="-4.350801017135382">
        <ele>145.78</ele>
        <time>2023-09-02T08:10:22Z</time>
      </trkpt>
      <trkpt lat="56.356684025377035" lon="-4.350374964997172">
        <ele>145.30000000000001</ele>
        <time>2023-09-02T08:10:25Z</time>
      </trkpt>
      <trkpt lat="56.356686959043145" lon="-4.349214993417263">
        <ele>144.34</ele>
        <time>2023-09-02T08:10:32Z</time>
      </trkpt>
      <trkpt lat="56.3566720392555" lon="-4.349053977057338">
        <ele>144.34</ele>
        <time>2023-09-02T08:10:33Z</time>
      </trkpt>
      <trkpt lat="56.356646977365017" lon="-4.348896984010935">
        <ele>144.34</ele>
        <time>2023-09-02T08:10:34Z</time>
      </trkpt>
      <trkpt lat="56.356614958494902" lon="-4.34873697347939">
        <ele>144.81999999999999</ele>
        <time>2023-09-02T08:10:35Z</time>
      </trkpt>
      <trkpt lat="56.356582017615438" lon="-4.348575035110116">
        <ele>144.81999999999999</ele>
        <time>2023-09-02T08:10:36Z</time>
      </trkpt>
      <trkpt lat="56.356520997360349" lon="-4.348270017653704">
        <ele>144.81999999999999</ele>
        <time>2023-09-02T08:10:38Z</time>
      </trkpt>
      <trkpt lat="56.356498030945659" lon="-4.348152000457048">
        <ele>144.34</ele>
        <time>2023-09-02T08:10:39Z</time>
      </trkpt>
      <trkpt lat="56.356473974883556" lon="-4.348032977432013">
        <ele>144.34</ele>
        <time>2023-09-02T08:10:40Z</time>
      </trkpt>
      <trkpt lat="56.356500964611769" lon="-4.347813036292791">
        <ele>144.34</ele>
        <time>2023-09-02T08:10:42Z</time>
      </trkpt>
      <trkpt lat="56.356517979875207" lon="-4.347678003832698">
        <ele>144.34</ele>
        <time>2023-09-02T08:10:43Z</time>
      </trkpt>
      <trkpt lat="56.356533989310265" lon="-4.347549006342888">
        <ele>143.84999999999999</ele>
        <time>2023-09-02T08:10:44Z</time>
      </trkpt>
      <trkpt lat="56.356551004573703" lon="-4.347416991367936">
        <ele>143.37</ele>
        <time>2023-09-02T08:10:45Z</time>
      </trkpt>
      <trkpt lat="56.356568019837141" lon="-4.347276007756591">
        <ele>142.88999999999999</ele>
        <time>2023-09-02T08:10:46Z</time>
      </trkpt>
      <trkpt lat="56.35658604092896" lon="-4.347132006660104">
        <ele>142.88999999999999</ele>
        <time>2023-09-02T08:10:47Z</time>
      </trkpt>
      <trkpt lat="56.356604984030128" lon="-4.346979036927223">
        <ele>142.88999999999999</ele>
        <time>2023-09-02T08:10:48Z</time>
      </trkpt>
      <trkpt lat="56.356623005121946" lon="-4.346817014738917">
        <ele>143.37</ele>
        <time>2023-09-02T08:10:49Z</time>
      </trkpt>
      <trkpt lat="56.35661001317203" lon="-4.346481990069151">
        <ele>143.84999999999999</ele>
        <time>2023-09-02T08:10:51Z</time>
      </trkpt>
      <trkpt lat="56.356602972373366" lon="-4.346306975930929">
        <ele>143.84999999999999</ele>
        <time>2023-09-02T08:10:52Z</time>
      </trkpt>
      <trkpt lat="56.356596015393734" lon="-4.346128022298217">
        <ele>144.34</ele>
        <time>2023-09-02T08:10:53Z</time>
      </trkpt>
      <trkpt lat="56.35658897459507" lon="-4.34594496153295">
        <ele>144.34</ele>
        <time>2023-09-02T08:10:54Z</time>
      </trkpt>
      <trkpt lat="56.356582017615438" lon="-4.345773970708251">
        <ele>144.81999999999999</ele>
        <time>2023-09-02T08:10:55Z</time>
      </trkpt>
      <trkpt lat="56.356575982645154" lon="-4.345612032338977">
        <ele>144.81999999999999</ele>
        <time>2023-09-02T08:10:56Z</time>
      </trkpt>
      <trkpt lat="56.356569025665522" lon="-4.345445986837149">
        <ele>145.30000000000001</ele>
        <time>2023-09-02T08:10:57Z</time>
      </trkpt>
      <trkpt lat="56.356561984866858" lon="-4.345269966870546">
        <ele>145.30000000000001</ele>
        <time>2023-09-02T08:10:58Z</time>
      </trkpt>
      <trkpt lat="56.356547987088561" lon="-4.34510501101613">
        <ele>145.30000000000001</ele>
        <time>2023-09-02T08:10:59Z</time>
      </trkpt>
      <trkpt lat="56.356527032330632" lon="-4.344937959685922">
        <ele>145.30000000000001</ele>
        <time>2023-09-02T08:11:00Z</time>
      </trkpt>
      <trkpt lat="56.35645997710526" lon="-4.344402020797133">
        <ele>145.30000000000001</ele>
        <time>2023-09-02T08:11:03Z</time>
      </trkpt>
      <trkpt lat="56.356430975720286" lon="-4.344170009717345">
        <ele>144.81999999999999</ele>
        <time>2023-09-02T08:11:04Z</time>
      </trkpt>
      <trkpt lat="56.356510017067194" lon="-4.343237020075321">
        <ele>144.81999999999999</ele>
        <time>2023-09-02T08:11:09Z</time>
      </trkpt>
      <trkpt lat="56.356508005410433" lon="-4.343052031472325">
        <ele>145.30000000000001</ele>
        <time>2023-09-02T08:11:10Z</time>
      </trkpt>
      <trkpt lat="56.356448996812105" lon="-4.342303024604917">
        <ele>145.78</ele>
        <time>2023-09-02T08:11:14Z</time>
      </trkpt>
      <trkpt lat="56.356430975720286" lon="-4.341916032135487">
        <ele>145.30000000000001</ele>
        <time>2023-09-02T08:11:16Z</time>
      </trkpt>
      <trkpt lat="56.356430975720286" lon="-4.340944988653064">
        <ele>145.30000000000001</ele>
        <time>2023-09-02T08:11:21Z</time>
      </trkpt>
      <trkpt lat="56.356419995427132" lon="-4.340739967301488">
        <ele>145.30000000000001</ele>
        <time>2023-09-02T08:11:22Z</time>
      </trkpt>
      <trkpt lat="56.356386970728636" lon="-4.340545004233718">
        <ele>144.81999999999999</ele>
        <time>2023-09-02T08:11:23Z</time>
      </trkpt>
      <trkpt lat="56.356240035966039" lon="-4.339677980169654">
        <ele>144.81999999999999</ele>
        <time>2023-09-02T08:11:28Z</time>
      </trkpt>
      <trkpt lat="56.356246992945671" lon="-4.33951897546649">
        <ele>144.81999999999999</ele>
        <time>2023-09-02T08:11:29Z</time>
      </trkpt>
      <trkpt lat="56.356256967410445" lon="-4.339359970763326">
        <ele>144.81999999999999</ele>
        <time>2023-09-02T08:11:30Z</time>
      </trkpt>
      <trkpt lat="56.356277000159025" lon="-4.339027963578701">
        <ele>144.34</ele>
        <time>2023-09-02T08:11:32Z</time>
      </trkpt>
      <trkpt lat="56.356264008209109" lon="-4.338827971369028">
        <ele>143.37</ele>
        <time>2023-09-02T08:11:34Z</time>
      </trkpt>
      <trkpt lat="56.35605001822114" lon="-4.336049035191536">
        <ele>144.81999999999999</ele>
        <time>2023-09-02T08:11:47Z</time>
      </trkpt>
      <trkpt lat="56.356043983250856" lon="-4.335673023015261">
        <ele>145.30000000000001</ele>
        <time>2023-09-02T08:11:49Z</time>
      </trkpt>
      <trkpt lat="56.356078013777733" lon="-4.335527010262013">
        <ele>145.30000000000001</ele>
        <time>2023-09-02T08:11:50Z</time>
      </trkpt>
      <trkpt lat="56.3561159837991" lon="-4.335361970588565">
        <ele>145.30000000000001</ele>
        <time>2023-09-02T08:11:51Z</time>
      </trkpt>
      <trkpt lat="56.356231989338994" lon="-4.33485796675086">
        <ele>144.34</ele>
        <time>2023-09-02T08:11:54Z</time>
      </trkpt>
      <trkpt lat="56.356430975720286" lon="-4.333998989313841">
        <ele>140.97</ele>
        <time>2023-09-02T08:11:59Z</time>
      </trkpt>
      <trkpt lat="56.356441034004092" lon="-4.333835039287806">
        <ele>140.49000000000001</ele>
        <time>2023-09-02T08:12:00Z</time>
      </trkpt>
      <trkpt lat="56.356538012623787" lon="-4.332153964787722">
        <ele>136.63999999999999</ele>
        <time>2023-09-02T08:12:08Z</time>
      </trkpt>
      <trkpt lat="56.356538012623787" lon="-4.331961013376713">
        <ele>136.63999999999999</ele>
        <time>2023-09-02T08:12:09Z</time>
      </trkpt>
      <trkpt lat="56.356522003188729" lon="-4.331767978146672">
        <ele>136.16</ele>
        <time>2023-09-02T08:12:10Z</time>
      </trkpt>
      <trkpt lat="56.356487972661853" lon="-4.331578966230154">
        <ele>135.68000000000001</ele>
        <time>2023-09-02T08:12:11Z</time>
      </trkpt>
      <trkpt lat="56.356454025954008" lon="-4.331389032304287">
        <ele>135.19999999999999</ele>
        <time>2023-09-02T08:12:12Z</time>
      </trkpt>
      <trkpt lat="56.356419995427132" lon="-4.331206977367401">
        <ele>135.19999999999999</ele>
        <time>2023-09-02T08:12:13Z</time>
      </trkpt>
      <trkpt lat="56.356371967121959" lon="-4.330939007923007">
        <ele>134.24000000000001</ele>
        <time>2023-09-02T08:12:15Z</time>
      </trkpt>
      <trkpt lat="56.356337014585733" lon="-4.330872036516666">
        <ele>133.75999999999999</ele>
        <time>2023-09-02T08:12:16Z</time>
      </trkpt>
      <trkpt lat="56.356285968795419" lon="-4.330807998776436">
        <ele>133.28</ele>
        <time>2023-09-02T08:12:17Z</time>
      </trkpt>
      <trkpt lat="56.356234000995755" lon="-4.330741027370095">
        <ele>132.31999999999999</ele>
        <time>2023-09-02T08:12:18Z</time>
      </trkpt>
      <trkpt lat="56.356182033196092" lon="-4.330674977973104">
        <ele>131.84</ele>
        <time>2023-09-02T08:12:19Z</time>
      </trkpt>
      <trkpt lat="56.356127969920635" lon="-4.330605994910002">
        <ele>131.36000000000001</ele>
        <time>2023-09-02T08:12:20Z</time>
      </trkpt>
      <trkpt lat="56.355996038764715" lon="-4.330438021570444">
        <ele>130.40000000000001</ele>
        <time>2023-09-02T08:12:22Z</time>
      </trkpt>
      <trkpt lat="56.355561017990112" lon="-4.329739976674318">
        <ele>126.55</ele>
        <time>2023-09-02T08:12:28Z</time>
      </trkpt>
      <trkpt lat="56.355494968593121" lon="-4.329578960314393">
        <ele>126.06999999999999</ele>
        <time>2023-09-02T08:12:29Z</time>
      </trkpt>
      <trkpt lat="56.355439983308315" lon="-4.329402018338442">
        <ele>126.06999999999999</ele>
        <time>2023-09-02T08:12:30Z</time>
      </trkpt>
      <trkpt lat="56.35538499802351" lon="-4.329228010028601">
        <ele>125.59</ele>
        <time>2023-09-02T08:12:31Z</time>
      </trkpt>
      <trkpt lat="56.355333030223846" lon="-4.329062970355153">
        <ele>125.11</ele>
        <time>2023-09-02T08:12:32Z</time>
      </trkpt>
      <trkpt lat="56.355283996090293" lon="-4.328908994793892">
        <ele>125.11</ele>
        <time>2023-09-02T08:12:33Z</time>
      </trkpt>
      <trkpt lat="56.355197997763753" lon="-4.328789971768856">
        <ele>125.11</ele>
        <time>2023-09-02T08:12:34Z</time>
      </trkpt>
      <trkpt lat="56.355117028579116" lon="-4.328701039776206">
        <ele>124.63</ele>
        <time>2023-09-02T08:12:35Z</time>
      </trkpt>
      <trkpt lat="56.355028012767434" lon="-4.32860397733748">
        <ele>124.15000000000001</ele>
        <time>2023-09-02T08:12:36Z</time>
      </trkpt>
      <trkpt lat="56.354931034147739" lon="-4.328499035909772">
        <ele>123.67</ele>
        <time>2023-09-02T08:12:37Z</time>
      </trkpt>
      <trkpt lat="56.354831960052252" lon="-4.328390993177891">
        <ele>122.70999999999999</ele>
        <time>2023-09-02T08:12:38Z</time>
      </trkpt>
      <trkpt lat="56.354727018624544" lon="-4.328276999294758">
        <ele>122.22</ele>
        <time>2023-09-02T08:12:39Z</time>
      </trkpt>
      <trkpt lat="56.354304989799857" lon="-4.327651038765907">
        <ele>119.34</ele>
        <time>2023-09-02T08:12:44Z</time>
      </trkpt>
      <trkpt lat="56.353872986510396" lon="-4.326323010027409">
        <ele>118.38</ele>
        <time>2023-09-02T08:12:53Z</time>
      </trkpt>
      <trkpt lat="56.353797968477011" lon="-4.326012963429093">
        <ele>117.90000000000001</ele>
        <time>2023-09-02T08:12:55Z</time>
      </trkpt>
      <trkpt lat="56.353771984577179" lon="-4.325862005352974">
        <ele>117.90000000000001</ele>
        <time>2023-09-02T08:12:56Z</time>
      </trkpt>
      <trkpt lat="56.35371096432209" lon="-4.325502002611756">
        <ele>118.38</ele>
        <time>2023-09-02T08:12:59Z</time>
      </trkpt>
      <trkpt lat="56.353696966543794" lon="-4.325422961264849">
        <ele>118.38</ele>
        <time>2023-09-02T08:13:00Z</time>
      </trkpt>
      <trkpt lat="56.353684980422258" lon="-4.325351966544986">
        <ele>119.34</ele>
        <time>2023-09-02T08:13:01Z</time>
      </trkpt>
      <trkpt lat="56.353672994300723" lon="-4.325280971825123">
        <ele>119.81999999999999</ele>
        <time>2023-09-02T08:13:02Z</time>
      </trkpt>
      <trkpt lat="56.353663019835949" lon="-4.325222969055176">
        <ele>120.78</ele>
        <time>2023-09-02T08:13:03Z</time>
      </trkpt>
      <trkpt lat="56.353692021220922" lon="-4.325063964352012">
        <ele>121.73999999999999</ele>
        <time>2023-09-02T08:13:04Z</time>
      </trkpt>
      <trkpt lat="56.353749018162489" lon="-4.325030017644167">
        <ele>122.70999999999999</ele>
        <time>2023-09-02T08:13:05Z</time>
      </trkpt>
      <trkpt lat="56.353779025375843" lon="-4.325005039572716">
        <ele>123.67</ele>
        <time>2023-09-02T08:13:06Z</time>
      </trkpt>
      <trkpt lat="56.35383602231741" lon="-4.324959022924304">
        <ele>124.63</ele>
        <time>2023-09-02T08:13:07Z</time>
      </trkpt>
      <trkpt lat="56.353898970410228" lon="-4.324906971305609">
        <ele>126.06999999999999</ele>
        <time>2023-09-02T08:13:08Z</time>
      </trkpt>
      <trkpt lat="56.354055963456631" lon="-4.324797000735998">
        <ele>127.51000000000001</ele>
        <time>2023-09-02T08:13:10Z</time>
      </trkpt>
      <trkpt lat="56.354178003966808" lon="-4.324729023501277">
        <ele>127.98999999999999</ele>
        <time>2023-09-02T08:13:11Z</time>
      </trkpt>
      <trkpt lat="56.354238018393517" lon="-4.324772022664547">
        <ele>128.47</ele>
        <time>2023-09-02T08:13:12Z</time>
      </trkpt>
      <trkpt lat="56.354328040033579" lon="-4.324836982414126">
        <ele>128.94999999999999</ele>
        <time>2023-09-02T08:13:13Z</time>
      </trkpt>
      <trkpt lat="56.354348994791508" lon="-4.324875036254525">
        <ele>129.43000000000001</ele>
        <time>2023-09-02T08:13:14Z</time>
      </trkpt>
      <trkpt lat="56.354374978691339" lon="-4.324922980740666">
        <ele>129.91999999999999</ele>
        <time>2023-09-02T08:13:15Z</time>
      </trkpt>
      <trkpt lat="56.354371039196849" lon="-4.325207965448499">
        <ele>129.91999999999999</ele>
        <time>2023-09-02T08:13:16Z</time>
      </trkpt>
      <trkpt lat="56.354338014498353" lon="-4.325261022895575">
        <ele>130.40000000000001</ele>
        <time>2023-09-02T08:13:17Z</time>
      </trkpt>
      <trkpt lat="56.354297026991844" lon="-4.325326988473535">
        <ele>130.88</ele>
        <time>2023-09-02T08:13:18Z</time>
      </trkpt>
      <trkpt lat="56.354242041707039" lon="-4.325412986800075">
        <ele>131.36000000000001</ele>
        <time>2023-09-02T08:13:19Z</time>
      </trkpt>
      <trkpt lat="56.354176998138428" lon="-4.325516000390053">
        <ele>131.36000000000001</ele>
        <time>2023-09-02T08:13:20Z</time>
      </trkpt>
      <trkpt lat="56.353413993492723" lon="-4.326726011931896">
        <ele>133.75999999999999</ele>
        <time>2023-09-02T08:13:28Z</time>
      </trkpt>
      <trkpt lat="56.352091999724507" lon="-4.328150013461709">
        <ele>134.72</ele>
        <time>2023-09-02T08:13:37Z</time>
      </trkpt>
      <trkpt lat="56.350726000964642" lon="-4.328480008989573">
        <ele>135.19999999999999</ele>
        <time>2023-09-02T08:13:44Z</time>
      </trkpt>
      <trkpt lat="56.348984995856881" lon="-4.328169962391257">
        <ele>134.72</ele>
        <time>2023-09-02T08:13:53Z</time>
      </trkpt>
      <trkpt lat="56.347230998799205" lon="-4.327811971306801">
        <ele>130.88</ele>
        <time>2023-09-02T08:14:03Z</time>
      </trkpt>
      <trkpt lat="56.345559982582927" lon="-4.327331017702818">
        <ele>130.40000000000001</ele>
        <time>2023-09-02T08:14:12Z</time>
      </trkpt>
      <trkpt lat="56.343301981687546" lon="-4.32675501331687">
        <ele>134.72</ele>
        <time>2023-09-02T08:14:24Z</time>
      </trkpt>
      <trkpt lat="56.341638006269932" lon="-4.326172973960638">
        <ele>140.49000000000001</ele>
        <time>2023-09-02T08:14:33Z</time>
      </trkpt>
      <trkpt lat="56.341081028804183" lon="-4.325973987579346">
        <ele>141.93000000000001</ele>
        <time>2023-09-02T08:14:36Z</time>
      </trkpt>
      <trkpt lat="56.339373970404267" lon="-4.325599987059832">
        <ele>145.30000000000001</ele>
        <time>2023-09-02T08:14:45Z</time>
      </trkpt>
      <trkpt lat="56.338269989937544" lon="-4.325397983193398">
        <ele>148.18000000000001</ele>
        <time>2023-09-02T08:14:51Z</time>
      </trkpt>
      <trkpt lat="56.336580030620098" lon="-4.324721982702613">
        <ele>150.58000000000001</ele>
        <time>2023-09-02T08:15:00Z</time>
      </trkpt>
      <trkpt lat="56.334693012759089" lon="-4.32402896694839">
        <ele>147.69999999999999</ele>
        <time>2023-09-02T08:15:10Z</time>
      </trkpt>
      <trkpt lat="56.333378981798887" lon="-4.324067020788789">
        <ele>144.81999999999999</ele>
        <time>2023-09-02T08:15:17Z</time>
      </trkpt>
      <trkpt lat="56.331317033618689" lon="-4.324616035446525">
        <ele>141.44999999999999</ele>
        <time>2023-09-02T08:15:28Z</time>
      </trkpt>
      <trkpt lat="56.329563958570361" lon="-4.325133031234145">
        <ele>140.49000000000001</ele>
        <time>2023-09-02T08:15:38Z</time>
      </trkpt>
      <trkpt lat="56.328662987798452" lon="-4.325761003419757">
        <ele>139.05000000000001</ele>
        <time>2023-09-02T08:15:46Z</time>
      </trkpt>
      <trkpt lat="56.327685993164778" lon="-4.326773034408689">
        <ele>134.72</ele>
        <time>2023-09-02T08:15:56Z</time>
      </trkpt>
      <trkpt lat="56.32678896188736" lon="-4.327676016837359">
        <ele>133.28</ele>
        <time>2023-09-02T08:16:05Z</time>
      </trkpt>
      <trkpt lat="56.325805010274053" lon="-4.328350005671382">
        <ele>131.84</ele>
        <time>2023-09-02T08:16:14Z</time>
      </trkpt>
      <trkpt lat="56.325024990364909" lon="-4.328739009797573">
        <ele>132.80000000000001</ele>
        <time>2023-09-02T08:16:21Z</time>
      </trkpt>
      <trkpt lat="56.323751024901867" lon="-4.328658040612936">
        <ele>129.91999999999999</ele>
        <time>2023-09-02T08:16:32Z</time>
      </trkpt>
      <trkpt lat="56.322470018640161" lon="-4.328485960140824">
        <ele>132.80000000000001</ele>
        <time>2023-09-02T08:16:43Z</time>
      </trkpt>
      <trkpt lat="56.321056997403502" lon="-4.328311029821634">
        <ele>133.75999999999999</ele>
        <time>2023-09-02T08:16:55Z</time>
      </trkpt>
      <trkpt lat="56.320926994085312" lon="-4.328298037871718">
        <ele>133.75999999999999</ele>
        <time>2023-09-02T08:16:56Z</time>
      </trkpt>
      <trkpt lat="56.32040698081255" lon="-4.328284040093422">
        <ele>134.24000000000001</ele>
        <time>2023-09-02T08:17:00Z</time>
      </trkpt>
      <trkpt lat="56.32027898915112" lon="-4.328290997073054">
        <ele>134.24000000000001</ele>
        <time>2023-09-02T08:17:01Z</time>
      </trkpt>
      <trkpt lat="56.320045972242951" lon="-4.328417982906103">
        <ele>134.72</ele>
        <time>2023-09-02T08:17:03Z</time>
      </trkpt>
      <trkpt lat="56.319929966703057" lon="-4.328483026474714">
        <ele>134.72</ele>
        <time>2023-09-02T08:17:04Z</time>
      </trkpt>
      <trkpt lat="56.319084987044334" lon="-4.329086020588875">
        <ele>135.19999999999999</ele>
        <time>2023-09-02T08:17:11Z</time>
      </trkpt>
      <trkpt lat="56.31894601508975" lon="-4.329156009480357">
        <ele>134.72</ele>
        <time>2023-09-02T08:17:12Z</time>
      </trkpt>
      <trkpt lat="56.318806959316134" lon="-4.32920303195715">
        <ele>134.24000000000001</ele>
        <time>2023-09-02T08:17:13Z</time>
      </trkpt>
      <trkpt lat="56.31866798736155" lon="-4.32924896478653">
        <ele>133.75999999999999</ele>
        <time>2023-09-02T08:17:14Z</time>
      </trkpt>
      <trkpt lat="56.318533038720489" lon="-4.329293975606561">
        <ele>133.28</ele>
        <time>2023-09-02T08:17:15Z</time>
      </trkpt>
      <trkpt lat="56.31677501834929" lon="-4.329416016116738">
        <ele>131.36000000000001</ele>
        <time>2023-09-02T08:17:27Z</time>
      </trkpt>
      <trkpt lat="56.315327966585755" lon="-4.329067999497056">
        <ele>130.40000000000001</ele>
        <time>2023-09-02T08:17:35Z</time>
      </trkpt>
      <trkpt lat="56.313328966498375" lon="-4.327966030687094">
        <ele>128.47</ele>
        <time>2023-09-02T08:17:46Z</time>
      </trkpt>
      <trkpt lat="56.311846040189266" lon="-4.326780997216702">
        <ele>127.03</ele>
        <time>2023-09-02T08:17:55Z</time>
      </trkpt>
      <trkpt lat="56.31039697676897" lon="-4.325324976816773">
        <ele>125.59</ele>
        <time>2023-09-02T08:18:05Z</time>
      </trkpt>
      <trkpt lat="56.308743981644511" lon="-4.323865016922355">
        <ele>123.67</ele>
        <time>2023-09-02T08:18:16Z</time>
      </trkpt>
      <trkpt lat="56.306501990184188" lon="-4.322226019576192">
        <ele>126.06999999999999</ele>
        <time>2023-09-02T08:18:28Z</time>
      </trkpt>
      <trkpt lat="56.305399015545845" lon="-4.320771005004644">
        <ele>125.59</ele>
        <time>2023-09-02T08:18:35Z</time>
      </trkpt>
      <trkpt lat="56.304395031183958" lon="-4.319200990721583">
        <ele>125.59</ele>
        <time>2023-09-02T08:18:42Z</time>
      </trkpt>
      <trkpt lat="56.303995968773961" lon="-4.318511998280883">
        <ele>126.06999999999999</ele>
        <time>2023-09-02T08:18:45Z</time>
      </trkpt>
      <trkpt lat="56.303859008476138" lon="-4.318271018564701">
        <ele>126.55</ele>
        <time>2023-09-02T08:18:46Z</time>
      </trkpt>
      <trkpt lat="56.303717019036412" lon="-4.318102039396763">
        <ele>126.55</ele>
        <time>2023-09-02T08:18:47Z</time>
      </trkpt>
      <trkpt lat="56.302786041051149" lon="-4.316995041444898">
        <ele>129.91999999999999</ele>
        <time>2023-09-02T08:18:54Z</time>
      </trkpt>
      <trkpt lat="56.302593005821109" lon="-4.316661022603512">
        <ele>130.40000000000001</ele>
        <time>2023-09-02T08:18:56Z</time>
      </trkpt>
      <trkpt lat="56.302572973072529" lon="-4.316580975428224">
        <ele>130.88</ele>
        <time>2023-09-02T08:18:57Z</time>
      </trkpt>
      <trkpt lat="56.302550006657839" lon="-4.316362962126732">
        <ele>130.40000000000001</ele>
        <time>2023-09-02T08:18:58Z</time>
      </trkpt>
      <trkpt lat="56.302550006657839" lon="-4.316132962703705">
        <ele>130.40000000000001</ele>
        <time>2023-09-02T08:18:59Z</time>
      </trkpt>
      <trkpt lat="56.30253198556602" lon="-4.315878991037607">
        <ele>129.91999999999999</ele>
        <time>2023-09-02T08:19:00Z</time>
      </trkpt>
      <trkpt lat="56.302483035251498" lon="-4.315575985237956">
        <ele>129.43000000000001</ele>
        <time>2023-09-02T08:19:01Z</time>
      </trkpt>
      <trkpt lat="56.302413968369365" lon="-4.315271973609924">
        <ele>129.43000000000001</ele>
        <time>2023-09-02T08:19:02Z</time>
      </trkpt>
      <trkpt lat="56.301731010898948" lon="-4.31274801492691">
        <ele>126.06999999999999</ele>
        <time>2023-09-02T08:19:11Z</time>
      </trkpt>
      <trkpt lat="56.300973035395145" lon="-4.310542987659574">
        <ele>122.70999999999999</ele>
        <time>2023-09-02T08:19:19Z</time>
      </trkpt>
      <trkpt lat="56.299866959452629" lon="-4.307523993775249">
        <ele>117.90000000000001</ele>
        <time>2023-09-02T08:19:30Z</time>
      </trkpt>
      <trkpt lat="56.299147959798574" lon="-4.305975018069148">
        <ele>119.34</ele>
        <time>2023-09-02T08:19:36Z</time>
      </trkpt>
      <trkpt lat="56.297858990728855" lon="-4.303941987454891">
        <ele>122.22</ele>
        <time>2023-09-02T08:19:45Z</time>
      </trkpt>
      <trkpt lat="56.296702958643436" lon="-4.302356969565153">
        <ele>122.22</ele>
        <time>2023-09-02T08:19:53Z</time>
      </trkpt>
      <trkpt lat="56.296582007780671" lon="-4.302125964313746">
        <ele>122.22</ele>
        <time>2023-09-02T08:19:54Z</time>
      </trkpt>
      <trkpt lat="56.296485029160976" lon="-4.301871992647648">
        <ele>122.22</ele>
        <time>2023-09-02T08:19:55Z</time>
      </trkpt>
      <trkpt lat="56.296395007520914" lon="-4.301622966304421">
        <ele>122.22</ele>
        <time>2023-09-02T08:19:56Z</time>
      </trkpt>
      <trkpt lat="56.296335998922586" lon="-4.301363965496421">
        <ele>122.22</ele>
        <time>2023-09-02T08:19:57Z</time>
      </trkpt>
      <trkpt lat="56.296288976445794" lon="-4.301106976345182">
        <ele>121.73999999999999</ele>
        <time>2023-09-02T08:19:58Z</time>
      </trkpt>
      <trkpt lat="56.296245977282524" lon="-4.300869014114142">
        <ele>122.22</ele>
        <time>2023-09-02T08:19:59Z</time>
      </trkpt>
      <trkpt lat="56.296199038624763" lon="-4.300611019134522">
        <ele>122.22</ele>
        <time>2023-09-02T08:20:00Z</time>
      </trkpt>
      <trkpt lat="56.296212030574679" lon="-4.300397029146552">
        <ele>122.22</ele>
        <time>2023-09-02T08:20:01Z</time>
      </trkpt>
      <trkpt lat="56.296227034181356" lon="-4.300151020288467">
        <ele>122.70999999999999</ele>
        <time>2023-09-02T08:20:02Z</time>
      </trkpt>
      <trkpt lat="56.296242959797382" lon="-4.299892019480467">
        <ele>123.19</ele>
        <time>2023-09-02T08:20:03Z</time>
      </trkpt>
      <trkpt lat="56.296294005587697" lon="-4.299358008429408">
        <ele>122.70999999999999</ele>
        <time>2023-09-02T08:20:05Z</time>
      </trkpt>
      <trkpt lat="56.296328036114573" lon="-4.299002029001713">
        <ele>122.70999999999999</ele>
        <time>2023-09-02T08:20:06Z</time>
      </trkpt>
      <trkpt lat="56.296300040557981" lon="-4.298826009035111">
        <ele>123.19</ele>
        <time>2023-09-02T08:20:07Z</time>
      </trkpt>
      <trkpt lat="56.295974990352988" lon="-4.29639601148665">
        <ele>124.15000000000001</ele>
        <time>2023-09-02T08:20:15Z</time>
      </trkpt>
      <trkpt lat="56.295787990093231" lon="-4.293942963704467">
        <ele>125.59</ele>
        <time>2023-09-02T08:20:23Z</time>
      </trkpt>
      <trkpt lat="56.295731998980045" lon="-4.293352961540222">
        <ele>126.06999999999999</ele>
        <time>2023-09-02T08:20:25Z</time>
      </trkpt>
      <trkpt lat="56.295669972896576" lon="-4.293061019852758">
        <ele>127.03</ele>
        <time>2023-09-02T08:20:26Z</time>
      </trkpt>
      <trkpt lat="56.295582968741655" lon="-4.292811993509531">
        <ele>127.51000000000001</ele>
        <time>2023-09-02T08:20:27Z</time>
      </trkpt>
      <trkpt lat="56.295480960980058" lon="-4.292578976601362">
        <ele>127.98999999999999</ele>
        <time>2023-09-02T08:20:28Z</time>
      </trkpt>
      <trkpt lat="56.295362021774054" lon="-4.292372027412057">
        <ele>128.47</ele>
        <time>2023-09-02T08:20:29Z</time>
      </trkpt>
      <trkpt lat="56.295241992920637" lon="-4.292160971090198">
        <ele>128.94999999999999</ele>
        <time>2023-09-02T08:20:30Z</time>
      </trkpt>
      <trkpt lat="56.295123975723982" lon="-4.291955027729273">
        <ele>129.43000000000001</ele>
        <time>2023-09-02T08:20:31Z</time>
      </trkpt>
      <trkpt lat="56.294992966577411" lon="-4.291801974177361">
        <ele>129.43000000000001</ele>
        <time>2023-09-02T08:20:32Z</time>
      </trkpt>
      <trkpt lat="56.294849971309304" lon="-4.291652021929622">
        <ele>129.43000000000001</ele>
        <time>2023-09-02T08:20:33Z</time>
      </trkpt>
      <trkpt lat="56.293631996959448" lon="-4.290535971522331">
        <ele>129.91999999999999</ele>
        <time>2023-09-02T08:20:41Z</time>
      </trkpt>
      <trkpt lat="56.293350029736757" lon="-4.290260039269924">
        <ele>129.91999999999999</ele>
        <time>2023-09-02T08:20:43Z</time>
      </trkpt>
      <trkpt lat="56.293238969519734" lon="-4.290082007646561">
        <ele>129.91999999999999</ele>
        <time>2023-09-02T08:20:44Z</time>
      </trkpt>
      <trkpt lat="56.293154982849956" lon="-4.289903976023197">
        <ele>129.91999999999999</ele>
        <time>2023-09-02T08:20:45Z</time>
      </trkpt>
      <trkpt lat="56.292474959045649" lon="-4.28810496814549">
        <ele>128.94999999999999</ele>
        <time>2023-09-02T08:20:52Z</time>
      </trkpt>
      <trkpt lat="56.292374040931463" lon="-4.287841022014618">
        <ele>128.94999999999999</ele>
        <time>2023-09-02T08:20:53Z</time>
      </trkpt>
      <trkpt lat="56.291149025782943" lon="-4.285948975011706">
        <ele>128.94999999999999</ele>
        <time>2023-09-02T08:21:02Z</time>
      </trkpt>
      <trkpt lat="56.290518958121538" lon="-4.285430973395705">
        <ele>128.94999999999999</ele>
        <time>2023-09-02T08:21:06Z</time>
      </trkpt>
      <trkpt lat="56.289167962968349" lon="-4.284511981531978">
        <ele>129.91999999999999</ele>
        <time>2023-09-02T08:21:14Z</time>
      </trkpt>
      <trkpt lat="56.288999989628792" lon="-4.284396981820464">
        <ele>130.40000000000001</ele>
        <time>2023-09-02T08:21:15Z</time>
      </trkpt>
      <trkpt lat="56.287660980597138" lon="-4.283990962430835">
        <ele>132.80000000000001</ele>
        <time>2023-09-02T08:21:22Z</time>
      </trkpt>
      <trkpt lat="56.286118039861321" lon="-4.284031027927995">
        <ele>136.63999999999999</ele>
        <time>2023-09-02T08:21:30Z</time>
      </trkpt>
      <trkpt lat="56.284577026963234" lon="-4.284122977405787">
        <ele>135.68000000000001</ele>
        <time>2023-09-02T08:21:38Z</time>
      </trkpt>
      <trkpt lat="56.283443039283156" lon="-4.284389019012451">
        <ele>135.19999999999999</ele>
        <time>2023-09-02T08:21:44Z</time>
      </trkpt>
      <trkpt lat="56.283256961032748" lon="-4.284380972385407">
        <ele>135.19999999999999</ele>
        <time>2023-09-02T08:21:45Z</time>
      </trkpt>
      <trkpt lat="56.283073984086514" lon="-4.284319030120969">
        <ele>135.19999999999999</ele>
        <time>2023-09-02T08:21:46Z</time>
      </trkpt>
      <trkpt lat="56.282886983826756" lon="-4.284254992380738">
        <ele>135.19999999999999</ele>
        <time>2023-09-02T08:21:47Z</time>
      </trkpt>
      <trkpt lat="56.282698977738619" lon="-4.284191960468888">
        <ele>134.72</ele>
        <time>2023-09-02T08:21:48Z</time>
      </trkpt>
      <trkpt lat="56.281358962878585" lon="-4.283874034881592">
        <ele>135.19999999999999</ele>
        <time>2023-09-02T08:21:55Z</time>
      </trkpt>
      <trkpt lat="56.279658023267984" lon="-4.283960033208132">
        <ele>137.13</ele>
        <time>2023-09-02T08:22:04Z</time>
      </trkpt>
      <trkpt lat="56.278341980651021" lon="-4.283502968028188">
        <ele>137.61000000000001</ele>
        <time>2023-09-02T08:22:11Z</time>
      </trkpt>
      <trkpt lat="56.276909010484815" lon="-4.282500995323062">
        <ele>135.68000000000001</ele>
        <time>2023-09-02T08:22:19Z</time>
      </trkpt>
      <trkpt lat="56.276430990546942" lon="-4.282126994803548">
        <ele>134.24000000000001</ele>
        <time>2023-09-02T08:22:22Z</time>
      </trkpt>
      <trkpt lat="56.276254970580339" lon="-4.282092964276671">
        <ele>133.75999999999999</ele>
        <time>2023-09-02T08:22:23Z</time>
      </trkpt>
      <trkpt lat="56.276079034432769" lon="-4.282092964276671">
        <ele>132.80000000000001</ele>
        <time>2023-09-02T08:22:24Z</time>
      </trkpt>
      <trkpt lat="56.275907959789038" lon="-4.282124983146787">
        <ele>132.31999999999999</ele>
        <time>2023-09-02T08:22:25Z</time>
      </trkpt>
      <trkpt lat="56.274898024275899" lon="-4.282323969528079">
        <ele>128.47</ele>
        <time>2023-09-02T08:22:31Z</time>
      </trkpt>
      <trkpt lat="56.273895967751741" lon="-4.282492026686668">
        <ele>125.59</ele>
        <time>2023-09-02T08:22:37Z</time>
      </trkpt>
      <trkpt lat="56.272523012012243" lon="-4.282704005017877">
        <ele>122.22</ele>
        <time>2023-09-02T08:22:45Z</time>
      </trkpt>
      <trkpt lat="56.272355038672686" lon="-4.282743986696005">
        <ele>121.73999999999999</ele>
        <time>2023-09-02T08:22:46Z</time>
      </trkpt>
      <trkpt lat="56.272189998999238" lon="-4.282782962545753">
        <ele>120.78</ele>
        <time>2023-09-02T08:22:47Z</time>
      </trkpt>
      <trkpt lat="56.271839970722795" lon="-4.282865021377802">
        <ele>119.34</ele>
        <time>2023-09-02T08:22:49Z</time>
      </trkpt>
      <trkpt lat="56.270449999719858" lon="-4.283487964421511">
        <ele>112.61</ele>
        <time>2023-09-02T08:22:57Z</time>
      </trkpt>
      <trkpt lat="56.269205035641789" lon="-4.284238982945681">
        <ele>106.84</ele>
        <time>2023-09-02T08:23:04Z</time>
      </trkpt>
      <trkpt lat="56.269022980704904" lon="-4.284266978502274">
        <ele>105.88</ele>
        <time>2023-09-02T08:23:05Z</time>
      </trkpt>
      <trkpt lat="56.268837992101908" lon="-4.284295979887247">
        <ele>104.92</ele>
        <time>2023-09-02T08:23:06Z</time>
      </trkpt>
      <trkpt lat="56.267218021675944" lon="-4.284696970134974">
        <ele>99.150000000000006</ele>
        <time>2023-09-02T08:23:15Z</time>
      </trkpt>
      <trkpt lat="56.266688033938408" lon="-4.284947002306581">
        <ele>98.670000000000002</ele>
        <time>2023-09-02T08:23:18Z</time>
      </trkpt>
      <trkpt lat="56.264678975567222" lon="-4.286447027698159">
        <ele>104.92</ele>
        <time>2023-09-02T08:23:30Z</time>
      </trkpt>
      <trkpt lat="56.264514019712806" lon="-4.286566972732544">
        <ele>105.40000000000001</ele>
        <time>2023-09-02T08:23:31Z</time>
      </trkpt>
      <trkpt lat="56.264345962554216" lon="-4.286624975502491">
        <ele>105.88</ele>
        <time>2023-09-02T08:23:32Z</time>
      </trkpt>
      <trkpt lat="56.263022040948272" lon="-4.286609971895814">
        <ele>109.25</ele>
        <time>2023-09-02T08:23:39Z</time>
      </trkpt>
      <trkpt lat="56.262686010450125" lon="-4.286500001326203">
        <ele>110.20999999999999</ele>
        <time>2023-09-02T08:23:41Z</time>
      </trkpt>
      <trkpt lat="56.262518959119916" lon="-4.28642800077796">
        <ele>111.17</ele>
        <time>2023-09-02T08:23:42Z</time>
      </trkpt>
      <trkpt lat="56.262360960245132" lon="-4.286314006894827">
        <ele>111.65000000000001</ele>
        <time>2023-09-02T08:23:43Z</time>
      </trkpt>
      <trkpt lat="56.262207990512252" lon="-4.286180986091495">
        <ele>112.61</ele>
        <time>2023-09-02T08:23:44Z</time>
      </trkpt>
      <trkpt lat="56.262072036042809" lon="-4.286011001095176">
        <ele>113.09</ele>
        <time>2023-09-02T08:23:45Z</time>
      </trkpt>
      <trkpt lat="56.261944966390729" lon="-4.285812014713883">
        <ele>113.56999999999999</ele>
        <time>2023-09-02T08:23:46Z</time>
      </trkpt>
      <trkpt lat="56.261844970285892" lon="-4.285655021667481">
        <ele>114.05</ele>
        <time>2023-09-02T08:23:47Z</time>
      </trkpt>
      <trkpt lat="56.261697029694915" lon="-4.285438014194369">
        <ele>114.05</ele>
        <time>2023-09-02T08:23:48Z</time>
      </trkpt>
      <trkpt lat="56.261566020548344" lon="-4.28524699062109">
        <ele>114.05</ele>
        <time>2023-09-02T08:23:49Z</time>
      </trkpt>
      <trkpt lat="56.261426964774728" lon="-4.285164009779692">
        <ele>114.05</ele>
        <time>2023-09-02T08:23:50Z</time>
      </trkpt>
      <trkpt lat="56.261243987828493" lon="-4.285054039210081">
        <ele>113.56999999999999</ele>
        <time>2023-09-02T08:23:51Z</time>
      </trkpt>
      <trkpt lat="56.261135023087263" lon="-4.285054039210081">
        <ele>113.09</ele>
        <time>2023-09-02T08:23:52Z</time>
      </trkpt>
      <trkpt lat="56.260998984798789" lon="-4.285148000344634">
        <ele>112.61</ele>
        <time>2023-09-02T08:23:53Z</time>
      </trkpt>
      <trkpt lat="56.260877028107643" lon="-4.285258976742625">
        <ele>112.13</ele>
        <time>2023-09-02T08:23:54Z</time>
      </trkpt>
      <trkpt lat="56.26076596789062" lon="-4.285413958132267">
        <ele>111.65000000000001</ele>
        <time>2023-09-02T08:23:55Z</time>
      </trkpt>
      <trkpt lat="56.260653985664248" lon="-4.285569023340941">
        <ele>111.17</ele>
        <time>2023-09-02T08:23:56Z</time>
      </trkpt>
      <trkpt lat="56.260551977902651" lon="-4.285711012780666">
        <ele>110.20999999999999</ele>
        <time>2023-09-02T08:23:57Z</time>
      </trkpt>
      <trkpt lat="56.260428009554744" lon="-4.285779995843768">
        <ele>109.73</ele>
        <time>2023-09-02T08:23:58Z</time>
      </trkpt>
      <trkpt lat="56.260293982923031" lon="-4.285801034420729">
        <ele>108.77</ele>
        <time>2023-09-02T08:23:59Z</time>
      </trkpt>
      <trkpt lat="56.260179989039898" lon="-4.285715958103538">
        <ele>107.81</ele>
        <time>2023-09-02T08:24:00Z</time>
      </trkpt>
      <trkpt lat="56.260045040398836" lon="-4.285615039989352">
        <ele>106.84</ele>
        <time>2023-09-02T08:24:01Z</time>
      </trkpt>
      <trkpt lat="56.258848020806909" lon="-4.284669980406761">
        <ele>106.36</ele>
        <time>2023-09-02T08:24:08Z</time>
      </trkpt>
      <trkpt lat="56.256749024614692" lon="-4.282937021926045">
        <ele>110.20999999999999</ele>
        <time>2023-09-02T08:24:20Z</time>
      </trkpt>
      <trkpt lat="56.254692021757364" lon="-4.281457029283047">
        <ele>114.05</ele>
        <time>2023-09-02T08:24:32Z</time>
      </trkpt>
      <trkpt lat="56.253631040453911" lon="-4.280994012951851">
        <ele>114.05</ele>
        <time>2023-09-02T08:24:38Z</time>
      </trkpt>
      <trkpt lat="56.253068028017879" lon="-4.280910026282072">
        <ele>114.05</ele>
        <time>2023-09-02T08:24:41Z</time>
      </trkpt>
      <trkpt lat="56.252888990566134" lon="-4.280947996303439">
        <ele>113.56999999999999</ele>
        <time>2023-09-02T08:24:42Z</time>
      </trkpt>
      <trkpt lat="56.252423962578177" lon="-4.281039023771882">
        <ele>114.05</ele>
        <time>2023-09-02T08:24:45Z</time>
      </trkpt>
      <trkpt lat="56.252296976745129" lon="-4.281029971316457">
        <ele>114.05</ele>
        <time>2023-09-02T08:24:46Z</time>
      </trkpt>
      <trkpt lat="56.252146018669009" lon="-4.281019996851683">
        <ele>114.53</ele>
        <time>2023-09-02T08:24:47Z</time>
      </trkpt>
      <trkpt lat="56.251585017889738" lon="-4.280581958591938">
        <ele>116.45999999999999</ele>
        <time>2023-09-02T08:24:52Z</time>
      </trkpt>
      <trkpt lat="56.251455014571548" lon="-4.280475005507469">
        <ele>116.94</ele>
        <time>2023-09-02T08:24:53Z</time>
      </trkpt>
      <trkpt lat="56.251361975446343" lon="-4.280302003026009">
        <ele>117.42</ele>
        <time>2023-09-02T08:24:54Z</time>
      </trkpt>
      <trkpt lat="56.25109501183033" lon="-4.279497005045414">
        <ele>118.38</ele>
        <time>2023-09-02T08:24:57Z</time>
      </trkpt>
      <trkpt lat="56.250975988805294" lon="-4.279258958995342">
        <ele>118.38</ele>
        <time>2023-09-02T08:24:58Z</time>
      </trkpt>
      <trkpt lat="56.250841040164232" lon="-4.278987972065806">
        <ele>118.38</ele>
        <time>2023-09-02T08:24:59Z</time>
      </trkpt>
      <trkpt lat="56.2507080193609" lon="-4.278739029541612">
        <ele>117.90000000000001</ele>
        <time>2023-09-02T08:25:00Z</time>
      </trkpt>
      <trkpt lat="56.250568963587284" lon="-4.278509030118585">
        <ele>117.90000000000001</ele>
        <time>2023-09-02T08:25:01Z</time>
      </trkpt>
      <trkpt lat="56.250354973599315" lon="-4.278026986867189">
        <ele>117.42</ele>
        <time>2023-09-02T08:25:03Z</time>
      </trkpt>
      <trkpt lat="56.250281967222691" lon="-4.277777960523963">
        <ele>116.94</ele>
        <time>2023-09-02T08:25:04Z</time>
      </trkpt>
      <trkpt lat="56.250224970281124" lon="-4.277516026049852">
        <ele>116.45999999999999</ele>
        <time>2023-09-02T08:25:05Z</time>
      </trkpt>
      <trkpt lat="56.25008599832654" lon="-4.276403998956084">
        <ele>115.01000000000001</ele>
        <time>2023-09-02T08:25:09Z</time>
      </trkpt>
      <trkpt lat="56.25008599832654" lon="-4.276142986491323">
        <ele>115.01000000000001</ele>
        <time>2023-09-02T08:25:10Z</time>
      </trkpt>
      <trkpt lat="56.25010896474123" lon="-4.275895971804857">
        <ele>114.53</ele>
        <time>2023-09-02T08:25:11Z</time>
      </trkpt>
      <trkpt lat="56.250190017744899" lon="-4.275356009602547">
        <ele>113.09</ele>
        <time>2023-09-02T08:25:13Z</time>
      </trkpt>
      <trkpt lat="56.250262018293142" lon="-4.275121986865997">
        <ele>112.61</ele>
        <time>2023-09-02T08:25:14Z</time>
      </trkpt>
      <trkpt lat="56.250335024669766" lon="-4.274895004928112">
        <ele>112.13</ele>
        <time>2023-09-02T08:25:15Z</time>
      </trkpt>
      <trkpt lat="56.250422028824687" lon="-4.274672968313098">
        <ele>111.65000000000001</ele>
        <time>2023-09-02T08:25:16Z</time>
      </trkpt>
      <trkpt lat="56.250535016879439" lon="-4.274476999416947">
        <ele>111.17</ele>
        <time>2023-09-02T08:25:17Z</time>
      </trkpt>
      <trkpt lat="56.251330962404609" lon="-4.273317027837038">
        <ele>112.13</ele>
        <time>2023-09-02T08:25:23Z</time>
      </trkpt>
      <trkpt lat="56.251475969329476" lon="-4.272862980142236">
        <ele>113.56999999999999</ele>
        <time>2023-09-02T08:25:25Z</time>
      </trkpt>
      <trkpt lat="56.251562973484397" lon="-4.272588975727558">
        <ele>114.05</ele>
        <time>2023-09-02T08:25:26Z</time>
      </trkpt>
      <trkpt lat="56.251652995124459" lon="-4.272307008504868">
        <ele>114.53</ele>
        <time>2023-09-02T08:25:27Z</time>
      </trkpt>
      <trkpt lat="56.251843012869358" lon="-4.271702002733946">
        <ele>114.53</ele>
        <time>2023-09-02T08:25:29Z</time>
      </trkpt>
      <trkpt lat="56.251910990104079" lon="-4.271363038569689">
        <ele>114.53</ele>
        <time>2023-09-02T08:25:30Z</time>
      </trkpt>
      <trkpt lat="56.252335030585527" lon="-4.268837990239263">
        <ele>115.01000000000001</ele>
        <time>2023-09-02T08:25:38Z</time>
      </trkpt>
      <trkpt lat="56.252553965896368" lon="-4.267178038135171">
        <ele>112.13</ele>
        <time>2023-09-02T08:25:44Z</time>
      </trkpt>
      <trkpt lat="56.252553965896368" lon="-4.266890035942197">
        <ele>111.65000000000001</ele>
        <time>2023-09-02T08:25:45Z</time>
      </trkpt>
      <trkpt lat="56.252524964511395" lon="-4.266586024314165">
        <ele>110.69</ele>
        <time>2023-09-02T08:25:46Z</time>
      </trkpt>
      <trkpt lat="56.252460004761815" lon="-4.266299027949572">
        <ele>109.73</ele>
        <time>2023-09-02T08:25:47Z</time>
      </trkpt>
      <trkpt lat="56.252369983121753" lon="-4.266037009656429">
        <ele>108.29000000000001</ele>
        <time>2023-09-02T08:25:48Z</time>
      </trkpt>
      <trkpt lat="56.252278033643961" lon="-4.265769962221384">
        <ele>106.36</ele>
        <time>2023-09-02T08:25:49Z</time>
      </trkpt>
      <trkpt lat="56.251627011224627" lon="-4.263871964067221">
        <ele>97.230000000000004</ele>
        <time>2023-09-02T08:25:56Z</time>
      </trkpt>
      <trkpt lat="56.251445962116122" lon="-4.263306017965078">
        <ele>95.310000000000002</ele>
        <time>2023-09-02T08:25:58Z</time>
      </trkpt>
      <trkpt lat="56.251389971002936" lon="-4.262995971366763">
        <ele>94.349999999999994</ele>
        <time>2023-09-02T08:25:59Z</time>
      </trkpt>
      <trkpt lat="56.251334985718131" lon="-4.262690031901002">
        <ele>93.390000000000001</ele>
        <time>2023-09-02T08:26:00Z</time>
      </trkpt>
      <trkpt lat="56.251282012090087" lon="-4.262394988909364">
        <ele>92.420000000000002</ele>
        <time>2023-09-02T08:26:01Z</time>
      </trkpt>
      <trkpt lat="56.25122400932014" lon="-4.262073040008545">
        <ele>91.939999999999998</ele>
        <time>2023-09-02T08:26:02Z</time>
      </trkpt>
      <trkpt lat="56.251158965751529" lon="-4.261834993958473">
        <ele>90.980000000000004</ele>
        <time>2023-09-02T08:26:03Z</time>
      </trkpt>
      <trkpt lat="56.251083025708795" lon="-4.26157096400857">
        <ele>90.5</ele>
        <time>2023-09-02T08:26:04Z</time>
      </trkpt>
      <trkpt lat="56.250984035432339" lon="-4.261325038969517">
        <ele>90.019999999999996</ele>
        <time>2023-09-02T08:26:05Z</time>
      </trkpt>
      <trkpt lat="56.25088001601398" lon="-4.261068971827626">
        <ele>89.060000000000002</ele>
        <time>2023-09-02T08:26:06Z</time>
      </trkpt>
      <trkpt lat="56.250113993883133" lon="-4.259289996698499">
        <ele>84.25</ele>
        <time>2023-09-02T08:26:13Z</time>
      </trkpt>
      <trkpt lat="56.249457020312548" lon="-4.257117994129658">
        <ele>79.930000000000007</ele>
        <time>2023-09-02T08:26:21Z</time>
      </trkpt>
      <trkpt lat="56.249346965923905" lon="-4.256607033312321">
        <ele>78.480000000000004</ele>
        <time>2023-09-02T08:26:23Z</time>
      </trkpt>
      <trkpt lat="56.249304972589016" lon="-4.256354989483953">
        <ele>78</ele>
        <time>2023-09-02T08:26:24Z</time>
      </trkpt>
      <trkpt lat="56.248887972906232" lon="-4.254010990262032">
        <ele>72.239999999999995</ele>
        <time>2023-09-02T08:26:33Z</time>
      </trkpt>
      <trkpt lat="56.248754030093551" lon="-4.253313029184938">
        <ele>69.829999999999998</ele>
        <time>2023-09-02T08:26:36Z</time>
      </trkpt>
      <trkpt lat="56.24873299151659" lon="-4.253088980913162">
        <ele>69.349999999999994</ele>
        <time>2023-09-02T08:26:37Z</time>
      </trkpt>
      <trkpt lat="56.248543979600072" lon="-4.25121596083045">
        <ele>67.430000000000007</ele>
        <time>2023-09-02T08:26:46Z</time>
      </trkpt>
      <trkpt lat="56.248514978215098" lon="-4.251006999984384">
        <ele>67.909999999999997</ele>
        <time>2023-09-02T08:26:47Z</time>
      </trkpt>
      <trkpt lat="56.2484510242939" lon="-4.25082796253264">
        <ele>67.909999999999997</ele>
        <time>2023-09-02T08:26:48Z</time>
      </trkpt>
      <trkpt lat="56.248385980725288" lon="-4.25065596587956">
        <ele>67.909999999999997</ele>
        <time>2023-09-02T08:26:49Z</time>
      </trkpt>
      <trkpt lat="56.248318003490567" lon="-4.25048396922648">
        <ele>67.909999999999997</ele>
        <time>2023-09-02T08:26:50Z</time>
      </trkpt>
      <trkpt lat="56.248065959662199" lon="-4.249854991212487">
        <ele>66.950000000000003</ele>
        <time>2023-09-02T08:26:54Z</time>
      </trkpt>
      <trkpt lat="56.248011980205774" lon="-4.249719958752394">
        <ele>66.469999999999999</ele>
        <time>2023-09-02T08:26:55Z</time>
      </trkpt>
      <trkpt lat="56.247966969385743" lon="-4.249606970697641">
        <ele>65.989999999999995</ele>
        <time>2023-09-02T08:26:56Z</time>
      </trkpt>
      <trkpt lat="56.247893963009119" lon="-4.249362973496318">
        <ele>65.030000000000001</ele>
        <time>2023-09-02T08:26:58Z</time>
      </trkpt>
      <trkpt lat="56.247887006029487" lon="-4.249248979613185">
        <ele>65.030000000000001</ele>
        <time>2023-09-02T08:26:59Z</time>
      </trkpt>
      <trkpt lat="56.247880971059203" lon="-4.249136997386813">
        <ele>65.030000000000001</ele>
        <time>2023-09-02T08:27:00Z</time>
      </trkpt>
      <trkpt lat="56.247856998816133" lon="-4.248564010486007">
        <ele>65.510000000000005</ele>
        <time>2023-09-02T08:27:04Z</time>
      </trkpt>
      <trkpt lat="56.247861022129655" lon="-4.248396037146449">
        <ele>65.989999999999995</ele>
        <time>2023-09-02T08:27:05Z</time>
      </trkpt>
      <trkpt lat="56.247864961624146" lon="-4.248235020786524">
        <ele>65.510000000000005</ele>
        <time>2023-09-02T08:27:06Z</time>
      </trkpt>
      <trkpt lat="56.247868984937668" lon="-4.248071992769837">
        <ele>65.030000000000001</ele>
        <time>2023-09-02T08:27:07Z</time>
      </trkpt>
      <trkpt lat="56.24787300825119" lon="-4.247898990288377">
        <ele>64.549999999999997</ele>
        <time>2023-09-02T08:27:08Z</time>
      </trkpt>
      <trkpt lat="56.248012986034155" lon="-4.246432995423675">
        <ele>63.579999999999998</ele>
        <time>2023-09-02T08:27:16Z</time>
      </trkpt>
      <trkpt lat="56.24802396632731" lon="-4.246254041790962">
        <ele>64.069999999999993</ele>
        <time>2023-09-02T08:27:17Z</time>
      </trkpt>
      <trkpt lat="56.248007034882903" lon="-4.246091013774276">
        <ele>64.549999999999997</ele>
        <time>2023-09-02T08:27:18Z</time>
      </trkpt>
      <trkpt lat="56.247983984649181" lon="-4.245873000472784">
        <ele>64.549999999999997</ele>
        <time>2023-09-02T08:27:19Z</time>
      </trkpt>
      <trkpt lat="56.247968981042504" lon="-4.245806029066443">
        <ele>64.069999999999993</ele>
        <time>2023-09-02T08:27:20Z</time>
      </trkpt>
      <trkpt lat="56.24784903600812" lon="-4.245794964954257">
        <ele>63.100000000000001</ele>
        <time>2023-09-02T08:27:22Z</time>
      </trkpt>
      <trkpt lat="56.247815005481243" lon="-4.245837964117527">
        <ele>62.619999999999997</ele>
        <time>2023-09-02T08:27:23Z</time>
      </trkpt>
      <trkpt lat="56.24776597134769" lon="-4.245899990200996">
        <ele>61.659999999999997</ele>
        <time>2023-09-02T08:27:24Z</time>
      </trkpt>
      <trkpt lat="56.247705034911633" lon="-4.245976014062762">
        <ele>61.18</ele>
        <time>2023-09-02T08:27:25Z</time>
      </trkpt>
      <trkpt lat="56.247632028535008" lon="-4.246068969368935">
        <ele>60.700000000000003</ele>
        <time>2023-09-02T08:27:26Z</time>
      </trkpt>
      <trkpt lat="56.246782019734383" lon="-4.247232964262366">
        <ele>54.93</ele>
        <time>2023-09-02T08:27:35Z</time>
      </trkpt>
      <trkpt lat="56.246435008943081" lon="-4.247693968936801">
        <ele>53.009999999999998</ele>
        <time>2023-09-02T08:27:39Z</time>
      </trkpt>
      <trkpt lat="56.246377006173134" lon="-4.247764963656664">
        <ele>52.049999999999997</ele>
        <time>2023-09-02T08:27:40Z</time>
      </trkpt>
      <trkpt lat="56.246032007038593" lon="-4.248085990548134">
        <ele>49.649999999999999</ele>
        <time>2023-09-02T08:27:45Z</time>
      </trkpt>
      <trkpt lat="56.245945002883673" lon="-4.248146004974842">
        <ele>49.159999999999997</ele>
        <time>2023-09-02T08:27:46Z</time>
      </trkpt>
      <trkpt lat="56.245836960151792" lon="-4.248197972774506">
        <ele>49.159999999999997</ele>
        <time>2023-09-02T08:27:47Z</time>
      </trkpt>
      <trkpt lat="56.245735036209226" lon="-4.248215993866324">
        <ele>49.159999999999997</ele>
        <time>2023-09-02T08:27:48Z</time>
      </trkpt>
      <trkpt lat="56.245601009577513" lon="-4.248214988037944">
        <ele>49.159999999999997</ele>
        <time>2023-09-02T08:27:49Z</time>
      </trkpt>
      <trkpt lat="56.244529969990253" lon="-4.247753983363509">
        <ele>50.609999999999999</ele>
        <time>2023-09-02T08:27:57Z</time>
      </trkpt>
      <trkpt lat="56.243073027580976" lon="-4.247074965387583">
        <ele>53.969999999999999</ele>
        <time>2023-09-02T08:28:06Z</time>
      </trkpt>
      <trkpt lat="56.242811009287834" lon="-4.24691503867507">
        <ele>54.93</ele>
        <time>2023-09-02T08:28:08Z</time>
      </trkpt>
      <trkpt lat="56.242685029283166" lon="-4.24680900759995">
        <ele>55.409999999999997</ele>
        <time>2023-09-02T08:28:09Z</time>
      </trkpt>
      <trkpt lat="56.242456035688519" lon="-4.246617984026671">
        <ele>56.859999999999999</ele>
        <time>2023-09-02T08:28:11Z</time>
      </trkpt>
      <trkpt lat="56.242366014048457" lon="-4.246541960164905">
        <ele>57.340000000000003</ele>
        <time>2023-09-02T08:28:12Z</time>
      </trkpt>
      <trkpt lat="56.242232993245125" lon="-4.246429977938533">
        <ele>57.82</ele>
        <time>2023-09-02T08:28:13Z</time>
      </trkpt>
      <trkpt lat="56.242174990475178" lon="-4.246458979323506">
        <ele>58.780000000000001</ele>
        <time>2023-09-02T08:28:14Z</time>
      </trkpt>
      <trkpt lat="56.242074994370341" lon="-4.24650901928544">
        <ele>59.259999999999998</ele>
        <time>2023-09-02T08:28:15Z</time>
      </trkpt>
      <trkpt lat="56.241949014365673" lon="-4.246599040925503">
        <ele>59.740000000000002</ele>
        <time>2023-09-02T08:28:16Z</time>
      </trkpt>
      <trkpt lat="56.241859998553991" lon="-4.246731977909803">
        <ele>60.219999999999999</ele>
        <time>2023-09-02T08:28:17Z</time>
      </trkpt>
      <trkpt lat="56.241752039641142" lon="-4.246898023411632">
        <ele>61.18</ele>
        <time>2023-09-02T08:28:18Z</time>
      </trkpt>
      <trkpt lat="56.241660006344318" lon="-4.247079994529486">
        <ele>61.18</ele>
        <time>2023-09-02T08:28:19Z</time>
      </trkpt>
      <trkpt lat="56.24074000865221" lon="-4.249054016545415">
        <ele>63.579999999999998</ele>
        <time>2023-09-02T08:28:28Z</time>
      </trkpt>
      <trkpt lat="56.240016985684633" lon="-4.250792004168034">
        <ele>67.430000000000007</ele>
        <time>2023-09-02T08:28:36Z</time>
      </trkpt>
      <trkpt lat="56.23944902792573" lon="-4.252711962908506">
        <ele>69.829999999999998</ele>
        <time>2023-09-02T08:28:43Z</time>
      </trkpt>
      <trkpt lat="56.238974025472999" lon="-4.254261022433639">
        <ele>74.159999999999997</ele>
        <time>2023-09-02T08:28:50Z</time>
      </trkpt>
      <trkpt lat="56.23826801776886" lon="-4.255887027829886">
        <ele>79.450000000000003</ele>
        <time>2023-09-02T08:29:00Z</time>
      </trkpt>
      <trkpt lat="56.238175984472036" lon="-4.25600596703589">
        <ele>79.450000000000003</ele>
        <time>2023-09-02T08:29:01Z</time>
      </trkpt>
      <trkpt lat="56.2380759883672" lon="-4.256128007546067">
        <ele>79.930000000000007</ele>
        <time>2023-09-02T08:29:02Z</time>
      </trkpt>
      <trkpt lat="56.237397976219654" lon="-4.256892018020153">
        <ele>79.450000000000003</ele>
        <time>2023-09-02T08:29:06Z</time>
      </trkpt>
      <trkpt lat="56.236796993762255" lon="-4.257738003507257">
        <ele>80.890000000000001</ele>
        <time>2023-09-02T08:29:10Z</time>
      </trkpt>
      <trkpt lat="56.236717030405998" lon="-4.257944030687213">
        <ele>81.370000000000005</ele>
        <time>2023-09-02T08:29:11Z</time>
      </trkpt>
      <trkpt lat="56.236653998494148" lon="-4.258171012625098">
        <ele>81.370000000000005</ele>
        <time>2023-09-02T08:29:12Z</time>
      </trkpt>
      <trkpt lat="56.236592978239059" lon="-4.258424984291196">
        <ele>81.849999999999994</ele>
        <time>2023-09-02T08:29:13Z</time>
      </trkpt>
      <trkpt lat="56.236527012661099" lon="-4.258697982877493">
        <ele>81.849999999999994</ele>
        <time>2023-09-02T08:29:14Z</time>
      </trkpt>
      <trkpt lat="56.235891999676824" lon="-4.260677034035325">
        <ele>82.810000000000002</ele>
        <time>2023-09-02T08:29:22Z</time>
      </trkpt>
      <trkpt lat="56.235597962513566" lon="-4.261218002066016">
        <ele>83.769999999999996</ele>
        <time>2023-09-02T08:29:25Z</time>
      </trkpt>
      <trkpt lat="56.23553803190589" lon="-4.261300982907414">
        <ele>84.730000000000004</ele>
        <time>2023-09-02T08:29:26Z</time>
      </trkpt>
      <trkpt lat="56.235434012487531" lon="-4.26131003536284">
        <ele>85.209999999999994</ele>
        <time>2023-09-02T08:29:27Z</time>
      </trkpt>
      <trkpt lat="56.235335022211075" lon="-4.261319003999233">
        <ele>86.180000000000007</ele>
        <time>2023-09-02T08:29:28Z</time>
      </trkpt>
      <trkpt lat="56.235255980864167" lon="-4.261294025927782">
        <ele>87.140000000000001</ele>
        <time>2023-09-02T08:29:29Z</time>
      </trkpt>
      <trkpt lat="56.235148021951318" lon="-4.261229988187552">
        <ele>88.099999999999994</ele>
        <time>2023-09-02T08:29:30Z</time>
      </trkpt>
      <trkpt lat="56.235036039724946" lon="-4.26116201095283">
        <ele>89.540000000000006</ele>
        <time>2023-09-02T08:29:31Z</time>
      </trkpt>
      <trkpt lat="56.234908970072865" lon="-4.26113803870976">
        <ele>90.5</ele>
        <time>2023-09-02T08:29:32Z</time>
      </trkpt>
      <trkpt lat="56.234808973968029" lon="-4.261150024831295">
        <ele>90.980000000000004</ele>
        <time>2023-09-02T08:29:33Z</time>
      </trkpt>
      <trkpt lat="56.234705960378051" lon="-4.261253038421273">
        <ele>91.459999999999994</ele>
        <time>2023-09-02T08:29:34Z</time>
      </trkpt>
      <trkpt lat="56.234647035598755" lon="-4.26137700676918">
        <ele>91.939999999999998</ele>
        <time>2023-09-02T08:29:35Z</time>
      </trkpt>
      <trkpt lat="56.234591966494918" lon="-4.261543974280357">
        <ele>92.420000000000002</ele>
        <time>2023-09-02T08:29:36Z</time>
      </trkpt>
      <trkpt lat="56.234527006745338" lon="-4.261737009510398">
        <ele>93.390000000000001</ele>
        <time>2023-09-02T08:29:37Z</time>
      </trkpt>
      <trkpt lat="56.234463974833488" lon="-4.261957034468651">
        <ele>93.870000000000005</ele>
        <time>2023-09-02T08:29:38Z</time>
      </trkpt>
      <trkpt lat="56.233920995146036" lon="-4.264185028150678">
        <ele>99.150000000000006</ele>
        <time>2023-09-02T08:29:46Z</time>
      </trkpt>
      <trkpt lat="56.233169976621866" lon="-4.266595998778939">
        <ele>102.52</ele>
        <time>2023-09-02T08:29:55Z</time>
      </trkpt>
      <trkpt lat="56.232160041108727" lon="-4.269614992663264">
        <ele>103.48</ele>
        <time>2023-09-02T08:30:06Z</time>
      </trkpt>
      <trkpt lat="56.231191009283066" lon="-4.272498032078147">
        <ele>105.88</ele>
        <time>2023-09-02T08:30:17Z</time>
      </trkpt>
      <trkpt lat="56.230292972177267" lon="-4.275433961302042">
        <ele>109.25</ele>
        <time>2023-09-02T08:30:29Z</time>
      </trkpt>
      <trkpt lat="56.229260992258787" lon="-4.278837013989687">
        <ele>108.29000000000001</ele>
        <time>2023-09-02T08:30:40Z</time>
      </trkpt>
      <trkpt lat="56.228115018457174" lon="-4.282610965892673">
        <ele>108.29000000000001</ele>
        <time>2023-09-02T08:30:52Z</time>
      </trkpt>
      <trkpt lat="56.22709502466023" lon="-4.285974036902189">
        <ele>108.77</ele>
        <time>2023-09-02T08:31:04Z</time>
      </trkpt>
      <trkpt lat="56.226780032739043" lon="-4.287253031507134">
        <ele>109.25</ele>
        <time>2023-09-02T08:31:09Z</time>
      </trkpt>
      <trkpt lat="56.226743990555406" lon="-4.287536004558206">
        <ele>109.25</ele>
        <time>2023-09-02T08:31:10Z</time>
      </trkpt>
      <trkpt lat="56.226291032508016" lon="-4.290505964308977">
        <ele>108.29000000000001</ele>
        <time>2023-09-02T08:31:20Z</time>
      </trkpt>
      <trkpt lat="56.225731959566474" lon="-4.293701983988285">
        <ele>103</ele>
        <time>2023-09-02T08:31:31Z</time>
      </trkpt>
      <trkpt lat="56.225731959566474" lon="-4.29396903142333">
        <ele>102.52</ele>
        <time>2023-09-02T08:31:32Z</time>
      </trkpt>
      <trkpt lat="56.225798008963466" lon="-4.295977000147104">
        <ele>101.56</ele>
        <time>2023-09-02T08:31:39Z</time>
      </trkpt>
      <trkpt lat="56.225826004520059" lon="-4.296544035896659">
        <ele>101.08</ele>
        <time>2023-09-02T08:31:41Z</time>
      </trkpt>
      <trkpt lat="56.225838996469975" lon="-4.296818962320685">
        <ele>101.08</ele>
        <time>2023-09-02T08:31:42Z</time>
      </trkpt>
      <trkpt lat="56.225818041712046" lon="-4.297606023028493">
        <ele>100.11</ele>
        <time>2023-09-02T08:31:45Z</time>
      </trkpt>
      <trkpt lat="56.22578501701355" lon="-4.297868041321635">
        <ele>99.629999999999995</ele>
        <time>2023-09-02T08:31:46Z</time>
      </trkpt>
      <trkpt lat="56.225560968741775" lon="-4.29921199567616">
        <ele>100.11</ele>
        <time>2023-09-02T08:31:51Z</time>
      </trkpt>
      <trkpt lat="56.225404981523752" lon="-4.299996038898826">
        <ele>99.629999999999995</ele>
        <time>2023-09-02T08:31:54Z</time>
      </trkpt>
      <trkpt lat="56.225337004289031" lon="-4.300592998042703">
        <ele>99.150000000000006</ele>
        <time>2023-09-02T08:31:56Z</time>
      </trkpt>
      <trkpt lat="56.225319989025593" lon="-4.300911007449031">
        <ele>98.670000000000002</ele>
        <time>2023-09-02T08:31:57Z</time>
      </trkpt>
      <trkpt lat="56.225173976272345" lon="-4.303593970835209">
        <ele>97.709999999999994</ele>
        <time>2023-09-02T08:32:06Z</time>
      </trkpt>
      <trkpt lat="56.225218987092376" lon="-4.303897982463241">
        <ele>97.709999999999994</ele>
        <time>2023-09-02T08:32:07Z</time>
      </trkpt>
      <trkpt lat="56.225256035104394" lon="-4.304150026291609">
        <ele>97.709999999999994</ele>
        <time>2023-09-02T08:32:08Z</time>
      </trkpt>
      <trkpt lat="56.225386960431933" lon="-4.305211007595062">
        <ele>97.230000000000004</ele>
        <time>2023-09-02T08:32:12Z</time>
      </trkpt>
      <trkpt lat="56.225411016494036" lon="-4.305472020059824">
        <ele>97.230000000000004</ele>
        <time>2023-09-02T08:32:13Z</time>
      </trkpt>
      <trkpt lat="56.225498020648956" lon="-4.306255979463458">
        <ele>96.75</ele>
        <time>2023-09-02T08:32:16Z</time>
      </trkpt>
      <trkpt lat="56.22552802786231" lon="-4.306513974443078">
        <ele>96.269999999999996</ele>
        <time>2023-09-02T08:32:17Z</time>
      </trkpt>
      <trkpt lat="56.225769007578492" lon="-4.308551028370857">
        <ele>94.829999999999998</ele>
        <time>2023-09-02T08:32:25Z</time>
      </trkpt>
      <trkpt lat="56.225996995344758" lon="-4.310480039566755">
        <ele>95.310000000000002</ele>
        <time>2023-09-02T08:32:33Z</time>
      </trkpt>
      <trkpt lat="56.226025996729732" lon="-4.310727976262569">
        <ele>95.310000000000002</ele>
        <time>2023-09-02T08:32:34Z</time>
      </trkpt>
      <trkpt lat="56.226056003943086" lon="-4.310984965413809">
        <ele>95.790000000000006</ele>
        <time>2023-09-02T08:32:35Z</time>
      </trkpt>
      <trkpt lat="56.226143008098006" lon="-4.311503972858191">
        <ele>95.790000000000006</ele>
        <time>2023-09-02T08:32:37Z</time>
      </trkpt>
      <trkpt lat="56.226493958383799" lon="-4.313738001510501">
        <ele>99.629999999999995</ele>
        <time>2023-09-02T08:32:45Z</time>
      </trkpt>
      <trkpt lat="56.226528994739056" lon="-4.314001025632024">
        <ele>100.11</ele>
        <time>2023-09-02T08:32:46Z</time>
      </trkpt>
      <trkpt lat="56.226564031094313" lon="-4.314258014783263">
        <ele>101.08</ele>
        <time>2023-09-02T08:32:47Z</time>
      </trkpt>
      <trkpt lat="56.226590014994144" lon="-4.315001992508769">
        <ele>102.52</ele>
        <time>2023-09-02T08:32:50Z</time>
      </trkpt>
      <trkpt lat="56.226590014994144" lon="-4.315257975831628">
        <ele>103</ele>
        <time>2023-09-02T08:32:51Z</time>
      </trkpt>
      <trkpt lat="56.226590014994144" lon="-4.315502978861332">
        <ele>103</ele>
        <time>2023-09-02T08:32:52Z</time>
      </trkpt>
      <trkpt lat="56.226613987237215" lon="-4.316027015447617">
        <ele>103.95999999999999</ele>
        <time>2023-09-02T08:32:54Z</time>
      </trkpt>
      <trkpt lat="56.22662597335875" lon="-4.316286016255617">
        <ele>103.95999999999999</ele>
        <time>2023-09-02T08:32:55Z</time>
      </trkpt>
      <trkpt lat="56.226637959480286" lon="-4.316538982093334">
        <ele>104.44</ele>
        <time>2023-09-02T08:32:56Z</time>
      </trkpt>
      <trkpt lat="56.226649023592472" lon="-4.316779039800167">
        <ele>104.44</ele>
        <time>2023-09-02T08:32:57Z</time>
      </trkpt>
      <trkpt lat="56.226648017764091" lon="-4.317038962617517">
        <ele>104.92</ele>
        <time>2023-09-02T08:32:58Z</time>
      </trkpt>
      <trkpt lat="56.226637037470937" lon="-4.317298969253898">
        <ele>104.92</ele>
        <time>2023-09-02T08:32:59Z</time>
      </trkpt>
      <trkpt lat="56.226609963923693" lon="-4.317552018910646">
        <ele>104.92</ele>
        <time>2023-09-02T08:33:00Z</time>
      </trkpt>
      <trkpt lat="56.226577023044229" lon="-4.317811019718647">
        <ele>104.92</ele>
        <time>2023-09-02T08:33:01Z</time>
      </trkpt>
      <trkpt lat="56.226454982534051" lon="-4.319242984056473">
        <ele>106.36</ele>
        <time>2023-09-02T08:33:06Z</time>
      </trkpt>
      <trkpt lat="56.226439978927374" lon="-4.31945102289319">
        <ele>106.36</ele>
        <time>2023-09-02T08:33:07Z</time>
      </trkpt>
      <trkpt lat="56.226445008069277" lon="-4.319757968187332">
        <ele>106.84</ele>
        <time>2023-09-02T08:33:08Z</time>
      </trkpt>
      <trkpt lat="56.226449031382799" lon="-4.320034990087152">
        <ele>106.84</ele>
        <time>2023-09-02T08:33:09Z</time>
      </trkpt>
      <trkpt lat="56.22645297087729" lon="-4.320320980623364">
        <ele>106.84</ele>
        <time>2023-09-02T08:33:10Z</time>
      </trkpt>
      <trkpt lat="56.226458000019193" lon="-4.320600014179945">
        <ele>107.31999999999999</ele>
        <time>2023-09-02T08:33:11Z</time>
      </trkpt>
      <trkpt lat="56.226499993354082" lon="-4.321089014410973">
        <ele>107.31999999999999</ele>
        <time>2023-09-02T08:33:13Z</time>
      </trkpt>
      <trkpt lat="56.226547015830874" lon="-4.321381961926818">
        <ele>107.31999999999999</ele>
        <time>2023-09-02T08:33:14Z</time>
      </trkpt>
      <trkpt lat="56.226591020822525" lon="-4.321583965793252">
        <ele>107.31999999999999</ele>
        <time>2023-09-02T08:33:15Z</time>
      </trkpt>
      <trkpt lat="56.226648017764091" lon="-4.321849001571536">
        <ele>107.31999999999999</ele>
        <time>2023-09-02T08:33:16Z</time>
      </trkpt>
      <trkpt lat="56.2267080321908" lon="-4.322125017642975">
        <ele>107.31999999999999</ele>
        <time>2023-09-02T08:33:17Z</time>
      </trkpt>
      <trkpt lat="56.226866031065583" lon="-4.322951976209879">
        <ele>106.36</ele>
        <time>2023-09-02T08:33:20Z</time>
      </trkpt>
      <trkpt lat="56.226915987208486" lon="-4.323236960917711">
        <ele>105.40000000000001</ele>
        <time>2023-09-02T08:33:21Z</time>
      </trkpt>
      <trkpt lat="56.227457039058208" lon="-4.325781958177686">
        <ele>100.59999999999999</ele>
        <time>2023-09-02T08:33:30Z</time>
      </trkpt>
      <trkpt lat="56.227514035999775" lon="-4.326286967843771">
        <ele>99.629999999999995</ele>
        <time>2023-09-02T08:33:32Z</time>
      </trkpt>
      <trkpt lat="56.227549994364381" lon="-4.328666003420949">
        <ele>100.11</ele>
        <time>2023-09-02T08:33:41Z</time>
      </trkpt>
      <trkpt lat="56.227555023506284" lon="-4.328930033370853">
        <ele>100.11</ele>
        <time>2023-09-02T08:33:42Z</time>
      </trkpt>
      <trkpt lat="56.227532979100943" lon="-4.329177970066667">
        <ele>100.59999999999999</ele>
        <time>2023-09-02T08:33:43Z</time>
      </trkpt>
      <trkpt lat="56.227452009916306" lon="-4.329728996381164">
        <ele>101.08</ele>
        <time>2023-09-02T08:33:45Z</time>
      </trkpt>
      <trkpt lat="56.227016989141703" lon="-4.33277003467083">
        <ele>100.11</ele>
        <time>2023-09-02T08:33:55Z</time>
      </trkpt>
      <trkpt lat="56.226984970271587" lon="-4.333045966923237">
        <ele>100.11</ele>
        <time>2023-09-02T08:33:56Z</time>
      </trkpt>
      <trkpt lat="56.226954963058233" lon="-4.33330999687314">
        <ele>100.11</ele>
        <time>2023-09-02T08:33:57Z</time>
      </trkpt>
      <trkpt lat="56.22692596167326" lon="-4.333565980195999">
        <ele>100.59999999999999</ele>
        <time>2023-09-02T08:33:58Z</time>
      </trkpt>
      <trkpt lat="56.226896038278937" lon="-4.333823975175619">
        <ele>100.59999999999999</ele>
        <time>2023-09-02T08:33:59Z</time>
      </trkpt>
      <trkpt lat="56.22690299525857" lon="-4.334075013175607">
        <ele>101.08</ele>
        <time>2023-09-02T08:34:00Z</time>
      </trkpt>
      <trkpt lat="56.226917998865247" lon="-4.334336025640369">
        <ele>101.08</ele>
        <time>2023-09-02T08:34:01Z</time>
      </trkpt>
      <trkpt lat="56.226933002471924" lon="-4.33459703810513">
        <ele>101.08</ele>
        <time>2023-09-02T08:34:02Z</time>
      </trkpt>
      <trkpt lat="56.226962003856897" lon="-4.334836006164551">
        <ele>101.56</ele>
        <time>2023-09-02T08:34:03Z</time>
      </trkpt>
      <trkpt lat="56.226991005241871" lon="-4.335081009194255">
        <ele>102.04000000000001</ele>
        <time>2023-09-02T08:34:04Z</time>
      </trkpt>
      <trkpt lat="56.227021012455225" lon="-4.335337998345494">
        <ele>102.04000000000001</ele>
        <time>2023-09-02T08:34:05Z</time>
      </trkpt>
      <trkpt lat="56.22705202549696" lon="-4.335596999153495">
        <ele>102.52</ele>
        <time>2023-09-02T08:34:06Z</time>
      </trkpt>
      <trkpt lat="56.227083038538694" lon="-4.335855999961495">
        <ele>103</ele>
        <time>2023-09-02T08:34:07Z</time>
      </trkpt>
      <trkpt lat="56.227143974974751" lon="-4.336369978263974">
        <ele>103.95999999999999</ele>
        <time>2023-09-02T08:34:09Z</time>
      </trkpt>
      <trkpt lat="56.227154033258557" lon="-4.337364993989468">
        <ele>105.40000000000001</ele>
        <time>2023-09-02T08:34:13Z</time>
      </trkpt>
      <trkpt lat="56.227078009396791" lon="-4.338561007753015">
        <ele>106.84</ele>
        <time>2023-09-02T08:34:18Z</time>
      </trkpt>
      <trkpt lat="56.227064011618495" lon="-4.338779021054506">
        <ele>106.84</ele>
        <time>2023-09-02T08:34:19Z</time>
      </trkpt>
      <trkpt lat="56.226999973878264" lon="-4.340499993413687">
        <ele>108.29000000000001</ele>
        <time>2023-09-02T08:34:28Z</time>
      </trkpt>
      <trkpt lat="56.227038027718663" lon="-4.341143975034356">
        <ele>108.77</ele>
        <time>2023-09-02T08:34:30Z</time>
      </trkpt>
      <trkpt lat="56.227058982476592" lon="-4.341318989172578">
        <ele>109.25</ele>
        <time>2023-09-02T08:34:31Z</time>
      </trkpt>
      <trkpt lat="56.227081026881933" lon="-4.341486962512136">
        <ele>109.73</ele>
        <time>2023-09-02T08:34:32Z</time>
      </trkpt>
      <trkpt lat="56.227101981639862" lon="-4.341644961386919">
        <ele>109.73</ele>
        <time>2023-09-02T08:34:33Z</time>
      </trkpt>
      <trkpt lat="56.227123020216823" lon="-4.34179600328207">
        <ele>110.20999999999999</ele>
        <time>2023-09-02T08:34:34Z</time>
      </trkpt>
      <trkpt lat="56.227252017706633" lon="-4.342710971832275">
        <ele>112.13</ele>
        <time>2023-09-02T08:34:39Z</time>
      </trkpt>
      <trkpt lat="56.227328041568398" lon="-4.343071980401874">
        <ele>112.61</ele>
        <time>2023-09-02T08:34:41Z</time>
      </trkpt>
      <trkpt lat="56.227363999933004" lon="-4.343246994540095">
        <ele>113.09</ele>
        <time>2023-09-02T08:34:42Z</time>
      </trkpt>
      <trkpt lat="56.227518981322646" lon="-4.343718979507685">
        <ele>115.5</ele>
        <time>2023-09-02T08:34:45Z</time>
      </trkpt>
      <trkpt lat="56.227855011820793" lon="-4.344346029683948">
        <ele>118.38</ele>
        <time>2023-09-02T08:34:49Z</time>
      </trkpt>
      <trkpt lat="56.22804100625217" lon="-4.344693040475249">
        <ele>120.3</ele>
        <time>2023-09-02T08:34:51Z</time>
      </trkpt>
      <trkpt lat="56.228130022063851" lon="-4.344859002158046">
        <ele>120.78</ele>
        <time>2023-09-02T08:34:52Z</time>
      </trkpt>
      <trkpt lat="56.228444008156657" lon="-4.345444981008768">
        <ele>123.67</ele>
        <time>2023-09-02T08:34:56Z</time>
      </trkpt>
      <trkpt lat="56.228516008704901" lon="-4.345579007640481">
        <ele>123.67</ele>
        <time>2023-09-02T08:34:57Z</time>
      </trkpt>
      <trkpt lat="56.228542998433113" lon="-4.345628963783383">
        <ele>124.15000000000001</ele>
        <time>2023-09-02T08:34:58Z</time>
      </trkpt>
      <trkpt lat="56.22862396761775" lon="-4.345891987904906">
        <ele>124.15000000000001</ele>
        <time>2023-09-02T08:34:59Z</time>
      </trkpt>
      <trkpt lat="56.228677025064826" lon="-4.346065996214747">
        <ele>123.67</ele>
        <time>2023-09-02T08:35:00Z</time>
      </trkpt>
      <trkpt lat="56.228714995086193" lon="-4.346187030896545">
        <ele>123.67</ele>
        <time>2023-09-02T08:35:01Z</time>
      </trkpt>
      <trkpt lat="56.228765035048127" lon="-4.346470003947616">
        <ele>123.19</ele>
        <time>2023-09-02T08:35:02Z</time>
      </trkpt>
      <trkpt lat="56.228807028383017" lon="-4.346700003370643">
        <ele>123.19</ele>
        <time>2023-09-02T08:35:03Z</time>
      </trkpt>
      <trkpt lat="56.229000985622406" lon="-4.347786968573928">
        <ele>122.22</ele>
        <time>2023-09-02T08:35:08Z</time>
      </trkpt>
      <trkpt lat="56.229037027806044" lon="-4.347989978268743">
        <ele>121.73999999999999</ele>
        <time>2023-09-02T08:35:09Z</time>
      </trkpt>
      <trkpt lat="56.22907298617065" lon="-4.348188964650035">
        <ele>121.73999999999999</ele>
        <time>2023-09-02T08:35:10Z</time>
      </trkpt>
      <trkpt lat="56.229125037789345" lon="-4.349286993965507">
        <ele>121.26000000000001</ele>
        <time>2023-09-02T08:35:15Z</time>
      </trkpt>
      <trkpt lat="56.229135012254119" lon="-4.349521016702056">
        <ele>121.26000000000001</ele>
        <time>2023-09-02T08:35:16Z</time>
      </trkpt>
      <trkpt lat="56.229143980890512" lon="-4.349727965891361">
        <ele>121.73999999999999</ele>
        <time>2023-09-02T08:35:17Z</time>
      </trkpt>
      <trkpt lat="56.22920198366046" lon="-4.350009011104703">
        <ele>121.73999999999999</ele>
        <time>2023-09-02T08:35:18Z</time>
      </trkpt>
      <trkpt lat="56.229255963116884" lon="-4.350271029397845">
        <ele>121.73999999999999</ele>
        <time>2023-09-02T08:35:19Z</time>
      </trkpt>
      <trkpt lat="56.229312038049102" lon="-4.350543022155762">
        <ele>122.22</ele>
        <time>2023-09-02T08:35:20Z</time>
      </trkpt>
      <trkpt lat="56.229415973648429" lon="-4.351051971316338">
        <ele>121.73999999999999</ele>
        <time>2023-09-02T08:35:22Z</time>
      </trkpt>
      <trkpt lat="56.229450004175305" lon="-4.351293034851551">
        <ele>121.26000000000001</ele>
        <time>2023-09-02T08:35:23Z</time>
      </trkpt>
      <trkpt lat="56.229464001953602" lon="-4.351538037881255">
        <ele>121.26000000000001</ele>
        <time>2023-09-02T08:35:24Z</time>
      </trkpt>
      <trkpt lat="56.229582019150257" lon="-4.353584982454777">
        <ele>119.81999999999999</ele>
        <time>2023-09-02T08:35:31Z</time>
      </trkpt>
      <trkpt lat="56.229598028585315" lon="-4.353862004354596">
        <ele>119.34</ele>
        <time>2023-09-02T08:35:32Z</time>
      </trkpt>
      <trkpt lat="56.229659970849752" lon="-4.354931032285094">
        <ele>118.38</ele>
        <time>2023-09-02T08:35:36Z</time>
      </trkpt>
      <trkpt lat="56.22967598028481" lon="-4.355208976194263">
        <ele>118.38</ele>
        <time>2023-09-02T08:35:37Z</time>
      </trkpt>
      <trkpt lat="56.229661982506514" lon="-4.355499995872378">
        <ele>117.90000000000001</ele>
        <time>2023-09-02T08:35:38Z</time>
      </trkpt>
      <trkpt lat="56.229637004435062" lon="-4.35578003525734">
        <ele>117.90000000000001</ele>
        <time>2023-09-02T08:35:39Z</time>
      </trkpt>
      <trkpt lat="56.229614038020372" lon="-4.356054961681366">
        <ele>117.42</ele>
        <time>2023-09-02T08:35:40Z</time>
      </trkpt>
      <trkpt lat="56.229591993615031" lon="-4.356310022994876">
        <ele>117.42</ele>
        <time>2023-09-02T08:35:41Z</time>
      </trkpt>
      <trkpt lat="56.229470958933234" lon="-4.357262039557099">
        <ele>117.90000000000001</ele>
        <time>2023-09-02T08:35:46Z</time>
      </trkpt>
      <trkpt lat="56.229437012225389" lon="-4.3573949765414">
        <ele>117.90000000000001</ele>
        <time>2023-09-02T08:35:47Z</time>
      </trkpt>
      <trkpt lat="56.229170970618725" lon="-4.358454030007124">
        <ele>120.78</ele>
        <time>2023-09-02T08:35:53Z</time>
      </trkpt>
      <trkpt lat="56.229014983400702" lon="-4.359228014945984">
        <ele>121.26000000000001</ele>
        <time>2023-09-02T08:35:56Z</time>
      </trkpt>
      <trkpt lat="56.229014983400702" lon="-4.359448039904237">
        <ele>121.26000000000001</ele>
        <time>2023-09-02T08:35:57Z</time>
      </trkpt>
      <trkpt lat="56.229053037241101" lon="-4.359626993536949">
        <ele>120.78</ele>
        <time>2023-09-02T08:35:58Z</time>
      </trkpt>
      <trkpt lat="56.229099975898862" lon="-4.359796978533268">
        <ele>120.78</ele>
        <time>2023-09-02T08:35:59Z</time>
      </trkpt>
      <trkpt lat="56.229156972840428" lon="-4.359956989064813">
        <ele>120.3</ele>
        <time>2023-09-02T08:36:00Z</time>
      </trkpt>
      <trkpt lat="56.229226961731911" lon="-4.360118005424738">
        <ele>119.81999999999999</ele>
        <time>2023-09-02T08:36:01Z</time>
      </trkpt>
      <trkpt lat="56.229299968108535" lon="-4.360284972935915">
        <ele>119.34</ele>
        <time>2023-09-02T08:36:02Z</time>
      </trkpt>
      <trkpt lat="56.229371968656778" lon="-4.360449006780982">
        <ele>118.86</ele>
        <time>2023-09-02T08:36:03Z</time>
      </trkpt>
      <trkpt lat="56.229439023882151" lon="-4.360601976513863">
        <ele>118.38</ele>
        <time>2023-09-02T08:36:04Z</time>
      </trkpt>
      <trkpt lat="56.229627029970288" lon="-4.361032973974943">
        <ele>116.45999999999999</ele>
        <time>2023-09-02T08:36:07Z</time>
      </trkpt>
      <trkpt lat="56.229667011648417" lon="-4.36117404140532">
        <ele>115.98</ele>
        <time>2023-09-02T08:36:08Z</time>
      </trkpt>
      <trkpt lat="56.229701964184642" lon="-4.361315025016666">
        <ele>115.5</ele>
        <time>2023-09-02T08:36:09Z</time>
      </trkpt>
      <trkpt lat="56.229701964184642" lon="-4.3615170288831">
        <ele>114.53</ele>
        <time>2023-09-02T08:36:10Z</time>
      </trkpt>
      <trkpt lat="56.229701964184642" lon="-4.361682990565896">
        <ele>114.05</ele>
        <time>2023-09-02T08:36:11Z</time>
      </trkpt>
      <trkpt lat="56.229695007205009" lon="-4.361833026632667">
        <ele>113.56999999999999</ele>
        <time>2023-09-02T08:36:12Z</time>
      </trkpt>
      <trkpt lat="56.229683021083474" lon="-4.362011980265379">
        <ele>112.61</ele>
        <time>2023-09-02T08:36:13Z</time>
      </trkpt>
      <trkpt lat="56.229443969205022" lon="-4.364007962867618">
        <ele>104.92</ele>
        <time>2023-09-02T08:36:23Z</time>
      </trkpt>
      <trkpt lat="56.229387978091836" lon="-4.364478019997478">
        <ele>103.48</ele>
        <time>2023-09-02T08:36:25Z</time>
      </trkpt>
      <trkpt lat="56.229277001693845" lon="-4.365393994376063">
        <ele>101.08</ele>
        <time>2023-09-02T08:36:29Z</time>
      </trkpt>
      <trkpt lat="56.229227967560291" lon="-4.365791967138648">
        <ele>99.629999999999995</ele>
        <time>2023-09-02T08:36:31Z</time>
      </trkpt>
      <trkpt lat="56.229205001145601" lon="-4.365981984883547">
        <ele>98.670000000000002</ele>
        <time>2023-09-02T08:36:32Z</time>
      </trkpt>
      <trkpt lat="56.22915999032557" lon="-4.366350034251809">
        <ele>97.230000000000004</ele>
        <time>2023-09-02T08:36:34Z</time>
      </trkpt>
      <trkpt lat="56.229092013090849" lon="-4.366965014487505">
        <ele>95.310000000000002</ele>
        <time>2023-09-02T08:36:37Z</time>
      </trkpt>
      <trkpt lat="56.229079021140933" lon="-4.367188978940249">
        <ele>94.829999999999998</ele>
        <time>2023-09-02T08:36:38Z</time>
      </trkpt>
      <trkpt lat="56.229020012542605" lon="-4.368128003552556">
        <ele>90.980000000000004</ele>
        <time>2023-09-02T08:36:42Z</time>
      </trkpt>
      <trkpt lat="56.228993022814393" lon="-4.368555983528495">
        <ele>89.060000000000002</ele>
        <time>2023-09-02T08:36:44Z</time>
      </trkpt>
      <trkpt lat="56.228980030864477" lon="-4.368756981566548">
        <ele>87.620000000000005</ele>
        <time>2023-09-02T08:36:45Z</time>
      </trkpt>
      <trkpt lat="56.228979025036097" lon="-4.368937024846673">
        <ele>86.659999999999997</ele>
        <time>2023-09-02T08:36:46Z</time>
      </trkpt>
      <trkpt lat="56.22900702059269" lon="-4.369144979864359">
        <ele>85.689999999999998</ele>
        <time>2023-09-02T08:36:47Z</time>
      </trkpt>
      <trkpt lat="56.229036021977663" lon="-4.36936198733747">
        <ele>85.209999999999994</ele>
        <time>2023-09-02T08:36:48Z</time>
      </trkpt>
      <trkpt lat="56.229098970070481" lon="-4.369825003668666">
        <ele>83.769999999999996</ele>
        <time>2023-09-02T08:36:50Z</time>
      </trkpt>
      <trkpt lat="56.229099975898862" lon="-4.370491029694676">
        <ele>81.849999999999994</ele>
        <time>2023-09-02T08:36:53Z</time>
      </trkpt>
      <trkpt lat="56.229069968685508" lon="-4.370722034946084">
        <ele>81.370000000000005</ele>
        <time>2023-09-02T08:36:54Z</time>
      </trkpt>
      <trkpt lat="56.229019006714225" lon="-4.371109027415514">
        <ele>80.409999999999997</ele>
        <time>2023-09-02T08:36:56Z</time>
      </trkpt>
      <trkpt lat="56.229014983400702" lon="-4.37127398326993">
        <ele>79.930000000000007</ele>
        <time>2023-09-02T08:36:57Z</time>
      </trkpt>
      <trkpt lat="56.229014983400702" lon="-4.371558967977762">
        <ele>78.969999999999999</ele>
        <time>2023-09-02T08:36:59Z</time>
      </trkpt>
      <trkpt lat="56.228968966752291" lon="-4.371644966304302">
        <ele>78.969999999999999</ele>
        <time>2023-09-02T08:37:00Z</time>
      </trkpt>
      <trkpt lat="56.228904007002711" lon="-4.371744962409139">
        <ele>78.480000000000004</ele>
        <time>2023-09-02T08:37:01Z</time>
      </trkpt>
      <trkpt lat="56.228821026161313" lon="-4.37187597155571">
        <ele>77.519999999999996</ele>
        <time>2023-09-02T08:37:02Z</time>
      </trkpt>
      <trkpt lat="56.22872899286449" lon="-4.372020978480578">
        <ele>76.560000000000002</ele>
        <time>2023-09-02T08:37:03Z</time>
      </trkpt>
      <trkpt lat="56.228668978437781" lon="-4.372203033417463">
        <ele>75.599999999999994</ele>
        <time>2023-09-02T08:37:04Z</time>
      </trkpt>
      <trkpt lat="56.22859999537468" lon="-4.372445018962026">
        <ele>74.640000000000001</ele>
        <time>2023-09-02T08:37:05Z</time>
      </trkpt>
      <trkpt lat="56.228468986228108" lon="-4.372962014749646">
        <ele>72.719999999999999</ele>
        <time>2023-09-02T08:37:07Z</time>
      </trkpt>
      <trkpt lat="56.228325990960002" lon="-4.37348403967917">
        <ele>70.790000000000006</ele>
        <time>2023-09-02T08:37:09Z</time>
      </trkpt>
      <trkpt lat="56.228048969060183" lon="-4.374363971874118">
        <ele>67.909999999999997</ele>
        <time>2023-09-02T08:37:12Z</time>
      </trkpt>
      <trkpt lat="56.227992977946997" lon="-4.374692961573601">
        <ele>66.950000000000003</ele>
        <time>2023-09-02T08:37:13Z</time>
      </trkpt>
      <trkpt lat="56.227941010147333" lon="-4.374998984858394">
        <ele>65.510000000000005</ele>
        <time>2023-09-02T08:37:14Z</time>
      </trkpt>
      <trkpt lat="56.227819975465536" lon="-4.376387028023601">
        <ele>58.299999999999997</ele>
        <time>2023-09-02T08:37:20Z</time>
      </trkpt>
      <trkpt lat="56.227808995172381" lon="-4.377107033506036">
        <ele>54.450000000000003</ele>
        <time>2023-09-02T08:37:23Z</time>
      </trkpt>
      <trkpt lat="56.2278270162642" lon="-4.377350024878979">
        <ele>53.009999999999998</ele>
        <time>2023-09-02T08:37:24Z</time>
      </trkpt>
      <trkpt lat="56.227845037356019" lon="-4.377587987110019">
        <ele>52.049999999999997</ele>
        <time>2023-09-02T08:37:25Z</time>
      </trkpt>
      <trkpt lat="56.227875966578722" lon="-4.378000041469932">
        <ele>49.649999999999999</ele>
        <time>2023-09-02T08:37:27Z</time>
      </trkpt>
      <trkpt lat="56.227877978235483" lon="-4.378210008144379">
        <ele>48.68</ele>
        <time>2023-09-02T08:37:28Z</time>
      </trkpt>
      <trkpt lat="56.227877978235483" lon="-4.378523994237185">
        <ele>47.240000000000002</ele>
        <time>2023-09-02T08:37:29Z</time>
      </trkpt>
      <trkpt lat="56.227829027920961" lon="-4.378678975626826">
        <ele>46.280000000000001</ele>
        <time>2023-09-02T08:37:30Z</time>
      </trkpt>
      <trkpt lat="56.227673962712288" lon="-4.379067979753017">
        <ele>44.359999999999999</ele>
        <time>2023-09-02T08:37:32Z</time>
      </trkpt>
      <trkpt lat="56.227586036548018" lon="-4.379227990284562">
        <ele>43.399999999999999</ele>
        <time>2023-09-02T08:37:33Z</time>
      </trkpt>
      <trkpt lat="56.22750598937273" lon="-4.379379032179713">
        <ele>42.920000000000002</ele>
        <time>2023-09-02T08:37:34Z</time>
      </trkpt>
      <trkpt lat="56.227384032681584" lon="-4.379725959151983">
        <ele>40.509999999999998</ele>
        <time>2023-09-02T08:37:36Z</time>
      </trkpt>
      <trkpt lat="56.227384032681584" lon="-4.379725959151983">
        <ele>39.549999999999997</ele>
        <time>2023-09-02T08:37:37Z</time>
      </trkpt>
      <trkpt lat="56.227341033518314" lon="-4.380132984369993">
        <ele>38.109999999999999</ele>
        <time>2023-09-02T08:37:38Z</time>
      </trkpt>
      <trkpt lat="56.22735301963985" lon="-4.380329959094524">
        <ele>36.670000000000002</ele>
        <time>2023-09-02T08:37:39Z</time>
      </trkpt>
      <trkpt lat="56.227366011589766" lon="-4.380572028458118">
        <ele>34.740000000000002</ele>
        <time>2023-09-02T08:37:40Z</time>
      </trkpt>
      <trkpt lat="56.227384032681584" lon="-4.380884002894163">
        <ele>33.299999999999997</ele>
        <time>2023-09-02T08:37:41Z</time>
      </trkpt>
      <trkpt lat="56.227366011589766" lon="-4.381079971790314">
        <ele>31.859999999999999</ele>
        <time>2023-09-02T08:37:42Z</time>
      </trkpt>
      <trkpt lat="56.227300968021154" lon="-4.381432011723518">
        <ele>30.899999999999999</ele>
        <time>2023-09-02T08:37:43Z</time>
      </trkpt>
      <trkpt lat="56.227240031585097" lon="-4.381577018648386">
        <ele>29.460000000000001</ele>
        <time>2023-09-02T08:37:44Z</time>
      </trkpt>
      <trkpt lat="56.227170964702964" lon="-4.381742980331183">
        <ele>28.02</ele>
        <time>2023-09-02T08:37:45Z</time>
      </trkpt>
      <trkpt lat="56.226954041048884" lon="-4.382262993603945">
        <ele>25.129999999999999</ele>
        <time>2023-09-02T08:37:48Z</time>
      </trkpt>
      <trkpt lat="56.226907018572092" lon="-4.382396014407277">
        <ele>24.170000000000002</ele>
        <time>2023-09-02T08:37:49Z</time>
      </trkpt>
      <trkpt lat="56.226869970560074" lon="-4.382630959153175">
        <ele>23.690000000000001</ele>
        <time>2023-09-02T08:37:50Z</time>
      </trkpt>
      <trkpt lat="56.226832000538707" lon="-4.382875040173531">
        <ele>24.170000000000002</ele>
        <time>2023-09-02T08:37:51Z</time>
      </trkpt>
      <trkpt lat="56.226792018860579" lon="-4.383129011839628">
        <ele>24.649999999999999</ele>
        <time>2023-09-02T08:37:52Z</time>
      </trkpt>
      <trkpt lat="56.226769974455237" lon="-4.383392035961151">
        <ele>24.170000000000002</ele>
        <time>2023-09-02T08:37:53Z</time>
      </trkpt>
      <trkpt lat="56.22675396502018" lon="-4.38364801928401">
        <ele>24.649999999999999</ele>
        <time>2023-09-02T08:37:54Z</time>
      </trkpt>
      <trkpt lat="56.226740973070264" lon="-4.383861003443599">
        <ele>24.649999999999999</ele>
        <time>2023-09-02T08:37:55Z</time>
      </trkpt>
      <trkpt lat="56.22673099860549" lon="-4.384011961519718">
        <ele>24.170000000000002</ele>
        <time>2023-09-02T08:37:56Z</time>
      </trkpt>
      <trkpt lat="56.226738039404154" lon="-4.384252019226551">
        <ele>24.170000000000002</ele>
        <time>2023-09-02T08:37:57Z</time>
      </trkpt>
      <trkpt lat="56.226834012195468" lon="-4.384413035586476">
        <ele>24.649999999999999</ele>
        <time>2023-09-02T08:37:58Z</time>
      </trkpt>
      <trkpt lat="56.226897966116667" lon="-4.384433990344405">
        <ele>24.649999999999999</ele>
        <time>2023-09-02T08:37:59Z</time>
      </trkpt>
      <trkpt lat="56.226978013291955" lon="-4.384460980072618">
        <ele>25.129999999999999</ele>
        <time>2023-09-02T08:38:00Z</time>
      </trkpt>
      <trkpt lat="56.22707499191165" lon="-4.384492998942733">
        <ele>26.09</ele>
        <time>2023-09-02T08:38:01Z</time>
      </trkpt>
      <trkpt lat="56.22716199606657" lon="-4.384548990055919">
        <ele>26.57</ele>
        <time>2023-09-02T08:38:02Z</time>
      </trkpt>
      <trkpt lat="56.22737598605454" lon="-4.384785024449229">
        <ele>29.460000000000001</ele>
        <time>2023-09-02T08:38:04Z</time>
      </trkpt>
      <trkpt lat="56.227577989920974" lon="-4.385030027478933">
        <ele>30.420000000000002</ele>
        <time>2023-09-02T08:38:06Z</time>
      </trkpt>
      <trkpt lat="56.227650996297598" lon="-4.385187020525336">
        <ele>30.420000000000002</ele>
        <time>2023-09-02T08:38:07Z</time>
      </trkpt>
      <trkpt lat="56.227716039866209" lon="-4.385360023006797">
        <ele>30.420000000000002</ele>
        <time>2023-09-02T08:38:08Z</time>
      </trkpt>
      <trkpt lat="56.227747974917293" lon="-4.385573007166386">
        <ele>30.899999999999999</ele>
        <time>2023-09-02T08:38:09Z</time>
      </trkpt>
      <trkpt lat="56.227742023766041" lon="-4.385742992162705">
        <ele>30.899999999999999</ele>
        <time>2023-09-02T08:38:10Z</time>
      </trkpt>
      <trkpt lat="56.227735988795757" lon="-4.385914988815785">
        <ele>31.379999999999999</ele>
        <time>2023-09-02T08:38:11Z</time>
      </trkpt>
      <trkpt lat="56.227728025987744" lon="-4.386140964925289">
        <ele>31.379999999999999</ele>
        <time>2023-09-02T08:38:12Z</time>
      </trkpt>
      <trkpt lat="56.227711010724306" lon="-4.386309022083879">
        <ele>31.379999999999999</ele>
        <time>2023-09-02T08:38:13Z</time>
      </trkpt>
      <trkpt lat="56.227616965770721" lon="-4.387561026960611">
        <ele>30.420000000000002</ele>
        <time>2023-09-02T08:38:19Z</time>
      </trkpt>
      <trkpt lat="56.227614032104611" lon="-4.387808041647077">
        <ele>29.940000000000001</ele>
        <time>2023-09-02T08:38:20Z</time>
      </trkpt>
      <trkpt lat="56.22761202044785" lon="-4.389236988499761">
        <ele>28.5</ele>
        <time>2023-09-02T08:38:26Z</time>
      </trkpt>
      <trkpt lat="56.227630041539669" lon="-4.389414014294744">
        <ele>28.98</ele>
        <time>2023-09-02T08:38:27Z</time>
      </trkpt>
      <trkpt lat="56.227650996297598" lon="-4.389559021219611">
        <ele>28.98</ele>
        <time>2023-09-02T08:38:28Z</time>
      </trkpt>
      <trkpt lat="56.227706987410784" lon="-4.389728000387549">
        <ele>28.98</ele>
        <time>2023-09-02T08:38:29Z</time>
      </trkpt>
      <trkpt lat="56.227768007665873" lon="-4.389909971505404">
        <ele>28.98</ele>
        <time>2023-09-02T08:38:30Z</time>
      </trkpt>
      <trkpt lat="56.227834979072213" lon="-4.390060007572174">
        <ele>28.98</ele>
        <time>2023-09-02T08:38:31Z</time>
      </trkpt>
      <trkpt lat="56.227991972118616" lon="-4.390341974794865">
        <ele>28.98</ele>
        <time>2023-09-02T08:38:33Z</time>
      </trkpt>
      <trkpt lat="56.228077970445156" lon="-4.390496034175158">
        <ele>28.98</ele>
        <time>2023-09-02T08:38:34Z</time>
      </trkpt>
      <trkpt lat="56.228155000135303" lon="-4.390681022778153">
        <ele>29.460000000000001</ele>
        <time>2023-09-02T08:38:35Z</time>
      </trkpt>
      <trkpt lat="56.228503016754985" lon="-4.391690958291292">
        <ele>32.340000000000003</ele>
        <time>2023-09-02T08:38:40Z</time>
      </trkpt>
      <trkpt lat="56.228564037010074" lon="-4.391871001571417">
        <ele>33.780000000000001</ele>
        <time>2023-09-02T08:38:41Z</time>
      </trkpt>
      <trkpt lat="56.228722035884857" lon="-4.392101000994444">
        <ele>36.189999999999998</ele>
        <time>2023-09-02T08:38:43Z</time>
      </trkpt>
      <trkpt lat="56.228805016726255" lon="-4.392222035676241">
        <ele>37.149999999999999</ele>
        <time>2023-09-02T08:38:44Z</time>
      </trkpt>
      <trkpt lat="56.229523010551929" lon="-4.393118983134627">
        <ele>41.469999999999999</ele>
        <time>2023-09-02T08:38:51Z</time>
      </trkpt>
      <trkpt lat="56.22965301387012" lon="-4.393520979210734">
        <ele>41.950000000000003</ele>
        <time>2023-09-02T08:38:53Z</time>
      </trkpt>
      <trkpt lat="56.229687966406345" lon="-4.393729018047452">
        <ele>42.439999999999998</ele>
        <time>2023-09-02T08:38:54Z</time>
      </trkpt>
      <trkpt lat="56.229762984439731" lon="-4.394623031839728">
        <ele>43.399999999999999</ele>
        <time>2023-09-02T08:38:58Z</time>
      </trkpt>
      <trkpt lat="56.229686960577965" lon="-4.396080980077386">
        <ele>44.359999999999999</ele>
        <time>2023-09-02T08:39:04Z</time>
      </trkpt>
      <trkpt lat="56.229783017188311" lon="-4.396536033600569">
        <ele>44.840000000000003</ele>
        <time>2023-09-02T08:39:06Z</time>
      </trkpt>
      <trkpt lat="56.229986026883125" lon="-4.396940041333437">
        <ele>45.32</ele>
        <time>2023-09-02T08:39:08Z</time>
      </trkpt>
      <trkpt lat="56.230002958327532" lon="-4.39718303270638">
        <ele>45.32</ele>
        <time>2023-09-02T08:39:09Z</time>
      </trkpt>
      <trkpt lat="56.230020979419351" lon="-4.397429041564465">
        <ele>44.840000000000003</ele>
        <time>2023-09-02T08:39:10Z</time>
      </trkpt>
      <trkpt lat="56.23004000633955" lon="-4.397686030715704">
        <ele>45.32</ele>
        <time>2023-09-02T08:39:11Z</time>
      </trkpt>
      <trkpt lat="56.230072025209665" lon="-4.397901026532054">
        <ele>45.32</ele>
        <time>2023-09-02T08:39:12Z</time>
      </trkpt>
      <trkpt lat="56.230112006887794" lon="-4.398122979328036">
        <ele>45.799999999999997</ele>
        <time>2023-09-02T08:39:13Z</time>
      </trkpt>
      <trkpt lat="56.230149976909161" lon="-4.398333029821515">
        <ele>46.280000000000001</ele>
        <time>2023-09-02T08:39:14Z</time>
      </trkpt>
      <trkpt lat="56.230187024921179" lon="-4.398535033687949">
        <ele>46.759999999999998</ele>
        <time>2023-09-02T08:39:15Z</time>
      </trkpt>
      <trkpt lat="56.230221977457404" lon="-4.3987310025841">
        <ele>46.759999999999998</ele>
        <time>2023-09-02T08:39:16Z</time>
      </trkpt>
      <trkpt lat="56.230259025469422" lon="-4.398937029764056">
        <ele>47.240000000000002</ele>
        <time>2023-09-02T08:39:17Z</time>
      </trkpt>
      <trkpt lat="56.230308981612325" lon="-4.399125035852194">
        <ele>47.719999999999999</ele>
        <time>2023-09-02T08:39:18Z</time>
      </trkpt>
      <trkpt lat="56.230379976332188" lon="-4.399288985878229">
        <ele>47.719999999999999</ele>
        <time>2023-09-02T08:39:19Z</time>
      </trkpt>
      <trkpt lat="56.230528000742197" lon="-4.399635996669531">
        <ele>48.200000000000003</ele>
        <time>2023-09-02T08:39:21Z</time>
      </trkpt>
      <trkpt lat="56.230765962973237" lon="-4.400054002180696">
        <ele>48.68</ele>
        <time>2023-09-02T08:39:24Z</time>
      </trkpt>
      <trkpt lat="56.230852967128158" lon="-4.400184005498886">
        <ele>49.159999999999997</ele>
        <time>2023-09-02T08:39:25Z</time>
      </trkpt>
      <trkpt lat="56.231399970129132" lon="-4.40105102956295">
        <ele>58.299999999999997</ele>
        <time>2023-09-02T08:39:31Z</time>
      </trkpt>
      <trkpt lat="56.232155011966825" lon="-4.402515012770891">
        <ele>78.480000000000004</ele>
        <time>2023-09-02T08:39:41Z</time>
      </trkpt>
      <trkpt lat="56.232522977516055" lon="-4.403656963258982">
        <ele>83.769999999999996</ele>
        <time>2023-09-02T08:39:47Z</time>
      </trkpt>
      <trkpt lat="56.232578968629241" lon="-4.403861984610558">
        <ele>84.25</ele>
        <time>2023-09-02T08:39:48Z</time>
      </trkpt>
      <trkpt lat="56.232605036348104" lon="-4.404058959335089">
        <ele>84.25</ele>
        <time>2023-09-02T08:39:49Z</time>
      </trkpt>
      <trkpt lat="56.23261702246964" lon="-4.404287030920386">
        <ele>84.25</ele>
        <time>2023-09-02T08:39:50Z</time>
      </trkpt>
      <trkpt lat="56.232602018862963" lon="-4.4045349676162">
        <ele>84.25</ele>
        <time>2023-09-02T08:39:51Z</time>
      </trkpt>
      <trkpt lat="56.232576034963131" lon="-4.404820036143065">
        <ele>84.25</ele>
        <time>2023-09-02T08:39:52Z</time>
      </trkpt>
      <trkpt lat="56.232529012486339" lon="-4.407032020390034">
        <ele>82.329999999999998</ele>
        <time>2023-09-02T08:40:00Z</time>
      </trkpt>
      <trkpt lat="56.23248903080821" lon="-4.407265037298203">
        <ele>81.849999999999994</ele>
        <time>2023-09-02T08:40:01Z</time>
      </trkpt>
      <trkpt lat="56.232428010553122" lon="-4.407510040327907">
        <ele>81.849999999999994</ele>
        <time>2023-09-02T08:40:02Z</time>
      </trkpt>
      <trkpt lat="56.232367996126413" lon="-4.407750014215708">
        <ele>81.849999999999994</ele>
        <time>2023-09-02T08:40:03Z</time>
      </trkpt>
      <trkpt lat="56.232307981699705" lon="-4.407987976446748">
        <ele>81.370000000000005</ele>
        <time>2023-09-02T08:40:04Z</time>
      </trkpt>
      <trkpt lat="56.232255008071661" lon="-4.408200038596988">
        <ele>81.370000000000005</ele>
        <time>2023-09-02T08:40:05Z</time>
      </trkpt>
      <trkpt lat="56.232206979766488" lon="-4.408502960577607">
        <ele>81.370000000000005</ele>
        <time>2023-09-02T08:40:06Z</time>
      </trkpt>
      <trkpt lat="56.232200022786856" lon="-4.40878501161933">
        <ele>81.370000000000005</ele>
        <time>2023-09-02T08:40:07Z</time>
      </trkpt>
      <trkpt lat="56.232432033866644" lon="-4.410105999559164">
        <ele>82.810000000000002</ele>
        <time>2023-09-02T08:40:13Z</time>
      </trkpt>
      <trkpt lat="56.232453994452953" lon="-4.410296017304063">
        <ele>82.810000000000002</ele>
        <time>2023-09-02T08:40:14Z</time>
      </trkpt>
      <trkpt lat="56.232470003888011" lon="-4.410438006743789">
        <ele>83.290000000000006</ele>
        <time>2023-09-02T08:40:15Z</time>
      </trkpt>
      <trkpt lat="56.23249095864594" lon="-4.410625007003546">
        <ele>83.769999999999996</ele>
        <time>2023-09-02T08:40:16Z</time>
      </trkpt>
      <trkpt lat="56.232493976131082" lon="-4.410682003945112">
        <ele>83.769999999999996</ele>
        <time>2023-09-02T08:40:17Z</time>
      </trkpt>
      <trkpt lat="56.232217960059643" lon="-4.410533979535103">
        <ele>84.730000000000004</ele>
        <time>2023-09-02T08:40:19Z</time>
      </trkpt>
      <trkpt lat="56.232170015573502" lon="-4.410517970100045">
        <ele>85.689999999999998</ele>
        <time>2023-09-02T08:40:20Z</time>
      </trkpt>
      <trkpt lat="56.232093991711736" lon="-4.410491986200213">
        <ele>86.659999999999997</ele>
        <time>2023-09-02T08:40:21Z</time>
      </trkpt>
      <trkpt lat="56.231987038627267" lon="-4.410456027835608">
        <ele>87.620000000000005</ele>
        <time>2023-09-02T08:40:22Z</time>
      </trkpt>
      <trkpt lat="56.231503989547491" lon="-4.410388972610235">
        <ele>88.579999999999998</ele>
        <time>2023-09-02T08:40:26Z</time>
      </trkpt>
      <trkpt lat="56.231503989547491" lon="-4.410388972610235">
        <ele>88.579999999999998</ele>
        <time>2023-09-02T08:40:27Z</time>
      </trkpt>
      <trkpt lat="56.231369962915778" lon="-4.410583013668656">
        <ele>88.579999999999998</ele>
        <time>2023-09-02T08:40:28Z</time>
      </trkpt>
      <trkpt lat="56.231309026479721" lon="-4.410671023651958">
        <ele>88.579999999999998</ele>
        <time>2023-09-02T08:40:29Z</time>
      </trkpt>
      <trkpt lat="56.231239037588239" lon="-4.410773031413555">
        <ele>89.060000000000002</ele>
        <time>2023-09-02T08:40:30Z</time>
      </trkpt>
      <trkpt lat="56.231159996241331" lon="-4.410887025296688">
        <ele>89.540000000000006</ele>
        <time>2023-09-02T08:40:31Z</time>
      </trkpt>
      <trkpt lat="56.231070980429649" lon="-4.411016022786498">
        <ele>89.540000000000006</ele>
        <time>2023-09-02T08:40:32Z</time>
      </trkpt>
      <trkpt lat="56.230977019295096" lon="-4.41115197725594">
        <ele>90.019999999999996</ele>
        <time>2023-09-02T08:40:33Z</time>
      </trkpt>
      <trkpt lat="56.230737967416644" lon="-4.411381976678968">
        <ele>90.5</ele>
        <time>2023-09-02T08:40:35Z</time>
      </trkpt>
      <trkpt lat="56.230610981583595" lon="-4.411464035511017">
        <ele>90.980000000000004</ele>
        <time>2023-09-02T08:40:36Z</time>
      </trkpt>
      <trkpt lat="56.230467986315489" lon="-4.411476021632552">
        <ele>91.459999999999994</ele>
        <time>2023-09-02T08:40:37Z</time>
      </trkpt>
      <trkpt lat="56.230337982997298" lon="-4.411467975005508">
        <ele>91.459999999999994</ele>
        <time>2023-09-02T08:40:38Z</time>
      </trkpt>
      <trkpt lat="56.230237986892462" lon="-4.411461018025875">
        <ele>90.980000000000004</ele>
        <time>2023-09-02T08:40:39Z</time>
      </trkpt>
      <trkpt lat="56.230065990239382" lon="-4.411525977775455">
        <ele>90.5</ele>
        <time>2023-09-02T08:40:42Z</time>
      </trkpt>
      <trkpt lat="56.229860968887806" lon="-4.411763017997146">
        <ele>90.5</ele>
        <time>2023-09-02T08:40:43Z</time>
      </trkpt>
      <trkpt lat="56.229744041338563" lon="-4.411897966638207">
        <ele>90.5</ele>
        <time>2023-09-02T08:40:44Z</time>
      </trkpt>
      <trkpt lat="56.229620995000005" lon="-4.412040039896965">
        <ele>90.019999999999996</ele>
        <time>2023-09-02T08:40:45Z</time>
      </trkpt>
      <trkpt lat="56.229496020823717" lon="-4.412184963002801">
        <ele>90.019999999999996</ele>
        <time>2023-09-02T08:40:46Z</time>
      </trkpt>
      <trkpt lat="56.228956980630755" lon="-4.412806984037161">
        <ele>89.060000000000002</ele>
        <time>2023-09-02T08:40:50Z</time>
      </trkpt>
      <trkpt lat="56.227859035134315" lon="-4.413869976997376">
        <ele>86.659999999999997</ele>
        <time>2023-09-02T08:40:58Z</time>
      </trkpt>
      <trkpt lat="56.227727020159364" lon="-4.413876011967659">
        <ele>88.099999999999994</ele>
        <time>2023-09-02T08:40:59Z</time>
      </trkpt>
      <trkpt lat="56.227658959105611" lon="-4.413869976997376">
        <ele>89.540000000000006</ele>
        <time>2023-09-02T08:41:00Z</time>
      </trkpt>
      <trkpt lat="56.227566003799438" lon="-4.413841981440783">
        <ele>90.019999999999996</ele>
        <time>2023-09-02T08:41:01Z</time>
      </trkpt>
      <trkpt lat="56.22746299020946" lon="-4.413768975064158">
        <ele>90.5</ele>
        <time>2023-09-02T08:41:02Z</time>
      </trkpt>
      <trkpt lat="56.22735695913434" lon="-4.413694040849805">
        <ele>90.5</ele>
        <time>2023-09-02T08:41:03Z</time>
      </trkpt>
      <trkpt lat="56.227233996614814" lon="-4.413607036694884">
        <ele>90.980000000000004</ele>
        <time>2023-09-02T08:41:04Z</time>
      </trkpt>
      <trkpt lat="56.22713902965188" lon="-4.413432022556663">
        <ele>90.5</ele>
        <time>2023-09-02T08:41:05Z</time>
      </trkpt>
      <trkpt lat="56.22703299857676" lon="-4.413236975669861">
        <ele>90.5</ele>
        <time>2023-09-02T08:41:06Z</time>
      </trkpt>
      <trkpt lat="56.226316010579467" lon="-4.411917999386787">
        <ele>90.019999999999996</ele>
        <time>2023-09-02T08:41:12Z</time>
      </trkpt>
      <trkpt lat="56.226214002817869" lon="-4.411670984700322">
        <ele>90.019999999999996</ele>
        <time>2023-09-02T08:41:13Z</time>
      </trkpt>
      <trkpt lat="56.226116018369794" lon="-4.411393040791154">
        <ele>90.019999999999996</ele>
        <time>2023-09-02T08:41:14Z</time>
      </trkpt>
      <trkpt lat="56.226082993671298" lon="-4.411090034991503">
        <ele>90.5</ele>
        <time>2023-09-02T08:41:15Z</time>
      </trkpt>
      <trkpt lat="56.226048963144422" lon="-4.410774037241936">
        <ele>90.5</ele>
        <time>2023-09-02T08:41:16Z</time>
      </trkpt>
      <trkpt lat="56.225811000913382" lon="-4.408542020246387">
        <ele>93.870000000000005</ele>
        <time>2023-09-02T08:41:23Z</time>
      </trkpt>
      <trkpt lat="56.225777976214886" lon="-4.408239014446735">
        <ele>93.870000000000005</ele>
        <time>2023-09-02T08:41:24Z</time>
      </trkpt>
      <trkpt lat="56.225746041163802" lon="-4.407974984496832">
        <ele>93.870000000000005</ele>
        <time>2023-09-02T08:41:25Z</time>
      </trkpt>
      <trkpt lat="56.22567999176681" lon="-4.407711960375309">
        <ele>93.870000000000005</ele>
        <time>2023-09-02T08:41:26Z</time>
      </trkpt>
      <trkpt lat="56.225612014532089" lon="-4.407441979274154">
        <ele>94.349999999999994</ele>
        <time>2023-09-02T08:41:27Z</time>
      </trkpt>
      <trkpt lat="56.225402969866991" lon="-4.406603034585714">
        <ele>94.349999999999994</ele>
        <time>2023-09-02T08:41:30Z</time>
      </trkpt>
      <trkpt lat="56.22535795904696" lon="-4.40631402656436">
        <ele>94.349999999999994</ele>
        <time>2023-09-02T08:41:31Z</time>
      </trkpt>
      <trkpt lat="56.225130977109075" lon="-4.403757965192199">
        <ele>93.870000000000005</ele>
        <time>2023-09-02T08:41:40Z</time>
      </trkpt>
      <trkpt lat="56.225156961008906" lon="-4.403569959104061">
        <ele>93.390000000000001</ele>
        <time>2023-09-02T08:41:41Z</time>
      </trkpt>
      <trkpt lat="56.225196020677686" lon="-4.403167041018605">
        <ele>93.390000000000001</ele>
        <time>2023-09-02T08:41:43Z</time>
      </trkpt>
      <trkpt lat="56.225196020677686" lon="-4.402970988303423">
        <ele>93.390000000000001</ele>
        <time>2023-09-02T08:41:44Z</time>
      </trkpt>
      <trkpt lat="56.225173976272345" lon="-4.402772001922131">
        <ele>93.390000000000001</ele>
        <time>2023-09-02T08:41:45Z</time>
      </trkpt>
      <trkpt lat="56.22514296323061" lon="-4.402551976963878">
        <ele>93.390000000000001</ele>
        <time>2023-09-02T08:41:46Z</time>
      </trkpt>
      <trkpt lat="56.225072974339128" lon="-4.402344021946192">
        <ele>93.870000000000005</ele>
        <time>2023-09-02T08:41:47Z</time>
      </trkpt>
      <trkpt lat="56.224987981840968" lon="-4.402158027514815">
        <ele>94.349999999999994</ele>
        <time>2023-09-02T08:41:48Z</time>
      </trkpt>
      <trkpt lat="56.224895026534796" lon="-4.401956023648381">
        <ele>95.310000000000002</ele>
        <time>2023-09-02T08:41:49Z</time>
      </trkpt>
      <trkpt lat="56.224787989631295" lon="-4.401843035593629">
        <ele>96.269999999999996</ele>
        <time>2023-09-02T08:41:50Z</time>
      </trkpt>
      <trkpt lat="56.224679024890065" lon="-4.401726024225354">
        <ele>97.709999999999994</ele>
        <time>2023-09-02T08:41:51Z</time>
      </trkpt>
      <trkpt lat="56.224573999643326" lon="-4.401614964008331">
        <ele>98.670000000000002</ele>
        <time>2023-09-02T08:41:52Z</time>
      </trkpt>
      <trkpt lat="56.224482972174883" lon="-4.401499964296818">
        <ele>100.11</ele>
        <time>2023-09-02T08:41:53Z</time>
      </trkpt>
      <trkpt lat="56.224312987178564" lon="-4.401250015944243">
        <ele>102.04000000000001</ele>
        <time>2023-09-02T08:41:55Z</time>
      </trkpt>
      <trkpt lat="56.224165968596935" lon="-4.401033008471131">
        <ele>103.48</ele>
        <time>2023-09-02T08:41:56Z</time>
      </trkpt>
      <trkpt lat="56.223977962508798" lon="-4.400915997102857">
        <ele>105.40000000000001</ele>
        <time>2023-09-02T08:41:58Z</time>
      </trkpt>
      <trkpt lat="56.223846031352878" lon="-4.400834022089839">
        <ele>106.36</ele>
        <time>2023-09-02T08:41:59Z</time>
      </trkpt>
      <trkpt lat="56.223713010549545" lon="-4.40075003542006">
        <ele>107.81</ele>
        <time>2023-09-02T08:42:00Z</time>
      </trkpt>
      <trkpt lat="56.223367005586624" lon="-4.400467984378338">
        <ele>112.13</ele>
        <time>2023-09-02T08:42:03Z</time>
      </trkpt>
      <trkpt lat="56.223285030573606" lon="-4.400397995486856">
        <ele>113.56999999999999</ele>
        <time>2023-09-02T08:42:04Z</time>
      </trkpt>
      <trkpt lat="56.223143041133881" lon="-4.400396989658475">
        <ele>115.01000000000001</ele>
        <time>2023-09-02T08:42:05Z</time>
      </trkpt>
      <trkpt lat="56.223094007000327" lon="-4.400461027398706">
        <ele>116.45999999999999</ele>
        <time>2023-09-02T08:42:06Z</time>
      </trkpt>
      <trkpt lat="56.223031980916858" lon="-4.400650961324573">
        <ele>117.90000000000001</ele>
        <time>2023-09-02T08:42:07Z</time>
      </trkpt>
      <trkpt lat="56.223010020330548" lon="-4.40081600099802">
        <ele>118.86</ele>
        <time>2023-09-02T08:42:08Z</time>
      </trkpt>
      <trkpt lat="56.222982024773955" lon="-4.401014987379313">
        <ele>120.3</ele>
        <time>2023-09-02T08:42:09Z</time>
      </trkpt>
      <trkpt lat="56.222892003133893" lon="-4.401680007576942">
        <ele>123.67</ele>
        <time>2023-09-02T08:42:12Z</time>
      </trkpt>
      <trkpt lat="56.222878005355597" lon="-4.401784026995301">
        <ele>124.63</ele>
        <time>2023-09-02T08:42:13Z</time>
      </trkpt>
      <trkpt lat="56.222795024514198" lon="-4.401875976473093">
        <ele>125.59</ele>
        <time>2023-09-02T08:42:14Z</time>
      </trkpt>
      <trkpt lat="56.222716988995671" lon="-4.401963986456394">
        <ele>127.03</ele>
        <time>2023-09-02T08:42:15Z</time>
      </trkpt>
      <trkpt lat="56.222678013145924" lon="-4.401998016983271">
        <ele>127.98999999999999</ele>
        <time>2023-09-02T08:42:16Z</time>
      </trkpt>
      <trkpt lat="56.222582040354609" lon="-4.401984019204974">
        <ele>128.47</ele>
        <time>2023-09-02T08:42:17Z</time>
      </trkpt>
      <trkpt lat="56.222482966259122" lon="-4.401970021426678">
        <ele>129.43000000000001</ele>
        <time>2023-09-02T08:42:18Z</time>
      </trkpt>
      <trkpt lat="56.22236997820437" lon="-4.401959963142872">
        <ele>129.91999999999999</ele>
        <time>2023-09-02T08:42:19Z</time>
      </trkpt>
      <trkpt lat="56.222274005413055" lon="-4.401989970356226">
        <ele>130.40000000000001</ele>
        <time>2023-09-02T08:42:20Z</time>
      </trkpt>
      <trkpt lat="56.22217602096498" lon="-4.402020983397961">
        <ele>130.40000000000001</ele>
        <time>2023-09-02T08:42:21Z</time>
      </trkpt>
      <trkpt lat="56.222080970183015" lon="-4.402050990611315">
        <ele>130.88</ele>
        <time>2023-09-02T08:42:22Z</time>
      </trkpt>
      <trkpt lat="56.222012992948294" lon="-4.402027018368244">
        <ele>131.84</ele>
        <time>2023-09-02T08:42:23Z</time>
      </trkpt>
      <trkpt lat="56.221945015713573" lon="-4.401926016435027">
        <ele>132.80000000000001</ele>
        <time>2023-09-02T08:42:24Z</time>
      </trkpt>
      <trkpt lat="56.221891958266497" lon="-4.401778997853398">
        <ele>133.28</ele>
        <time>2023-09-02T08:42:25Z</time>
      </trkpt>
      <trkpt lat="56.221836972981691" lon="-4.401628039777279">
        <ele>133.75999999999999</ele>
        <time>2023-09-02T08:42:26Z</time>
      </trkpt>
      <trkpt lat="56.221762038767338" lon="-4.401418995112181">
        <ele>134.24000000000001</ele>
        <time>2023-09-02T08:42:27Z</time>
      </trkpt>
      <trkpt lat="56.22170596383512" lon="-4.401363003998995">
        <ele>134.24000000000001</ele>
        <time>2023-09-02T08:42:28Z</time>
      </trkpt>
      <trkpt lat="56.221594987437129" lon="-4.401285974308848">
        <ele>134.72</ele>
        <time>2023-09-02T08:42:29Z</time>
      </trkpt>
      <trkpt lat="56.221476970240474" lon="-4.401271976530552">
        <ele>134.72</ele>
        <time>2023-09-02T08:42:30Z</time>
      </trkpt>
      <trkpt lat="56.221349984407425" lon="-4.401256972923875">
        <ele>134.72</ele>
        <time>2023-09-02T08:42:31Z</time>
      </trkpt>
      <trkpt lat="56.220238041132689" lon="-4.401124035939574">
        <ele>133.75999999999999</ele>
        <time>2023-09-02T08:42:39Z</time>
      </trkpt>
      <trkpt lat="56.220131004229188" lon="-4.401032002642751">
        <ele>134.24000000000001</ele>
        <time>2023-09-02T08:42:40Z</time>
      </trkpt>
      <trkpt lat="56.220030002295971" lon="-4.400896970182657">
        <ele>134.24000000000001</ele>
        <time>2023-09-02T08:42:41Z</time>
      </trkpt>
      <trkpt lat="56.21983403339982" lon="-4.400636041536927">
        <ele>134.72</ele>
        <time>2023-09-02T08:42:43Z</time>
      </trkpt>
      <trkpt lat="56.219732025638223" lon="-4.400549037382007">
        <ele>135.19999999999999</ele>
        <time>2023-09-02T08:42:44Z</time>
      </trkpt>
      <trkpt lat="56.2196209654212" lon="-4.40047100186348">
        <ele>135.19999999999999</ele>
        <time>2023-09-02T08:42:45Z</time>
      </trkpt>
      <trkpt lat="56.219500014558434" lon="-4.400383997708559">
        <ele>135.68000000000001</ele>
        <time>2023-09-02T08:42:46Z</time>
      </trkpt>
      <trkpt lat="56.219372022897005" lon="-4.400293976068497">
        <ele>135.68000000000001</ele>
        <time>2023-09-02T08:42:47Z</time>
      </trkpt>
      <trkpt lat="56.219247970730066" lon="-4.40017000772059">
        <ele>136.16</ele>
        <time>2023-09-02T08:42:48Z</time>
      </trkpt>
      <trkpt lat="56.219140011817217" lon="-4.400013014674187">
        <ele>136.63999999999999</ele>
        <time>2023-09-02T08:42:49Z</time>
      </trkpt>
      <trkpt lat="56.218270976096392" lon="-4.398757992312312">
        <ele>140.00999999999999</ele>
        <time>2023-09-02T08:42:57Z</time>
      </trkpt>
      <trkpt lat="56.217892030254006" lon="-4.39836697652936">
        <ele>139.05000000000001</ele>
        <time>2023-09-02T08:43:00Z</time>
      </trkpt>
      <trkpt lat="56.217770995572209" lon="-4.398286007344723">
        <ele>139.05000000000001</ele>
        <time>2023-09-02T08:43:01Z</time>
      </trkpt>
      <trkpt lat="56.217655995860696" lon="-4.398269997909665">
        <ele>139.05000000000001</ele>
        <time>2023-09-02T08:43:02Z</time>
      </trkpt>
      <trkpt lat="56.217406969517469" lon="-4.398234961554408">
        <ele>138.56999999999999</ele>
        <time>2023-09-02T08:43:04Z</time>
      </trkpt>
      <trkpt lat="56.217293981462717" lon="-4.398193974047899">
        <ele>138.09</ele>
        <time>2023-09-02T08:43:05Z</time>
      </trkpt>
      <trkpt lat="56.217189962044358" lon="-4.398084003478289">
        <ele>137.61000000000001</ele>
        <time>2023-09-02T08:43:06Z</time>
      </trkpt>
      <trkpt lat="56.217087032273412" lon="-4.397975038737059">
        <ele>137.61000000000001</ele>
        <time>2023-09-02T08:43:07Z</time>
      </trkpt>
      <trkpt lat="56.216997010633349" lon="-4.397879987955093">
        <ele>137.61000000000001</ele>
        <time>2023-09-02T08:43:08Z</time>
      </trkpt>
      <trkpt lat="56.216915035620332" lon="-4.397846963256598">
        <ele>137.61000000000001</ele>
        <time>2023-09-02T08:43:09Z</time>
      </trkpt>
      <trkpt lat="56.216807998716831" lon="-4.397877976298332">
        <ele>137.61000000000001</ele>
        <time>2023-09-02T08:43:10Z</time>
      </trkpt>
      <trkpt lat="56.216692999005318" lon="-4.397911000996828">
        <ele>137.13</ele>
        <time>2023-09-02T08:43:11Z</time>
      </trkpt>
      <trkpt lat="56.216457970440388" lon="-4.397977972403169">
        <ele>137.13</ele>
        <time>2023-09-02T08:43:13Z</time>
      </trkpt>
      <trkpt lat="56.216341964900494" lon="-4.397993981838226">
        <ele>137.13</ele>
        <time>2023-09-02T08:43:14Z</time>
      </trkpt>
      <trkpt lat="56.216254960745573" lon="-4.397907983511686">
        <ele>137.13</ele>
        <time>2023-09-02T08:43:15Z</time>
      </trkpt>
      <trkpt lat="56.216072989627719" lon="-4.397726012393832">
        <ele>138.09</ele>
        <time>2023-09-02T08:43:17Z</time>
      </trkpt>
      <trkpt lat="56.215976011008024" lon="-4.397628027945757">
        <ele>138.09</ele>
        <time>2023-09-02T08:43:18Z</time>
      </trkpt>
      <trkpt lat="56.215867968276143" lon="-4.397615035995841">
        <ele>138.56999999999999</ele>
        <time>2023-09-02T08:43:19Z</time>
      </trkpt>
      <trkpt lat="56.215737964957952" lon="-4.397605983540416">
        <ele>138.56999999999999</ele>
        <time>2023-09-02T08:43:20Z</time>
      </trkpt>
      <trkpt lat="56.215598993003368" lon="-4.397597014904022">
        <ele>138.56999999999999</ele>
        <time>2023-09-02T08:43:21Z</time>
      </trkpt>
      <trkpt lat="56.215350972488523" lon="-4.397579999640584">
        <ele>139.05000000000001</ele>
        <time>2023-09-02T08:43:23Z</time>
      </trkpt>
      <trkpt lat="56.215247036889195" lon="-4.397533982992172">
        <ele>139.53</ele>
        <time>2023-09-02T08:43:24Z</time>
      </trkpt>
      <trkpt lat="56.215152991935611" lon="-4.397437004372478">
        <ele>140.00999999999999</ele>
        <time>2023-09-02T08:43:25Z</time>
      </trkpt>
      <trkpt lat="56.215102029964328" lon="-4.397309012711048">
        <ele>140.49000000000001</ele>
        <time>2023-09-02T08:43:26Z</time>
      </trkpt>
      <trkpt lat="56.21504201553762" lon="-4.397141039371491">
        <ele>141.44999999999999</ele>
        <time>2023-09-02T08:43:27Z</time>
      </trkpt>
      <trkpt lat="56.215017037466168" lon="-4.396965019404888">
        <ele>141.44999999999999</ele>
        <time>2023-09-02T08:43:28Z</time>
      </trkpt>
      <trkpt lat="56.214989963918924" lon="-4.39677600748837">
        <ele>141.93000000000001</ele>
        <time>2023-09-02T08:43:29Z</time>
      </trkpt>
      <trkpt lat="56.214971020817757" lon="-4.39656101167202">
        <ele>142.88999999999999</ele>
        <time>2023-09-02T08:43:30Z</time>
      </trkpt>
      <trkpt lat="56.214799024164677" lon="-4.394546002149582">
        <ele>148.66</ele>
        <time>2023-09-02T08:43:38Z</time>
      </trkpt>
      <trkpt lat="56.214767005294561" lon="-4.394294964149594">
        <ele>149.13999999999999</ele>
        <time>2023-09-02T08:43:39Z</time>
      </trkpt>
      <trkpt lat="56.214767005294561" lon="-4.394100001081824">
        <ele>150.09999999999999</ele>
        <time>2023-09-02T08:43:40Z</time>
      </trkpt>
      <trkpt lat="56.214767005294561" lon="-4.393735975027084">
        <ele>150.58000000000001</ele>
        <time>2023-09-02T08:43:42Z</time>
      </trkpt>
      <trkpt lat="56.214756025001407" lon="-4.393546041101217">
        <ele>151.06</ele>
        <time>2023-09-02T08:43:43Z</time>
      </trkpt>
      <trkpt lat="56.214689975604415" lon="-4.393428023904562">
        <ele>151.06</ele>
        <time>2023-09-02T08:43:44Z</time>
      </trkpt>
      <trkpt lat="56.214589979499578" lon="-4.3933380022645">
        <ele>151.06</ele>
        <time>2023-09-02T08:43:45Z</time>
      </trkpt>
      <trkpt lat="56.214474979788065" lon="-4.393282011151314">
        <ele>151.06</ele>
        <time>2023-09-02T08:43:46Z</time>
      </trkpt>
      <trkpt lat="56.214345982298255" lon="-4.393233982846141">
        <ele>151.06</ele>
        <time>2023-09-02T08:43:47Z</time>
      </trkpt>
      <trkpt lat="56.213801996782422" lon="-4.393137004226446">
        <ele>152.99000000000001</ele>
        <time>2023-09-02T08:43:51Z</time>
      </trkpt>
      <trkpt lat="56.213683979585767" lon="-4.393054023385048">
        <ele>153.47</ele>
        <time>2023-09-02T08:43:52Z</time>
      </trkpt>
      <trkpt lat="56.213579960167408" lon="-4.39297397620976">
        <ele>154.43000000000001</ele>
        <time>2023-09-02T08:43:53Z</time>
      </trkpt>
      <trkpt lat="56.213493961840868" lon="-4.392826035618782">
        <ele>155.38999999999999</ele>
        <time>2023-09-02T08:43:54Z</time>
      </trkpt>
      <trkpt lat="56.213406035676599" lon="-4.392656972631812">
        <ele>155.87</ele>
        <time>2023-09-02T08:43:55Z</time>
      </trkpt>
      <trkpt lat="56.213321965187788" lon="-4.392454968765378">
        <ele>156.83000000000001</ele>
        <time>2023-09-02T08:43:56Z</time>
      </trkpt>
      <trkpt lat="56.213234961032867" lon="-4.392248019576073">
        <ele>157.31</ele>
        <time>2023-09-02T08:43:57Z</time>
      </trkpt>
      <trkpt lat="56.213050978258252" lon="-4.391806041821837">
        <ele>158.75</ele>
        <time>2023-09-02T08:43:59Z</time>
      </trkpt>
      <trkpt lat="56.213012002408504" lon="-4.391584005206823">
        <ele>159.72</ele>
        <time>2023-09-02T08:44:00Z</time>
      </trkpt>
      <trkpt lat="56.212964979931712" lon="-4.391313018277288">
        <ele>160.68000000000001</ele>
        <time>2023-09-02T08:44:01Z</time>
      </trkpt>
      <trkpt lat="56.212964979931712" lon="-4.391163988038898">
        <ele>161.63999999999999</ele>
        <time>2023-09-02T08:44:02Z</time>
      </trkpt>
      <trkpt lat="56.212988030165434" lon="-4.390966007485986">
        <ele>162.59999999999999</ele>
        <time>2023-09-02T08:44:03Z</time>
      </trkpt>
      <trkpt lat="56.213037986308336" lon="-4.390776995569468">
        <ele>163.08000000000001</ele>
        <time>2023-09-02T08:44:04Z</time>
      </trkpt>
      <trkpt lat="56.213094983249903" lon="-4.390591001138091">
        <ele>164.03999999999999</ele>
        <time>2023-09-02T08:44:05Z</time>
      </trkpt>
      <trkpt lat="56.213171007111669" lon="-4.390402995049954">
        <ele>164.52000000000001</ele>
        <time>2023-09-02T08:44:06Z</time>
      </trkpt>
      <trkpt lat="56.213328000158072" lon="-4.390014996752143">
        <ele>166.44999999999999</ele>
        <time>2023-09-02T08:44:08Z</time>
      </trkpt>
      <trkpt lat="56.213402012363076" lon="-4.389833025634289">
        <ele>166.93000000000001</ele>
        <time>2023-09-02T08:44:09Z</time>
      </trkpt>
      <trkpt lat="56.213451968505979" lon="-4.389623980969191">
        <ele>167.88999999999999</ele>
        <time>2023-09-02T08:44:10Z</time>
      </trkpt>
      <trkpt lat="56.213478036224842" lon="-4.389413008466363">
        <ele>168.37</ele>
        <time>2023-09-02T08:44:11Z</time>
      </trkpt>
      <trkpt lat="56.213493961840868" lon="-4.389169011265039">
        <ele>169.33000000000001</ele>
        <time>2023-09-02T08:44:12Z</time>
      </trkpt>
      <trkpt lat="56.213466972112656" lon="-4.388943035155535">
        <ele>170.28999999999999</ele>
        <time>2023-09-02T08:44:13Z</time>
      </trkpt>
      <trkpt lat="56.213407963514328" lon="-4.38871898688376">
        <ele>170.77000000000001</ele>
        <time>2023-09-02T08:44:14Z</time>
      </trkpt>
      <trkpt lat="56.213335962966084" lon="-4.388507008552551">
        <ele>171.72999999999999</ele>
        <time>2023-09-02T08:44:15Z</time>
      </trkpt>
      <trkpt lat="56.213262034580112" lon="-4.388287989422679">
        <ele>171.72999999999999</ele>
        <time>2023-09-02T08:44:16Z</time>
      </trkpt>
      <trkpt lat="56.213187016546726" lon="-4.388066958636046">
        <ele>172.21000000000001</ele>
        <time>2023-09-02T08:44:17Z</time>
      </trkpt>
      <trkpt lat="56.213113004341722" lon="-4.387849029153585">
        <ele>172.69</ele>
        <time>2023-09-02T08:44:18Z</time>
      </trkpt>
      <trkpt lat="56.213000016286969" lon="-4.387378972023726">
        <ele>173.66</ele>
        <time>2023-09-02T08:44:20Z</time>
      </trkpt>
      <trkpt lat="56.212949976325035" lon="-4.387137992307544">
        <ele>174.62</ele>
        <time>2023-09-02T08:44:21Z</time>
      </trkpt>
      <trkpt lat="56.212900020182133" lon="-4.386897012591362">
        <ele>175.09999999999999</ele>
        <time>2023-09-02T08:44:22Z</time>
      </trkpt>
      <trkpt lat="56.212850986048579" lon="-4.386660978198052">
        <ele>175.58000000000001</ele>
        <time>2023-09-02T08:44:23Z</time>
      </trkpt>
      <trkpt lat="56.212794994935393" lon="-4.386451011523604">
        <ele>176.06</ele>
        <time>2023-09-02T08:44:24Z</time>
      </trkpt>
      <trkpt lat="56.212693993002176" lon="-4.386277003213763">
        <ele>177.02000000000001</ele>
        <time>2023-09-02T08:44:25Z</time>
      </trkpt>
      <trkpt lat="56.212587961927056" lon="-4.38609603792429">
        <ele>177.97999999999999</ele>
        <time>2023-09-02T08:44:26Z</time>
      </trkpt>
      <trkpt lat="56.212477991357446" lon="-4.38590501435101">
        <ele>178.94</ele>
        <time>2023-09-02T08:44:27Z</time>
      </trkpt>
      <trkpt lat="56.212178003042936" lon="-4.385328004136682">
        <ele>180.38</ele>
        <time>2023-09-02T08:44:30Z</time>
      </trkpt>
      <trkpt lat="56.212084963917732" lon="-4.38511099666357">
        <ele>181.34999999999999</ele>
        <time>2023-09-02T08:44:31Z</time>
      </trkpt>
      <trkpt lat="56.212060991674662" lon="-4.384879991412163">
        <ele>181.83000000000001</ele>
        <time>2023-09-02T08:44:32Z</time>
      </trkpt>
      <trkpt lat="56.211851025000215" lon="-4.3823810108006">
        <ele>189.03999999999999</ele>
        <time>2023-09-02T08:44:41Z</time>
      </trkpt>
      <trkpt lat="56.211818000301719" lon="-4.38218797557056">
        <ele>189.52000000000001</ele>
        <time>2023-09-02T08:44:42Z</time>
      </trkpt>
      <trkpt lat="56.211765026673675" lon="-4.38201597891748">
        <ele>190.47999999999999</ele>
        <time>2023-09-02T08:44:43Z</time>
      </trkpt>
      <trkpt lat="56.211680034175515" lon="-4.381897961720824">
        <ele>191.44</ele>
        <time>2023-09-02T08:44:44Z</time>
      </trkpt>
      <trkpt lat="56.211582971736789" lon="-4.381763013079763">
        <ele>191.91999999999999</ele>
        <time>2023-09-02T08:44:45Z</time>
      </trkpt>
      <trkpt lat="56.211479958146811" lon="-4.381620017811656">
        <ele>192.40000000000001</ele>
        <time>2023-09-02T08:44:46Z</time>
      </trkpt>
      <trkpt lat="56.211379040032625" lon="-4.381462018936873">
        <ele>192.88</ele>
        <time>2023-09-02T08:44:47Z</time>
      </trkpt>
      <trkpt lat="56.211214000359178" lon="-4.381076032295823">
        <ele>193.84</ele>
        <time>2023-09-02T08:44:49Z</time>
      </trkpt>
      <trkpt lat="56.211092965677381" lon="-4.380929013714194">
        <ele>194.31999999999999</ele>
        <time>2023-09-02T08:44:50Z</time>
      </trkpt>
      <trkpt lat="56.210970003157854" lon="-4.38079004175961">
        <ele>194.80000000000001</ele>
        <time>2023-09-02T08:44:51Z</time>
      </trkpt>
      <trkpt lat="56.210588039830327" lon="-4.380427021533251">
        <ele>196.72999999999999</ele>
        <time>2023-09-02T08:44:54Z</time>
      </trkpt>
      <trkpt lat="56.210454013198614" lon="-4.380402965471149">
        <ele>197.69</ele>
        <time>2023-09-02T08:44:55Z</time>
      </trkpt>
      <trkpt lat="56.209963001310825" lon="-4.380427021533251">
        <ele>200.09</ele>
        <time>2023-09-02T08:44:59Z</time>
      </trkpt>
      <trkpt lat="56.209869040176272" lon="-4.380493992939591">
        <ele>200.56999999999999</ele>
        <time>2023-09-02T08:45:00Z</time>
      </trkpt>
      <trkpt lat="56.209791004657745" lon="-4.380628019571304">
        <ele>201.05000000000001</ele>
        <time>2023-09-02T08:45:01Z</time>
      </trkpt>
      <trkpt lat="56.209720009937882" lon="-4.380819965153933">
        <ele>201.53</ele>
        <time>2023-09-02T08:45:02Z</time>
      </trkpt>
      <trkpt lat="56.209642980247736" lon="-4.381030015647411">
        <ele>201.53</ele>
        <time>2023-09-02T08:45:03Z</time>
      </trkpt>
      <trkpt lat="56.209551030769944" lon="-4.381238976493478">
        <ele>201.53</ele>
        <time>2023-09-02T08:45:04Z</time>
      </trkpt>
      <trkpt lat="56.209450028836727" lon="-4.381453972309828">
        <ele>201.53</ele>
        <time>2023-09-02T08:45:05Z</time>
      </trkpt>
      <trkpt lat="56.20921902358532" lon="-4.382176995277405">
        <ele>202.00999999999999</ele>
        <time>2023-09-02T08:45:08Z</time>
      </trkpt>
      <trkpt lat="56.209175018593669" lon="-4.38244697637856">
        <ele>202.00999999999999</ele>
        <time>2023-09-02T08:45:09Z</time>
      </trkpt>
      <trkpt lat="56.20894099585712" lon="-4.383551040664315">
        <ele>202.49000000000001</ele>
        <time>2023-09-02T08:45:14Z</time>
      </trkpt>
      <trkpt lat="56.208908976987004" lon="-4.383631004020572">
        <ele>202.49000000000001</ele>
        <time>2023-09-02T08:45:15Z</time>
      </trkpt>
      <trkpt lat="56.208833958953619" lon="-4.383603008463979">
        <ele>202.97999999999999</ele>
        <time>2023-09-02T08:45:16Z</time>
      </trkpt>
      <trkpt lat="56.208760030567646" lon="-4.383575012907386">
        <ele>203.46000000000001</ele>
        <time>2023-09-02T08:45:17Z</time>
      </trkpt>
      <trkpt lat="56.20870403945446" lon="-4.383503012359142">
        <ele>203.46000000000001</ele>
        <time>2023-09-02T08:45:18Z</time>
      </trkpt>
      <trkpt lat="56.208631033077836" lon="-4.383364040404558">
        <ele>203.46000000000001</ele>
        <time>2023-09-02T08:45:19Z</time>
      </trkpt>
      <trkpt lat="56.208459958434105" lon="-4.383059022948146">
        <ele>203.46000000000001</ele>
        <time>2023-09-02T08:45:21Z</time>
      </trkpt>
      <trkpt lat="56.208363985642791" lon="-4.382927007973194">
        <ele>202.97999999999999</ele>
        <time>2023-09-02T08:45:22Z</time>
      </trkpt>
      <trkpt lat="56.208238005638123" lon="-4.38285400159657">
        <ele>202.49000000000001</ele>
        <time>2023-09-02T08:45:23Z</time>
      </trkpt>
      <trkpt lat="56.208115965127945" lon="-4.382818965241313">
        <ele>201.53</ele>
        <time>2023-09-02T08:45:24Z</time>
      </trkpt>
      <trkpt lat="56.207986967638135" lon="-4.382821982726455">
        <ele>201.53</ele>
        <time>2023-09-02T08:45:25Z</time>
      </trkpt>
      <trkpt lat="56.207868028432131" lon="-4.382901024073362">
        <ele>201.05000000000001</ele>
        <time>2023-09-02T08:45:26Z</time>
      </trkpt>
      <trkpt lat="56.207752022892237" lon="-4.383019963279367">
        <ele>200.56999999999999</ele>
        <time>2023-09-02T08:45:27Z</time>
      </trkpt>
      <trkpt lat="56.20763199403882" lon="-4.383156001567841">
        <ele>200.56999999999999</ele>
        <time>2023-09-02T08:45:28Z</time>
      </trkpt>
      <trkpt lat="56.206719959154725" lon="-4.384140959009528">
        <ele>199.61000000000001</ele>
        <time>2023-09-02T08:45:35Z</time>
      </trkpt>
      <trkpt lat="56.206613006070256" lon="-4.384188987314701">
        <ele>200.09</ele>
        <time>2023-09-02T08:45:36Z</time>
      </trkpt>
      <trkpt lat="56.206510998308659" lon="-4.384134002029896">
        <ele>201.05000000000001</ele>
        <time>2023-09-02T08:45:37Z</time>
      </trkpt>
      <trkpt lat="56.206288961693645" lon="-4.384017996490002">
        <ele>202.00999999999999</ele>
        <time>2023-09-02T08:45:39Z</time>
      </trkpt>
      <trkpt lat="56.206196006387472" lon="-4.384043980389834">
        <ele>202.49000000000001</ele>
        <time>2023-09-02T08:45:40Z</time>
      </trkpt>
      <trkpt lat="56.206111013889313" lon="-4.384128972887993">
        <ele>202.97999999999999</ele>
        <time>2023-09-02T08:45:41Z</time>
      </trkpt>
      <trkpt lat="56.206055022776127" lon="-4.384253025054932">
        <ele>203.46000000000001</ele>
        <time>2023-09-02T08:45:42Z</time>
      </trkpt>
      <trkpt lat="56.206014035269618" lon="-4.384418986737728">
        <ele>203.94</ele>
        <time>2023-09-02T08:45:43Z</time>
      </trkpt>
      <trkpt lat="56.205970030277967" lon="-4.38459500670433">
        <ele>204.41999999999999</ele>
        <time>2023-09-02T08:45:44Z</time>
      </trkpt>
      <trkpt lat="56.205919990316033" lon="-4.384793993085623">
        <ele>204.90000000000001</ele>
        <time>2023-09-02T08:45:45Z</time>
      </trkpt>
      <trkpt lat="56.20584798976779" lon="-4.384993985295296">
        <ele>205.38</ele>
        <time>2023-09-02T08:45:46Z</time>
      </trkpt>
      <trkpt lat="56.205764003098011" lon="-4.385200012475252">
        <ele>206.34</ele>
        <time>2023-09-02T08:45:47Z</time>
      </trkpt>
      <trkpt lat="56.205682028084993" lon="-4.385402016341686">
        <ele>206.81999999999999</ele>
        <time>2023-09-02T08:45:48Z</time>
      </trkpt>
      <trkpt lat="56.20563399977982" lon="-4.385617012158036">
        <ele>207.78</ele>
        <time>2023-09-02T08:45:49Z</time>
      </trkpt>
      <trkpt lat="56.205594018101692" lon="-4.385829996317625">
        <ele>208.25999999999999</ele>
        <time>2023-09-02T08:45:50Z</time>
      </trkpt>
      <trkpt lat="56.205517994239926" lon="-4.38622604124248">
        <ele>209.69999999999999</ele>
        <time>2023-09-02T08:45:52Z</time>
      </trkpt>
      <trkpt lat="56.20544197037816" lon="-4.386417986825109">
        <ele>210.66999999999999</ele>
        <time>2023-09-02T08:45:53Z</time>
      </trkpt>
      <trkpt lat="56.204695980995893" lon="-4.387536970898509">
        <ele>214.50999999999999</ele>
        <time>2023-09-02T08:45:59Z</time>
      </trkpt>
      <trkpt lat="56.203966001048684" lon="-4.389002965763211">
        <ele>219.80000000000001</ele>
        <time>2023-09-02T08:46:06Z</time>
      </trkpt>
      <trkpt lat="56.203847983852029" lon="-4.389120982959867">
        <ele>220.75999999999999</ele>
        <time>2023-09-02T08:46:07Z</time>
      </trkpt>
      <trkpt lat="56.203730972483754" lon="-4.389237994328141">
        <ele>221.72</ele>
        <time>2023-09-02T08:46:08Z</time>
      </trkpt>
      <trkpt lat="56.203608009964228" lon="-4.389345031231642">
        <ele>223.16</ele>
        <time>2023-09-02T08:46:09Z</time>
      </trkpt>
      <trkpt lat="56.203474989160895" lon="-4.38938501290977">
        <ele>224.12</ele>
        <time>2023-09-02T08:46:10Z</time>
      </trkpt>
      <trkpt lat="56.203345991671085" lon="-4.389423988759518">
        <ele>225.56999999999999</ele>
        <time>2023-09-02T08:46:11Z</time>
      </trkpt>
      <trkpt lat="56.203148011118174" lon="-4.389519961550832">
        <ele>227.97</ele>
        <time>2023-09-02T08:46:13Z</time>
      </trkpt>
      <trkpt lat="56.203089002519846" lon="-4.389601014554501">
        <ele>228.93000000000001</ele>
        <time>2023-09-02T08:46:14Z</time>
      </trkpt>
      <trkpt lat="56.203057989478111" lon="-4.389757001772523">
        <ele>229.88999999999999</ele>
        <time>2023-09-02T08:46:15Z</time>
      </trkpt>
      <trkpt lat="56.203021025285125" lon="-4.389942996203899">
        <ele>230.37</ele>
        <time>2023-09-02T08:46:16Z</time>
      </trkpt>
      <trkpt lat="56.202978026121855" lon="-4.390157992020249">
        <ele>231.33000000000001</ele>
        <time>2023-09-02T08:46:17Z</time>
      </trkpt>
      <trkpt lat="56.202931003645062" lon="-4.390391008928418">
        <ele>231.81</ele>
        <time>2023-09-02T08:46:18Z</time>
      </trkpt>
      <trkpt lat="56.202884986996651" lon="-4.390618996694684">
        <ele>232.30000000000001</ele>
        <time>2023-09-02T08:46:19Z</time>
      </trkpt>
      <trkpt lat="56.202806029468775" lon="-4.390818988904357">
        <ele>233.25999999999999</ele>
        <time>2023-09-02T08:46:20Z</time>
      </trkpt>
      <trkpt lat="56.202682983130217" lon="-4.390970030799508">
        <ele>233.74000000000001</ele>
        <time>2023-09-02T08:46:21Z</time>
      </trkpt>
      <trkpt lat="56.202551973983645" lon="-4.391130963340402">
        <ele>234.22</ele>
        <time>2023-09-02T08:46:22Z</time>
      </trkpt>
      <trkpt lat="56.202418031170964" lon="-4.391294997185469">
        <ele>234.22</ele>
        <time>2023-09-02T08:46:23Z</time>
      </trkpt>
      <trkpt lat="56.202276041731238" lon="-4.391444027423859">
        <ele>235.18000000000001</ele>
        <time>2023-09-02T08:46:24Z</time>
      </trkpt>
      <trkpt lat="56.202137991786003" lon="-4.39161904156208">
        <ele>235.18000000000001</ele>
        <time>2023-09-02T08:46:25Z</time>
      </trkpt>
      <trkpt lat="56.202005976811051" lon="-4.39181400462985">
        <ele>235.66</ele>
        <time>2023-09-02T08:46:26Z</time>
      </trkpt>
      <trkpt lat="56.201870022341609" lon="-4.392015002667904">
        <ele>236.13999999999999</ele>
        <time>2023-09-02T08:46:27Z</time>
      </trkpt>
      <trkpt lat="56.201600041240454" lon="-4.392385985702276">
        <ele>236.13999999999999</ele>
        <time>2023-09-02T08:46:29Z</time>
      </trkpt>
      <trkpt lat="56.20144497603178" lon="-4.392485981807113">
        <ele>236.13999999999999</ele>
        <time>2023-09-02T08:46:30Z</time>
      </trkpt>
      <trkpt lat="56.201287982985377" lon="-4.392585977911949">
        <ele>236.13999999999999</ele>
        <time>2023-09-02T08:46:31Z</time>
      </trkpt>
      <trkpt lat="56.200794037431479" lon="-4.392900969833136">
        <ele>235.66</ele>
        <time>2023-09-02T08:46:34Z</time>
      </trkpt>
      <trkpt lat="56.199883008375764" lon="-4.393483009189367">
        <ele>235.18000000000001</ele>
        <time>2023-09-02T08:46:40Z</time>
      </trkpt>
      <trkpt lat="56.199763985350728" lon="-4.393618041649461">
        <ele>235.18000000000001</ele>
        <time>2023-09-02T08:46:41Z</time>
      </trkpt>
      <trkpt lat="56.199647979810834" lon="-4.393770005553961">
        <ele>234.69999999999999</ele>
        <time>2023-09-02T08:46:42Z</time>
      </trkpt>
      <trkpt lat="56.199038028717041" lon="-4.394537033513188">
        <ele>231.81</ele>
        <time>2023-09-02T08:46:47Z</time>
      </trkpt>
      <trkpt lat="56.19888698682189" lon="-4.394629988819361">
        <ele>231.33000000000001</ele>
        <time>2023-09-02T08:46:48Z</time>
      </trkpt>
      <trkpt lat="56.198422964662313" lon="-4.394844984635711">
        <ele>229.41</ele>
        <time>2023-09-02T08:46:51Z</time>
      </trkpt>
      <trkpt lat="56.198124988004565" lon="-4.394947998225689">
        <ele>227.49000000000001</ele>
        <time>2023-09-02T08:46:53Z</time>
      </trkpt>
      <trkpt lat="56.197992973029613" lon="-4.395065009593964">
        <ele>226.53</ele>
        <time>2023-09-02T08:46:54Z</time>
      </trkpt>
      <trkpt lat="56.197859030216932" lon="-4.395184032619">
        <ele>225.56999999999999</ele>
        <time>2023-09-02T08:46:55Z</time>
      </trkpt>
      <trkpt lat="56.197591982781887" lon="-4.395420989021659">
        <ele>223.63999999999999</ele>
        <time>2023-09-02T08:46:57Z</time>
      </trkpt>
      <trkpt lat="56.197458039969206" lon="-4.395462982356548">
        <ele>222.19999999999999</ele>
        <time>2023-09-02T08:46:58Z</time>
      </trkpt>
      <trkpt lat="56.197313033044338" lon="-4.395499024540186">
        <ele>221.24000000000001</ele>
        <time>2023-09-02T08:46:59Z</time>
      </trkpt>
      <trkpt lat="56.197162996977568" lon="-4.395512016490102">
        <ele>220.28</ele>
        <time>2023-09-02T08:47:00Z</time>
      </trkpt>
      <trkpt lat="56.197015978395939" lon="-4.395500030368567">
        <ele>219.31999999999999</ele>
        <time>2023-09-02T08:47:01Z</time>
      </trkpt>
      <trkpt lat="56.196880023926497" lon="-4.39548896625638">
        <ele>217.88</ele>
        <time>2023-09-02T08:47:02Z</time>
      </trkpt>
      <trkpt lat="56.196762006729841" lon="-4.395478991791606">
        <ele>216.91</ele>
        <time>2023-09-02T08:47:03Z</time>
      </trkpt>
      <trkpt lat="56.196668967604637" lon="-4.395401040092111">
        <ele>215.94999999999999</ele>
        <time>2023-09-02T08:47:04Z</time>
      </trkpt>
      <trkpt lat="56.196585986763239" lon="-4.395285034552217">
        <ele>214.50999999999999</ele>
        <time>2023-09-02T08:47:05Z</time>
      </trkpt>
      <trkpt lat="56.196494037285447" lon="-4.395156037062407">
        <ele>213.55000000000001</ele>
        <time>2023-09-02T08:47:06Z</time>
      </trkpt>
      <trkpt lat="56.196149960160255" lon="-4.39467198215425">
        <ele>210.66999999999999</ele>
        <time>2023-09-02T08:47:09Z</time>
      </trkpt>
      <trkpt lat="56.196015011519194" lon="-4.394554970785976">
        <ele>209.69999999999999</ele>
        <time>2023-09-02T08:47:10Z</time>
      </trkpt>
      <trkpt lat="56.195881990715861" lon="-4.394443994387984">
        <ele>209.22</ele>
        <time>2023-09-02T08:47:11Z</time>
      </trkpt>
      <trkpt lat="56.195622989907861" lon="-4.394323965534568">
        <ele>207.30000000000001</ele>
        <time>2023-09-02T08:47:13Z</time>
      </trkpt>
      <trkpt lat="56.195522993803024" lon="-4.394208965823054">
        <ele>206.81999999999999</ele>
        <time>2023-09-02T08:47:14Z</time>
      </trkpt>
      <trkpt lat="56.1954499874264" lon="-4.39404702745378">
        <ele>206.34</ele>
        <time>2023-09-02T08:47:15Z</time>
      </trkpt>
      <trkpt lat="56.195283019915223" lon="-4.393742009997368">
        <ele>205.86000000000001</ele>
        <time>2023-09-02T08:47:17Z</time>
      </trkpt>
      <trkpt lat="56.19519199244678" lon="-4.393628016114235">
        <ele>205.86000000000001</ele>
        <time>2023-09-02T08:47:18Z</time>
      </trkpt>
      <trkpt lat="56.195090990513563" lon="-4.393600020557642">
        <ele>205.86000000000001</ele>
        <time>2023-09-02T08:47:19Z</time>
      </trkpt>
      <trkpt lat="56.194974984973669" lon="-4.393589040264487">
        <ele>206.34</ele>
        <time>2023-09-02T08:47:20Z</time>
      </trkpt>
      <trkpt lat="56.194854034110904" lon="-4.39357697032392">
        <ele>206.34</ele>
        <time>2023-09-02T08:47:21Z</time>
      </trkpt>
      <trkpt lat="56.194730987772346" lon="-4.393549980595708">
        <ele>205.86000000000001</ele>
        <time>2023-09-02T08:47:22Z</time>
      </trkpt>
      <trkpt lat="56.19463199749589" lon="-4.393450990319252">
        <ele>205.86000000000001</ele>
        <time>2023-09-02T08:47:23Z</time>
      </trkpt>
      <trkpt lat="56.19454599916935" lon="-4.393298020586371">
        <ele>205.38</ele>
        <time>2023-09-02T08:47:24Z</time>
      </trkpt>
      <trkpt lat="56.194463018327951" lon="-4.393106997013092">
        <ele>204.41999999999999</ele>
        <time>2023-09-02T08:47:25Z</time>
      </trkpt>
      <trkpt lat="56.194381965324283" lon="-4.392922008410096">
        <ele>203.94</ele>
        <time>2023-09-02T08:47:26Z</time>
      </trkpt>
      <trkpt lat="56.194262020289898" lon="-4.392756968736649">
        <ele>202.97999999999999</ele>
        <time>2023-09-02T08:47:27Z</time>
      </trkpt>
      <trkpt lat="56.19415900669992" lon="-4.392616990953684">
        <ele>202.00999999999999</ele>
        <time>2023-09-02T08:47:28Z</time>
      </trkpt>
      <trkpt lat="56.194081977009773" lon="-4.392418004572392">
        <ele>201.05000000000001</ele>
        <time>2023-09-02T08:47:29Z</time>
      </trkpt>
      <trkpt lat="56.194001007825136" lon="-4.392190016806126">
        <ele>200.09</ele>
        <time>2023-09-02T08:47:30Z</time>
      </trkpt>
      <trkpt lat="56.19329902343452" lon="-4.390353038907051">
        <ele>194.31999999999999</ele>
        <time>2023-09-02T08:47:37Z</time>
      </trkpt>
      <trkpt lat="56.193188969045877" lon="-4.390186993405223">
        <ele>193.84</ele>
        <time>2023-09-02T08:47:38Z</time>
      </trkpt>
      <trkpt lat="56.193056032061577" lon="-4.390067970380187">
        <ele>193.36000000000001</ele>
        <time>2023-09-02T08:47:39Z</time>
      </trkpt>
      <trkpt lat="56.192626962438226" lon="-4.389683995395899">
        <ele>192.40000000000001</ele>
        <time>2023-09-02T08:47:42Z</time>
      </trkpt>
      <trkpt lat="56.192457983270288" lon="-4.389626998454332">
        <ele>191.91999999999999</ele>
        <time>2023-09-02T08:47:43Z</time>
      </trkpt>
      <trkpt lat="56.192283974960446" lon="-4.389586010947824">
        <ele>190.96000000000001</ele>
        <time>2023-09-02T08:47:44Z</time>
      </trkpt>
      <trkpt lat="56.191767985001206" lon="-4.389414014294744">
        <ele>188.56</ele>
        <time>2023-09-02T08:47:47Z</time>
      </trkpt>
      <trkpt lat="56.191621972247958" lon="-4.38929901458323">
        <ele>188.08000000000001</ele>
        <time>2023-09-02T08:47:48Z</time>
      </trkpt>
      <trkpt lat="56.191489035263658" lon="-4.389117965474725">
        <ele>187.11000000000001</ele>
        <time>2023-09-02T08:47:49Z</time>
      </trkpt>
      <trkpt lat="56.190640032291412" lon="-4.387916000559926">
        <ele>184.22999999999999</ele>
        <time>2023-09-02T08:47:55Z</time>
      </trkpt>
      <trkpt lat="56.190536012873054" lon="-4.387684995308518">
        <ele>184.22999999999999</ele>
        <time>2023-09-02T08:47:56Z</time>
      </trkpt>
      <trkpt lat="56.189940981566906" lon="-4.38633400015533">
        <ele>182.78999999999999</ele>
        <time>2023-09-02T08:48:02Z</time>
      </trkpt>
      <trkpt lat="56.189854983240366" lon="-4.386203996837139">
        <ele>182.78999999999999</ele>
        <time>2023-09-02T08:48:03Z</time>
      </trkpt>
      <trkpt lat="56.189644010737538" lon="-4.385880036279559">
        <ele>181.83000000000001</ele>
        <time>2023-09-02T08:48:05Z</time>
      </trkpt>
      <trkpt lat="56.189315021038055" lon="-4.385376032441855">
        <ele>179.90000000000001</ele>
        <time>2023-09-02T08:48:08Z</time>
      </trkpt>
      <trkpt lat="56.189234973862767" lon="-4.385210992768407">
        <ele>179.41999999999999</ele>
        <time>2023-09-02T08:48:09Z</time>
      </trkpt>
      <trkpt lat="56.189178982749581" lon="-4.385005971416831">
        <ele>178.94</ele>
        <time>2023-09-02T08:48:10Z</time>
      </trkpt>
      <trkpt lat="56.189058031886816" lon="-4.384632976725698">
        <ele>176.53999999999999</ele>
        <time>2023-09-02T08:48:12Z</time>
      </trkpt>
      <trkpt lat="56.188987037166953" lon="-4.384503979235888">
        <ele>175.58000000000001</ele>
        <time>2023-09-02T08:48:13Z</time>
      </trkpt>
      <trkpt lat="56.18889600969851" lon="-4.384443964809179">
        <ele>174.62</ele>
        <time>2023-09-02T08:48:14Z</time>
      </trkpt>
      <trkpt lat="56.188787966966629" lon="-4.384434996172786">
        <ele>173.66</ele>
        <time>2023-09-02T08:48:15Z</time>
      </trkpt>
      <trkpt lat="56.18866098113358" lon="-4.384452011436224">
        <ele>172.69</ele>
        <time>2023-09-02T08:48:16Z</time>
      </trkpt>
      <trkpt lat="56.188521003350616" lon="-4.384461985900998">
        <ele>171.72999999999999</ele>
        <time>2023-09-02T08:48:17Z</time>
      </trkpt>
      <trkpt lat="56.188384965062141" lon="-4.384428039193153">
        <ele>170.28999999999999</ele>
        <time>2023-09-02T08:48:18Z</time>
      </trkpt>
      <trkpt lat="56.188254039734602" lon="-4.384395014494658">
        <ele>169.33000000000001</ele>
        <time>2023-09-02T08:48:19Z</time>
      </trkpt>
      <trkpt lat="56.188120013102889" lon="-4.384360983967781">
        <ele>168.37</ele>
        <time>2023-09-02T08:48:20Z</time>
      </trkpt>
      <trkpt lat="56.187984980642796" lon="-4.384346986189485">
        <ele>166.93000000000001</ele>
        <time>2023-09-02T08:48:21Z</time>
      </trkpt>
      <trkpt lat="56.187856988981366" lon="-4.384370958432555">
        <ele>165.96000000000001</ele>
        <time>2023-09-02T08:48:22Z</time>
      </trkpt>
      <trkpt lat="56.18773402646184" lon="-4.384393002837896">
        <ele>165</ele>
        <time>2023-09-02T08:48:23Z</time>
      </trkpt>
      <trkpt lat="56.187517018988729" lon="-4.384460980072618">
        <ele>162.59999999999999</ele>
        <time>2023-09-02T08:48:25Z</time>
      </trkpt>
      <trkpt lat="56.187420962378383" lon="-4.384545972570777">
        <ele>161.63999999999999</ele>
        <time>2023-09-02T08:48:26Z</time>
      </trkpt>
      <trkpt lat="56.187145030125976" lon="-4.38481000252068">
        <ele>158.27000000000001</ele>
        <time>2023-09-02T08:48:29Z</time>
      </trkpt>
      <trkpt lat="56.187060959637165" lon="-4.38491796143353">
        <ele>156.83000000000001</ele>
        <time>2023-09-02T08:48:30Z</time>
      </trkpt>
      <trkpt lat="56.186520997434855" lon="-4.386085979640484">
        <ele>148.18000000000001</ele>
        <time>2023-09-02T08:48:38Z</time>
      </trkpt>
      <trkpt lat="56.186054041609168" lon="-4.387104967609048">
        <ele>140.97</ele>
        <time>2023-09-02T08:48:45Z</time>
      </trkpt>
      <trkpt lat="56.185421040281653" lon="-4.387939972802997">
        <ele>132.31999999999999</ele>
        <time>2023-09-02T08:48:53Z</time>
      </trkpt>
      <trkpt lat="56.18535197339952" lon="-4.387974003329873">
        <ele>130.88</ele>
        <time>2023-09-02T08:48:54Z</time>
      </trkpt>
      <trkpt lat="56.185289025306702" lon="-4.387972997501493">
        <ele>129.91999999999999</ele>
        <time>2023-09-02T08:48:55Z</time>
      </trkpt>
      <trkpt lat="56.185218030586839" lon="-4.387948019430041">
        <ele>128.47</ele>
        <time>2023-09-02T08:48:56Z</time>
      </trkpt>
      <trkpt lat="56.185146030038595" lon="-4.38792203553021">
        <ele>127.51000000000001</ele>
        <time>2023-09-02T08:48:57Z</time>
      </trkpt>
      <trkpt lat="56.185072017833591" lon="-4.387895967811346">
        <ele>126.06999999999999</ele>
        <time>2023-09-02T08:48:58Z</time>
      </trkpt>
      <trkpt lat="56.185003034770489" lon="-4.387824973091483">
        <ele>125.11</ele>
        <time>2023-09-02T08:48:59Z</time>
      </trkpt>
      <trkpt lat="56.184954000636935" lon="-4.387713996693492">
        <ele>124.15000000000001</ele>
        <time>2023-09-02T08:49:00Z</time>
      </trkpt>
      <trkpt lat="56.184812011197209" lon="-4.387391963973641">
        <ele>121.26000000000001</ele>
        <time>2023-09-02T08:49:03Z</time>
      </trkpt>
      <trkpt lat="56.184774963185191" lon="-4.387341002002358">
        <ele>120.3</ele>
        <time>2023-09-02T08:49:04Z</time>
      </trkpt>
      <trkpt lat="56.184719977900386" lon="-4.387333961203694">
        <ele>119.34</ele>
        <time>2023-09-02T08:49:05Z</time>
      </trkpt>
      <trkpt lat="56.184655018150806" lon="-4.387325998395681">
        <ele>118.38</ele>
        <time>2023-09-02T08:49:06Z</time>
      </trkpt>
      <trkpt lat="56.184589974582195" lon="-4.387393975630403">
        <ele>117.42</ele>
        <time>2023-09-02T08:49:07Z</time>
      </trkpt>
      <trkpt lat="56.184541024267673" lon="-4.387517021968961">
        <ele>116.45999999999999</ele>
        <time>2023-09-02T08:49:08Z</time>
      </trkpt>
      <trkpt lat="56.184488972648978" lon="-4.387673009186983">
        <ele>115.5</ele>
        <time>2023-09-02T08:49:09Z</time>
      </trkpt>
      <trkpt lat="56.184477992355824" lon="-4.387834025546908">
        <ele>114.53</ele>
        <time>2023-09-02T08:49:10Z</time>
      </trkpt>
      <trkpt lat="56.18446902371943" lon="-4.387984983623028">
        <ele>113.56999999999999</ele>
        <time>2023-09-02T08:49:11Z</time>
      </trkpt>
      <trkpt lat="56.184458965435624" lon="-4.388128984719515">
        <ele>112.61</ele>
        <time>2023-09-02T08:49:12Z</time>
      </trkpt>
      <trkpt lat="56.184449996799231" lon="-4.388278014957905">
        <ele>111.65000000000001</ele>
        <time>2023-09-02T08:49:13Z</time>
      </trkpt>
      <trkpt lat="56.184441028162837" lon="-4.388423021882772">
        <ele>110.20999999999999</ele>
        <time>2023-09-02T08:49:14Z</time>
      </trkpt>
      <trkpt lat="56.184430969879031" lon="-4.38856702297926">
        <ele>109.25</ele>
        <time>2023-09-02T08:49:15Z</time>
      </trkpt>
      <trkpt lat="56.18440599180758" lon="-4.388691997155547">
        <ele>107.81</ele>
        <time>2023-09-02T08:49:16Z</time>
      </trkpt>
      <trkpt lat="56.184351006522775" lon="-4.388800961896777">
        <ele>106.36</ele>
        <time>2023-09-02T08:49:17Z</time>
      </trkpt>
      <trkpt lat="56.184294009581208" lon="-4.388915039598942">
        <ele>105.40000000000001</ele>
        <time>2023-09-02T08:49:18Z</time>
      </trkpt>
      <trkpt lat="56.184224020689726" lon="-4.389021992683411">
        <ele>104.44</ele>
        <time>2023-09-02T08:49:19Z</time>
      </trkpt>
      <trkpt lat="56.183625971898437" lon="-4.389548962935805">
        <ele>97.709999999999994</ele>
        <time>2023-09-02T08:49:24Z</time>
      </trkpt>
      <trkpt lat="56.183239985257387" lon="-4.389920029789209">
        <ele>93.870000000000005</ele>
        <time>2023-09-02T08:49:27Z</time>
      </trkpt>
      <trkpt lat="56.182924993336201" lon="-4.390281038358808">
        <ele>90.019999999999996</ele>
        <time>2023-09-02T08:49:30Z</time>
      </trkpt>
      <trkpt lat="56.182827008888125" lon="-4.390267040580511">
        <ele>89.060000000000002</ele>
        <time>2023-09-02T08:49:31Z</time>
      </trkpt>
      <trkpt lat="56.182757019996643" lon="-4.390235021710396">
        <ele>88.579999999999998</ele>
        <time>2023-09-02T08:49:32Z</time>
      </trkpt>
      <trkpt lat="56.18257898837328" lon="-4.390111975371838">
        <ele>86.659999999999997</ele>
        <time>2023-09-02T08:49:34Z</time>
      </trkpt>
      <trkpt lat="56.182167017832398" lon="-4.389766976237297">
        <ele>84.730000000000004</ele>
        <time>2023-09-02T08:49:38Z</time>
      </trkpt>
      <trkpt lat="56.18204397149384" lon="-4.389660023152828">
        <ele>83.769999999999996</ele>
        <time>2023-09-02T08:49:39Z</time>
      </trkpt>
      <trkpt lat="56.181996027007699" lon="-4.389517027884722">
        <ele>83.290000000000006</ele>
        <time>2023-09-02T08:49:40Z</time>
      </trkpt>
      <trkpt lat="56.181940035894513" lon="-4.389348970726132">
        <ele>82.810000000000002</ele>
        <time>2023-09-02T08:49:41Z</time>
      </trkpt>
      <trkpt lat="56.181881027296185" lon="-4.389171022921801">
        <ele>82.329999999999998</ele>
        <time>2023-09-02T08:49:42Z</time>
      </trkpt>
      <trkpt lat="56.181812966242433" lon="-4.389027021825314">
        <ele>81.849999999999994</ele>
        <time>2023-09-02T08:49:43Z</time>
      </trkpt>
      <trkpt lat="56.181745994836092" lon="-4.38889198936522">
        <ele>81.849999999999994</ele>
        <time>2023-09-02T08:49:44Z</time>
      </trkpt>
      <trkpt lat="56.181687992066145" lon="-4.388776989653707">
        <ele>81.370000000000005</ele>
        <time>2023-09-02T08:49:45Z</time>
      </trkpt>
      <trkpt lat="56.181648010388017" lon="-4.388625025749207">
        <ele>81.370000000000005</ele>
        <time>2023-09-02T08:49:46Z</time>
      </trkpt>
      <trkpt lat="56.18163401260972" lon="-4.388497034087777">
        <ele>80.890000000000001</ele>
        <time>2023-09-02T08:49:47Z</time>
      </trkpt>
      <trkpt lat="56.181614985689521" lon="-4.388329982757568">
        <ele>80.890000000000001</ele>
        <time>2023-09-02T08:49:48Z</time>
      </trkpt>
      <trkpt lat="56.181622026488185" lon="-4.388205008581281">
        <ele>80.890000000000001</ele>
        <time>2023-09-02T08:49:49Z</time>
      </trkpt>
      <trkpt lat="56.181628983467817" lon="-4.388068970292807">
        <ele>80.890000000000001</ele>
        <time>2023-09-02T08:49:50Z</time>
      </trkpt>
      <trkpt lat="56.181657984852791" lon="-4.387535965070128">
        <ele>80.409999999999997</ele>
        <time>2023-09-02T08:49:54Z</time>
      </trkpt>
      <trkpt lat="56.181627977639437" lon="-4.387406967580319">
        <ele>80.409999999999997</ele>
        <time>2023-09-02T08:49:55Z</time>
      </trkpt>
      <trkpt lat="56.181596964597702" lon="-4.387275958433747">
        <ele>79.450000000000003</ele>
        <time>2023-09-02T08:49:56Z</time>
      </trkpt>
      <trkpt lat="56.181571986526251" lon="-4.38717101700604">
        <ele>78.969999999999999</ele>
        <time>2023-09-02T08:49:57Z</time>
      </trkpt>
      <trkpt lat="56.181508032605052" lon="-4.387159030884504">
        <ele>78.480000000000004</ele>
        <time>2023-09-02T08:49:58Z</time>
      </trkpt>
      <trkpt lat="56.181447012349963" lon="-4.387163976207376">
        <ele>78</ele>
        <time>2023-09-02T08:49:59Z</time>
      </trkpt>
      <trkpt lat="56.181379035115242" lon="-4.387218039482832">
        <ele>77.040000000000006</ele>
        <time>2023-09-02T08:50:00Z</time>
      </trkpt>
      <trkpt lat="56.181339975446463" lon="-4.387302026152611">
        <ele>76.560000000000002</ele>
        <time>2023-09-02T08:50:01Z</time>
      </trkpt>
      <trkpt lat="56.181308040395379" lon="-4.387419037520886">
        <ele>75.599999999999994</ele>
        <time>2023-09-02T08:50:02Z</time>
      </trkpt>
      <trkpt lat="56.181278033182025" lon="-4.387530013918877">
        <ele>75.120000000000005</ele>
        <time>2023-09-02T08:50:03Z</time>
      </trkpt>
      <trkpt lat="56.181249031797051" lon="-4.387636967003346">
        <ele>74.159999999999997</ele>
        <time>2023-09-02T08:50:04Z</time>
      </trkpt>
      <trkpt lat="56.181169990450144" lon="-4.387929998338223">
        <ele>72.239999999999995</ele>
        <time>2023-09-02T08:50:07Z</time>
      </trkpt>
      <trkpt lat="56.181146018207073" lon="-4.388017002493143">
        <ele>71.269999999999996</ele>
        <time>2023-09-02T08:50:08Z</time>
      </trkpt>
      <trkpt lat="56.181101007387042" lon="-4.38805103302002">
        <ele>70.790000000000006</ele>
        <time>2023-09-02T08:50:09Z</time>
      </trkpt>
      <trkpt lat="56.181050967425108" lon="-4.388076011091471">
        <ele>70.310000000000002</ele>
        <time>2023-09-02T08:50:10Z</time>
      </trkpt>
      <trkpt lat="56.181014003232121" lon="-4.388093026354909">
        <ele>69.829999999999998</ele>
        <time>2023-09-02T08:50:11Z</time>
      </trkpt>
      <trkpt lat="56.180977961048484" lon="-4.388034017756581">
        <ele>69.829999999999998</ele>
        <time>2023-09-02T08:50:12Z</time>
      </trkpt>
      <trkpt lat="56.180944014340639" lon="-4.387954976409674">
        <ele>70.310000000000002</ele>
        <time>2023-09-02T08:50:13Z</time>
      </trkpt>
      <trkpt lat="56.180919036269188" lon="-4.387822039425373">
        <ele>70.310000000000002</ele>
        <time>2023-09-02T08:50:14Z</time>
      </trkpt>
      <trkpt lat="56.180891962721944" lon="-4.387672003358603">
        <ele>70.310000000000002</ele>
        <time>2023-09-02T08:50:15Z</time>
      </trkpt>
      <trkpt lat="56.180863967165351" lon="-4.387522973120213">
        <ele>69.829999999999998</ele>
        <time>2023-09-02T08:50:16Z</time>
      </trkpt>
      <trkpt lat="56.180844018235803" lon="-4.387372015044093">
        <ele>69.349999999999994</ele>
        <time>2023-09-02T08:50:17Z</time>
      </trkpt>
      <trkpt lat="56.180850975215435" lon="-4.387220973148942">
        <ele>68.870000000000005</ele>
        <time>2023-09-02T08:50:18Z</time>
      </trkpt>
      <trkpt lat="56.180858016014099" lon="-4.387075966224074">
        <ele>68.390000000000001</ele>
        <time>2023-09-02T08:50:19Z</time>
      </trkpt>
      <trkpt lat="56.180863967165351" lon="-4.386929031461477">
        <ele>67.909999999999997</ele>
        <time>2023-09-02T08:50:20Z</time>
      </trkpt>
      <trkpt lat="56.180877964943647" lon="-4.386624014005065">
        <ele>66.469999999999999</ele>
        <time>2023-09-02T08:50:22Z</time>
      </trkpt>
      <trkpt lat="56.180885005742311" lon="-4.38646299764514">
        <ele>65.989999999999995</ele>
        <time>2023-09-02T08:50:23Z</time>
      </trkpt>
      <trkpt lat="56.180858016014099" lon="-4.386316984891892">
        <ele>65.030000000000001</ele>
        <time>2023-09-02T08:50:24Z</time>
      </trkpt>
      <trkpt lat="56.180827002972364" lon="-4.386155968531966">
        <ele>64.549999999999997</ele>
        <time>2023-09-02T08:50:25Z</time>
      </trkpt>
      <trkpt lat="56.18079598993063" lon="-4.385992018505931">
        <ele>64.069999999999993</ele>
        <time>2023-09-02T08:50:26Z</time>
      </trkpt>
      <trkpt lat="56.180706974118948" lon="-4.385489020496607">
        <ele>62.140000000000001</ele>
        <time>2023-09-02T08:50:29Z</time>
      </trkpt>
      <trkpt lat="56.180612007156014" lon="-4.384517977014184">
        <ele>57.340000000000003</ele>
        <time>2023-09-02T08:50:36Z</time>
      </trkpt>
      <trkpt lat="56.180504970252514" lon="-4.383683977648616">
        <ele>52.530000000000001</ele>
        <time>2023-09-02T08:50:42Z</time>
      </trkpt>
      <trkpt lat="56.180448979139328" lon="-4.383367979899049">
        <ele>51.090000000000003</ele>
        <time>2023-09-02T08:50:44Z</time>
      </trkpt>
      <trkpt lat="56.180419977754354" lon="-4.383205035701394">
        <ele>50.130000000000003</ele>
        <time>2023-09-02T08:50:45Z</time>
      </trkpt>
      <trkpt lat="56.180389970541" lon="-4.383035972714424">
        <ele>49.159999999999997</ele>
        <time>2023-09-02T08:50:46Z</time>
      </trkpt>
      <trkpt lat="56.180350994691253" lon="-4.382875962182879">
        <ele>48.200000000000003</ele>
        <time>2023-09-02T08:50:47Z</time>
      </trkpt>
      <trkpt lat="56.180293997749686" lon="-4.382735984399915">
        <ele>47.240000000000002</ele>
        <time>2023-09-02T08:50:48Z</time>
      </trkpt>
      <trkpt lat="56.180235994979739" lon="-4.382592989131808">
        <ele>45.799999999999997</ele>
        <time>2023-09-02T08:50:49Z</time>
      </trkpt>
      <trkpt lat="56.180074978619814" lon="-4.382199039682746">
        <ele>42.439999999999998</ele>
        <time>2023-09-02T08:50:52Z</time>
      </trkpt>
      <trkpt lat="56.179795023053885" lon="-4.381627980619669">
        <ele>36.670000000000002</ele>
        <time>2023-09-02T08:50:58Z</time>
      </trkpt>
      <trkpt lat="56.179748000577092" lon="-4.381549023091793">
        <ele>35.710000000000001</ele>
        <time>2023-09-02T08:50:59Z</time>
      </trkpt>
      <trkpt lat="56.179683040827513" lon="-4.381517004221678">
        <ele>34.259999999999998</ele>
        <time>2023-09-02T08:51:00Z</time>
      </trkpt>
      <trkpt lat="56.179621014744043" lon="-4.381485991179943">
        <ele>33.299999999999997</ele>
        <time>2023-09-02T08:51:01Z</time>
      </trkpt>
      <trkpt lat="56.179577009752393" lon="-4.381464030593634">
        <ele>32.82</ele>
        <time>2023-09-02T08:51:02Z</time>
      </trkpt>
      <trkpt lat="56.179501991719007" lon="-4.381495965644717">
        <ele>31.379999999999999</ele>
        <time>2023-09-02T08:51:03Z</time>
      </trkpt>
      <trkpt lat="56.179450023919344" lon="-4.381518010050058">
        <ele>30.420000000000002</ele>
        <time>2023-09-02T08:51:04Z</time>
      </trkpt>
      <trkpt lat="56.179425967857242" lon="-4.381527984514833">
        <ele>28.98</ele>
        <time>2023-09-02T08:51:05Z</time>
      </trkpt>
      <trkpt lat="56.179403001442552" lon="-4.38156696036458">
        <ele>28.02</ele>
        <time>2023-09-02T08:51:06Z</time>
      </trkpt>
      <trkpt lat="56.1793780233711" lon="-4.381609037518501">
        <ele>26.57</ele>
        <time>2023-09-02T08:51:07Z</time>
      </trkpt>
      <trkpt lat="56.179352961480618" lon="-4.38165002502501">
        <ele>25.129999999999999</ele>
        <time>2023-09-02T08:51:08Z</time>
      </trkpt>
      <trkpt lat="56.179245002567768" lon="-4.381829984486103">
        <ele>19.84</ele>
        <time>2023-09-02T08:51:12Z</time>
      </trkpt>
      <trkpt lat="56.17922798730433" lon="-4.381953030824661">
        <ele>17.440000000000001</ele>
        <time>2023-09-02T08:51:14Z</time>
      </trkpt>
      <trkpt lat="56.179222958162427" lon="-4.382039029151201">
        <ele>16.48</ele>
        <time>2023-09-02T08:51:15Z</time>
      </trkpt>
      <trkpt lat="56.179217007011175" lon="-4.382133996114135">
        <ele>15.039999999999999</ele>
        <time>2023-09-02T08:51:16Z</time>
      </trkpt>
      <trkpt lat="56.179161015897989" lon="-4.383565960451961">
        <ele>3.5</ele>
        <time>2023-09-02T08:51:28Z</time>
      </trkpt>
      <trkpt lat="56.179157998412848" lon="-4.383685989305377">
        <ele>2.54</ele>
        <time>2023-09-02T08:51:29Z</time>
      </trkpt>
      <trkpt lat="56.179153975099325" lon="-4.383801994845271">
        <ele>2.06</ele>
        <time>2023-09-02T08:51:30Z</time>
      </trkpt>
      <trkpt lat="56.179126985371113" lon="-4.384122015908361">
        <ele>-0.34</ele>
        <time>2023-09-02T08:51:33Z</time>
      </trkpt>
      <trkpt lat="56.179109970107675" lon="-4.384212959557772">
        <ele>-1.3</ele>
        <time>2023-09-02T08:51:34Z</time>
      </trkpt>
      <trkpt lat="56.179074011743069" lon="-4.384402977302671">
        <ele>-2.75</ele>
        <time>2023-09-02T08:51:36Z</time>
      </trkpt>
      <trkpt lat="56.179025983437896" lon="-4.384499033913016">
        <ele>-3.71</ele>
        <time>2023-09-02T08:51:37Z</time>
      </trkpt>
      <trkpt lat="56.178978038951755" lon="-4.384542033076286">
        <ele>-4.19</ele>
        <time>2023-09-02T08:51:38Z</time>
      </trkpt>
      <trkpt lat="56.178933028131723" lon="-4.384582014754415">
        <ele>-5.15</ele>
        <time>2023-09-02T08:51:39Z</time>
      </trkpt>
      <trkpt lat="56.178895980119705" lon="-4.38461403362453">
        <ele>-5.63</ele>
        <time>2023-09-02T08:51:40Z</time>
      </trkpt>
      <trkpt lat="56.17886102758348" lon="-4.384640017524362">
        <ele>-6.11</ele>
        <time>2023-09-02T08:51:41Z</time>
      </trkpt>
      <trkpt lat="56.178837977349758" lon="-4.384644040837884">
        <ele>-7.07</ele>
        <time>2023-09-02T08:51:42Z</time>
      </trkpt>
      <trkpt lat="56.178679978474975" lon="-4.384625013917685">
        <ele>-9.960000000000001</ele>
        <time>2023-09-02T08:51:52Z</time>
      </trkpt>
      <trkpt lat="56.178630022332072" lon="-4.384566005319357">
        <ele>-8.51</ele>
        <time>2023-09-02T08:51:53Z</time>
      </trkpt>
      <trkpt lat="56.178624993190169" lon="-4.384490987285972">
        <ele>-7.55</ele>
        <time>2023-09-02T08:51:54Z</time>
      </trkpt>
      <trkpt lat="56.178529020398855" lon="-4.383123982697725">
        <ele>1.58</ele>
        <time>2023-09-02T08:52:05Z</time>
      </trkpt>
      <trkpt lat="56.178513010963798" lon="-4.382862970232964">
        <ele>3.02</ele>
        <time>2023-09-02T08:52:07Z</time>
      </trkpt>
      <trkpt lat="56.178504964336753" lon="-4.382722992449999">
        <ele>3.02</ele>
        <time>2023-09-02T08:52:08Z</time>
      </trkpt>
      <trkpt lat="56.178463976830244" lon="-4.381814980879426">
        <ele>6.39</ele>
        <time>2023-09-02T08:52:15Z</time>
      </trkpt>
      <trkpt lat="56.178459031507373" lon="-4.381723031401634">
        <ele>6.39</ele>
        <time>2023-09-02T08:52:16Z</time>
      </trkpt>
      <trkpt lat="56.178452996537089" lon="-4.381634015589953">
        <ele>6.87</ele>
        <time>2023-09-02T08:52:17Z</time>
      </trkpt>
      <trkpt lat="56.178445033729076" lon="-4.381527984514833">
        <ele>7.35</ele>
        <time>2023-09-02T08:52:18Z</time>
      </trkpt>
      <trkpt lat="56.178435981273651" lon="-4.381408039480448">
        <ele>7.35</ele>
        <time>2023-09-02T08:52:19Z</time>
      </trkpt>
      <trkpt lat="56.178426006808877" lon="-4.381276024505496">
        <ele>7.35</ele>
        <time>2023-09-02T08:52:20Z</time>
      </trkpt>
      <trkpt lat="56.178416032344103" lon="-4.381128000095487">
        <ele>7.35</ele>
        <time>2023-09-02T08:52:21Z</time>
      </trkpt>
      <trkpt lat="56.178318969905376" lon="-4.379806006327272">
        <ele>11.19</ele>
        <time>2023-09-02T08:52:30Z</time>
      </trkpt>
      <trkpt lat="56.178263984620571" lon="-4.379242993891239">
        <ele>13.6</ele>
        <time>2023-09-02T08:52:34Z</time>
      </trkpt>
      <trkpt lat="56.178245963528752" lon="-4.379060016945005">
        <ele>14.56</ele>
        <time>2023-09-02T08:52:35Z</time>
      </trkpt>
      <trkpt lat="56.178178992122412" lon="-4.378849966451526">
        <ele>16</ele>
        <time>2023-09-02T08:52:37Z</time>
      </trkpt>
      <trkpt lat="56.178144039586186" lon="-4.378739995881915">
        <ele>16.960000000000001</ele>
        <time>2023-09-02T08:52:38Z</time>
      </trkpt>
      <trkpt lat="56.178060974925756" lon="-4.378540003672242">
        <ele>17.920000000000002</ele>
        <time>2023-09-02T08:52:40Z</time>
      </trkpt>
      <trkpt lat="56.177957961335778" lon="-4.378400025889278">
        <ele>19.359999999999999</ele>
        <time>2023-09-02T08:52:42Z</time>
      </trkpt>
      <trkpt lat="56.177267963066697" lon="-4.377706004306674">
        <ele>24.170000000000002</ele>
        <time>2023-09-02T08:52:52Z</time>
      </trkpt>
      <trkpt lat="56.177201997488737" lon="-4.377643978223205">
        <ele>24.170000000000002</ele>
        <time>2023-09-02T08:52:53Z</time>
      </trkpt>
      <trkpt lat="56.177133014425635" lon="-4.377579018473625">
        <ele>24.649999999999999</ele>
        <time>2023-09-02T08:52:54Z</time>
      </trkpt>
      <trkpt lat="56.177059002220631" lon="-4.377499977126718">
        <ele>25.129999999999999</ele>
        <time>2023-09-02T08:52:55Z</time>
      </trkpt>
      <trkpt lat="56.176887005567551" lon="-4.377118013799191">
        <ele>25.609999999999999</ele>
        <time>2023-09-02T08:52:58Z</time>
      </trkpt>
      <trkpt lat="56.176830008625984" lon="-4.376991027966142">
        <ele>25.609999999999999</ele>
        <time>2023-09-02T08:52:59Z</time>
      </trkpt>
      <trkpt lat="56.176773011684418" lon="-4.376863958314061">
        <ele>26.09</ele>
        <time>2023-09-02T08:53:00Z</time>
      </trkpt>
      <trkpt lat="56.176709979772568" lon="-4.376724986359477">
        <ele>26.57</ele>
        <time>2023-09-02T08:53:01Z</time>
      </trkpt>
      <trkpt lat="56.176639990881085" lon="-4.376568999141455">
        <ele>27.050000000000001</ele>
        <time>2023-09-02T08:53:02Z</time>
      </trkpt>
      <trkpt lat="56.176567990332842" lon="-4.37640898860991">
        <ele>27.530000000000001</ele>
        <time>2023-09-02T08:53:03Z</time>
      </trkpt>
      <trkpt lat="56.176487021148205" lon="-4.376228023320437">
        <ele>27.530000000000001</ele>
        <time>2023-09-02T08:53:04Z</time>
      </trkpt>
      <trkpt lat="56.176401022821665" lon="-4.376056026667357">
        <ele>28.02</ele>
        <time>2023-09-02T08:53:05Z</time>
      </trkpt>
      <trkpt lat="56.175439031794667" lon="-4.374607969075441">
        <ele>29.460000000000001</ele>
        <time>2023-09-02T08:53:14Z</time>
      </trkpt>
      <trkpt lat="56.1744340416044" lon="-4.373053964227438">
        <ele>32.82</ele>
        <time>2023-09-02T08:53:22Z</time>
      </trkpt>
      <trkpt lat="56.174103040248156" lon="-4.372481983155012">
        <ele>34.259999999999998</ele>
        <time>2023-09-02T08:53:25Z</time>
      </trkpt>
      <trkpt lat="56.17400798946619" lon="-4.372250977903605">
        <ele>34.740000000000002</ele>
        <time>2023-09-02T08:53:26Z</time>
      </trkpt>
      <trkpt lat="56.173221012577415" lon="-4.369861967861652">
        <ele>33.299999999999997</ele>
        <time>2023-09-02T08:53:35Z</time>
      </trkpt>
      <trkpt lat="56.172537971287966" lon="-4.367694994434714">
        <ele>32.82</ele>
        <time>2023-09-02T08:53:45Z</time>
      </trkpt>
      <trkpt lat="56.172315012663603" lon="-4.366856971755624">
        <ele>31.859999999999999</ele>
        <time>2023-09-02T08:53:49Z</time>
      </trkpt>
      <trkpt lat="56.172246029600501" lon="-4.366472996771336">
        <ele>31.859999999999999</ele>
        <time>2023-09-02T08:53:51Z</time>
      </trkpt>
      <trkpt lat="56.172216022387147" lon="-4.366301000118256">
        <ele>31.379999999999999</ele>
        <time>2023-09-02T08:53:52Z</time>
      </trkpt>
      <trkpt lat="56.172204036265612" lon="-4.366111988201737">
        <ele>30.899999999999999</ele>
        <time>2023-09-02T08:53:53Z</time>
      </trkpt>
      <trkpt lat="56.172239994630218" lon="-4.365937979891896">
        <ele>30.899999999999999</ele>
        <time>2023-09-02T08:53:54Z</time>
      </trkpt>
      <trkpt lat="56.172283999621868" lon="-4.365789033472538">
        <ele>30.899999999999999</ele>
        <time>2023-09-02T08:53:55Z</time>
      </trkpt>
      <trkpt lat="56.172818010672927" lon="-4.364013997837901">
        <ele>31.859999999999999</ele>
        <time>2023-09-02T08:54:04Z</time>
      </trkpt>
      <trkpt lat="56.173594007268548" lon="-4.361532032489777">
        <ele>34.740000000000002</ele>
        <time>2023-09-02T08:54:14Z</time>
      </trkpt>
      <trkpt lat="56.174577958881855" lon="-4.358328972011805">
        <ele>38.590000000000003</ele>
        <time>2023-09-02T08:54:26Z</time>
      </trkpt>
      <trkpt lat="56.175096966326237" lon="-4.355913978070021">
        <ele>40.030000000000001</ele>
        <time>2023-09-02T08:54:34Z</time>
      </trkpt>
      <trkpt lat="56.17551002651453" lon="-4.354313034564257">
        <ele>43.399999999999999</ele>
        <time>2023-09-02T08:54:40Z</time>
      </trkpt>
      <trkpt lat="56.175543973222375" lon="-4.35402000322938">
        <ele>44.359999999999999</ele>
        <time>2023-09-02T08:54:41Z</time>
      </trkpt>
      <trkpt lat="56.175564005970955" lon="-4.353732001036406">
        <ele>44.840000000000003</ele>
        <time>2023-09-02T08:54:42Z</time>
      </trkpt>
      <trkpt lat="56.175564005970955" lon="-4.353439975529909">
        <ele>45.32</ele>
        <time>2023-09-02T08:54:43Z</time>
      </trkpt>
      <trkpt lat="56.175567023456097" lon="-4.353141998872161">
        <ele>46.280000000000001</ele>
        <time>2023-09-02T08:54:44Z</time>
      </trkpt>
      <trkpt lat="56.175517989322543" lon="-4.350291984155774">
        <ele>48.200000000000003</ele>
        <time>2023-09-02T08:54:53Z</time>
      </trkpt>
      <trkpt lat="56.175330989062786" lon="-4.347813036292791">
        <ele>53.490000000000002</ele>
        <time>2023-09-02T08:55:01Z</time>
      </trkpt>
      <trkpt lat="56.174938967451453" lon="-4.344570999965072">
        <ele>58.780000000000001</ele>
        <time>2023-09-02T08:55:11Z</time>
      </trkpt>
      <trkpt lat="56.17452397942543" lon="-4.341035010293126">
        <ele>62.140000000000001</ele>
        <time>2023-09-02T08:55:22Z</time>
      </trkpt>
      <trkpt lat="56.174433035776019" lon="-4.337597005069256">
        <ele>60.219999999999999</ele>
        <time>2023-09-02T08:55:32Z</time>
      </trkpt>
      <trkpt lat="56.174779962748289" lon="-4.333982979878783">
        <ele>58.299999999999997</ele>
        <time>2023-09-02T08:55:43Z</time>
      </trkpt>
      <trkpt lat="56.175343981012702" lon="-4.331536972895265">
        <ele>58.299999999999997</ele>
        <time>2023-09-02T08:55:51Z</time>
      </trkpt>
      <trkpt lat="56.175988968461752" lon="-4.329517018049955">
        <ele>58.780000000000001</ele>
        <time>2023-09-02T08:55:58Z</time>
      </trkpt>
      <trkpt lat="56.177194034680724" lon="-4.325592024251819">
        <ele>59.259999999999998</ele>
        <time>2023-09-02T08:56:11Z</time>
      </trkpt>
      <trkpt lat="56.177767021581531" lon="-4.3230389803648">
        <ele>57.340000000000003</ele>
        <time>2023-09-02T08:56:19Z</time>
      </trkpt>
      <trkpt lat="56.177882021293044" lon="-4.322477979585528">
        <ele>56.859999999999999</ele>
        <time>2023-09-02T08:56:21Z</time>
      </trkpt>
      <trkpt lat="56.178004983812571" lon="-4.321727966889739">
        <ele>55.409999999999997</ele>
        <time>2023-09-02T08:56:24Z</time>
      </trkpt>
      <trkpt lat="56.178020993247628" lon="-4.321501990780234">
        <ele>54.93</ele>
        <time>2023-09-02T08:56:25Z</time>
      </trkpt>
      <trkpt lat="56.178021999076009" lon="-4.321268973872066">
        <ele>54.93</ele>
        <time>2023-09-02T08:56:26Z</time>
      </trkpt>
      <trkpt lat="56.177943041548133" lon="-4.319003010168672">
        <ele>52.049999999999997</ele>
        <time>2023-09-02T08:56:34Z</time>
      </trkpt>
      <trkpt lat="56.177988974377513" lon="-4.316576030105352">
        <ele>47.719999999999999</ele>
        <time>2023-09-02T08:56:42Z</time>
      </trkpt>
      <trkpt lat="56.178097017109394" lon="-4.314608965069056">
        <ele>40.990000000000002</ele>
        <time>2023-09-02T08:56:49Z</time>
      </trkpt>
      <trkpt lat="56.178139010444283" lon="-4.314344013109803">
        <ele>40.030000000000001</ele>
        <time>2023-09-02T08:56:50Z</time>
      </trkpt>
      <trkpt lat="56.178214028477669" lon="-4.314059028401971">
        <ele>39.549999999999997</ele>
        <time>2023-09-02T08:56:51Z</time>
      </trkpt>
      <trkpt lat="56.178935039788485" lon="-4.311315966770053">
        <ele>30.899999999999999</ele>
        <time>2023-09-02T08:57:00Z</time>
      </trkpt>
      <trkpt lat="56.179407024756074" lon="-4.309784006327391">
        <ele>27.050000000000001</ele>
        <time>2023-09-02T08:57:05Z</time>
      </trkpt>
      <trkpt lat="56.179499980062246" lon="-4.309491980820894">
        <ele>25.609999999999999</ele>
        <time>2023-09-02T08:57:06Z</time>
      </trkpt>
      <trkpt lat="56.180488038808107" lon="-4.306919993832707">
        <ele>18.879999999999999</ele>
        <time>2023-09-02T08:57:15Z</time>
      </trkpt>
      <trkpt lat="56.181352967396379" lon="-4.304684037342668">
        <ele>16.960000000000001</ele>
        <time>2023-09-02T08:57:23Z</time>
      </trkpt>
      <trkpt lat="56.182229965925217" lon="-4.302095035091043">
        <ele>17.440000000000001</ele>
        <time>2023-09-02T08:57:32Z</time>
      </trkpt>
      <trkpt lat="56.182775963097811" lon="-4.29949396289885">
        <ele>19.84</ele>
        <time>2023-09-02T08:57:40Z</time>
      </trkpt>
      <trkpt lat="56.183577021583915" lon="-4.296824997290969">
        <ele>22.25</ele>
        <time>2023-09-02T08:57:49Z</time>
      </trkpt>
      <trkpt lat="56.18421102873981" lon="-4.294244963675737">
        <ele>29.460000000000001</ele>
        <time>2023-09-02T08:57:58Z</time>
      </trkpt>
      <trkpt lat="56.184451002627611" lon="-4.292206987738609">
        <ele>31.379999999999999</ele>
        <time>2023-09-02T08:58:05Z</time>
      </trkpt>
      <trkpt lat="56.184716960415244" lon="-4.288544012233615">
        <ele>29.940000000000001</ele>
        <time>2023-09-02T08:58:17Z</time>
      </trkpt>
      <trkpt lat="56.184760965406895" lon="-4.287317991256714">
        <ele>31.859999999999999</ele>
        <time>2023-09-02T08:58:23Z</time>
      </trkpt>
      <trkpt lat="56.184767000377178" lon="-4.28713995963335">
        <ele>32.340000000000003</ele>
        <time>2023-09-02T08:58:24Z</time>
      </trkpt>
      <trkpt lat="56.184829026460648" lon="-4.285044986754656">
        <ele>35.710000000000001</ele>
        <time>2023-09-02T08:58:35Z</time>
      </trkpt>
      <trkpt lat="56.184969004243612" lon="-4.282596968114376">
        <ele>33.780000000000001</ele>
        <time>2023-09-02T08:58:47Z</time>
      </trkpt>
      <trkpt lat="56.185063971206546" lon="-4.28148795850575">
        <ele>32.340000000000003</ele>
        <time>2023-09-02T08:58:52Z</time>
      </trkpt>
      <trkpt lat="56.185363037511706" lon="-4.279005993157625">
        <ele>30.420000000000002</ele>
        <time>2023-09-02T08:59:03Z</time>
      </trkpt>
      <trkpt lat="56.185441995039582" lon="-4.276556968688965">
        <ele>29.940000000000001</ele>
        <time>2023-09-02T08:59:12Z</time>
      </trkpt>
      <trkpt lat="56.185521958395839" lon="-4.275123998522759">
        <ele>29.460000000000001</ele>
        <time>2023-09-02T08:59:17Z</time>
      </trkpt>
      <trkpt lat="56.185534028336406" lon="-4.274835996329784">
        <ele>28.98</ele>
        <time>2023-09-02T08:59:18Z</time>
      </trkpt>
      <trkpt lat="56.185635030269623" lon="-4.271377958357334">
        <ele>27.050000000000001</ele>
        <time>2023-09-02T08:59:30Z</time>
      </trkpt>
      <trkpt lat="56.185634024441242" lon="-4.26846700720489">
        <ele>32.82</ele>
        <time>2023-09-02T08:59:39Z</time>
      </trkpt>
      <trkpt lat="56.185645004734397" lon="-4.267830988392234">
        <ele>34.740000000000002</ele>
        <time>2023-09-02T08:59:41Z</time>
      </trkpt>
      <trkpt lat="56.185645004734397" lon="-4.26752102561295">
        <ele>35.710000000000001</ele>
        <time>2023-09-02T08:59:42Z</time>
      </trkpt>
      <trkpt lat="56.18560804054141" lon="-4.266606979072094">
        <ele>38.109999999999999</ele>
        <time>2023-09-02T08:59:45Z</time>
      </trkpt>
      <trkpt lat="56.185577027499676" lon="-4.265959979966283">
        <ele>39.549999999999997</ele>
        <time>2023-09-02T08:59:47Z</time>
      </trkpt>
      <trkpt lat="56.185344010591507" lon="-4.262996977195144">
        <ele>41.469999999999999</ele>
        <time>2023-09-02T08:59:56Z</time>
      </trkpt>
      <trkpt lat="56.185268992558122" lon="-4.262027023360133">
        <ele>41.469999999999999</ele>
        <time>2023-09-02T08:59:59Z</time>
      </trkpt>
      <trkpt lat="56.185292964801192" lon="-4.261704990640283">
        <ele>41.469999999999999</ele>
        <time>2023-09-02T09:00:00Z</time>
      </trkpt>
      <trkpt lat="56.185334036126733" lon="-4.261383963748813">
        <ele>41.469999999999999</ele>
        <time>2023-09-02T09:00:01Z</time>
      </trkpt>
      <trkpt lat="56.185811972245574" lon="-4.257635995745659">
        <ele>43.399999999999999</ele>
        <time>2023-09-02T09:00:12Z</time>
      </trkpt>
      <trkpt lat="56.186229977756739" lon="-4.254337968304753">
        <ele>41.950000000000003</ele>
        <time>2023-09-02T09:00:22Z</time>
      </trkpt>
      <trkpt lat="56.186543963849545" lon="-4.251722982153297">
        <ele>46.280000000000001</ele>
        <time>2023-09-02T09:00:31Z</time>
      </trkpt>
      <trkpt lat="56.186527032405138" lon="-4.25151402130723">
        <ele>47.240000000000002</ele>
        <time>2023-09-02T09:00:32Z</time>
      </trkpt>
      <trkpt lat="56.1865100171417" lon="-4.251312017440796">
        <ele>48.68</ele>
        <time>2023-09-02T09:00:33Z</time>
      </trkpt>
      <trkpt lat="56.186430975794792" lon="-4.251141026616097">
        <ele>49.649999999999999</ele>
        <time>2023-09-02T09:00:34Z</time>
      </trkpt>
      <trkpt lat="56.186339026317" lon="-4.250973975285888">
        <ele>50.609999999999999</ele>
        <time>2023-09-02T09:00:35Z</time>
      </trkpt>
      <trkpt lat="56.186245987191796" lon="-4.250801978632808">
        <ele>52.049999999999997</ele>
        <time>2023-09-02T09:00:36Z</time>
      </trkpt>
      <trkpt lat="56.186154959723353" lon="-4.250626964494586">
        <ele>53.009999999999998</ele>
        <time>2023-09-02T09:00:37Z</time>
      </trkpt>
      <trkpt lat="56.186065021902323" lon="-4.250452034175396">
        <ele>53.969999999999999</ele>
        <time>2023-09-02T09:00:38Z</time>
      </trkpt>
      <trkpt lat="56.185926971957088" lon="-4.250064035877585">
        <ele>55.409999999999997</ele>
        <time>2023-09-02T09:00:40Z</time>
      </trkpt>
      <trkpt lat="56.185495974496007" lon="-4.248042991384864">
        <ele>55.890000000000001</ele>
        <time>2023-09-02T09:00:47Z</time>
      </trkpt>
      <trkpt lat="56.184823997318745" lon="-4.244974041357637">
        <ele>56.369999999999997</ele>
        <time>2023-09-02T09:00:56Z</time>
      </trkpt>
      <trkpt lat="56.184245981276035" lon="-4.242441030219197">
        <ele>55.409999999999997</ele>
        <time>2023-09-02T09:01:04Z</time>
      </trkpt>
      <trkpt lat="56.183997038751841" lon="-4.241365967318416">
        <ele>56.369999999999997</ele>
        <time>2023-09-02T09:01:08Z</time>
      </trkpt>
      <trkpt lat="56.183881033211946" lon="-4.241156000643969">
        <ele>56.369999999999997</ele>
        <time>2023-09-02T09:01:09Z</time>
      </trkpt>
      <trkpt lat="56.183769972994924" lon="-4.240955002605915">
        <ele>56.369999999999997</ele>
        <time>2023-09-02T09:01:10Z</time>
      </trkpt>
      <trkpt lat="56.183050973340869" lon="-4.239636026322842">
        <ele>55.890000000000001</ele>
        <time>2023-09-02T09:01:17Z</time>
      </trkpt>
      <trkpt lat="56.182829020544887" lon="-4.239168986678124">
        <ele>53.969999999999999</ele>
        <time>2023-09-02T09:01:20Z</time>
      </trkpt>
      <trkpt lat="56.182803958654404" lon="-4.238975029438734">
        <ele>53.490000000000002</ele>
        <time>2023-09-02T09:01:21Z</time>
      </trkpt>
      <trkpt lat="56.182777974754572" lon="-4.238771013915539">
        <ele>53.490000000000002</ele>
        <time>2023-09-02T09:01:22Z</time>
      </trkpt>
      <trkpt lat="56.182617964223027" lon="-4.23744298517704">
        <ele>50.609999999999999</ele>
        <time>2023-09-02T09:01:28Z</time>
      </trkpt>
      <trkpt lat="56.182558033615351" lon="-4.236586019396782">
        <ele>48.68</ele>
        <time>2023-09-02T09:01:32Z</time>
      </trkpt>
      <trkpt lat="56.182586029171944" lon="-4.236393989995122">
        <ele>48.200000000000003</ele>
        <time>2023-09-02T09:01:33Z</time>
      </trkpt>
      <trkpt lat="56.18264302611351" lon="-4.235995011404157">
        <ele>47.240000000000002</ele>
        <time>2023-09-02T09:01:35Z</time>
      </trkpt>
      <trkpt lat="56.182670015841722" lon="-4.235789990052581">
        <ele>46.280000000000001</ele>
        <time>2023-09-02T09:01:36Z</time>
      </trkpt>
      <trkpt lat="56.182694993913174" lon="-4.235589997842908">
        <ele>45.799999999999997</ele>
        <time>2023-09-02T09:01:37Z</time>
      </trkpt>
      <trkpt lat="56.182718966156244" lon="-4.235409032553434">
        <ele>44.840000000000003</ele>
        <time>2023-09-02T09:01:38Z</time>
      </trkpt>
      <trkpt lat="56.182723995298147" lon="-4.235238963738084">
        <ele>44.359999999999999</ele>
        <time>2023-09-02T09:01:39Z</time>
      </trkpt>
      <trkpt lat="56.182660041376948" lon="-4.234902011230588">
        <ele>42.920000000000002</ele>
        <time>2023-09-02T09:01:41Z</time>
      </trkpt>
      <trkpt lat="56.182203982025385" lon="-4.233261002227664">
        <ele>38.590000000000003</ele>
        <time>2023-09-02T09:01:49Z</time>
      </trkpt>
      <trkpt lat="56.182051012292504" lon="-4.232532028108835">
        <ele>36.189999999999998</ele>
        <time>2023-09-02T09:01:52Z</time>
      </trkpt>
      <trkpt lat="56.18199996650219" lon="-4.232289036735892">
        <ele>35.229999999999997</ele>
        <time>2023-09-02T09:01:53Z</time>
      </trkpt>
      <trkpt lat="56.181486994028091" lon="-4.229830959811807">
        <ele>33.780000000000001</ele>
        <time>2023-09-02T09:02:03Z</time>
      </trkpt>
      <trkpt lat="56.181399989873171" lon="-4.229414965957403">
        <ele>33.780000000000001</ele>
        <time>2023-09-02T09:02:04Z</time>
      </trkpt>
      <trkpt lat="56.181339975446463" lon="-4.229116989299655">
        <ele>33.299999999999997</ele>
        <time>2023-09-02T09:02:06Z</time>
      </trkpt>
      <trkpt lat="56.18128901347518" lon="-4.22886704094708">
        <ele>33.299999999999997</ele>
        <time>2023-09-02T09:02:07Z</time>
      </trkpt>
      <trkpt lat="56.180980978533626" lon="-4.226863011717796">
        <ele>33.299999999999997</ele>
        <time>2023-09-02T09:02:14Z</time>
      </trkpt>
      <trkpt lat="56.180964969098568" lon="-4.226559000089765">
        <ele>33.299999999999997</ele>
        <time>2023-09-02T09:02:15Z</time>
      </trkpt>
      <trkpt lat="56.180948037654161" lon="-4.22624995931983">
        <ele>33.299999999999997</ele>
        <time>2023-09-02T09:02:16Z</time>
      </trkpt>
      <trkpt lat="56.180931022390723" lon="-4.225933039560914">
        <ele>33.780000000000001</ele>
        <time>2023-09-02T09:02:17Z</time>
      </trkpt>
      <trkpt lat="56.180872013792396" lon="-4.224982028827071">
        <ele>33.780000000000001</ele>
        <time>2023-09-02T09:02:20Z</time>
      </trkpt>
      <trkpt lat="56.180572025477886" lon="-4.2227269615978">
        <ele>33.299999999999997</ele>
        <time>2023-09-02T09:02:27Z</time>
      </trkpt>
      <trkpt lat="56.180434981361032" lon="-4.222054984420538">
        <ele>32.340000000000003</ele>
        <time>2023-09-02T09:02:30Z</time>
      </trkpt>
      <trkpt lat="56.180352000519633" lon="-4.221837976947427">
        <ele>32.340000000000003</ele>
        <time>2023-09-02T09:02:31Z</time>
      </trkpt>
      <trkpt lat="56.180274970829487" lon="-4.221636978909373">
        <ele>31.859999999999999</ele>
        <time>2023-09-02T09:02:32Z</time>
      </trkpt>
      <trkpt lat="56.179984034970403" lon="-4.220873974263668">
        <ele>31.859999999999999</ele>
        <time>2023-09-02T09:02:36Z</time>
      </trkpt>
      <trkpt lat="56.179964002221823" lon="-4.220675993710756">
        <ele>31.859999999999999</ele>
        <time>2023-09-02T09:02:37Z</time>
      </trkpt>
      <trkpt lat="56.179941035807133" lon="-4.220444988459349">
        <ele>31.859999999999999</ele>
        <time>2023-09-02T09:02:38Z</time>
      </trkpt>
      <trkpt lat="56.17995603941381" lon="-4.220298975706101">
        <ele>32.340000000000003</ele>
        <time>2023-09-02T09:02:39Z</time>
      </trkpt>
      <trkpt lat="56.1799790058285" lon="-4.220080962404609">
        <ele>31.859999999999999</ele>
        <time>2023-09-02T09:02:40Z</time>
      </trkpt>
      <trkpt lat="56.180061986669898" lon="-4.219623981043696">
        <ele>31.379999999999999</ele>
        <time>2023-09-02T09:02:42Z</time>
      </trkpt>
      <trkpt lat="56.180356023833156" lon="-4.218551013618708">
        <ele>28.5</ele>
        <time>2023-09-02T09:02:47Z</time>
      </trkpt>
      <trkpt lat="56.18038603104651" lon="-4.218338029459119">
        <ele>27.530000000000001</ele>
        <time>2023-09-02T09:02:48Z</time>
      </trkpt>
      <trkpt lat="56.180416038259864" lon="-4.218094032257795">
        <ele>27.050000000000001</ele>
        <time>2023-09-02T09:02:49Z</time>
      </trkpt>
      <trkpt lat="56.180427018553019" lon="-4.21784701757133">
        <ele>26.09</ele>
        <time>2023-09-02T09:02:50Z</time>
      </trkpt>
      <trkpt lat="56.18043196387589" lon="-4.217580975964665">
        <ele>25.129999999999999</ele>
        <time>2023-09-02T09:02:51Z</time>
      </trkpt>
      <trkpt lat="56.180422995239496" lon="-4.217319041490555">
        <ele>23.690000000000001</ele>
        <time>2023-09-02T09:02:52Z</time>
      </trkpt>
      <trkpt lat="56.18019400164485" lon="-4.21477697789669">
        <ele>21.77</ele>
        <time>2023-09-02T09:03:02Z</time>
      </trkpt>
      <trkpt lat="56.180186038836837" lon="-4.214520994573832">
        <ele>22.25</ele>
        <time>2023-09-02T09:03:03Z</time>
      </trkpt>
      <trkpt lat="56.180203976109624" lon="-4.214257970452309">
        <ele>22.73</ele>
        <time>2023-09-02T09:03:04Z</time>
      </trkpt>
      <trkpt lat="56.18034596554935" lon="-4.212252013385296">
        <ele>30.899999999999999</ele>
        <time>2023-09-02T09:03:12Z</time>
      </trkpt>
      <trkpt lat="56.180319981649518" lon="-4.211866026744247">
        <ele>32.82</ele>
        <time>2023-09-02T09:03:14Z</time>
      </trkpt>
      <trkpt lat="56.18025803938508" lon="-4.211145015433431">
        <ele>34.740000000000002</ele>
        <time>2023-09-02T09:03:17Z</time>
      </trkpt>
      <trkpt lat="56.180233983322978" lon="-4.21088601462543">
        <ele>35.229999999999997</ele>
        <time>2023-09-02T09:03:18Z</time>
      </trkpt>
      <trkpt lat="56.180211016908288" lon="-4.210637994110584">
        <ele>35.710000000000001</ele>
        <time>2023-09-02T09:03:19Z</time>
      </trkpt>
      <trkpt lat="56.180187966674566" lon="-4.210383016616106">
        <ele>35.710000000000001</ele>
        <time>2023-09-02T09:03:20Z</time>
      </trkpt>
      <trkpt lat="56.180162988603115" lon="-4.210114041343331">
        <ele>36.189999999999998</ele>
        <time>2023-09-02T09:03:21Z</time>
      </trkpt>
      <trkpt lat="56.180138010531664" lon="-4.209840958938003">
        <ele>36.670000000000002</ele>
        <time>2023-09-02T09:03:22Z</time>
      </trkpt>
      <trkpt lat="56.180114038288593" lon="-4.209530996158719">
        <ele>37.149999999999999</ele>
        <time>2023-09-02T09:03:23Z</time>
      </trkpt>
      <trkpt lat="56.180202970281243" lon="-4.206969989463687">
        <ele>40.030000000000001</ele>
        <time>2023-09-02T09:03:31Z</time>
      </trkpt>
      <trkpt lat="56.180190984159708" lon="-4.203134011477232">
        <ele>35.229999999999997</ele>
        <time>2023-09-02T09:03:42Z</time>
      </trkpt>
      <trkpt lat="56.180159971117973" lon="-4.202790018171072">
        <ele>34.259999999999998</ele>
        <time>2023-09-02T09:03:43Z</time>
      </trkpt>
      <trkpt lat="56.180057041347027" lon="-4.201355958357453">
        <ele>31.379999999999999</ele>
        <time>2023-09-02T09:03:47Z</time>
      </trkpt>
      <trkpt lat="56.179988980293274" lon="-4.199459971860051">
        <ele>28.98</ele>
        <time>2023-09-02T09:03:53Z</time>
      </trkpt>
      <trkpt lat="56.180018987506628" lon="-4.199178004637361">
        <ele>28.98</ele>
        <time>2023-09-02T09:03:54Z</time>
      </trkpt>
      <trkpt lat="56.180368009954691" lon="-4.1960209608078">
        <ele>26.57</ele>
        <time>2023-09-02T09:04:04Z</time>
      </trkpt>
      <trkpt lat="56.180665986612439" lon="-4.194249026477337">
        <ele>24.170000000000002</ele>
        <time>2023-09-02T09:04:10Z</time>
      </trkpt>
      <trkpt lat="56.180786015465856" lon="-4.193364987149835">
        <ele>24.649999999999999</ele>
        <time>2023-09-02T09:04:13Z</time>
      </trkpt>
      <trkpt lat="56.180798001587391" lon="-4.193057036027312">
        <ele>25.129999999999999</ele>
        <time>2023-09-02T09:04:14Z</time>
      </trkpt>
      <trkpt lat="56.180779980495572" lon="-4.192730979993939">
        <ele>25.129999999999999</ele>
        <time>2023-09-02T09:04:15Z</time>
      </trkpt>
      <trkpt lat="56.180611001327634" lon="-4.19081998988986">
        <ele>28.98</ele>
        <time>2023-09-02T09:04:21Z</time>
      </trkpt>
      <trkpt lat="56.180543024092913" lon="-4.190530981868506">
        <ele>29.940000000000001</ele>
        <time>2023-09-02T09:04:22Z</time>
      </trkpt>
      <trkpt lat="56.18047496303916" lon="-4.19023996219039">
        <ele>30.899999999999999</ele>
        <time>2023-09-02T09:04:23Z</time>
      </trkpt>
      <trkpt lat="56.180404974147677" lon="-4.189941985532641">
        <ele>31.859999999999999</ele>
        <time>2023-09-02T09:04:24Z</time>
      </trkpt>
      <trkpt lat="56.180335991084576" lon="-4.189647026360035">
        <ele>32.82</ele>
        <time>2023-09-02T09:04:25Z</time>
      </trkpt>
      <trkpt lat="56.180287040770054" lon="-4.189344020560384">
        <ele>33.780000000000001</ele>
        <time>2023-09-02T09:04:26Z</time>
      </trkpt>
      <trkpt lat="56.180240018293262" lon="-4.189039003103972">
        <ele>35.229999999999997</ele>
        <time>2023-09-02T09:04:27Z</time>
      </trkpt>
      <trkpt lat="56.179821006953716" lon="-4.185795038938522">
        <ele>40.030000000000001</ele>
        <time>2023-09-02T09:04:37Z</time>
      </trkpt>
      <trkpt lat="56.179809020832181" lon="-4.183155996724963">
        <ele>38.109999999999999</ele>
        <time>2023-09-02T09:04:45Z</time>
      </trkpt>
      <trkpt lat="56.179892001673579" lon="-4.182245973497629">
        <ele>37.630000000000003</ele>
        <time>2023-09-02T09:04:48Z</time>
      </trkpt>
      <trkpt lat="56.179929971694946" lon="-4.181933999061585">
        <ele>37.630000000000003</ele>
        <time>2023-09-02T09:04:49Z</time>
      </trkpt>
      <trkpt lat="56.179946986958385" lon="-4.181620012968779">
        <ele>37.630000000000003</ele>
        <time>2023-09-02T09:04:50Z</time>
      </trkpt>
      <trkpt lat="56.179955033585429" lon="-4.181294040754437">
        <ele>37.630000000000003</ele>
        <time>2023-09-02T09:04:51Z</time>
      </trkpt>
      <trkpt lat="56.179964002221823" lon="-4.18095801025629">
        <ele>37.630000000000003</ele>
        <time>2023-09-02T09:04:52Z</time>
      </trkpt>
      <trkpt lat="56.179911028593779" lon="-4.177736006677151">
        <ele>36.670000000000002</ele>
        <time>2023-09-02T09:05:02Z</time>
      </trkpt>
      <trkpt lat="56.179436026141047" lon="-4.175920989364386">
        <ele>35.229999999999997</ele>
        <time>2023-09-02T09:05:08Z</time>
      </trkpt>
      <trkpt lat="56.178721971809864" lon="-4.173289993777871">
        <ele>33.780000000000001</ele>
        <time>2023-09-02T09:05:17Z</time>
      </trkpt>
      <trkpt lat="56.177750006318092" lon="-4.168504010885954">
        <ele>38.590000000000003</ele>
        <time>2023-09-02T09:05:32Z</time>
      </trkpt>
      <trkpt lat="56.177709018811584" lon="-4.168189018964768">
        <ele>39.07</ele>
        <time>2023-09-02T09:05:33Z</time>
      </trkpt>
      <trkpt lat="56.177396038547158" lon="-4.165977034717798">
        <ele>42.439999999999998</ele>
        <time>2023-09-02T09:05:40Z</time>
      </trkpt>
      <trkpt lat="56.177297970280051" lon="-4.165695989504457">
        <ele>42.920000000000002</ele>
        <time>2023-09-02T09:05:41Z</time>
      </trkpt>
      <trkpt lat="56.17634897120297" lon="-4.162997016683221">
        <ele>45.799999999999997</ele>
        <time>2023-09-02T09:05:50Z</time>
      </trkpt>
      <trkpt lat="56.175504997372627" lon="-4.16091101244092">
        <ele>46.759999999999998</ele>
        <time>2023-09-02T09:05:58Z</time>
      </trkpt>
      <trkpt lat="56.175108030438423" lon="-4.159955978393555">
        <ele>47.719999999999999</ele>
        <time>2023-09-02T09:06:03Z</time>
      </trkpt>
      <trkpt lat="56.175050027668476" lon="-4.159724973142147">
        <ele>48.200000000000003</ele>
        <time>2023-09-02T09:06:04Z</time>
      </trkpt>
      <trkpt lat="56.1750159971416" lon="-4.159487010911107">
        <ele>49.159999999999997</ele>
        <time>2023-09-02T09:06:05Z</time>
      </trkpt>
      <trkpt lat="56.174994958564639" lon="-4.159222980961204">
        <ele>49.649999999999999</ele>
        <time>2023-09-02T09:06:06Z</time>
      </trkpt>
      <trkpt lat="56.17497299797833" lon="-4.158947970718145">
        <ele>50.130000000000003</ele>
        <time>2023-09-02T09:06:07Z</time>
      </trkpt>
      <trkpt lat="56.17475900799036" lon="-4.156411020085216">
        <ele>55.409999999999997</ele>
        <time>2023-09-02T09:06:17Z</time>
      </trkpt>
      <trkpt lat="56.174549041315913" lon="-4.154302971437573">
        <ele>53.969999999999999</ele>
        <time>2023-09-02T09:06:28Z</time>
      </trkpt>
      <trkpt lat="56.174488021060824" lon="-4.153998037800193">
        <ele>54.450000000000003</ele>
        <time>2023-09-02T09:06:30Z</time>
      </trkpt>
      <trkpt lat="56.17443798109889" lon="-4.153850013390183">
        <ele>54.93</ele>
        <time>2023-09-02T09:06:31Z</time>
      </trkpt>
      <trkpt lat="56.174367992207408" lon="-4.153728978708386">
        <ele>54.93</ele>
        <time>2023-09-02T09:06:32Z</time>
      </trkpt>
      <trkpt lat="56.174293980002403" lon="-4.153602998703718">
        <ele>55.409999999999997</ele>
        <time>2023-09-02T09:06:33Z</time>
      </trkpt>
      <trkpt lat="56.174212004989386" lon="-4.153480958193541">
        <ele>55.890000000000001</ele>
        <time>2023-09-02T09:06:34Z</time>
      </trkpt>
      <trkpt lat="56.174122989177704" lon="-4.153411975130439">
        <ele>56.369999999999997</ele>
        <time>2023-09-02T09:06:35Z</time>
      </trkpt>
      <trkpt lat="56.174045037478209" lon="-4.153351960703731">
        <ele>56.859999999999999</ele>
        <time>2023-09-02T09:06:36Z</time>
      </trkpt>
      <trkpt lat="56.173854013904929" lon="-4.15319899097085">
        <ele>58.299999999999997</ele>
        <time>2023-09-02T09:06:39Z</time>
      </trkpt>
      <trkpt lat="56.173743037506938" lon="-4.153106035664678">
        <ele>59.259999999999998</ele>
        <time>2023-09-02T09:06:41Z</time>
      </trkpt>
      <trkpt lat="56.173700960353017" lon="-4.153072005137801">
        <ele>59.740000000000002</ele>
        <time>2023-09-02T09:06:42Z</time>
      </trkpt>
      <trkpt lat="56.173675982281566" lon="-4.153035962954164">
        <ele>59.740000000000002</ele>
        <time>2023-09-02T09:06:43Z</time>
      </trkpt>
      <trkpt lat="56.173654021695256" lon="-4.15300402790308">
        <ele>59.740000000000002</ele>
        <time>2023-09-02T09:06:44Z</time>
      </trkpt>
      <trkpt lat="56.173613034188747" lon="-4.152977960184217">
        <ele>59.740000000000002</ele>
        <time>2023-09-02T09:06:45Z</time>
      </trkpt>
      <trkpt lat="56.173564000055194" lon="-4.152947030961514">
        <ele>60.219999999999999</ele>
        <time>2023-09-02T09:06:46Z</time>
      </trkpt>
      <trkpt lat="56.173501973971725" lon="-4.152907971292734">
        <ele>60.219999999999999</ele>
        <time>2023-09-02T09:06:47Z</time>
      </trkpt>
      <trkpt lat="56.172791020944715" lon="-4.152478985488415">
        <ele>56.859999999999999</ele>
        <time>2023-09-02T09:06:56Z</time>
      </trkpt>
      <trkpt lat="56.17215902544558" lon="-4.1522759757936">
        <ele>53.009999999999998</ele>
        <time>2023-09-02T09:07:03Z</time>
      </trkpt>
      <trkpt lat="56.172062968835235" lon="-4.152303971350193">
        <ele>53.009999999999998</ele>
        <time>2023-09-02T09:07:04Z</time>
      </trkpt>
      <trkpt lat="56.171970013529062" lon="-4.152331966906786">
        <ele>53.009999999999998</ele>
        <time>2023-09-02T09:07:05Z</time>
      </trkpt>
      <trkpt lat="56.171877980232239" lon="-4.15235904045403">
        <ele>53.009999999999998</ele>
        <time>2023-09-02T09:07:06Z</time>
      </trkpt>
      <trkpt lat="56.171811008825898" lon="-4.152457024902105">
        <ele>52.530000000000001</ele>
        <time>2023-09-02T09:07:07Z</time>
      </trkpt>
      <trkpt lat="56.171745965257287" lon="-4.152560038492084">
        <ele>52.049999999999997</ele>
        <time>2023-09-02T09:07:08Z</time>
      </trkpt>
      <trkpt lat="56.171698020771146" lon="-4.15268300101161">
        <ele>51.57</ele>
        <time>2023-09-02T09:07:09Z</time>
      </trkpt>
      <trkpt lat="56.171657033264637" lon="-4.152828007936478">
        <ele>51.57</ele>
        <time>2023-09-02T09:07:10Z</time>
      </trkpt>
      <trkpt lat="56.171553013846278" lon="-4.153107963502407">
        <ele>50.609999999999999</ele>
        <time>2023-09-02T09:07:12Z</time>
      </trkpt>
      <trkpt lat="56.171481013298035" lon="-4.153194967657328">
        <ele>49.649999999999999</ele>
        <time>2023-09-02T09:07:13Z</time>
      </trkpt>
      <trkpt lat="56.171397026628256" lon="-4.153254982084036">
        <ele>48.68</ele>
        <time>2023-09-02T09:07:14Z</time>
      </trkpt>
      <trkpt lat="56.171313039958477" lon="-4.153294041752815">
        <ele>47.719999999999999</ele>
        <time>2023-09-02T09:07:15Z</time>
      </trkpt>
      <trkpt lat="56.171206003054976" lon="-4.153321031481028">
        <ele>46.759999999999998</ele>
        <time>2023-09-02T09:07:16Z</time>
      </trkpt>
      <trkpt lat="56.170067992061377" lon="-4.153600987046957">
        <ele>35.710000000000001</ele>
        <time>2023-09-02T09:07:25Z</time>
      </trkpt>
      <trkpt lat="56.168831996619701" lon="-4.153895024210215">
        <ele>27.530000000000001</ele>
        <time>2023-09-02T09:07:33Z</time>
      </trkpt>
      <trkpt lat="56.167200962081552" lon="-4.154651993885636">
        <ele>23.210000000000001</ele>
        <time>2023-09-02T09:07:43Z</time>
      </trkpt>
      <trkpt lat="56.165493987500668" lon="-4.155937023460865">
        <ele>22.25</ele>
        <time>2023-09-02T09:07:56Z</time>
      </trkpt>
      <trkpt lat="56.163740996271372" lon="-4.157124990597367">
        <ele>21.77</ele>
        <time>2023-09-02T09:08:07Z</time>
      </trkpt>
      <trkpt lat="56.161956992000341" lon="-4.158413959667087">
        <ele>12.15</ele>
        <time>2023-09-02T09:08:19Z</time>
      </trkpt>
      <trkpt lat="56.159919016063213" lon="-4.160494012758136">
        <ele>11.67</ele>
        <time>2023-09-02T09:08:33Z</time>
      </trkpt>
      <trkpt lat="56.157592032104731" lon="-4.162892997264862">
        <ele>11.67</ele>
        <time>2023-09-02T09:08:48Z</time>
      </trkpt>
      <trkpt lat="56.156457038596272" lon="-4.164063027128577">
        <ele>11.67</ele>
        <time>2023-09-02T09:08:57Z</time>
      </trkpt>
      <trkpt lat="56.156377997249365" lon="-4.164127986878157">
        <ele>11.67</ele>
        <time>2023-09-02T09:08:58Z</time>
      </trkpt>
      <trkpt lat="56.156296022236347" lon="-4.164181966334581">
        <ele>11.67</ele>
        <time>2023-09-02T09:08:59Z</time>
      </trkpt>
      <trkpt lat="56.156198959797621" lon="-4.164182972162962">
        <ele>11.19</ele>
        <time>2023-09-02T09:09:00Z</time>
      </trkpt>
      <trkpt lat="56.156091000884771" lon="-4.164180038496852">
        <ele>11.19</ele>
        <time>2023-09-02T09:09:01Z</time>
      </trkpt>
      <trkpt lat="56.155978012830019" lon="-4.164138967171311">
        <ele>11.19</ele>
        <time>2023-09-02T09:09:02Z</time>
      </trkpt>
      <trkpt lat="56.155210984870791" lon="-4.163868986070156">
        <ele>11.19</ele>
        <time>2023-09-02T09:09:10Z</time>
      </trkpt>
      <trkpt lat="56.155101014301181" lon="-4.163830010220408">
        <ele>10.710000000000001</ele>
        <time>2023-09-02T09:09:13Z</time>
      </trkpt>
      <trkpt lat="56.15507997572422" lon="-4.163821963593364">
        <ele>10.710000000000001</ele>
        <time>2023-09-02T09:09:14Z</time>
      </trkpt>
      <trkpt lat="56.155066983774304" lon="-4.163818024098873">
        <ele>10.710000000000001</ele>
        <time>2023-09-02T09:09:15Z</time>
      </trkpt>
      <trkpt lat="56.15501300431788" lon="-4.164145002141595">
        <ele>10.23</ele>
        <time>2023-09-02T09:09:18Z</time>
      </trkpt>
      <trkpt lat="56.154918037354946" lon="-4.165660031139851">
        <ele>9.75</ele>
        <time>2023-09-02T09:09:30Z</time>
      </trkpt>
      <trkpt lat="56.154721984639764" lon="-4.168178960680962">
        <ele>7.83</ele>
        <time>2023-09-02T09:09:47Z</time>
      </trkpt>
      <trkpt lat="56.154534984380007" lon="-4.170350041240454">
        <ele>6.39</ele>
        <time>2023-09-02T09:10:02Z</time>
      </trkpt>
      <trkpt lat="56.154526015743613" lon="-4.170479038730264">
        <ele>6.39</ele>
        <time>2023-09-02T09:10:03Z</time>
      </trkpt>
      <trkpt lat="56.15473598241806" lon="-4.170985976234078">
        <ele>4.94</ele>
        <time>2023-09-02T09:10:11Z</time>
      </trkpt>
      <trkpt lat="56.154794991016388" lon="-4.171295017004013">
        <ele>5.42</ele>
        <time>2023-09-02T09:10:14Z</time>
      </trkpt>
      <trkpt lat="56.154787028208375" lon="-4.173026969656348">
        <ele>6.39</ele>
        <time>2023-09-02T09:10:26Z</time>
      </trkpt>
      <trkpt lat="56.154772024601698" lon="-4.173154961317778">
        <ele>6.39</ele>
        <time>2023-09-02T09:10:27Z</time>
      </trkpt>
      <trkpt lat="56.15460597909987" lon="-4.173510018736124">
        <ele>6.87</ele>
        <time>2023-09-02T09:10:31Z</time>
      </trkpt>
      <trkpt lat="56.154485028237104" lon="-4.173603979870677">
        <ele>6.87</ele>
        <time>2023-09-02T09:10:33Z</time>
      </trkpt>
      <trkpt lat="56.154246982187033" lon="-4.173990972340107">
        <ele>7.83</ele>
        <time>2023-09-02T09:10:38Z</time>
      </trkpt>
      <trkpt lat="56.154072973877192" lon="-4.174589021131396">
        <ele>8.789999999999999</ele>
        <time>2023-09-02T09:10:43Z</time>
      </trkpt>
      <trkpt lat="56.154029974713922" lon="-4.176006987690926">
        <ele>10.710000000000001</ele>
        <time>2023-09-02T09:10:53Z</time>
      </trkpt>
      <trkpt lat="56.153988987207413" lon="-4.176748031750321">
        <ele>10.23</ele>
        <time>2023-09-02T09:10:58Z</time>
      </trkpt>
      <trkpt lat="56.153900977224112" lon="-4.178159963339567">
        <ele>11.67</ele>
        <time>2023-09-02T09:11:10Z</time>
      </trkpt>
      <trkpt lat="56.153738033026457" lon="-4.178385017439723">
        <ele>13.119999999999999</ele>
        <time>2023-09-02T09:11:18Z</time>
      </trkpt>
      <trkpt lat="56.153608029708266" lon="-4.178469004109502">
        <ele>13.6</ele>
        <time>2023-09-02T09:11:32Z</time>
      </trkpt>
      <trkpt lat="56.153628984466195" lon="-4.178535975515842">
        <ele>21.77</ele>
        <time>2023-09-02T09:35:02Z</time>
      </trkpt>
      <trkpt lat="56.153601994737983" lon="-4.178520971909165">
        <ele>20.32</ele>
        <time>2023-09-02T09:35:44Z</time>
      </trkpt>
      <trkpt lat="56.153658991679549" lon="-4.178502028807998">
        <ele>21.289999999999999</ele>
        <time>2023-09-02T09:36:07Z</time>
      </trkpt>
      <trkpt lat="56.153669971972704" lon="-4.178459029644728">
        <ele>23.210000000000001</ele>
        <time>2023-09-02T09:36:37Z</time>
      </trkpt>
      <trkpt lat="56.153882034122944" lon="-4.178296001628041">
        <ele>24.170000000000002</ele>
        <time>2023-09-02T09:36:49Z</time>
      </trkpt>
      <trkpt lat="56.153935007750988" lon="-4.178062984719873">
        <ele>23.690000000000001</ele>
        <time>2023-09-02T09:37:00Z</time>
      </trkpt>
      <trkpt lat="56.15393802523613" lon="-4.178033983334899">
        <ele>23.210000000000001</ele>
        <time>2023-09-02T09:37:06Z</time>
      </trkpt>
      <trkpt lat="56.153983036056161" lon="-4.177368963137269">
        <ele>22.73</ele>
        <time>2023-09-02T09:37:15Z</time>
      </trkpt>
      <trkpt lat="56.154097029939294" lon="-4.175851000472903">
        <ele>21.289999999999999</ele>
        <time>2023-09-02T09:37:28Z</time>
      </trkpt>
      <trkpt lat="56.154099963605404" lon="-4.174851961433888">
        <ele>20.32</ele>
        <time>2023-09-02T09:37:37Z</time>
      </trkpt>
      <trkpt lat="56.15413399413228" lon="-4.174531018361449">
        <ele>20.809999999999999</ele>
        <time>2023-09-02T09:37:40Z</time>
      </trkpt>
      <trkpt lat="56.154340021312237" lon="-4.173878990113735">
        <ele>20.809999999999999</ele>
        <time>2023-09-02T09:37:47Z</time>
      </trkpt>
      <trkpt lat="56.154549987986684" lon="-4.173603979870677">
        <ele>21.289999999999999</ele>
        <time>2023-09-02T09:37:52Z</time>
      </trkpt>
      <trkpt lat="56.154709998518229" lon="-4.173500966280699">
        <ele>21.77</ele>
        <time>2023-09-02T09:38:03Z</time>
      </trkpt>
      <trkpt lat="56.154715027660131" lon="-4.173489985987544">
        <ele>22.25</ele>
        <time>2023-09-02T09:38:28Z</time>
      </trkpt>
      <trkpt lat="56.154717961326241" lon="-4.173482023179531">
        <ele>22.25</ele>
        <time>2023-09-02T09:39:18Z</time>
      </trkpt>
      <trkpt lat="56.154721984639764" lon="-4.173473976552486">
        <ele>22.73</ele>
        <time>2023-09-02T09:40:02Z</time>
      </trkpt>
      <trkpt lat="56.154726007953286" lon="-4.173474982380867">
        <ele>22.73</ele>
        <time>2023-09-02T09:40:35Z</time>
      </trkpt>
      <trkpt lat="56.154852993786335" lon="-4.172571999952197">
        <ele>22.25</ele>
        <time>2023-09-02T09:40:45Z</time>
      </trkpt>
      <trkpt lat="56.154857017099857" lon="-4.171301973983645">
        <ele>16.960000000000001</ele>
        <time>2023-09-02T09:40:57Z</time>
      </trkpt>
      <trkpt lat="56.15473497658968" lon="-4.17083996348083">
        <ele>15.52</ele>
        <time>2023-09-02T09:41:03Z</time>
      </trkpt>
      <trkpt lat="56.154576977714896" lon="-4.170339982956648">
        <ele>15.039999999999999</ele>
        <time>2023-09-02T09:41:10Z</time>
      </trkpt>
      <trkpt lat="56.154679991304874" lon="-4.168816991150379">
        <ele>16.48</ele>
        <time>2023-09-02T09:41:20Z</time>
      </trkpt>
      <trkpt lat="56.154878977686167" lon="-4.166492018848658">
        <ele>17.440000000000001</ele>
        <time>2023-09-02T09:41:35Z</time>
      </trkpt>
      <trkpt lat="56.155023984611034" lon="-4.164440967142582">
        <ele>18.399999999999999</ele>
        <time>2023-09-02T09:41:49Z</time>
      </trkpt>
      <trkpt lat="56.155040999874473" lon="-4.164223959669471">
        <ele>18.399999999999999</ele>
        <time>2023-09-02T09:41:51Z</time>
      </trkpt>
      <trkpt lat="56.155073018744588" lon="-4.163909973576665">
        <ele>18.879999999999999</ele>
        <time>2023-09-02T09:41:59Z</time>
      </trkpt>
      <trkpt lat="56.155073018744588" lon="-4.163909973576665">
        <ele>18.879999999999999</ele>
        <time>2023-09-02T09:42:00Z</time>
      </trkpt>
      <trkpt lat="56.155061032623053" lon="-4.163816012442112">
        <ele>18.879999999999999</ele>
        <time>2023-09-02T09:42:02Z</time>
      </trkpt>
      <trkpt lat="56.155022978782654" lon="-4.163802014663816">
        <ele>18.879999999999999</ele>
        <time>2023-09-02T09:42:03Z</time>
      </trkpt>
      <trkpt lat="56.154955001547933" lon="-4.163777958601713">
        <ele>18.879999999999999</ele>
        <time>2023-09-02T09:42:04Z</time>
      </trkpt>
      <trkpt lat="56.154856011271477" lon="-4.163743006065488">
        <ele>18.399999999999999</ele>
        <time>2023-09-02T09:42:05Z</time>
      </trkpt>
      <trkpt lat="56.154736988246441" lon="-4.163701012730598">
        <ele>18.399999999999999</ele>
        <time>2023-09-02T09:42:06Z</time>
      </trkpt>
      <trkpt lat="56.153621021658182" lon="-4.163305973634124">
        <ele>18.399999999999999</ele>
        <time>2023-09-02T09:42:13Z</time>
      </trkpt>
      <trkpt lat="56.15183399990201" lon="-4.162661992013454">
        <ele>18.879999999999999</ele>
        <time>2023-09-02T09:42:24Z</time>
      </trkpt>
      <trkpt lat="56.151303006336093" lon="-4.162450013682246">
        <ele>18.879999999999999</ele>
        <time>2023-09-02T09:42:28Z</time>
      </trkpt>
      <trkpt lat="56.151213990524411" lon="-4.162342976778746">
        <ele>19.359999999999999</ele>
        <time>2023-09-02T09:42:29Z</time>
      </trkpt>
      <trkpt lat="56.151102008298039" lon="-4.162209033966065">
        <ele>19.84</ele>
        <time>2023-09-02T09:42:30Z</time>
      </trkpt>
      <trkpt lat="56.151050962507725" lon="-4.162080958485603">
        <ele>19.84</ele>
        <time>2023-09-02T09:42:31Z</time>
      </trkpt>
      <trkpt lat="56.150984996929765" lon="-4.161916002631187">
        <ele>20.32</ele>
        <time>2023-09-02T09:42:32Z</time>
      </trkpt>
      <trkpt lat="56.150920959189534" lon="-4.161753980442882">
        <ele>20.809999999999999</ele>
        <time>2023-09-02T09:42:33Z</time>
      </trkpt>
      <trkpt lat="56.150336991995573" lon="-4.160284968093038">
        <ele>24.649999999999999</ele>
        <time>2023-09-02T09:42:40Z</time>
      </trkpt>
      <trkpt lat="56.149069983512163" lon="-4.157110992819071">
        <ele>24.170000000000002</ele>
        <time>2023-09-02T09:42:52Z</time>
      </trkpt>
      <trkpt lat="56.147985029965639" lon="-4.154392993077636">
        <ele>24.170000000000002</ele>
        <time>2023-09-02T09:43:03Z</time>
      </trkpt>
      <trkpt lat="56.146561028435826" lon="-4.150824984535575">
        <ele>24.170000000000002</ele>
        <time>2023-09-02T09:43:18Z</time>
      </trkpt>
      <trkpt lat="56.145492000505328" lon="-4.147886959835887">
        <ele>24.170000000000002</ele>
        <time>2023-09-02T09:43:30Z</time>
      </trkpt>
      <trkpt lat="56.144882971420884" lon="-4.146610982716084">
        <ele>22.73</ele>
        <time>2023-09-02T09:43:37Z</time>
      </trkpt>
      <trkpt lat="56.144857993349433" lon="-4.146565971896052">
        <ele>22.73</ele>
        <time>2023-09-02T09:43:38Z</time>
      </trkpt>
      <trkpt lat="56.144826980307698" lon="-4.146595979109407">
        <ele>22.25</ele>
        <time>2023-09-02T09:43:39Z</time>
      </trkpt>
      <trkpt lat="56.144785992801189" lon="-4.146635960787535">
        <ele>22.25</ele>
        <time>2023-09-02T09:43:40Z</time>
      </trkpt>
      <trkpt lat="56.144714998081326" lon="-4.146704021841288">
        <ele>21.77</ele>
        <time>2023-09-02T09:43:41Z</time>
      </trkpt>
      <trkpt lat="56.144520035013556" lon="-4.146892027929425">
        <ele>20.809999999999999</ele>
        <time>2023-09-02T09:43:43Z</time>
      </trkpt>
      <trkpt lat="56.144169000908732" lon="-4.147142982110381">
        <ele>20.32</ele>
        <time>2023-09-02T09:43:46Z</time>
      </trkpt>
      <trkpt lat="56.144045032560825" lon="-4.147163014858961">
        <ele>20.809999999999999</ele>
        <time>2023-09-02T09:43:47Z</time>
      </trkpt>
      <trkpt lat="56.143915029242635" lon="-4.147153962403536">
        <ele>20.809999999999999</ele>
        <time>2023-09-02T09:43:48Z</time>
      </trkpt>
      <trkpt lat="56.143443966284394" lon="-4.147093025967479">
        <ele>22.25</ele>
        <time>2023-09-02T09:43:52Z</time>
      </trkpt>
      <trkpt lat="56.143322009593248" lon="-4.147060001268983">
        <ele>22.25</ele>
        <time>2023-09-02T09:43:53Z</time>
      </trkpt>
      <trkpt lat="56.143083963543177" lon="-4.146906025707722">
        <ele>21.289999999999999</ele>
        <time>2023-09-02T09:43:55Z</time>
      </trkpt>
      <trkpt lat="56.141703967005014" lon="-4.145646980032325">
        <ele>19.359999999999999</ele>
        <time>2023-09-02T09:44:06Z</time>
      </trkpt>
      <trkpt lat="56.141558960080147" lon="-4.145603980869055">
        <ele>19.359999999999999</ele>
        <time>2023-09-02T09:44:07Z</time>
      </trkpt>
      <trkpt lat="56.139542022719979" lon="-4.145045997574925">
        <ele>18.879999999999999</ele>
        <time>2023-09-02T09:44:20Z</time>
      </trkpt>
      <trkpt lat="56.138294041156769" lon="-4.145387979224324">
        <ele>18.399999999999999</ele>
        <time>2023-09-02T09:44:28Z</time>
      </trkpt>
      <trkpt lat="56.137262983247638" lon="-4.146201023831964">
        <ele>16</ele>
        <time>2023-09-02T09:44:35Z</time>
      </trkpt>
      <trkpt lat="56.13716097548604" lon="-4.146362962201238">
        <ele>16</ele>
        <time>2023-09-02T09:44:36Z</time>
      </trkpt>
      <trkpt lat="56.137088974937797" lon="-4.146549040451646">
        <ele>15.52</ele>
        <time>2023-09-02T09:44:37Z</time>
      </trkpt>
      <trkpt lat="56.137014962732792" lon="-4.146746015176177">
        <ele>15.52</ele>
        <time>2023-09-02T09:44:38Z</time>
      </trkpt>
      <trkpt lat="56.136939022690058" lon="-4.146950030699372">
        <ele>15.039999999999999</ele>
        <time>2023-09-02T09:44:39Z</time>
      </trkpt>
      <trkpt lat="56.13685998134315" lon="-4.147158991545439">
        <ele>15.039999999999999</ele>
        <time>2023-09-02T09:44:40Z</time>
      </trkpt>
      <trkpt lat="56.136783035472035" lon="-4.147366024553776">
        <ele>14.56</ele>
        <time>2023-09-02T09:44:41Z</time>
      </trkpt>
      <trkpt lat="56.136670969426632" lon="-4.147497033700347">
        <ele>14.56</ele>
        <time>2023-09-02T09:44:42Z</time>
      </trkpt>
      <trkpt lat="56.136553036049008" lon="-4.14761102758348">
        <ele>14.56</ele>
        <time>2023-09-02T09:44:43Z</time>
      </trkpt>
      <trkpt lat="56.136435018852353" lon="-4.147725021466613">
        <ele>14.56</ele>
        <time>2023-09-02T09:44:44Z</time>
      </trkpt>
      <trkpt lat="56.136315995827317" lon="-4.147840021178126">
        <ele>14.56</ele>
        <time>2023-09-02T09:44:45Z</time>
      </trkpt>
      <trkpt lat="56.135500017553568" lon="-4.148548962548375">
        <ele>15.039999999999999</ele>
        <time>2023-09-02T09:44:52Z</time>
      </trkpt>
      <trkpt lat="56.135443020612001" lon="-4.148661028593779">
        <ele>15.52</ele>
        <time>2023-09-02T09:44:53Z</time>
      </trkpt>
      <trkpt lat="56.135412007570267" lon="-4.148806035518646">
        <ele>15.52</ele>
        <time>2023-09-02T09:44:54Z</time>
      </trkpt>
      <trkpt lat="56.135391974821687" lon="-4.14896504022181">
        <ele>15.52</ele>
        <time>2023-09-02T09:44:55Z</time>
      </trkpt>
      <trkpt lat="56.135386023670435" lon="-4.149147011339665">
        <ele>15.52</ele>
        <time>2023-09-02T09:44:56Z</time>
      </trkpt>
      <trkpt lat="56.1353740375489" lon="-4.149463009089232">
        <ele>15.039999999999999</ele>
        <time>2023-09-02T09:44:58Z</time>
      </trkpt>
      <trkpt lat="56.135325003415346" lon="-4.149594018235803">
        <ele>14.56</ele>
        <time>2023-09-02T09:44:59Z</time>
      </trkpt>
      <trkpt lat="56.135274041444063" lon="-4.149660989642143">
        <ele>14.56</ele>
        <time>2023-09-02T09:45:00Z</time>
      </trkpt>
      <trkpt lat="56.13520204089582" lon="-4.149707006290555">
        <ele>14.56</ele>
        <time>2023-09-02T09:45:01Z</time>
      </trkpt>
      <trkpt lat="56.135115036740899" lon="-4.149737013503909">
        <ele>15.039999999999999</ele>
        <time>2023-09-02T09:45:02Z</time>
      </trkpt>
      <trkpt lat="56.134393019601703" lon="-4.150017974898219">
        <ele>15.039999999999999</ele>
        <time>2023-09-02T09:45:09Z</time>
      </trkpt>
      <trkpt lat="56.134297968819737" lon="-4.150060974061489">
        <ele>15.52</ele>
        <time>2023-09-02T09:45:10Z</time>
      </trkpt>
      <trkpt lat="56.134039973840117" lon="-4.150179997086525">
        <ele>16</ele>
        <time>2023-09-02T09:45:13Z</time>
      </trkpt>
      <trkpt lat="56.133932014927268" lon="-4.150229031220079">
        <ele>16.48</ele>
        <time>2023-09-02T09:45:15Z</time>
      </trkpt>
      <trkpt lat="56.133896978572011" lon="-4.150245962664485">
        <ele>16.960000000000001</ele>
        <time>2023-09-02T09:45:16Z</time>
      </trkpt>
      <trkpt lat="56.133864959701896" lon="-4.150216961279512">
        <ele>16.960000000000001</ele>
        <time>2023-09-02T09:45:17Z</time>
      </trkpt>
      <trkpt lat="56.133855991065502" lon="-4.150163987651467">
        <ele>17.440000000000001</ele>
        <time>2023-09-02T09:45:18Z</time>
      </trkpt>
      <trkpt lat="56.133847022429109" lon="-4.150109002366662">
        <ele>17.440000000000001</ele>
        <time>2023-09-02T09:45:19Z</time>
      </trkpt>
      <trkpt lat="56.133837969973683" lon="-4.150055022910237">
        <ele>17.920000000000002</ele>
        <time>2023-09-02T09:45:20Z</time>
      </trkpt>
      <trkpt lat="56.13383000716567" lon="-4.150006994605064">
        <ele>18.399999999999999</ele>
        <time>2023-09-02T09:45:21Z</time>
      </trkpt>
      <trkpt lat="56.13382900133729" lon="-4.150000037625432">
        <ele>18.399999999999999</ele>
        <time>2023-09-02T09:45:22Z</time>
      </trkpt>
      <trkpt lat="56.13380704075098" lon="-4.150004982948303">
        <ele>18.399999999999999</ele>
        <time>2023-09-02T09:45:23Z</time>
      </trkpt>
      <trkpt lat="56.133789019659162" lon="-4.150009006261826">
        <ele>18.399999999999999</ele>
        <time>2023-09-02T09:45:24Z</time>
      </trkpt>
      <trkpt lat="56.13382900133729" lon="-4.150000037625432">
        <ele>18.879999999999999</ele>
        <time>2023-09-02T09:45:25Z</time>
      </trkpt>
      <trkpt lat="56.13382900133729" lon="-4.150000037625432">
        <ele>18.879999999999999</ele>
        <time>2023-09-02T09:45:26Z</time>
      </trkpt>
      <trkpt lat="56.13382900133729" lon="-4.150000037625432">
        <ele>18.879999999999999</ele>
        <time>2023-09-02T09:45:36Z</time>
      </trkpt>
      <trkpt lat="56.133838975802064" lon="-4.150059968233109">
        <ele>18.879999999999999</ele>
        <time>2023-09-02T09:46:02Z</time>
      </trkpt>
      <trkpt lat="56.133841993287206" lon="-4.150077989324927">
        <ele>19.359999999999999</ele>
        <time>2023-09-02T09:46:03Z</time>
      </trkpt>
      <trkpt lat="56.13382900133729" lon="-4.150000037625432">
        <ele>19.359999999999999</ele>
        <time>2023-09-02T09:46:04Z</time>
      </trkpt>
      <trkpt lat="56.13382900133729" lon="-4.150000037625432">
        <ele>21.289999999999999</ele>
        <time>2023-09-02T09:46:16Z</time>
      </trkpt>
      <trkpt lat="56.133976019918919" lon="-4.149885959923267">
        <ele>23.210000000000001</ele>
        <time>2023-09-02T09:46:24Z</time>
      </trkpt>
      <trkpt lat="56.133987000212073" lon="-4.149876991286874">
        <ele>23.210000000000001</ele>
        <time>2023-09-02T09:46:25Z</time>
      </trkpt>
      <trkpt lat="56.134013989940286" lon="-4.149856036528945">
        <ele>23.210000000000001</ele>
        <time>2023-09-02T09:46:27Z</time>
      </trkpt>
      <trkpt lat="56.13402203656733" lon="-4.149848995730281">
        <ele>23.210000000000001</ele>
        <time>2023-09-02T09:46:28Z</time>
      </trkpt>
      <trkpt lat="56.13402203656733" lon="-4.149848995730281">
        <ele>23.210000000000001</ele>
        <time>2023-09-02T09:46:29Z</time>
      </trkpt>
      <trkpt lat="56.13402203656733" lon="-4.149848995730281">
        <ele>22.73</ele>
        <time>2023-09-02T09:46:30Z</time>
      </trkpt>
      <trkpt lat="56.13402203656733" lon="-4.149848995730281">
        <ele>18.879999999999999</ele>
        <time>2023-09-02T09:46:35Z</time>
      </trkpt>
      <trkpt lat="56.13402203656733" lon="-4.149848995730281">
        <ele>18.399999999999999</ele>
        <time>2023-09-02T09:46:36Z</time>
      </trkpt>
      <trkpt lat="56.13402203656733" lon="-4.149848995730281">
        <ele>17.920000000000002</ele>
        <time>2023-09-02T09:46:52Z</time>
      </trkpt>
      <trkpt lat="56.134071992710233" lon="-4.150081006810069">
        <ele>18.879999999999999</ele>
        <time>2023-09-02T10:28:02Z</time>
      </trkpt>
      <trkpt lat="56.133969984948635" lon="-4.150001965463162">
        <ele>16.48</ele>
        <time>2023-09-02T10:28:38Z</time>
      </trkpt>
      <trkpt lat="56.133991023525596" lon="-4.149958966299892">
        <ele>18.399999999999999</ele>
        <time>2023-09-02T10:29:00Z</time>
      </trkpt>
      <trkpt lat="56.1339579988271" lon="-4.150217967107892">
        <ele>18.399999999999999</ele>
        <time>2023-09-02T10:29:27Z</time>
      </trkpt>
      <trkpt lat="56.133835958316922" lon="-4.149994002655149">
        <ele>17.920000000000002</ele>
        <time>2023-09-02T10:29:31Z</time>
      </trkpt>
      <trkpt lat="56.133848028257489" lon="-4.150113025680184">
        <ele>17.920000000000002</ele>
        <time>2023-09-02T10:29:32Z</time>
      </trkpt>
      <trkpt lat="56.133853979408741" lon="-4.150153007358313">
        <ele>17.920000000000002</ele>
        <time>2023-09-02T10:29:33Z</time>
      </trkpt>
      <trkpt lat="56.133834030479193" lon="-4.150286028161645">
        <ele>18.879999999999999</ele>
        <time>2023-09-02T10:29:38Z</time>
      </trkpt>
      <trkpt lat="56.133797988295555" lon="-4.150313017889857">
        <ele>18.879999999999999</ele>
        <time>2023-09-02T10:29:39Z</time>
      </trkpt>
      <trkpt lat="56.13354803994298" lon="-4.150504041463137">
        <ele>18.399999999999999</ele>
        <time>2023-09-02T10:29:43Z</time>
      </trkpt>
      <trkpt lat="56.133496994152665" lon="-4.150543017312884">
        <ele>18.399999999999999</ele>
        <time>2023-09-02T10:29:44Z</time>
      </trkpt>
      <trkpt lat="56.133383000269532" lon="-4.150510998442769">
        <ele>18.399999999999999</ele>
        <time>2023-09-02T10:29:45Z</time>
      </trkpt>
      <trkpt lat="56.133343018591404" lon="-4.150350987911224">
        <ele>18.399999999999999</ele>
        <time>2023-09-02T10:29:46Z</time>
      </trkpt>
      <trkpt lat="56.133320974186063" lon="-4.15019198320806">
        <ele>18.399999999999999</ele>
        <time>2023-09-02T10:29:47Z</time>
      </trkpt>
      <trkpt lat="56.133297001942992" lon="-4.150016969069839">
        <ele>18.399999999999999</ele>
        <time>2023-09-02T10:29:48Z</time>
      </trkpt>
      <trkpt lat="56.13327101804316" lon="-4.149796022102237">
        <ele>17.920000000000002</ele>
        <time>2023-09-02T10:29:49Z</time>
      </trkpt>
      <trkpt lat="56.13327101804316" lon="-4.149574991315603">
        <ele>17.920000000000002</ele>
        <time>2023-09-02T10:29:50Z</time>
      </trkpt>
      <trkpt lat="56.133203962817788" lon="-4.14737599901855">
        <ele>17.920000000000002</ele>
        <time>2023-09-02T10:29:58Z</time>
      </trkpt>
      <trkpt lat="56.133060967549682" lon="-4.143258975818753">
        <ele>19.359999999999999</ele>
        <time>2023-09-02T10:30:10Z</time>
      </trkpt>
      <trkpt lat="56.132936999201775" lon="-4.13807200267911">
        <ele>18.399999999999999</ele>
        <time>2023-09-02T10:30:24Z</time>
      </trkpt>
      <trkpt lat="56.132829962298274" lon="-4.132668022066355">
        <ele>18.879999999999999</ele>
        <time>2023-09-02T10:30:39Z</time>
      </trkpt>
      <trkpt lat="56.132762990891933" lon="-4.129322972148657">
        <ele>17.440000000000001</ele>
        <time>2023-09-02T10:30:49Z</time>
      </trkpt>
      <trkpt lat="56.132739018648863" lon="-4.128137016668916">
        <ele>17.440000000000001</ele>
        <time>2023-09-02T10:30:55Z</time>
      </trkpt>
      <trkpt lat="56.132737006992102" lon="-4.128042971715331">
        <ele>17.920000000000002</ele>
        <time>2023-09-02T10:30:56Z</time>
      </trkpt>
      <trkpt lat="56.132703982293606" lon="-4.127883967012167">
        <ele>17.920000000000002</ele>
        <time>2023-09-02T10:30:57Z</time>
      </trkpt>
      <trkpt lat="56.132657965645194" lon="-4.127863012254238">
        <ele>17.920000000000002</ele>
        <time>2023-09-02T10:30:58Z</time>
      </trkpt>
      <trkpt lat="56.132601974532008" lon="-4.127837028354406">
        <ele>17.920000000000002</ele>
        <time>2023-09-02T10:30:59Z</time>
      </trkpt>
      <trkpt lat="56.132538020610809" lon="-4.127807021141052">
        <ele>18.399999999999999</ele>
        <time>2023-09-02T10:31:00Z</time>
      </trkpt>
      <trkpt lat="56.131796976551414" lon="-4.127499992027879">
        <ele>18.399999999999999</ele>
        <time>2023-09-02T10:31:09Z</time>
      </trkpt>
      <trkpt lat="56.131703015416861" lon="-4.127516001462936">
        <ele>18.399999999999999</ele>
        <time>2023-09-02T10:31:10Z</time>
      </trkpt>
      <trkpt lat="56.131596984341741" lon="-4.127533016726375">
        <ele>18.399999999999999</ele>
        <time>2023-09-02T10:31:11Z</time>
      </trkpt>
      <trkpt lat="56.131518026813865" lon="-4.127583978697658">
        <ele>17.920000000000002</ele>
        <time>2023-09-02T10:31:12Z</time>
      </trkpt>
      <trkpt lat="56.131424987688661" lon="-4.127641981467605">
        <ele>18.399999999999999</ele>
        <time>2023-09-02T10:31:13Z</time>
      </trkpt>
      <trkpt lat="56.131236981600523" lon="-4.127761004492641">
        <ele>17.920000000000002</ele>
        <time>2023-09-02T10:31:15Z</time>
      </trkpt>
      <trkpt lat="56.13114302046597" lon="-4.127859994769096">
        <ele>17.920000000000002</ele>
        <time>2023-09-02T10:31:16Z</time>
      </trkpt>
      <trkpt lat="56.131060039624572" lon="-4.127983041107655">
        <ele>17.920000000000002</ele>
        <time>2023-09-02T10:31:17Z</time>
      </trkpt>
      <trkpt lat="56.130974963307381" lon="-4.128109021112323">
        <ele>17.920000000000002</ele>
        <time>2023-09-02T10:31:18Z</time>
      </trkpt>
      <trkpt lat="56.13088795915246" lon="-4.128239024430513">
        <ele>17.920000000000002</ele>
        <time>2023-09-02T10:31:19Z</time>
      </trkpt>
      <trkpt lat="56.130801038816571" lon="-4.128368021920323">
        <ele>17.920000000000002</ele>
        <time>2023-09-02T10:31:20Z</time>
      </trkpt>
      <trkpt lat="56.130638010799885" lon="-4.128609001636505">
        <ele>17.920000000000002</ele>
        <time>2023-09-02T10:31:22Z</time>
      </trkpt>
      <trkpt lat="56.13056399859488" lon="-4.128716038540006">
        <ele>17.920000000000002</ele>
        <time>2023-09-02T10:31:23Z</time>
      </trkpt>
      <trkpt lat="56.130471965298057" lon="-4.128782004117966">
        <ele>17.920000000000002</ele>
        <time>2023-09-02T10:31:24Z</time>
      </trkpt>
      <trkpt lat="56.130372975021601" lon="-4.12883598357439">
        <ele>17.920000000000002</ele>
        <time>2023-09-02T10:31:25Z</time>
      </trkpt>
      <trkpt lat="56.130267027765512" lon="-4.128871019929647">
        <ele>17.920000000000002</ele>
        <time>2023-09-02T10:31:26Z</time>
      </trkpt>
      <trkpt lat="56.130154961720109" lon="-4.128907984122634">
        <ele>18.399999999999999</ele>
        <time>2023-09-02T10:31:27Z</time>
      </trkpt>
      <trkpt lat="56.128610009327531" lon="-4.129247032105923">
        <ele>17.920000000000002</ele>
        <time>2023-09-02T10:31:39Z</time>
      </trkpt>
      <trkpt lat="56.12667303532362" lon="-4.129487005993724">
        <ele>19.359999999999999</ele>
        <time>2023-09-02T10:31:54Z</time>
      </trkpt>
      <trkpt lat="56.126512018963695" lon="-4.129507960751653">
        <ele>19.84</ele>
        <time>2023-09-02T10:31:56Z</time>
      </trkpt>
      <trkpt lat="56.12641797401011" lon="-4.129549032077193">
        <ele>20.32</ele>
        <time>2023-09-02T10:31:57Z</time>
      </trkpt>
      <trkpt lat="56.126329964026809" lon="-4.12958700209856">
        <ele>20.32</ele>
        <time>2023-09-02T10:31:58Z</time>
      </trkpt>
      <trkpt lat="56.126004997640848" lon="-4.129731003195047">
        <ele>21.77</ele>
        <time>2023-09-02T10:32:02Z</time>
      </trkpt>
      <trkpt lat="56.125504011288285" lon="-4.1299510281533">
        <ele>25.609999999999999</ele>
        <time>2023-09-02T10:32:09Z</time>
      </trkpt>
      <trkpt lat="56.125422958284616" lon="-4.129971982911229">
        <ele>26.09</ele>
        <time>2023-09-02T10:32:10Z</time>
      </trkpt>
      <trkpt lat="56.125369984656572" lon="-4.129945999011397">
        <ele>27.050000000000001</ele>
        <time>2023-09-02T10:32:11Z</time>
      </trkpt>
      <trkpt lat="56.125294966623187" lon="-4.129848014563322">
        <ele>27.530000000000001</ele>
        <time>2023-09-02T10:32:12Z</time>
      </trkpt>
      <trkpt lat="56.125273006036878" lon="-4.129750030115247">
        <ele>28.02</ele>
        <time>2023-09-02T10:32:13Z</time>
      </trkpt>
      <trkpt lat="56.125247022137046" lon="-4.129634024575353">
        <ele>28.98</ele>
        <time>2023-09-02T10:32:14Z</time>
      </trkpt>
      <trkpt lat="56.125218020752072" lon="-4.129508966580033">
        <ele>29.460000000000001</ele>
        <time>2023-09-02T10:32:15Z</time>
      </trkpt>
      <trkpt lat="56.125188013538718" lon="-4.129373012110591">
        <ele>30.420000000000002</ele>
        <time>2023-09-02T10:32:16Z</time>
      </trkpt>
      <trkpt lat="56.125160017982125" lon="-4.129249965772033">
        <ele>30.899999999999999</ele>
        <time>2023-09-02T10:32:17Z</time>
      </trkpt>
      <trkpt lat="56.125154988840222" lon="-4.129064977169037">
        <ele>31.379999999999999</ele>
        <time>2023-09-02T10:32:18Z</time>
      </trkpt>
      <trkpt lat="56.1251509655267" lon="-4.12892097607255">
        <ele>31.859999999999999</ele>
        <time>2023-09-02T10:32:19Z</time>
      </trkpt>
      <trkpt lat="56.125147026032209" lon="-4.128798013553023">
        <ele>32.340000000000003</ele>
        <time>2023-09-02T10:32:20Z</time>
      </trkpt>
      <trkpt lat="56.125144008547068" lon="-4.128692988306284">
        <ele>32.82</ele>
        <time>2023-09-02T10:32:21Z</time>
      </trkpt>
      <trkpt lat="56.125141996890306" lon="-4.12862098775804">
        <ele>33.299999999999997</ele>
        <time>2023-09-02T10:32:22Z</time>
      </trkpt>
      <trkpt lat="56.125140991061926" lon="-4.128573965281248">
        <ele>33.299999999999997</ele>
        <time>2023-09-02T10:32:23Z</time>
      </trkpt>
      <trkpt lat="56.125061027705669" lon="-4.128516968339682">
        <ele>33.299999999999997</ele>
        <time>2023-09-02T10:32:24Z</time>
      </trkpt>
      <trkpt lat="56.125020962208509" lon="-4.128538006916642">
        <ele>33.780000000000001</ele>
        <time>2023-09-02T10:32:25Z</time>
      </trkpt>
      <trkpt lat="56.124963965266943" lon="-4.128567008301616">
        <ele>33.780000000000001</ele>
        <time>2023-09-02T10:32:26Z</time>
      </trkpt>
      <trkpt lat="56.124900011345744" lon="-4.128600033000112">
        <ele>33.780000000000001</ele>
        <time>2023-09-02T10:32:27Z</time>
      </trkpt>
      <trkpt lat="56.124828010797501" lon="-4.128636997193098">
        <ele>33.780000000000001</ele>
        <time>2023-09-02T10:32:28Z</time>
      </trkpt>
      <trkpt lat="56.124746035784483" lon="-4.128678990527988">
        <ele>34.259999999999998</ele>
        <time>2023-09-02T10:32:29Z</time>
      </trkpt>
      <trkpt lat="56.124012032523751" lon="-4.12915600463748">
        <ele>38.590000000000003</ele>
        <time>2023-09-02T10:32:37Z</time>
      </trkpt>
      <trkpt lat="56.123422030359507" lon="-4.129636036232114">
        <ele>42.920000000000002</ele>
        <time>2023-09-02T10:32:44Z</time>
      </trkpt>
      <trkpt lat="56.123378025367856" lon="-4.129742989316583">
        <ele>43.399999999999999</ele>
        <time>2023-09-02T10:32:45Z</time>
      </trkpt>
      <trkpt lat="56.123328991234303" lon="-4.12986502982676">
        <ele>44.359999999999999</ele>
        <time>2023-09-02T10:32:46Z</time>
      </trkpt>
      <trkpt lat="56.123275011777878" lon="-4.12999402731657">
        <ele>44.840000000000003</ele>
        <time>2023-09-02T10:32:47Z</time>
      </trkpt>
      <trkpt lat="56.123228995129466" lon="-4.130108021199703">
        <ele>45.799999999999997</ele>
        <time>2023-09-02T10:32:48Z</time>
      </trkpt>
      <trkpt lat="56.123207034543157" lon="-4.13025101646781">
        <ele>46.280000000000001</ele>
        <time>2023-09-02T10:32:49Z</time>
      </trkpt>
      <trkpt lat="56.123181972652674" lon="-4.130414966493845">
        <ele>46.759999999999998</ele>
        <time>2023-09-02T10:32:50Z</time>
      </trkpt>
      <trkpt lat="56.123154982924461" lon="-4.130589980632067">
        <ele>46.759999999999998</ele>
        <time>2023-09-02T10:32:51Z</time>
      </trkpt>
      <trkpt lat="56.123099997639656" lon="-4.130945038050413">
        <ele>47.240000000000002</ele>
        <time>2023-09-02T10:32:53Z</time>
      </trkpt>
      <trkpt lat="56.123082982376218" lon="-4.131294982507825">
        <ele>47.719999999999999</ele>
        <time>2023-09-02T10:32:55Z</time>
      </trkpt>
      <trkpt lat="56.123117012903094" lon="-4.131607040762901">
        <ele>47.719999999999999</ele>
        <time>2023-09-02T10:32:57Z</time>
      </trkpt>
      <trkpt lat="56.123178033158183" lon="-4.13171399384737">
        <ele>47.719999999999999</ele>
        <time>2023-09-02T10:32:58Z</time>
      </trkpt>
      <trkpt lat="56.123254979029298" lon="-4.131824970245361">
        <ele>47.240000000000002</ele>
        <time>2023-09-02T10:32:59Z</time>
      </trkpt>
      <trkpt lat="56.123329997062683" lon="-4.13197198882699">
        <ele>47.240000000000002</ele>
        <time>2023-09-02T10:33:00Z</time>
      </trkpt>
      <trkpt lat="56.123368972912431" lon="-4.132127976045013">
        <ele>47.719999999999999</ele>
        <time>2023-09-02T10:33:01Z</time>
      </trkpt>
      <trkpt lat="56.12336402758956" lon="-4.132340038195252">
        <ele>48.200000000000003</ele>
        <time>2023-09-02T10:33:02Z</time>
      </trkpt>
      <trkpt lat="56.123347012326121" lon="-4.132541958242655">
        <ele>48.68</ele>
        <time>2023-09-02T10:33:03Z</time>
      </trkpt>
      <trkpt lat="56.123327985405922" lon="-4.132770029827952">
        <ele>49.159999999999997</ele>
        <time>2023-09-02T10:33:04Z</time>
      </trkpt>
      <trkpt lat="56.123107960447669" lon="-4.13536598905921">
        <ele>52.049999999999997</ele>
        <time>2023-09-02T10:33:14Z</time>
      </trkpt>
      <trkpt lat="56.122760027647018" lon="-4.139474965631962">
        <ele>57.340000000000003</ele>
        <time>2023-09-02T10:33:29Z</time>
      </trkpt>
      <trkpt lat="56.122691966593266" lon="-4.140279041603208">
        <ele>58.299999999999997</ele>
        <time>2023-09-02T10:33:33Z</time>
      </trkpt>
      <trkpt lat="56.122618960216641" lon="-4.140400998294354">
        <ele>57.82</ele>
        <time>2023-09-02T10:33:34Z</time>
      </trkpt>
      <trkpt lat="56.12254997715354" lon="-4.140513986349106">
        <ele>57.82</ele>
        <time>2023-09-02T10:33:35Z</time>
      </trkpt>
      <trkpt lat="56.122472025454044" lon="-4.140642983838916">
        <ele>57.340000000000003</ele>
        <time>2023-09-02T10:33:36Z</time>
      </trkpt>
      <trkpt lat="56.122388960793614" lon="-4.140780027955771">
        <ele>57.82</ele>
        <time>2023-09-02T10:33:37Z</time>
      </trkpt>
      <trkpt lat="56.122302962467074" lon="-4.140921011567116">
        <ele>57.82</ele>
        <time>2023-09-02T10:33:38Z</time>
      </trkpt>
      <trkpt lat="56.121876994147897" lon="-4.141625007614493">
        <ele>59.259999999999998</ele>
        <time>2023-09-02T10:33:43Z</time>
      </trkpt>
      <trkpt lat="56.12179703079164" lon="-4.141770014539361">
        <ele>59.740000000000002</ele>
        <time>2023-09-02T10:33:44Z</time>
      </trkpt>
      <trkpt lat="56.121381036937237" lon="-4.142582975327969">
        <ele>61.659999999999997</ele>
        <time>2023-09-02T10:33:49Z</time>
      </trkpt>
      <trkpt lat="56.121324962005019" lon="-4.142762012779713">
        <ele>62.140000000000001</ele>
        <time>2023-09-02T10:33:50Z</time>
      </trkpt>
      <trkpt lat="56.121276011690497" lon="-4.142953958362341">
        <ele>63.100000000000001</ele>
        <time>2023-09-02T10:33:51Z</time>
      </trkpt>
      <trkpt lat="56.121226977556944" lon="-4.143142970278859">
        <ele>64.069999999999993</ele>
        <time>2023-09-02T10:33:52Z</time>
      </trkpt>
      <trkpt lat="56.121179033070803" lon="-4.143328964710236">
        <ele>64.549999999999997</ele>
        <time>2023-09-02T10:33:53Z</time>
      </trkpt>
      <trkpt lat="56.12111197784543" lon="-4.143512025475502">
        <ele>65.510000000000005</ele>
        <time>2023-09-02T10:33:54Z</time>
      </trkpt>
      <trkpt lat="56.121039977297187" lon="-4.143690979108214">
        <ele>65.989999999999995</ele>
        <time>2023-09-02T10:33:55Z</time>
      </trkpt>
      <trkpt lat="56.120947021991014" lon="-4.14383003488183">
        <ele>66.469999999999999</ele>
        <time>2023-09-02T10:33:56Z</time>
      </trkpt>
      <trkpt lat="56.120233973488212" lon="-4.144899984821677">
        <ele>71.760000000000005</ele>
        <time>2023-09-02T10:34:04Z</time>
      </trkpt>
      <trkpt lat="56.119581023231149" lon="-4.145879996940494">
        <ele>71.760000000000005</ele>
        <time>2023-09-02T10:34:12Z</time>
      </trkpt>
      <trkpt lat="56.119526959955692" lon="-4.146101027727127">
        <ele>71.269999999999996</ele>
        <time>2023-09-02T10:34:13Z</time>
      </trkpt>
      <trkpt lat="56.119491001591086" lon="-4.146248968318105">
        <ele>71.269999999999996</ele>
        <time>2023-09-02T10:34:14Z</time>
      </trkpt>
      <trkpt lat="56.11945697106421" lon="-4.14638701826334">
        <ele>70.790000000000006</ele>
        <time>2023-09-02T10:34:15Z</time>
      </trkpt>
      <trkpt lat="56.119428975507617" lon="-4.146506963297725">
        <ele>70.790000000000006</ele>
        <time>2023-09-02T10:34:16Z</time>
      </trkpt>
      <trkpt lat="56.119398968294263" lon="-4.146627997979522">
        <ele>70.310000000000002</ele>
        <time>2023-09-02T10:34:17Z</time>
      </trkpt>
      <trkpt lat="56.119356974959373" lon="-4.146734029054642">
        <ele>70.310000000000002</ele>
        <time>2023-09-02T10:34:18Z</time>
      </trkpt>
      <trkpt lat="56.119135022163391" lon="-4.147180030122399">
        <ele>72.239999999999995</ele>
        <time>2023-09-02T10:34:23Z</time>
      </trkpt>
      <trkpt lat="56.118922038003802" lon="-4.147584037855268">
        <ele>73.200000000000003</ele>
        <time>2023-09-02T10:34:26Z</time>
      </trkpt>
      <trkpt lat="56.118750041350722" lon="-4.147819988429546">
        <ele>74.159999999999997</ele>
        <time>2023-09-02T10:34:28Z</time>
      </trkpt>
      <trkpt lat="56.118644010275602" lon="-4.147876985371113">
        <ele>74.640000000000001</ele>
        <time>2023-09-02T10:34:29Z</time>
      </trkpt>
      <trkpt lat="56.118448041379452" lon="-4.148014029487968">
        <ele>75.120000000000005</ele>
        <time>2023-09-02T10:34:31Z</time>
      </trkpt>
      <trkpt lat="56.118370005860925" lon="-4.148120982572436">
        <ele>75.599999999999994</ele>
        <time>2023-09-02T10:34:32Z</time>
      </trkpt>
      <trkpt lat="56.118298005312681" lon="-4.148254003375769">
        <ele>76.079999999999998</ele>
        <time>2023-09-02T10:34:33Z</time>
      </trkpt>
      <trkpt lat="56.118251988664269" lon="-4.148404961451888">
        <ele>76.560000000000002</ele>
        <time>2023-09-02T10:34:34Z</time>
      </trkpt>
      <trkpt lat="56.118206977844238" lon="-4.148550974205136">
        <ele>77.040000000000006</ele>
        <time>2023-09-02T10:34:35Z</time>
      </trkpt>
      <trkpt lat="56.118159033358097" lon="-4.148722970858216">
        <ele>77.519999999999996</ele>
        <time>2023-09-02T10:34:36Z</time>
      </trkpt>
      <trkpt lat="56.118127014487982" lon="-4.148917011916637">
        <ele>77.519999999999996</ele>
        <time>2023-09-02T10:34:37Z</time>
      </trkpt>
      <trkpt lat="56.117944959551096" lon="-4.149737013503909">
        <ele>77.040000000000006</ele>
        <time>2023-09-02T10:34:41Z</time>
      </trkpt>
      <trkpt lat="56.1178860347718" lon="-4.149912027642131">
        <ele>76.560000000000002</ele>
        <time>2023-09-02T10:34:42Z</time>
      </trkpt>
      <trkpt lat="56.117803975939751" lon="-4.150055022910237">
        <ele>76.079999999999998</ele>
        <time>2023-09-02T10:34:43Z</time>
      </trkpt>
      <trkpt lat="56.116755986586213" lon="-4.151870962232351">
        <ele>74.640000000000001</ele>
        <time>2023-09-02T10:34:54Z</time>
      </trkpt>
      <trkpt lat="56.115772034972906" lon="-4.153127996250987">
        <ele>77.519999999999996</ele>
        <time>2023-09-02T10:35:01Z</time>
      </trkpt>
      <trkpt lat="56.114272009581327" lon="-4.154991041868925">
        <ele>91.459999999999994</ele>
        <time>2023-09-02T10:35:11Z</time>
      </trkpt>
      <trkpt lat="56.113069038838148" lon="-4.15599100291729">
        <ele>106.36</ele>
        <time>2023-09-02T10:35:20Z</time>
      </trkpt>
      <trkpt lat="56.111672027036548" lon="-4.157274020835757">
        <ele>118.86</ele>
        <time>2023-09-02T10:35:31Z</time>
      </trkpt>
      <trkpt lat="56.111578987911344" lon="-4.157361024990678">
        <ele>119.81999999999999</ele>
        <time>2023-09-02T10:35:32Z</time>
      </trkpt>
      <trkpt lat="56.111513022333384" lon="-4.157467978075147">
        <ele>120.78</ele>
        <time>2023-09-02T10:35:33Z</time>
      </trkpt>
      <trkpt lat="56.111462982371449" lon="-4.157616002485156">
        <ele>122.22</ele>
        <time>2023-09-02T10:35:34Z</time>
      </trkpt>
      <trkpt lat="56.111405985429883" lon="-4.157785987481475">
        <ele>123.19</ele>
        <time>2023-09-02T10:35:35Z</time>
      </trkpt>
      <trkpt lat="56.111349994316697" lon="-4.157953960821033">
        <ele>124.15000000000001</ele>
        <time>2023-09-02T10:35:36Z</time>
      </trkpt>
      <trkpt lat="56.111280005425215" lon="-4.158103996887803">
        <ele>125.11</ele>
        <time>2023-09-02T10:35:37Z</time>
      </trkpt>
      <trkpt lat="56.111194007098675" lon="-4.15822695940733">
        <ele>126.06999999999999</ele>
        <time>2023-09-02T10:35:38Z</time>
      </trkpt>
      <trkpt lat="56.111093005165458" lon="-4.158370960503817">
        <ele>127.51000000000001</ele>
        <time>2023-09-02T10:35:39Z</time>
      </trkpt>
      <trkpt lat="56.110209971666336" lon="-4.159640986472368">
        <ele>135.19999999999999</ele>
        <time>2023-09-02T10:35:46Z</time>
      </trkpt>
      <trkpt lat="56.109390975907445" lon="-4.160730969160795">
        <ele>140.49000000000001</ele>
        <time>2023-09-02T10:35:53Z</time>
      </trkpt>
      <trkpt lat="56.108780018985271" lon="-4.161479976028204">
        <ele>142.41</ele>
        <time>2023-09-02T10:35:59Z</time>
      </trkpt>
      <trkpt lat="56.108702989295125" lon="-4.161547031253576">
        <ele>142.88999999999999</ele>
        <time>2023-09-02T10:36:00Z</time>
      </trkpt>
      <trkpt lat="56.108436025679111" lon="-4.161750040948391">
        <ele>142.41</ele>
        <time>2023-09-02T10:36:03Z</time>
      </trkpt>
      <trkpt lat="56.108363019302487" lon="-4.161860011518002">
        <ele>142.41</ele>
        <time>2023-09-02T10:36:04Z</time>
      </trkpt>
      <trkpt lat="56.108293030411005" lon="-4.16200996376574">
        <ele>141.93000000000001</ele>
        <time>2023-09-02T10:36:05Z</time>
      </trkpt>
      <trkpt lat="56.108247013762593" lon="-4.162171985954046">
        <ele>141.93000000000001</ele>
        <time>2023-09-02T10:36:06Z</time>
      </trkpt>
      <trkpt lat="56.108199991285801" lon="-4.162338031455874">
        <ele>141.93000000000001</ele>
        <time>2023-09-02T10:36:07Z</time>
      </trkpt>
      <trkpt lat="56.108005028218031" lon="-4.162985030561686">
        <ele>140.97</ele>
        <time>2023-09-02T10:36:12Z</time>
      </trkpt>
      <trkpt lat="56.107967980206013" lon="-4.163067005574703">
        <ele>140.49000000000001</ele>
        <time>2023-09-02T10:36:13Z</time>
      </trkpt>
      <trkpt lat="56.107933027669787" lon="-4.163142023608089">
        <ele>140.00999999999999</ele>
        <time>2023-09-02T10:36:14Z</time>
      </trkpt>
      <trkpt lat="56.10781199298799" lon="-4.163280995562673">
        <ele>139.53</ele>
        <time>2023-09-02T10:36:16Z</time>
      </trkpt>
      <trkpt lat="56.107748039066792" lon="-4.163337992504239">
        <ele>139.53</ele>
        <time>2023-09-02T10:36:17Z</time>
      </trkpt>
      <trkpt lat="56.107676960527897" lon="-4.163401024416089">
        <ele>139.05000000000001</ele>
        <time>2023-09-02T10:36:18Z</time>
      </trkpt>
      <trkpt lat="56.107427012175322" lon="-4.163622977212071">
        <ele>138.56999999999999</ele>
        <time>2023-09-02T10:36:21Z</time>
      </trkpt>
      <trkpt lat="56.107329027727246" lon="-4.163710987195373">
        <ele>137.61000000000001</ele>
        <time>2023-09-02T10:36:22Z</time>
      </trkpt>
      <trkpt lat="56.107241017743945" lon="-4.16385599412024">
        <ele>137.13</ele>
        <time>2023-09-02T10:36:23Z</time>
      </trkpt>
      <trkpt lat="56.10714596696198" lon="-4.164012987166643">
        <ele>136.16</ele>
        <time>2023-09-02T10:36:24Z</time>
      </trkpt>
      <trkpt lat="56.107044965028763" lon="-4.164180038496852">
        <ele>135.19999999999999</ele>
        <time>2023-09-02T10:36:25Z</time>
      </trkpt>
      <trkpt lat="56.106336023658514" lon="-4.165353002026677">
        <ele>128.47</ele>
        <time>2023-09-02T10:36:33Z</time>
      </trkpt>
      <trkpt lat="56.106222029775381" lon="-4.165541008114815">
        <ele>128.47</ele>
        <time>2023-09-02T10:36:35Z</time>
      </trkpt>
      <trkpt lat="56.106147011741996" lon="-4.165587024763227">
        <ele>127.98999999999999</ele>
        <time>2023-09-02T10:36:36Z</time>
      </trkpt>
      <trkpt lat="56.106063025072217" lon="-4.165626000612974">
        <ele>127.51000000000001</ele>
        <time>2023-09-02T10:36:37Z</time>
      </trkpt>
      <trkpt lat="56.105688018724322" lon="-4.165801014751196">
        <ele>127.03</ele>
        <time>2023-09-02T10:36:41Z</time>
      </trkpt>
      <trkpt lat="56.105184014886618" lon="-4.166005030274391">
        <ele>127.51000000000001</ele>
        <time>2023-09-02T10:36:47Z</time>
      </trkpt>
      <trkpt lat="56.105094999074936" lon="-4.166002012789249">
        <ele>127.98999999999999</ele>
        <time>2023-09-02T10:36:48Z</time>
      </trkpt>
      <trkpt lat="56.104623014107347" lon="-4.165988015010953">
        <ele>128.94999999999999</ele>
        <time>2023-09-02T10:36:53Z</time>
      </trkpt>
      <trkpt lat="56.104560988023877" lon="-4.165986003354192">
        <ele>129.43000000000001</ele>
        <time>2023-09-02T10:36:54Z</time>
      </trkpt>
      <trkpt lat="56.104499967768788" lon="-4.166027996689081">
        <ele>129.43000000000001</ele>
        <time>2023-09-02T10:36:55Z</time>
      </trkpt>
      <trkpt lat="56.104378011077642" lon="-4.166112989187241">
        <ele>130.40000000000001</ele>
        <time>2023-09-02T10:36:57Z</time>
      </trkpt>
      <trkpt lat="56.104333000257611" lon="-4.166195970028639">
        <ele>130.40000000000001</ele>
        <time>2023-09-02T10:36:58Z</time>
      </trkpt>
      <trkpt lat="56.104303998872638" lon="-4.166331002488732">
        <ele>130.40000000000001</ele>
        <time>2023-09-02T10:36:59Z</time>
      </trkpt>
      <trkpt lat="56.10413602553308" lon="-4.16710096411407">
        <ele>129.91999999999999</ele>
        <time>2023-09-02T10:37:04Z</time>
      </trkpt>
      <trkpt lat="56.104086991399527" lon="-4.167217975482345">
        <ele>129.91999999999999</ele>
        <time>2023-09-02T10:37:05Z</time>
      </trkpt>
      <trkpt lat="56.104024965316057" lon="-4.167350996285677">
        <ele>129.43000000000001</ele>
        <time>2023-09-02T10:37:06Z</time>
      </trkpt>
      <trkpt lat="56.103549962863326" lon="-4.168363027274609">
        <ele>127.03</ele>
        <time>2023-09-02T10:37:13Z</time>
      </trkpt>
      <trkpt lat="56.103438986465335" lon="-4.168541980907321">
        <ele>127.51000000000001</ele>
        <time>2023-09-02T10:37:15Z</time>
      </trkpt>
      <trkpt lat="56.103362962603569" lon="-4.168611969798803">
        <ele>127.98999999999999</ele>
        <time>2023-09-02T10:37:16Z</time>
      </trkpt>
      <trkpt lat="56.103276964277029" lon="-4.168692016974092">
        <ele>128.47</ele>
        <time>2023-09-02T10:37:17Z</time>
      </trkpt>
      <trkpt lat="56.102835992351174" lon="-4.169113961979747">
        <ele>132.31999999999999</ele>
        <time>2023-09-02T10:37:22Z</time>
      </trkpt>
      <trkpt lat="56.102087991312146" lon="-4.170113001018763">
        <ele>137.13</ele>
        <time>2023-09-02T10:37:32Z</time>
      </trkpt>
      <trkpt lat="56.101612988859415" lon="-4.170915987342596">
        <ele>138.56999999999999</ele>
        <time>2023-09-02T10:37:39Z</time>
      </trkpt>
      <trkpt lat="56.101569989696145" lon="-4.171021012589335">
        <ele>139.05000000000001</ele>
        <time>2023-09-02T10:37:40Z</time>
      </trkpt>
      <trkpt lat="56.101492960005999" lon="-4.171259980648756">
        <ele>139.05000000000001</ele>
        <time>2023-09-02T10:37:42Z</time>
      </trkpt>
      <trkpt lat="56.101462030783296" lon="-4.171414962038398">
        <ele>139.05000000000001</ele>
        <time>2023-09-02T10:37:43Z</time>
      </trkpt>
      <trkpt lat="56.101426994428039" lon="-4.171587964519858">
        <ele>139.53</ele>
        <time>2023-09-02T10:37:44Z</time>
      </trkpt>
      <trkpt lat="56.101390030235052" lon="-4.171773036941886">
        <ele>139.53</ele>
        <time>2023-09-02T10:37:45Z</time>
      </trkpt>
      <trkpt lat="56.101350970566273" lon="-4.171968000009656">
        <ele>139.53</ele>
        <time>2023-09-02T10:37:46Z</time>
      </trkpt>
      <trkpt lat="56.100952997803688" lon="-4.17399600148201">
        <ele>141.93000000000001</ele>
        <time>2023-09-02T10:37:57Z</time>
      </trkpt>
      <trkpt lat="56.100453017279506" lon="-4.176201028749347">
        <ele>143.84999999999999</ele>
        <time>2023-09-02T10:38:09Z</time>
      </trkpt>
      <trkpt lat="56.100211031734943" lon="-4.176980964839459">
        <ele>144.34</ele>
        <time>2023-09-02T10:38:13Z</time>
      </trkpt>
      <trkpt lat="56.100001987069845" lon="-4.177532996982336">
        <ele>143.84999999999999</ele>
        <time>2023-09-02T10:38:16Z</time>
      </trkpt>
      <trkpt lat="56.099960999563336" lon="-4.177722008898854">
        <ele>143.84999999999999</ele>
        <time>2023-09-02T10:38:17Z</time>
      </trkpt>
      <trkpt lat="56.099922023713589" lon="-4.17790599167347">
        <ele>143.37</ele>
        <time>2023-09-02T10:38:18Z</time>
      </trkpt>
      <trkpt lat="56.099592028185725" lon="-4.178946018218994">
        <ele>141.93000000000001</ele>
        <time>2023-09-02T10:38:26Z</time>
      </trkpt>
      <trkpt lat="56.099464036524296" lon="-4.179323958232999">
        <ele>139.05000000000001</ele>
        <time>2023-09-02T10:38:33Z</time>
      </trkpt>
      <trkpt lat="56.099434029310942" lon="-4.1794119682163">
        <ele>137.61000000000001</ele>
        <time>2023-09-02T10:38:54Z</time>
      </trkpt>
      <trkpt lat="56.099390024319291" lon="-4.180127028375864">
        <ele>138.56999999999999</ele>
        <time>2023-09-02T10:39:03Z</time>
      </trkpt>
      <trkpt lat="56.099282987415791" lon="-4.181199995800853">
        <ele>140.97</ele>
        <time>2023-09-02T10:39:10Z</time>
      </trkpt>
      <trkpt lat="56.098957015201449" lon="-4.182987017557025">
        <ele>145.30000000000001</ele>
        <time>2023-09-02T10:39:20Z</time>
      </trkpt>
      <trkpt lat="56.098558958619833" lon="-4.185004960745573">
        <ele>146.25999999999999</ele>
        <time>2023-09-02T10:39:30Z</time>
      </trkpt>
      <trkpt lat="56.098069036379457" lon="-4.187162965536118">
        <ele>147.69999999999999</ele>
        <time>2023-09-02T10:39:41Z</time>
      </trkpt>
      <trkpt lat="56.097248028963804" lon="-4.19054196216166">
        <ele>146.74000000000001</ele>
        <time>2023-09-02T10:39:56Z</time>
      </trkpt>
      <trkpt lat="56.096742013469338" lon="-4.192738020792604">
        <ele>146.74000000000001</ele>
        <time>2023-09-02T10:40:06Z</time>
      </trkpt>
      <trkpt lat="56.09633800573647" lon="-4.194596037268639">
        <ele>149.62</ele>
        <time>2023-09-02T10:40:15Z</time>
      </trkpt>
      <trkpt lat="56.096215965226293" lon="-4.19515703804791">
        <ele>150.58000000000001</ele>
        <time>2023-09-02T10:40:18Z</time>
      </trkpt>
      <trkpt lat="56.095797959715128" lon="-4.196683969348669">
        <ele>153.94999999999999</ele>
        <time>2023-09-02T10:40:27Z</time>
      </trkpt>
      <trkpt lat="56.095738029107451" lon="-4.196795029565692">
        <ele>154.43000000000001</ele>
        <time>2023-09-02T10:40:28Z</time>
      </trkpt>
      <trkpt lat="56.095653036609292" lon="-4.196906005963683">
        <ele>154.91</ele>
        <time>2023-09-02T10:40:29Z</time>
      </trkpt>
      <trkpt lat="56.095556979998946" lon="-4.19702997431159">
        <ele>155.38999999999999</ele>
        <time>2023-09-02T10:40:30Z</time>
      </trkpt>
      <trkpt lat="56.095368973910809" lon="-4.197273971512914">
        <ele>157.31</ele>
        <time>2023-09-02T10:40:32Z</time>
      </trkpt>
      <trkpt lat="56.095286998897791" lon="-4.197381008416414">
        <ele>158.27000000000001</ele>
        <time>2023-09-02T10:40:33Z</time>
      </trkpt>
      <trkpt lat="56.095209969207644" lon="-4.197481004521251">
        <ele>158.75</ele>
        <time>2023-09-02T10:40:34Z</time>
      </trkpt>
      <trkpt lat="56.095135034993291" lon="-4.197583012282848">
        <ele>159.72</ele>
        <time>2023-09-02T10:40:35Z</time>
      </trkpt>
      <trkpt lat="56.095073008909822" lon="-4.197706980630755">
        <ele>160.68000000000001</ele>
        <time>2023-09-02T10:40:36Z</time>
      </trkpt>
      <trkpt lat="56.094649974256754" lon="-4.19853201135993">
        <ele>162.59999999999999</ele>
        <time>2023-09-02T10:40:42Z</time>
      </trkpt>
      <trkpt lat="56.094065001234412" lon="-4.199400041252375">
        <ele>165.47999999999999</ele>
        <time>2023-09-02T10:40:50Z</time>
      </trkpt>
      <trkpt lat="56.094005992636085" lon="-4.199532978236675">
        <ele>165.96000000000001</ele>
        <time>2023-09-02T10:40:51Z</time>
      </trkpt>
      <trkpt lat="56.093971962109208" lon="-4.199673039838672">
        <ele>166.93000000000001</ele>
        <time>2023-09-02T10:40:52Z</time>
      </trkpt>
      <trkpt lat="56.093933992087841" lon="-4.199822992086411">
        <ele>167.41</ele>
        <time>2023-09-02T10:40:53Z</time>
      </trkpt>
      <trkpt lat="56.093894010409713" lon="-4.199981996789575">
        <ele>167.88999999999999</ele>
        <time>2023-09-02T10:40:54Z</time>
      </trkpt>
      <trkpt lat="56.093767024576664" lon="-4.200682975351811">
        <ele>168.84999999999999</ele>
        <time>2023-09-02T10:40:58Z</time>
      </trkpt>
      <trkpt lat="56.093656970188022" lon="-4.201010037213564">
        <ele>168.84999999999999</ele>
        <time>2023-09-02T10:41:00Z</time>
      </trkpt>
      <trkpt lat="56.093593016266823" lon="-4.20115303248167">
        <ele>169.33000000000001</ele>
        <time>2023-09-02T10:41:01Z</time>
      </trkpt>
      <trkpt lat="56.093002008274198" lon="-4.202472008764744">
        <ele>168.37</ele>
        <time>2023-09-02T10:41:09Z</time>
      </trkpt>
      <trkpt lat="56.092374036088586" lon="-4.203873965889216">
        <ele>170.77000000000001</ele>
        <time>2023-09-02T10:41:19Z</time>
      </trkpt>
      <trkpt lat="56.091828038915992" lon="-4.205093029886484">
        <ele>172.21000000000001</ele>
        <time>2023-09-02T10:41:28Z</time>
      </trkpt>
      <trkpt lat="56.091795014217496" lon="-4.205165030434728">
        <ele>172.21000000000001</ele>
        <time>2023-09-02T10:41:29Z</time>
      </trkpt>
      <trkpt lat="56.091770036146045" lon="-4.205223033204675">
        <ele>171.72999999999999</ele>
        <time>2023-09-02T10:41:30Z</time>
      </trkpt>
      <trkpt lat="56.091746985912323" lon="-4.205273995175958">
        <ele>171.72999999999999</ele>
        <time>2023-09-02T10:41:31Z</time>
      </trkpt>
      <trkpt lat="56.091666016727686" lon="-4.205454960465431">
        <ele>171.72999999999999</ele>
        <time>2023-09-02T10:41:40Z</time>
      </trkpt>
      <trkpt lat="56.091599967330694" lon="-4.205612959340215">
        <ele>170.77000000000001</ele>
        <time>2023-09-02T10:41:54Z</time>
      </trkpt>
      <trkpt lat="56.091494020074606" lon="-4.205908002331853">
        <ele>168.84999999999999</ele>
        <time>2023-09-02T10:42:22Z</time>
      </trkpt>
      <trkpt lat="56.091242982074618" lon="-4.206604035571218">
        <ele>167.88999999999999</ele>
        <time>2023-09-02T10:42:27Z</time>
      </trkpt>
      <trkpt lat="56.090783989056945" lon="-4.208445036783814">
        <ele>164.03999999999999</ele>
        <time>2023-09-02T10:42:38Z</time>
      </trkpt>
      <trkpt lat="56.090140007436275" lon="-4.210040029138327">
        <ele>162.59999999999999</ele>
        <time>2023-09-02T10:42:49Z</time>
      </trkpt>
      <trkpt lat="56.089490996673703" lon="-4.21133897267282">
        <ele>160.19999999999999</ele>
        <time>2023-09-02T10:42:57Z</time>
      </trkpt>
      <trkpt lat="56.088770991191268" lon="-4.212894989177585">
        <ele>161.63999999999999</ele>
        <time>2023-09-02T10:43:08Z</time>
      </trkpt>
      <trkpt lat="56.088296994566917" lon="-4.214145988225937">
        <ele>164.52000000000001</ele>
        <time>2023-09-02T10:43:16Z</time>
      </trkpt>
      <trkpt lat="56.087821992114186" lon="-4.216145994141698">
        <ele>160.68000000000001</ele>
        <time>2023-09-02T10:43:26Z</time>
      </trkpt>
      <trkpt lat="56.087244981899858" lon="-4.217672003433108">
        <ele>156.34999999999999</ele>
        <time>2023-09-02T10:43:34Z</time>
      </trkpt>
      <trkpt lat="56.086236974224448" lon="-4.219740992411971">
        <ele>161.63999999999999</ele>
        <time>2023-09-02T10:43:47Z</time>
      </trkpt>
      <trkpt lat="56.085517974570394" lon="-4.221416031941772">
        <ele>159.72</ele>
        <time>2023-09-02T10:43:57Z</time>
      </trkpt>
      <trkpt lat="56.084928978234529" lon="-4.223244041204453">
        <ele>152.99000000000001</ele>
        <time>2023-09-02T10:44:07Z</time>
      </trkpt>
      <trkpt lat="56.084898971021175" lon="-4.223422994837165">
        <ele>152.50999999999999</ele>
        <time>2023-09-02T10:44:08Z</time>
      </trkpt>
      <trkpt lat="56.084631001576781" lon="-4.225032990798354">
        <ele>150.09999999999999</ele>
        <time>2023-09-02T10:44:19Z</time>
      </trkpt>
      <trkpt lat="56.084425980225205" lon="-4.226239984855056">
        <ele>147.69999999999999</ele>
        <time>2023-09-02T10:44:26Z</time>
      </trkpt>
      <trkpt lat="56.084323972463608" lon="-4.226560005918145">
        <ele>147.22</ele>
        <time>2023-09-02T10:44:28Z</time>
      </trkpt>
      <trkpt lat="56.08421802520752" lon="-4.226862005889416">
        <ele>146.74000000000001</ele>
        <time>2023-09-02T10:44:30Z</time>
      </trkpt>
      <trkpt lat="56.08404996804893" lon="-4.227196024730802">
        <ele>145.78</ele>
        <time>2023-09-02T10:44:33Z</time>
      </trkpt>
      <trkpt lat="56.083371033892035" lon="-4.228127002716065">
        <ele>142.88999999999999</ele>
        <time>2023-09-02T10:44:41Z</time>
      </trkpt>
      <trkpt lat="56.082723028957844" lon="-4.228967037051916">
        <ele>145.30000000000001</ele>
        <time>2023-09-02T10:44:48Z</time>
      </trkpt>
      <trkpt lat="56.082148030400276" lon="-4.230027012526989">
        <ele>149.13999999999999</ele>
        <time>2023-09-02T10:44:55Z</time>
      </trkpt>
      <trkpt lat="56.082086004316807" lon="-4.230190040543675">
        <ele>149.62</ele>
        <time>2023-09-02T10:44:56Z</time>
      </trkpt>
      <trkpt lat="56.08202900737524" lon="-4.230361031368375">
        <ele>149.62</ele>
        <time>2023-09-02T10:44:57Z</time>
      </trkpt>
      <trkpt lat="56.082024984061718" lon="-4.230535961687565">
        <ele>149.62</ele>
        <time>2023-09-02T10:44:58Z</time>
      </trkpt>
      <trkpt lat="56.082020960748196" lon="-4.230712987482548">
        <ele>149.62</ele>
        <time>2023-09-02T10:44:59Z</time>
      </trkpt>
      <trkpt lat="56.082017021253705" lon="-4.230891019105911">
        <ele>149.13999999999999</ele>
        <time>2023-09-02T10:45:00Z</time>
      </trkpt>
      <trkpt lat="56.082011992111802" lon="-4.231078019365668">
        <ele>149.13999999999999</ele>
        <time>2023-09-02T10:45:01Z</time>
      </trkpt>
      <trkpt lat="56.081989025697112" lon="-4.23204998485744">
        <ele>146.25999999999999</ele>
        <time>2023-09-02T10:45:06Z</time>
      </trkpt>
      <trkpt lat="56.081914007663727" lon="-4.23254300840199">
        <ele>144.34</ele>
        <time>2023-09-02T10:45:09Z</time>
      </trkpt>
      <trkpt lat="56.081882994621992" lon="-4.23265197314322">
        <ele>143.84999999999999</ele>
        <time>2023-09-02T10:45:10Z</time>
      </trkpt>
      <trkpt lat="56.081830020993948" lon="-4.232774013653398">
        <ele>143.37</ele>
        <time>2023-09-02T10:45:11Z</time>
      </trkpt>
      <trkpt lat="56.081773024052382" lon="-4.232906028628349">
        <ele>142.41</ele>
        <time>2023-09-02T10:45:12Z</time>
      </trkpt>
      <trkpt lat="56.081703035160899" lon="-4.233025973662734">
        <ele>141.93000000000001</ele>
        <time>2023-09-02T10:45:13Z</time>
      </trkpt>
      <trkpt lat="56.081071961671114" lon="-4.233955023810267">
        <ele>136.16</ele>
        <time>2023-09-02T10:45:21Z</time>
      </trkpt>
      <trkpt lat="56.081004990264773" lon="-4.234054014086723">
        <ele>135.68000000000001</ele>
        <time>2023-09-02T10:45:22Z</time>
      </trkpt>
      <trkpt lat="56.080937013030052" lon="-4.23413498327136">
        <ele>135.19999999999999</ele>
        <time>2023-09-02T10:45:23Z</time>
      </trkpt>
      <trkpt lat="56.080806003883481" lon="-4.234273033216596">
        <ele>134.72</ele>
        <time>2023-09-02T10:45:25Z</time>
      </trkpt>
      <trkpt lat="56.080734003335238" lon="-4.234347967430949">
        <ele>134.24000000000001</ele>
        <time>2023-09-02T10:45:26Z</time>
      </trkpt>
      <trkpt lat="56.080659991130233" lon="-4.234424997121096">
        <ele>133.75999999999999</ele>
        <time>2023-09-02T10:45:27Z</time>
      </trkpt>
      <trkpt lat="56.080582039430737" lon="-4.234506972134113">
        <ele>133.28</ele>
        <time>2023-09-02T10:45:28Z</time>
      </trkpt>
      <trkpt lat="56.080507021397352" lon="-4.234586013481021">
        <ele>133.28</ele>
        <time>2023-09-02T10:45:29Z</time>
      </trkpt>
      <trkpt lat="56.080467961728573" lon="-4.234702019020915">
        <ele>132.80000000000001</ele>
        <time>2023-09-02T10:45:30Z</time>
      </trkpt>
      <trkpt lat="56.080423034727573" lon="-4.234835961833596">
        <ele>132.31999999999999</ele>
        <time>2023-09-02T10:45:31Z</time>
      </trkpt>
      <trkpt lat="56.080379029735923" lon="-4.234967976808548">
        <ele>132.31999999999999</ele>
        <time>2023-09-02T10:45:32Z</time>
      </trkpt>
      <trkpt lat="56.080340975895524" lon="-4.235081970691681">
        <ele>132.31999999999999</ele>
        <time>2023-09-02T10:45:33Z</time>
      </trkpt>
      <trkpt lat="56.080312980338931" lon="-4.235165035352111">
        <ele>131.84</ele>
        <time>2023-09-02T10:45:34Z</time>
      </trkpt>
      <trkpt lat="56.080312980338931" lon="-4.235165035352111">
        <ele>131.36000000000001</ele>
        <time>2023-09-02T10:45:35Z</time>
      </trkpt>
      <trkpt lat="56.080249026417732" lon="-4.235262013971806">
        <ele>131.36000000000001</ele>
        <time>2023-09-02T10:45:36Z</time>
      </trkpt>
      <trkpt lat="56.080249026417732" lon="-4.235262013971806">
        <ele>130.88</ele>
        <time>2023-09-02T10:45:44Z</time>
      </trkpt>
      <trkpt lat="56.08022497035563" lon="-4.235297972336412">
        <ele>129.43000000000001</ele>
        <time>2023-09-02T10:45:50Z</time>
      </trkpt>
      <trkpt lat="56.080184988677502" lon="-4.23535798676312">
        <ele>128.94999999999999</ele>
        <time>2023-09-02T10:45:51Z</time>
      </trkpt>
      <trkpt lat="56.080142995342612" lon="-4.235367039218545">
        <ele>127.98999999999999</ele>
        <time>2023-09-02T10:45:52Z</time>
      </trkpt>
      <trkpt lat="56.08005004003644" lon="-4.235386988148093">
        <ele>127.03</ele>
        <time>2023-09-02T10:45:53Z</time>
      </trkpt>
      <trkpt lat="56.079945014789701" lon="-4.235410038381815">
        <ele>127.03</ele>
        <time>2023-09-02T10:45:54Z</time>
      </trkpt>
      <trkpt lat="56.078940024599433" lon="-4.235635008662939">
        <ele>127.03</ele>
        <time>2023-09-02T10:46:01Z</time>
      </trkpt>
      <trkpt lat="56.077432036399841" lon="-4.236321989446878">
        <ele>128.94999999999999</ele>
        <time>2023-09-02T10:46:11Z</time>
      </trkpt>
      <trkpt lat="56.076520001515746" lon="-4.236694984138012">
        <ele>124.63</ele>
        <time>2023-09-02T10:46:18Z</time>
      </trkpt>
      <trkpt lat="56.076395027339458" lon="-4.236702024936676">
        <ele>123.67</ele>
        <time>2023-09-02T10:46:19Z</time>
      </trkpt>
      <trkpt lat="56.076279021799564" lon="-4.23668903298676">
        <ele>123.19</ele>
        <time>2023-09-02T10:46:20Z</time>
      </trkpt>
      <trkpt lat="56.076168967410922" lon="-4.236577972769737">
        <ele>122.70999999999999</ele>
        <time>2023-09-02T10:46:21Z</time>
      </trkpt>
      <trkpt lat="56.076058996841311" lon="-4.236466996371746">
        <ele>121.73999999999999</ele>
        <time>2023-09-02T10:46:22Z</time>
      </trkpt>
      <trkpt lat="56.075932011008263" lon="-4.236337998881936">
        <ele>120.78</ele>
        <time>2023-09-02T10:46:23Z</time>
      </trkpt>
      <trkpt lat="56.074784025549889" lon="-4.235179033130407">
        <ele>113.09</ele>
        <time>2023-09-02T10:46:30Z</time>
      </trkpt>
      <trkpt lat="56.074091009795666" lon="-4.234479982405901">
        <ele>109.73</ele>
        <time>2023-09-02T10:46:35Z</time>
      </trkpt>
      <trkpt lat="56.074005011469126" lon="-4.23439297825098">
        <ele>109.25</ele>
        <time>2023-09-02T10:46:36Z</time>
      </trkpt>
      <trkpt lat="56.0738630220294" lon="-4.234401024878025">
        <ele>108.77</ele>
        <time>2023-09-02T10:46:37Z</time>
      </trkpt>
      <trkpt lat="56.073736036196351" lon="-4.234408987686038">
        <ele>108.29000000000001</ele>
        <time>2023-09-02T10:46:38Z</time>
      </trkpt>
      <trkpt lat="56.073608966544271" lon="-4.234416028484702">
        <ele>107.81</ele>
        <time>2023-09-02T10:46:39Z</time>
      </trkpt>
      <trkpt lat="56.073479969054461" lon="-4.234423991292715">
        <ele>107.81</ele>
        <time>2023-09-02T10:46:40Z</time>
      </trkpt>
      <trkpt lat="56.072786031290889" lon="-4.23441301099956">
        <ele>105.40000000000001</ele>
        <time>2023-09-02T10:46:45Z</time>
      </trkpt>
      <trkpt lat="56.071258010342717" lon="-4.233756037428975">
        <ele>101.08</ele>
        <time>2023-09-02T10:46:56Z</time>
      </trkpt>
      <trkpt lat="56.070259977132082" lon="-4.232983980327845">
        <ele>99.150000000000006</ele>
        <time>2023-09-02T10:47:05Z</time>
      </trkpt>
      <trkpt lat="56.068841004744172" lon="-4.232088038697839">
        <ele>94.829999999999998</ele>
        <time>2023-09-02T10:47:16Z</time>
      </trkpt>
      <trkpt lat="56.068070037290454" lon="-4.231665004044771">
        <ele>92.900000000000006</ele>
        <time>2023-09-02T10:47:22Z</time>
      </trkpt>
      <trkpt lat="56.067961994558573" lon="-4.231541035696864">
        <ele>93.390000000000001</ele>
        <time>2023-09-02T10:47:23Z</time>
      </trkpt>
      <trkpt lat="56.0678690392524" lon="-4.231400974094868">
        <ele>93.390000000000001</ele>
        <time>2023-09-02T10:47:24Z</time>
      </trkpt>
      <trkpt lat="56.066890032961965" lon="-4.229736998677254">
        <ele>95.310000000000002</ele>
        <time>2023-09-02T10:47:35Z</time>
      </trkpt>
      <trkpt lat="56.06668702326715" lon="-4.229389987885952">
        <ele>95.790000000000006</ele>
        <time>2023-09-02T10:47:37Z</time>
      </trkpt>
      <trkpt lat="56.066588032990694" lon="-4.229221008718014">
        <ele>95.790000000000006</ele>
        <time>2023-09-02T10:47:38Z</time>
      </trkpt>
      <trkpt lat="56.066374965012074" lon="-4.228936024010181">
        <ele>95.790000000000006</ele>
        <time>2023-09-02T10:47:40Z</time>
      </trkpt>
      <trkpt lat="56.065397970378399" lon="-4.227872025221586">
        <ele>97.230000000000004</ele>
        <time>2023-09-02T10:47:49Z</time>
      </trkpt>
      <trkpt lat="56.06492699123919" lon="-4.227478997781873">
        <ele>97.709999999999994</ele>
        <time>2023-09-02T10:47:53Z</time>
      </trkpt>
      <trkpt lat="56.064807968214154" lon="-4.227465000003576">
        <ele>97.709999999999994</ele>
        <time>2023-09-02T10:47:54Z</time>
      </trkpt>
      <trkpt lat="56.06466799043119" lon="-4.227469023317099">
        <ele>97.709999999999994</ele>
        <time>2023-09-02T10:47:55Z</time>
      </trkpt>
      <trkpt lat="56.064509991556406" lon="-4.22747396863997">
        <ele>97.230000000000004</ele>
        <time>2023-09-02T10:47:56Z</time>
      </trkpt>
      <trkpt lat="56.064340006560087" lon="-4.227480003610253">
        <ele>96.75</ele>
        <time>2023-09-02T10:47:57Z</time>
      </trkpt>
      <trkpt lat="56.06324901804328" lon="-4.22751503996551">
        <ele>92.900000000000006</ele>
        <time>2023-09-02T10:48:04Z</time>
      </trkpt>
      <trkpt lat="56.061987038701773" lon="-4.227617969736457">
        <ele>90.980000000000004</ele>
        <time>2023-09-02T10:48:13Z</time>
      </trkpt>
      <trkpt lat="56.061838008463383" lon="-4.227633979171515">
        <ele>90.980000000000004</ele>
        <time>2023-09-02T10:48:14Z</time>
      </trkpt>
      <trkpt lat="56.060531018301845" lon="-4.228551965206862">
        <ele>88.099999999999994</ele>
        <time>2023-09-02T10:48:25Z</time>
      </trkpt>
      <trkpt lat="56.060323985293508" lon="-4.22869797796011">
        <ele>87.140000000000001</ele>
        <time>2023-09-02T10:48:27Z</time>
      </trkpt>
      <trkpt lat="56.060248967260122" lon="-4.228749023750424">
        <ele>86.659999999999997</ele>
        <time>2023-09-02T10:48:28Z</time>
      </trkpt>
      <trkpt lat="56.060185013338923" lon="-4.228746006265283">
        <ele>86.659999999999997</ele>
        <time>2023-09-02T10:48:29Z</time>
      </trkpt>
      <trkpt lat="56.060104966163635" lon="-4.22874097712338">
        <ele>85.689999999999998</ele>
        <time>2023-09-02T10:48:36Z</time>
      </trkpt>
      <trkpt lat="56.059948978945613" lon="-4.228732008486986">
        <ele>84.730000000000004</ele>
        <time>2023-09-02T10:48:40Z</time>
      </trkpt>
      <trkpt lat="56.059870021417737" lon="-4.228715999051929">
        <ele>84.730000000000004</ele>
        <time>2023-09-02T10:48:41Z</time>
      </trkpt>
      <trkpt lat="56.059802966192365" lon="-4.228665037080646">
        <ele>84.730000000000004</ele>
        <time>2023-09-02T10:48:42Z</time>
      </trkpt>
      <trkpt lat="56.059729037806392" lon="-4.228608040139079">
        <ele>84.730000000000004</ele>
        <time>2023-09-02T10:48:43Z</time>
      </trkpt>
      <trkpt lat="56.059637004509568" lon="-4.228537967428565">
        <ele>84.730000000000004</ele>
        <time>2023-09-02T10:48:44Z</time>
      </trkpt>
      <trkpt lat="56.0595110245049" lon="-4.228425985202193">
        <ele>84.730000000000004</ele>
        <time>2023-09-02T10:48:45Z</time>
      </trkpt>
      <trkpt lat="56.059436006471515" lon="-4.228239990770817">
        <ele>84.730000000000004</ele>
        <time>2023-09-02T10:48:46Z</time>
      </trkpt>
      <trkpt lat="56.059353025630116" lon="-4.228037986904383">
        <ele>84.730000000000004</ele>
        <time>2023-09-02T10:48:47Z</time>
      </trkpt>
      <trkpt lat="56.058992017060518" lon="-4.227285040542483">
        <ele>85.689999999999998</ele>
        <time>2023-09-02T10:48:51Z</time>
      </trkpt>
      <trkpt lat="56.058895038440824" lon="-4.227136010304093">
        <ele>86.180000000000007</ele>
        <time>2023-09-02T10:48:52Z</time>
      </trkpt>
      <trkpt lat="56.058819014579058" lon="-4.227029979228973">
        <ele>86.659999999999997</ele>
        <time>2023-09-02T10:48:53Z</time>
      </trkpt>
      <trkpt lat="56.05876000598073" lon="-4.226959990337491">
        <ele>87.140000000000001</ele>
        <time>2023-09-02T10:48:54Z</time>
      </trkpt>
      <trkpt lat="56.058694962412119" lon="-4.226903999224305">
        <ele>87.140000000000001</ele>
        <time>2023-09-02T10:48:55Z</time>
      </trkpt>
      <trkpt lat="56.058632014319301" lon="-4.22685001976788">
        <ele>87.140000000000001</ele>
        <time>2023-09-02T10:48:56Z</time>
      </trkpt>
      <trkpt lat="56.058580968528986" lon="-4.226823030039668">
        <ele>87.140000000000001</ele>
        <time>2023-09-02T10:48:57Z</time>
      </trkpt>
      <trkpt lat="56.058510979637504" lon="-4.226793022826314">
        <ele>87.140000000000001</ele>
        <time>2023-09-02T10:48:58Z</time>
      </trkpt>
      <trkpt lat="56.058448031544685" lon="-4.226769972592592">
        <ele>87.140000000000001</ele>
        <time>2023-09-02T10:48:59Z</time>
      </trkpt>
      <trkpt lat="56.058383993804455" lon="-4.226753963157535">
        <ele>87.140000000000001</ele>
        <time>2023-09-02T10:49:00Z</time>
      </trkpt>
      <trkpt lat="56.058316016569734" lon="-4.226737031713128">
        <ele>87.140000000000001</ele>
        <time>2023-09-02T10:49:01Z</time>
      </trkpt>
      <trkpt lat="56.057700030505657" lon="-4.226595964282751">
        <ele>83.290000000000006</ele>
        <time>2023-09-02T10:49:09Z</time>
      </trkpt>
      <trkpt lat="56.057627024129033" lon="-4.226580960676074">
        <ele>82.810000000000002</ele>
        <time>2023-09-02T10:49:10Z</time>
      </trkpt>
      <trkpt lat="56.057166019454598" lon="-4.226489011198282">
        <ele>82.810000000000002</ele>
        <time>2023-09-02T10:49:16Z</time>
      </trkpt>
      <trkpt lat="56.057095024734735" lon="-4.226475013419986">
        <ele>82.810000000000002</ele>
        <time>2023-09-02T10:49:17Z</time>
      </trkpt>
      <trkpt lat="56.05702000670135" lon="-4.226460009813309">
        <ele>82.810000000000002</ele>
        <time>2023-09-02T10:49:18Z</time>
      </trkpt>
      <trkpt lat="56.056939959526062" lon="-4.226444000378251">
        <ele>82.810000000000002</ele>
        <time>2023-09-02T10:49:19Z</time>
      </trkpt>
      <trkpt lat="56.056858990341425" lon="-4.226427990943193">
        <ele>82.810000000000002</ele>
        <time>2023-09-02T10:49:20Z</time>
      </trkpt>
      <trkpt lat="56.056779026985168" lon="-4.226412987336516">
        <ele>82.810000000000002</ele>
        <time>2023-09-02T10:49:21Z</time>
      </trkpt>
      <trkpt lat="56.056700991466641" lon="-4.226397983729839">
        <ele>82.810000000000002</ele>
        <time>2023-09-02T10:49:22Z</time>
      </trkpt>
      <trkpt lat="56.05590202845633" lon="-4.225919041782618">
        <ele>85.209999999999994</ele>
        <time>2023-09-02T10:49:33Z</time>
      </trkpt>
      <trkpt lat="56.055675968527794" lon="-4.225756013765931">
        <ele>85.209999999999994</ele>
        <time>2023-09-02T10:49:36Z</time>
      </trkpt>
      <trkpt lat="56.055605979636312" lon="-4.225704967975617">
        <ele>85.209999999999994</ele>
        <time>2023-09-02T10:49:37Z</time>
      </trkpt>
      <trkpt lat="56.055401964113116" lon="-4.225526014342904">
        <ele>85.689999999999998</ele>
        <time>2023-09-02T10:49:40Z</time>
      </trkpt>
      <trkpt lat="56.055331975221634" lon="-4.225463988259435">
        <ele>85.689999999999998</ele>
        <time>2023-09-02T10:49:41Z</time>
      </trkpt>
      <trkpt lat="56.055053025484085" lon="-4.225212028250098">
        <ele>85.689999999999998</ele>
        <time>2023-09-02T10:49:45Z</time>
      </trkpt>
      <trkpt lat="56.054985970258713" lon="-4.225151007995009">
        <ele>85.689999999999998</ele>
        <time>2023-09-02T10:49:46Z</time>
      </trkpt>
      <trkpt lat="56.054365960881114" lon="-4.224610039964318">
        <ele>86.180000000000007</ele>
        <time>2023-09-02T10:49:55Z</time>
      </trkpt>
      <trkpt lat="56.054306030273438" lon="-4.224557988345623">
        <ele>86.659999999999997</ele>
        <time>2023-09-02T10:49:56Z</time>
      </trkpt>
      <trkpt lat="56.053945021703839" lon="-4.224247019737959">
        <ele>88.099999999999994</ele>
        <time>2023-09-02T10:50:01Z</time>
      </trkpt>
      <trkpt lat="56.053871009498835" lon="-4.224182981997728">
        <ele>88.579999999999998</ele>
        <time>2023-09-02T10:50:02Z</time>
      </trkpt>
      <trkpt lat="56.053799008950591" lon="-4.22412196174264">
        <ele>89.060000000000002</ele>
        <time>2023-09-02T10:50:03Z</time>
      </trkpt>
      <trkpt lat="56.053251000121236" lon="-4.223788026720285">
        <ele>92.900000000000006</ele>
        <time>2023-09-02T10:50:12Z</time>
      </trkpt>
      <trkpt lat="56.053201965987682" lon="-4.22377503477037">
        <ele>94.349999999999994</ele>
        <time>2023-09-02T10:50:22Z</time>
      </trkpt>
      <trkpt lat="56.053190985694528" lon="-4.223771011456847">
        <ele>94.829999999999998</ele>
        <time>2023-09-02T10:50:23Z</time>
      </trkpt>
      <trkpt lat="56.053200038149953" lon="-4.22379900701344">
        <ele>95.310000000000002</ele>
        <time>2023-09-02T10:50:24Z</time>
      </trkpt>
      <trkpt lat="56.053219987079501" lon="-4.223867990076542">
        <ele>95.790000000000006</ele>
        <time>2023-09-02T10:50:25Z</time>
      </trkpt>
      <trkpt lat="56.053248988464475" lon="-4.223961029201746">
        <ele>96.269999999999996</ele>
        <time>2023-09-02T10:50:26Z</time>
      </trkpt>
      <trkpt lat="56.053644027560949" lon="-4.225251004099846">
        <ele>99.629999999999995</ele>
        <time>2023-09-02T10:50:36Z</time>
      </trkpt>
      <trkpt lat="56.054096985608339" lon="-4.226729990914464">
        <ele>101.08</ele>
        <time>2023-09-02T10:50:48Z</time>
      </trkpt>
      <trkpt lat="56.054472997784615" lon="-4.227954000234604">
        <ele>101.08</ele>
        <time>2023-09-02T10:50:58Z</time>
      </trkpt>
      <trkpt lat="56.054509961977601" lon="-4.22807696275413">
        <ele>101.08</ele>
        <time>2023-09-02T10:50:59Z</time>
      </trkpt>
      <trkpt lat="56.054980019107461" lon="-4.229612024500966">
        <ele>99.629999999999995</ele>
        <time>2023-09-02T10:51:10Z</time>
      </trkpt>
      <trkpt lat="56.055254023522139" lon="-4.230507966130972">
        <ele>99.150000000000006</ele>
        <time>2023-09-02T10:51:15Z</time>
      </trkpt>
      <trkpt lat="56.055877972394228" lon="-4.232521969825029">
        <ele>98.670000000000002</ele>
        <time>2023-09-02T10:51:25Z</time>
      </trkpt>
      <trkpt lat="56.057050013914704" lon="-4.236322995275259">
        <ele>102.04000000000001</ele>
        <time>2023-09-02T10:51:41Z</time>
      </trkpt>
      <trkpt lat="56.057333992794156" lon="-4.237206028774381">
        <ele>104.44</ele>
        <time>2023-09-02T10:51:45Z</time>
      </trkpt>
      <trkpt lat="56.05742703191936" lon="-4.237335026264191">
        <ele>104.92</ele>
        <time>2023-09-02T10:51:46Z</time>
      </trkpt>
      <trkpt lat="56.057539014145732" lon="-4.237439967691898">
        <ele>104.92</ele>
        <time>2023-09-02T10:51:47Z</time>
      </trkpt>
      <trkpt lat="56.057983003556728" lon="-4.237896027043462">
        <ele>103.48</ele>
        <time>2023-09-02T10:51:51Z</time>
      </trkpt>
      <trkpt lat="56.058047963306308" lon="-4.238054025918245">
        <ele>103</ele>
        <time>2023-09-02T10:51:52Z</time>
      </trkpt>
      <trkpt lat="56.058655986562371" lon="-4.239638959988952">
        <ele>100.11</ele>
        <time>2023-09-02T10:51:59Z</time>
      </trkpt>
      <trkpt lat="56.059097964316607" lon="-4.240928012877703">
        <ele>98.670000000000002</ele>
        <time>2023-09-02T10:52:04Z</time>
      </trkpt>
      <trkpt lat="56.059842025861144" lon="-4.242516970261931">
        <ele>99.150000000000006</ele>
        <time>2023-09-02T10:52:11Z</time>
      </trkpt>
      <trkpt lat="56.059978986158967" lon="-4.242936987429857">
        <ele>99.150000000000006</ele>
        <time>2023-09-02T10:52:13Z</time>
      </trkpt>
      <trkpt lat="56.060014022514224" lon="-4.243061961606145">
        <ele>98.670000000000002</ele>
        <time>2023-09-02T10:52:14Z</time>
      </trkpt>
      <trkpt lat="56.060078982263803" lon="-4.243355998769403">
        <ele>98.189999999999998</ele>
        <time>2023-09-02T10:52:17Z</time>
      </trkpt>
      <trkpt lat="56.060104966163635" lon="-4.243473010137677">
        <ele>97.709999999999994</ele>
        <time>2023-09-02T10:52:19Z</time>
      </trkpt>
      <trkpt lat="56.060112006962299" lon="-4.243505029007793">
        <ele>97.230000000000004</ele>
        <time>2023-09-02T10:52:20Z</time>
      </trkpt>
      <trkpt lat="56.060152994468808" lon="-4.243688005954027">
        <ele>96.75</ele>
        <time>2023-09-02T10:52:32Z</time>
      </trkpt>
      <trkpt lat="56.060237986966968" lon="-4.244074998423457">
        <ele>95.790000000000006</ele>
        <time>2023-09-02T10:52:35Z</time>
      </trkpt>
      <trkpt lat="56.060317028313875" lon="-4.244433995336294">
        <ele>95.310000000000002</ele>
        <time>2023-09-02T10:52:37Z</time>
      </trkpt>
      <trkpt lat="56.060376036912203" lon="-4.244611021131277">
        <ele>94.829999999999998</ele>
        <time>2023-09-02T10:52:38Z</time>
      </trkpt>
      <trkpt lat="56.060448037460446" lon="-4.244772037491202">
        <ele>94.349999999999994</ele>
        <time>2023-09-02T10:52:39Z</time>
      </trkpt>
      <trkpt lat="56.06052003800869" lon="-4.244936993345618">
        <ele>94.349999999999994</ele>
        <time>2023-09-02T10:52:40Z</time>
      </trkpt>
      <trkpt lat="56.060593966394663" lon="-4.245103038847446">
        <ele>93.870000000000005</ele>
        <time>2023-09-02T10:52:41Z</time>
      </trkpt>
      <trkpt lat="56.061099981889129" lon="-4.246348002925515">
        <ele>92.420000000000002</ele>
        <time>2023-09-02T10:52:49Z</time>
      </trkpt>
      <trkpt lat="56.061492003500462" lon="-4.247892033308744">
        <ele>90.5</ele>
        <time>2023-09-02T10:52:57Z</time>
      </trkpt>
      <trkpt lat="56.061602979898453" lon="-4.248267039656639">
        <ele>90.019999999999996</ele>
        <time>2023-09-02T10:52:59Z</time>
      </trkpt>
      <trkpt lat="56.061652014032006" lon="-4.24837801605463">
        <ele>90.019999999999996</ele>
        <time>2023-09-02T10:53:00Z</time>
      </trkpt>
      <trkpt lat="56.061689984053373" lon="-4.24846300855279">
        <ele>89.540000000000006</ele>
        <time>2023-09-02T10:53:01Z</time>
      </trkpt>
      <trkpt lat="56.061728959903121" lon="-4.248552024364471">
        <ele>89.060000000000002</ele>
        <time>2023-09-02T10:53:02Z</time>
      </trkpt>
      <trkpt lat="56.061771959066391" lon="-4.248650008812547">
        <ele>88.579999999999998</ele>
        <time>2023-09-02T10:53:03Z</time>
      </trkpt>
      <trkpt lat="56.061819987371564" lon="-4.248758973553777">
        <ele>88.579999999999998</ele>
        <time>2023-09-02T10:53:04Z</time>
      </trkpt>
      <trkpt lat="56.062125004827976" lon="-4.249449977651238">
        <ele>86.659999999999997</ele>
        <time>2023-09-02T10:53:09Z</time>
      </trkpt>
      <trkpt lat="56.062203040346503" lon="-4.249628009274602">
        <ele>86.659999999999997</ele>
        <time>2023-09-02T10:53:10Z</time>
      </trkpt>
      <trkpt lat="56.062361961230636" lon="-4.250358995050192">
        <ele>85.209999999999994</ele>
        <time>2023-09-02T10:53:14Z</time>
      </trkpt>
      <trkpt lat="56.062445025891066" lon="-4.251440009102225">
        <ele>84.25</ele>
        <time>2023-09-02T10:53:19Z</time>
      </trkpt>
      <trkpt lat="56.062449971213937" lon="-4.251685012131929">
        <ele>84.25</ele>
        <time>2023-09-02T10:53:20Z</time>
      </trkpt>
      <trkpt lat="56.06245500035584" lon="-4.251940995454788">
        <ele>84.25</ele>
        <time>2023-09-02T10:53:21Z</time>
      </trkpt>
      <trkpt lat="56.062401020899415" lon="-4.253643024712801">
        <ele>83.290000000000006</ele>
        <time>2023-09-02T10:53:27Z</time>
      </trkpt>
      <trkpt lat="56.06245500035584" lon="-4.253892973065376">
        <ele>82.810000000000002</ele>
        <time>2023-09-02T10:53:28Z</time>
      </trkpt>
      <trkpt lat="56.062511997297406" lon="-4.254159014672041">
        <ele>82.329999999999998</ele>
        <time>2023-09-02T10:53:29Z</time>
      </trkpt>
      <trkpt lat="56.062571005895734" lon="-4.254433019086719">
        <ele>82.329999999999998</ele>
        <time>2023-09-02T10:53:30Z</time>
      </trkpt>
      <trkpt lat="56.062651975080371" lon="-4.254704006016254">
        <ele>81.849999999999994</ele>
        <time>2023-09-02T10:53:31Z</time>
      </trkpt>
      <trkpt lat="56.062738979235291" lon="-4.254958983510733">
        <ele>81.849999999999994</ele>
        <time>2023-09-02T10:53:32Z</time>
      </trkpt>
      <trkpt lat="56.062821038067341" lon="-4.255199041217566">
        <ele>82.329999999999998</ele>
        <time>2023-09-02T10:53:33Z</time>
      </trkpt>
      <trkpt lat="56.062897983938456" lon="-4.255427028983831">
        <ele>82.810000000000002</ele>
        <time>2023-09-02T10:53:34Z</time>
      </trkpt>
      <trkpt lat="56.062953975051641" lon="-4.255641018971801">
        <ele>83.290000000000006</ele>
        <time>2023-09-02T10:53:35Z</time>
      </trkpt>
      <trkpt lat="56.062997980043292" lon="-4.255870012566447">
        <ele>84.25</ele>
        <time>2023-09-02T10:53:36Z</time>
      </trkpt>
      <trkpt lat="56.063028993085027" lon="-4.256102023646236">
        <ele>85.209999999999994</ele>
        <time>2023-09-02T10:53:37Z</time>
      </trkpt>
      <trkpt lat="56.063050031661987" lon="-4.25634996034205">
        <ele>86.659999999999997</ele>
        <time>2023-09-02T10:53:38Z</time>
      </trkpt>
      <trkpt lat="56.063091019168496" lon="-4.257399961352348">
        <ele>90.019999999999996</ele>
        <time>2023-09-02T10:53:42Z</time>
      </trkpt>
      <trkpt lat="56.063061011955142" lon="-4.258521040901542">
        <ele>92.900000000000006</ele>
        <time>2023-09-02T10:53:46Z</time>
      </trkpt>
      <trkpt lat="56.063061011955142" lon="-4.258785992860794">
        <ele>93.390000000000001</ele>
        <time>2023-09-02T10:53:47Z</time>
      </trkpt>
      <trkpt lat="56.063088001683354" lon="-4.259055973961949">
        <ele>94.349999999999994</ele>
        <time>2023-09-02T10:53:48Z</time>
      </trkpt>
      <trkpt lat="56.06312396004796" lon="-4.259299971163273">
        <ele>94.349999999999994</ele>
        <time>2023-09-02T10:53:49Z</time>
      </trkpt>
      <trkpt lat="56.06316695921123" lon="-4.259541034698486">
        <ele>94.349999999999994</ele>
        <time>2023-09-02T10:53:50Z</time>
      </trkpt>
      <trkpt lat="56.063223034143448" lon="-4.259777991101146">
        <ele>93.870000000000005</ele>
        <time>2023-09-02T10:53:51Z</time>
      </trkpt>
      <trkpt lat="56.063824016600847" lon="-4.2620649933815">
        <ele>90.5</ele>
        <time>2023-09-02T10:54:00Z</time>
      </trkpt>
      <trkpt lat="56.064585009589791" lon="-4.26371899433434">
        <ele>87.140000000000001</ele>
        <time>2023-09-02T10:54:09Z</time>
      </trkpt>
      <trkpt lat="56.064623985439539" lon="-4.263912029564381">
        <ele>86.659999999999997</ele>
        <time>2023-09-02T10:54:10Z</time>
      </trkpt>
      <trkpt lat="56.064654998481274" lon="-4.264118978753686">
        <ele>85.689999999999998</ele>
        <time>2023-09-02T10:54:11Z</time>
      </trkpt>
      <trkpt lat="56.064946018159389" lon="-4.266137005761266">
        <ele>82.329999999999998</ele>
        <time>2023-09-02T10:54:19Z</time>
      </trkpt>
      <trkpt lat="56.065160008147359" lon="-4.266991959884763">
        <ele>80.409999999999997</ele>
        <time>2023-09-02T10:54:23Z</time>
      </trkpt>
      <trkpt lat="56.065164031460881" lon="-4.267154987901449">
        <ele>79.930000000000007</ele>
        <time>2023-09-02T10:54:24Z</time>
      </trkpt>
      <trkpt lat="56.065163025632501" lon="-4.267317010089755">
        <ele>79.930000000000007</ele>
        <time>2023-09-02T10:54:25Z</time>
      </trkpt>
      <trkpt lat="56.065126983448863" lon="-4.267495041713119">
        <ele>79.450000000000003</ele>
        <time>2023-09-02T10:54:26Z</time>
      </trkpt>
      <trkpt lat="56.065089013427496" lon="-4.267682963982225">
        <ele>78.969999999999999</ele>
        <time>2023-09-02T10:54:27Z</time>
      </trkpt>
      <trkpt lat="56.064629014581442" lon="-4.269437966868281">
        <ele>76.560000000000002</ele>
        <time>2023-09-02T10:54:35Z</time>
      </trkpt>
      <trkpt lat="56.064070025458932" lon="-4.272057982161641">
        <ele>78</ele>
        <time>2023-09-02T10:54:45Z</time>
      </trkpt>
      <trkpt lat="56.063308026641607" lon="-4.275983981788158">
        <ele>84.730000000000004</ele>
        <time>2023-09-02T10:54:59Z</time>
      </trkpt>
      <trkpt lat="56.063273996114731" lon="-4.276259997859597">
        <ele>85.209999999999994</ele>
        <time>2023-09-02T10:55:00Z</time>
      </trkpt>
      <trkpt lat="56.062969984486699" lon="-4.278562003746629">
        <ele>87.620000000000005</ele>
        <time>2023-09-02T10:55:08Z</time>
      </trkpt>
      <trkpt lat="56.062410995364189" lon="-4.281920967623591">
        <ele>90.5</ele>
        <time>2023-09-02T10:55:21Z</time>
      </trkpt>
      <trkpt lat="56.062192982062697" lon="-4.284544000402093">
        <ele>90.019999999999996</ele>
        <time>2023-09-02T10:55:30Z</time>
      </trkpt>
      <trkpt lat="56.06204504147172" lon="-4.288031039759517">
        <ele>85.209999999999994</ele>
        <time>2023-09-02T10:55:42Z</time>
      </trkpt>
      <trkpt lat="56.061950996518135" lon="-4.289773972705007">
        <ele>80.890000000000001</ele>
        <time>2023-09-02T10:55:50Z</time>
      </trkpt>
      <trkpt lat="56.061914032325149" lon="-4.28992903791368">
        <ele>80.409999999999997</ele>
        <time>2023-09-02T10:55:51Z</time>
      </trkpt>
      <trkpt lat="56.061874972656369" lon="-4.290086030960083">
        <ele>79.930000000000007</ele>
        <time>2023-09-02T10:55:52Z</time>
      </trkpt>
      <trkpt lat="56.061706999316812" lon="-4.290851969271898">
        <ele>76.560000000000002</ele>
        <time>2023-09-02T10:55:56Z</time>
      </trkpt>
      <trkpt lat="56.061674980446696" lon="-4.291083980351687">
        <ele>76.079999999999998</ele>
        <time>2023-09-02T10:55:57Z</time>
      </trkpt>
      <trkpt lat="56.061426037922502" lon="-4.293320020660758">
        <ele>72.719999999999999</ele>
        <time>2023-09-02T10:56:06Z</time>
      </trkpt>
      <trkpt lat="56.06129402294755" lon="-4.295629989355803">
        <ele>72.719999999999999</ele>
        <time>2023-09-02T10:56:12Z</time>
      </trkpt>
      <trkpt lat="56.06120903044939" lon="-4.29693304002285">
        <ele>73.200000000000003</ele>
        <time>2023-09-02T10:56:17Z</time>
      </trkpt>
      <trkpt lat="56.06116603128612" lon="-4.297116016969085">
        <ele>73.680000000000007</ele>
        <time>2023-09-02T10:56:18Z</time>
      </trkpt>
      <trkpt lat="56.061112973839045" lon="-4.297287007793784">
        <ele>74.159999999999997</ele>
        <time>2023-09-02T10:56:19Z</time>
      </trkpt>
      <trkpt lat="56.061056982725859" lon="-4.297467973083258">
        <ele>74.159999999999997</ele>
        <time>2023-09-02T10:56:20Z</time>
      </trkpt>
      <trkpt lat="56.060999985784292" lon="-4.297665031626821">
        <ele>74.640000000000001</ele>
        <time>2023-09-02T10:56:21Z</time>
      </trkpt>
      <trkpt lat="56.060976013541222" lon="-4.297896036878228">
        <ele>74.640000000000001</ele>
        <time>2023-09-02T10:56:22Z</time>
      </trkpt>
      <trkpt lat="56.060960004106164" lon="-4.298139028251171">
        <ele>74.640000000000001</ele>
        <time>2023-09-02T10:56:23Z</time>
      </trkpt>
      <trkpt lat="56.060963021591306" lon="-4.298390988260508">
        <ele>74.640000000000001</ele>
        <time>2023-09-02T10:56:24Z</time>
      </trkpt>
      <trkpt lat="56.061000991612673" lon="-4.301161961629987">
        <ele>73.200000000000003</ele>
        <time>2023-09-02T10:56:34Z</time>
      </trkpt>
      <trkpt lat="56.060985988005996" lon="-4.303043028339744">
        <ele>70.310000000000002</ele>
        <time>2023-09-02T10:56:42Z</time>
      </trkpt>
      <trkpt lat="56.061011971905828" lon="-4.303278978914022">
        <ele>69.349999999999994</ele>
        <time>2023-09-02T10:56:43Z</time>
      </trkpt>
      <trkpt lat="56.061038039624691" lon="-4.303517024964094">
        <ele>68.870000000000005</ele>
        <time>2023-09-02T10:56:44Z</time>
      </trkpt>
      <trkpt lat="56.061107022687793" lon="-4.304138962179422">
        <ele>67.430000000000007</ele>
        <time>2023-09-02T10:56:47Z</time>
      </trkpt>
      <trkpt lat="56.061068968847394" lon="-4.304335014894605">
        <ele>66.950000000000003</ele>
        <time>2023-09-02T10:56:48Z</time>
      </trkpt>
      <trkpt lat="56.061032004654408" lon="-4.304510029032826">
        <ele>66.469999999999999</ele>
        <time>2023-09-02T10:56:49Z</time>
      </trkpt>
      <trkpt lat="56.060947012156248" lon="-4.304906995967031">
        <ele>65.510000000000005</ele>
        <time>2023-09-02T10:56:51Z</time>
      </trkpt>
      <trkpt lat="56.060900995507836" lon="-4.305121991783381">
        <ele>64.549999999999997</ele>
        <time>2023-09-02T10:56:52Z</time>
      </trkpt>
      <trkpt lat="56.060535041615367" lon="-4.306823015213013">
        <ele>57.340000000000003</ele>
        <time>2023-09-02T10:56:59Z</time>
      </trkpt>
      <trkpt lat="56.060321973636746" lon="-4.307530028745532">
        <ele>55.890000000000001</ele>
        <time>2023-09-02T10:57:02Z</time>
      </trkpt>
      <trkpt lat="56.059986026957631" lon="-4.308444997295737">
        <ele>55.409999999999997</ele>
        <time>2023-09-02T10:57:06Z</time>
      </trkpt>
      <trkpt lat="56.059929030016065" lon="-4.308709027245641">
        <ele>55.409999999999997</ele>
        <time>2023-09-02T10:57:07Z</time>
      </trkpt>
      <trkpt lat="56.059430977329612" lon="-4.310636026784778">
        <ele>54.450000000000003</ele>
        <time>2023-09-02T10:57:15Z</time>
      </trkpt>
      <trkpt lat="56.059359982609749" lon="-4.310829984024167">
        <ele>54.450000000000003</ele>
        <time>2023-09-02T10:57:16Z</time>
      </trkpt>
      <trkpt lat="56.059297034516931" lon="-4.311002986505628">
        <ele>54.450000000000003</ele>
        <time>2023-09-02T10:57:17Z</time>
      </trkpt>
      <trkpt lat="56.059192009270191" lon="-4.311337005347014">
        <ele>54.93</ele>
        <time>2023-09-02T10:57:19Z</time>
      </trkpt>
      <trkpt lat="56.059111962094903" lon="-4.311710000038147">
        <ele>54.450000000000003</ele>
        <time>2023-09-02T10:57:21Z</time>
      </trkpt>
      <trkpt lat="56.059097964316607" lon="-4.311929019168019">
        <ele>53.969999999999999</ele>
        <time>2023-09-02T10:57:22Z</time>
      </trkpt>
      <trkpt lat="56.059114979580045" lon="-4.312750026583672">
        <ele>53.490000000000002</ele>
        <time>2023-09-02T10:57:26Z</time>
      </trkpt>
      <trkpt lat="56.059140041470528" lon="-4.312953036278486">
        <ele>53.009999999999998</ele>
        <time>2023-09-02T10:57:27Z</time>
      </trkpt>
      <trkpt lat="56.059172982349992" lon="-4.313128972426057">
        <ele>52.530000000000001</ele>
        <time>2023-09-02T10:57:28Z</time>
      </trkpt>
      <trkpt lat="56.059234002605081" lon="-4.313316978514195">
        <ele>52.530000000000001</ele>
        <time>2023-09-02T10:57:29Z</time>
      </trkpt>
      <trkpt lat="56.059295022860169" lon="-4.313505990430713">
        <ele>52.530000000000001</ele>
        <time>2023-09-02T10:57:30Z</time>
      </trkpt>
      <trkpt lat="56.059354031458497" lon="-4.313687039539218">
        <ele>52.530000000000001</ele>
        <time>2023-09-02T10:57:31Z</time>
      </trkpt>
      <trkpt lat="56.059489985927939" lon="-4.314219960942864">
        <ele>53.009999999999998</ele>
        <time>2023-09-02T10:57:34Z</time>
      </trkpt>
      <trkpt lat="56.059519993141294" lon="-4.314422970637679">
        <ele>53.490000000000002</ele>
        <time>2023-09-02T10:57:35Z</time>
      </trkpt>
      <trkpt lat="56.059629963710904" lon="-4.316210998222232">
        <ele>56.369999999999997</ele>
        <time>2023-09-02T10:57:42Z</time>
      </trkpt>
      <trkpt lat="56.059641027823091" lon="-4.316477039828897">
        <ele>56.859999999999999</ele>
        <time>2023-09-02T10:57:43Z</time>
      </trkpt>
      <trkpt lat="56.059642033651471" lon="-4.317817976698279">
        <ele>57.340000000000003</ele>
        <time>2023-09-02T10:57:48Z</time>
      </trkpt>
      <trkpt lat="56.059452015906572" lon="-4.319055983796716">
        <ele>57.82</ele>
        <time>2023-09-02T10:57:55Z</time>
      </trkpt>
      <trkpt lat="56.059133000671864" lon="-4.32063203305006">
        <ele>60.219999999999999</ele>
        <time>2023-09-02T10:58:01Z</time>
      </trkpt>
      <trkpt lat="56.058706026524305" lon="-4.324385030195117">
        <ele>65.989999999999995</ele>
        <time>2023-09-02T10:58:14Z</time>
      </trkpt>
      <trkpt lat="56.058326996862888" lon="-4.327768972143531">
        <ele>70.310000000000002</ele>
        <time>2023-09-02T10:58:26Z</time>
      </trkpt>
      <trkpt lat="56.058295983821154" lon="-4.328039959073067">
        <ele>70.310000000000002</ele>
        <time>2023-09-02T10:58:27Z</time>
      </trkpt>
      <trkpt lat="56.058237981051207" lon="-4.328268030658364">
        <ele>70.790000000000006</ele>
        <time>2023-09-02T10:58:28Z</time>
      </trkpt>
      <trkpt lat="56.058185007423162" lon="-4.32847598567605">
        <ele>71.269999999999996</ele>
        <time>2023-09-02T10:58:29Z</time>
      </trkpt>
      <trkpt lat="56.058084005489945" lon="-4.328870018944144">
        <ele>72.719999999999999</ele>
        <time>2023-09-02T10:58:31Z</time>
      </trkpt>
      <trkpt lat="56.057595005258918" lon="-4.330182038247585">
        <ele>73.200000000000003</ele>
        <time>2023-09-02T10:58:37Z</time>
      </trkpt>
      <trkpt lat="56.057533985003829" lon="-4.330417988821864">
        <ele>72.719999999999999</ele>
        <time>2023-09-02T10:58:38Z</time>
      </trkpt>
      <trkpt lat="56.057501966133714" lon="-4.330701967701316">
        <ele>72.719999999999999</ele>
        <time>2023-09-02T10:58:39Z</time>
      </trkpt>
      <trkpt lat="56.057309014722705" lon="-4.332349011674523">
        <ele>72.239999999999995</ele>
        <time>2023-09-02T10:58:46Z</time>
      </trkpt>
      <trkpt lat="56.057184962555766" lon="-4.333167001605034">
        <ele>70.310000000000002</ele>
        <time>2023-09-02T10:58:51Z</time>
      </trkpt>
      <trkpt lat="56.057161996141076" lon="-4.333317959681153">
        <ele>69.349999999999994</ele>
        <time>2023-09-02T10:58:52Z</time>
      </trkpt>
      <trkpt lat="56.057140035554767" lon="-4.33346196077764">
        <ele>69.349999999999994</ele>
        <time>2023-09-02T10:58:53Z</time>
      </trkpt>
      <trkpt lat="56.056993016973138" lon="-4.334433004260063">
        <ele>67.430000000000007</ele>
        <time>2023-09-02T10:59:00Z</time>
      </trkpt>
      <trkpt lat="56.056967033073306" lon="-4.33459997177124">
        <ele>66.950000000000003</ele>
        <time>2023-09-02T10:59:01Z</time>
      </trkpt>
      <trkpt lat="56.056930990889668" lon="-4.334737015888095">
        <ele>66.950000000000003</ele>
        <time>2023-09-02T10:59:02Z</time>
      </trkpt>
      <trkpt lat="56.056855972856283" lon="-4.335016971454024">
        <ele>65.989999999999995</ele>
        <time>2023-09-02T10:59:04Z</time>
      </trkpt>
      <trkpt lat="56.0568240378052" lon="-4.33513498865068">
        <ele>65.510000000000005</ele>
        <time>2023-09-02T10:59:05Z</time>
      </trkpt>
      <trkpt lat="56.056795958429575" lon="-4.335240013897419">
        <ele>65.510000000000005</ele>
        <time>2023-09-02T10:59:06Z</time>
      </trkpt>
      <trkpt lat="56.056771986186504" lon="-4.335330035537481">
        <ele>65.510000000000005</ele>
        <time>2023-09-02T10:59:07Z</time>
      </trkpt>
      <trkpt lat="56.056751031428576" lon="-4.335409998893738">
        <ele>65.030000000000001</ele>
        <time>2023-09-02T10:59:08Z</time>
      </trkpt>
      <trkpt lat="56.056721024215221" lon="-4.335519969463348">
        <ele>64.069999999999993</ele>
        <time>2023-09-02T10:59:15Z</time>
      </trkpt>
      <trkpt lat="56.056721024215221" lon="-4.335519969463348">
        <ele>64.069999999999993</ele>
        <time>2023-09-02T10:59:52Z</time>
      </trkpt>
      <trkpt lat="56.056672995910048" lon="-4.335696995258331">
        <ele>65.030000000000001</ele>
        <time>2023-09-02T11:00:34Z</time>
      </trkpt>
      <trkpt lat="56.056580040603876" lon="-4.33618800714612">
        <ele>67.909999999999997</ele>
        <time>2023-09-02T11:00:38Z</time>
      </trkpt>
      <trkpt lat="56.056521032005548" lon="-4.336534012109041">
        <ele>67.430000000000007</ele>
        <time>2023-09-02T11:00:40Z</time>
      </trkpt>
      <trkpt lat="56.056385999545455" lon="-4.33732601813972">
        <ele>66.950000000000003</ele>
        <time>2023-09-02T11:00:44Z</time>
      </trkpt>
      <trkpt lat="56.05635398067534" lon="-4.337515030056238">
        <ele>66.469999999999999</ele>
        <time>2023-09-02T11:00:45Z</time>
      </trkpt>
      <trkpt lat="56.056323973461986" lon="-4.337689960375428">
        <ele>66.469999999999999</ele>
        <time>2023-09-02T11:00:46Z</time>
      </trkpt>
      <trkpt lat="56.056274017319083" lon="-4.337837984785438">
        <ele>65.989999999999995</ele>
        <time>2023-09-02T11:00:47Z</time>
      </trkpt>
      <trkpt lat="56.056220959872007" lon="-4.337999001145363">
        <ele>65.989999999999995</ele>
        <time>2023-09-02T11:00:48Z</time>
      </trkpt>
      <trkpt lat="56.056164968758821" lon="-4.338166974484921">
        <ele>65.989999999999995</ele>
        <time>2023-09-02T11:00:49Z</time>
      </trkpt>
      <trkpt lat="56.055670017376542" lon="-4.339650990441442">
        <ele>70.310000000000002</ele>
        <time>2023-09-02T11:00:56Z</time>
      </trkpt>
      <trkpt lat="56.055591981858015" lon="-4.339886019006372">
        <ele>70.790000000000006</ele>
        <time>2023-09-02T11:00:57Z</time>
      </trkpt>
      <trkpt lat="56.055142963305116" lon="-4.341641021892428">
        <ele>73.680000000000007</ele>
        <time>2023-09-02T11:01:04Z</time>
      </trkpt>
      <trkpt lat="56.054928973317146" lon="-4.342818008735776">
        <ele>74.640000000000001</ele>
        <time>2023-09-02T11:01:09Z</time>
      </trkpt>
      <trkpt lat="56.054921010509133" lon="-4.343039961531758">
        <ele>74.640000000000001</ele>
        <time>2023-09-02T11:01:10Z</time>
      </trkpt>
      <trkpt lat="56.054960992187262" lon="-4.344517020508647">
        <ele>76.560000000000002</ele>
        <time>2023-09-02T11:01:16Z</time>
      </trkpt>
      <trkpt lat="56.055240025743842" lon="-4.346234975382686">
        <ele>77.519999999999996</ele>
        <time>2023-09-02T11:01:23Z</time>
      </trkpt>
      <trkpt lat="56.055849976837635" lon="-4.347689989954233">
        <ele>77.519999999999996</ele>
        <time>2023-09-02T11:01:30Z</time>
      </trkpt>
      <trkpt lat="56.055930024012923" lon="-4.347912026569247">
        <ele>77.519999999999996</ele>
        <time>2023-09-02T11:01:31Z</time>
      </trkpt>
      <trkpt lat="56.055971011519432" lon="-4.348115036264062">
        <ele>77.040000000000006</ele>
        <time>2023-09-02T11:01:32Z</time>
      </trkpt>
      <trkpt lat="56.055999007076025" lon="-4.348344029858708">
        <ele>77.040000000000006</ele>
        <time>2023-09-02T11:01:33Z</time>
      </trkpt>
      <trkpt lat="56.05599096044898" lon="-4.34854100458324">
        <ele>77.040000000000006</ele>
        <time>2023-09-02T11:01:34Z</time>
      </trkpt>
      <trkpt lat="56.055979980155826" lon="-4.348805034533143">
        <ele>77.519999999999996</ele>
        <time>2023-09-02T11:01:35Z</time>
      </trkpt>
      <trkpt lat="56.055938992649317" lon="-4.348944006487727">
        <ele>78</ele>
        <time>2023-09-02T11:01:36Z</time>
      </trkpt>
      <trkpt lat="56.05588098987937" lon="-4.349136035889387">
        <ele>78.969999999999999</ele>
        <time>2023-09-02T11:01:37Z</time>
      </trkpt>
      <trkpt lat="56.055241031572223" lon="-4.350965972989798">
        <ele>83.290000000000006</ele>
        <time>2023-09-02T11:01:45Z</time>
      </trkpt>
      <trkpt lat="56.055157966911793" lon="-4.35122799128294">
        <ele>83.769999999999996</ele>
        <time>2023-09-02T11:01:46Z</time>
      </trkpt>
      <trkpt lat="56.054445002228022" lon="-4.353681039065123">
        <ele>81.370000000000005</ele>
        <time>2023-09-02T11:01:55Z</time>
      </trkpt>
      <trkpt lat="56.054298989474773" lon="-4.354184037074447">
        <ele>80.409999999999997</ele>
        <time>2023-09-02T11:01:57Z</time>
      </trkpt>
      <trkpt lat="56.053943010047078" lon="-4.355409974232316">
        <ele>80.409999999999997</ele>
        <time>2023-09-02T11:02:04Z</time>
      </trkpt>
      <trkpt lat="56.053871009498835" lon="-4.355668975040317">
        <ele>82.810000000000002</ele>
        <time>2023-09-02T11:02:12Z</time>
      </trkpt>
      <trkpt lat="56.053865980356932" lon="-4.355686996132135">
        <ele>83.769999999999996</ele>
        <time>2023-09-02T11:02:25Z</time>
      </trkpt>
      <trkpt lat="56.054044011980295" lon="-4.355597980320454">
        <ele>84.25</ele>
        <time>2023-09-02T11:02:27Z</time>
      </trkpt>
      <trkpt lat="56.054079970344901" lon="-4.355662018060684">
        <ele>84.25</ele>
        <time>2023-09-02T11:02:28Z</time>
      </trkpt>
      <trkpt lat="56.054127998650074" lon="-4.355749022215605">
        <ele>84.730000000000004</ele>
        <time>2023-09-02T11:02:29Z</time>
      </trkpt>
      <trkpt lat="56.054179966449738" lon="-4.355842983350158">
        <ele>85.689999999999998</ele>
        <time>2023-09-02T11:02:30Z</time>
      </trkpt>
      <trkpt lat="56.054230006411672" lon="-4.35593300499022">
        <ele>86.180000000000007</ele>
        <time>2023-09-02T11:02:31Z</time>
      </trkpt>
      <trkpt lat="56.054465034976602" lon="-4.356356961652637">
        <ele>90.019999999999996</ele>
        <time>2023-09-02T11:02:40Z</time>
      </trkpt>
      <trkpt lat="56.054653041064739" lon="-4.356696009635925">
        <ele>90.019999999999996</ele>
        <time>2023-09-02T11:03:16Z</time>
      </trkpt>
      <trkpt lat="56.054725041612983" lon="-4.356827018782497">
        <ele>90.019999999999996</ele>
        <time>2023-09-02T11:03:17Z</time>
      </trkpt>
      <trkpt lat="56.054823026061058" lon="-4.357003960758448">
        <ele>90.019999999999996</ele>
        <time>2023-09-02T11:03:18Z</time>
      </trkpt>
      <trkpt lat="56.055532973259687" lon="-4.358454030007124">
        <ele>94.829999999999998</ele>
        <time>2023-09-02T11:03:24Z</time>
      </trkpt>
      <trkpt lat="56.055701030418277" lon="-4.358803974464536">
        <ele>95.310000000000002</ele>
        <time>2023-09-02T11:03:25Z</time>
      </trkpt>
      <trkpt lat="56.055711004883051" lon="-4.358816966414452">
        <ele>94.829999999999998</ele>
        <time>2023-09-02T11:03:26Z</time>
      </trkpt>
      <trkpt lat="56.055851988494396" lon="-4.358997009694576">
        <ele>94.829999999999998</ele>
        <time>2023-09-02T11:03:27Z</time>
      </trkpt>
      <trkpt lat="56.055986015126109" lon="-4.359084013849497">
        <ele>94.349999999999994</ele>
        <time>2023-09-02T11:03:28Z</time>
      </trkpt>
      <trkpt lat="56.056134961545467" lon="-4.359180992469192">
        <ele>93.870000000000005</ele>
        <time>2023-09-02T11:03:29Z</time>
      </trkpt>
      <trkpt lat="56.056549027562141" lon="-4.359449967741966">
        <ele>91.939999999999998</ele>
        <time>2023-09-02T11:03:32Z</time>
      </trkpt>
      <trkpt lat="56.057283030822873" lon="-4.360274998471141">
        <ele>87.140000000000001</ele>
        <time>2023-09-02T11:03:40Z</time>
      </trkpt>
      <trkpt lat="56.058390028774738" lon="-4.361719032749534">
        <ele>79.450000000000003</ele>
        <time>2023-09-02T11:03:51Z</time>
      </trkpt>
      <trkpt lat="56.059527033939958" lon="-4.363096011802554">
        <ele>69.829999999999998</ele>
        <time>2023-09-02T11:04:02Z</time>
      </trkpt>
      <trkpt lat="56.059990972280502" lon="-4.363413015380502">
        <ele>64.549999999999997</ele>
        <time>2023-09-02T11:04:09Z</time>
      </trkpt>
      <trkpt lat="56.060133967548609" lon="-4.363512005656958">
        <ele>60.700000000000003</ele>
        <time>2023-09-02T11:04:17Z</time>
      </trkpt>
      <trkpt lat="56.060133967548609" lon="-4.363512005656958">
        <ele>60.700000000000003</ele>
        <time>2023-09-02T11:04:32Z</time>
      </trkpt>
      <trkpt lat="56.060133967548609" lon="-4.363512005656958">
        <ele>60.700000000000003</ele>
        <time>2023-09-02T11:04:35Z</time>
      </trkpt>
      <trkpt lat="56.060083005577326" lon="-4.36347596347332">
        <ele>56.369999999999997</ele>
        <time>2023-09-02T11:04:39Z</time>
      </trkpt>
      <trkpt lat="56.060046963393688" lon="-4.363451991230249">
        <ele>56.369999999999997</ele>
        <time>2023-09-02T11:04:40Z</time>
      </trkpt>
      <trkpt lat="56.059538014233112" lon="-4.363102968782187">
        <ele>56.859999999999999</ele>
        <time>2023-09-02T11:04:47Z</time>
      </trkpt>
      <trkpt lat="56.058829994872212" lon="-4.362343987450004">
        <ele>59.259999999999998</ele>
        <time>2023-09-02T11:04:55Z</time>
      </trkpt>
      <trkpt lat="56.058742990717292" lon="-4.362221024930477">
        <ele>59.740000000000002</ele>
        <time>2023-09-02T11:04:56Z</time>
      </trkpt>
      <trkpt lat="56.058318028226495" lon="-4.361618030816317">
        <ele>62.619999999999997</ele>
        <time>2023-09-02T11:05:01Z</time>
      </trkpt>
      <trkpt lat="56.058239992707968" lon="-4.361505964770913">
        <ele>63.579999999999998</ele>
        <time>2023-09-02T11:05:02Z</time>
      </trkpt>
      <trkpt lat="56.058162963017821" lon="-4.361398005858064">
        <ele>65.030000000000001</ele>
        <time>2023-09-02T11:05:03Z</time>
      </trkpt>
      <trkpt lat="56.057330975309014" lon="-4.360331995412707">
        <ele>78.480000000000004</ele>
        <time>2023-09-02T11:05:13Z</time>
      </trkpt>
      <trkpt lat="56.056879023090005" lon="-4.359791027382016">
        <ele>81.849999999999994</ele>
        <time>2023-09-02T11:05:17Z</time>
      </trkpt>
      <trkpt lat="56.056646006181836" lon="-4.359511993825436">
        <ele>83.290000000000006</ele>
        <time>2023-09-02T11:05:19Z</time>
      </trkpt>
      <trkpt lat="56.05648297816515" lon="-4.359406968578696">
        <ele>84.25</ele>
        <time>2023-09-02T11:05:20Z</time>
      </trkpt>
      <trkpt lat="56.05573003180325" lon="-4.358841022476554">
        <ele>90.5</ele>
        <time>2023-09-02T11:05:26Z</time>
      </trkpt>
      <trkpt lat="56.055642021819949" lon="-4.358680006116629">
        <ele>91.459999999999994</ele>
        <time>2023-09-02T11:05:27Z</time>
      </trkpt>
      <trkpt lat="56.055553006008267" lon="-4.358495017513633">
        <ele>92.420000000000002</ele>
        <time>2023-09-02T11:05:28Z</time>
      </trkpt>
      <trkpt lat="56.05446201749146" lon="-4.356352016329765">
        <ele>100.59999999999999</ele>
        <time>2023-09-02T11:05:40Z</time>
      </trkpt>
      <trkpt lat="56.054173009470105" lon="-4.355830997228622">
        <ele>101.08</ele>
        <time>2023-09-02T11:05:45Z</time>
      </trkpt>
      <trkpt lat="56.054123975336552" lon="-4.355741981416941">
        <ele>101.08</ele>
        <time>2023-09-02T11:05:48Z</time>
      </trkpt>
      <trkpt lat="56.054083993658423" lon="-4.355578031390905">
        <ele>100.59999999999999</ele>
        <time>2023-09-02T11:05:56Z</time>
      </trkpt>
      <trkpt lat="56.054122969508171" lon="-4.35554601252079">
        <ele>100.11</ele>
        <time>2023-09-02T11:05:57Z</time>
      </trkpt>
      <trkpt lat="56.054178038612008" lon="-4.355499995872378">
        <ele>100.11</ele>
        <time>2023-09-02T11:05:58Z</time>
      </trkpt>
      <trkpt lat="56.054279040545225" lon="-4.355463031679392">
        <ele>100.11</ele>
        <time>2023-09-02T11:05:59Z</time>
      </trkpt>
      <trkpt lat="56.054380964487791" lon="-4.355426989495754">
        <ele>99.629999999999995</ele>
        <time>2023-09-02T11:06:00Z</time>
      </trkpt>
      <trkpt lat="56.055476982146502" lon="-4.355017030611634">
        <ele>93.870000000000005</ele>
        <time>2023-09-02T11:06:08Z</time>
      </trkpt>
      <trkpt lat="56.05654701590538" lon="-4.354527024552226">
        <ele>84.730000000000004</ele>
        <time>2023-09-02T11:06:16Z</time>
      </trkpt>
      <trkpt lat="56.056908024474978" lon="-4.354360979050398">
        <ele>81.370000000000005</ele>
        <time>2023-09-02T11:06:19Z</time>
      </trkpt>
      <trkpt lat="56.057140035554767" lon="-4.354253020137548">
        <ele>78.969999999999999</ele>
        <time>2023-09-02T11:06:21Z</time>
      </trkpt>
      <trkpt lat="56.057228967547417" lon="-4.354130979627371">
        <ele>78</ele>
        <time>2023-09-02T11:06:22Z</time>
      </trkpt>
      <trkpt lat="56.058016028255224" lon="-4.352894984185696">
        <ele>71.269999999999996</ele>
        <time>2023-09-02T11:06:31Z</time>
      </trkpt>
      <trkpt lat="56.058532018214464" lon="-4.352053022012115">
        <ele>68.870000000000005</ele>
        <time>2023-09-02T11:06:37Z</time>
      </trkpt>
      <trkpt lat="56.058621034026146" lon="-4.351921007037163">
        <ele>69.349999999999994</ele>
        <time>2023-09-02T11:06:38Z</time>
      </trkpt>
      <trkpt lat="56.058720024302602" lon="-4.351788992062211">
        <ele>69.349999999999994</ele>
        <time>2023-09-02T11:06:39Z</time>
      </trkpt>
      <trkpt lat="56.058824965730309" lon="-4.351650020107627">
        <ele>69.829999999999998</ele>
        <time>2023-09-02T11:06:40Z</time>
      </trkpt>
      <trkpt lat="56.058929990977049" lon="-4.351509958505631">
        <ele>70.310000000000002</ele>
        <time>2023-09-02T11:06:41Z</time>
      </trkpt>
      <trkpt lat="56.059026969596744" lon="-4.351380039006472">
        <ele>70.310000000000002</ele>
        <time>2023-09-02T11:06:42Z</time>
      </trkpt>
      <trkpt lat="56.059138029813766" lon="-4.351346008479595">
        <ele>70.790000000000006</ele>
        <time>2023-09-02T11:06:43Z</time>
      </trkpt>
      <trkpt lat="56.059264009818435" lon="-4.351308038458228">
        <ele>70.790000000000006</ele>
        <time>2023-09-02T11:06:44Z</time>
      </trkpt>
      <trkpt lat="56.060351980850101" lon="-4.350901013240218">
        <ele>68.870000000000005</ele>
        <time>2023-09-02T11:06:53Z</time>
      </trkpt>
      <trkpt lat="56.060708966106176" lon="-4.350620973855257">
        <ele>68.870000000000005</ele>
        <time>2023-09-02T11:06:56Z</time>
      </trkpt>
      <trkpt lat="56.060810973867774" lon="-4.350488958880305">
        <ele>68.870000000000005</ele>
        <time>2023-09-02T11:06:57Z</time>
      </trkpt>
      <trkpt lat="56.060878029093146" lon="-4.350360967218876">
        <ele>69.829999999999998</ele>
        <time>2023-09-02T11:06:58Z</time>
      </trkpt>
      <trkpt lat="56.060940977185965" lon="-4.350183019414544">
        <ele>70.310000000000002</ele>
        <time>2023-09-02T11:06:59Z</time>
      </trkpt>
      <trkpt lat="56.061007026582956" lon="-4.349994007498026">
        <ele>70.790000000000006</ele>
        <time>2023-09-02T11:07:00Z</time>
      </trkpt>
      <trkpt lat="56.061289999634027" lon="-4.349192027002573">
        <ele>71.760000000000005</ele>
        <time>2023-09-02T11:07:04Z</time>
      </trkpt>
      <trkpt lat="56.061367029324174" lon="-4.348975019529462">
        <ele>71.760000000000005</ele>
        <time>2023-09-02T11:07:05Z</time>
      </trkpt>
      <trkpt lat="56.062113018706441" lon="-4.34665298089385">
        <ele>69.829999999999998</ele>
        <time>2023-09-02T11:07:15Z</time>
      </trkpt>
      <trkpt lat="56.062504034489393" lon="-4.345372980460525">
        <ele>65.510000000000005</ele>
        <time>2023-09-02T11:07:21Z</time>
      </trkpt>
      <trkpt lat="56.06258500367403" lon="-4.345248006284237">
        <ele>65.030000000000001</ele>
        <time>2023-09-02T11:07:22Z</time>
      </trkpt>
      <trkpt lat="56.062653986737132" lon="-4.345179023221135">
        <ele>64.069999999999993</ele>
        <time>2023-09-02T11:07:23Z</time>
      </trkpt>
      <trkpt lat="56.06275700032711" lon="-4.345168964937329">
        <ele>63.100000000000001</ele>
        <time>2023-09-02T11:07:24Z</time>
      </trkpt>
      <trkpt lat="56.062861019745469" lon="-4.345159996300936">
        <ele>62.140000000000001</ele>
        <time>2023-09-02T11:07:25Z</time>
      </trkpt>
      <trkpt lat="56.062968978658319" lon="-4.345166031271219">
        <ele>61.659999999999997</ele>
        <time>2023-09-02T11:07:26Z</time>
      </trkpt>
      <trkpt lat="56.063082972541451" lon="-4.345179023221135">
        <ele>60.700000000000003</ele>
        <time>2023-09-02T11:07:27Z</time>
      </trkpt>
      <trkpt lat="56.063841031864285" lon="-4.345182040706277">
        <ele>55.890000000000001</ele>
        <time>2023-09-02T11:07:34Z</time>
      </trkpt>
      <trkpt lat="56.063943039625883" lon="-4.345112973824143">
        <ele>55.409999999999997</ele>
        <time>2023-09-02T11:07:35Z</time>
      </trkpt>
      <trkpt lat="56.064028032124043" lon="-4.344989005476236">
        <ele>54.93</ele>
        <time>2023-09-02T11:07:36Z</time>
      </trkpt>
      <trkpt lat="56.064115036278963" lon="-4.344861013814807">
        <ele>54.450000000000003</ele>
        <time>2023-09-02T11:07:37Z</time>
      </trkpt>
      <trkpt lat="56.064198017120361" lon="-4.344721036031842">
        <ele>54.450000000000003</ele>
        <time>2023-09-02T11:07:38Z</time>
      </trkpt>
      <trkpt lat="56.064269011840224" lon="-4.344547027722001">
        <ele>54.450000000000003</ele>
        <time>2023-09-02T11:07:39Z</time>
      </trkpt>
      <trkpt lat="56.06434402987361" lon="-4.344365978613496">
        <ele>53.969999999999999</ele>
        <time>2023-09-02T11:07:40Z</time>
      </trkpt>
      <trkpt lat="56.06456296518445" lon="-4.343766001984477">
        <ele>53.969999999999999</ele>
        <time>2023-09-02T11:07:43Z</time>
      </trkpt>
      <trkpt lat="56.064621973782778" lon="-4.343537008389831">
        <ele>53.969999999999999</ele>
        <time>2023-09-02T11:07:44Z</time>
      </trkpt>
      <trkpt lat="56.0649040248245" lon="-4.342197999358177">
        <ele>55.409999999999997</ele>
        <time>2023-09-02T11:07:50Z</time>
      </trkpt>
      <trkpt lat="56.065025981515646" lon="-4.341058982536197">
        <ele>56.369999999999997</ele>
        <time>2023-09-02T11:07:58Z</time>
      </trkpt>
      <trkpt lat="56.065036039799452" lon="-4.340929985046387">
        <ele>56.369999999999997</ele>
        <time>2023-09-02T11:07:59Z</time>
      </trkpt>
      <trkpt lat="56.065044002607465" lon="-4.340825965628028">
        <ele>56.859999999999999</ele>
        <time>2023-09-02T11:08:00Z</time>
      </trkpt>
      <trkpt lat="56.065053977072239" lon="-4.34069998562336">
        <ele>56.859999999999999</ele>
        <time>2023-09-02T11:08:01Z</time>
      </trkpt>
      <trkpt lat="56.065064035356045" lon="-4.34057098813355">
        <ele>57.340000000000003</ele>
        <time>2023-09-02T11:08:02Z</time>
      </trkpt>
      <trkpt lat="56.065095970407128" lon="-4.340165974572301">
        <ele>58.780000000000001</ele>
        <time>2023-09-02T11:08:05Z</time>
      </trkpt>
      <trkpt lat="56.065164031460881" lon="-4.339299034327269">
        <ele>62.140000000000001</ele>
        <time>2023-09-02T11:08:11Z</time>
      </trkpt>
      <trkpt lat="56.065645990893245" lon="-4.337812000885606">
        <ele>67.909999999999997</ele>
        <time>2023-09-02T11:08:22Z</time>
      </trkpt>
      <trkpt lat="56.065695025026798" lon="-4.337686020880938">
        <ele>68.390000000000001</ele>
        <time>2023-09-02T11:08:23Z</time>
      </trkpt>
      <trkpt lat="56.06574397534132" lon="-4.337560962885618">
        <ele>68.870000000000005</ele>
        <time>2023-09-02T11:08:24Z</time>
      </trkpt>
      <trkpt lat="56.065803989768028" lon="-4.33745501562953">
        <ele>69.829999999999998</ele>
        <time>2023-09-02T11:08:25Z</time>
      </trkpt>
      <trkpt lat="56.06587003916502" lon="-4.337340015918016">
        <ele>70.310000000000002</ele>
        <time>2023-09-02T11:08:26Z</time>
      </trkpt>
      <trkpt lat="56.065932987257838" lon="-4.337229961529374">
        <ele>71.269999999999996</ele>
        <time>2023-09-02T11:08:27Z</time>
      </trkpt>
      <trkpt lat="56.065996019169688" lon="-4.337119990959764">
        <ele>71.760000000000005</ele>
        <time>2023-09-02T11:08:28Z</time>
      </trkpt>
      <trkpt lat="56.066061984747648" lon="-4.337003985419869">
        <ele>72.719999999999999</ele>
        <time>2023-09-02T11:08:29Z</time>
      </trkpt>
      <trkpt lat="56.066131973639131" lon="-4.336897032335401">
        <ele>73.680000000000007</ele>
        <time>2023-09-02T11:08:30Z</time>
      </trkpt>
      <trkpt lat="56.066933032125235" lon="-4.336026990786195">
        <ele>77.040000000000006</ele>
        <time>2023-09-02T11:08:40Z</time>
      </trkpt>
      <trkpt lat="56.067158002406359" lon="-4.335879972204566">
        <ele>78</ele>
        <time>2023-09-02T11:08:43Z</time>
      </trkpt>
      <trkpt lat="56.067218016833067" lon="-4.335842002183199">
        <ele>78.480000000000004</ele>
        <time>2023-09-02T11:08:44Z</time>
      </trkpt>
      <trkpt lat="56.067277025431395" lon="-4.335815012454987">
        <ele>78.480000000000004</ele>
        <time>2023-09-02T11:08:45Z</time>
      </trkpt>
      <trkpt lat="56.067340979352593" lon="-4.335797997191548">
        <ele>78.969999999999999</ele>
        <time>2023-09-02T11:08:46Z</time>
      </trkpt>
      <trkpt lat="56.067407028749585" lon="-4.33578098192811">
        <ele>78.969999999999999</ele>
        <time>2023-09-02T11:08:47Z</time>
      </trkpt>
      <trkpt lat="56.06769997626543" lon="-4.335705041885376">
        <ele>80.409999999999997</ele>
        <time>2023-09-02T11:08:51Z</time>
      </trkpt>
      <trkpt lat="56.068697003647685" lon="-4.335813000798225">
        <ele>81.370000000000005</ele>
        <time>2023-09-02T11:09:03Z</time>
      </trkpt>
      <trkpt lat="56.069680033251643" lon="-4.336255984380841">
        <ele>87.140000000000001</ele>
        <time>2023-09-02T11:09:15Z</time>
      </trkpt>
      <trkpt lat="56.070701032876968" lon="-4.336756970733404">
        <ele>99.150000000000006</ele>
        <time>2023-09-02T11:09:28Z</time>
      </trkpt>
      <trkpt lat="56.071111997589469" lon="-4.336944976821542">
        <ele>102.52</ele>
        <time>2023-09-02T11:09:33Z</time>
      </trkpt>
      <trkpt lat="56.07165195979178" lon="-4.33711102232337">
        <ele>106.36</ele>
        <time>2023-09-02T11:09:39Z</time>
      </trkpt>
      <trkpt lat="56.071816999465227" lon="-4.3370680231601">
        <ele>107.31999999999999</ele>
        <time>2023-09-02T11:09:41Z</time>
      </trkpt>
      <trkpt lat="56.071898974478245" lon="-4.336987975984812">
        <ele>107.31999999999999</ele>
        <time>2023-09-02T11:09:42Z</time>
      </trkpt>
      <trkpt lat="56.071978015825152" lon="-4.336910024285317">
        <ele>107.81</ele>
        <time>2023-09-02T11:09:43Z</time>
      </trkpt>
      <trkpt lat="56.072054039686918" lon="-4.336836012080312">
        <ele>108.29000000000001</ele>
        <time>2023-09-02T11:09:44Z</time>
      </trkpt>
      <trkpt lat="56.072131991386414" lon="-4.336759988218546">
        <ele>108.77</ele>
        <time>2023-09-02T11:09:45Z</time>
      </trkpt>
      <trkpt lat="56.072212960571051" lon="-4.33668103069067">
        <ele>109.25</ele>
        <time>2023-09-02T11:09:46Z</time>
      </trkpt>
      <trkpt lat="56.072296025231481" lon="-4.336599977687001">
        <ele>109.73</ele>
        <time>2023-09-02T11:09:47Z</time>
      </trkpt>
      <trkpt lat="56.072542034089565" lon="-4.33635899797082">
        <ele>110.69</ele>
        <time>2023-09-02T11:09:50Z</time>
      </trkpt>
      <trkpt lat="56.07261897996068" lon="-4.336283979937434">
        <ele>110.69</ele>
        <time>2023-09-02T11:09:51Z</time>
      </trkpt>
      <trkpt lat="56.072739008814096" lon="-4.336165962740779">
        <ele>111.65000000000001</ele>
        <time>2023-09-02T11:09:53Z</time>
      </trkpt>
      <trkpt lat="56.072862977162004" lon="-4.336179038509727">
        <ele>112.13</ele>
        <time>2023-09-02T11:09:54Z</time>
      </trkpt>
      <trkpt lat="56.072956016287208" lon="-4.33618800714612">
        <ele>112.61</ele>
        <time>2023-09-02T11:09:55Z</time>
      </trkpt>
      <trkpt lat="56.073037991300225" lon="-4.336195969954133">
        <ele>113.09</ele>
        <time>2023-09-02T11:09:56Z</time>
      </trkpt>
      <trkpt lat="56.073105968534946" lon="-4.336203010752797">
        <ele>114.05</ele>
        <time>2023-09-02T11:09:57Z</time>
      </trkpt>
      <trkpt lat="56.073167994618416" lon="-4.336208961904049">
        <ele>115.01000000000001</ele>
        <time>2023-09-02T11:09:59Z</time>
      </trkpt>
      <trkpt lat="56.073264973238111" lon="-4.336134027689695">
        <ele>115.5</ele>
        <time>2023-09-02T11:10:00Z</time>
      </trkpt>
      <trkpt lat="56.073319036513567" lon="-4.336092034354806">
        <ele>115.98</ele>
        <time>2023-09-02T11:10:01Z</time>
      </trkpt>
      <trkpt lat="56.073363963514566" lon="-4.336050963029265">
        <ele>116.45999999999999</ele>
        <time>2023-09-02T11:10:02Z</time>
      </trkpt>
      <trkpt lat="56.073402017354965" lon="-4.335960019379854">
        <ele>117.42</ele>
        <time>2023-09-02T11:10:03Z</time>
      </trkpt>
      <trkpt lat="56.073441999033093" lon="-4.335862034931779">
        <ele>117.90000000000001</ele>
        <time>2023-09-02T11:10:04Z</time>
      </trkpt>
      <trkpt lat="56.073482986539602" lon="-4.335762038826942">
        <ele>117.90000000000001</ele>
        <time>2023-09-02T11:10:05Z</time>
      </trkpt>
      <trkpt lat="56.073525985702872" lon="-4.335657013580203">
        <ele>118.38</ele>
        <time>2023-09-02T11:10:06Z</time>
      </trkpt>
      <trkpt lat="56.073553981259465" lon="-4.335587024688721">
        <ele>118.38</ele>
        <time>2023-09-02T11:10:07Z</time>
      </trkpt>
      <trkpt lat="56.073665041476488" lon="-4.335536984726787">
        <ele>118.38</ele>
        <time>2023-09-02T11:10:08Z</time>
      </trkpt>
      <trkpt lat="56.073739975690842" lon="-4.335503038018942">
        <ele>118.38</ele>
        <time>2023-09-02T11:10:09Z</time>
      </trkpt>
      <trkpt lat="56.073808036744595" lon="-4.335495997220278">
        <ele>118.38</ele>
        <time>2023-09-02T11:10:10Z</time>
      </trkpt>
      <trkpt lat="56.073880037292838" lon="-4.335561040788889">
        <ele>118.38</ele>
        <time>2023-09-02T11:10:11Z</time>
      </trkpt>
      <trkpt lat="56.073960000649095" lon="-4.335633041337133">
        <ele>118.38</ele>
        <time>2023-09-02T11:10:12Z</time>
      </trkpt>
      <trkpt lat="56.074038036167622" lon="-4.335718033835292">
        <ele>118.38</ele>
        <time>2023-09-02T11:10:13Z</time>
      </trkpt>
      <trkpt lat="56.074269041419029" lon="-4.336035959422588">
        <ele>118.38</ele>
        <time>2023-09-02T11:10:16Z</time>
      </trkpt>
      <trkpt lat="56.074347998946905" lon="-4.33614500798285">
        <ele>117.90000000000001</ele>
        <time>2023-09-02T11:10:17Z</time>
      </trkpt>
      <trkpt lat="56.074430979788303" lon="-4.336278028786182">
        <ele>118.38</ele>
        <time>2023-09-02T11:10:18Z</time>
      </trkpt>
      <trkpt lat="56.074516978114843" lon="-4.33640199713409">
        <ele>118.86</ele>
        <time>2023-09-02T11:10:19Z</time>
      </trkpt>
      <trkpt lat="56.074608005583286" lon="-4.336519008502364">
        <ele>118.86</ele>
        <time>2023-09-02T11:10:20Z</time>
      </trkpt>
      <trkpt lat="56.074710013344884" lon="-4.336639037355781">
        <ele>119.34</ele>
        <time>2023-09-02T11:10:21Z</time>
      </trkpt>
      <trkpt lat="56.074825013056397" lon="-4.336771974340081">
        <ele>119.34</ele>
        <time>2023-09-02T11:10:22Z</time>
      </trkpt>
      <trkpt lat="56.075695976614952" lon="-4.338017022237182">
        <ele>119.81999999999999</ele>
        <time>2023-09-02T11:10:29Z</time>
      </trkpt>
      <trkpt lat="56.076279021799564" lon="-4.339069034904242">
        <ele>122.22</ele>
        <time>2023-09-02T11:10:34Z</time>
      </trkpt>
      <trkpt lat="56.07637801207602" lon="-4.339177999645472">
        <ele>122.70999999999999</ele>
        <time>2023-09-02T11:10:35Z</time>
      </trkpt>
      <trkpt lat="56.076429979875684" lon="-4.339234996587038">
        <ele>123.19</ele>
        <time>2023-09-02T11:10:36Z</time>
      </trkpt>
      <trkpt lat="56.076523019000888" lon="-4.339179005473852">
        <ele>123.67</ele>
        <time>2023-09-02T11:10:37Z</time>
      </trkpt>
      <trkpt lat="56.076602982357144" lon="-4.339130977168679">
        <ele>124.15000000000001</ele>
        <time>2023-09-02T11:10:38Z</time>
      </trkpt>
      <trkpt lat="56.076680012047291" lon="-4.339056964963675">
        <ele>125.11</ele>
        <time>2023-09-02T11:10:39Z</time>
      </trkpt>
      <trkpt lat="56.076767016202211" lon="-4.33893802575767">
        <ele>125.59</ele>
        <time>2023-09-02T11:10:40Z</time>
      </trkpt>
      <trkpt lat="56.076862988993526" lon="-4.338805004954338">
        <ele>126.55</ele>
        <time>2023-09-02T11:10:41Z</time>
      </trkpt>
      <trkpt lat="56.076969020068645" lon="-4.33865999802947">
        <ele>127.03</ele>
        <time>2023-09-02T11:10:42Z</time>
      </trkpt>
      <trkpt lat="56.077082008123398" lon="-4.338504010811448">
        <ele>127.98999999999999</ele>
        <time>2023-09-02T11:10:43Z</time>
      </trkpt>
      <trkpt lat="56.077200025320053" lon="-4.338341988623142">
        <ele>128.94999999999999</ele>
        <time>2023-09-02T11:10:44Z</time>
      </trkpt>
      <trkpt lat="56.07732399366796" lon="-4.338172003626823">
        <ele>129.91999999999999</ele>
        <time>2023-09-02T11:10:45Z</time>
      </trkpt>
      <trkpt lat="56.078440966084599" lon="-4.337011026218534">
        <ele>138.09</ele>
        <time>2023-09-02T11:10:53Z</time>
      </trkpt>
      <trkpt lat="56.078559989109635" lon="-4.336924022063613">
        <ele>138.56999999999999</ele>
        <time>2023-09-02T11:10:54Z</time>
      </trkpt>
      <trkpt lat="56.078683035448194" lon="-4.336886974051595">
        <ele>139.53</ele>
        <time>2023-09-02T11:10:55Z</time>
      </trkpt>
      <trkpt lat="56.078814966604114" lon="-4.336846992373467">
        <ele>140.00999999999999</ele>
        <time>2023-09-02T11:10:56Z</time>
      </trkpt>
      <trkpt lat="56.078956034034491" lon="-4.336803993210197">
        <ele>140.49000000000001</ele>
        <time>2023-09-02T11:10:57Z</time>
      </trkpt>
      <trkpt lat="56.07910699211061" lon="-4.336783960461617">
        <ele>140.97</ele>
        <time>2023-09-02T11:10:58Z</time>
      </trkpt>
      <trkpt lat="56.080839028581977" lon="-4.33670399710536">
        <ele>140.00999999999999</ele>
        <time>2023-09-02T11:11:08Z</time>
      </trkpt>
      <trkpt lat="56.082738032564521" lon="-4.33661699295044">
        <ele>138.09</ele>
        <time>2023-09-02T11:11:19Z</time>
      </trkpt>
      <trkpt lat="56.084360014647245" lon="-4.337066011503339">
        <ele>140.00999999999999</ele>
        <time>2023-09-02T11:11:29Z</time>
      </trkpt>
      <trkpt lat="56.085840007290244" lon="-4.337144969031215">
        <ele>137.13</ele>
        <time>2023-09-02T11:11:37Z</time>
      </trkpt>
      <trkpt lat="56.086013009771705" lon="-4.337149998173118">
        <ele>136.63999999999999</ele>
        <time>2023-09-02T11:11:38Z</time>
      </trkpt>
      <trkpt lat="56.086185006424785" lon="-4.337171036750078">
        <ele>135.68000000000001</ele>
        <time>2023-09-02T11:11:39Z</time>
      </trkpt>
      <trkpt lat="56.086352979764342" lon="-4.337255023419857">
        <ele>135.19999999999999</ele>
        <time>2023-09-02T11:11:40Z</time>
      </trkpt>
      <trkpt lat="56.086536040529609" lon="-4.337346972897649">
        <ele>134.72</ele>
        <time>2023-09-02T11:11:41Z</time>
      </trkpt>
      <trkpt lat="56.08669102191925" lon="-4.337464990094304">
        <ele>134.24000000000001</ele>
        <time>2023-09-02T11:11:42Z</time>
      </trkpt>
      <trkpt lat="56.088049979880452" lon="-4.338470986112952">
        <ele>130.40000000000001</ele>
        <time>2023-09-02T11:11:50Z</time>
      </trkpt>
      <trkpt lat="56.088233040645719" lon="-4.338498981669545">
        <ele>129.43000000000001</ele>
        <time>2023-09-02T11:11:51Z</time>
      </trkpt>
      <trkpt lat="56.090359026566148" lon="-4.338823026046157">
        <ele>129.91999999999999</ele>
        <time>2023-09-02T11:12:03Z</time>
      </trkpt>
      <trkpt lat="56.092288037762046" lon="-4.339457033202052">
        <ele>131.84</ele>
        <time>2023-09-02T11:12:14Z</time>
      </trkpt>
      <trkpt lat="56.094799004495144" lon="-4.341023024171591">
        <ele>127.03</ele>
        <time>2023-09-02T11:12:27Z</time>
      </trkpt>
      <trkpt lat="56.09620900824666" lon="-4.341862974688411">
        <ele>122.70999999999999</ele>
        <time>2023-09-02T11:12:35Z</time>
      </trkpt>
      <trkpt lat="56.098000975325704" lon="-4.342916999012232">
        <ele>113.09</ele>
        <time>2023-09-02T11:12:46Z</time>
      </trkpt>
      <trkpt lat="56.098579997196794" lon="-4.343293011188507">
        <ele>109.25</ele>
        <time>2023-09-02T11:12:53Z</time>
      </trkpt>
      <trkpt lat="56.09874595887959" lon="-4.343418991193175">
        <ele>105.88</ele>
        <time>2023-09-02T11:13:01Z</time>
      </trkpt>
      <trkpt lat="56.098763979971409" lon="-4.343356965109706">
        <ele>105.40000000000001</ele>
        <time>2023-09-02T11:13:02Z</time>
      </trkpt>
      <trkpt lat="56.098788036033511" lon="-4.343273984268308">
        <ele>104.92</ele>
        <time>2023-09-02T11:13:03Z</time>
      </trkpt>
      <trkpt lat="56.098820976912975" lon="-4.343158984556794">
        <ele>104.44</ele>
        <time>2023-09-02T11:13:04Z</time>
      </trkpt>
      <trkpt lat="56.098864981904626" lon="-4.343010960146785">
        <ele>103.95999999999999</ele>
        <time>2023-09-02T11:13:05Z</time>
      </trkpt>
      <trkpt lat="56.098917033523321" lon="-4.342831000685692">
        <ele>103.48</ele>
        <time>2023-09-02T11:13:06Z</time>
      </trkpt>
      <trkpt lat="56.09941097907722" lon="-4.341102987527847">
        <ele>100.59999999999999</ele>
        <time>2023-09-02T11:13:13Z</time>
      </trkpt>
      <trkpt lat="56.099743992090225" lon="-4.339958019554615">
        <ele>99.629999999999995</ele>
        <time>2023-09-02T11:13:17Z</time>
      </trkpt>
      <trkpt lat="56.09986200928688" lon="-4.339703964069486">
        <ele>99.150000000000006</ele>
        <time>2023-09-02T11:13:18Z</time>
      </trkpt>
      <trkpt lat="56.100906981155276" lon="-4.337383015081286">
        <ele>100.59999999999999</ele>
        <time>2023-09-02T11:13:27Z</time>
      </trkpt>
      <trkpt lat="56.101780040189624" lon="-4.33509198948741">
        <ele>102.04000000000001</ele>
        <time>2023-09-02T11:13:36Z</time>
      </trkpt>
      <trkpt lat="56.102490993216634" lon="-4.333699000999332">
        <ele>98.670000000000002</ele>
        <time>2023-09-02T11:13:43Z</time>
      </trkpt>
      <trkpt lat="56.103295991197228" lon="-4.332201993092895">
        <ele>94.829999999999998</ele>
        <time>2023-09-02T11:13:51Z</time>
      </trkpt>
      <trkpt lat="56.10334200784564" lon="-4.332107026129961">
        <ele>94.349999999999994</ele>
        <time>2023-09-02T11:13:52Z</time>
      </trkpt>
      <trkpt lat="56.103374026715755" lon="-4.332040976732969">
        <ele>93.870000000000005</ele>
        <time>2023-09-02T11:13:53Z</time>
      </trkpt>
      <trkpt lat="56.10349397175014" lon="-4.33195598423481">
        <ele>93.870000000000005</ele>
        <time>2023-09-02T11:13:54Z</time>
      </trkpt>
      <trkpt lat="56.103540994226933" lon="-4.332012981176376">
        <ele>93.390000000000001</ele>
        <time>2023-09-02T11:13:55Z</time>
      </trkpt>
      <trkpt lat="56.103605031967163" lon="-4.332091016694903">
        <ele>92.900000000000006</ele>
        <time>2023-09-02T11:13:56Z</time>
      </trkpt>
      <trkpt lat="56.103682983666658" lon="-4.332184977829456">
        <ele>92.900000000000006</ele>
        <time>2023-09-02T11:13:57Z</time>
      </trkpt>
      <trkpt lat="56.104542966932058" lon="-4.33285896666348">
        <ele>86.659999999999997</ele>
        <time>2023-09-02T11:14:05Z</time>
      </trkpt>
      <trkpt lat="56.104886038228869" lon="-4.333133976906538">
        <ele>84.730000000000004</ele>
        <time>2023-09-02T11:14:09Z</time>
      </trkpt>
      <trkpt lat="56.105227014049888" lon="-4.333445029333234">
        <ele>83.290000000000006</ele>
        <time>2023-09-02T11:14:15Z</time>
      </trkpt>
      <trkpt lat="56.105265989899635" lon="-4.33354401960969">
        <ele>82.810000000000002</ele>
        <time>2023-09-02T11:14:16Z</time>
      </trkpt>
      <trkpt lat="56.105312006548047" lon="-4.333662036806345">
        <ele>82.329999999999998</ele>
        <time>2023-09-02T11:14:17Z</time>
      </trkpt>
      <trkpt lat="56.105412002652884" lon="-4.333917014300823">
        <ele>81.370000000000005</ele>
        <time>2023-09-02T11:14:19Z</time>
      </trkpt>
      <trkpt lat="56.105466987937689" lon="-4.334026984870434">
        <ele>80.890000000000001</ele>
        <time>2023-09-02T11:14:20Z</time>
      </trkpt>
      <trkpt lat="56.105529014021158" lon="-4.334148019552231">
        <ele>80.409999999999997</ele>
        <time>2023-09-02T11:14:21Z</time>
      </trkpt>
      <trkpt lat="56.106301993131638" lon="-4.335320983082056">
        <ele>74.640000000000001</ele>
        <time>2023-09-02T11:14:32Z</time>
      </trkpt>
      <trkpt lat="56.106529980897903" lon="-4.335575960576534">
        <ele>73.200000000000003</ele>
        <time>2023-09-02T11:14:36Z</time>
      </trkpt>
      <trkpt lat="56.106588989496231" lon="-4.335633963346481">
        <ele>72.719999999999999</ele>
        <time>2023-09-02T11:14:37Z</time>
      </trkpt>
      <trkpt lat="56.10671597532928" lon="-4.335680985823274">
        <ele>72.239999999999995</ele>
        <time>2023-09-02T11:14:39Z</time>
      </trkpt>
      <trkpt lat="56.106937006115913" lon="-4.335762038826942">
        <ele>70.790000000000006</ele>
        <time>2023-09-02T11:14:42Z</time>
      </trkpt>
      <trkpt lat="56.107018981128931" lon="-4.335791962221265">
        <ele>70.310000000000002</ele>
        <time>2023-09-02T11:14:43Z</time>
      </trkpt>
      <trkpt lat="56.107198018580675" lon="-4.335858011618257">
        <ele>69.349999999999994</ele>
        <time>2023-09-02T11:14:45Z</time>
      </trkpt>
      <trkpt lat="56.107289968058467" lon="-4.335920959711075">
        <ele>68.870000000000005</ele>
        <time>2023-09-02T11:14:46Z</time>
      </trkpt>
      <trkpt lat="56.107458025217056" lon="-4.336055992171168">
        <ele>69.349999999999994</ele>
        <time>2023-09-02T11:14:48Z</time>
      </trkpt>
      <trkpt lat="56.107538994401693" lon="-4.336120029911399">
        <ele>69.349999999999994</ele>
        <time>2023-09-02T11:14:49Z</time>
      </trkpt>
      <trkpt lat="56.107649970799685" lon="-4.336208961904049">
        <ele>70.310000000000002</ele>
        <time>2023-09-02T11:14:50Z</time>
      </trkpt>
      <trkpt lat="56.107744015753269" lon="-4.336208961904049">
        <ele>70.790000000000006</ele>
        <time>2023-09-02T11:14:51Z</time>
      </trkpt>
      <trkpt lat="56.107871001586318" lon="-4.33618700131774">
        <ele>71.269999999999996</ele>
        <time>2023-09-02T11:14:52Z</time>
      </trkpt>
      <trkpt lat="56.108593018725514" lon="-4.335958007723093">
        <ele>71.269999999999996</ele>
        <time>2023-09-02T11:14:58Z</time>
      </trkpt>
      <trkpt lat="56.108717992901802" lon="-4.335879972204566">
        <ele>70.790000000000006</ele>
        <time>2023-09-02T11:14:59Z</time>
      </trkpt>
      <trkpt lat="56.108803991228342" lon="-4.335764972493053">
        <ele>70.790000000000006</ele>
        <time>2023-09-02T11:15:00Z</time>
      </trkpt>
      <trkpt lat="56.109652994200587" lon="-4.334628973156214">
        <ele>69.349999999999994</ele>
        <time>2023-09-02T11:15:09Z</time>
      </trkpt>
      <trkpt lat="56.110190022736788" lon="-4.33391097933054">
        <ele>68.390000000000001</ele>
        <time>2023-09-02T11:15:15Z</time>
      </trkpt>
      <trkpt lat="56.110265040770173" lon="-4.333866974338889">
        <ele>67.909999999999997</ele>
        <time>2023-09-02T11:15:16Z</time>
      </trkpt>
      <trkpt lat="56.110355984419584" lon="-4.333830010145903">
        <ele>67.430000000000007</ele>
        <time>2023-09-02T11:15:17Z</time>
      </trkpt>
      <trkpt lat="56.110740965232253" lon="-4.333671005442739">
        <ele>65.030000000000001</ele>
        <time>2023-09-02T11:15:21Z</time>
      </trkpt>
      <trkpt lat="56.110836016014218" lon="-4.333632029592991">
        <ele>64.549999999999997</ele>
        <time>2023-09-02T11:15:22Z</time>
      </trkpt>
      <trkpt lat="56.11092695966363" lon="-4.333593975752592">
        <ele>63.100000000000001</ele>
        <time>2023-09-02T11:15:23Z</time>
      </trkpt>
      <trkpt lat="56.111016981303692" lon="-4.333557011559606">
        <ele>61.659999999999997</ele>
        <time>2023-09-02T11:15:24Z</time>
      </trkpt>
      <trkpt lat="56.111099040135741" lon="-4.333522981032729">
        <ele>60.219999999999999</ele>
        <time>2023-09-02T11:15:25Z</time>
      </trkpt>
      <trkpt lat="56.111171962693334" lon="-4.333492973819375">
        <ele>59.259999999999998</ele>
        <time>2023-09-02T11:15:26Z</time>
      </trkpt>
      <trkpt lat="56.111240023747087" lon="-4.333465984091163">
        <ele>57.82</ele>
        <time>2023-09-02T11:15:27Z</time>
      </trkpt>
      <trkpt lat="56.111315963789821" lon="-4.333461038768292">
        <ele>56.859999999999999</ele>
        <time>2023-09-02T11:15:28Z</time>
      </trkpt>
      <trkpt lat="56.111376984044909" lon="-4.333525998517871">
        <ele>55.890000000000001</ele>
        <time>2023-09-02T11:15:29Z</time>
      </trkpt>
      <trkpt lat="56.111445967108011" lon="-4.333601016551256">
        <ele>54.93</ele>
        <time>2023-09-02T11:15:30Z</time>
      </trkpt>
      <trkpt lat="56.111576976254582" lon="-4.333742000162602">
        <ele>52.530000000000001</ele>
        <time>2023-09-02T11:15:32Z</time>
      </trkpt>
      <trkpt lat="56.111941002309322" lon="-4.333991026505828">
        <ele>47.240000000000002</ele>
        <time>2023-09-02T11:15:36Z</time>
      </trkpt>
      <trkpt lat="56.112021971493959" lon="-4.334042994305491">
        <ele>46.280000000000001</ele>
        <time>2023-09-02T11:15:37Z</time>
      </trkpt>
      <trkpt lat="56.112105958163738" lon="-4.334094962105155">
        <ele>44.840000000000003</ele>
        <time>2023-09-02T11:15:38Z</time>
      </trkpt>
      <trkpt lat="56.112971976399422" lon="-4.334621010348201">
        <ele>35.229999999999997</ele>
        <time>2023-09-02T11:15:46Z</time>
      </trkpt>
      <trkpt lat="56.113644959405065" lon="-4.334930973127484">
        <ele>28.98</ele>
        <time>2023-09-02T11:15:52Z</time>
      </trkpt>
      <trkpt lat="56.114329006522894" lon="-4.335115039721131">
        <ele>22.25</ele>
        <time>2023-09-02T11:15:59Z</time>
      </trkpt>
      <trkpt lat="56.114431014284492" lon="-4.33517899364233">
        <ele>20.809999999999999</ele>
        <time>2023-09-02T11:16:01Z</time>
      </trkpt>
      <trkpt lat="56.114608040079474" lon="-4.335025018081069">
        <ele>20.32</ele>
        <time>2023-09-02T11:16:02Z</time>
      </trkpt>
      <trkpt lat="56.115273982286453" lon="-4.335396001115441">
        <ele>19.359999999999999</ele>
        <time>2023-09-02T11:16:08Z</time>
      </trkpt>
      <trkpt lat="56.115402979776263" lon="-4.335462972521782">
        <ele>19.359999999999999</ele>
        <time>2023-09-02T11:16:09Z</time>
      </trkpt>
      <trkpt lat="56.115499958395958" lon="-4.335552994161844">
        <ele>19.359999999999999</ele>
        <time>2023-09-02T11:16:10Z</time>
      </trkpt>
      <trkpt lat="56.115586962550879" lon="-4.335633041337133">
        <ele>19.359999999999999</ele>
        <time>2023-09-02T11:16:11Z</time>
      </trkpt>
      <trkpt lat="56.11569500528276" lon="-4.335787016898394">
        <ele>18.879999999999999</ele>
        <time>2023-09-02T11:16:12Z</time>
      </trkpt>
      <trkpt lat="56.11576097086072" lon="-4.33603797107935">
        <ele>18.879999999999999</ele>
        <time>2023-09-02T11:16:13Z</time>
      </trkpt>
      <trkpt lat="56.115777986124158" lon="-4.33621097356081">
        <ele>18.399999999999999</ele>
        <time>2023-09-02T11:16:14Z</time>
      </trkpt>
      <trkpt lat="56.115800030529499" lon="-4.336434016004205">
        <ele>17.920000000000002</ele>
        <time>2023-09-02T11:16:15Z</time>
      </trkpt>
      <trkpt lat="56.115821991115808" lon="-4.336664015427232">
        <ele>17.440000000000001</ele>
        <time>2023-09-02T11:16:16Z</time>
      </trkpt>
      <trkpt lat="56.115958029404283" lon="-4.337867991998792">
        <ele>18.879999999999999</ele>
        <time>2023-09-02T11:16:21Z</time>
      </trkpt>
      <trkpt lat="56.115988036617637" lon="-4.338105032220483">
        <ele>19.359999999999999</ele>
        <time>2023-09-02T11:16:22Z</time>
      </trkpt>
      <trkpt lat="56.116210995242" lon="-4.339645961299539">
        <ele>20.809999999999999</ele>
        <time>2023-09-02T11:16:29Z</time>
      </trkpt>
      <trkpt lat="56.116302022710443" lon="-4.340019039809704">
        <ele>21.289999999999999</ele>
        <time>2023-09-02T11:16:31Z</time>
      </trkpt>
      <trkpt lat="56.116342004388571" lon="-4.340197993442416">
        <ele>21.289999999999999</ele>
        <time>2023-09-02T11:16:32Z</time>
      </trkpt>
      <trkpt lat="56.116356002166867" lon="-4.34039899148047">
        <ele>21.77</ele>
        <time>2023-09-02T11:16:33Z</time>
      </trkpt>
      <trkpt lat="56.116265980526805" lon="-4.341840008273721">
        <ele>20.32</ele>
        <time>2023-09-02T11:16:39Z</time>
      </trkpt>
      <trkpt lat="56.116151986643672" lon="-4.343787962570787">
        <ele>25.129999999999999</ele>
        <time>2023-09-02T11:16:47Z</time>
      </trkpt>
      <trkpt lat="56.11616900190711" lon="-4.343932969495654">
        <ele>26.09</ele>
        <time>2023-09-02T11:16:48Z</time>
      </trkpt>
      <trkpt lat="56.11621200107038" lon="-4.344061966985464">
        <ele>27.050000000000001</ele>
        <time>2023-09-02T11:16:49Z</time>
      </trkpt>
      <trkpt lat="56.11627503298223" lon="-4.344187024980784">
        <ele>27.530000000000001</ele>
        <time>2023-09-02T11:16:50Z</time>
      </trkpt>
      <trkpt lat="56.11636396497488" lon="-4.344311999157071">
        <ele>28.5</ele>
        <time>2023-09-02T11:16:51Z</time>
      </trkpt>
      <trkpt lat="56.117231994867325" lon="-4.34561999514699">
        <ele>28.98</ele>
        <time>2023-09-02T11:16:59Z</time>
      </trkpt>
      <trkpt lat="56.117646982893348" lon="-4.346312005072832">
        <ele>28.98</ele>
        <time>2023-09-02T11:17:03Z</time>
      </trkpt>
      <trkpt lat="56.117740022018552" lon="-4.34650101698935">
        <ele>29.460000000000001</ele>
        <time>2023-09-02T11:17:04Z</time>
      </trkpt>
      <trkpt lat="56.118349973112345" lon="-4.348298013210297">
        <ele>31.379999999999999</ele>
        <time>2023-09-02T11:17:12Z</time>
      </trkpt>
      <trkpt lat="56.118911979719996" lon="-4.350257031619549">
        <ele>32.340000000000003</ele>
        <time>2023-09-02T11:17:20Z</time>
      </trkpt>
      <trkpt lat="56.119066039100289" lon="-4.350747037678957">
        <ele>32.82</ele>
        <time>2023-09-02T11:17:22Z</time>
      </trkpt>
      <trkpt lat="56.119167963042855" lon="-4.350976031273603">
        <ele>33.299999999999997</ele>
        <time>2023-09-02T11:17:23Z</time>
      </trkpt>
      <trkpt lat="56.12007999792695" lon="-4.353066980838776">
        <ele>34.740000000000002</ele>
        <time>2023-09-02T11:17:32Z</time>
      </trkpt>
      <trkpt lat="56.120245037600398" lon="-4.353521028533578">
        <ele>35.710000000000001</ele>
        <time>2023-09-02T11:17:34Z</time>
      </trkpt>
      <trkpt lat="56.120301028713584" lon="-4.353745998814702">
        <ele>36.670000000000002</ele>
        <time>2023-09-02T11:17:35Z</time>
      </trkpt>
      <trkpt lat="56.120354002341628" lon="-4.353962000459433">
        <ele>36.670000000000002</ele>
        <time>2023-09-02T11:17:36Z</time>
      </trkpt>
      <trkpt lat="56.12037998624146" lon="-4.354182025417686">
        <ele>37.630000000000003</ele>
        <time>2023-09-02T11:17:37Z</time>
      </trkpt>
      <trkpt lat="56.120394989848137" lon="-4.354419987648726">
        <ele>38.109999999999999</ele>
        <time>2023-09-02T11:17:38Z</time>
      </trkpt>
      <trkpt lat="56.120390966534615" lon="-4.354669013991952">
        <ele>38.590000000000003</ele>
        <time>2023-09-02T11:17:39Z</time>
      </trkpt>
      <trkpt lat="56.120346961542964" lon="-4.357710974290967">
        <ele>47.719999999999999</ele>
        <time>2023-09-02T11:17:51Z</time>
      </trkpt>
      <trkpt lat="56.120326006785035" lon="-4.358955016359687">
        <ele>49.649999999999999</ele>
        <time>2023-09-02T11:17:59Z</time>
      </trkpt>
      <trkpt lat="56.120321983471513" lon="-4.359051994979382">
        <ele>49.649999999999999</ele>
        <time>2023-09-02T11:18:00Z</time>
      </trkpt>
      <trkpt lat="56.120316032320261" lon="-4.359227009117603">
        <ele>51.57</ele>
        <time>2023-09-02T11:18:07Z</time>
      </trkpt>
      <trkpt lat="56.120505966246128" lon="-4.359491039067507">
        <ele>53.969999999999999</ele>
        <time>2023-09-02T11:18:27Z</time>
      </trkpt>
      <trkpt lat="56.121074007824063" lon="-4.360592002049089">
        <ele>56.369999999999997</ele>
        <time>2023-09-02T11:18:37Z</time>
      </trkpt>
      <trkpt lat="56.121587986126542" lon="-4.361887006089091">
        <ele>55.890000000000001</ele>
        <time>2023-09-02T11:18:46Z</time>
      </trkpt>
      <trkpt lat="56.12164800055325" lon="-4.36205598525703">
        <ele>55.890000000000001</ele>
        <time>2023-09-02T11:18:47Z</time>
      </trkpt>
      <trkpt lat="56.121686976402998" lon="-4.362241979688406">
        <ele>55.890000000000001</ele>
        <time>2023-09-02T11:18:48Z</time>
      </trkpt>
      <trkpt lat="56.121726036071777" lon="-4.362451024353504">
        <ele>55.890000000000001</ele>
        <time>2023-09-02T11:18:49Z</time>
      </trkpt>
      <trkpt lat="56.121723018586636" lon="-4.362653028219938">
        <ele>55.409999999999997</ele>
        <time>2023-09-02T11:18:50Z</time>
      </trkpt>
      <trkpt lat="56.121720001101494" lon="-4.362866012379527">
        <ele>55.409999999999997</ele>
        <time>2023-09-02T11:18:51Z</time>
      </trkpt>
      <trkpt lat="56.12171296030283" lon="-4.363268008455634">
        <ele>54.450000000000003</ele>
        <time>2023-09-02T11:18:53Z</time>
      </trkpt>
      <trkpt lat="56.1217110324651" lon="-4.363451991230249">
        <ele>53.969999999999999</ele>
        <time>2023-09-02T11:18:54Z</time>
      </trkpt>
      <trkpt lat="56.121707009151578" lon="-4.363646032288671">
        <ele>53.490000000000002</ele>
        <time>2023-09-02T11:18:55Z</time>
      </trkpt>
      <trkpt lat="56.121555967256427" lon="-4.364624032750726">
        <ele>50.130000000000003</ele>
        <time>2023-09-02T11:19:00Z</time>
      </trkpt>
      <trkpt lat="56.121485978364944" lon="-4.36502200551331">
        <ele>48.68</ele>
        <time>2023-09-02T11:19:02Z</time>
      </trkpt>
      <trkpt lat="56.121405009180307" lon="-4.365477981045842">
        <ele>46.759999999999998</ele>
        <time>2023-09-02T11:19:05Z</time>
      </trkpt>
      <trkpt lat="56.121405009180307" lon="-4.365628017112613">
        <ele>45.799999999999997</ele>
        <time>2023-09-02T11:19:06Z</time>
      </trkpt>
      <trkpt lat="56.121407020837069" lon="-4.365842007100582">
        <ele>45.32</ele>
        <time>2023-09-02T11:19:07Z</time>
      </trkpt>
      <trkpt lat="56.121564013883471" lon="-4.367459965869784">
        <ele>37.630000000000003</ele>
        <time>2023-09-02T11:19:15Z</time>
      </trkpt>
      <trkpt lat="56.121583040803671" lon="-4.367601033300161">
        <ele>36.670000000000002</ele>
        <time>2023-09-02T11:19:16Z</time>
      </trkpt>
      <trkpt lat="56.121623022481799" lon="-4.367718966677785">
        <ele>35.229999999999997</ele>
        <time>2023-09-02T11:19:17Z</time>
      </trkpt>
      <trkpt lat="56.12166702747345" lon="-4.367802031338215">
        <ele>34.259999999999998</ele>
        <time>2023-09-02T11:19:18Z</time>
      </trkpt>
      <trkpt lat="56.121802981942892" lon="-4.367951983585954">
        <ele>31.379999999999999</ele>
        <time>2023-09-02T11:19:20Z</time>
      </trkpt>
      <trkpt lat="56.122745024040341" lon="-4.368983963504434">
        <ele>21.77</ele>
        <time>2023-09-02T11:19:28Z</time>
      </trkpt>
      <trkpt lat="56.123575000092387" lon="-4.369978979229927">
        <ele>17.920000000000002</ele>
        <time>2023-09-02T11:19:35Z</time>
      </trkpt>
      <trkpt lat="56.124661965295672" lon="-4.371771030128002">
        <ele>20.32</ele>
        <time>2023-09-02T11:19:45Z</time>
      </trkpt>
      <trkpt lat="56.125715989619493" lon="-4.37350801192224">
        <ele>29.460000000000001</ele>
        <time>2023-09-02T11:19:55Z</time>
      </trkpt>
      <trkpt lat="56.126100970432162" lon="-4.374143024906516">
        <ele>33.780000000000001</ele>
        <time>2023-09-02T11:19:59Z</time>
      </trkpt>
      <trkpt lat="56.126914015039802" lon="-4.376160968095064">
        <ele>44.359999999999999</ele>
        <time>2023-09-02T11:20:09Z</time>
      </trkpt>
      <trkpt lat="56.127649024128914" lon="-4.378166003152728">
        <ele>50.609999999999999</ele>
        <time>2023-09-02T11:20:19Z</time>
      </trkpt>
      <trkpt lat="56.1277050152421" lon="-4.378316039219499">
        <ele>51.090000000000003</ele>
        <time>2023-09-02T11:20:20Z</time>
      </trkpt>
      <trkpt lat="56.127754971385002" lon="-4.378489963710308">
        <ele>51.090000000000003</ele>
        <time>2023-09-02T11:20:21Z</time>
      </trkpt>
      <trkpt lat="56.127794031053782" lon="-4.378678975626826">
        <ele>51.090000000000003</ele>
        <time>2023-09-02T11:20:22Z</time>
      </trkpt>
      <trkpt lat="56.128056971356273" lon="-4.380476977676153">
        <ele>56.369999999999997</ele>
        <time>2023-09-02T11:20:30Z</time>
      </trkpt>
      <trkpt lat="56.128142969682813" lon="-4.382150005549192">
        <ele>57.82</ele>
        <time>2023-09-02T11:20:37Z</time>
      </trkpt>
      <trkpt lat="56.128169037401676" lon="-4.382287971675396">
        <ele>57.340000000000003</ele>
        <time>2023-09-02T11:20:38Z</time>
      </trkpt>
      <trkpt lat="56.12862803041935" lon="-4.384624008089304">
        <ele>49.649999999999999</ele>
        <time>2023-09-02T11:20:48Z</time>
      </trkpt>
      <trkpt lat="56.128915026783943" lon="-4.386062007397413">
        <ele>46.759999999999998</ele>
        <time>2023-09-02T11:20:56Z</time>
      </trkpt>
      <trkpt lat="56.129249967634678" lon="-4.387673009186983">
        <ele>41.950000000000003</ele>
        <time>2023-09-02T11:21:05Z</time>
      </trkpt>
      <trkpt lat="56.129387011751533" lon="-4.388114986941218">
        <ele>41.950000000000003</ele>
        <time>2023-09-02T11:21:10Z</time>
      </trkpt>
      <trkpt lat="56.129387011751533" lon="-4.388114986941218">
        <ele>41.950000000000003</ele>
        <time>2023-09-02T11:21:11Z</time>
      </trkpt>
      <trkpt lat="56.129349041730165" lon="-4.388158991932869">
        <ele>41.950000000000003</ele>
        <time>2023-09-02T11:21:12Z</time>
      </trkpt>
      <trkpt lat="56.129288021475077" lon="-4.388229986652732">
        <ele>41.950000000000003</ele>
        <time>2023-09-02T11:21:13Z</time>
      </trkpt>
      <trkpt lat="56.129213003441691" lon="-4.388315984979272">
        <ele>42.439999999999998</ele>
        <time>2023-09-02T11:21:14Z</time>
      </trkpt>
      <trkpt lat="56.129128010943532" lon="-4.388413969427347">
        <ele>42.439999999999998</ele>
        <time>2023-09-02T11:21:15Z</time>
      </trkpt>
      <trkpt lat="56.128229973837733" lon="-4.389448966830969">
        <ele>46.280000000000001</ele>
        <time>2023-09-02T11:21:23Z</time>
      </trkpt>
      <trkpt lat="56.127570988610387" lon="-4.390209037810564">
        <ele>49.649999999999999</ele>
        <time>2023-09-02T11:21:29Z</time>
      </trkpt>
      <trkpt lat="56.126616038382053" lon="-4.391311006620526">
        <ele>55.409999999999997</ele>
        <time>2023-09-02T11:21:39Z</time>
      </trkpt>
      <trkpt lat="56.125310976058245" lon="-4.392796028405428">
        <ele>62.619999999999997</ele>
        <time>2023-09-02T11:21:51Z</time>
      </trkpt>
      <trkpt lat="56.124219987541437" lon="-4.39400696195662">
        <ele>66.950000000000003</ele>
        <time>2023-09-02T11:22:00Z</time>
      </trkpt>
      <trkpt lat="56.122960019856691" lon="-4.395291991531849">
        <ele>70.790000000000006</ele>
        <time>2023-09-02T11:22:10Z</time>
      </trkpt>
      <trkpt lat="56.121533000841737" lon="-4.396758992224932">
        <ele>74.159999999999997</ele>
        <time>2023-09-02T11:22:22Z</time>
      </trkpt>
      <trkpt lat="56.11982200294733" lon="-4.398691020905972">
        <ele>77.040000000000006</ele>
        <time>2023-09-02T11:22:36Z</time>
      </trkpt>
      <trkpt lat="56.117943031713367" lon="-4.400650039315224">
        <ele>78.480000000000004</ele>
        <time>2023-09-02T11:22:51Z</time>
      </trkpt>
      <trkpt lat="56.116225998848677" lon="-4.401864996179938">
        <ele>82.329999999999998</ele>
        <time>2023-09-02T11:23:04Z</time>
      </trkpt>
      <trkpt lat="56.114598987624049" lon="-4.402937963604927">
        <ele>89.060000000000002</ele>
        <time>2023-09-02T11:23:17Z</time>
      </trkpt>
      <trkpt lat="56.112922020256519" lon="-4.404044039547443">
        <ele>103</ele>
        <time>2023-09-02T11:23:30Z</time>
      </trkpt>
      <trkpt lat="56.111628022044897" lon="-4.40489798784256">
        <ele>118.86</ele>
        <time>2023-09-02T11:23:40Z</time>
      </trkpt>
      <trkpt lat="56.110788993537426" lon="-4.405668033286929">
        <ele>131.84</ele>
        <time>2023-09-02T11:23:49Z</time>
      </trkpt>
      <trkpt lat="56.110185999423265" lon="-4.406391978263855">
        <ele>135.68000000000001</ele>
        <time>2023-09-02T11:23:55Z</time>
      </trkpt>
      <trkpt lat="56.110107963904738" lon="-4.406549977138639">
        <ele>136.63999999999999</ele>
        <time>2023-09-02T11:23:56Z</time>
      </trkpt>
      <trkpt lat="56.10909903421998" lon="-4.408428026363254">
        <ele>144.34</ele>
        <time>2023-09-02T11:24:07Z</time>
      </trkpt>
      <trkpt lat="56.108088009059429" lon="-4.410308003425598">
        <ele>153.47</ele>
        <time>2023-09-02T11:24:18Z</time>
      </trkpt>
      <trkpt lat="56.107226014137268" lon="-4.412100976333022">
        <ele>163.56</ele>
        <time>2023-09-02T11:24:28Z</time>
      </trkpt>
      <trkpt lat="56.106482036411762" lon="-4.413903001695871">
        <ele>171.25</ele>
        <time>2023-09-02T11:24:37Z</time>
      </trkpt>
      <trkpt lat="56.106376005336642" lon="-4.414211036637425">
        <ele>173.16999999999999</ele>
        <time>2023-09-02T11:24:39Z</time>
      </trkpt>
      <trkpt lat="56.105786003172398" lon="-4.415920022875071">
        <ele>179.90000000000001</ele>
        <time>2023-09-02T11:24:48Z</time>
      </trkpt>
      <trkpt lat="56.105487020686269" lon="-4.416962983086705">
        <ele>181.83000000000001</ele>
        <time>2023-09-02T11:24:53Z</time>
      </trkpt>
      <trkpt lat="56.1049759760499" lon="-4.418626958504319">
        <ele>186.63</ele>
        <time>2023-09-02T11:25:02Z</time>
      </trkpt>
      <trkpt lat="56.104916967451572" lon="-4.418817982077599">
        <ele>187.59</ele>
        <time>2023-09-02T11:25:03Z</time>
      </trkpt>
      <trkpt lat="56.104832980781794" lon="-4.418986039236188">
        <ele>188.08000000000001</ele>
        <time>2023-09-02T11:25:04Z</time>
      </trkpt>
      <trkpt lat="56.104726027697325" lon="-4.419111013412476">
        <ele>188.56</ele>
        <time>2023-09-02T11:25:05Z</time>
      </trkpt>
      <trkpt lat="56.103902002796531" lon="-4.420070992782712">
        <ele>196.25</ele>
        <time>2023-09-02T11:25:13Z</time>
      </trkpt>
      <trkpt lat="56.103357011452317" lon="-4.420704999938607">
        <ele>203.94</ele>
        <time>2023-09-02T11:25:19Z</time>
      </trkpt>
      <trkpt lat="56.103269001469016" lon="-4.420866016298533">
        <ele>204.90000000000001</ele>
        <time>2023-09-02T11:25:20Z</time>
      </trkpt>
      <trkpt lat="56.10319297760725" lon="-4.421051004901528">
        <ele>204.90000000000001</ele>
        <time>2023-09-02T11:25:21Z</time>
      </trkpt>
      <trkpt lat="56.102302987128496" lon="-4.423209009692073">
        <ele>213.55000000000001</ele>
        <time>2023-09-02T11:25:33Z</time>
      </trkpt>
      <trkpt lat="56.101702004671097" lon="-4.424628987908363">
        <ele>222.19999999999999</ele>
        <time>2023-09-02T11:25:41Z</time>
      </trkpt>
      <trkpt lat="56.100765997543931" lon="-4.426104035228491">
        <ele>223.16</ele>
        <time>2023-09-02T11:25:50Z</time>
      </trkpt>
      <trkpt lat="56.100048003718257" lon="-4.426979022100568">
        <ele>223.16</ele>
        <time>2023-09-02T11:25:57Z</time>
      </trkpt>
      <trkpt lat="56.099937027320266" lon="-4.427040964365006">
        <ele>223.63999999999999</ele>
        <time>2023-09-02T11:25:58Z</time>
      </trkpt>
      <trkpt lat="56.098803039640188" lon="-4.427844034507871">
        <ele>222.19999999999999</ele>
        <time>2023-09-02T11:26:07Z</time>
      </trkpt>
      <trkpt lat="56.097546005621552" lon="-4.428809965029359">
        <ele>221.24000000000001</ele>
        <time>2023-09-02T11:26:17Z</time>
      </trkpt>
      <trkpt lat="56.097306031733751" lon="-4.429062008857727">
        <ele>220.75999999999999</ele>
        <time>2023-09-02T11:26:19Z</time>
      </trkpt>
      <trkpt lat="56.097195977345109" lon="-4.429232999682427">
        <ele>220.75999999999999</ele>
        <time>2023-09-02T11:26:20Z</time>
      </trkpt>
      <trkpt lat="56.096086967736483" lon="-4.430961012840271">
        <ele>215.94999999999999</ele>
        <time>2023-09-02T11:26:30Z</time>
      </trkpt>
      <trkpt lat="56.095280963927507" lon="-4.431589990854263">
        <ele>213.06999999999999</ele>
        <time>2023-09-02T11:26:37Z</time>
      </trkpt>
      <trkpt lat="56.094718035310507" lon="-4.431746983900666">
        <ele>210.66999999999999</ele>
        <time>2023-09-02T11:26:44Z</time>
      </trkpt>
      <trkpt lat="56.093508023768663" lon="-4.432045966386795">
        <ele>206.34</ele>
        <time>2023-09-02T11:26:52Z</time>
      </trkpt>
      <trkpt lat="56.091633997857571" lon="-4.432602021843195">
        <ele>199.13</ele>
        <time>2023-09-02T11:27:04Z</time>
      </trkpt>
      <trkpt lat="56.090484000742435" lon="-4.433349017053843">
        <ele>205.38</ele>
        <time>2023-09-02T11:27:13Z</time>
      </trkpt>
      <trkpt lat="56.08916100114584" lon="-4.434532960876823">
        <ele>210.19</ele>
        <time>2023-09-02T11:27:23Z</time>
      </trkpt>
      <trkpt lat="56.088107982650399" lon="-4.435897031798959">
        <ele>207.30000000000001</ele>
        <time>2023-09-02T11:27:31Z</time>
      </trkpt>
      <trkpt lat="56.087129982188344" lon="-4.437441984191537">
        <ele>200.09</ele>
        <time>2023-09-02T11:27:40Z</time>
      </trkpt>
      <trkpt lat="56.086010998114944" lon="-4.439986981451511">
        <ele>184.71000000000001</ele>
        <time>2023-09-02T11:27:52Z</time>
      </trkpt>
      <trkpt lat="56.085297027602792" lon="-4.441835023462772">
        <ele>177.5</ele>
        <time>2023-09-02T11:28:01Z</time>
      </trkpt>
      <trkpt lat="56.084749018773437" lon="-4.443256007507443">
        <ele>172.21000000000001</ele>
        <time>2023-09-02T11:28:08Z</time>
      </trkpt>
      <trkpt lat="56.084226993843913" lon="-4.444539025425911">
        <ele>166.44999999999999</ele>
        <time>2023-09-02T11:28:15Z</time>
      </trkpt>
      <trkpt lat="56.084150969982147" lon="-4.444711022078991">
        <ele>165.47999999999999</ele>
        <time>2023-09-02T11:28:16Z</time>
      </trkpt>
      <trkpt lat="56.084073018282652" lon="-4.444888969883323">
        <ele>165</ele>
        <time>2023-09-02T11:28:17Z</time>
      </trkpt>
      <trkpt lat="56.083988025784492" lon="-4.445083010941744">
        <ele>164.03999999999999</ele>
        <time>2023-09-02T11:28:18Z</time>
      </trkpt>
      <trkpt lat="56.083899009972811" lon="-4.445286020636559">
        <ele>163.08000000000001</ele>
        <time>2023-09-02T11:28:19Z</time>
      </trkpt>
      <trkpt lat="56.083807982504368" lon="-4.445491963997483">
        <ele>162.12</ele>
        <time>2023-09-02T11:28:20Z</time>
      </trkpt>
      <trkpt lat="56.083099963143468" lon="-4.447106989100575">
        <ele>153.47</ele>
        <time>2023-09-02T11:28:29Z</time>
      </trkpt>
      <trkpt lat="56.082816990092397" lon="-4.447749964892864">
        <ele>149.62</ele>
        <time>2023-09-02T11:28:33Z</time>
      </trkpt>
      <trkpt lat="56.082339975982904" lon="-4.44862000644207">
        <ele>145.78</ele>
        <time>2023-09-02T11:28:39Z</time>
      </trkpt>
      <trkpt lat="56.08226303011179" lon="-4.448758978396654">
        <ele>145.30000000000001</ele>
        <time>2023-09-02T11:28:40Z</time>
      </trkpt>
      <trkpt lat="56.082183988764882" lon="-4.448899962007999">
        <ele>145.30000000000001</ele>
        <time>2023-09-02T11:28:41Z</time>
      </trkpt>
      <trkpt lat="56.082106959074736" lon="-4.449037006124854">
        <ele>145.30000000000001</ele>
        <time>2023-09-02T11:28:42Z</time>
      </trkpt>
      <trkpt lat="56.082030013203621" lon="-4.449187964200974">
        <ele>144.81999999999999</ele>
        <time>2023-09-02T11:28:43Z</time>
      </trkpt>
      <trkpt lat="56.081960024312139" lon="-4.449333976954222">
        <ele>144.81999999999999</ele>
        <time>2023-09-02T11:28:44Z</time>
      </trkpt>
      <trkpt lat="56.081851981580257" lon="-4.449551990255714">
        <ele>144.34</ele>
        <time>2023-09-02T11:28:46Z</time>
      </trkpt>
      <trkpt lat="56.081774029880762" lon="-4.449603036046028">
        <ele>143.84999999999999</ele>
        <time>2023-09-02T11:28:47Z</time>
      </trkpt>
      <trkpt lat="56.081695994362235" lon="-4.44965198636055">
        <ele>143.37</ele>
        <time>2023-09-02T11:28:48Z</time>
      </trkpt>
      <trkpt lat="56.081616031005979" lon="-4.449699008837342">
        <ele>143.37</ele>
        <time>2023-09-02T11:28:49Z</time>
      </trkpt>
      <trkpt lat="56.081517040729523" lon="-4.449704959988594">
        <ele>143.37</ele>
        <time>2023-09-02T11:28:50Z</time>
      </trkpt>
      <trkpt lat="56.081399023532867" lon="-4.449713006615639">
        <ele>143.37</ele>
        <time>2023-09-02T11:28:51Z</time>
      </trkpt>
      <trkpt lat="56.081271031871438" lon="-4.449720969423652">
        <ele>143.84999999999999</ele>
        <time>2023-09-02T11:28:52Z</time>
      </trkpt>
      <trkpt lat="56.081135999411345" lon="-4.449729016050696">
        <ele>144.34</ele>
        <time>2023-09-02T11:28:53Z</time>
      </trkpt>
      <trkpt lat="56.080855038017035" lon="-4.449747037142515">
        <ele>144.81999999999999</ele>
        <time>2023-09-02T11:28:55Z</time>
      </trkpt>
      <trkpt lat="56.080707013607025" lon="-4.449756005778909">
        <ele>144.81999999999999</ele>
        <time>2023-09-02T11:28:56Z</time>
      </trkpt>
      <trkpt lat="56.080555971711874" lon="-4.449764974415302">
        <ele>144.81999999999999</ele>
        <time>2023-09-02T11:28:57Z</time>
      </trkpt>
      <trkpt lat="56.079522985965014" lon="-4.449830017983913">
        <ele>141.93000000000001</ele>
        <time>2023-09-02T11:29:04Z</time>
      </trkpt>
      <trkpt lat="56.078471979126334" lon="-4.449893971905112">
        <ele>137.13</ele>
        <time>2023-09-02T11:29:11Z</time>
      </trkpt>
      <trkpt lat="56.077562039718032" lon="-4.449926996603608">
        <ele>129.91999999999999</ele>
        <time>2023-09-02T11:29:17Z</time>
      </trkpt>
      <trkpt lat="56.077239001169801" lon="-4.449938982725143">
        <ele>126.06999999999999</ele>
        <time>2023-09-02T11:29:20Z</time>
      </trkpt>
      <trkpt lat="56.077159037813544" lon="-4.449940994381905">
        <ele>124.63</ele>
        <time>2023-09-02T11:29:21Z</time>
      </trkpt>
      <trkpt lat="56.077096005901694" lon="-4.449944011867046">
        <ele>123.19</ele>
        <time>2023-09-02T11:29:22Z</time>
      </trkpt>
      <trkpt lat="56.076891990378499" lon="-4.449950968846679">
        <ele>116.45999999999999</ele>
        <time>2023-09-02T11:29:26Z</time>
      </trkpt>
      <trkpt lat="56.076841028407216" lon="-4.44995298050344">
        <ele>115.01000000000001</ele>
        <time>2023-09-02T11:29:27Z</time>
      </trkpt>
      <trkpt lat="56.076296959072351" lon="-4.44997301325202">
        <ele>105.88</ele>
        <time>2023-09-02T11:29:33Z</time>
      </trkpt>
      <trkpt lat="56.076151030138135" lon="-4.449977958574891">
        <ele>104.44</ele>
        <time>2023-09-02T11:29:34Z</time>
      </trkpt>
      <trkpt lat="56.0751339700073" lon="-4.450121959671378">
        <ele>96.75</ele>
        <time>2023-09-02T11:29:40Z</time>
      </trkpt>
      <trkpt lat="56.073705023154616" lon="-4.450335027649999">
        <ele>87.620000000000005</ele>
        <time>2023-09-02T11:29:47Z</time>
      </trkpt>
      <trkpt lat="56.072220001369715" lon="-4.450644990429282">
        <ele>77.519999999999996</ele>
        <time>2023-09-02T11:29:56Z</time>
      </trkpt>
      <trkpt lat="56.071146028116345" lon="-4.450868032872677">
        <ele>68.390000000000001</ele>
        <time>2023-09-02T11:30:04Z</time>
      </trkpt>
      <trkpt lat="56.070664990693331" lon="-4.450969034805894">
        <ele>64.549999999999997</ele>
        <time>2023-09-02T11:30:08Z</time>
      </trkpt>
      <trkpt lat="56.070408001542091" lon="-4.451022008433938">
        <ele>63.579999999999998</ele>
        <time>2023-09-02T11:30:11Z</time>
      </trkpt>
      <trkpt lat="56.070329966023564" lon="-4.451039023697376">
        <ele>64.069999999999993</ele>
        <time>2023-09-02T11:30:12Z</time>
      </trkpt>
      <trkpt lat="56.070256037637591" lon="-4.451054027304053">
        <ele>64.549999999999997</ele>
        <time>2023-09-02T11:30:13Z</time>
      </trkpt>
      <trkpt lat="56.070181019604206" lon="-4.45106903091073">
        <ele>65.030000000000001</ele>
        <time>2023-09-02T11:30:14Z</time>
      </trkpt>
      <trkpt lat="56.070106001570821" lon="-4.451084034517407">
        <ele>65.510000000000005</ele>
        <time>2023-09-02T11:30:15Z</time>
      </trkpt>
      <trkpt lat="56.069856975227594" lon="-4.45113399066031">
        <ele>66.469999999999999</ele>
        <time>2023-09-02T11:30:18Z</time>
      </trkpt>
      <trkpt lat="56.069779023528099" lon="-4.451148994266987">
        <ele>66.469999999999999</ele>
        <time>2023-09-02T11:30:19Z</time>
      </trkpt>
      <trkpt lat="56.06961197219789" lon="-4.451183024793863">
        <ele>66.950000000000003</ele>
        <time>2023-09-02T11:30:21Z</time>
      </trkpt>
      <trkpt lat="56.069531003013253" lon="-4.451199034228921">
        <ele>66.950000000000003</ele>
        <time>2023-09-02T11:30:22Z</time>
      </trkpt>
      <trkpt lat="56.069450033828616" lon="-4.451214959844947">
        <ele>66.950000000000003</ele>
        <time>2023-09-02T11:30:23Z</time>
      </trkpt>
      <trkpt lat="56.069367974996567" lon="-4.451230969280005">
        <ele>67.430000000000007</ele>
        <time>2023-09-02T11:30:24Z</time>
      </trkpt>
      <trkpt lat="56.069289017468691" lon="-4.451246978715062">
        <ele>67.430000000000007</ele>
        <time>2023-09-02T11:30:25Z</time>
      </trkpt>
      <trkpt lat="56.069133030250669" lon="-4.451277991756797">
        <ele>67.909999999999997</ele>
        <time>2023-09-02T11:30:27Z</time>
      </trkpt>
      <trkpt lat="56.068887021392584" lon="-4.451345968991518">
        <ele>68.390000000000001</ele>
        <time>2023-09-02T11:30:30Z</time>
      </trkpt>
      <trkpt lat="56.068801023066044" lon="-4.451371030882001">
        <ele>67.909999999999997</ele>
        <time>2023-09-02T11:30:31Z</time>
      </trkpt>
      <trkpt lat="56.067788992077112" lon="-4.451731033623219">
        <ele>63.579999999999998</ele>
        <time>2023-09-02T11:30:42Z</time>
      </trkpt>
      <trkpt lat="56.067037973552942" lon="-4.452107967808843">
        <ele>65.030000000000001</ele>
        <time>2023-09-02T11:30:52Z</time>
      </trkpt>
      <trkpt lat="56.066565988585353" lon="-4.452341990545392">
        <ele>64.549999999999997</ele>
        <time>2023-09-02T11:30:58Z</time>
      </trkpt>
      <trkpt lat="56.066475966945291" lon="-4.452377026900649">
        <ele>64.069999999999993</ele>
        <time>2023-09-02T11:30:59Z</time>
      </trkpt>
      <trkpt lat="56.065957965329289" lon="-4.45238096639514">
        <ele>60.700000000000003</ele>
        <time>2023-09-02T11:31:07Z</time>
      </trkpt>
      <trkpt lat="56.065900968387723" lon="-4.45238096639514">
        <ele>58.780000000000001</ele>
        <time>2023-09-02T11:31:10Z</time>
      </trkpt>
      <trkpt lat="56.065861992537975" lon="-4.45238096639514">
        <ele>58.299999999999997</ele>
        <time>2023-09-02T11:31:11Z</time>
      </trkpt>
      <trkpt lat="56.065811030566692" lon="-4.45238096639514">
        <ele>57.82</ele>
        <time>2023-09-02T11:31:12Z</time>
      </trkpt>
      <trkpt lat="56.065697036683559" lon="-4.452387001365423">
        <ele>55.890000000000001</ele>
        <time>2023-09-02T11:31:18Z</time>
      </trkpt>
      <trkpt lat="56.065622018650174" lon="-4.452403010800481">
        <ele>55.890000000000001</ele>
        <time>2023-09-02T11:31:22Z</time>
      </trkpt>
      <trkpt lat="56.06552897952497" lon="-4.45242396555841">
        <ele>55.409999999999997</ele>
        <time>2023-09-02T11:31:23Z</time>
      </trkpt>
      <trkpt lat="56.065332004800439" lon="-4.452308965846896">
        <ele>53.490000000000002</ele>
        <time>2023-09-02T11:31:28Z</time>
      </trkpt>
      <trkpt lat="56.065260004252195" lon="-4.45235799998045">
        <ele>53.009999999999998</ele>
        <time>2023-09-02T11:31:29Z</time>
      </trkpt>
      <trkpt lat="56.06524801813066" lon="-4.452438969165087">
        <ele>53.009999999999998</ele>
        <time>2023-09-02T11:31:30Z</time>
      </trkpt>
      <trkpt lat="56.065235026180744" lon="-4.452532008290291">
        <ele>53.009999999999998</ele>
        <time>2023-09-02T11:31:31Z</time>
      </trkpt>
      <trkpt lat="56.065221028402448" lon="-4.452630998566747">
        <ele>53.009999999999998</ele>
        <time>2023-09-02T11:31:32Z</time>
      </trkpt>
      <trkpt lat="56.065206024795771" lon="-4.452739963307977">
        <ele>53.009999999999998</ele>
        <time>2023-09-02T11:31:33Z</time>
      </trkpt>
      <trkpt lat="56.065210970118642" lon="-4.453413030132651">
        <ele>52.049999999999997</ele>
        <time>2023-09-02T11:31:38Z</time>
      </trkpt>
      <trkpt lat="56.06522798538208" lon="-4.453576980158687">
        <ele>52.049999999999997</ele>
        <time>2023-09-02T11:31:39Z</time>
      </trkpt>
      <trkpt lat="56.065275007858872" lon="-4.453735984861851">
        <ele>52.049999999999997</ele>
        <time>2023-09-02T11:31:40Z</time>
      </trkpt>
      <trkpt lat="56.065319012850523" lon="-4.453886020928621">
        <ele>52.530000000000001</ele>
        <time>2023-09-02T11:31:41Z</time>
      </trkpt>
      <trkpt lat="56.065368968993425" lon="-4.454037984833121">
        <ele>53.009999999999998</ele>
        <time>2023-09-02T11:31:42Z</time>
      </trkpt>
      <trkpt lat="56.065432000905275" lon="-4.454173017293215">
        <ele>53.009999999999998</ele>
        <time>2023-09-02T11:31:43Z</time>
      </trkpt>
      <trkpt lat="56.065496960654855" lon="-4.454302014783025">
        <ele>53.009999999999998</ele>
        <time>2023-09-02T11:31:44Z</time>
      </trkpt>
      <trkpt lat="56.065583964809775" lon="-4.454388013109565">
        <ele>52.530000000000001</ele>
        <time>2023-09-02T11:31:45Z</time>
      </trkpt>
      <trkpt lat="56.065672980621457" lon="-4.454478034749627">
        <ele>52.530000000000001</ele>
        <time>2023-09-02T11:31:46Z</time>
      </trkpt>
      <trkpt lat="56.065765013918281" lon="-4.454516004770994">
        <ele>52.049999999999997</ele>
        <time>2023-09-02T11:31:47Z</time>
      </trkpt>
      <trkpt lat="56.065860986709595" lon="-4.4545519631356">
        <ele>52.049999999999997</ele>
        <time>2023-09-02T11:31:48Z</time>
      </trkpt>
      <trkpt lat="56.065954025834799" lon="-4.454586999490857">
        <ele>51.57</ele>
        <time>2023-09-02T11:31:49Z</time>
      </trkpt>
      <trkpt lat="56.066464986652136" lon="-4.454819010570645">
        <ele>51.090000000000003</ele>
        <time>2023-09-02T11:31:55Z</time>
      </trkpt>
      <trkpt lat="56.066546961665154" lon="-4.454882964491844">
        <ele>51.57</ele>
        <time>2023-09-02T11:31:56Z</time>
      </trkpt>
      <trkpt lat="56.066620973870158" lon="-4.454995030537248">
        <ele>52.049999999999997</ele>
        <time>2023-09-02T11:31:57Z</time>
      </trkpt>
      <trkpt lat="56.06668702326715" lon="-4.455105001106858">
        <ele>52.530000000000001</ele>
        <time>2023-09-02T11:31:58Z</time>
      </trkpt>
      <trkpt lat="56.066751983016729" lon="-4.455213965848088">
        <ele>52.530000000000001</ele>
        <time>2023-09-02T11:31:59Z</time>
      </trkpt>
      <trkpt lat="56.06754700653255" lon="-4.456619024276733">
        <ele>52.530000000000001</ele>
        <time>2023-09-02T11:32:10Z</time>
      </trkpt>
      <trkpt lat="56.067841965705156" lon="-4.457081034779549">
        <ele>52.530000000000001</ele>
        <time>2023-09-02T11:32:14Z</time>
      </trkpt>
      <trkpt lat="56.068530036136508" lon="-4.457801962271333">
        <ele>53.490000000000002</ele>
        <time>2023-09-02T11:32:23Z</time>
      </trkpt>
      <trkpt lat="56.068761041387916" lon="-4.458074038848281">
        <ele>53.490000000000002</ele>
        <time>2023-09-02T11:32:26Z</time>
      </trkpt>
      <trkpt lat="56.068831030279398" lon="-4.458162970840931">
        <ele>53.490000000000002</ele>
        <time>2023-09-02T11:32:27Z</time>
      </trkpt>
      <trkpt lat="56.0689000133425" lon="-4.458252992480993">
        <ele>53.490000000000002</ele>
        <time>2023-09-02T11:32:28Z</time>
      </trkpt>
      <trkpt lat="56.068973019719124" lon="-4.458347959443927">
        <ele>53.009999999999998</ele>
        <time>2023-09-02T11:32:29Z</time>
      </trkpt>
      <trkpt lat="56.06905298307538" lon="-4.458447033539414">
        <ele>52.530000000000001</ele>
        <time>2023-09-02T11:32:30Z</time>
      </trkpt>
      <trkpt lat="56.069885976612568" lon="-4.459450012072921">
        <ele>56.369999999999997</ele>
        <time>2023-09-02T11:32:38Z</time>
      </trkpt>
      <trkpt lat="56.071130018681288" lon="-4.460980966687203">
        <ele>65.989999999999995</ele>
        <time>2023-09-02T11:32:49Z</time>
      </trkpt>
      <trkpt lat="56.071753967553377" lon="-4.461772972717881">
        <ele>67.430000000000007</ele>
        <time>2023-09-02T11:32:54Z</time>
      </trkpt>
      <trkpt lat="56.071833008900285" lon="-4.461967013776302">
        <ele>67.909999999999997</ele>
        <time>2023-09-02T11:32:55Z</time>
      </trkpt>
      <trkpt lat="56.071923030540347" lon="-4.462187038734555">
        <ele>67.909999999999997</ele>
        <time>2023-09-02T11:32:56Z</time>
      </trkpt>
      <trkpt lat="56.071965023875237" lon="-4.462416032329202">
        <ele>67.909999999999997</ele>
        <time>2023-09-02T11:32:57Z</time>
      </trkpt>
      <trkpt lat="56.072012968361378" lon="-4.462678972631693">
        <ele>68.390000000000001</ele>
        <time>2023-09-02T11:32:58Z</time>
      </trkpt>
      <trkpt lat="56.072473973035812" lon="-4.46527099236846">
        <ele>66.950000000000003</ele>
        <time>2023-09-02T11:33:07Z</time>
      </trkpt>
      <trkpt lat="56.072843028232455" lon="-4.467417011037469">
        <ele>65.989999999999995</ele>
        <time>2023-09-02T11:33:15Z</time>
      </trkpt>
      <trkpt lat="56.073260027915239" lon="-4.469866035506129">
        <ele>65.989999999999995</ele>
        <time>2023-09-02T11:33:26Z</time>
      </trkpt>
      <trkpt lat="56.073639979586005" lon="-4.472195031121373">
        <ele>64.069999999999993</ele>
        <time>2023-09-02T11:33:37Z</time>
      </trkpt>
      <trkpt lat="56.073755985125899" lon="-4.472909001633525">
        <ele>63.100000000000001</ele>
        <time>2023-09-02T11:33:40Z</time>
      </trkpt>
      <trkpt lat="56.073833014816046" lon="-4.473388027399778">
        <ele>62.619999999999997</ele>
        <time>2023-09-02T11:33:42Z</time>
      </trkpt>
      <trkpt lat="56.073917001485825" lon="-4.47356597520411">
        <ele>62.140000000000001</ele>
        <time>2023-09-02T11:33:43Z</time>
      </trkpt>
      <trkpt lat="56.074692998081446" lon="-4.475194998085499">
        <ele>60.700000000000003</ele>
        <time>2023-09-02T11:33:50Z</time>
      </trkpt>
      <trkpt lat="56.075228014960885" lon="-4.476301996037364">
        <ele>64.069999999999993</ele>
        <time>2023-09-02T11:33:55Z</time>
      </trkpt>
      <trkpt lat="56.075493972748518" lon="-4.476857967674732">
        <ele>66.950000000000003</ele>
        <time>2023-09-02T11:33:58Z</time>
      </trkpt>
      <trkpt lat="56.075528003275394" lon="-4.477080004289746">
        <ele>67.430000000000007</ele>
        <time>2023-09-02T11:33:59Z</time>
      </trkpt>
      <trkpt lat="56.075552981346846" lon="-4.477320984005928">
        <ele>67.909999999999997</ele>
        <time>2023-09-02T11:34:00Z</time>
      </trkpt>
      <trkpt lat="56.075814999639988" lon="-4.47983899153769">
        <ele>71.269999999999996</ele>
        <time>2023-09-02T11:34:09Z</time>
      </trkpt>
      <trkpt lat="56.07616301625967" lon="-4.483652003109455">
        <ele>73.200000000000003</ele>
        <time>2023-09-02T11:34:21Z</time>
      </trkpt>
      <trkpt lat="56.076192017644644" lon="-4.483970012515783">
        <ele>72.719999999999999</ele>
        <time>2023-09-02T11:34:22Z</time>
      </trkpt>
      <trkpt lat="56.076473984867334" lon="-4.487106017768383">
        <ele>65.510000000000005</ele>
        <time>2023-09-02T11:34:32Z</time>
      </trkpt>
      <trkpt lat="56.076611028984189" lon="-4.488420970737934">
        <ele>59.740000000000002</ele>
        <time>2023-09-02T11:34:37Z</time>
      </trkpt>
      <trkpt lat="56.076643969863653" lon="-4.488602019846439">
        <ele>58.299999999999997</ele>
        <time>2023-09-02T11:34:38Z</time>
      </trkpt>
      <trkpt lat="56.07674497179687" lon="-4.488823972642422">
        <ele>57.82</ele>
        <time>2023-09-02T11:34:39Z</time>
      </trkpt>
      <trkpt lat="56.07682996429503" lon="-4.489010972902179">
        <ele>57.340000000000003</ele>
        <time>2023-09-02T11:34:40Z</time>
      </trkpt>
      <trkpt lat="56.076918980106711" lon="-4.489207025617361">
        <ele>56.859999999999999</ele>
        <time>2023-09-02T11:34:41Z</time>
      </trkpt>
      <trkpt lat="56.077826991677284" lon="-4.491188004612923">
        <ele>53.009999999999998</ele>
        <time>2023-09-02T11:34:50Z</time>
      </trkpt>
      <trkpt lat="56.078837011009455" lon="-4.493379034101963">
        <ele>50.130000000000003</ele>
        <time>2023-09-02T11:34:59Z</time>
      </trkpt>
      <trkpt lat="56.079877959564328" lon="-4.495747005566955">
        <ele>50.609999999999999</ele>
        <time>2023-09-02T11:35:10Z</time>
      </trkpt>
      <trkpt lat="56.079920036718249" lon="-4.495986979454756">
        <ele>50.609999999999999</ele>
        <time>2023-09-02T11:35:11Z</time>
      </trkpt>
      <trkpt lat="56.080191023647785" lon="-4.497911967337132">
        <ele>47.240000000000002</ele>
        <time>2023-09-02T11:35:19Z</time>
      </trkpt>
      <trkpt lat="56.080175014212728" lon="-4.499546019360423">
        <ele>42.439999999999998</ele>
        <time>2023-09-02T11:35:28Z</time>
      </trkpt>
      <trkpt lat="56.080081975087523" lon="-4.500989969819784">
        <ele>36.670000000000002</ele>
        <time>2023-09-02T11:35:36Z</time>
      </trkpt>
      <trkpt lat="56.08009303919971" lon="-4.50117202475667">
        <ele>35.710000000000001</ele>
        <time>2023-09-02T11:35:37Z</time>
      </trkpt>
      <trkpt lat="56.080118017271161" lon="-4.501318959519267">
        <ele>35.229999999999997</ele>
        <time>2023-09-02T11:35:38Z</time>
      </trkpt>
      <trkpt lat="56.080167973414063" lon="-4.501467989757657">
        <ele>34.740000000000002</ele>
        <time>2023-09-02T11:35:39Z</time>
      </trkpt>
      <trkpt lat="56.080217007547617" lon="-4.501616014167666">
        <ele>34.259999999999998</ele>
        <time>2023-09-02T11:35:40Z</time>
      </trkpt>
      <trkpt lat="56.080264030024409" lon="-4.501727996394038">
        <ele>34.259999999999998</ele>
        <time>2023-09-02T11:35:41Z</time>
      </trkpt>
      <trkpt lat="56.08035103417933" lon="-4.501819023862481">
        <ele>34.259999999999998</ele>
        <time>2023-09-02T11:35:42Z</time>
      </trkpt>
      <trkpt lat="56.080435020849109" lon="-4.501907033845782">
        <ele>34.259999999999998</ele>
        <time>2023-09-02T11:35:43Z</time>
      </trkpt>
      <trkpt lat="56.080519007518888" lon="-4.501994038000703">
        <ele>34.259999999999998</ele>
        <time>2023-09-02T11:35:44Z</time>
      </trkpt>
      <trkpt lat="56.081343032419682" lon="-4.502828037366271">
        <ele>36.670000000000002</ele>
        <time>2023-09-02T11:35:52Z</time>
      </trkpt>
      <trkpt lat="56.081697000190616" lon="-4.503652984276414">
        <ele>40.509999999999998</ele>
        <time>2023-09-02T11:35:58Z</time>
      </trkpt>
      <trkpt lat="56.08175097964704" lon="-4.503864962607622">
        <ele>41.469999999999999</ele>
        <time>2023-09-02T11:35:59Z</time>
      </trkpt>
      <trkpt lat="56.081796996295452" lon="-4.504081970080733">
        <ele>41.950000000000003</ele>
        <time>2023-09-02T11:36:00Z</time>
      </trkpt>
      <trkpt lat="56.081809988245368" lon="-4.504314986988902">
        <ele>42.439999999999998</ele>
        <time>2023-09-02T11:36:01Z</time>
      </trkpt>
      <trkpt lat="56.081823986023664" lon="-4.504551021382213">
        <ele>42.920000000000002</ele>
        <time>2023-09-02T11:36:02Z</time>
      </trkpt>
      <trkpt lat="56.081837983801961" lon="-4.504786971956492">
        <ele>43.399999999999999</ele>
        <time>2023-09-02T11:36:03Z</time>
      </trkpt>
      <trkpt lat="56.081858016550541" lon="-4.505724990740418">
        <ele>45.32</ele>
        <time>2023-09-02T11:36:06Z</time>
      </trkpt>
      <trkpt lat="56.081882994621992" lon="-4.506754959002137">
        <ele>46.759999999999998</ele>
        <time>2023-09-02T11:36:10Z</time>
      </trkpt>
      <trkpt lat="56.081891041249037" lon="-4.507085038349032">
        <ele>46.759999999999998</ele>
        <time>2023-09-02T11:36:11Z</time>
      </trkpt>
      <trkpt lat="56.081945020705462" lon="-4.509314959868789">
        <ele>45.799999999999997</ele>
        <time>2023-09-02T11:36:18Z</time>
      </trkpt>
      <trkpt lat="56.081952983513474" lon="-4.509647972881794">
        <ele>45.32</ele>
        <time>2023-09-02T11:36:19Z</time>
      </trkpt>
      <trkpt lat="56.08200897462666" lon="-4.512004964053631">
        <ele>39.07</ele>
        <time>2023-09-02T11:36:26Z</time>
      </trkpt>
      <trkpt lat="56.082073012366891" lon="-4.514661021530628">
        <ele>35.229999999999997</ele>
        <time>2023-09-02T11:36:34Z</time>
      </trkpt>
      <trkpt lat="56.082148030400276" lon="-4.517771964892745">
        <ele>32.340000000000003</ele>
        <time>2023-09-02T11:36:43Z</time>
      </trkpt>
      <trkpt lat="56.082211984321475" lon="-4.520402038469911">
        <ele>32.82</ele>
        <time>2023-09-02T11:36:51Z</time>
      </trkpt>
      <trkpt lat="56.082321032881737" lon="-4.523080978542566">
        <ele>31.859999999999999</ele>
        <time>2023-09-02T11:36:59Z</time>
      </trkpt>
      <trkpt lat="56.08247802592814" lon="-4.524927008897066">
        <ele>27.530000000000001</ele>
        <time>2023-09-02T11:37:05Z</time>
      </trkpt>
      <trkpt lat="56.082902988418937" lon="-4.528382029384375">
        <ele>21.77</ele>
        <time>2023-09-02T11:37:16Z</time>
      </trkpt>
      <trkpt lat="56.083160983398557" lon="-4.530397960916162">
        <ele>17.920000000000002</ele>
        <time>2023-09-02T11:37:24Z</time>
      </trkpt>
      <trkpt lat="56.083191996440291" lon="-4.530641036108136">
        <ele>17.920000000000002</ele>
        <time>2023-09-02T11:37:25Z</time>
      </trkpt>
      <trkpt lat="56.083504976704717" lon="-4.533115038648248">
        <ele>16.48</ele>
        <time>2023-09-02T11:37:35Z</time>
      </trkpt>
      <trkpt lat="56.08372500166297" lon="-4.534856965765357">
        <ele>16.960000000000001</ele>
        <time>2023-09-02T11:37:42Z</time>
      </trkpt>
      <trkpt lat="56.083756014704704" lon="-4.535096017643809">
        <ele>16.960000000000001</ele>
        <time>2023-09-02T11:37:43Z</time>
      </trkpt>
      <trkpt lat="56.083815023303032" lon="-4.535565990954638">
        <ele>17.440000000000001</ele>
        <time>2023-09-02T11:37:45Z</time>
      </trkpt>
      <trkpt lat="56.083842013031244" lon="-4.535781992599368">
        <ele>17.920000000000002</ele>
        <time>2023-09-02T11:37:46Z</time>
      </trkpt>
      <trkpt lat="56.083864979445934" lon="-4.535968992859125">
        <ele>17.920000000000002</ele>
        <time>2023-09-02T11:37:47Z</time>
      </trkpt>
      <trkpt lat="56.084103025496006" lon="-4.537961035966873">
        <ele>18.879999999999999</ele>
        <time>2023-09-02T11:37:57Z</time>
      </trkpt>
      <trkpt lat="56.084251971915364" lon="-4.539477992802858">
        <ele>17.920000000000002</ele>
        <time>2023-09-02T11:38:06Z</time>
      </trkpt>
      <trkpt lat="56.08426203019917" lon="-4.539600033313036">
        <ele>17.440000000000001</ele>
        <time>2023-09-02T11:38:07Z</time>
      </trkpt>
      <trkpt lat="56.084292037412524" lon="-4.539932040497661">
        <ele>17.440000000000001</ele>
        <time>2023-09-02T11:38:10Z</time>
      </trkpt>
      <trkpt lat="56.084300000220537" lon="-4.540032036602497">
        <ele>17.440000000000001</ele>
        <time>2023-09-02T11:38:11Z</time>
      </trkpt>
      <trkpt lat="56.084316009655595" lon="-4.54014896415174">
        <ele>17.440000000000001</ele>
        <time>2023-09-02T11:38:12Z</time>
      </trkpt>
      <trkpt lat="56.084403013810515" lon="-4.540686998516321">
        <ele>16.960000000000001</ele>
        <time>2023-09-02T11:38:16Z</time>
      </trkpt>
      <trkpt lat="56.084431009367108" lon="-4.540799986571074">
        <ele>16.960000000000001</ele>
        <time>2023-09-02T11:38:17Z</time>
      </trkpt>
      <trkpt lat="56.084497980773449" lon="-4.540996961295605">
        <ele>16.48</ele>
        <time>2023-09-02T11:38:19Z</time>
      </trkpt>
      <trkpt lat="56.084528993815184" lon="-4.541087988764048">
        <ele>16.48</ele>
        <time>2023-09-02T11:38:20Z</time>
      </trkpt>
      <trkpt lat="56.084669977426529" lon="-4.54150197096169">
        <ele>16</ele>
        <time>2023-09-02T11:38:28Z</time>
      </trkpt>
      <trkpt lat="56.084866030141711" lon="-4.542121980339289">
        <ele>15.52</ele>
        <time>2023-09-02T11:38:34Z</time>
      </trkpt>
      <trkpt lat="56.084911962971091" lon="-4.542351979762316">
        <ele>15.039999999999999</ele>
        <time>2023-09-02T11:38:36Z</time>
      </trkpt>
      <trkpt lat="56.084915986284614" lon="-4.542591031640768">
        <ele>14.08</ele>
        <time>2023-09-02T11:38:38Z</time>
      </trkpt>
      <trkpt lat="56.084887990728021" lon="-4.542978024110198">
        <ele>13.119999999999999</ele>
        <time>2023-09-02T11:38:41Z</time>
      </trkpt>
      <trkpt lat="56.084868963807821" lon="-4.543087994679809">
        <ele>12.630000000000001</ele>
        <time>2023-09-02T11:38:42Z</time>
      </trkpt>
      <trkpt lat="56.084833005443215" lon="-4.54319997690618">
        <ele>12.15</ele>
        <time>2023-09-02T11:38:43Z</time>
      </trkpt>
      <trkpt lat="56.084797969087958" lon="-4.543311037123203">
        <ele>12.15</ele>
        <time>2023-09-02T11:38:44Z</time>
      </trkpt>
      <trkpt lat="56.084763016551733" lon="-4.543422013521195">
        <ele>11.67</ele>
        <time>2023-09-02T11:38:45Z</time>
      </trkpt>
      <trkpt lat="56.084732003509998" lon="-4.543522009626031">
        <ele>11.19</ele>
        <time>2023-09-02T11:38:46Z</time>
      </trkpt>
      <trkpt lat="56.084705013781786" lon="-4.54360599629581">
        <ele>10.710000000000001</ele>
        <time>2023-09-02T11:38:47Z</time>
      </trkpt>
      <trkpt lat="56.084681963548064" lon="-4.543680008500814">
        <ele>10.23</ele>
        <time>2023-09-02T11:38:48Z</time>
      </trkpt>
      <trkpt lat="56.084611974656582" lon="-4.543895004317164">
        <ele>8.789999999999999</ele>
        <time>2023-09-02T11:38:51Z</time>
      </trkpt>
      <trkpt lat="56.084564030170441" lon="-4.544026013463736">
        <ele>8.789999999999999</ele>
        <time>2023-09-02T11:38:53Z</time>
      </trkpt>
      <trkpt lat="56.084567969664931" lon="-4.544139001518488">
        <ele>8.789999999999999</ele>
        <time>2023-09-02T11:38:54Z</time>
      </trkpt>
      <trkpt lat="56.084597976878285" lon="-4.544189041480422">
        <ele>8.789999999999999</ele>
        <time>2023-09-02T11:38:55Z</time>
      </trkpt>
      <trkpt lat="56.084625972434878" lon="-4.544237991794944">
        <ele>8.310000000000001</ele>
        <time>2023-09-02T11:38:56Z</time>
      </trkpt>
      <trkpt lat="56.084655979648232" lon="-4.544289037585259">
        <ele>7.83</ele>
        <time>2023-09-02T11:38:57Z</time>
      </trkpt>
      <trkpt lat="56.084691016003489" lon="-4.544348968192935">
        <ele>7.83</ele>
        <time>2023-09-02T11:38:58Z</time>
      </trkpt>
      <trkpt lat="56.084691016003489" lon="-4.544348968192935">
        <ele>7.35</ele>
        <time>2023-09-02T11:38:59Z</time>
      </trkpt>
      <trkpt lat="56.084783971309662" lon="-4.544370006769896">
        <ele>7.35</ele>
        <time>2023-09-02T11:39:00Z</time>
      </trkpt>
      <trkpt lat="56.084838034585118" lon="-4.544382998719811">
        <ele>6.87</ele>
        <time>2023-09-02T11:39:01Z</time>
      </trkpt>
      <trkpt lat="56.084894025698304" lon="-4.544394984841347">
        <ele>6.87</ele>
        <time>2023-09-02T11:39:02Z</time>
      </trkpt>
      <trkpt lat="56.084969965741038" lon="-4.544413005933166">
        <ele>6.39</ele>
        <time>2023-09-02T11:39:03Z</time>
      </trkpt>
      <trkpt lat="56.085026962682605" lon="-4.544458016753197">
        <ele>6.39</ele>
        <time>2023-09-02T11:39:04Z</time>
      </trkpt>
      <trkpt lat="56.085083959624171" lon="-4.544502021744847">
        <ele>6.39</ele>
        <time>2023-09-02T11:39:05Z</time>
      </trkpt>
      <trkpt lat="56.085163000971079" lon="-4.544562958180904">
        <ele>6.39</ele>
        <time>2023-09-02T11:39:06Z</time>
      </trkpt>
      <trkpt lat="56.085207005962729" lon="-4.544636970385909">
        <ele>6.39</ele>
        <time>2023-09-02T11:39:07Z</time>
      </trkpt>
      <trkpt lat="56.085248999297619" lon="-4.544705031439662">
        <ele>6.87</ele>
        <time>2023-09-02T11:39:08Z</time>
      </trkpt>
      <trkpt lat="56.085287975147367" lon="-4.544770997017622">
        <ele>7.35</ele>
        <time>2023-09-02T11:39:09Z</time>
      </trkpt>
      <trkpt lat="56.085545970126987" lon="-4.5451969653368">
        <ele>9.75</ele>
        <time>2023-09-02T11:39:15Z</time>
      </trkpt>
      <trkpt lat="56.085620988160372" lon="-4.545320011675358">
        <ele>9.75</ele>
        <time>2023-09-02T11:39:16Z</time>
      </trkpt>
      <trkpt lat="56.085706986486912" lon="-4.545443980023265">
        <ele>9.27</ele>
        <time>2023-09-02T11:39:17Z</time>
      </trkpt>
      <trkpt lat="56.085798013955355" lon="-4.54556099139154">
        <ele>8.789999999999999</ele>
        <time>2023-09-02T11:39:18Z</time>
      </trkpt>
      <trkpt lat="56.08589599840343" lon="-4.545687977224588">
        <ele>8.789999999999999</ele>
        <time>2023-09-02T11:39:19Z</time>
      </trkpt>
      <trkpt lat="56.08630302362144" lon="-4.546214025467634">
        <ele>8.310000000000001</ele>
        <time>2023-09-02T11:39:23Z</time>
      </trkpt>
      <trkpt lat="56.086395978927612" lon="-4.546333970502019">
        <ele>8.310000000000001</ele>
        <time>2023-09-02T11:39:24Z</time>
      </trkpt>
      <trkpt lat="56.086484994739294" lon="-4.546447964385152">
        <ele>8.789999999999999</ele>
        <time>2023-09-02T11:39:25Z</time>
      </trkpt>
      <trkpt lat="56.086728991940618" lon="-4.546763962134719">
        <ele>9.75</ele>
        <time>2023-09-02T11:39:28Z</time>
      </trkpt>
      <trkpt lat="56.086837034672499" lon="-4.546902012079954">
        <ele>11.19</ele>
        <time>2023-09-02T11:39:29Z</time>
      </trkpt>
      <trkpt lat="56.086898976936936" lon="-4.546919027343392">
        <ele>12.15</ele>
        <time>2023-09-02T11:39:30Z</time>
      </trkpt>
      <trkpt lat="56.08699201606214" lon="-4.546942999586463">
        <ele>13.119999999999999</ele>
        <time>2023-09-02T11:39:31Z</time>
      </trkpt>
      <trkpt lat="56.087083965539932" lon="-4.546967977657914">
        <ele>14.08</ele>
        <time>2023-09-02T11:39:32Z</time>
      </trkpt>
      <trkpt lat="56.087174993008375" lon="-4.546992033720017">
        <ele>15.039999999999999</ele>
        <time>2023-09-02T11:39:33Z</time>
      </trkpt>
      <trkpt lat="56.087267026305199" lon="-4.547016005963087">
        <ele>16.48</ele>
        <time>2023-09-02T11:39:34Z</time>
      </trkpt>
      <trkpt lat="56.087356964126229" lon="-4.547039978206158">
        <ele>16.960000000000001</ele>
        <time>2023-09-02T11:39:35Z</time>
      </trkpt>
      <trkpt lat="56.088105970993638" lon="-4.546995973214507">
        <ele>19.359999999999999</ele>
        <time>2023-09-02T11:39:43Z</time>
      </trkpt>
      <trkpt lat="56.088204039260745" lon="-4.54697803594172">
        <ele>19.359999999999999</ele>
        <time>2023-09-02T11:39:44Z</time>
      </trkpt>
      <trkpt lat="56.08830101788044" lon="-4.546960014849901">
        <ele>18.879999999999999</ele>
        <time>2023-09-02T11:39:45Z</time>
      </trkpt>
      <trkpt lat="56.088869981467724" lon="-4.547056993469596">
        <ele>18.879999999999999</ele>
        <time>2023-09-02T11:39:52Z</time>
      </trkpt>
      <trkpt lat="56.088924966752529" lon="-4.547089012339711">
        <ele>18.879999999999999</ele>
        <time>2023-09-02T11:39:53Z</time>
      </trkpt>
      <trkpt lat="56.089047007262707" lon="-4.547160007059574">
        <ele>18.399999999999999</ele>
        <time>2023-09-02T11:39:54Z</time>
      </trkpt>
      <trkpt lat="56.089082965627313" lon="-4.547249022871256">
        <ele>18.399999999999999</ele>
        <time>2023-09-02T11:39:55Z</time>
      </trkpt>
      <trkpt lat="56.089129988104105" lon="-4.54736502841115">
        <ele>18.399999999999999</ele>
        <time>2023-09-02T11:39:56Z</time>
      </trkpt>
      <trkpt lat="56.089751003310084" lon="-4.548901012167335">
        <ele>18.879999999999999</ele>
        <time>2023-09-02T11:40:07Z</time>
      </trkpt>
      <trkpt lat="56.089818980544806" lon="-4.549068985506892">
        <ele>18.399999999999999</ele>
        <time>2023-09-02T11:40:08Z</time>
      </trkpt>
      <trkpt lat="56.089871032163501" lon="-4.549159007146955">
        <ele>18.399999999999999</ele>
        <time>2023-09-02T11:40:09Z</time>
      </trkpt>
      <trkpt lat="56.089981002733111" lon="-4.549335027113557">
        <ele>18.879999999999999</ele>
        <time>2023-09-02T11:40:11Z</time>
      </trkpt>
      <trkpt lat="56.090062977746129" lon="-4.549392024055123">
        <ele>18.879999999999999</ele>
        <time>2023-09-02T11:40:12Z</time>
      </trkpt>
      <trkpt lat="56.091036032885313" lon="-4.550076993182302">
        <ele>23.690000000000001</ele>
        <time>2023-09-02T11:40:22Z</time>
      </trkpt>
      <trkpt lat="56.091846982017159" lon="-4.55123201943934">
        <ele>31.859999999999999</ele>
        <time>2023-09-02T11:40:30Z</time>
      </trkpt>
      <trkpt lat="56.091986037790775" lon="-4.551429999992251">
        <ele>32.82</ele>
        <time>2023-09-02T11:40:31Z</time>
      </trkpt>
      <trkpt lat="56.092053009197116" lon="-4.551465036347508">
        <ele>33.780000000000001</ele>
        <time>2023-09-02T11:40:32Z</time>
      </trkpt>
      <trkpt lat="56.092173038050532" lon="-4.551526978611946">
        <ele>34.740000000000002</ele>
        <time>2023-09-02T11:40:33Z</time>
      </trkpt>
      <trkpt lat="56.092292983084917" lon="-4.551589004695416">
        <ele>35.229999999999997</ele>
        <time>2023-09-02T11:40:34Z</time>
      </trkpt>
      <trkpt lat="56.093367962166667" lon="-4.552148999646306">
        <ele>38.590000000000003</ele>
        <time>2023-09-02T11:40:43Z</time>
      </trkpt>
      <trkpt lat="56.093470975756645" lon="-4.552202979102731">
        <ele>38.590000000000003</ele>
        <time>2023-09-02T11:40:44Z</time>
      </trkpt>
      <trkpt lat="56.094068018719554" lon="-4.552363995462656">
        <ele>38.590000000000003</ele>
        <time>2023-09-02T11:40:49Z</time>
      </trkpt>
      <trkpt lat="56.094322996214032" lon="-4.552670018747449">
        <ele>38.590000000000003</ele>
        <time>2023-09-02T11:40:51Z</time>
      </trkpt>
      <trkpt lat="56.094433972612023" lon="-4.55282298848033">
        <ele>38.109999999999999</ele>
        <time>2023-09-02T11:40:52Z</time>
      </trkpt>
      <trkpt lat="56.094765979796648" lon="-4.553284998983145">
        <ele>37.149999999999999</ele>
        <time>2023-09-02T11:40:55Z</time>
      </trkpt>
      <trkpt lat="56.095625041052699" lon="-4.554812014102936">
        <ele>30.420000000000002</ele>
        <time>2023-09-02T11:41:04Z</time>
      </trkpt>
      <trkpt lat="56.095720008015633" lon="-4.554948974400759">
        <ele>29.460000000000001</ele>
        <time>2023-09-02T11:41:05Z</time>
      </trkpt>
      <trkpt lat="56.096689039841294" lon="-4.555594967678189">
        <ele>23.690000000000001</ele>
        <time>2023-09-02T11:41:14Z</time>
      </trkpt>
      <trkpt lat="56.096922978758812" lon="-4.55570301041007">
        <ele>23.210000000000001</ele>
        <time>2023-09-02T11:41:16Z</time>
      </trkpt>
      <trkpt lat="56.097363028675318" lon="-4.555910965427756">
        <ele>22.73</ele>
        <time>2023-09-02T11:41:20Z</time>
      </trkpt>
      <trkpt lat="56.098065013065934" lon="-4.556166026741266">
        <ele>19.84</ele>
        <time>2023-09-02T11:41:26Z</time>
      </trkpt>
      <trkpt lat="56.09831596724689" lon="-4.556257976219058">
        <ele>18.399999999999999</ele>
        <time>2023-09-02T11:41:28Z</time>
      </trkpt>
      <trkpt lat="56.098374975845218" lon="-4.556329976767302">
        <ele>17.920000000000002</ele>
        <time>2023-09-02T11:41:29Z</time>
      </trkpt>
      <trkpt lat="56.098461980000138" lon="-4.556436007842422">
        <ele>17.440000000000001</ele>
        <time>2023-09-02T11:41:30Z</time>
      </trkpt>
      <trkpt lat="56.098823994398117" lon="-4.556879997253418">
        <ele>15.039999999999999</ele>
        <time>2023-09-02T11:41:34Z</time>
      </trkpt>
      <trkpt lat="56.098914016038179" lon="-4.556990973651409">
        <ele>15.039999999999999</ele>
        <time>2023-09-02T11:41:35Z</time>
      </trkpt>
      <trkpt lat="56.099059022963047" lon="-4.557299008592963">
        <ele>14.56</ele>
        <time>2023-09-02T11:41:37Z</time>
      </trkpt>
      <trkpt lat="56.099262032657862" lon="-4.557890016585589">
        <ele>14.08</ele>
        <time>2023-09-02T11:41:41Z</time>
      </trkpt>
      <trkpt lat="56.099296985194087" lon="-4.557993030175567">
        <ele>14.08</ele>
        <time>2023-09-02T11:41:42Z</time>
      </trkpt>
      <trkpt lat="56.099317017942667" lon="-4.558051032945514">
        <ele>14.08</ele>
        <time>2023-09-02T11:41:43Z</time>
      </trkpt>
      <trkpt lat="56.099350964650512" lon="-4.558149017393589">
        <ele>14.08</ele>
        <time>2023-09-02T11:41:52Z</time>
      </trkpt>
      <trkpt lat="56.099618012085557" lon="-4.558929959312081">
        <ele>16</ele>
        <time>2023-09-02T11:41:59Z</time>
      </trkpt>
      <trkpt lat="56.099709039554" lon="-4.559194995090365">
        <ele>16.48</ele>
        <time>2023-09-02T11:42:01Z</time>
      </trkpt>
      <trkpt lat="56.099968962371349" lon="-4.560163021087647">
        <ele>17.920000000000002</ele>
        <time>2023-09-02T11:42:08Z</time>
      </trkpt>
      <trkpt lat="56.100023025646806" lon="-4.560296963900328">
        <ele>17.920000000000002</ele>
        <time>2023-09-02T11:42:09Z</time>
      </trkpt>
      <trkpt lat="56.100057978183031" lon="-4.560384973883629">
        <ele>17.920000000000002</ele>
        <time>2023-09-02T11:42:10Z</time>
      </trkpt>
      <trkpt lat="56.100092008709908" lon="-4.560468038544059">
        <ele>17.920000000000002</ele>
        <time>2023-09-02T11:42:11Z</time>
      </trkpt>
      <trkpt lat="56.100130984559655" lon="-4.560563005506992">
        <ele>17.920000000000002</ele>
        <time>2023-09-02T11:42:12Z</time>
      </trkpt>
      <trkpt lat="56.100168032571673" lon="-4.560655960813165">
        <ele>17.920000000000002</ele>
        <time>2023-09-02T11:42:13Z</time>
      </trkpt>
      <trkpt lat="56.10020600259304" lon="-4.560750005766749">
        <ele>17.920000000000002</ele>
        <time>2023-09-02T11:42:14Z</time>
      </trkpt>
      <trkpt lat="56.100241960957646" lon="-4.560838015750051">
        <ele>18.399999999999999</ele>
        <time>2023-09-02T11:42:15Z</time>
      </trkpt>
      <trkpt lat="56.100278003141284" lon="-4.560928959399462">
        <ele>18.399999999999999</ele>
        <time>2023-09-02T11:42:16Z</time>
      </trkpt>
      <trkpt lat="56.100332988426089" lon="-4.561063991859555">
        <ele>18.879999999999999</ele>
        <time>2023-09-02T11:42:17Z</time>
      </trkpt>
      <trkpt lat="56.100416975095868" lon="-4.561291979625821">
        <ele>20.809999999999999</ele>
        <time>2023-09-02T11:42:19Z</time>
      </trkpt>
      <trkpt lat="56.10052602365613" lon="-4.561548968777061">
        <ele>22.73</ele>
        <time>2023-09-02T11:42:21Z</time>
      </trkpt>
      <trkpt lat="56.100589977577329" lon="-4.561666985973716">
        <ele>23.690000000000001</ele>
        <time>2023-09-02T11:42:22Z</time>
      </trkpt>
      <trkpt lat="56.100715035572648" lon="-4.561894973739982">
        <ele>25.609999999999999</ele>
        <time>2023-09-02T11:42:24Z</time>
      </trkpt>
      <trkpt lat="56.100776977837086" lon="-4.562009973451495">
        <ele>26.57</ele>
        <time>2023-09-02T11:42:25Z</time>
      </trkpt>
      <trkpt lat="56.100846966728568" lon="-4.562136959284544">
        <ele>27.530000000000001</ele>
        <time>2023-09-02T11:42:26Z</time>
      </trkpt>
      <trkpt lat="56.100912010297179" lon="-4.56225698813796">
        <ele>28.5</ele>
        <time>2023-09-02T11:42:27Z</time>
      </trkpt>
      <trkpt lat="56.100977975875139" lon="-4.562377016991377">
        <ele>29.460000000000001</ele>
        <time>2023-09-02T11:42:28Z</time>
      </trkpt>
      <trkpt lat="56.101119965314865" lon="-4.562637023627758">
        <ele>31.379999999999999</ele>
        <time>2023-09-02T11:42:30Z</time>
      </trkpt>
      <trkpt lat="56.101321969181299" lon="-4.56300700083375">
        <ele>35.229999999999997</ele>
        <time>2023-09-02T11:42:33Z</time>
      </trkpt>
      <trkpt lat="56.101392963901162" lon="-4.563134992495179">
        <ele>36.670000000000002</ele>
        <time>2023-09-02T11:42:34Z</time>
      </trkpt>
      <trkpt lat="56.10149203799665" lon="-4.563316963613033">
        <ele>37.630000000000003</ele>
        <time>2023-09-02T11:42:35Z</time>
      </trkpt>
      <trkpt lat="56.101655988022685" lon="-4.563475968316197">
        <ele>40.030000000000001</ele>
        <time>2023-09-02T11:42:37Z</time>
      </trkpt>
      <trkpt lat="56.101759001612663" lon="-4.563575964421034">
        <ele>40.990000000000002</ele>
        <time>2023-09-02T11:42:38Z</time>
      </trkpt>
      <trkpt lat="56.10186000354588" lon="-4.563674032688141">
        <ele>42.439999999999998</ele>
        <time>2023-09-02T11:42:39Z</time>
      </trkpt>
      <trkpt lat="56.10196796245873" lon="-4.563778974115849">
        <ele>42.920000000000002</ele>
        <time>2023-09-02T11:42:40Z</time>
      </trkpt>
      <trkpt lat="56.10207499936223" lon="-4.563882993534207">
        <ele>43.880000000000003</ele>
        <time>2023-09-02T11:42:41Z</time>
      </trkpt>
      <trkpt lat="56.103036990389228" lon="-4.565246980637312">
        <ele>48.200000000000003</ele>
        <time>2023-09-02T11:42:51Z</time>
      </trkpt>
      <trkpt lat="56.104321014136076" lon="-4.567166017368436">
        <ele>53.490000000000002</ele>
        <time>2023-09-02T11:43:05Z</time>
      </trkpt>
      <trkpt lat="56.105058034881949" lon="-4.568116022273898">
        <ele>59.740000000000002</ele>
        <time>2023-09-02T11:43:12Z</time>
      </trkpt>
      <trkpt lat="56.10566102899611" lon="-4.568637041375041">
        <ele>63.100000000000001</ele>
        <time>2023-09-02T11:43:18Z</time>
      </trkpt>
      <trkpt lat="56.105808969587088" lon="-4.56876402720809">
        <ele>64.549999999999997</ele>
        <time>2023-09-02T11:43:23Z</time>
      </trkpt>
      <trkpt lat="56.105762030929327" lon="-4.568732008337975">
        <ele>64.549999999999997</ele>
        <time>2023-09-02T11:43:35Z</time>
      </trkpt>
      <trkpt lat="56.105757001787424" lon="-4.568778024986386">
        <ele>64.069999999999993</ele>
        <time>2023-09-02T11:43:36Z</time>
      </trkpt>
      <trkpt lat="56.105754990130663" lon="-4.568945998325944">
        <ele>60.219999999999999</ele>
        <time>2023-09-02T12:24:37Z</time>
      </trkpt>
      <trkpt lat="56.10570402815938" lon="-4.568858994171023">
        <ele>28.02</ele>
        <time>2023-09-02T12:25:02Z</time>
      </trkpt>
      <trkpt lat="56.105715008452535" lon="-4.568869974464178">
        <ele>27.050000000000001</ele>
        <time>2023-09-02T12:25:24Z</time>
      </trkpt>
      <trkpt lat="56.105690030381083" lon="-4.568711975589395">
        <ele>27.530000000000001</ele>
        <time>2023-09-02T12:25:37Z</time>
      </trkpt>
      <trkpt lat="56.105637978762388" lon="-4.568618014454842">
        <ele>27.050000000000001</ele>
        <time>2023-09-02T12:25:41Z</time>
      </trkpt>
      <trkpt lat="56.105615012347698" lon="-4.568596975877881">
        <ele>27.050000000000001</ele>
        <time>2023-09-02T12:25:42Z</time>
      </trkpt>
      <trkpt lat="56.105587016791105" lon="-4.568574009463191">
        <ele>27.050000000000001</ele>
        <time>2023-09-02T12:25:43Z</time>
      </trkpt>
      <trkpt lat="56.105525996536016" lon="-4.568521035835147">
        <ele>27.050000000000001</ele>
        <time>2023-09-02T12:25:44Z</time>
      </trkpt>
      <trkpt lat="56.105332039296627" lon="-4.568353984504938">
        <ele>26.09</ele>
        <time>2023-09-02T12:25:46Z</time>
      </trkpt>
      <trkpt lat="56.105220979079604" lon="-4.568258011713624">
        <ele>25.129999999999999</ele>
        <time>2023-09-02T12:25:47Z</time>
      </trkpt>
      <trkpt lat="56.105130035430193" lon="-4.568178970366716">
        <ele>25.129999999999999</ele>
        <time>2023-09-02T12:25:48Z</time>
      </trkpt>
      <trkpt lat="56.105043031275272" lon="-4.568104036152363">
        <ele>24.649999999999999</ele>
        <time>2023-09-02T12:25:49Z</time>
      </trkpt>
      <trkpt lat="56.104950997978449" lon="-4.568023988977075">
        <ele>24.170000000000002</ele>
        <time>2023-09-02T12:25:50Z</time>
      </trkpt>
      <trkpt lat="56.10484697856009" lon="-4.567934973165393">
        <ele>23.690000000000001</ele>
        <time>2023-09-02T12:25:51Z</time>
      </trkpt>
      <trkpt lat="56.104549001902342" lon="-4.567506993189454">
        <ele>22.73</ele>
        <time>2023-09-02T12:25:54Z</time>
      </trkpt>
      <trkpt lat="56.104455040767789" lon="-4.567366009578109">
        <ele>22.25</ele>
        <time>2023-09-02T12:25:55Z</time>
      </trkpt>
      <trkpt lat="56.104365019127727" lon="-4.567232988774777">
        <ele>21.77</ele>
        <time>2023-09-02T12:25:56Z</time>
      </trkpt>
      <trkpt lat="56.103421971201897" lon="-4.56582197919488">
        <ele>19.84</ele>
        <time>2023-09-02T12:26:05Z</time>
      </trkpt>
      <trkpt lat="56.102330982685089" lon="-4.564190022647381">
        <ele>22.73</ele>
        <time>2023-09-02T12:26:16Z</time>
      </trkpt>
      <trkpt lat="56.101457001641393" lon="-4.563254015520215">
        <ele>20.809999999999999</ele>
        <time>2023-09-02T12:26:25Z</time>
      </trkpt>
      <trkpt lat="56.101382989436388" lon="-4.56311697140336">
        <ele>20.32</ele>
        <time>2023-09-02T12:26:26Z</time>
      </trkpt>
      <trkpt lat="56.101305037736893" lon="-4.562974981963635">
        <ele>20.32</ele>
        <time>2023-09-02T12:26:27Z</time>
      </trkpt>
      <trkpt lat="56.101222978904843" lon="-4.562825029715896">
        <ele>20.32</ele>
        <time>2023-09-02T12:26:28Z</time>
      </trkpt>
      <trkpt lat="56.100356038659811" lon="-4.561125012114644">
        <ele>17.920000000000002</ele>
        <time>2023-09-02T12:26:39Z</time>
      </trkpt>
      <trkpt lat="56.099599990993738" lon="-4.558875979855657">
        <ele>15.52</ele>
        <time>2023-09-02T12:26:51Z</time>
      </trkpt>
      <trkpt lat="56.099306037649512" lon="-4.558020019903779">
        <ele>17.440000000000001</ele>
        <time>2023-09-02T12:26:58Z</time>
      </trkpt>
      <trkpt lat="56.099278964102268" lon="-4.55793896690011">
        <ele>19.359999999999999</ele>
        <time>2023-09-02T12:27:10Z</time>
      </trkpt>
      <trkpt lat="56.099278964102268" lon="-4.55793896690011">
        <ele>18.879999999999999</ele>
        <time>2023-09-02T12:27:58Z</time>
      </trkpt>
      <trkpt lat="56.099140997976065" lon="-4.557538982480764">
        <ele>20.809999999999999</ele>
        <time>2023-09-02T12:28:16Z</time>
      </trkpt>
      <trkpt lat="56.09904401935637" lon="-4.557253997772932">
        <ele>21.289999999999999</ele>
        <time>2023-09-02T12:28:19Z</time>
      </trkpt>
      <trkpt lat="56.098346980288625" lon="-4.556295024231076">
        <ele>21.289999999999999</ele>
        <time>2023-09-02T12:28:29Z</time>
      </trkpt>
      <trkpt lat="56.097983960062265" lon="-4.556137025356293">
        <ele>21.289999999999999</ele>
        <time>2023-09-02T12:28:33Z</time>
      </trkpt>
      <trkpt lat="56.097882036119699" lon="-4.556099977344275">
        <ele>20.809999999999999</ele>
        <time>2023-09-02T12:28:34Z</time>
      </trkpt>
      <trkpt lat="56.09777701087296" lon="-4.556062007322907">
        <ele>20.809999999999999</ele>
        <time>2023-09-02T12:28:35Z</time>
      </trkpt>
      <trkpt lat="56.097069997340441" lon="-4.555790014564991">
        <ele>19.84</ele>
        <time>2023-09-02T12:28:41Z</time>
      </trkpt>
      <trkpt lat="56.096362983807921" lon="-4.555463958531618">
        <ele>17.920000000000002</ele>
        <time>2023-09-02T12:28:47Z</time>
      </trkpt>
      <trkpt lat="56.096042040735483" lon="-4.555248962715268">
        <ele>16.960000000000001</ele>
        <time>2023-09-02T12:28:50Z</time>
      </trkpt>
      <trkpt lat="56.095937015488744" lon="-4.555151984095573">
        <ele>16.960000000000001</ele>
        <time>2023-09-02T12:28:51Z</time>
      </trkpt>
      <trkpt lat="56.095826039090753" lon="-4.555047964677215">
        <ele>16.48</ele>
        <time>2023-09-02T12:28:52Z</time>
      </trkpt>
      <trkpt lat="56.095712967216969" lon="-4.554938999935985">
        <ele>16.48</ele>
        <time>2023-09-02T12:28:53Z</time>
      </trkpt>
      <trkpt lat="56.095620011910796" lon="-4.554804973304272">
        <ele>16</ele>
        <time>2023-09-02T12:28:54Z</time>
      </trkpt>
      <trkpt lat="56.095425970852375" lon="-4.554527029395104">
        <ele>15.52</ele>
        <time>2023-09-02T12:28:56Z</time>
      </trkpt>
      <trkpt lat="56.094530029222369" lon="-4.552956009283662">
        <ele>14.56</ele>
        <time>2023-09-02T12:29:05Z</time>
      </trkpt>
      <trkpt lat="56.094111017882824" lon="-4.55237396992743">
        <ele>15.039999999999999</ele>
        <time>2023-09-02T12:29:09Z</time>
      </trkpt>
      <trkpt lat="56.093943966552615" lon="-4.552335999906063">
        <ele>15.52</ele>
        <time>2023-09-02T12:29:10Z</time>
      </trkpt>
      <trkpt lat="56.092724986374378" lon="-4.55181397497654">
        <ele>17.920000000000002</ele>
        <time>2023-09-02T12:29:18Z</time>
      </trkpt>
      <trkpt lat="56.092021996155381" lon="-4.551449026912451">
        <ele>18.399999999999999</ele>
        <time>2023-09-02T12:29:23Z</time>
      </trkpt>
      <trkpt lat="56.091896016150713" lon="-4.551302008330822">
        <ele>17.920000000000002</ele>
        <time>2023-09-02T12:29:24Z</time>
      </trkpt>
      <trkpt lat="56.091786967590451" lon="-4.5511460211128">
        <ele>16.960000000000001</ele>
        <time>2023-09-02T12:29:25Z</time>
      </trkpt>
      <trkpt lat="56.090976018458605" lon="-4.550025025382638">
        <ele>14.08</ele>
        <time>2023-09-02T12:29:32Z</time>
      </trkpt>
      <trkpt lat="56.090850038453937" lon="-4.549938021227717">
        <ele>13.6</ele>
        <time>2023-09-02T12:29:33Z</time>
      </trkpt>
      <trkpt lat="56.090712994337082" lon="-4.549842970445752">
        <ele>13.119999999999999</ele>
        <time>2023-09-02T12:29:34Z</time>
      </trkpt>
      <trkpt lat="56.089965999126434" lon="-4.54932102933526">
        <ele>8.310000000000001</ele>
        <time>2023-09-02T12:29:40Z</time>
      </trkpt>
      <trkpt lat="56.089901039376855" lon="-4.549209969118238">
        <ele>7.35</ele>
        <time>2023-09-02T12:29:41Z</time>
      </trkpt>
      <trkpt lat="56.089818980544806" lon="-4.549068985506892">
        <ele>6.87</ele>
        <time>2023-09-02T12:29:42Z</time>
      </trkpt>
      <trkpt lat="56.089237025007606" lon="-4.547629980370402">
        <ele>6.39</ele>
        <time>2023-09-02T12:29:50Z</time>
      </trkpt>
      <trkpt lat="56.089070979505777" lon="-4.547219015657902">
        <ele>6.87</ele>
        <time>2023-09-02T12:29:54Z</time>
      </trkpt>
      <trkpt lat="56.089014988392591" lon="-4.547141985967755">
        <ele>6.39</ele>
        <time>2023-09-02T12:29:55Z</time>
      </trkpt>
      <trkpt lat="56.08896897174418" lon="-4.547113990411162">
        <ele>6.39</ele>
        <time>2023-09-02T12:29:56Z</time>
      </trkpt>
      <trkpt lat="56.088722962886095" lon="-4.546998990699649">
        <ele>7.35</ele>
        <time>2023-09-02T12:30:00Z</time>
      </trkpt>
      <trkpt lat="56.088655991479754" lon="-4.546989016234875">
        <ele>7.35</ele>
        <time>2023-09-02T12:30:01Z</time>
      </trkpt>
      <trkpt lat="56.088592959567904" lon="-4.546979041770101">
        <ele>7.83</ele>
        <time>2023-09-02T12:30:02Z</time>
      </trkpt>
      <trkpt lat="56.088527999818325" lon="-4.546967977657914">
        <ele>8.310000000000001</ele>
        <time>2023-09-02T12:30:03Z</time>
      </trkpt>
      <trkpt lat="56.088464967906475" lon="-4.54695800319314">
        <ele>8.310000000000001</ele>
        <time>2023-09-02T12:30:04Z</time>
      </trkpt>
      <trkpt lat="56.088404031470418" lon="-4.546949034556747">
        <ele>8.310000000000001</ele>
        <time>2023-09-02T12:30:05Z</time>
      </trkpt>
      <trkpt lat="56.088362960144877" lon="-4.546948028728366">
        <ele>8.789999999999999</ele>
        <time>2023-09-02T12:30:06Z</time>
      </trkpt>
      <trkpt lat="56.088322978466749" lon="-4.546955991536379">
        <ele>8.789999999999999</ele>
        <time>2023-09-02T12:30:07Z</time>
      </trkpt>
      <trkpt lat="56.088285008445382" lon="-4.546963032335043">
        <ele>8.789999999999999</ele>
        <time>2023-09-02T12:30:08Z</time>
      </trkpt>
      <trkpt lat="56.088245026767254" lon="-4.546969989314675">
        <ele>8.789999999999999</ele>
        <time>2023-09-02T12:30:09Z</time>
      </trkpt>
      <trkpt lat="56.088210996240377" lon="-4.546976024284959">
        <ele>9.27</ele>
        <time>2023-09-02T12:30:10Z</time>
      </trkpt>
      <trkpt lat="56.08817595988512" lon="-4.546982981264591">
        <ele>9.27</ele>
        <time>2023-09-02T12:30:11Z</time>
      </trkpt>
      <trkpt lat="56.088037993758917" lon="-4.547007959336042">
        <ele>9.75</ele>
        <time>2023-09-02T12:30:14Z</time>
      </trkpt>
      <trkpt lat="56.08793799765408" lon="-4.547026986256242">
        <ele>10.23</ele>
        <time>2023-09-02T12:30:16Z</time>
      </trkpt>
      <trkpt lat="56.087869014590979" lon="-4.547038972377777">
        <ele>10.710000000000001</ele>
        <time>2023-09-02T12:30:17Z</time>
      </trkpt>
      <trkpt lat="56.087566008791327" lon="-4.547094963490963">
        <ele>12.15</ele>
        <time>2023-09-02T12:30:21Z</time>
      </trkpt>
      <trkpt lat="56.087466012686491" lon="-4.547068979591131">
        <ele>12.630000000000001</ele>
        <time>2023-09-02T12:30:22Z</time>
      </trkpt>
      <trkpt lat="56.087385965511203" lon="-4.547048024833202">
        <ele>13.6</ele>
        <time>2023-09-02T12:30:23Z</time>
      </trkpt>
      <trkpt lat="56.087221009656787" lon="-4.547004019841552">
        <ele>15.039999999999999</ele>
        <time>2023-09-02T12:30:25Z</time>
      </trkpt>
      <trkpt lat="56.087134005501866" lon="-4.54698096960783">
        <ele>16</ele>
        <time>2023-09-02T12:30:26Z</time>
      </trkpt>
      <trkpt lat="56.086967037990689" lon="-4.54693696461618">
        <ele>17.920000000000002</ele>
        <time>2023-09-02T12:30:28Z</time>
      </trkpt>
      <trkpt lat="56.086837034672499" lon="-4.546902012079954">
        <ele>18.399999999999999</ele>
        <time>2023-09-02T12:30:29Z</time>
      </trkpt>
      <trkpt lat="56.086800992488861" lon="-4.546855995431542">
        <ele>19.359999999999999</ele>
        <time>2023-09-02T12:30:30Z</time>
      </trkpt>
      <trkpt lat="56.086653973907232" lon="-4.546666983515024">
        <ele>20.32</ele>
        <time>2023-09-02T12:30:32Z</time>
      </trkpt>
      <trkpt lat="56.086574010550976" lon="-4.546563969925046">
        <ele>20.32</ele>
        <time>2023-09-02T12:30:33Z</time>
      </trkpt>
      <trkpt lat="56.086490023881197" lon="-4.546453999355435">
        <ele>20.809999999999999</ele>
        <time>2023-09-02T12:30:34Z</time>
      </trkpt>
      <trkpt lat="56.086403019726276" lon="-4.546342017129064">
        <ele>21.289999999999999</ele>
        <time>2023-09-02T12:30:35Z</time>
      </trkpt>
      <trkpt lat="56.086315009742975" lon="-4.546230034902692">
        <ele>21.289999999999999</ele>
        <time>2023-09-02T12:30:36Z</time>
      </trkpt>
      <trkpt lat="56.085734982043505" lon="-4.545481028035283">
        <ele>19.84</ele>
        <time>2023-09-02T12:30:43Z</time>
      </trkpt>
      <trkpt lat="56.085598021745682" lon="-4.545282041653991">
        <ele>18.879999999999999</ele>
        <time>2023-09-02T12:30:45Z</time>
      </trkpt>
      <trkpt lat="56.085548987612128" lon="-4.545201994478703">
        <ele>18.399999999999999</ele>
        <time>2023-09-02T12:30:46Z</time>
      </trkpt>
      <trkpt lat="56.085368022322655" lon="-4.544902006164193">
        <ele>15.52</ele>
        <time>2023-09-02T12:30:50Z</time>
      </trkpt>
      <trkpt lat="56.085301972925663" lon="-4.544793963432312">
        <ele>14.56</ele>
        <time>2023-09-02T12:30:51Z</time>
      </trkpt>
      <trkpt lat="56.085163000971079" lon="-4.544562958180904">
        <ele>13.119999999999999</ele>
        <time>2023-09-02T12:30:52Z</time>
      </trkpt>
      <trkpt lat="56.085147997364402" lon="-4.54455197788775">
        <ele>11.67</ele>
        <time>2023-09-02T12:30:53Z</time>
      </trkpt>
      <trkpt lat="56.084969965741038" lon="-4.544413005933166">
        <ele>10.23</ele>
        <time>2023-09-02T12:30:54Z</time>
      </trkpt>
      <trkpt lat="56.084956973791122" lon="-4.544409988448024">
        <ele>8.789999999999999</ele>
        <time>2023-09-02T12:30:55Z</time>
      </trkpt>
      <trkpt lat="56.084884973242879" lon="-4.544393979012966">
        <ele>6.87</ele>
        <time>2023-09-02T12:30:56Z</time>
      </trkpt>
      <trkpt lat="56.084816996008158" lon="-4.544377969577909">
        <ele>4.94</ele>
        <time>2023-09-02T12:30:57Z</time>
      </trkpt>
      <trkpt lat="56.084691016003489" lon="-4.544348968192935">
        <ele>3.5</ele>
        <time>2023-09-02T12:30:58Z</time>
      </trkpt>
      <trkpt lat="56.084691016003489" lon="-4.544348968192935">
        <ele>2.54</ele>
        <time>2023-09-02T12:30:59Z</time>
      </trkpt>
      <trkpt lat="56.084691016003489" lon="-4.544348968192935">
        <ele>1.58</ele>
        <time>2023-09-02T12:31:00Z</time>
      </trkpt>
      <trkpt lat="56.084540979936719" lon="-4.544090973213315">
        <ele>0.62</ele>
        <time>2023-09-02T12:31:01Z</time>
      </trkpt>
      <trkpt lat="56.084561012685299" lon="-4.544033976271749">
        <ele>-0.82</ele>
        <time>2023-09-02T12:31:02Z</time>
      </trkpt>
      <trkpt lat="56.084598982706666" lon="-4.54393096268177">
        <ele>-2.27</ele>
        <time>2023-09-02T12:31:03Z</time>
      </trkpt>
      <trkpt lat="56.08462898992002" lon="-4.543846976011992">
        <ele>-3.23</ele>
        <time>2023-09-02T12:31:04Z</time>
      </trkpt>
      <trkpt lat="56.084845997393131" lon="-4.543159995228052">
        <ele>-10.44</ele>
        <time>2023-09-02T12:31:10Z</time>
      </trkpt>
      <trkpt lat="56.084883967414498" lon="-4.543039966374636">
        <ele>-10.44</ele>
        <time>2023-09-02T12:31:11Z</time>
      </trkpt>
      <trkpt lat="56.084891008213162" lon="-4.542935024946928">
        <ele>-10.92</ele>
        <time>2023-09-02T12:31:12Z</time>
      </trkpt>
      <trkpt lat="56.084900982677937" lon="-4.542797980830073">
        <ele>-10.92</ele>
        <time>2023-09-02T12:31:13Z</time>
      </trkpt>
      <trkpt lat="56.084926966577768" lon="-4.542438983917236">
        <ele>-9.960000000000001</ele>
        <time>2023-09-02T12:31:14Z</time>
      </trkpt>
      <trkpt lat="56.084926966577768" lon="-4.542438983917236">
        <ele>-8.51</ele>
        <time>2023-09-02T12:31:15Z</time>
      </trkpt>
      <trkpt lat="56.084909029304981" lon="-4.542329013347626">
        <ele>-7.07</ele>
        <time>2023-09-02T12:31:16Z</time>
      </trkpt>
      <trkpt lat="56.084463028237224" lon="-4.540894031524658">
        <ele>0.14</ele>
        <time>2023-09-02T12:31:27Z</time>
      </trkpt>
      <trkpt lat="56.084395973011851" lon="-4.540645005181432">
        <ele>1.1</ele>
        <time>2023-09-02T12:31:29Z</time>
      </trkpt>
      <trkpt lat="56.084230011329055" lon="-4.539251010864973">
        <ele>7.35</ele>
        <time>2023-09-02T12:31:38Z</time>
      </trkpt>
      <trkpt lat="56.084188017994165" lon="-4.538821019232273">
        <ele>9.27</ele>
        <time>2023-09-02T12:31:40Z</time>
      </trkpt>
      <trkpt lat="56.084143007174134" lon="-4.538359008729458">
        <ele>11.19</ele>
        <time>2023-09-02T12:31:42Z</time>
      </trkpt>
      <trkpt lat="56.084120040759444" lon="-4.538130015134811">
        <ele>12.15</ele>
        <time>2023-09-02T12:31:43Z</time>
      </trkpt>
      <trkpt lat="56.08385399915278" lon="-4.535873020067811">
        <ele>17.440000000000001</ele>
        <time>2023-09-02T12:31:52Z</time>
      </trkpt>
      <trkpt lat="56.083727013319731" lon="-4.534867024049163">
        <ele>17.920000000000002</ele>
        <time>2023-09-02T12:31:56Z</time>
      </trkpt>
      <trkpt lat="56.083692982792854" lon="-4.53460399992764">
        <ele>17.920000000000002</ele>
        <time>2023-09-02T12:31:57Z</time>
      </trkpt>
      <trkpt lat="56.083659958094358" lon="-4.534342987462878">
        <ele>17.920000000000002</ele>
        <time>2023-09-02T12:31:58Z</time>
      </trkpt>
      <trkpt lat="56.083300961181521" lon="-4.531498001888394">
        <ele>15.52</ele>
        <time>2023-09-02T12:32:08Z</time>
      </trkpt>
      <trkpt lat="56.083012958988547" lon="-4.529228014871478">
        <ele>15.52</ele>
        <time>2023-09-02T12:32:17Z</time>
      </trkpt>
      <trkpt lat="56.082770973443985" lon="-4.527435963973403">
        <ele>14.56</ele>
        <time>2023-09-02T12:32:23Z</time>
      </trkpt>
      <trkpt lat="56.082535022869706" lon="-4.525479041039944">
        <ele>13.119999999999999</ele>
        <time>2023-09-02T12:32:31Z</time>
      </trkpt>
      <trkpt lat="56.082357997074723" lon="-4.523554975166917">
        <ele>17.440000000000001</ele>
        <time>2023-09-02T12:32:39Z</time>
      </trkpt>
      <trkpt lat="56.082338970154524" lon="-4.523330004885793">
        <ele>18.399999999999999</ele>
        <time>2023-09-02T12:32:40Z</time>
      </trkpt>
      <trkpt lat="56.0822210367769" lon="-4.520793976262212">
        <ele>29.460000000000001</ele>
        <time>2023-09-02T12:32:49Z</time>
      </trkpt>
      <trkpt lat="56.082170996814966" lon="-4.518705038353801">
        <ele>34.740000000000002</ele>
        <time>2023-09-02T12:32:56Z</time>
      </trkpt>
      <trkpt lat="56.082105031237006" lon="-4.515966000035405">
        <ele>40.030000000000001</ele>
        <time>2023-09-02T12:33:05Z</time>
      </trkpt>
      <trkpt lat="56.082043005153537" lon="-4.513415973633528">
        <ele>42.920000000000002</ele>
        <time>2023-09-02T12:33:13Z</time>
      </trkpt>
      <trkpt lat="56.081977039575577" lon="-4.510636031627655">
        <ele>41.950000000000003</ele>
        <time>2023-09-02T12:33:22Z</time>
      </trkpt>
      <trkpt lat="56.081913001835346" lon="-4.507989026606083">
        <ele>40.030000000000001</ele>
        <time>2023-09-02T12:33:30Z</time>
      </trkpt>
      <trkpt lat="56.081858016550541" lon="-4.505724990740418">
        <ele>38.109999999999999</ele>
        <time>2023-09-02T12:33:37Z</time>
      </trkpt>
      <trkpt lat="56.081858016550541" lon="-4.505551988258958">
        <ele>37.630000000000003</ele>
        <time>2023-09-02T12:33:38Z</time>
      </trkpt>
      <trkpt lat="56.081858016550541" lon="-4.505272032693029">
        <ele>37.630000000000003</ele>
        <time>2023-09-02T12:33:39Z</time>
      </trkpt>
      <trkpt lat="56.081858016550541" lon="-4.505145968869329">
        <ele>37.149999999999999</ele>
        <time>2023-09-02T12:33:40Z</time>
      </trkpt>
      <trkpt lat="56.081841001287103" lon="-4.504838017746806">
        <ele>37.149999999999999</ele>
        <time>2023-09-02T12:33:41Z</time>
      </trkpt>
      <trkpt lat="56.081828009337187" lon="-4.504624027758837">
        <ele>36.670000000000002</ele>
        <time>2023-09-02T12:33:42Z</time>
      </trkpt>
      <trkpt lat="56.081816023215652" lon="-4.504413977265358">
        <ele>36.670000000000002</ele>
        <time>2023-09-02T12:33:43Z</time>
      </trkpt>
      <trkpt lat="56.081804037094116" lon="-4.50420300476253">
        <ele>36.670000000000002</ele>
        <time>2023-09-02T12:33:44Z</time>
      </trkpt>
      <trkpt lat="56.08179397881031" lon="-4.50403000228107">
        <ele>36.189999999999998</ele>
        <time>2023-09-02T12:33:45Z</time>
      </trkpt>
      <trkpt lat="56.081757014617324" lon="-4.503887007012963">
        <ele>36.189999999999998</ele>
        <time>2023-09-02T12:33:46Z</time>
      </trkpt>
      <trkpt lat="56.081705968827009" lon="-4.503690032288432">
        <ele>35.710000000000001</ele>
        <time>2023-09-02T12:33:47Z</time>
      </trkpt>
      <trkpt lat="56.081445962190628" lon="-4.502973966300488">
        <ele>35.710000000000001</ele>
        <time>2023-09-02T12:33:51Z</time>
      </trkpt>
      <trkpt lat="56.081343032419682" lon="-4.502828037366271">
        <ele>34.740000000000002</ele>
        <time>2023-09-02T12:33:52Z</time>
      </trkpt>
      <trkpt lat="56.081220991909504" lon="-4.502705996856093">
        <ele>33.780000000000001</ele>
        <time>2023-09-02T12:33:53Z</time>
      </trkpt>
      <trkpt lat="56.081112027168274" lon="-4.502597032114863">
        <ele>32.82</ele>
        <time>2023-09-02T12:33:54Z</time>
      </trkpt>
      <trkpt lat="56.081010019406676" lon="-4.502495024353266">
        <ele>31.859999999999999</ele>
        <time>2023-09-02T12:33:55Z</time>
      </trkpt>
      <trkpt lat="56.080907005816698" lon="-4.502392010763288">
        <ele>31.379999999999999</ele>
        <time>2023-09-02T12:33:56Z</time>
      </trkpt>
      <trkpt lat="56.080489000305533" lon="-4.501963024958968">
        <ele>30.420000000000002</ele>
        <time>2023-09-02T12:34:00Z</time>
      </trkpt>
      <trkpt lat="56.080383975058794" lon="-4.501853976398706">
        <ele>30.420000000000002</ele>
        <time>2023-09-02T12:34:01Z</time>
      </trkpt>
      <trkpt lat="56.080281967297196" lon="-4.501747023314238">
        <ele>29.940000000000001</ele>
        <time>2023-09-02T12:34:02Z</time>
      </trkpt>
      <trkpt lat="56.080212984234095" lon="-4.501603022217751">
        <ele>29.460000000000001</ele>
        <time>2023-09-02T12:34:03Z</time>
      </trkpt>
      <trkpt lat="56.080155987292528" lon="-4.501433959230781">
        <ele>28.98</ele>
        <time>2023-09-02T12:34:04Z</time>
      </trkpt>
      <trkpt lat="56.080098990350962" lon="-4.501261962577701">
        <ele>28.5</ele>
        <time>2023-09-02T12:34:05Z</time>
      </trkpt>
      <trkpt lat="56.080089015886188" lon="-4.50110899284482">
        <ele>28.5</ele>
        <time>2023-09-02T12:34:06Z</time>
      </trkpt>
      <trkpt lat="56.080077029764652" lon="-4.500917969271541">
        <ele>28.5</ele>
        <time>2023-09-02T12:34:07Z</time>
      </trkpt>
      <trkpt lat="56.080090021714568" lon="-4.500751001760364">
        <ele>28.5</ele>
        <time>2023-09-02T12:34:08Z</time>
      </trkpt>
      <trkpt lat="56.080126985907555" lon="-4.500240040943027">
        <ele>28.5</ele>
        <time>2023-09-02T12:34:11Z</time>
      </trkpt>
      <trkpt lat="56.080140983685851" lon="-4.500040970742703">
        <ele>28.5</ele>
        <time>2023-09-02T12:34:12Z</time>
      </trkpt>
      <trkpt lat="56.080189011991024" lon="-4.497890006750822">
        <ele>32.340000000000003</ele>
        <time>2023-09-02T12:34:22Z</time>
      </trkpt>
      <trkpt lat="56.079885000362992" lon="-4.495787993073463">
        <ele>38.109999999999999</ele>
        <time>2023-09-02T12:34:32Z</time>
      </trkpt>
      <trkpt lat="56.0798379778862" lon="-4.495524968951941">
        <ele>38.590000000000003</ele>
        <time>2023-09-02T12:34:33Z</time>
      </trkpt>
      <trkpt lat="56.078915968537331" lon="-4.493552958592773">
        <ele>40.509999999999998</ele>
        <time>2023-09-02T12:34:40Z</time>
      </trkpt>
      <trkpt lat="56.078722011297941" lon="-4.493127996101975">
        <ele>39.549999999999997</ele>
        <time>2023-09-02T12:34:42Z</time>
      </trkpt>
      <trkpt lat="56.078667026013136" lon="-4.493007967248559">
        <ele>38.590000000000003</ele>
        <time>2023-09-02T12:34:43Z</time>
      </trkpt>
      <trkpt lat="56.0783960390836" lon="-4.492418970912695">
        <ele>33.780000000000001</ele>
        <time>2023-09-02T12:34:51Z</time>
      </trkpt>
      <trkpt lat="56.077872002497315" lon="-4.491286994889379">
        <ele>31.859999999999999</ele>
        <time>2023-09-02T12:34:57Z</time>
      </trkpt>
      <trkpt lat="56.07695703394711" lon="-4.489289000630379">
        <ele>28.98</ele>
        <time>2023-09-02T12:35:06Z</time>
      </trkpt>
      <trkpt lat="56.07669903896749" lon="-4.488722970709205">
        <ele>28.5</ele>
        <time>2023-09-02T12:35:09Z</time>
      </trkpt>
      <trkpt lat="56.076628966256976" lon="-4.488519039005041">
        <ele>28.5</ele>
        <time>2023-09-02T12:35:10Z</time>
      </trkpt>
      <trkpt lat="56.076584961265326" lon="-4.488275963813067">
        <ele>28.5</ele>
        <time>2023-09-02T12:35:11Z</time>
      </trkpt>
      <trkpt lat="56.07633400708437" lon="-4.485518988221884">
        <ele>35.229999999999997</ele>
        <time>2023-09-02T12:35:21Z</time>
      </trkpt>
      <trkpt lat="56.076083974912763" lon="-4.482781039550901">
        <ele>42.920000000000002</ele>
        <time>2023-09-02T12:35:30Z</time>
      </trkpt>
      <trkpt lat="56.075779041275382" lon="-4.479444958269596">
        <ele>50.130000000000003</ele>
        <time>2023-09-02T12:35:40Z</time>
      </trkpt>
      <trkpt lat="56.075506964698434" lon="-4.476885963231325">
        <ele>54.93</ele>
        <time>2023-09-02T12:35:49Z</time>
      </trkpt>
      <trkpt lat="56.075134975835681" lon="-4.476108960807324">
        <ele>58.299999999999997</ele>
        <time>2023-09-02T12:35:53Z</time>
      </trkpt>
      <trkpt lat="56.075040008872747" lon="-4.475909974426031">
        <ele>58.780000000000001</ele>
        <time>2023-09-02T12:35:54Z</time>
      </trkpt>
      <trkpt lat="56.074234005063772" lon="-4.474235018715262">
        <ele>61.659999999999997</ele>
        <time>2023-09-02T12:36:02Z</time>
      </trkpt>
      <trkpt lat="56.073895040899515" lon="-4.47351903654635">
        <ele>62.619999999999997</ele>
        <time>2023-09-02T12:36:06Z</time>
      </trkpt>
      <trkpt lat="56.07382102869451" lon="-4.473310997709632">
        <ele>62.619999999999997</ele>
        <time>2023-09-02T12:36:07Z</time>
      </trkpt>
      <trkpt lat="56.073785992339253" lon="-4.473093990236521">
        <ele>63.100000000000001</ele>
        <time>2023-09-02T12:36:08Z</time>
      </trkpt>
      <trkpt lat="56.073487009853125" lon="-4.471183000132442">
        <ele>65.510000000000005</ele>
        <time>2023-09-02T12:36:17Z</time>
      </trkpt>
      <trkpt lat="56.073420038446784" lon="-4.470777986571193">
        <ele>65.510000000000005</ele>
        <time>2023-09-02T12:36:23Z</time>
      </trkpt>
      <trkpt lat="56.073335967957973" lon="-4.47072803042829">
        <ele>65.510000000000005</ele>
        <time>2023-09-02T12:36:24Z</time>
      </trkpt>
      <trkpt lat="56.073311995714903" lon="-4.470743034034967">
        <ele>65.510000000000005</ele>
        <time>2023-09-02T12:36:25Z</time>
      </trkpt>
      <trkpt lat="56.073287017643452" lon="-4.470758959650993">
        <ele>65.510000000000005</ele>
        <time>2023-09-02T12:36:26Z</time>
      </trkpt>
      <trkpt lat="56.07326103374362" lon="-4.470774969086051">
        <ele>65.510000000000005</ele>
        <time>2023-09-02T12:36:27Z</time>
      </trkpt>
      <trkpt lat="56.073235971853137" lon="-4.470790978521109">
        <ele>65.030000000000001</ele>
        <time>2023-09-02T12:36:28Z</time>
      </trkpt>
      <trkpt lat="56.073213005438447" lon="-4.470805982127786">
        <ele>65.030000000000001</ele>
        <time>2023-09-02T12:36:29Z</time>
      </trkpt>
      <trkpt lat="56.073190961033106" lon="-4.470819979906082">
        <ele>65.030000000000001</ele>
        <time>2023-09-02T12:36:30Z</time>
      </trkpt>
      <trkpt lat="56.07306900434196" lon="-4.470898015424609">
        <ele>64.549999999999997</ele>
        <time>2023-09-02T12:36:38Z</time>
      </trkpt>
      <trkpt lat="56.073054000735283" lon="-4.470906984061003">
        <ele>64.549999999999997</ele>
        <time>2023-09-02T12:36:39Z</time>
      </trkpt>
      <trkpt lat="56.072760969400406" lon="-4.471290959045291">
        <ele>62.140000000000001</ele>
        <time>2023-09-02T12:36:52Z</time>
      </trkpt>
      <trkpt lat="56.072416976094246" lon="-4.47212303057313">
        <ele>57.82</ele>
        <time>2023-09-02T12:37:04Z</time>
      </trkpt>
      <trkpt lat="56.072304993867874" lon="-4.472439028322697">
        <ele>57.340000000000003</ele>
        <time>2023-09-02T12:37:08Z</time>
      </trkpt>
      <trkpt lat="56.071958988904953" lon="-4.473409987986088">
        <ele>56.859999999999999</ele>
        <time>2023-09-02T12:37:22Z</time>
      </trkpt>
      <trkpt lat="56.071575013920665" lon="-4.474486978724599">
        <ele>53.009999999999998</ele>
        <time>2023-09-02T12:37:38Z</time>
      </trkpt>
      <trkpt lat="56.071317018941045" lon="-4.475211007520556">
        <ele>50.130000000000003</ele>
        <time>2023-09-02T12:37:48Z</time>
      </trkpt>
      <trkpt lat="56.07126597315073" lon="-4.475337993353605">
        <ele>49.649999999999999</ele>
        <time>2023-09-02T12:37:50Z</time>
      </trkpt>
      <trkpt lat="56.071237977594137" lon="-4.475403036922216">
        <ele>49.159999999999997</ele>
        <time>2023-09-02T12:37:51Z</time>
      </trkpt>
      <trkpt lat="56.070944024249911" lon="-4.476093035191298">
        <ele>47.719999999999999</ele>
        <time>2023-09-02T12:38:02Z</time>
      </trkpt>
      <trkpt lat="56.070816032588482" lon="-4.476393023505807">
        <ele>47.240000000000002</ele>
        <time>2023-09-02T12:38:07Z</time>
      </trkpt>
      <trkpt lat="56.07055502012372" lon="-4.47700398042798">
        <ele>43.880000000000003</ele>
        <time>2023-09-02T12:38:17Z</time>
      </trkpt>
      <trkpt lat="56.070097032934427" lon="-4.477682998403907">
        <ele>40.030000000000001</ele>
        <time>2023-09-02T12:38:30Z</time>
      </trkpt>
      <trkpt lat="56.070026960223913" lon="-4.47777503170073">
        <ele>39.549999999999997</ele>
        <time>2023-09-02T12:38:32Z</time>
      </trkpt>
      <trkpt lat="56.069597974419594" lon="-4.478328991681337">
        <ele>38.109999999999999</ele>
        <time>2023-09-02T12:38:43Z</time>
      </trkpt>
      <trkpt lat="56.069402005523443" lon="-4.478582041338086">
        <ele>37.149999999999999</ele>
        <time>2023-09-02T12:38:48Z</time>
      </trkpt>
      <trkpt lat="56.069350959733129" lon="-4.478648006916046">
        <ele>36.670000000000002</ele>
        <time>2023-09-02T12:38:49Z</time>
      </trkpt>
      <trkpt lat="56.06930703856051" lon="-4.478705003857613">
        <ele>36.189999999999998</ele>
        <time>2023-09-02T12:38:50Z</time>
      </trkpt>
      <trkpt lat="56.069268984720111" lon="-4.478754037991166">
        <ele>36.189999999999998</ele>
        <time>2023-09-02T12:38:51Z</time>
      </trkpt>
      <trkpt lat="56.069230008870363" lon="-4.478803994134069">
        <ele>35.710000000000001</ele>
        <time>2023-09-02T12:38:52Z</time>
      </trkpt>
      <trkpt lat="56.069192960858345" lon="-4.478852022439241">
        <ele>35.229999999999997</ele>
        <time>2023-09-02T12:38:53Z</time>
      </trkpt>
      <trkpt lat="56.069161025807261" lon="-4.47889300994575">
        <ele>34.740000000000002</ele>
        <time>2023-09-02T12:38:54Z</time>
      </trkpt>
      <trkpt lat="56.069132024422288" lon="-4.478930979967117">
        <ele>34.740000000000002</ele>
        <time>2023-09-02T12:38:55Z</time>
      </trkpt>
      <trkpt lat="56.069101011380553" lon="-4.478971967473626">
        <ele>34.259999999999998</ele>
        <time>2023-09-02T12:38:56Z</time>
      </trkpt>
      <trkpt lat="56.068855002522469" lon="-4.479288971051574">
        <ele>31.379999999999999</ele>
        <time>2023-09-02T12:39:04Z</time>
      </trkpt>
      <trkpt lat="56.068843016400933" lon="-4.479304980486631">
        <ele>31.379999999999999</ele>
        <time>2023-09-02T12:39:05Z</time>
      </trkpt>
      <trkpt lat="56.068830024451017" lon="-4.479243960231543">
        <ele>30.899999999999999</ele>
        <time>2023-09-02T12:39:06Z</time>
      </trkpt>
      <trkpt lat="56.068798005580902" lon="-4.479186041280627">
        <ele>29.940000000000001</ele>
        <time>2023-09-02T12:39:07Z</time>
      </trkpt>
      <trkpt lat="56.068761963397264" lon="-4.479120997712016">
        <ele>29.460000000000001</ele>
        <time>2023-09-02T12:39:08Z</time>
      </trkpt>
      <trkpt lat="56.068722987547517" lon="-4.479051008820534">
        <ele>28.98</ele>
        <time>2023-09-02T12:39:09Z</time>
      </trkpt>
      <trkpt lat="56.068430040031672" lon="-4.478524960577488">
        <ele>25.609999999999999</ele>
        <time>2023-09-02T12:39:15Z</time>
      </trkpt>
      <trkpt lat="56.068367008119822" lon="-4.478409960865974">
        <ele>25.129999999999999</ele>
        <time>2023-09-02T12:39:16Z</time>
      </trkpt>
      <trkpt lat="56.068305987864733" lon="-4.478302001953125">
        <ele>24.170000000000002</ele>
        <time>2023-09-02T12:39:17Z</time>
      </trkpt>
      <trkpt lat="56.068249996751547" lon="-4.478201000019908">
        <ele>23.690000000000001</ele>
        <time>2023-09-02T12:39:18Z</time>
      </trkpt>
      <trkpt lat="56.068194005638361" lon="-4.478099998086691">
        <ele>22.73</ele>
        <time>2023-09-02T12:39:19Z</time>
      </trkpt>
      <trkpt lat="56.068142037838697" lon="-4.478005031123757">
        <ele>22.25</ele>
        <time>2023-09-02T12:39:20Z</time>
      </trkpt>
      <trkpt lat="56.0680210031569" lon="-4.47782096453011">
        <ele>20.809999999999999</ele>
        <time>2023-09-02T12:39:23Z</time>
      </trkpt>
      <trkpt lat="56.067973980680108" lon="-4.47775499895215">
        <ele>20.32</ele>
        <time>2023-09-02T12:39:24Z</time>
      </trkpt>
      <trkpt lat="56.067665023729205" lon="-4.477321989834309">
        <ele>16.960000000000001</ele>
        <time>2023-09-02T12:39:30Z</time>
      </trkpt>
      <trkpt lat="56.0676100384444" lon="-4.477245965972543">
        <ele>16.960000000000001</ele>
        <time>2023-09-02T12:39:31Z</time>
      </trkpt>
      <trkpt lat="56.067553041502833" lon="-4.477166002616286">
        <ele>16.48</ele>
        <time>2023-09-02T12:39:32Z</time>
      </trkpt>
      <trkpt lat="56.067480035126209" lon="-4.477063994854689">
        <ele>17.440000000000001</ele>
        <time>2023-09-02T12:39:33Z</time>
      </trkpt>
      <trkpt lat="56.067460002377629" lon="-4.476774986833334">
        <ele>19.359999999999999</ele>
        <time>2023-09-02T12:39:34Z</time>
      </trkpt>
      <trkpt lat="56.067460002377629" lon="-4.476613970473409">
        <ele>20.809999999999999</ele>
        <time>2023-09-02T12:39:35Z</time>
      </trkpt>
      <trkpt lat="56.067460002377629" lon="-4.476521015167236">
        <ele>22.73</ele>
        <time>2023-09-02T12:39:36Z</time>
      </trkpt>
      <trkpt lat="56.06743804179132" lon="-4.476300990208983">
        <ele>24.170000000000002</ele>
        <time>2023-09-02T12:39:37Z</time>
      </trkpt>
      <trkpt lat="56.067423038184643" lon="-4.476149026304483">
        <ele>25.609999999999999</ele>
        <time>2023-09-02T12:39:38Z</time>
      </trkpt>
      <trkpt lat="56.067407028749585" lon="-4.475993039086461">
        <ele>27.050000000000001</ele>
        <time>2023-09-02T12:39:39Z</time>
      </trkpt>
      <trkpt lat="56.067392025142908" lon="-4.475840991362929">
        <ele>28.02</ele>
        <time>2023-09-02T12:39:40Z</time>
      </trkpt>
      <trkpt lat="56.067283982411027" lon="-4.474765006452799">
        <ele>34.740000000000002</ele>
        <time>2023-09-02T12:39:48Z</time>
      </trkpt>
      <trkpt lat="56.06726897880435" lon="-4.474621005356312">
        <ele>35.710000000000001</ele>
        <time>2023-09-02T12:39:49Z</time>
      </trkpt>
      <trkpt lat="56.067103017121553" lon="-4.473011009395123">
        <ele>42.439999999999998</ele>
        <time>2023-09-02T12:40:00Z</time>
      </trkpt>
      <trkpt lat="56.066993968561292" lon="-4.47229502722621">
        <ele>46.280000000000001</ele>
        <time>2023-09-02T12:40:06Z</time>
      </trkpt>
      <trkpt lat="56.066974019631743" lon="-4.472196036949754">
        <ele>46.759999999999998</ele>
        <time>2023-09-02T12:40:07Z</time>
      </trkpt>
      <trkpt lat="56.066954992711544" lon="-4.472098974511027">
        <ele>47.240000000000002</ele>
        <time>2023-09-02T12:40:08Z</time>
      </trkpt>
      <trkpt lat="56.066935965791345" lon="-4.472003001719713">
        <ele>48.200000000000003</ele>
        <time>2023-09-02T12:40:09Z</time>
      </trkpt>
      <trkpt lat="56.066918028518558" lon="-4.471909962594509">
        <ele>48.200000000000003</ele>
        <time>2023-09-02T12:40:10Z</time>
      </trkpt>
      <trkpt lat="56.066900007426739" lon="-4.471816001459956">
        <ele>48.68</ele>
        <time>2023-09-02T12:40:11Z</time>
      </trkpt>
      <trkpt lat="56.06688198633492" lon="-4.471724973991513">
        <ele>49.159999999999997</ele>
        <time>2023-09-02T12:40:12Z</time>
      </trkpt>
      <trkpt lat="56.066840998828411" lon="-4.471515007317066">
        <ele>49.649999999999999</ele>
        <time>2023-09-02T12:40:14Z</time>
      </trkpt>
      <trkpt lat="56.066667996346951" lon="-4.471019972115755">
        <ele>51.090000000000003</ele>
        <time>2023-09-02T12:40:20Z</time>
      </trkpt>
      <trkpt lat="56.066642012447119" lon="-4.470947971567512">
        <ele>51.090000000000003</ele>
        <time>2023-09-02T12:40:21Z</time>
      </trkpt>
      <trkpt lat="56.066602030768991" lon="-4.470834983512759">
        <ele>51.57</ele>
        <time>2023-09-02T12:40:22Z</time>
      </trkpt>
      <trkpt lat="56.066566994413733" lon="-4.470800030976534">
        <ele>51.57</ele>
        <time>2023-09-02T12:40:23Z</time>
      </trkpt>
      <trkpt lat="56.06651502661407" lon="-4.470747979357839">
        <ele>51.57</ele>
        <time>2023-09-02T12:40:24Z</time>
      </trkpt>
      <trkpt lat="56.066440008580685" lon="-4.470682013779879">
        <ele>52.049999999999997</ele>
        <time>2023-09-02T12:40:25Z</time>
      </trkpt>
      <trkpt lat="56.066362978890538" lon="-4.470659969374538">
        <ele>52.049999999999997</ele>
        <time>2023-09-02T12:40:26Z</time>
      </trkpt>
      <trkpt lat="56.066284021362662" lon="-4.470639014616609">
        <ele>52.049999999999997</ele>
        <time>2023-09-02T12:40:27Z</time>
      </trkpt>
      <trkpt lat="56.066215960308909" lon="-4.470619987696409">
        <ele>52.049999999999997</ele>
        <time>2023-09-02T12:40:28Z</time>
      </trkpt>
      <trkpt lat="56.066100038588047" lon="-4.470619987696409">
        <ele>52.049999999999997</ele>
        <time>2023-09-02T12:40:29Z</time>
      </trkpt>
      <trkpt lat="56.065998030826449" lon="-4.470619987696409">
        <ele>52.049999999999997</ele>
        <time>2023-09-02T12:40:30Z</time>
      </trkpt>
      <trkpt lat="56.065895017236471" lon="-4.470619987696409">
        <ele>52.530000000000001</ele>
        <time>2023-09-02T12:40:31Z</time>
      </trkpt>
      <trkpt lat="56.065702987834811" lon="-4.470619987696409">
        <ele>52.530000000000001</ele>
        <time>2023-09-02T12:40:33Z</time>
      </trkpt>
      <trkpt lat="56.065479023382068" lon="-4.470670027658343">
        <ele>51.57</ele>
        <time>2023-09-02T12:40:36Z</time>
      </trkpt>
      <trkpt lat="56.065413979813457" lon="-4.470734987407923">
        <ele>51.090000000000003</ele>
        <time>2023-09-02T12:40:37Z</time>
      </trkpt>
      <trkpt lat="56.06535698287189" lon="-4.47079299017787">
        <ele>50.609999999999999</ele>
        <time>2023-09-02T12:40:38Z</time>
      </trkpt>
      <trkpt lat="56.065305015072227" lon="-4.470844035968185">
        <ele>50.130000000000003</ele>
        <time>2023-09-02T12:40:39Z</time>
      </trkpt>
      <trkpt lat="56.065257992595434" lon="-4.470890974625945">
        <ele>49.649999999999999</ele>
        <time>2023-09-02T12:40:40Z</time>
      </trkpt>
      <trkpt lat="56.06514198705554" lon="-4.470934979617596">
        <ele>48.68</ele>
        <time>2023-09-02T12:40:42Z</time>
      </trkpt>
      <trkpt lat="56.065099993720651" lon="-4.47094202041626">
        <ele>48.200000000000003</ele>
        <time>2023-09-02T12:40:43Z</time>
      </trkpt>
      <trkpt lat="56.065068980678916" lon="-4.470784021541476">
        <ele>48.200000000000003</ele>
        <time>2023-09-02T12:40:44Z</time>
      </trkpt>
      <trkpt lat="56.065050959587097" lon="-4.470692994073033">
        <ele>48.200000000000003</ele>
        <time>2023-09-02T12:40:45Z</time>
      </trkpt>
      <trkpt lat="56.065030004829168" lon="-4.470584029331803">
        <ele>47.719999999999999</ele>
        <time>2023-09-02T12:40:46Z</time>
      </trkpt>
      <trkpt lat="56.065007038414478" lon="-4.470468023791909">
        <ele>47.240000000000002</ele>
        <time>2023-09-02T12:40:47Z</time>
      </trkpt>
      <trkpt lat="56.064716018736362" lon="-4.468975961208344">
        <ele>41.950000000000003</ele>
        <time>2023-09-02T12:40:58Z</time>
      </trkpt>
      <trkpt lat="56.064541004598141" lon="-4.468078007921577">
        <ele>37.149999999999999</ele>
        <time>2023-09-02T12:41:05Z</time>
      </trkpt>
      <trkpt lat="56.06443103402853" lon="-4.467514995485544">
        <ele>32.340000000000003</ele>
        <time>2023-09-02T12:41:11Z</time>
      </trkpt>
      <trkpt lat="56.064391974359751" lon="-4.467316009104252">
        <ele>31.859999999999999</ele>
        <time>2023-09-02T12:41:12Z</time>
      </trkpt>
      <trkpt lat="56.064391974359751" lon="-4.467316009104252">
        <ele>30.899999999999999</ele>
        <time>2023-09-02T12:41:13Z</time>
      </trkpt>
      <trkpt lat="56.064383005723357" lon="-4.467276027426124">
        <ele>29.940000000000001</ele>
        <time>2023-09-02T12:41:14Z</time>
      </trkpt>
      <trkpt lat="56.064365990459919" lon="-4.467197991907597">
        <ele>28.98</ele>
        <time>2023-09-02T12:41:15Z</time>
      </trkpt>
      <trkpt lat="56.064306981861591" lon="-4.466934967786074">
        <ele>25.609999999999999</ele>
        <time>2023-09-02T12:41:18Z</time>
      </trkpt>
      <trkpt lat="56.064262976869941" lon="-4.466735981404781">
        <ele>24.170000000000002</ele>
        <time>2023-09-02T12:41:19Z</time>
      </trkpt>
      <trkpt lat="56.064262976869941" lon="-4.466735981404781">
        <ele>23.210000000000001</ele>
        <time>2023-09-02T12:41:20Z</time>
      </trkpt>
      <trkpt lat="56.064121993258595" lon="-4.466072972863913">
        <ele>16</ele>
        <time>2023-09-02T12:41:30Z</time>
      </trkpt>
      <trkpt lat="56.063995007425547" lon="-4.465768039226532">
        <ele>13.119999999999999</ele>
        <time>2023-09-02T12:41:35Z</time>
      </trkpt>
      <trkpt lat="56.063953014090657" lon="-4.465676005929709">
        <ele>12.630000000000001</ele>
        <time>2023-09-02T12:41:36Z</time>
      </trkpt>
      <trkpt lat="56.063903979957104" lon="-4.465567963197827">
        <ele>12.15</ele>
        <time>2023-09-02T12:41:37Z</time>
      </trkpt>
      <trkpt lat="56.063853017985821" lon="-4.465456986799836">
        <ele>11.67</ele>
        <time>2023-09-02T12:41:38Z</time>
      </trkpt>
      <trkpt lat="56.063790991902351" lon="-4.465320026502013">
        <ele>10.710000000000001</ele>
        <time>2023-09-02T12:41:39Z</time>
      </trkpt>
      <trkpt lat="56.063194032758474" lon="-4.46432501077652">
        <ele>6.87</ele>
        <time>2023-09-02T12:41:48Z</time>
      </trkpt>
      <trkpt lat="56.06303402222693" lon="-4.463995015248656">
        <ele>6.87</ele>
        <time>2023-09-02T12:41:50Z</time>
      </trkpt>
      <trkpt lat="56.06277602724731" lon="-4.463256988674402">
        <ele>8.789999999999999</ele>
        <time>2023-09-02T12:41:54Z</time>
      </trkpt>
      <trkpt lat="56.062366990372539" lon="-4.461118010804057">
        <ele>0.62</ele>
        <time>2023-09-02T12:42:04Z</time>
      </trkpt>
      <trkpt lat="56.062309993430972" lon="-4.460955988615751">
        <ele>-0.34</ele>
        <time>2023-09-02T12:42:05Z</time>
      </trkpt>
      <trkpt lat="56.062255008146167" lon="-4.460800001397729">
        <ele>-0.34</ele>
        <time>2023-09-02T12:42:06Z</time>
      </trkpt>
      <trkpt lat="56.062195999547839" lon="-4.460631022229791">
        <ele>-0.82</ele>
        <time>2023-09-02T12:42:07Z</time>
      </trkpt>
      <trkpt lat="56.062116958200932" lon="-4.460405968129635">
        <ele>-1.3</ele>
        <time>2023-09-02T12:42:08Z</time>
      </trkpt>
      <trkpt lat="56.062062978744507" lon="-4.460321981459856">
        <ele>-1.79</ele>
        <time>2023-09-02T12:42:09Z</time>
      </trkpt>
      <trkpt lat="56.061975974589586" lon="-4.460189966484904">
        <ele>-2.27</ele>
        <time>2023-09-02T12:42:10Z</time>
      </trkpt>
      <trkpt lat="56.061838008463383" lon="-4.459976982325316">
        <ele>-2.27</ele>
        <time>2023-09-02T12:42:11Z</time>
      </trkpt>
      <trkpt lat="56.061771959066391" lon="-4.459929037839174">
        <ele>-2.75</ele>
        <time>2023-09-02T12:42:12Z</time>
      </trkpt>
      <trkpt lat="56.061656037345529" lon="-4.459843039512634">
        <ele>-3.23</ele>
        <time>2023-09-02T12:42:13Z</time>
      </trkpt>
      <trkpt lat="56.06099596247077" lon="-4.459354961290956">
        <ele>-4.67</ele>
        <time>2023-09-02T12:42:18Z</time>
      </trkpt>
      <trkpt lat="56.060861013829708" lon="-4.4592559710145">
        <ele>-4.67</ele>
        <time>2023-09-02T12:42:19Z</time>
      </trkpt>
      <trkpt lat="56.060035983100533" lon="-4.458647025749087">
        <ele>-5.63</ele>
        <time>2023-09-02T12:42:25Z</time>
      </trkpt>
      <trkpt lat="56.059617977589369" lon="-4.458047971129417">
        <ele>-7.07</ele>
        <time>2023-09-02T12:42:29Z</time>
      </trkpt>
      <trkpt lat="56.059142975136638" lon="-4.457095032557845">
        <ele>-10.44</ele>
        <time>2023-09-02T12:42:34Z</time>
      </trkpt>
      <trkpt lat="56.059067035093904" lon="-4.456857992336154">
        <ele>-10.92</ele>
        <time>2023-09-02T12:42:35Z</time>
      </trkpt>
      <trkpt lat="56.058539981022477" lon="-4.455213965848088">
        <ele>-14.279999999999999</ele>
        <time>2023-09-02T12:42:44Z</time>
      </trkpt>
      <trkpt lat="56.058468986302614" lon="-4.454993018880487">
        <ele>-9.48</ele>
        <time>2023-09-02T12:42:52Z</time>
      </trkpt>
      <trkpt lat="56.058469992130995" lon="-4.454995030537248">
        <ele>-8.51</ele>
        <time>2023-09-02T12:43:00Z</time>
      </trkpt>
      <trkpt lat="56.058455994352698" lon="-4.454953037202358">
        <ele>-8.51</ele>
        <time>2023-09-02T12:43:01Z</time>
      </trkpt>
      <trkpt lat="56.058248961344361" lon="-4.454649025574327">
        <ele>-7.55</ele>
        <time>2023-09-02T12:43:02Z</time>
      </trkpt>
      <trkpt lat="56.058147037401795" lon="-4.454711973667145">
        <ele>-4.67</ele>
        <time>2023-09-02T12:43:03Z</time>
      </trkpt>
      <trkpt lat="56.058048969134688" lon="-4.454772993922234">
        <ele>-3.23</ele>
        <time>2023-09-02T12:43:04Z</time>
      </trkpt>
      <trkpt lat="56.057940004393458" lon="-4.454841976985335">
        <ele>-2.27</ele>
        <time>2023-09-02T12:43:05Z</time>
      </trkpt>
      <trkpt lat="56.057822993025184" lon="-4.45491498336196">
        <ele>-1.79</ele>
        <time>2023-09-02T12:43:06Z</time>
      </trkpt>
      <trkpt lat="56.057700030505657" lon="-4.454991007223725">
        <ele>-1.3</ele>
        <time>2023-09-02T12:43:07Z</time>
      </trkpt>
      <trkpt lat="56.057259980589151" lon="-4.455168033018708">
        <ele>1.1</ele>
        <time>2023-09-02T12:43:10Z</time>
      </trkpt>
      <trkpt lat="56.057139029726386" lon="-4.455213965848088">
        <ele>2.06</ele>
        <time>2023-09-02T12:43:11Z</time>
      </trkpt>
      <trkpt lat="56.056942977011204" lon="-4.455231986939907">
        <ele>2.54</ele>
        <time>2023-09-02T12:43:12Z</time>
      </trkpt>
      <trkpt lat="56.056643994525075" lon="-4.455241039395332">
        <ele>3.5</ele>
        <time>2023-09-02T12:43:14Z</time>
      </trkpt>
      <trkpt lat="56.056500999256968" lon="-4.455189993605018">
        <ele>3.98</ele>
        <time>2023-09-02T12:43:15Z</time>
      </trkpt>
      <trkpt lat="56.055824998766184" lon="-4.454770982265472">
        <ele>4.46</ele>
        <time>2023-09-02T12:43:21Z</time>
      </trkpt>
      <trkpt lat="56.055731037631631" lon="-4.454617006704211">
        <ele>4.94</ele>
        <time>2023-09-02T12:43:22Z</time>
      </trkpt>
      <trkpt lat="56.055654007941484" lon="-4.454454984515905">
        <ele>5.42</ele>
        <time>2023-09-02T12:43:23Z</time>
      </trkpt>
      <trkpt lat="56.054989993572235" lon="-4.45289796218276">
        <ele>10.23</ele>
        <time>2023-09-02T12:43:31Z</time>
      </trkpt>
      <trkpt lat="56.054869964718819" lon="-4.452799977734685">
        <ele>9.75</ele>
        <time>2023-09-02T12:43:32Z</time>
      </trkpt>
      <trkpt lat="56.054737027734518" lon="-4.452692018821836">
        <ele>9.27</ele>
        <time>2023-09-02T12:43:33Z</time>
      </trkpt>
      <trkpt lat="56.054594032466412" lon="-4.452605014666915">
        <ele>9.27</ele>
        <time>2023-09-02T12:43:34Z</time>
      </trkpt>
      <trkpt lat="56.054439973086119" lon="-4.452537959441543">
        <ele>9.75</ele>
        <time>2023-09-02T12:43:35Z</time>
      </trkpt>
      <trkpt lat="56.053553000092506" lon="-4.452190026640892">
        <ele>13.6</ele>
        <time>2023-09-02T12:43:42Z</time>
      </trkpt>
      <trkpt lat="56.053282013162971" lon="-4.452093970030546">
        <ele>15.52</ele>
        <time>2023-09-02T12:43:48Z</time>
      </trkpt>
      <trkpt lat="56.052783960476518" lon="-4.451896995306015">
        <ele>17.920000000000002</ele>
        <time>2023-09-02T12:43:54Z</time>
      </trkpt>
      <trkpt lat="56.052242992445827" lon="-4.451741008087993">
        <ele>19.84</ele>
        <time>2023-09-02T12:43:58Z</time>
      </trkpt>
      <trkpt lat="56.052090022712946" lon="-4.451698008924723">
        <ele>20.32</ele>
        <time>2023-09-02T12:43:59Z</time>
      </trkpt>
      <trkpt lat="56.051492979750037" lon="-4.451529029756784">
        <ele>22.25</ele>
        <time>2023-09-02T12:44:03Z</time>
      </trkpt>
      <trkpt lat="56.049979962408543" lon="-4.450864009559155">
        <ele>28.98</ele>
        <time>2023-09-02T12:44:13Z</time>
      </trkpt>
      <trkpt lat="56.048650005832314" lon="-4.449781989678741">
        <ele>32.340000000000003</ele>
        <time>2023-09-02T12:44:22Z</time>
      </trkpt>
      <trkpt lat="56.048520002514124" lon="-4.449607981368899">
        <ele>32.82</ele>
        <time>2023-09-02T12:44:23Z</time>
      </trkpt>
      <trkpt lat="56.048393016681075" lon="-4.449418969452381">
        <ele>33.299999999999997</ele>
        <time>2023-09-02T12:44:24Z</time>
      </trkpt>
      <trkpt lat="56.047618025913835" lon="-4.447923973202705">
        <ele>37.149999999999999</ele>
        <time>2023-09-02T12:44:32Z</time>
      </trkpt>
      <trkpt lat="56.046890979632735" lon="-4.446563003584743">
        <ele>36.670000000000002</ele>
        <time>2023-09-02T12:44:41Z</time>
      </trkpt>
      <trkpt lat="56.046799030154943" lon="-4.446436017751694">
        <ele>36.670000000000002</ele>
        <time>2023-09-02T12:44:42Z</time>
      </trkpt>
      <trkpt lat="56.046378007158637" lon="-4.446115996688604">
        <ele>37.149999999999999</ele>
        <time>2023-09-02T12:44:46Z</time>
      </trkpt>
      <trkpt lat="56.045373016968369" lon="-4.445717018097639">
        <ele>39.07</ele>
        <time>2023-09-02T12:44:55Z</time>
      </trkpt>
      <trkpt lat="56.045263968408108" lon="-4.445726992562413">
        <ele>39.07</ele>
        <time>2023-09-02T12:44:56Z</time>
      </trkpt>
      <trkpt lat="56.044289991259575" lon="-4.446090012788773">
        <ele>38.590000000000003</ele>
        <time>2023-09-02T12:45:05Z</time>
      </trkpt>
      <trkpt lat="56.042985012754798" lon="-4.446527967229486">
        <ele>42.920000000000002</ele>
        <time>2023-09-02T12:45:17Z</time>
      </trkpt>
      <trkpt lat="56.042418982833624" lon="-4.446652019396424">
        <ele>41.950000000000003</ele>
        <time>2023-09-02T12:45:22Z</time>
      </trkpt>
      <trkpt lat="56.04232401587069" lon="-4.446570966392756">
        <ele>41.950000000000003</ele>
        <time>2023-09-02T12:45:23Z</time>
      </trkpt>
      <trkpt lat="56.042254026979208" lon="-4.446494020521641">
        <ele>41.950000000000003</ele>
        <time>2023-09-02T12:45:24Z</time>
      </trkpt>
      <trkpt lat="56.042183032259345" lon="-4.446351025253534">
        <ele>41.469999999999999</ele>
        <time>2023-09-02T12:45:25Z</time>
      </trkpt>
      <trkpt lat="56.042104996740818" lon="-4.446195038035512">
        <ele>41.469999999999999</ele>
        <time>2023-09-02T12:45:26Z</time>
      </trkpt>
      <trkpt lat="56.042024027556181" lon="-4.446034021675587">
        <ele>41.469999999999999</ele>
        <time>2023-09-02T12:45:27Z</time>
      </trkpt>
      <trkpt lat="56.041984967887402" lon="-4.445856995880604">
        <ele>41.469999999999999</ele>
        <time>2023-09-02T12:45:28Z</time>
      </trkpt>
      <trkpt lat="56.041948003694415" lon="-4.445647029206157">
        <ele>41.469999999999999</ele>
        <time>2023-09-02T12:45:29Z</time>
      </trkpt>
      <trkpt lat="56.041911039501429" lon="-4.445433039218187">
        <ele>41.469999999999999</ele>
        <time>2023-09-02T12:45:30Z</time>
      </trkpt>
      <trkpt lat="56.041699983179569" lon="-4.443363966420293">
        <ele>41.950000000000003</ele>
        <time>2023-09-02T12:45:39Z</time>
      </trkpt>
      <trkpt lat="56.041539972648025" lon="-4.441625978797674">
        <ele>45.32</ele>
        <time>2023-09-02T12:45:47Z</time>
      </trkpt>
      <trkpt lat="56.041310979053378" lon="-4.440700029954314">
        <ele>46.280000000000001</ele>
        <time>2023-09-02T12:45:51Z</time>
      </trkpt>
      <trkpt lat="56.04122900404036" lon="-4.440482016652823">
        <ele>46.759999999999998</ele>
        <time>2023-09-02T12:45:52Z</time>
      </trkpt>
      <trkpt lat="56.041152980178595" lon="-4.440279006958008">
        <ele>46.759999999999998</ele>
        <time>2023-09-02T12:45:53Z</time>
      </trkpt>
      <trkpt lat="56.041062036529183" lon="-4.440106004476547">
        <ele>47.240000000000002</ele>
        <time>2023-09-02T12:45:54Z</time>
      </trkpt>
      <trkpt lat="56.040964974090457" lon="-4.439923027530313">
        <ele>47.240000000000002</ele>
        <time>2023-09-02T12:45:55Z</time>
      </trkpt>
      <trkpt lat="56.040551997721195" lon="-4.439142001792789">
        <ele>47.719999999999999</ele>
        <time>2023-09-02T12:45:59Z</time>
      </trkpt>
      <trkpt lat="56.040283022448421" lon="-4.438891969621182">
        <ele>48.200000000000003</ele>
        <time>2023-09-02T12:46:02Z</time>
      </trkpt>
      <trkpt lat="56.039757980033755" lon="-4.438407998532057">
        <ele>47.719999999999999</ele>
        <time>2023-09-02T12:46:07Z</time>
      </trkpt>
      <trkpt lat="56.039653038606048" lon="-4.438288975507021">
        <ele>47.719999999999999</ele>
        <time>2023-09-02T12:46:08Z</time>
      </trkpt>
      <trkpt lat="56.039554970338941" lon="-4.438147991895676">
        <ele>47.719999999999999</ele>
        <time>2023-09-02T12:46:09Z</time>
      </trkpt>
      <trkpt lat="56.039472995325923" lon="-4.437997033819556">
        <ele>47.719999999999999</ele>
        <time>2023-09-02T12:46:10Z</time>
      </trkpt>
      <trkpt lat="56.039399988949299" lon="-4.437809027731419">
        <ele>47.719999999999999</ele>
        <time>2023-09-02T12:46:11Z</time>
      </trkpt>
      <trkpt lat="56.039330000057817" lon="-4.437607023864985">
        <ele>48.200000000000003</ele>
        <time>2023-09-02T12:46:12Z</time>
      </trkpt>
      <trkpt lat="56.039268979802728" lon="-4.437378030270338">
        <ele>48.200000000000003</ele>
        <time>2023-09-02T12:46:13Z</time>
      </trkpt>
      <trkpt lat="56.039205025881529" lon="-4.437139984220266">
        <ele>48.200000000000003</ele>
        <time>2023-09-02T12:46:14Z</time>
      </trkpt>
      <trkpt lat="56.038764975965023" lon="-4.435208039358258">
        <ele>49.159999999999997</ele>
        <time>2023-09-02T12:46:21Z</time>
      </trkpt>
      <trkpt lat="56.038124011829495" lon="-4.432202959433198">
        <ele>53.009999999999998</ele>
        <time>2023-09-02T12:46:31Z</time>
      </trkpt>
      <trkpt lat="56.037525041028857" lon="-4.42893804050982">
        <ele>55.890000000000001</ele>
        <time>2023-09-02T12:46:42Z</time>
      </trkpt>
      <trkpt lat="56.036894973367453" lon="-4.425636995583773">
        <ele>63.579999999999998</ele>
        <time>2023-09-02T12:46:53Z</time>
      </trkpt>
      <trkpt lat="56.036837976425886" lon="-4.425361985340715">
        <ele>64.069999999999993</ele>
        <time>2023-09-02T12:46:54Z</time>
      </trkpt>
      <trkpt lat="56.036743009462953" lon="-4.425140032544732">
        <ele>64.549999999999997</ele>
        <time>2023-09-02T12:46:55Z</time>
      </trkpt>
      <trkpt lat="56.036647036671638" lon="-4.424913972616196">
        <ele>65.030000000000001</ele>
        <time>2023-09-02T12:46:56Z</time>
      </trkpt>
      <trkpt lat="56.036551985889673" lon="-4.424695037305355">
        <ele>65.510000000000005</ele>
        <time>2023-09-02T12:46:57Z</time>
      </trkpt>
      <trkpt lat="56.036163987591863" lon="-4.423812003806233">
        <ele>67.909999999999997</ele>
        <time>2023-09-02T12:47:03Z</time>
      </trkpt>
      <trkpt lat="56.03568403981626" lon="-4.422774994745851">
        <ele>70.790000000000006</ele>
        <time>2023-09-02T12:47:13Z</time>
      </trkpt>
      <trkpt lat="56.034970991313457" lon="-4.421243034303188">
        <ele>72.719999999999999</ele>
        <time>2023-09-02T12:47:21Z</time>
      </trkpt>
      <trkpt lat="56.034272024407983" lon="-4.419923974201083">
        <ele>71.269999999999996</ele>
        <time>2023-09-02T12:47:30Z</time>
      </trkpt>
      <trkpt lat="56.034231036901474" lon="-4.419841999188066">
        <ele>71.269999999999996</ele>
        <time>2023-09-02T12:47:31Z</time>
      </trkpt>
      <trkpt lat="56.034184014424682" lon="-4.419691041111946">
        <ele>70.790000000000006</ele>
        <time>2023-09-02T12:47:32Z</time>
      </trkpt>
      <trkpt lat="56.034203041344881" lon="-4.41957201808691">
        <ele>70.310000000000002</ele>
        <time>2023-09-02T12:47:33Z</time>
      </trkpt>
      <trkpt lat="56.034216033294797" lon="-4.419484008103609">
        <ele>69.829999999999998</ele>
        <time>2023-09-02T12:47:34Z</time>
      </trkpt>
      <trkpt lat="56.034221984446049" lon="-4.419445032253861">
        <ele>69.349999999999994</ele>
        <time>2023-09-02T12:47:35Z</time>
      </trkpt>
      <trkpt lat="56.034227013587952" lon="-4.419414019212127">
        <ele>68.870000000000005</ele>
        <time>2023-09-02T12:47:36Z</time>
      </trkpt>
      <trkpt lat="56.034232964739203" lon="-4.419376971200109">
        <ele>68.390000000000001</ele>
        <time>2023-09-02T12:47:37Z</time>
      </trkpt>
      <trkpt lat="56.034232964739203" lon="-4.419376971200109">
        <ele>67.430000000000007</ele>
        <time>2023-09-02T12:47:50Z</time>
      </trkpt>
      <trkpt lat="56.034232964739203" lon="-4.419376971200109">
        <ele>67.430000000000007</ele>
        <time>2023-09-02T12:48:22Z</time>
      </trkpt>
      <trkpt lat="56.034232964739203" lon="-4.419376971200109">
        <ele>67.430000000000007</ele>
        <time>2023-09-02T12:48:24Z</time>
      </trkpt>
      <trkpt lat="56.034246040508151" lon="-4.419289967045188">
        <ele>67.430000000000007</ele>
        <time>2023-09-02T12:48:25Z</time>
      </trkpt>
      <trkpt lat="56.034190971404314" lon="-4.41931301727891">
        <ele>65.989999999999995</ele>
        <time>2023-09-02T12:48:35Z</time>
      </trkpt>
      <trkpt lat="56.034173034131527" lon="-4.419302958995104">
        <ele>65.989999999999995</ele>
        <time>2023-09-02T12:54:11Z</time>
      </trkpt>
      <trkpt lat="56.034207986667752" lon="-4.419363979250193">
        <ele>67.909999999999997</ele>
        <time>2023-09-02T12:54:27Z</time>
      </trkpt>
      <trkpt lat="56.034226007759571" lon="-4.41942198202014">
        <ele>67.909999999999997</ele>
        <time>2023-09-02T12:54:30Z</time>
      </trkpt>
      <trkpt lat="56.034219972789288" lon="-4.419461963698268">
        <ele>67.909999999999997</ele>
        <time>2023-09-02T12:54:31Z</time>
      </trkpt>
      <trkpt lat="56.034211004152894" lon="-4.419516026973724">
        <ele>67.909999999999997</ele>
        <time>2023-09-02T12:54:32Z</time>
      </trkpt>
      <trkpt lat="56.034123999997973" lon="-4.419638989493251">
        <ele>67.909999999999997</ele>
        <time>2023-09-02T12:54:33Z</time>
      </trkpt>
      <trkpt lat="56.034104973077774" lon="-4.419610993936658">
        <ele>68.390000000000001</ele>
        <time>2023-09-02T12:54:34Z</time>
      </trkpt>
      <trkpt lat="56.034050993621349" lon="-4.41952901892364">
        <ele>68.870000000000005</ele>
        <time>2023-09-02T12:54:35Z</time>
      </trkpt>
      <trkpt lat="56.034041019156575" lon="-4.419520972296596">
        <ele>68.870000000000005</ele>
        <time>2023-09-02T12:54:36Z</time>
      </trkpt>
      <trkpt lat="56.03398603387177" lon="-4.419467998668551">
        <ele>69.349999999999994</ele>
        <time>2023-09-02T12:54:37Z</time>
      </trkpt>
      <trkpt lat="56.033254964277148" lon="-4.418809013441205">
        <ele>66.950000000000003</ele>
        <time>2023-09-02T12:54:45Z</time>
      </trkpt>
      <trkpt lat="56.032854979857802" lon="-4.418538026511669">
        <ele>64.549999999999997</ele>
        <time>2023-09-02T12:54:49Z</time>
      </trkpt>
      <trkpt lat="56.032105972990394" lon="-4.41834700293839">
        <ele>60.219999999999999</ele>
        <time>2023-09-02T12:54:57Z</time>
      </trkpt>
      <trkpt lat="56.032020980492234" lon="-4.418324958533049">
        <ele>59.740000000000002</ele>
        <time>2023-09-02T12:54:58Z</time>
      </trkpt>
      <trkpt lat="56.03194797411561" lon="-4.418306015431881">
        <ele>59.259999999999998</ele>
        <time>2023-09-02T12:54:59Z</time>
      </trkpt>
      <trkpt lat="56.031893994659185" lon="-4.418230997398496">
        <ele>58.780000000000001</ele>
        <time>2023-09-02T12:55:00Z</time>
      </trkpt>
      <trkpt lat="56.031306004151702" lon="-4.417407978326082">
        <ele>56.859999999999999</ele>
        <time>2023-09-02T12:55:08Z</time>
      </trkpt>
      <trkpt lat="56.0312370210886" lon="-4.417310999706388">
        <ele>56.859999999999999</ele>
        <time>2023-09-02T12:55:09Z</time>
      </trkpt>
      <trkpt lat="56.031174995005131" lon="-4.417206980288029">
        <ele>57.82</ele>
        <time>2023-09-02T12:55:10Z</time>
      </trkpt>
      <trkpt lat="56.031069969758391" lon="-4.416974969208241">
        <ele>58.780000000000001</ele>
        <time>2023-09-02T12:55:12Z</time>
      </trkpt>
      <trkpt lat="56.030898978933692" lon="-4.416596023365855">
        <ele>60.219999999999999</ele>
        <time>2023-09-02T12:55:15Z</time>
      </trkpt>
      <trkpt lat="56.030825972557068" lon="-4.416488986462355">
        <ele>60.700000000000003</ele>
        <time>2023-09-02T12:55:16Z</time>
      </trkpt>
      <trkpt lat="56.030751038342714" lon="-4.416382033377886">
        <ele>60.700000000000003</ele>
        <time>2023-09-02T12:55:17Z</time>
      </trkpt>
      <trkpt lat="56.030639978125691" lon="-4.416356971487403">
        <ele>61.18</ele>
        <time>2023-09-02T12:55:18Z</time>
      </trkpt>
      <trkpt lat="56.030542999505997" lon="-4.416340040042996">
        <ele>61.659999999999997</ele>
        <time>2023-09-02T12:55:19Z</time>
      </trkpt>
      <trkpt lat="56.030445015057921" lon="-4.416322018951178">
        <ele>62.140000000000001</ele>
        <time>2023-09-02T12:55:20Z</time>
      </trkpt>
      <trkpt lat="56.030351975932717" lon="-4.41630600951612">
        <ele>62.619999999999997</ele>
        <time>2023-09-02T12:55:21Z</time>
      </trkpt>
      <trkpt lat="56.030262038111687" lon="-4.416290000081062">
        <ele>63.100000000000001</ele>
        <time>2023-09-02T12:55:22Z</time>
      </trkpt>
      <trkpt lat="56.029762979596853" lon="-4.416202995926142">
        <ele>65.030000000000001</ele>
        <time>2023-09-02T12:55:27Z</time>
      </trkpt>
      <trkpt lat="56.02904699742794" lon="-4.416089002043009">
        <ele>67.909999999999997</ele>
        <time>2023-09-02T12:55:33Z</time>
      </trkpt>
      <trkpt lat="56.028758995234966" lon="-4.416056983172894">
        <ele>70.310000000000002</ele>
        <time>2023-09-02T12:55:36Z</time>
      </trkpt>
      <trkpt lat="56.028672996908426" lon="-4.416043991222978">
        <ele>70.790000000000006</ele>
        <time>2023-09-02T12:55:37Z</time>
      </trkpt>
      <trkpt lat="56.02773598395288" lon="-4.415892027318478">
        <ele>75.120000000000005</ele>
        <time>2023-09-02T12:55:46Z</time>
      </trkpt>
      <trkpt lat="56.026134034618735" lon="-4.415601007640362">
        <ele>88.099999999999994</ele>
        <time>2023-09-02T12:55:58Z</time>
      </trkpt>
      <trkpt lat="56.02506903000176" lon="-4.415390035137534">
        <ele>97.230000000000004</ele>
        <time>2023-09-02T12:56:06Z</time>
      </trkpt>
      <trkpt lat="56.024845987558365" lon="-4.415289033204317">
        <ele>99.629999999999995</ele>
        <time>2023-09-02T12:56:08Z</time>
      </trkpt>
      <trkpt lat="56.023914003744721" lon="-4.414606997743249">
        <ele>106.36</ele>
        <time>2023-09-02T12:56:16Z</time>
      </trkpt>
      <trkpt lat="56.023789029568434" lon="-4.414515970274806">
        <ele>106.84</ele>
        <time>2023-09-02T12:56:17Z</time>
      </trkpt>
      <trkpt lat="56.023659026250243" lon="-4.414419997483492">
        <ele>107.81</ele>
        <time>2023-09-02T12:56:18Z</time>
      </trkpt>
      <trkpt lat="56.023532040417194" lon="-4.414326958358288">
        <ele>108.77</ele>
        <time>2023-09-02T12:56:19Z</time>
      </trkpt>
      <trkpt lat="56.023411005735397" lon="-4.414239032194018">
        <ele>110.20999999999999</ele>
        <time>2023-09-02T12:56:20Z</time>
      </trkpt>
      <trkpt lat="56.022649006918073" lon="-4.413527995347977">
        <ele>113.56999999999999</ele>
        <time>2023-09-02T12:56:27Z</time>
      </trkpt>
      <trkpt lat="56.021780977025628" lon="-4.412645967677236">
        <ele>113.09</ele>
        <time>2023-09-02T12:56:37Z</time>
      </trkpt>
      <trkpt lat="56.0217219684273" lon="-4.412584025412798">
        <ele>112.13</ele>
        <time>2023-09-02T12:56:40Z</time>
      </trkpt>
      <trkpt lat="56.021710988134146" lon="-4.412572961300612">
        <ele>111.17</ele>
        <time>2023-09-02T12:56:52Z</time>
      </trkpt>
      <trkpt lat="56.021710988134146" lon="-4.412572961300612">
        <ele>109.73</ele>
        <time>2023-09-02T12:57:35Z</time>
      </trkpt>
      <trkpt lat="56.021710988134146" lon="-4.412572961300612">
        <ele>108.77</ele>
        <time>2023-09-02T12:58:25Z</time>
      </trkpt>
      <trkpt lat="56.021710988134146" lon="-4.412572961300612">
        <ele>107.81</ele>
        <time>2023-09-02T12:59:11Z</time>
      </trkpt>
      <trkpt lat="56.021710988134146" lon="-4.412572961300612">
        <ele>107.81</ele>
        <time>2023-09-02T12:59:37Z</time>
      </trkpt>
      <trkpt lat="56.02174200117588" lon="-4.412605985999107">
        <ele>106.36</ele>
        <time>2023-09-02T12:59:39Z</time>
      </trkpt>
      <trkpt lat="56.021771002560854" lon="-4.412636999040842">
        <ele>104.92</ele>
        <time>2023-09-02T12:59:40Z</time>
      </trkpt>
      <trkpt lat="56.021980969235301" lon="-4.41284897737205">
        <ele>102.52</ele>
        <time>2023-09-02T12:59:43Z</time>
      </trkpt>
      <trkpt lat="56.022669039666653" lon="-4.413547022268176">
        <ele>99.629999999999995</ele>
        <time>2023-09-02T12:59:50Z</time>
      </trkpt>
      <trkpt lat="56.023618038743734" lon="-4.414389990270138">
        <ele>101.08</ele>
        <time>2023-09-02T12:59:58Z</time>
      </trkpt>
      <trkpt lat="56.024760995060205" lon="-4.415227007120848">
        <ele>100.11</ele>
        <time>2023-09-02T13:00:06Z</time>
      </trkpt>
      <trkpt lat="56.02505000308156" lon="-4.415386011824012">
        <ele>98.670000000000002</ele>
        <time>2023-09-02T13:00:08Z</time>
      </trkpt>
      <trkpt lat="56.025210013613105" lon="-4.415418030694127">
        <ele>97.709999999999994</ele>
        <time>2023-09-02T13:00:09Z</time>
      </trkpt>
      <trkpt lat="56.026667961850762" lon="-4.415706032887101">
        <ele>90.5</ele>
        <time>2023-09-02T13:00:18Z</time>
      </trkpt>
      <trkpt lat="56.026827972382307" lon="-4.415737967938185">
        <ele>90.019999999999996</ele>
        <time>2023-09-02T13:00:19Z</time>
      </trkpt>
      <trkpt lat="56.028396980836987" lon="-4.415998980402947">
        <ele>80.890000000000001</ele>
        <time>2023-09-02T13:00:30Z</time>
      </trkpt>
      <trkpt lat="56.029589977115393" lon="-4.416171982884407">
        <ele>77.040000000000006</ele>
        <time>2023-09-02T13:00:39Z</time>
      </trkpt>
      <trkpt lat="56.029845960438251" lon="-4.416216993704438">
        <ele>75.120000000000005</ele>
        <time>2023-09-02T13:00:41Z</time>
      </trkpt>
      <trkpt lat="56.029968000948429" lon="-4.416239038109779">
        <ele>74.159999999999997</ele>
        <time>2023-09-02T13:00:42Z</time>
      </trkpt>
      <trkpt lat="56.030706027522683" lon="-4.416368035599589">
        <ele>67.909999999999997</ele>
        <time>2023-09-02T13:00:49Z</time>
      </trkpt>
      <trkpt lat="56.030789008364081" lon="-4.416436012834311">
        <ele>67.430000000000007</ele>
        <time>2023-09-02T13:00:50Z</time>
      </trkpt>
      <trkpt lat="56.030861008912325" lon="-4.416539026424289">
        <ele>66.469999999999999</ele>
        <time>2023-09-02T13:00:51Z</time>
      </trkpt>
      <trkpt lat="56.030912976711988" lon="-4.41662703640759">
        <ele>65.510000000000005</ele>
        <time>2023-09-02T13:00:52Z</time>
      </trkpt>
      <trkpt lat="56.03095798753202" lon="-4.416727032512426">
        <ele>65.030000000000001</ele>
        <time>2023-09-02T13:00:53Z</time>
      </trkpt>
      <trkpt lat="56.031002998352051" lon="-4.416826022788882">
        <ele>64.069999999999993</ele>
        <time>2023-09-02T13:00:54Z</time>
      </trkpt>
      <trkpt lat="56.031275996938348" lon="-4.417365984991193">
        <ele>57.82</ele>
        <time>2023-09-02T13:01:02Z</time>
      </trkpt>
      <trkpt lat="56.031275996938348" lon="-4.417365984991193">
        <ele>56.369999999999997</ele>
        <time>2023-09-02T13:01:15Z</time>
      </trkpt>
      <trkpt lat="56.031294018030167" lon="-4.417612999677658">
        <ele>54.450000000000003</ele>
        <time>2023-09-02T13:19:29Z</time>
      </trkpt>
      <trkpt lat="56.0313889849931" lon="-4.417443014681339">
        <ele>60.700000000000003</ele>
        <time>2023-09-02T13:19:43Z</time>
      </trkpt>
      <trkpt lat="56.031313966959715" lon="-4.417446032166481">
        <ele>61.659999999999997</ele>
        <time>2023-09-02T13:20:20Z</time>
      </trkpt>
      <trkpt lat="56.03132301941514" lon="-4.417490037158132">
        <ele>58.780000000000001</ele>
        <time>2023-09-02T13:20:50Z</time>
      </trkpt>
      <trkpt lat="56.031324025243521" lon="-4.417491964995861">
        <ele>55.890000000000001</ele>
        <time>2023-09-02T13:21:35Z</time>
      </trkpt>
      <trkpt lat="56.031325031071901" lon="-4.41748802550137">
        <ele>55.890000000000001</ele>
        <time>2023-09-02T13:21:56Z</time>
      </trkpt>
      <trkpt lat="56.031359983608127" lon="-4.417484002187848">
        <ele>55.890000000000001</ele>
        <time>2023-09-02T13:21:58Z</time>
      </trkpt>
      <trkpt lat="56.031785029917955" lon="-4.418078027665615">
        <ele>53.009999999999998</ele>
        <time>2023-09-02T13:22:05Z</time>
      </trkpt>
      <trkpt lat="56.032016035169363" lon="-4.4183240365237">
        <ele>51.57</ele>
        <time>2023-09-02T13:22:08Z</time>
      </trkpt>
      <trkpt lat="56.032107984647155" lon="-4.41834700293839">
        <ele>51.57</ele>
        <time>2023-09-02T13:22:09Z</time>
      </trkpt>
      <trkpt lat="56.032207980751991" lon="-4.418372986838222">
        <ele>51.57</ele>
        <time>2023-09-02T13:22:10Z</time>
      </trkpt>
      <trkpt lat="56.032782979309559" lon="-4.41852000541985">
        <ele>52.530000000000001</ele>
        <time>2023-09-02T13:22:15Z</time>
      </trkpt>
      <trkpt lat="56.032911976799369" lon="-4.418552024289966">
        <ele>52.530000000000001</ele>
        <time>2023-09-02T13:22:16Z</time>
      </trkpt>
      <trkpt lat="56.033038962632418" lon="-4.418631987646222">
        <ele>52.530000000000001</ele>
        <time>2023-09-02T13:22:17Z</time>
      </trkpt>
      <trkpt lat="56.033931970596313" lon="-4.419416030868888">
        <ele>58.299999999999997</ele>
        <time>2023-09-02T13:22:26Z</time>
      </trkpt>
      <trkpt lat="56.034130034968257" lon="-4.419648963958025">
        <ele>61.659999999999997</ele>
        <time>2023-09-02T13:22:30Z</time>
      </trkpt>
      <trkpt lat="56.034159958362579" lon="-4.419692968949676">
        <ele>62.619999999999997</ele>
        <time>2023-09-02T13:22:31Z</time>
      </trkpt>
      <trkpt lat="56.034193988889456" lon="-4.419627003371716">
        <ele>63.579999999999998</ele>
        <time>2023-09-02T13:22:32Z</time>
      </trkpt>
      <trkpt lat="56.034204969182611" lon="-4.419556008651853">
        <ele>64.069999999999993</ele>
        <time>2023-09-02T13:22:33Z</time>
      </trkpt>
      <trkpt lat="56.034218966960907" lon="-4.419463975355029">
        <ele>64.549999999999997</ele>
        <time>2023-09-02T13:22:34Z</time>
      </trkpt>
      <trkpt lat="56.034235982224345" lon="-4.41935601644218">
        <ele>64.549999999999997</ele>
        <time>2023-09-02T13:22:35Z</time>
      </trkpt>
      <trkpt lat="56.034254003316164" lon="-4.419236993417144">
        <ele>64.549999999999997</ele>
        <time>2023-09-02T13:22:36Z</time>
      </trkpt>
      <trkpt lat="56.034415019676089" lon="-4.418467031791806">
        <ele>61.659999999999997</ele>
        <time>2023-09-02T13:22:41Z</time>
      </trkpt>
      <trkpt lat="56.035121027380228" lon="-4.416449004784226">
        <ele>59.259999999999998</ele>
        <time>2023-09-02T13:22:52Z</time>
      </trkpt>
      <trkpt lat="56.036060974001884" lon="-4.414030993357301">
        <ele>51.57</ele>
        <time>2023-09-02T13:23:05Z</time>
      </trkpt>
      <trkpt lat="56.036262977868319" lon="-4.413464041426778">
        <ele>50.130000000000003</ele>
        <time>2023-09-02T13:23:08Z</time>
      </trkpt>
      <trkpt lat="56.036316035315394" lon="-4.413267988711596">
        <ele>49.649999999999999</ele>
        <time>2023-09-02T13:23:09Z</time>
      </trkpt>
      <trkpt lat="56.036352999508381" lon="-4.413074031472206">
        <ele>49.649999999999999</ele>
        <time>2023-09-02T13:23:10Z</time>
      </trkpt>
      <trkpt lat="56.036370014771819" lon="-4.412865992635489">
        <ele>49.649999999999999</ele>
        <time>2023-09-02T13:23:11Z</time>
      </trkpt>
      <trkpt lat="56.036387030035257" lon="-4.4126530084759">
        <ele>49.159999999999997</ele>
        <time>2023-09-02T13:23:12Z</time>
      </trkpt>
      <trkpt lat="56.036404967308044" lon="-4.41243801265955">
        <ele>49.159999999999997</ele>
        <time>2023-09-02T13:23:13Z</time>
      </trkpt>
      <trkpt lat="56.036406978964806" lon="-4.412217987701297">
        <ele>48.68</ele>
        <time>2023-09-02T13:23:14Z</time>
      </trkpt>
      <trkpt lat="56.036401027813554" lon="-4.411978013813496">
        <ele>48.68</ele>
        <time>2023-09-02T13:23:15Z</time>
      </trkpt>
      <trkpt lat="56.036349982023239" lon="-4.410092001780868">
        <ele>44.840000000000003</ele>
        <time>2023-09-02T13:23:22Z</time>
      </trkpt>
      <trkpt lat="56.03628896176815" lon="-4.407967021688819">
        <ele>41.469999999999999</ele>
        <time>2023-09-02T13:23:30Z</time>
      </trkpt>
      <trkpt lat="56.036183014512062" lon="-4.405989982187748">
        <ele>35.710000000000001</ele>
        <time>2023-09-02T13:23:38Z</time>
      </trkpt>
      <trkpt lat="56.036172034218907" lon="-4.403762994334102">
        <ele>30.420000000000002</ele>
        <time>2023-09-02T13:23:47Z</time>
      </trkpt>
      <trkpt lat="56.036229031160474" lon="-4.403520002961159">
        <ele>29.460000000000001</ele>
        <time>2023-09-02T13:23:48Z</time>
      </trkpt>
      <trkpt lat="56.036288039758801" lon="-4.403282962739468">
        <ele>28.5</ele>
        <time>2023-09-02T13:23:49Z</time>
      </trkpt>
      <trkpt lat="56.036529019474983" lon="-4.402322983369231">
        <ele>24.170000000000002</ele>
        <time>2023-09-02T13:23:55Z</time>
      </trkpt>
      <trkpt lat="56.03669598698616" lon="-4.401671960949898">
        <ele>17.920000000000002</ele>
        <time>2023-09-02T13:24:04Z</time>
      </trkpt>
      <trkpt lat="56.036725994199514" lon="-4.401557967066765">
        <ele>16.48</ele>
        <time>2023-09-02T13:24:15Z</time>
      </trkpt>
      <trkpt lat="56.036857003346086" lon="-4.401059998199344">
        <ele>16.48</ele>
        <time>2023-09-02T13:24:34Z</time>
      </trkpt>
      <trkpt lat="56.037058001384139" lon="-4.400292970240116">
        <ele>16</ele>
        <time>2023-09-02T13:24:39Z</time>
      </trkpt>
      <trkpt lat="56.037092031911016" lon="-4.400165984407067">
        <ele>15.52</ele>
        <time>2023-09-02T13:24:40Z</time>
      </trkpt>
      <trkpt lat="56.037304010242224" lon="-4.39924799837172">
        <ele>16.48</ele>
        <time>2023-09-02T13:24:47Z</time>
      </trkpt>
      <trkpt lat="56.037311973050237" lon="-4.39909603446722">
        <ele>16.960000000000001</ele>
        <time>2023-09-02T13:24:48Z</time>
      </trkpt>
      <trkpt lat="56.037311973050237" lon="-4.398952033370733">
        <ele>16.960000000000001</ele>
        <time>2023-09-02T13:24:49Z</time>
      </trkpt>
      <trkpt lat="56.037278026342392" lon="-4.398790011182427">
        <ele>17.440000000000001</ele>
        <time>2023-09-02T13:24:50Z</time>
      </trkpt>
      <trkpt lat="56.037243995815516" lon="-4.398634023964405">
        <ele>17.440000000000001</ele>
        <time>2023-09-02T13:24:51Z</time>
      </trkpt>
      <trkpt lat="56.037208959460258" lon="-4.398470995947719">
        <ele>17.440000000000001</ele>
        <time>2023-09-02T13:24:52Z</time>
      </trkpt>
      <trkpt lat="56.037136958912015" lon="-4.398135971277952">
        <ele>17.440000000000001</ele>
        <time>2023-09-02T13:24:54Z</time>
      </trkpt>
      <trkpt lat="56.037119021639228" lon="-4.398049972951412">
        <ele>17.920000000000002</ele>
        <time>2023-09-02T13:24:55Z</time>
      </trkpt>
      <trkpt lat="56.037108041346073" lon="-4.397846041247249">
        <ele>17.920000000000002</ele>
        <time>2023-09-02T13:24:56Z</time>
      </trkpt>
      <trkpt lat="56.03710200637579" lon="-4.397734981030226">
        <ele>17.920000000000002</ele>
        <time>2023-09-02T13:24:57Z</time>
      </trkpt>
      <trkpt lat="56.037096977233887" lon="-4.397638002410531">
        <ele>17.920000000000002</ele>
        <time>2023-09-02T13:24:58Z</time>
      </trkpt>
      <trkpt lat="56.037093037739396" lon="-4.397556027397513">
        <ele>18.399999999999999</ele>
        <time>2023-09-02T13:24:59Z</time>
      </trkpt>
      <trkpt lat="56.037090020254254" lon="-4.397494001314044">
        <ele>18.399999999999999</ele>
        <time>2023-09-02T13:25:00Z</time>
      </trkpt>
      <trkpt lat="56.03708297945559" lon="-4.397371038794518">
        <ele>20.32</ele>
        <time>2023-09-02T13:25:11Z</time>
      </trkpt>
      <trkpt lat="56.037076022475958" lon="-4.397235000506043">
        <ele>20.32</ele>
        <time>2023-09-02T13:25:13Z</time>
      </trkpt>
      <trkpt lat="56.037101000547409" lon="-4.397100973874331">
        <ele>21.77</ele>
        <time>2023-09-02T13:25:16Z</time>
      </trkpt>
      <trkpt lat="56.037116004154086" lon="-4.397015981376171">
        <ele>21.77</ele>
        <time>2023-09-02T13:25:17Z</time>
      </trkpt>
      <trkpt lat="56.037208959460258" lon="-4.396506026387215">
        <ele>22.73</ele>
        <time>2023-09-02T13:25:25Z</time>
      </trkpt>
      <trkpt lat="56.037225974723697" lon="-4.396413993090391">
        <ele>22.73</ele>
        <time>2023-09-02T13:25:26Z</time>
      </trkpt>
      <trkpt lat="56.037397971376777" lon="-4.396160021424294">
        <ele>23.690000000000001</ele>
        <time>2023-09-02T13:25:29Z</time>
      </trkpt>
      <trkpt lat="56.037397971376777" lon="-4.396071005612612">
        <ele>23.690000000000001</ele>
        <time>2023-09-02T13:25:30Z</time>
      </trkpt>
      <trkpt lat="56.037397971376777" lon="-4.395977966487408">
        <ele>24.170000000000002</ele>
        <time>2023-09-02T13:25:31Z</time>
      </trkpt>
      <trkpt lat="56.037372993305326" lon="-4.395884005352855">
        <ele>24.170000000000002</ele>
        <time>2023-09-02T13:25:32Z</time>
      </trkpt>
      <trkpt lat="56.037315996363759" lon="-4.395840000361204">
        <ele>24.170000000000002</ele>
        <time>2023-09-02T13:25:33Z</time>
      </trkpt>
      <trkpt lat="56.037291018292308" lon="-4.395818961784244">
        <ele>24.170000000000002</ele>
        <time>2023-09-02T13:25:34Z</time>
      </trkpt>
      <trkpt lat="56.037220023572445" lon="-4.395902026444674">
        <ele>23.690000000000001</ele>
        <time>2023-09-02T13:25:35Z</time>
      </trkpt>
      <trkpt lat="56.037085996940732" lon="-4.395952988415957">
        <ele>23.690000000000001</ele>
        <time>2023-09-02T13:25:36Z</time>
      </trkpt>
      <trkpt lat="56.037003016099334" lon="-4.395934967324138">
        <ele>23.690000000000001</ele>
        <time>2023-09-02T13:25:37Z</time>
      </trkpt>
      <trkpt lat="56.036915006116033" lon="-4.39591602422297">
        <ele>24.170000000000002</ele>
        <time>2023-09-02T13:25:38Z</time>
      </trkpt>
      <trkpt lat="56.036818027496338" lon="-4.395874030888081">
        <ele>24.170000000000002</ele>
        <time>2023-09-02T13:25:39Z</time>
      </trkpt>
      <trkpt lat="56.036727000027895" lon="-4.395810998976231">
        <ele>24.170000000000002</ele>
        <time>2023-09-02T13:25:40Z</time>
      </trkpt>
      <trkpt lat="56.036631027236581" lon="-4.395745033398271">
        <ele>24.170000000000002</ele>
        <time>2023-09-02T13:25:41Z</time>
      </trkpt>
      <trkpt lat="56.036532958969474" lon="-4.395661968737841">
        <ele>24.649999999999999</ele>
        <time>2023-09-02T13:25:42Z</time>
      </trkpt>
      <trkpt lat="56.035737013444304" lon="-4.394602999091148">
        <ele>22.73</ele>
        <time>2023-09-02T13:25:50Z</time>
      </trkpt>
      <trkpt lat="56.03553400374949" lon="-4.394234027713537">
        <ele>22.25</ele>
        <time>2023-09-02T13:25:52Z</time>
      </trkpt>
      <trkpt lat="56.034421976655722" lon="-4.392212983220816">
        <ele>22.73</ele>
        <time>2023-09-02T13:26:02Z</time>
      </trkpt>
      <trkpt lat="56.033744970336556" lon="-4.390983022749424">
        <ele>26.57</ele>
        <time>2023-09-02T13:26:09Z</time>
      </trkpt>
      <trkpt lat="56.033660983666778" lon="-4.390645986422896">
        <ele>28.02</ele>
        <time>2023-09-02T13:26:11Z</time>
      </trkpt>
      <trkpt lat="56.033596023917198" lon="-4.390483964234591">
        <ele>28.5</ele>
        <time>2023-09-02T13:26:12Z</time>
      </trkpt>
      <trkpt lat="56.033556964248419" lon="-4.390454040840268">
        <ele>28.98</ele>
        <time>2023-09-02T13:26:13Z</time>
      </trkpt>
      <trkpt lat="56.033345991745591" lon="-4.390264023095369">
        <ele>28.98</ele>
        <time>2023-09-02T13:26:15Z</time>
      </trkpt>
      <trkpt lat="56.033270973712206" lon="-4.390123961493373">
        <ele>29.460000000000001</ele>
        <time>2023-09-02T13:26:16Z</time>
      </trkpt>
      <trkpt lat="56.033187992870808" lon="-4.389969985932112">
        <ele>29.460000000000001</ele>
        <time>2023-09-02T13:26:17Z</time>
      </trkpt>
      <trkpt lat="56.032251985743642" lon="-4.388227974995971">
        <ele>33.299999999999997</ele>
        <time>2023-09-02T13:26:26Z</time>
      </trkpt>
      <trkpt lat="56.031071981415153" lon="-4.386032000184059">
        <ele>33.299999999999997</ele>
        <time>2023-09-02T13:26:35Z</time>
      </trkpt>
      <trkpt lat="56.029963977634907" lon="-4.383969968184829">
        <ele>36.189999999999998</ele>
        <time>2023-09-02T13:26:43Z</time>
      </trkpt>
      <trkpt lat="56.029027970507741" lon="-4.382256036624312">
        <ele>36.189999999999998</ele>
        <time>2023-09-02T13:26:50Z</time>
      </trkpt>
      <trkpt lat="56.028243005275726" lon="-4.380858018994331">
        <ele>31.379999999999999</ele>
        <time>2023-09-02T13:26:57Z</time>
      </trkpt>
      <trkpt lat="56.02814401499927" lon="-4.380694990977645">
        <ele>31.379999999999999</ele>
        <time>2023-09-02T13:26:58Z</time>
      </trkpt>
      <trkpt lat="56.028027003630996" lon="-4.38057697378099">
        <ele>30.899999999999999</ele>
        <time>2023-09-02T13:26:59Z</time>
      </trkpt>
      <trkpt lat="56.027899011969566" lon="-4.380459040403366">
        <ele>30.899999999999999</ele>
        <time>2023-09-02T13:27:00Z</time>
      </trkpt>
      <trkpt lat="56.026383982971311" lon="-4.379193959757686">
        <ele>29.460000000000001</ele>
        <time>2023-09-02T13:27:10Z</time>
      </trkpt>
      <trkpt lat="56.025200039148331" lon="-4.378252001479268">
        <ele>27.530000000000001</ele>
        <time>2023-09-02T13:27:17Z</time>
      </trkpt>
      <trkpt lat="56.02507003583014" lon="-4.378071036189795">
        <ele>27.530000000000001</ele>
        <time>2023-09-02T13:27:18Z</time>
      </trkpt>
      <trkpt lat="56.023565987125039" lon="-4.375857962295413">
        <ele>28.5</ele>
        <time>2023-09-02T13:27:30Z</time>
      </trkpt>
      <trkpt lat="56.022973973304033" lon="-4.374592965468764">
        <ele>30.420000000000002</ele>
        <time>2023-09-02T13:27:38Z</time>
      </trkpt>
      <trkpt lat="56.02221398614347" lon="-4.372946005314589">
        <ele>32.340000000000003</ele>
        <time>2023-09-02T13:27:48Z</time>
      </trkpt>
      <trkpt lat="56.021874016150832" lon="-4.372210996225476">
        <ele>32.82</ele>
        <time>2023-09-02T13:27:52Z</time>
      </trkpt>
      <trkpt lat="56.021792041137815" lon="-4.372033970430493">
        <ele>32.82</ele>
        <time>2023-09-02T13:27:53Z</time>
      </trkpt>
      <trkpt lat="56.020499970763922" lon="-4.36933902092278">
        <ele>33.299999999999997</ele>
        <time>2023-09-02T13:28:08Z</time>
      </trkpt>
      <trkpt lat="56.019553989171982" lon="-4.367467006668448">
        <ele>35.229999999999997</ele>
        <time>2023-09-02T13:28:17Z</time>
      </trkpt>
      <trkpt lat="56.018956024199724" lon="-4.366512978449464">
        <ele>35.710000000000001</ele>
        <time>2023-09-02T13:28:22Z</time>
      </trkpt>
      <trkpt lat="56.018820991739631" lon="-4.36635104008019">
        <ele>35.710000000000001</ele>
        <time>2023-09-02T13:28:23Z</time>
      </trkpt>
      <trkpt lat="56.018684031441808" lon="-4.366186000406742">
        <ele>36.189999999999998</ele>
        <time>2023-09-02T13:28:24Z</time>
      </trkpt>
      <trkpt lat="56.018530977889895" lon="-4.366061026230454">
        <ele>36.189999999999998</ele>
        <time>2023-09-02T13:28:25Z</time>
      </trkpt>
      <trkpt lat="56.018374990671873" lon="-4.36594401486218">
        <ele>36.670000000000002</ele>
        <time>2023-09-02T13:28:26Z</time>
      </trkpt>
      <trkpt lat="56.016873037442565" lon="-4.365245969966054">
        <ele>38.590000000000003</ele>
        <time>2023-09-02T13:28:35Z</time>
      </trkpt>
      <trkpt lat="56.015516007319093" lon="-4.364579021930695">
        <ele>41.950000000000003</ele>
        <time>2023-09-02T13:28:44Z</time>
      </trkpt>
      <trkpt lat="56.015387009829283" lon="-4.364543985575438">
        <ele>41.950000000000003</ele>
        <time>2023-09-02T13:28:45Z</time>
      </trkpt>
      <trkpt lat="56.014424012973905" lon="-4.364051967859268">
        <ele>40.990000000000002</ele>
        <time>2023-09-02T13:28:53Z</time>
      </trkpt>
      <trkpt lat="56.014184039086103" lon="-4.363861028105021">
        <ele>40.030000000000001</ele>
        <time>2023-09-02T13:28:57Z</time>
      </trkpt>
      <trkpt lat="56.014150008559227" lon="-4.363834038376808">
        <ele>39.549999999999997</ele>
        <time>2023-09-02T13:28:58Z</time>
      </trkpt>
      <trkpt lat="56.014129975810647" lon="-4.363819034770131">
        <ele>39.549999999999997</ele>
        <time>2023-09-02T13:28:59Z</time>
      </trkpt>
      <trkpt lat="56.014066021889448" lon="-4.364056997001171">
        <ele>38.590000000000003</ele>
        <time>2023-09-02T13:29:02Z</time>
      </trkpt>
      <trkpt lat="56.014069961383939" lon="-4.364249026402831">
        <ele>37.149999999999999</ele>
        <time>2023-09-02T13:29:06Z</time>
      </trkpt>
      <trkpt lat="56.013970971107483" lon="-4.364322032779455">
        <ele>36.189999999999998</ele>
        <time>2023-09-02T13:29:10Z</time>
      </trkpt>
      <trkpt lat="56.013921014964581" lon="-4.364309962838888">
        <ele>35.229999999999997</ele>
        <time>2023-09-02T13:29:12Z</time>
      </trkpt>
      <trkpt lat="56.013902993872762" lon="-4.364222036674619">
        <ele>33.780000000000001</ele>
        <time>2023-09-02T13:29:23Z</time>
      </trkpt>
      <trkpt lat="56.013934006914496" lon="-4.364136960357428">
        <ele>28.98</ele>
        <time>2023-09-02T13:54:17Z</time>
      </trkpt>
      <trkpt lat="56.013881033286452" lon="-4.364189011976123">
        <ele>36.670000000000002</ele>
        <time>2023-09-02T13:54:36Z</time>
      </trkpt>
      <trkpt lat="56.013893019407988" lon="-4.364154981449246">
        <ele>30.420000000000002</ele>
        <time>2023-09-02T13:55:13Z</time>
      </trkpt>
      <trkpt lat="56.013895031064749" lon="-4.364156993106008">
        <ele>30.420000000000002</ele>
        <time>2023-09-02T13:55:16Z</time>
      </trkpt>
      <trkpt lat="56.014001984149218" lon="-4.364260006695986">
        <ele>28.98</ele>
        <time>2023-09-02T13:55:21Z</time>
      </trkpt>
      <trkpt lat="56.014128969982266" lon="-4.364107958972454">
        <ele>28.02</ele>
        <time>2023-09-02T13:55:26Z</time>
      </trkpt>
      <trkpt lat="56.014235001057386" lon="-4.363902015611529">
        <ele>23.690000000000001</ele>
        <time>2023-09-02T13:55:31Z</time>
      </trkpt>
      <trkpt lat="56.014270037412643" lon="-4.363930011168122">
        <ele>22.73</ele>
        <time>2023-09-02T13:55:32Z</time>
      </trkpt>
      <trkpt lat="56.014323011040688" lon="-4.363970998674631">
        <ele>22.25</ele>
        <time>2023-09-02T13:55:33Z</time>
      </trkpt>
      <trkpt lat="56.014915024861693" lon="-4.364390010014176">
        <ele>20.809999999999999</ele>
        <time>2023-09-02T13:55:39Z</time>
      </trkpt>
      <trkpt lat="56.015677023679018" lon="-4.364627972245216">
        <ele>23.210000000000001</ele>
        <time>2023-09-02T13:55:44Z</time>
      </trkpt>
      <trkpt lat="56.015840973705053" lon="-4.364715982228518">
        <ele>23.690000000000001</ele>
        <time>2023-09-02T13:55:45Z</time>
      </trkpt>
      <trkpt lat="56.017653979361057" lon="-4.365608990192413">
        <ele>24.649999999999999</ele>
        <time>2023-09-02T13:55:56Z</time>
      </trkpt>
      <trkpt lat="56.018543969839811" lon="-4.366071000695229">
        <ele>23.210000000000001</ele>
        <time>2023-09-02T13:56:03Z</time>
      </trkpt>
      <trkpt lat="56.018642960116267" lon="-4.366147024556994">
        <ele>23.210000000000001</ele>
        <time>2023-09-02T13:56:04Z</time>
      </trkpt>
      <trkpt lat="56.018782015889883" lon="-4.36615901067853">
        <ele>23.210000000000001</ele>
        <time>2023-09-02T13:56:05Z</time>
      </trkpt>
      <trkpt lat="56.018914030864835" lon="-4.366151969879866">
        <ele>23.210000000000001</ele>
        <time>2023-09-02T13:56:06Z</time>
      </trkpt>
      <trkpt lat="56.020278017967939" lon="-4.366217013448477">
        <ele>25.129999999999999</ele>
        <time>2023-09-02T13:56:15Z</time>
      </trkpt>
      <trkpt lat="56.021778965368867" lon="-4.365997994318605">
        <ele>30.899999999999999</ele>
        <time>2023-09-02T13:56:24Z</time>
      </trkpt>
      <trkpt lat="56.023082016035914" lon="-4.36556096188724">
        <ele>39.549999999999997</ele>
        <time>2023-09-02T13:56:32Z</time>
      </trkpt>
      <trkpt lat="56.023376975208521" lon="-4.365490972995758">
        <ele>41.950000000000003</ele>
        <time>2023-09-02T13:56:34Z</time>
      </trkpt>
      <trkpt lat="56.023522987961769" lon="-4.365479992702603">
        <ele>42.920000000000002</ele>
        <time>2023-09-02T13:56:35Z</time>
      </trkpt>
      <trkpt lat="56.023678975179791" lon="-4.365507988259196">
        <ele>43.880000000000003</ele>
        <time>2023-09-02T13:56:36Z</time>
      </trkpt>
      <trkpt lat="56.025046985596418" lon="-4.366166973486543">
        <ele>52.530000000000001</ele>
        <time>2023-09-02T13:56:44Z</time>
      </trkpt>
      <trkpt lat="56.026419019326568" lon="-4.366864012554288">
        <ele>58.299999999999997</ele>
        <time>2023-09-02T13:56:52Z</time>
      </trkpt>
      <trkpt lat="56.028183996677399" lon="-4.367759032174945">
        <ele>60.700000000000003</ele>
        <time>2023-09-02T13:57:02Z</time>
      </trkpt>
      <trkpt lat="56.029462991282344" lon="-4.368337970227003">
        <ele>62.140000000000001</ele>
        <time>2023-09-02T13:57:10Z</time>
      </trkpt>
      <trkpt lat="56.029613027349114" lon="-4.368310980498791">
        <ele>60.700000000000003</ele>
        <time>2023-09-02T13:57:11Z</time>
      </trkpt>
      <trkpt lat="56.031162003055215" lon="-4.368005963042378">
        <ele>53.969999999999999</ele>
        <time>2023-09-02T13:57:21Z</time>
      </trkpt>
      <trkpt lat="56.032073032110929" lon="-4.367798008024693">
        <ele>56.369999999999997</ele>
        <time>2023-09-02T13:57:28Z</time>
      </trkpt>
      <trkpt lat="56.033209031447768" lon="-4.367230972275138">
        <ele>62.140000000000001</ele>
        <time>2023-09-02T13:57:35Z</time>
      </trkpt>
      <trkpt lat="56.033377004787326" lon="-4.367089988663793">
        <ele>63.100000000000001</ele>
        <time>2023-09-02T13:57:36Z</time>
      </trkpt>
      <trkpt lat="56.033806996420026" lon="-4.366624960675836">
        <ele>64.549999999999997</ele>
        <time>2023-09-02T13:57:39Z</time>
      </trkpt>
      <trkpt lat="56.033953009173274" lon="-4.366532005369663">
        <ele>65.510000000000005</ele>
        <time>2023-09-02T13:57:40Z</time>
      </trkpt>
      <trkpt lat="56.034093992784619" lon="-4.36648003757">
        <ele>65.989999999999995</ele>
        <time>2023-09-02T13:57:41Z</time>
      </trkpt>
      <trkpt lat="56.034232964739203" lon="-4.366477020084858">
        <ele>66.950000000000003</ele>
        <time>2023-09-02T13:57:42Z</time>
      </trkpt>
      <trkpt lat="56.034357016906142" lon="-4.366492023691535">
        <ele>67.909999999999997</ele>
        <time>2023-09-02T13:57:43Z</time>
      </trkpt>
      <trkpt lat="56.034472016617656" lon="-4.366507027298212">
        <ele>68.870000000000005</ele>
        <time>2023-09-02T13:57:44Z</time>
      </trkpt>
      <trkpt lat="56.035004016011953" lon="-4.366672988981009">
        <ele>74.159999999999997</ele>
        <time>2023-09-02T13:57:51Z</time>
      </trkpt>
      <trkpt lat="56.035166038200259" lon="-4.366743983700872">
        <ele>76.079999999999998</ele>
        <time>2023-09-02T13:57:53Z</time>
      </trkpt>
      <trkpt lat="56.035350020974874" lon="-4.366783965379">
        <ele>78.480000000000004</ele>
        <time>2023-09-02T13:57:56Z</time>
      </trkpt>
      <trkpt lat="56.035415986552835" lon="-4.366797963157296">
        <ele>78.969999999999999</ele>
        <time>2023-09-02T13:57:57Z</time>
      </trkpt>
      <trkpt lat="56.03562000207603" lon="-4.366841968148947">
        <ele>81.849999999999994</ele>
        <time>2023-09-02T13:58:01Z</time>
      </trkpt>
      <trkpt lat="56.0356630012393" lon="-4.366858983412385">
        <ele>82.810000000000002</ele>
        <time>2023-09-02T13:58:02Z</time>
      </trkpt>
      <trkpt lat="56.03568303398788" lon="-4.366908017545939">
        <ele>83.769999999999996</ele>
        <time>2023-09-02T13:58:03Z</time>
      </trkpt>
      <trkpt lat="56.035669036209583" lon="-4.367036009207368">
        <ele>84.730000000000004</ele>
        <time>2023-09-02T13:58:04Z</time>
      </trkpt>
      <trkpt lat="56.035632994025946" lon="-4.367117984220386">
        <ele>85.689999999999998</ele>
        <time>2023-09-02T13:58:05Z</time>
      </trkpt>
      <trkpt lat="56.035591000691056" lon="-4.36721496284008">
        <ele>86.180000000000007</ele>
        <time>2023-09-02T13:58:06Z</time>
      </trkpt>
      <trkpt lat="56.035545989871025" lon="-4.367318982258439">
        <ele>86.659999999999997</ele>
        <time>2023-09-02T13:58:07Z</time>
      </trkpt>
      <trkpt lat="56.0354920104146" lon="-4.367441022768617">
        <ele>87.140000000000001</ele>
        <time>2023-09-02T13:58:08Z</time>
      </trkpt>
      <trkpt lat="56.035435013473034" lon="-4.367573959752917">
        <ele>87.140000000000001</ele>
        <time>2023-09-02T13:58:09Z</time>
      </trkpt>
      <trkpt lat="56.035312972962856" lon="-4.367852993309498">
        <ele>87.140000000000001</ele>
        <time>2023-09-02T13:58:11Z</time>
      </trkpt>
      <trkpt lat="56.034748032689095" lon="-4.369052024558187">
        <ele>84.730000000000004</ele>
        <time>2023-09-02T13:58:20Z</time>
      </trkpt>
      <trkpt lat="56.034619035199285" lon="-4.369293004274368">
        <ele>82.329999999999998</ele>
        <time>2023-09-02T13:58:22Z</time>
      </trkpt>
      <trkpt lat="56.034255009144545" lon="-4.370047962293029">
        <ele>74.159999999999997</ele>
        <time>2023-09-02T13:58:28Z</time>
      </trkpt>
      <trkpt lat="56.03407303802669" lon="-4.370445013046265">
        <ele>70.790000000000006</ele>
        <time>2023-09-02T13:58:31Z</time>
      </trkpt>
      <trkpt lat="56.034013023599982" lon="-4.370575016364455">
        <ele>69.829999999999998</ele>
        <time>2023-09-02T13:58:32Z</time>
      </trkpt>
      <trkpt lat="56.033952003344893" lon="-4.370708959177136">
        <ele>68.390000000000001</ele>
        <time>2023-09-02T13:58:33Z</time>
      </trkpt>
      <trkpt lat="56.033846978098154" lon="-4.370937030762434">
        <ele>66.469999999999999</ele>
        <time>2023-09-02T13:58:35Z</time>
      </trkpt>
      <trkpt lat="56.033789981156588" lon="-4.371060999110341">
        <ele>65.030000000000001</ele>
        <time>2023-09-02T13:58:36Z</time>
      </trkpt>
      <trkpt lat="56.033438025042415" lon="-4.371828027069569">
        <ele>58.299999999999997</ele>
        <time>2023-09-02T13:58:42Z</time>
      </trkpt>
      <trkpt lat="56.033327970653772" lon="-4.37206800095737">
        <ele>55.890000000000001</ele>
        <time>2023-09-02T13:58:44Z</time>
      </trkpt>
      <trkpt lat="56.032756995409727" lon="-4.373311959207058">
        <ele>46.759999999999998</ele>
        <time>2023-09-02T13:58:54Z</time>
      </trkpt>
      <trkpt lat="56.032002037391067" lon="-4.37501197680831">
        <ele>35.710000000000001</ele>
        <time>2023-09-02T13:59:05Z</time>
      </trkpt>
      <trkpt lat="56.031224029138684" lon="-4.376737978309393">
        <ele>24.170000000000002</ele>
        <time>2023-09-02T13:59:16Z</time>
      </trkpt>
      <trkpt lat="56.030803006142378" lon="-4.377688989043236">
        <ele>13.6</ele>
        <time>2023-09-02T13:59:23Z</time>
      </trkpt>
      <trkpt lat="56.030737962573767" lon="-4.377798959612846">
        <ele>12.15</ele>
        <time>2023-09-02T13:59:24Z</time>
      </trkpt>
      <trkpt lat="56.030665040016174" lon="-4.377897027879953">
        <ele>11.19</ele>
        <time>2023-09-02T13:59:25Z</time>
      </trkpt>
      <trkpt lat="56.029898012056947" lon="-4.378663972020149">
        <ele>2.06</ele>
        <time>2023-09-02T13:59:34Z</time>
      </trkpt>
      <trkpt lat="56.02923802100122" lon="-4.379324968904257">
        <ele>-4.19</ele>
        <time>2023-09-02T13:59:41Z</time>
      </trkpt>
      <trkpt lat="56.029103994369507" lon="-4.379457989707589">
        <ele>-5.63</ele>
        <time>2023-09-02T13:59:43Z</time>
      </trkpt>
      <trkpt lat="56.029029982164502" lon="-4.379532001912594">
        <ele>-6.11</ele>
        <time>2023-09-02T13:59:44Z</time>
      </trkpt>
      <trkpt lat="56.02902696467936" lon="-4.379690000787377">
        <ele>-6.59</ele>
        <time>2023-09-02T13:59:45Z</time>
      </trkpt>
      <trkpt lat="56.029025036841631" lon="-4.379820004105568">
        <ele>-7.07</ele>
        <time>2023-09-02T13:59:46Z</time>
      </trkpt>
      <trkpt lat="56.029022019356489" lon="-4.379968028515577">
        <ele>-7.55</ele>
        <time>2023-09-02T13:59:47Z</time>
      </trkpt>
      <trkpt lat="56.029020007699728" lon="-4.3801049888134">
        <ele>-8.029999999999999</ele>
        <time>2023-09-02T13:59:48Z</time>
      </trkpt>
      <trkpt lat="56.029012966901064" lon="-4.380494998767972">
        <ele>-9.48</ele>
        <time>2023-09-02T13:59:51Z</time>
      </trkpt>
      <trkpt lat="56.029010033234954" lon="-4.380625002086163">
        <ele>-9.960000000000001</ele>
        <time>2023-09-02T13:59:52Z</time>
      </trkpt>
      <trkpt lat="56.028976002708077" lon="-4.380808984860778">
        <ele>-10.92</ele>
        <time>2023-09-02T13:59:53Z</time>
      </trkpt>
      <trkpt lat="56.028925040736794" lon="-4.380882997065783">
        <ele>-11.4</ele>
        <time>2023-09-02T13:59:54Z</time>
      </trkpt>
      <trkpt lat="56.028879024088383" lon="-4.380933959037066">
        <ele>-12.359999999999999</ele>
        <time>2023-09-02T13:59:55Z</time>
      </trkpt>
      <trkpt lat="56.02883200161159" lon="-4.380986010655761">
        <ele>-12.84</ele>
        <time>2023-09-02T13:59:56Z</time>
      </trkpt>
      <trkpt lat="56.028698980808258" lon="-4.381132023409009">
        <ele>-16.210000000000001</ele>
        <time>2023-09-02T14:00:03Z</time>
      </trkpt>
      <trkpt lat="56.028634021058679" lon="-4.381203018128872">
        <ele>-16.210000000000001</ele>
        <time>2023-09-02T14:00:18Z</time>
      </trkpt>
      <trkpt lat="56.028537964448333" lon="-4.381375014781952">
        <ele>-14.76</ele>
        <time>2023-09-02T14:00:31Z</time>
      </trkpt>
      <trkpt lat="56.02851097472012" lon="-4.38132799230516">
        <ele>-14.279999999999999</ele>
        <time>2023-09-02T14:00:32Z</time>
      </trkpt>
      <trkpt lat="56.028475016355515" lon="-4.381255991756916">
        <ele>-13.800000000000001</ele>
        <time>2023-09-02T14:00:33Z</time>
      </trkpt>
      <trkpt lat="56.028190031647682" lon="-4.380771014839411">
        <ele>-7.55</ele>
        <time>2023-09-02T14:00:40Z</time>
      </trkpt>
      <trkpt lat="56.028183996677399" lon="-4.380287965759635">
        <ele>-0.34</ele>
        <time>2023-09-02T14:00:50Z</time>
      </trkpt>
      <trkpt lat="56.028183996677399" lon="-4.380287965759635">
        <ele>-0.34</ele>
        <time>2023-09-02T14:00:53Z</time>
      </trkpt>
      <trkpt lat="56.028278041630983" lon="-4.380243038758636">
        <ele>5.42</ele>
        <time>2023-09-02T14:01:00Z</time>
      </trkpt>
      <trkpt lat="56.028475016355515" lon="-4.380328031256795">
        <ele>9.75</ele>
        <time>2023-09-02T14:01:12Z</time>
      </trkpt>
      <trkpt lat="56.028563026338816" lon="-4.380606980994344">
        <ele>14.56</ele>
        <time>2023-09-02T14:01:29Z</time>
      </trkpt>
      <trkpt lat="56.028508963063359" lon="-4.380709994584322">
        <ele>16.48</ele>
        <time>2023-09-02T14:01:50Z</time>
      </trkpt>
      <trkpt lat="56.028508963063359" lon="-4.380709994584322">
        <ele>16.48</ele>
        <time>2023-09-02T14:02:07Z</time>
      </trkpt>
      <trkpt lat="56.028525978326797" lon="-4.380718041211367">
        <ele>16.960000000000001</ele>
        <time>2023-09-02T14:02:26Z</time>
      </trkpt>
      <trkpt lat="56.028536036610603" lon="-4.380702031776309">
        <ele>19.359999999999999</ele>
        <time>2023-09-02T14:42:52Z</time>
      </trkpt>
      <trkpt lat="56.028508963063359" lon="-4.380717035382986">
        <ele>29.460000000000001</ele>
        <time>2023-09-02T14:43:30Z</time>
      </trkpt>
      <trkpt lat="56.028524972498417" lon="-4.380714017897844">
        <ele>30.899999999999999</ele>
        <time>2023-09-02T14:44:02Z</time>
      </trkpt>
      <trkpt lat="56.028525978326797" lon="-4.380709994584322">
        <ele>28.5</ele>
        <time>2023-09-02T14:44:49Z</time>
      </trkpt>
      <trkpt lat="56.028525978326797" lon="-4.380709994584322">
        <ele>28.5</ele>
        <time>2023-09-02T14:44:53Z</time>
      </trkpt>
      <trkpt lat="56.028391029685736" lon="-4.380217976868153">
        <ele>27.530000000000001</ele>
        <time>2023-09-02T14:45:01Z</time>
      </trkpt>
      <trkpt lat="56.028514998033643" lon="-4.380089985206723">
        <ele>27.050000000000001</ele>
        <time>2023-09-02T14:45:02Z</time>
      </trkpt>
      <trkpt lat="56.028514998033643" lon="-4.380089985206723">
        <ele>26.57</ele>
        <time>2023-09-02T14:45:03Z</time>
      </trkpt>
      <trkpt lat="56.028128005564213" lon="-4.380670012906194">
        <ele>24.170000000000002</ele>
        <time>2023-09-02T14:45:08Z</time>
      </trkpt>
      <trkpt lat="56.028076037764549" lon="-4.380621984601021">
        <ele>23.210000000000001</ele>
        <time>2023-09-02T14:45:15Z</time>
      </trkpt>
      <trkpt lat="56.02803798392415" lon="-4.380587032064796">
        <ele>22.73</ele>
        <time>2023-09-02T14:45:16Z</time>
      </trkpt>
      <trkpt lat="56.027977969497442" lon="-4.380531962960959">
        <ele>22.73</ele>
        <time>2023-09-02T14:45:17Z</time>
      </trkpt>
      <trkpt lat="56.027181018143892" lon="-4.37982402741909">
        <ele>21.77</ele>
        <time>2023-09-02T14:45:25Z</time>
      </trkpt>
      <trkpt lat="56.025643022730947" lon="-4.378608986735344">
        <ele>20.809999999999999</ele>
        <time>2023-09-02T14:45:35Z</time>
      </trkpt>
      <trkpt lat="56.025060983374715" lon="-4.378057960420847">
        <ele>18.399999999999999</ele>
        <time>2023-09-02T14:45:39Z</time>
      </trkpt>
      <trkpt lat="56.023530028760433" lon="-4.37578696757555">
        <ele>17.920000000000002</ele>
        <time>2023-09-02T14:45:52Z</time>
      </trkpt>
      <trkpt lat="56.022498970851302" lon="-4.373564003035426">
        <ele>22.73</ele>
        <time>2023-09-02T14:46:03Z</time>
      </trkpt>
      <trkpt lat="56.02197602391243" lon="-4.37243202701211">
        <ele>24.170000000000002</ele>
        <time>2023-09-02T14:46:10Z</time>
      </trkpt>
      <trkpt lat="56.021206984296441" lon="-4.370826976373792">
        <ele>27.530000000000001</ele>
        <time>2023-09-02T14:46:20Z</time>
      </trkpt>
      <trkpt lat="56.020186990499496" lon="-4.368712976574898">
        <ele>28.98</ele>
        <time>2023-09-02T14:46:31Z</time>
      </trkpt>
      <trkpt lat="56.019031964242458" lon="-4.366604005917907">
        <ele>31.859999999999999</ele>
        <time>2023-09-02T14:46:41Z</time>
      </trkpt>
      <trkpt lat="56.018872037529945" lon="-4.366412982344627">
        <ele>31.859999999999999</ele>
        <time>2023-09-02T14:46:42Z</time>
      </trkpt>
      <trkpt lat="56.018706997856498" lon="-4.366215001791716">
        <ele>32.340000000000003</ele>
        <time>2023-09-02T14:46:43Z</time>
      </trkpt>
      <trkpt lat="56.018523015081882" lon="-4.366054991260171">
        <ele>32.340000000000003</ele>
        <time>2023-09-02T14:46:44Z</time>
      </trkpt>
      <trkpt lat="56.0183269623667" lon="-4.365921970456839">
        <ele>32.340000000000003</ele>
        <time>2023-09-02T14:46:45Z</time>
      </trkpt>
      <trkpt lat="56.018119007349014" lon="-4.365825997665525">
        <ele>32.82</ele>
        <time>2023-09-02T14:46:46Z</time>
      </trkpt>
      <trkpt lat="56.017908034846187" lon="-4.365727007389069">
        <ele>32.82</ele>
        <time>2023-09-02T14:46:47Z</time>
      </trkpt>
      <trkpt lat="56.0157470125705" lon="-4.364665020257235">
        <ele>34.740000000000002</ele>
        <time>2023-09-02T14:46:58Z</time>
      </trkpt>
      <trkpt lat="56.0147799924016" lon="-4.364327983930707">
        <ele>33.780000000000001</ele>
        <time>2023-09-02T14:47:05Z</time>
      </trkpt>
      <trkpt lat="56.013777013868093" lon="-4.363623987883329">
        <ele>32.340000000000003</ele>
        <time>2023-09-02T14:47:13Z</time>
      </trkpt>
      <trkpt lat="56.012933040037751" lon="-4.363148985430598">
        <ele>31.859999999999999</ele>
        <time>2023-09-02T14:47:19Z</time>
      </trkpt>
      <trkpt lat="56.012793984264135" lon="-4.36300196684897">
        <ele>31.859999999999999</ele>
        <time>2023-09-02T14:47:20Z</time>
      </trkpt>
      <trkpt lat="56.011504009366035" lon="-4.361919024959207">
        <ele>30.899999999999999</ele>
        <time>2023-09-02T14:47:28Z</time>
      </trkpt>
      <trkpt lat="56.011308040469885" lon="-4.361878037452698">
        <ele>30.899999999999999</ele>
        <time>2023-09-02T14:47:29Z</time>
      </trkpt>
      <trkpt lat="56.00996701978147" lon="-4.361430024728179">
        <ele>31.379999999999999</ele>
        <time>2023-09-02T14:47:36Z</time>
      </trkpt>
      <trkpt lat="56.00945102982223" lon="-4.361071027815342">
        <ele>32.82</ele>
        <time>2023-09-02T14:47:39Z</time>
      </trkpt>
      <trkpt lat="56.00799098610878" lon="-4.359318036586046">
        <ele>35.229999999999997</ele>
        <time>2023-09-02T14:47:48Z</time>
      </trkpt>
      <trkpt lat="56.006728000938892" lon="-4.357463959604502">
        <ele>38.109999999999999</ele>
        <time>2023-09-02T14:47:56Z</time>
      </trkpt>
      <trkpt lat="56.005873968824744" lon="-4.355450961738825">
        <ele>37.630000000000003</ele>
        <time>2023-09-02T14:48:03Z</time>
      </trkpt>
      <trkpt lat="56.00493997335434" lon="-4.35346201993525">
        <ele>36.189999999999998</ele>
        <time>2023-09-02T14:48:10Z</time>
      </trkpt>
      <trkpt lat="56.0039939917624" lon="-4.351175017654896">
        <ele>33.299999999999997</ele>
        <time>2023-09-02T14:48:18Z</time>
      </trkpt>
      <trkpt lat="56.003873962908983" lon="-4.350881986320019">
        <ele>33.299999999999997</ele>
        <time>2023-09-02T14:48:19Z</time>
      </trkpt>
      <trkpt lat="56.003761980682611" lon="-4.350606976076961">
        <ele>33.299999999999997</ele>
        <time>2023-09-02T14:48:20Z</time>
      </trkpt>
      <trkpt lat="56.003675982356071" lon="-4.350327020511031">
        <ele>33.299999999999997</ele>
        <time>2023-09-02T14:48:21Z</time>
      </trkpt>
      <trkpt lat="56.003613034263253" lon="-4.350045975297689">
        <ele>33.780000000000001</ele>
        <time>2023-09-02T14:48:22Z</time>
      </trkpt>
      <trkpt lat="56.003562994301319" lon="-4.349752021953464">
        <ele>33.780000000000001</ele>
        <time>2023-09-02T14:48:23Z</time>
      </trkpt>
      <trkpt lat="56.003526030108333" lon="-4.349448010325432">
        <ele>33.780000000000001</ele>
        <time>2023-09-02T14:48:24Z</time>
      </trkpt>
      <trkpt lat="56.003487976267934" lon="-4.349139975383878">
        <ele>33.780000000000001</ele>
        <time>2023-09-02T14:48:25Z</time>
      </trkpt>
      <trkpt lat="56.003447994589806" lon="-4.348831018432975">
        <ele>33.780000000000001</ele>
        <time>2023-09-02T14:48:26Z</time>
      </trkpt>
      <trkpt lat="56.003375994041562" lon="-4.348543016240001">
        <ele>34.259999999999998</ele>
        <time>2023-09-02T14:48:27Z</time>
      </trkpt>
      <trkpt lat="56.003082962706685" lon="-4.34776701964438">
        <ele>35.229999999999997</ele>
        <time>2023-09-02T14:48:30Z</time>
      </trkpt>
      <trkpt lat="56.002966035157442" lon="-4.34753199107945">
        <ele>35.229999999999997</ele>
        <time>2023-09-02T14:48:31Z</time>
      </trkpt>
      <trkpt lat="56.002065986394882" lon="-4.345872960984707">
        <ele>37.630000000000003</ele>
        <time>2023-09-02T14:48:39Z</time>
      </trkpt>
      <trkpt lat="56.001974958926439" lon="-4.345670035108924">
        <ele>38.109999999999999</ele>
        <time>2023-09-02T14:48:40Z</time>
      </trkpt>
      <trkpt lat="56.001400966197252" lon="-4.344046041369438">
        <ele>44.840000000000003</ele>
        <time>2023-09-02T14:48:48Z</time>
      </trkpt>
      <trkpt lat="56.00130801089108" lon="-4.343886030837894">
        <ele>45.799999999999997</ele>
        <time>2023-09-02T14:48:49Z</time>
      </trkpt>
      <trkpt lat="56.000683978199959" lon="-4.342821026220918">
        <ele>52.049999999999997</ele>
        <time>2023-09-02T14:48:56Z</time>
      </trkpt>
      <trkpt lat="55.999774960801005" lon="-4.341207006946206">
        <ele>53.009999999999998</ele>
        <time>2023-09-02T14:49:04Z</time>
      </trkpt>
      <trkpt lat="55.9984490275383" lon="-4.339241031557322">
        <ele>46.280000000000001</ele>
        <time>2023-09-02T14:49:13Z</time>
      </trkpt>
      <trkpt lat="55.996652031317353" lon="-4.336715983226895">
        <ele>42.439999999999998</ele>
        <time>2023-09-02T14:49:25Z</time>
      </trkpt>
      <trkpt lat="55.99495000205934" lon="-4.33412698097527">
        <ele>41.469999999999999</ele>
        <time>2023-09-02T14:49:37Z</time>
      </trkpt>
      <trkpt lat="55.993918022140861" lon="-4.332263013347983">
        <ele>40.990000000000002</ele>
        <time>2023-09-02T14:49:45Z</time>
      </trkpt>
      <trkpt lat="55.993284014984965" lon="-4.331158027052879">
        <ele>44.840000000000003</ele>
        <time>2023-09-02T14:49:51Z</time>
      </trkpt>
      <trkpt lat="55.993202961981297" lon="-4.330973960459232">
        <ele>45.799999999999997</ele>
        <time>2023-09-02T14:49:52Z</time>
      </trkpt>
      <trkpt lat="55.993142025545239" lon="-4.330791989341378">
        <ele>46.280000000000001</ele>
        <time>2023-09-02T14:49:53Z</time>
      </trkpt>
      <trkpt lat="55.993084022775292" lon="-4.330616975203157">
        <ele>46.759999999999998</ele>
        <time>2023-09-02T14:49:54Z</time>
      </trkpt>
      <trkpt lat="55.993027025833726" lon="-4.330445984378457">
        <ele>47.719999999999999</ele>
        <time>2023-09-02T14:49:55Z</time>
      </trkpt>
      <trkpt lat="55.992966005578637" lon="-4.330264013260603">
        <ele>48.200000000000003</ele>
        <time>2023-09-02T14:49:56Z</time>
      </trkpt>
      <trkpt lat="55.992560992017388" lon="-4.328962974250317">
        <ele>51.57</ele>
        <time>2023-09-02T14:50:02Z</time>
      </trkpt>
      <trkpt lat="55.992292016744614" lon="-4.328254032880068">
        <ele>52.049999999999997</ele>
        <time>2023-09-02T14:50:06Z</time>
      </trkpt>
      <trkpt lat="55.992221022024751" lon="-4.328071977943182">
        <ele>51.57</ele>
        <time>2023-09-02T14:50:07Z</time>
      </trkpt>
      <trkpt lat="55.992122031748295" lon="-4.327819012105465">
        <ele>51.57</ele>
        <time>2023-09-02T14:50:08Z</time>
      </trkpt>
      <trkpt lat="55.991350980475545" lon="-4.326405990868807">
        <ele>50.130000000000003</ele>
        <time>2023-09-02T14:50:16Z</time>
      </trkpt>
      <trkpt lat="55.990169970318675" lon="-4.324214961379767">
        <ele>54.450000000000003</ele>
        <time>2023-09-02T14:50:28Z</time>
      </trkpt>
      <trkpt lat="55.989397997036576" lon="-4.322793977335095">
        <ele>56.859999999999999</ele>
        <time>2023-09-02T14:50:38Z</time>
      </trkpt>
      <trkpt lat="55.988829033449292" lon="-4.321758979931474">
        <ele>60.219999999999999</ele>
        <time>2023-09-02T14:50:49Z</time>
      </trkpt>
      <trkpt lat="55.988742029294372" lon="-4.321560999378562">
        <ele>60.700000000000003</ele>
        <time>2023-09-02T14:50:51Z</time>
      </trkpt>
      <trkpt lat="55.988704981282353" lon="-4.321452034637332">
        <ele>61.659999999999997</ele>
        <time>2023-09-02T14:50:52Z</time>
      </trkpt>
      <trkpt lat="55.988671034574509" lon="-4.321348015218973">
        <ele>61.659999999999997</ele>
        <time>2023-09-02T14:50:53Z</time>
      </trkpt>
      <trkpt lat="55.988638009876013" lon="-4.321251036599279">
        <ele>62.140000000000001</ele>
        <time>2023-09-02T14:50:54Z</time>
      </trkpt>
      <trkpt lat="55.988606996834278" lon="-4.321155985817313">
        <ele>62.619999999999997</ele>
        <time>2023-09-02T14:50:55Z</time>
      </trkpt>
      <trkpt lat="55.988571038469672" lon="-4.321050038561225">
        <ele>63.100000000000001</ele>
        <time>2023-09-02T14:50:56Z</time>
      </trkpt>
      <trkpt lat="55.988530972972512" lon="-4.320931015536189">
        <ele>63.100000000000001</ele>
        <time>2023-09-02T14:50:57Z</time>
      </trkpt>
      <trkpt lat="55.988488979637623" lon="-4.320802018046379">
        <ele>63.100000000000001</ele>
        <time>2023-09-02T14:50:58Z</time>
      </trkpt>
      <trkpt lat="55.988401975482702" lon="-4.320531031116843">
        <ele>63.100000000000001</ele>
        <time>2023-09-02T14:51:00Z</time>
      </trkpt>
      <trkpt lat="55.988369034603238" lon="-4.320389963686466">
        <ele>63.100000000000001</ele>
        <time>2023-09-02T14:51:01Z</time>
      </trkpt>
      <trkpt lat="55.988237019628286" lon="-4.319828040897846">
        <ele>63.579999999999998</ele>
        <time>2023-09-02T14:51:05Z</time>
      </trkpt>
      <trkpt lat="55.988146997988224" lon="-4.319209959357977">
        <ele>64.549999999999997</ele>
        <time>2023-09-02T14:51:09Z</time>
      </trkpt>
      <trkpt lat="55.988136017695069" lon="-4.319071993231773">
        <ele>65.030000000000001</ele>
        <time>2023-09-02T14:51:10Z</time>
      </trkpt>
      <trkpt lat="55.988056976348162" lon="-4.318050993606448">
        <ele>67.430000000000007</ele>
        <time>2023-09-02T14:51:17Z</time>
      </trkpt>
      <trkpt lat="55.987840974703431" lon="-4.31629397906363">
        <ele>73.680000000000007</ele>
        <time>2023-09-02T14:51:28Z</time>
      </trkpt>
      <trkpt lat="55.98768699914217" lon="-4.314652970060706">
        <ele>77.519999999999996</ele>
        <time>2023-09-02T14:51:38Z</time>
      </trkpt>
      <trkpt lat="55.987560013309121" lon="-4.314081994816661">
        <ele>79.930000000000007</ele>
        <time>2023-09-02T14:51:42Z</time>
      </trkpt>
      <trkpt lat="55.987238986417651" lon="-4.312399998307228">
        <ele>83.769999999999996</ele>
        <time>2023-09-02T14:51:53Z</time>
      </trkpt>
      <trkpt lat="55.987177966162562" lon="-4.31201602332294">
        <ele>83.290000000000006</ele>
        <time>2023-09-02T14:51:56Z</time>
      </trkpt>
      <trkpt lat="55.987166985869408" lon="-4.311942011117935">
        <ele>82.810000000000002</ele>
        <time>2023-09-02T14:51:57Z</time>
      </trkpt>
      <trkpt lat="55.987158017233014" lon="-4.311885014176369">
        <ele>82.810000000000002</ele>
        <time>2023-09-02T14:51:58Z</time>
      </trkpt>
      <trkpt lat="55.98715097643435" lon="-4.311842015013099">
        <ele>82.810000000000002</ele>
        <time>2023-09-02T14:51:59Z</time>
      </trkpt>
      <trkpt lat="55.987145025283098" lon="-4.3118039611727">
        <ele>82.329999999999998</ele>
        <time>2023-09-02T14:52:00Z</time>
      </trkpt>
      <trkpt lat="55.987139996141195" lon="-4.311774959787726">
        <ele>82.329999999999998</ele>
        <time>2023-09-02T14:52:01Z</time>
      </trkpt>
      <trkpt lat="55.987135972827673" lon="-4.311748975887895">
        <ele>82.329999999999998</ele>
        <time>2023-09-02T14:52:02Z</time>
      </trkpt>
      <trkpt lat="55.987130021676421" lon="-4.311713017523289">
        <ele>81.849999999999994</ele>
        <time>2023-09-02T14:52:03Z</time>
      </trkpt>
      <trkpt lat="55.987110994756222" lon="-4.311591982841492">
        <ele>81.849999999999994</ele>
        <time>2023-09-02T14:52:05Z</time>
      </trkpt>
      <trkpt lat="55.987096996977925" lon="-4.311503972858191">
        <ele>81.370000000000005</ele>
        <time>2023-09-02T14:52:06Z</time>
      </trkpt>
      <trkpt lat="55.987080987542868" lon="-4.311401965096593">
        <ele>81.370000000000005</ele>
        <time>2023-09-02T14:52:07Z</time>
      </trkpt>
      <trkpt lat="55.987061960622668" lon="-4.311285959556699">
        <ele>80.890000000000001</ele>
        <time>2023-09-02T14:52:08Z</time>
      </trkpt>
      <trkpt lat="55.987043017521501" lon="-4.311162997037172">
        <ele>80.409999999999997</ele>
        <time>2023-09-02T14:52:09Z</time>
      </trkpt>
      <trkpt lat="55.986831039190292" lon="-4.309634976089001">
        <ele>78.480000000000004</ele>
        <time>2023-09-02T14:52:19Z</time>
      </trkpt>
      <trkpt lat="55.986807988956571" lon="-4.3095020391047">
        <ele>78.480000000000004</ele>
        <time>2023-09-02T14:52:20Z</time>
      </trkpt>
      <trkpt lat="55.986787034198642" lon="-4.309376981109381">
        <ele>78</ele>
        <time>2023-09-02T14:52:21Z</time>
      </trkpt>
      <trkpt lat="55.98667798563838" lon="-4.308740962296724">
        <ele>77.040000000000006</ele>
        <time>2023-09-02T14:52:26Z</time>
      </trkpt>
      <trkpt lat="55.986521998420358" lon="-4.308013999834657">
        <ele>75.120000000000005</ele>
        <time>2023-09-02T14:52:34Z</time>
      </trkpt>
      <trkpt lat="55.986457960680127" lon="-4.307842003181577">
        <ele>75.120000000000005</ele>
        <time>2023-09-02T14:52:35Z</time>
      </trkpt>
      <trkpt lat="55.986434994265437" lon="-4.307778971269727">
        <ele>74.640000000000001</ele>
        <time>2023-09-02T14:52:36Z</time>
      </trkpt>
      <trkpt lat="55.986388977617025" lon="-4.307650979608297">
        <ele>74.640000000000001</ele>
        <time>2023-09-02T14:52:37Z</time>
      </trkpt>
      <trkpt lat="55.985609963536263" lon="-4.3062399700284">
        <ele>72.239999999999995</ele>
        <time>2023-09-02T14:52:49Z</time>
      </trkpt>
      <trkpt lat="55.985272005200386" lon="-4.305647034198046">
        <ele>72.239999999999995</ele>
        <time>2023-09-02T14:52:56Z</time>
      </trkpt>
      <trkpt lat="55.984901022166014" lon="-4.305192986503243">
        <ele>71.760000000000005</ele>
        <time>2023-09-02T14:53:01Z</time>
      </trkpt>
      <trkpt lat="55.984709998592734" lon="-4.305095002055168">
        <ele>71.269999999999996</ele>
        <time>2023-09-02T14:53:03Z</time>
      </trkpt>
      <trkpt lat="55.984328035265207" lon="-4.304967010393739">
        <ele>69.829999999999998</ele>
        <time>2023-09-02T14:53:07Z</time>
      </trkpt>
      <trkpt lat="55.984236001968384" lon="-4.304967010393739">
        <ele>69.829999999999998</ele>
        <time>2023-09-02T14:53:08Z</time>
      </trkpt>
      <trkpt lat="55.983564024791121" lon="-4.304934991523624">
        <ele>70.310000000000002</ele>
        <time>2023-09-02T14:53:15Z</time>
      </trkpt>
      <trkpt lat="55.98345497623086" lon="-4.304912025108933">
        <ele>70.790000000000006</ele>
        <time>2023-09-02T14:53:16Z</time>
      </trkpt>
      <trkpt lat="55.983158005401492" lon="-4.304825020954013">
        <ele>72.239999999999995</ele>
        <time>2023-09-02T14:53:19Z</time>
      </trkpt>
      <trkpt lat="55.983078964054585" lon="-4.304703986272216">
        <ele>73.200000000000003</ele>
        <time>2023-09-02T14:53:20Z</time>
      </trkpt>
      <trkpt lat="55.983020039275289" lon="-4.304579012095928">
        <ele>74.159999999999997</ele>
        <time>2023-09-02T14:53:21Z</time>
      </trkpt>
      <trkpt lat="55.982953989878297" lon="-4.304440040141344">
        <ele>74.640000000000001</ele>
        <time>2023-09-02T14:53:22Z</time>
      </trkpt>
      <trkpt lat="55.982882995158434" lon="-4.304287992417812">
        <ele>75.599999999999994</ele>
        <time>2023-09-02T14:53:23Z</time>
      </trkpt>
      <trkpt lat="55.98272499628365" lon="-4.303923966363072">
        <ele>77.519999999999996</ele>
        <time>2023-09-02T14:53:25Z</time>
      </trkpt>
      <trkpt lat="55.982650984078646" lon="-4.303736966103315">
        <ele>78</ele>
        <time>2023-09-02T14:53:26Z</time>
      </trkpt>
      <trkpt lat="55.982450991868973" lon="-4.303224999457598">
        <ele>80.409999999999997</ele>
        <time>2023-09-02T14:53:29Z</time>
      </trkpt>
      <trkpt lat="55.982396006584167" lon="-4.303046967834234">
        <ele>80.890000000000001</ele>
        <time>2023-09-02T14:53:30Z</time>
      </trkpt>
      <trkpt lat="55.982378991320729" lon="-4.302889974787831">
        <ele>81.370000000000005</ele>
        <time>2023-09-02T14:53:31Z</time>
      </trkpt>
      <trkpt lat="55.982358958572149" lon="-4.302714038640261">
        <ele>81.849999999999994</ele>
        <time>2023-09-02T14:53:32Z</time>
      </trkpt>
      <trkpt lat="55.982358958572149" lon="-4.302561990916729">
        <ele>82.329999999999998</ele>
        <time>2023-09-02T14:53:33Z</time>
      </trkpt>
      <trkpt lat="55.982356024906039" lon="-4.302006019279361">
        <ele>82.810000000000002</ele>
        <time>2023-09-02T14:53:36Z</time>
      </trkpt>
      <trkpt lat="55.982330963015556" lon="-4.301816001534462">
        <ele>83.290000000000006</ele>
        <time>2023-09-02T14:53:37Z</time>
      </trkpt>
      <trkpt lat="55.982304979115725" lon="-4.301627995446324">
        <ele>82.810000000000002</ele>
        <time>2023-09-02T14:53:38Z</time>
      </trkpt>
      <trkpt lat="55.98225200548768" lon="-4.301233040168881">
        <ele>82.810000000000002</ele>
        <time>2023-09-02T14:53:40Z</time>
      </trkpt>
      <trkpt lat="55.982242031022906" lon="-4.301204960793257">
        <ele>82.810000000000002</ele>
        <time>2023-09-02T14:53:41Z</time>
      </trkpt>
      <trkpt lat="55.982214035466313" lon="-4.301118962466717">
        <ele>83.290000000000006</ele>
        <time>2023-09-02T14:53:42Z</time>
      </trkpt>
      <trkpt lat="55.982149997726083" lon="-4.301031036302447">
        <ele>83.769999999999996</ele>
        <time>2023-09-02T14:53:43Z</time>
      </trkpt>
      <trkpt lat="55.982063999399543" lon="-4.301071017980576">
        <ele>84.25</ele>
        <time>2023-09-02T14:53:44Z</time>
      </trkpt>
      <trkpt lat="55.98201303742826" lon="-4.301143018528819">
        <ele>84.730000000000004</ele>
        <time>2023-09-02T14:53:45Z</time>
      </trkpt>
      <trkpt lat="55.981967020779848" lon="-4.301272016018629">
        <ele>85.209999999999994</ele>
        <time>2023-09-02T14:53:46Z</time>
      </trkpt>
      <trkpt lat="55.981925027444959" lon="-4.301432026550174">
        <ele>85.209999999999994</ele>
        <time>2023-09-02T14:53:47Z</time>
      </trkpt>
      <trkpt lat="55.981879010796547" lon="-4.301610980182886">
        <ele>85.209999999999994</ele>
        <time>2023-09-02T14:53:48Z</time>
      </trkpt>
      <trkpt lat="55.981830982491374" lon="-4.301791023463011">
        <ele>85.689999999999998</ele>
        <time>2023-09-02T14:53:49Z</time>
      </trkpt>
      <trkpt lat="55.981783960014582" lon="-4.301970982924104">
        <ele>85.689999999999998</ele>
        <time>2023-09-02T14:53:50Z</time>
      </trkpt>
      <trkpt lat="55.981716988608241" lon="-4.302152032032609">
        <ele>86.180000000000007</ele>
        <time>2023-09-02T14:53:51Z</time>
      </trkpt>
      <trkpt lat="55.981635013595223" lon="-4.302316987887025">
        <ele>87.140000000000001</ele>
        <time>2023-09-02T14:53:52Z</time>
      </trkpt>
      <trkpt lat="55.981394033879042" lon="-4.302800036966801">
        <ele>89.060000000000002</ele>
        <time>2023-09-02T14:53:55Z</time>
      </trkpt>
      <trkpt lat="55.981290014460683" lon="-4.302889974787831">
        <ele>90.019999999999996</ele>
        <time>2023-09-02T14:53:56Z</time>
      </trkpt>
      <trkpt lat="55.981202004477382" lon="-4.30294998921454">
        <ele>90.980000000000004</ele>
        <time>2023-09-02T14:53:57Z</time>
      </trkpt>
      <trkpt lat="55.981110977008939" lon="-4.30294998921454">
        <ele>91.939999999999998</ele>
        <time>2023-09-02T14:53:58Z</time>
      </trkpt>
      <trkpt lat="55.981006035581231" lon="-4.30294998921454">
        <ele>93.390000000000001</ele>
        <time>2023-09-02T14:53:59Z</time>
      </trkpt>
      <trkpt lat="55.980885000899434" lon="-4.302939008921385">
        <ele>94.829999999999998</ele>
        <time>2023-09-02T14:54:00Z</time>
      </trkpt>
      <trkpt lat="55.979697033762932" lon="-4.30280095897615">
        <ele>101.56</ele>
        <time>2023-09-02T14:54:07Z</time>
      </trkpt>
      <trkpt lat="55.978865968063474" lon="-4.302668021991849">
        <ele>102.52</ele>
        <time>2023-09-02T14:54:11Z</time>
      </trkpt>
      <trkpt lat="55.978002967312932" lon="-4.30239200592041">
        <ele>104.44</ele>
        <time>2023-09-02T14:54:16Z</time>
      </trkpt>
      <trkpt lat="55.9778250195086" lon="-4.302444979548454">
        <ele>104.92</ele>
        <time>2023-09-02T14:54:17Z</time>
      </trkpt>
      <trkpt lat="55.977661991491914" lon="-4.302494013682008">
        <ele>105.40000000000001</ele>
        <time>2023-09-02T14:54:18Z</time>
      </trkpt>
      <trkpt lat="55.977504998445511" lon="-4.302573977038264">
        <ele>106.36</ele>
        <time>2023-09-02T14:54:19Z</time>
      </trkpt>
      <trkpt lat="55.977349011227489" lon="-4.3026930000633">
        <ele>106.84</ele>
        <time>2023-09-02T14:54:20Z</time>
      </trkpt>
      <trkpt lat="55.977028990164399" lon="-4.302938003093004">
        <ele>108.29000000000001</ele>
        <time>2023-09-02T14:54:22Z</time>
      </trkpt>
      <trkpt lat="55.976861016824841" lon="-4.303030036389828">
        <ele>109.25</ele>
        <time>2023-09-02T14:54:23Z</time>
      </trkpt>
      <trkpt lat="55.976687008515" lon="-4.303047973662615">
        <ele>109.73</ele>
        <time>2023-09-02T14:54:24Z</time>
      </trkpt>
      <trkpt lat="55.976521968841553" lon="-4.303018972277641">
        <ele>110.20999999999999</ele>
        <time>2023-09-02T14:54:25Z</time>
      </trkpt>
      <trkpt lat="55.97636598162353" lon="-4.302990976721048">
        <ele>110.69</ele>
        <time>2023-09-02T14:54:26Z</time>
      </trkpt>
      <trkpt lat="55.975293014198542" lon="-4.302943032234907">
        <ele>112.13</ele>
        <time>2023-09-02T14:54:33Z</time>
      </trkpt>
      <trkpt lat="55.975139960646629" lon="-4.30299399420619">
        <ele>112.13</ele>
        <time>2023-09-02T14:54:34Z</time>
      </trkpt>
      <trkpt lat="55.97464500926435" lon="-4.303224999457598">
        <ele>113.09</ele>
        <time>2023-09-02T14:54:37Z</time>
      </trkpt>
      <trkpt lat="55.974461026489735" lon="-4.303234973922372">
        <ele>113.09</ele>
        <time>2023-09-02T14:54:38Z</time>
      </trkpt>
      <trkpt lat="55.974274026229978" lon="-4.303213013336062">
        <ele>113.56999999999999</ele>
        <time>2023-09-02T14:54:39Z</time>
      </trkpt>
      <trkpt lat="55.974080990999937" lon="-4.303190968930721">
        <ele>114.05</ele>
        <time>2023-09-02T14:54:40Z</time>
      </trkpt>
      <trkpt lat="55.973882004618645" lon="-4.303166996687651">
        <ele>114.53</ele>
        <time>2023-09-02T14:54:41Z</time>
      </trkpt>
      <trkpt lat="55.972447022795677" lon="-4.303131038323045">
        <ele>123.67</ele>
        <time>2023-09-02T14:54:49Z</time>
      </trkpt>
      <trkpt lat="55.971026038751006" lon="-4.303241008892655">
        <ele>132.31999999999999</ele>
        <time>2023-09-02T14:54:58Z</time>
      </trkpt>
      <trkpt lat="55.970381973311305" lon="-4.303212007507682">
        <ele>135.68000000000001</ele>
        <time>2023-09-02T14:55:02Z</time>
      </trkpt>
      <trkpt lat="55.97024098969996" lon="-4.303147969767451">
        <ele>136.16</ele>
        <time>2023-09-02T14:55:03Z</time>
      </trkpt>
      <trkpt lat="55.97009296528995" lon="-4.302999023348093">
        <ele>136.63999999999999</ele>
        <time>2023-09-02T14:55:04Z</time>
      </trkpt>
      <trkpt lat="55.968567961826921" lon="-4.301463039591909">
        <ele>139.05000000000001</ele>
        <time>2023-09-02T14:55:13Z</time>
      </trkpt>
      <trkpt lat="55.966929970309138" lon="-4.299621032550931">
        <ele>142.41</ele>
        <time>2023-09-02T14:55:22Z</time>
      </trkpt>
      <trkpt lat="55.965503035113215" lon="-4.297511978074908">
        <ele>147.22</ele>
        <time>2023-09-02T14:55:32Z</time>
      </trkpt>
      <trkpt lat="55.964107029139996" lon="-4.295383980497718">
        <ele>143.84999999999999</ele>
        <time>2023-09-02T14:55:42Z</time>
      </trkpt>
      <trkpt lat="55.96269903704524" lon="-4.293211977928877">
        <ele>140.00999999999999</ele>
        <time>2023-09-02T14:55:53Z</time>
      </trkpt>
      <trkpt lat="55.962597029283643" lon="-4.293012991547585">
        <ele>139.53</ele>
        <time>2023-09-02T14:55:54Z</time>
      </trkpt>
      <trkpt lat="55.962295029312372" lon="-4.292123001068831">
        <ele>138.56999999999999</ele>
        <time>2023-09-02T14:55:58Z</time>
      </trkpt>
      <trkpt lat="55.961911976337433" lon="-4.29085498675704">
        <ele>137.61000000000001</ele>
        <time>2023-09-02T14:56:04Z</time>
      </trkpt>
      <trkpt lat="55.961821032688022" lon="-4.290663041174412">
        <ele>137.61000000000001</ele>
        <time>2023-09-02T14:56:05Z</time>
      </trkpt>
      <trkpt lat="55.961486008018255" lon="-4.289958039298654">
        <ele>138.56999999999999</ele>
        <time>2023-09-02T14:56:09Z</time>
      </trkpt>
      <trkpt lat="55.961434040218592" lon="-4.28975896909833">
        <ele>138.56999999999999</ele>
        <time>2023-09-02T14:56:10Z</time>
      </trkpt>
      <trkpt lat="55.961385006085038" lon="-4.289557971060276">
        <ele>138.56999999999999</ele>
        <time>2023-09-02T14:56:11Z</time>
      </trkpt>
      <trkpt lat="55.960993990302086" lon="-4.287978988140822">
        <ele>136.16</ele>
        <time>2023-09-02T14:56:18Z</time>
      </trkpt>
      <trkpt lat="55.960904974490404" lon="-4.287831969559193">
        <ele>135.68000000000001</ele>
        <time>2023-09-02T14:56:19Z</time>
      </trkpt>
      <trkpt lat="55.960801960900426" lon="-4.287682017311454">
        <ele>135.68000000000001</ele>
        <time>2023-09-02T14:56:20Z</time>
      </trkpt>
      <trkpt lat="55.960688972845674" lon="-4.287554025650024">
        <ele>135.19999999999999</ele>
        <time>2023-09-02T14:56:21Z</time>
      </trkpt>
      <trkpt lat="55.960557041689754" lon="-4.287441037595272">
        <ele>135.19999999999999</ele>
        <time>2023-09-02T14:56:22Z</time>
      </trkpt>
      <trkpt lat="55.960416980087757" lon="-4.287321008741856">
        <ele>134.72</ele>
        <time>2023-09-02T14:56:23Z</time>
      </trkpt>
      <trkpt lat="55.959709966555238" lon="-4.286628998816013">
        <ele>131.84</ele>
        <time>2023-09-02T14:56:28Z</time>
      </trkpt>
      <trkpt lat="55.958970012143254" lon="-4.285827018320561">
        <ele>123.67</ele>
        <time>2023-09-02T14:56:34Z</time>
      </trkpt>
      <trkpt lat="55.958823999390006" lon="-4.285827018320561">
        <ele>122.70999999999999</ele>
        <time>2023-09-02T14:56:35Z</time>
      </trkpt>
      <trkpt lat="55.958690978586674" lon="-4.285827018320561">
        <ele>121.26000000000001</ele>
        <time>2023-09-02T14:56:36Z</time>
      </trkpt>
      <trkpt lat="55.958589976653457" lon="-4.285860965028405">
        <ele>119.81999999999999</ele>
        <time>2023-09-02T14:56:37Z</time>
      </trkpt>
      <trkpt lat="55.958455028012395" lon="-4.285904970020056">
        <ele>118.38</ele>
        <time>2023-09-02T14:56:38Z</time>
      </trkpt>
      <trkpt lat="55.958049008622766" lon="-4.286119965836406">
        <ele>115.01000000000001</ele>
        <time>2023-09-02T14:56:41Z</time>
      </trkpt>
      <trkpt lat="55.957906013354659" lon="-4.286202024668455">
        <ele>114.53</ele>
        <time>2023-09-02T14:56:42Z</time>
      </trkpt>
      <trkpt lat="55.957782967016101" lon="-4.286293974146247">
        <ele>113.56999999999999</ele>
        <time>2023-09-02T14:56:43Z</time>
      </trkpt>
      <trkpt lat="55.957666039466858" lon="-4.286446021869779">
        <ele>113.09</ele>
        <time>2023-09-02T14:56:44Z</time>
      </trkpt>
      <trkpt lat="55.957555985078216" lon="-4.286591028794646">
        <ele>112.13</ele>
        <time>2023-09-02T14:56:45Z</time>
      </trkpt>
      <trkpt lat="55.957492031157017" lon="-4.286783980205655">
        <ele>111.65000000000001</ele>
        <time>2023-09-02T14:56:46Z</time>
      </trkpt>
      <trkpt lat="55.957430005073547" lon="-4.287032000720501">
        <ele>111.17</ele>
        <time>2023-09-02T14:56:47Z</time>
      </trkpt>
      <trkpt lat="55.95737099647522" lon="-4.287284966558218">
        <ele>110.69</ele>
        <time>2023-09-02T14:56:48Z</time>
      </trkpt>
      <trkpt lat="55.957323973998427" lon="-4.287550002336502">
        <ele>110.20999999999999</ele>
        <time>2023-09-02T14:56:49Z</time>
      </trkpt>
      <trkpt lat="55.957278041169047" lon="-4.287807997316122">
        <ele>109.25</ele>
        <time>2023-09-02T14:56:50Z</time>
      </trkpt>
      <trkpt lat="55.957188019528985" lon="-4.288033973425627">
        <ele>108.29000000000001</ele>
        <time>2023-09-02T14:56:51Z</time>
      </trkpt>
      <trkpt lat="55.95709296874702" lon="-4.288222985342145">
        <ele>107.81</ele>
        <time>2023-09-02T14:56:52Z</time>
      </trkpt>
      <trkpt lat="55.956975035369396" lon="-4.288356006145477">
        <ele>106.84</ele>
        <time>2023-09-02T14:56:53Z</time>
      </trkpt>
      <trkpt lat="55.956847965717316" lon="-4.288497995585203">
        <ele>106.36</ele>
        <time>2023-09-02T14:56:54Z</time>
      </trkpt>
      <trkpt lat="55.956717040389776" lon="-4.288602015003562">
        <ele>106.36</ele>
        <time>2023-09-02T14:56:55Z</time>
      </trkpt>
      <trkpt lat="55.956573961302638" lon="-4.288667980581522">
        <ele>106.36</ele>
        <time>2023-09-02T14:56:56Z</time>
      </trkpt>
      <trkpt lat="55.956429038196802" lon="-4.288734029978514">
        <ele>106.84</ele>
        <time>2023-09-02T14:56:57Z</time>
      </trkpt>
      <trkpt lat="55.956282019615173" lon="-4.28879396058619">
        <ele>106.84</ele>
        <time>2023-09-02T14:56:58Z</time>
      </trkpt>
      <trkpt lat="55.955497976392508" lon="-4.28894299082458">
        <ele>107.81</ele>
        <time>2023-09-02T14:57:03Z</time>
      </trkpt>
      <trkpt lat="55.955342995002866" lon="-4.288999987766147">
        <ele>107.31999999999999</ele>
        <time>2023-09-02T14:57:04Z</time>
      </trkpt>
      <trkpt lat="55.955203017219901" lon="-4.289087997749448">
        <ele>106.84</ele>
        <time>2023-09-02T14:57:05Z</time>
      </trkpt>
      <trkpt lat="55.954721979796886" lon="-4.289496028795838">
        <ele>105.40000000000001</ele>
        <time>2023-09-02T14:57:09Z</time>
      </trkpt>
      <trkpt lat="55.954611003398895" lon="-4.289708007127047">
        <ele>104.92</ele>
        <time>2023-09-02T14:57:10Z</time>
      </trkpt>
      <trkpt lat="55.954523999243975" lon="-4.289874974638224">
        <ele>104.44</ele>
        <time>2023-09-02T14:57:11Z</time>
      </trkpt>
      <trkpt lat="55.954457027837634" lon="-4.290049988776445">
        <ele>103.95999999999999</ele>
        <time>2023-09-02T14:57:12Z</time>
      </trkpt>
      <trkpt lat="55.954429032281041" lon="-4.290283005684614">
        <ele>103.48</ele>
        <time>2023-09-02T14:57:13Z</time>
      </trkpt>
      <trkpt lat="55.954400030896068" lon="-4.290525997057557">
        <ele>103</ele>
        <time>2023-09-02T14:57:14Z</time>
      </trkpt>
      <trkpt lat="55.954395001754165" lon="-4.290745016187429">
        <ele>103</ele>
        <time>2023-09-02T14:57:15Z</time>
      </trkpt>
      <trkpt lat="55.954260975122452" lon="-4.292906038463116">
        <ele>100.59999999999999</ele>
        <time>2023-09-02T14:57:25Z</time>
      </trkpt>
      <trkpt lat="55.954143963754177" lon="-4.29328397847712">
        <ele>100.59999999999999</ele>
        <time>2023-09-02T14:57:27Z</time>
      </trkpt>
      <trkpt lat="55.954069029539824" lon="-4.29345203563571">
        <ele>100.59999999999999</ele>
        <time>2023-09-02T14:57:28Z</time>
      </trkpt>
      <trkpt lat="55.953979007899761" lon="-4.293613974004984">
        <ele>100.59999999999999</ele>
        <time>2023-09-02T14:57:29Z</time>
      </trkpt>
      <trkpt lat="55.95389099791646" lon="-4.293772978708148">
        <ele>100.59999999999999</ele>
        <time>2023-09-02T14:57:30Z</time>
      </trkpt>
      <trkpt lat="55.953801982104778" lon="-4.293931983411312">
        <ele>100.59999999999999</ele>
        <time>2023-09-02T14:57:31Z</time>
      </trkpt>
      <trkpt lat="55.953688994050026" lon="-4.294029967859387">
        <ele>100.59999999999999</ele>
        <time>2023-09-02T14:57:32Z</time>
      </trkpt>
      <trkpt lat="55.953572988510132" lon="-4.294126024469733">
        <ele>100.59999999999999</ele>
        <time>2023-09-02T14:57:33Z</time>
      </trkpt>
      <trkpt lat="55.95346100628376" lon="-4.294219985604286">
        <ele>101.08</ele>
        <time>2023-09-02T14:57:34Z</time>
      </trkpt>
      <trkpt lat="55.953345000743866" lon="-4.294282011687756">
        <ele>101.08</ele>
        <time>2023-09-02T14:57:35Z</time>
      </trkpt>
      <trkpt lat="55.953216003254056" lon="-4.294325010851026">
        <ele>100.59999999999999</ele>
        <time>2023-09-02T14:57:36Z</time>
      </trkpt>
      <trkpt lat="55.952953984960914" lon="-4.294412015005946">
        <ele>100.59999999999999</ele>
        <time>2023-09-02T14:57:38Z</time>
      </trkpt>
      <trkpt lat="55.952449981123209" lon="-4.294580994173884">
        <ele>100.11</ele>
        <time>2023-09-02T14:57:42Z</time>
      </trkpt>
      <trkpt lat="55.951987970620394" lon="-4.29474301636219">
        <ele>99.150000000000006</ele>
        <time>2023-09-02T14:57:46Z</time>
      </trkpt>
      <trkpt lat="55.951874982565641" lon="-4.294782998040319">
        <ele>99.150000000000006</ele>
        <time>2023-09-02T14:57:47Z</time>
      </trkpt>
      <trkpt lat="55.950970994308591" lon="-4.29506597109139">
        <ele>98.670000000000002</ele>
        <time>2023-09-02T14:57:55Z</time>
      </trkpt>
      <trkpt lat="55.950751975178719" lon="-4.295138977468014">
        <ele>98.189999999999998</ele>
        <time>2023-09-02T14:57:57Z</time>
      </trkpt>
      <trkpt lat="55.950644016265869" lon="-4.295175019651651">
        <ele>98.189999999999998</ele>
        <time>2023-09-02T14:57:58Z</time>
      </trkpt>
      <trkpt lat="55.95043295994401" lon="-4.295334024354816">
        <ele>97.709999999999994</ele>
        <time>2023-09-02T14:58:00Z</time>
      </trkpt>
      <trkpt lat="55.950332963839173" lon="-4.295414993539453">
        <ele>97.230000000000004</ele>
        <time>2023-09-02T14:58:01Z</time>
      </trkpt>
      <trkpt lat="55.950246965512633" lon="-4.295527981594205">
        <ele>96.75</ele>
        <time>2023-09-02T14:58:02Z</time>
      </trkpt>
      <trkpt lat="55.950163984671235" lon="-4.29566502571106">
        <ele>96.269999999999996</ele>
        <time>2023-09-02T14:58:03Z</time>
      </trkpt>
      <trkpt lat="55.950083015486598" lon="-4.295798968523741">
        <ele>95.790000000000006</ele>
        <time>2023-09-02T14:58:04Z</time>
      </trkpt>
      <trkpt lat="55.949450014159083" lon="-4.296937985345721">
        <ele>90.980000000000004</ele>
        <time>2023-09-02T14:58:12Z</time>
      </trkpt>
      <trkpt lat="55.948634035885334" lon="-4.298459971323609">
        <ele>87.620000000000005</ele>
        <time>2023-09-02T14:58:22Z</time>
      </trkpt>
      <trkpt lat="55.948384003713727" lon="-4.298926005139947">
        <ele>88.099999999999994</ele>
        <time>2023-09-02T14:58:25Z</time>
      </trkpt>
      <trkpt lat="55.948301022872329" lon="-4.299080986529589">
        <ele>87.620000000000005</ele>
        <time>2023-09-02T14:58:26Z</time>
      </trkpt>
      <trkpt lat="55.948135983198881" lon="-4.299390027299523">
        <ele>87.140000000000001</ele>
        <time>2023-09-02T14:58:28Z</time>
      </trkpt>
      <trkpt lat="55.948054008185863" lon="-4.299541991204023">
        <ele>86.659999999999997</ele>
        <time>2023-09-02T14:58:29Z</time>
      </trkpt>
      <trkpt lat="55.947734992951155" lon="-4.300150014460087">
        <ele>84.730000000000004</ele>
        <time>2023-09-02T14:58:33Z</time>
      </trkpt>
      <trkpt lat="55.947657041251659" lon="-4.300298960879445">
        <ele>84.25</ele>
        <time>2023-09-02T14:58:34Z</time>
      </trkpt>
      <trkpt lat="55.947292009368539" lon="-4.301012009382248">
        <ele>79.930000000000007</ele>
        <time>2023-09-02T14:58:39Z</time>
      </trkpt>
      <trkpt lat="55.947224032133818" lon="-4.301149975508452">
        <ele>78.969999999999999</ele>
        <time>2023-09-02T14:58:40Z</time>
      </trkpt>
      <trkpt lat="55.947155971080065" lon="-4.301288025453687">
        <ele>78</ele>
        <time>2023-09-02T14:58:41Z</time>
      </trkpt>
      <trkpt lat="55.947086988016963" lon="-4.301430014893413">
        <ele>77.040000000000006</ele>
        <time>2023-09-02T14:58:42Z</time>
      </trkpt>
      <trkpt lat="55.947023034095764" lon="-4.301561024039984">
        <ele>75.599999999999994</ele>
        <time>2023-09-02T14:58:43Z</time>
      </trkpt>
      <trkpt lat="55.946956984698772" lon="-4.301695972681046">
        <ele>74.640000000000001</ele>
        <time>2023-09-02T14:58:44Z</time>
      </trkpt>
      <trkpt lat="55.946892024949193" lon="-4.301828993484378">
        <ele>73.680000000000007</ele>
        <time>2023-09-02T14:58:45Z</time>
      </trkpt>
      <trkpt lat="55.946842990815639" lon="-4.301966959610581">
        <ele>72.719999999999999</ele>
        <time>2023-09-02T14:58:46Z</time>
      </trkpt>
      <trkpt lat="55.946572003886104" lon="-4.302987037226558">
        <ele>67.909999999999997</ele>
        <time>2023-09-02T14:58:52Z</time>
      </trkpt>
      <trkpt lat="55.946533028036356" lon="-4.303193986415863">
        <ele>67.430000000000007</ele>
        <time>2023-09-02T14:58:53Z</time>
      </trkpt>
      <trkpt lat="55.946492040529847" lon="-4.303413005545735">
        <ele>67.430000000000007</ele>
        <time>2023-09-02T14:58:54Z</time>
      </trkpt>
      <trkpt lat="55.946395983919501" lon="-4.305343022570014">
        <ele>70.310000000000002</ele>
        <time>2023-09-02T14:59:03Z</time>
      </trkpt>
      <trkpt lat="55.946407970041037" lon="-4.307845020666719">
        <ele>71.760000000000005</ele>
        <time>2023-09-02T14:59:16Z</time>
      </trkpt>
      <trkpt lat="55.946395983919501" lon="-4.308121036738157">
        <ele>72.239999999999995</ele>
        <time>2023-09-02T14:59:17Z</time>
      </trkpt>
      <trkpt lat="55.946352984756231" lon="-4.308636020869017">
        <ele>73.200000000000003</ele>
        <time>2023-09-02T14:59:20Z</time>
      </trkpt>
      <trkpt lat="55.946319960057735" lon="-4.308791002258658">
        <ele>73.200000000000003</ele>
        <time>2023-09-02T14:59:21Z</time>
      </trkpt>
      <trkpt lat="55.946277966722846" lon="-4.308968028053641">
        <ele>73.680000000000007</ele>
        <time>2023-09-02T14:59:22Z</time>
      </trkpt>
      <trkpt lat="55.94622197560966" lon="-4.309136001393199">
        <ele>73.680000000000007</ele>
        <time>2023-09-02T14:59:23Z</time>
      </trkpt>
      <trkpt lat="55.946165984496474" lon="-4.309305986389518">
        <ele>73.680000000000007</ele>
        <time>2023-09-02T14:59:24Z</time>
      </trkpt>
      <trkpt lat="55.946119967848063" lon="-4.309490974992514">
        <ele>73.680000000000007</ele>
        <time>2023-09-02T14:59:25Z</time>
      </trkpt>
      <trkpt lat="55.945873036980629" lon="-4.310162030160427">
        <ele>72.719999999999999</ele>
        <time>2023-09-02T14:59:29Z</time>
      </trkpt>
      <trkpt lat="55.945798018947244" lon="-4.310303013771772">
        <ele>72.239999999999995</ele>
        <time>2023-09-02T14:59:30Z</time>
      </trkpt>
      <trkpt lat="55.945696011185646" lon="-4.310379037633538">
        <ele>72.239999999999995</ele>
        <time>2023-09-02T14:59:31Z</time>
      </trkpt>
      <trkpt lat="55.945594003424048" lon="-4.310454977676272">
        <ele>71.760000000000005</ele>
        <time>2023-09-02T14:59:32Z</time>
      </trkpt>
      <trkpt lat="55.945493001490831" lon="-4.310506023466587">
        <ele>71.760000000000005</ele>
        <time>2023-09-02T14:59:33Z</time>
      </trkpt>
      <trkpt lat="55.945384036749601" lon="-4.310547010973096">
        <ele>71.269999999999996</ele>
        <time>2023-09-02T14:59:34Z</time>
      </trkpt>
      <trkpt lat="55.945035014301538" lon="-4.310650024563074">
        <ele>69.349999999999994</ele>
        <time>2023-09-02T14:59:37Z</time>
      </trkpt>
      <trkpt lat="55.9449109621346" lon="-4.310677014291287">
        <ele>68.870000000000005</ele>
        <time>2023-09-02T14:59:38Z</time>
      </trkpt>
      <trkpt lat="55.943819973617792" lon="-4.310843981802464">
        <ele>62.140000000000001</ele>
        <time>2023-09-02T14:59:48Z</time>
      </trkpt>
      <trkpt lat="55.943420995026827" lon="-4.310893015936017">
        <ele>60.700000000000003</ele>
        <time>2023-09-02T14:59:52Z</time>
      </trkpt>
      <trkpt lat="55.942453974857926" lon="-4.311181018128991">
        <ele>56.859999999999999</ele>
        <time>2023-09-02T15:00:02Z</time>
      </trkpt>
      <trkpt lat="55.942250965163112" lon="-4.311236003413796">
        <ele>54.93</ele>
        <time>2023-09-02T15:00:09Z</time>
      </trkpt>
      <trkpt lat="55.942168990150094" lon="-4.311254024505615">
        <ele>54.450000000000003</ele>
        <time>2023-09-02T15:00:19Z</time>
      </trkpt>
      <trkpt lat="55.942168990150094" lon="-4.311254024505615">
        <ele>54.93</ele>
        <time>2023-09-02T15:00:39Z</time>
      </trkpt>
      <trkpt lat="55.941982995718718" lon="-4.311263998970389">
        <ele>58.299999999999997</ele>
        <time>2023-09-02T15:00:47Z</time>
      </trkpt>
      <trkpt lat="55.941982995718718" lon="-4.311263998970389">
        <ele>58.780000000000001</ele>
        <time>2023-09-02T15:01:06Z</time>
      </trkpt>
      <trkpt lat="55.941757019609213" lon="-4.311275985091925">
        <ele>59.740000000000002</ele>
        <time>2023-09-02T15:01:40Z</time>
      </trkpt>
      <trkpt lat="55.941071966663003" lon="-4.311323007568717">
        <ele>59.259999999999998</ele>
        <time>2023-09-02T15:01:47Z</time>
      </trkpt>
      <trkpt lat="55.93986002728343" lon="-4.311360977590084">
        <ele>57.340000000000003</ele>
        <time>2023-09-02T15:01:57Z</time>
      </trkpt>
      <trkpt lat="55.938380034640431" lon="-4.311427026987076">
        <ele>53.969999999999999</ele>
        <time>2023-09-02T15:02:10Z</time>
      </trkpt>
      <trkpt lat="55.937847029417753" lon="-4.311503972858191">
        <ele>49.159999999999997</ele>
        <time>2023-09-02T15:02:18Z</time>
      </trkpt>
      <trkpt lat="55.937844011932611" lon="-4.311503972858191">
        <ele>48.200000000000003</ele>
        <time>2023-09-02T15:02:27Z</time>
      </trkpt>
      <trkpt lat="55.937493983656168" lon="-4.31145703420043">
        <ele>46.280000000000001</ele>
        <time>2023-09-02T15:02:32Z</time>
      </trkpt>
      <trkpt lat="55.937420977279544" lon="-4.31135100312531">
        <ele>45.799999999999997</ele>
        <time>2023-09-02T15:02:33Z</time>
      </trkpt>
      <trkpt lat="55.937343025580049" lon="-4.311237009242177">
        <ele>45.32</ele>
        <time>2023-09-02T15:02:34Z</time>
      </trkpt>
      <trkpt lat="55.93726197257638" lon="-4.311121003702283">
        <ele>44.840000000000003</ele>
        <time>2023-09-02T15:02:35Z</time>
      </trkpt>
      <trkpt lat="55.937189972028136" lon="-4.311016984283924">
        <ele>44.840000000000003</ele>
        <time>2023-09-02T15:02:36Z</time>
      </trkpt>
      <trkpt lat="55.937142027541995" lon="-4.310898967087269">
        <ele>44.359999999999999</ele>
        <time>2023-09-02T15:02:37Z</time>
      </trkpt>
      <trkpt lat="55.937096010893583" lon="-4.310785979032517">
        <ele>43.880000000000003</ele>
        <time>2023-09-02T15:02:38Z</time>
      </trkpt>
      <trkpt lat="55.937015041708946" lon="-4.310586992651224">
        <ele>43.399999999999999</ele>
        <time>2023-09-02T15:02:40Z</time>
      </trkpt>
      <trkpt lat="55.936976987868547" lon="-4.310493031516671">
        <ele>42.920000000000002</ele>
        <time>2023-09-02T15:02:41Z</time>
      </trkpt>
      <trkpt lat="55.936829969286919" lon="-4.310065973550081">
        <ele>41.950000000000003</ele>
        <time>2023-09-02T15:02:45Z</time>
      </trkpt>
      <trkpt lat="55.936639029532671" lon="-4.309314033016563">
        <ele>39.549999999999997</ele>
        <time>2023-09-02T15:02:50Z</time>
      </trkpt>
      <trkpt lat="55.936289001256227" lon="-4.30812799371779">
        <ele>37.149999999999999</ele>
        <time>2023-09-02T15:02:58Z</time>
      </trkpt>
      <trkpt lat="55.936147011816502" lon="-4.307707976549864">
        <ele>37.630000000000003</ele>
        <time>2023-09-02T15:03:01Z</time>
      </trkpt>
      <trkpt lat="55.936098983511329" lon="-4.307566992938519">
        <ele>37.630000000000003</ele>
        <time>2023-09-02T15:03:02Z</time>
      </trkpt>
      <trkpt lat="55.936050033196807" lon="-4.307421986013651">
        <ele>37.630000000000003</ele>
        <time>2023-09-02T15:03:03Z</time>
      </trkpt>
      <trkpt lat="55.93599496409297" lon="-4.307260969653726">
        <ele>37.630000000000003</ele>
        <time>2023-09-02T15:03:04Z</time>
      </trkpt>
      <trkpt lat="55.935919024050236" lon="-4.307103976607323">
        <ele>37.630000000000003</ele>
        <time>2023-09-02T15:03:05Z</time>
      </trkpt>
      <trkpt lat="55.935689024627209" lon="-4.306658981367946">
        <ele>37.149999999999999</ele>
        <time>2023-09-02T15:03:08Z</time>
      </trkpt>
      <trkpt lat="55.935311000794172" lon="-4.305923972278833">
        <ele>35.229999999999997</ele>
        <time>2023-09-02T15:03:13Z</time>
      </trkpt>
      <trkpt lat="55.935239000245929" lon="-4.305783994495869">
        <ele>34.740000000000002</ele>
        <time>2023-09-02T15:03:14Z</time>
      </trkpt>
      <trkpt lat="55.934479013085365" lon="-4.304306013509631">
        <ele>29.940000000000001</ele>
        <time>2023-09-02T15:03:25Z</time>
      </trkpt>
      <trkpt lat="55.933975009247661" lon="-4.303007991984487">
        <ele>27.050000000000001</ele>
        <time>2023-09-02T15:03:33Z</time>
      </trkpt>
      <trkpt lat="55.933923041447997" lon="-4.302830966189504">
        <ele>26.57</ele>
        <time>2023-09-02T15:03:34Z</time>
      </trkpt>
      <trkpt lat="55.933834025636315" lon="-4.302440034225583">
        <ele>25.609999999999999</ele>
        <time>2023-09-02T15:03:36Z</time>
      </trkpt>
      <trkpt lat="55.933656999841332" lon="-4.3011440243572">
        <ele>24.170000000000002</ele>
        <time>2023-09-02T15:03:41Z</time>
      </trkpt>
      <trkpt lat="55.933419959619641" lon="-4.298703968524933">
        <ele>23.210000000000001</ele>
        <time>2023-09-02T15:03:48Z</time>
      </trkpt>
      <trkpt lat="55.932783018797636" lon="-4.29607498459518">
        <ele>25.129999999999999</ele>
        <time>2023-09-02T15:03:55Z</time>
      </trkpt>
      <trkpt lat="55.931989001110196" lon="-4.293029000982642">
        <ele>28.5</ele>
        <time>2023-09-02T15:04:04Z</time>
      </trkpt>
      <trkpt lat="55.931342002004385" lon="-4.290632028132677">
        <ele>29.940000000000001</ele>
        <time>2023-09-02T15:04:12Z</time>
      </trkpt>
      <trkpt lat="55.93122499063611" lon="-4.290246963500977">
        <ele>30.420000000000002</ele>
        <time>2023-09-02T15:04:13Z</time>
      </trkpt>
      <trkpt lat="55.930202985182405" lon="-4.288060963153839">
        <ele>38.590000000000003</ele>
        <time>2023-09-02T15:04:21Z</time>
      </trkpt>
      <trkpt lat="55.92928902246058" lon="-4.285829029977322">
        <ele>42.920000000000002</ele>
        <time>2023-09-02T15:04:29Z</time>
      </trkpt>
      <trkpt lat="55.929144015535712" lon="-4.285280015319586">
        <ele>43.399999999999999</ele>
        <time>2023-09-02T15:04:31Z</time>
      </trkpt>
      <trkpt lat="55.928722992539406" lon="-4.283528029918671">
        <ele>42.439999999999998</ele>
        <time>2023-09-02T15:04:39Z</time>
      </trkpt>
      <trkpt lat="55.928429961204529" lon="-4.282188015058637">
        <ele>39.549999999999997</ele>
        <time>2023-09-02T15:04:48Z</time>
      </trkpt>
      <trkpt lat="55.928367013111711" lon="-4.282089024782181">
        <ele>39.07</ele>
        <time>2023-09-02T15:04:49Z</time>
      </trkpt>
      <trkpt lat="55.928285960108042" lon="-4.282072009518743">
        <ele>39.07</ele>
        <time>2023-09-02T15:04:50Z</time>
      </trkpt>
      <trkpt lat="55.928210020065308" lon="-4.282020963728428">
        <ele>39.07</ele>
        <time>2023-09-02T15:04:51Z</time>
      </trkpt>
      <trkpt lat="55.928128967061639" lon="-4.281966984272003">
        <ele>39.07</ele>
        <time>2023-09-02T15:04:52Z</time>
      </trkpt>
      <trkpt lat="55.928027965128422" lon="-4.281900012865663">
        <ele>39.549999999999997</ele>
        <time>2023-09-02T15:04:53Z</time>
      </trkpt>
      <trkpt lat="55.927727976813912" lon="-4.28159398958087">
        <ele>40.030000000000001</ele>
        <time>2023-09-02T15:04:56Z</time>
      </trkpt>
      <trkpt lat="55.927608031779528" lon="-4.28150799125433">
        <ele>40.509999999999998</ele>
        <time>2023-09-02T15:04:57Z</time>
      </trkpt>
      <trkpt lat="55.927478028461337" lon="-4.28144202567637">
        <ele>40.509999999999998</ele>
        <time>2023-09-02T15:04:58Z</time>
      </trkpt>
      <trkpt lat="55.925869038328528" lon="-4.280698969960213">
        <ele>46.759999999999998</ele>
        <time>2023-09-02T15:05:10Z</time>
      </trkpt>
      <trkpt lat="55.925288004800677" lon="-4.280494032427669">
        <ele>49.159999999999997</ele>
        <time>2023-09-02T15:05:14Z</time>
      </trkpt>
      <trkpt lat="55.925160013139248" lon="-4.280483974143863">
        <ele>50.130000000000003</ele>
        <time>2023-09-02T15:05:15Z</time>
      </trkpt>
      <trkpt lat="55.925044007599354" lon="-4.280553963035345">
        <ele>50.609999999999999</ele>
        <time>2023-09-02T15:05:16Z</time>
      </trkpt>
      <trkpt lat="55.924922972917557" lon="-4.280633004382253">
        <ele>51.090000000000003</ele>
        <time>2023-09-02T15:05:17Z</time>
      </trkpt>
      <trkpt lat="55.924801016226411" lon="-4.280711961910129">
        <ele>52.049999999999997</ele>
        <time>2023-09-02T15:05:18Z</time>
      </trkpt>
      <trkpt lat="55.924677969887853" lon="-4.280792009085417">
        <ele>52.530000000000001</ele>
        <time>2023-09-02T15:05:19Z</time>
      </trkpt>
      <trkpt lat="55.924193998798728" lon="-4.281016979366541">
        <ele>54.450000000000003</ele>
        <time>2023-09-02T15:05:23Z</time>
      </trkpt>
      <trkpt lat="55.924066007137299" lon="-4.281030977144837">
        <ele>54.93</ele>
        <time>2023-09-02T15:05:24Z</time>
      </trkpt>
      <trkpt lat="55.923952013254166" lon="-4.281025025993586">
        <ele>55.890000000000001</ele>
        <time>2023-09-02T15:05:25Z</time>
      </trkpt>
      <trkpt lat="55.923839025199413" lon="-4.280938021838665">
        <ele>56.369999999999997</ele>
        <time>2023-09-02T15:05:26Z</time>
      </trkpt>
      <trkpt lat="55.923721008002758" lon="-4.280846994370222">
        <ele>56.859999999999999</ele>
        <time>2023-09-02T15:05:27Z</time>
      </trkpt>
      <trkpt lat="55.92359896749258" lon="-4.280753033235669">
        <ele>57.340000000000003</ele>
        <time>2023-09-02T15:05:28Z</time>
      </trkpt>
      <trkpt lat="55.923484973609447" lon="-4.280645996332169">
        <ele>57.82</ele>
        <time>2023-09-02T15:05:29Z</time>
      </trkpt>
      <trkpt lat="55.923397969454527" lon="-4.280479028820992">
        <ele>58.299999999999997</ele>
        <time>2023-09-02T15:05:30Z</time>
      </trkpt>
      <trkpt lat="55.923312976956367" lon="-4.280314994975925">
        <ele>58.299999999999997</ele>
        <time>2023-09-02T15:05:31Z</time>
      </trkpt>
      <trkpt lat="55.923229996114969" lon="-4.28015498444438">
        <ele>58.780000000000001</ele>
        <time>2023-09-02T15:05:32Z</time>
      </trkpt>
      <trkpt lat="55.923162018880248" lon="-4.279984999448061">
        <ele>59.259999999999998</ele>
        <time>2023-09-02T15:05:33Z</time>
      </trkpt>
      <trkpt lat="55.92310301028192" lon="-4.279813002794981">
        <ele>59.259999999999998</ele>
        <time>2023-09-02T15:05:34Z</time>
      </trkpt>
      <trkpt lat="55.922740995883942" lon="-4.278754033148289">
        <ele>60.700000000000003</ele>
        <time>2023-09-02T15:05:40Z</time>
      </trkpt>
      <trkpt lat="55.922676958143711" lon="-4.278566027060151">
        <ele>60.700000000000003</ele>
        <time>2023-09-02T15:05:41Z</time>
      </trkpt>
      <trkpt lat="55.922581991180778" lon="-4.278396964073181">
        <ele>60.700000000000003</ele>
        <time>2023-09-02T15:05:42Z</time>
      </trkpt>
      <trkpt lat="55.922470008954406" lon="-4.278267966583371">
        <ele>60.219999999999999</ele>
        <time>2023-09-02T15:05:43Z</time>
      </trkpt>
      <trkpt lat="55.922352997586131" lon="-4.278132012113929">
        <ele>60.219999999999999</ele>
        <time>2023-09-02T15:05:44Z</time>
      </trkpt>
      <trkpt lat="55.922231040894985" lon="-4.277991028502584">
        <ele>59.740000000000002</ele>
        <time>2023-09-02T15:05:45Z</time>
      </trkpt>
      <trkpt lat="55.920740989968181" lon="-4.276424031704664">
        <ele>48.200000000000003</ele>
        <time>2023-09-02T15:05:57Z</time>
      </trkpt>
      <trkpt lat="55.919817974790931" lon="-4.275488024577498">
        <ele>43.880000000000003</ele>
        <time>2023-09-02T15:06:04Z</time>
      </trkpt>
      <trkpt lat="55.919694006443024" lon="-4.27536103874445">
        <ele>43.399999999999999</ele>
        <time>2023-09-02T15:06:05Z</time>
      </trkpt>
      <trkpt lat="55.919565008953214" lon="-4.275229023769498">
        <ele>42.920000000000002</ele>
        <time>2023-09-02T15:06:06Z</time>
      </trkpt>
      <trkpt lat="55.918790018185973" lon="-4.274523016065359">
        <ele>40.990000000000002</ele>
        <time>2023-09-02T15:06:12Z</time>
      </trkpt>
      <trkpt lat="55.918658003211021" lon="-4.274452021345496">
        <ele>40.509999999999998</ele>
        <time>2023-09-02T15:06:13Z</time>
      </trkpt>
      <trkpt lat="55.918120974674821" lon="-4.274125965312123">
        <ele>39.549999999999997</ele>
        <time>2023-09-02T15:06:17Z</time>
      </trkpt>
      <trkpt lat="55.917992983013391" lon="-4.27401096560061">
        <ele>39.07</ele>
        <time>2023-09-02T15:06:18Z</time>
      </trkpt>
      <trkpt lat="55.917864991351962" lon="-4.27388297393918">
        <ele>39.07</ele>
        <time>2023-09-02T15:06:19Z</time>
      </trkpt>
      <trkpt lat="55.917744962498546" lon="-4.273746013641357">
        <ele>38.590000000000003</ele>
        <time>2023-09-02T15:06:20Z</time>
      </trkpt>
      <trkpt lat="55.917632980272174" lon="-4.273594971746206">
        <ele>39.07</ele>
        <time>2023-09-02T15:06:21Z</time>
      </trkpt>
      <trkpt lat="55.916558001190424" lon="-4.272384038195014">
        <ele>45.799999999999997</ele>
        <time>2023-09-02T15:06:31Z</time>
      </trkpt>
      <trkpt lat="55.915520992130041" lon="-4.271631008014083">
        <ele>50.130000000000003</ele>
        <time>2023-09-02T15:06:41Z</time>
      </trkpt>
      <trkpt lat="55.914081986993551" lon="-4.270677985623479">
        <ele>54.93</ele>
        <time>2023-09-02T15:06:50Z</time>
      </trkpt>
      <trkpt lat="55.912325978279114" lon="-4.269514996558428">
        <ele>65.989999999999995</ele>
        <time>2023-09-02T15:07:00Z</time>
      </trkpt>
      <trkpt lat="55.91098302975297" lon="-4.269203022122383">
        <ele>73.680000000000007</ele>
        <time>2023-09-02T15:07:08Z</time>
      </trkpt>
      <trkpt lat="55.909319976344705" lon="-4.268859028816223">
        <ele>75.120000000000005</ele>
        <time>2023-09-02T15:07:18Z</time>
      </trkpt>
      <trkpt lat="55.909033985808492" lon="-4.268798008561134">
        <ele>75.120000000000005</ele>
        <time>2023-09-02T15:07:20Z</time>
      </trkpt>
      <trkpt lat="55.908883027732372" lon="-4.268781999126077">
        <ele>75.120000000000005</ele>
        <time>2023-09-02T15:07:21Z</time>
      </trkpt>
      <trkpt lat="55.908722011372447" lon="-4.268771018832922">
        <ele>75.120000000000005</ele>
        <time>2023-09-02T15:07:22Z</time>
      </trkpt>
      <trkpt lat="55.906869024038315" lon="-4.268957013264298">
        <ele>69.829999999999998</ele>
        <time>2023-09-02T15:07:33Z</time>
      </trkpt>
      <trkpt lat="55.90464798733592" lon="-4.269061032682657">
        <ele>64.549999999999997</ele>
        <time>2023-09-02T15:07:45Z</time>
      </trkpt>
      <trkpt lat="55.903886994346976" lon="-4.269099002704024">
        <ele>61.659999999999997</ele>
        <time>2023-09-02T15:07:49Z</time>
      </trkpt>
      <trkpt lat="55.9037009999156" lon="-4.269109982997179">
        <ele>61.18</ele>
        <time>2023-09-02T15:07:50Z</time>
      </trkpt>
      <trkpt lat="55.902387974783778" lon="-4.269164968281984">
        <ele>58.780000000000001</ele>
        <time>2023-09-02T15:07:58Z</time>
      </trkpt>
      <trkpt lat="55.901158014312387" lon="-4.269081987440586">
        <ele>58.780000000000001</ele>
        <time>2023-09-02T15:08:06Z</time>
      </trkpt>
      <trkpt lat="55.901021976023912" lon="-4.268986014649272">
        <ele>58.299999999999997</ele>
        <time>2023-09-02T15:08:07Z</time>
      </trkpt>
      <trkpt lat="55.900889039039612" lon="-4.26887302659452">
        <ele>58.780000000000001</ele>
        <time>2023-09-02T15:08:08Z</time>
      </trkpt>
      <trkpt lat="55.900758029893041" lon="-4.268763978034258">
        <ele>58.780000000000001</ele>
        <time>2023-09-02T15:08:09Z</time>
      </trkpt>
      <trkpt lat="55.900639006868005" lon="-4.268622994422913">
        <ele>58.299999999999997</ele>
        <time>2023-09-02T15:08:10Z</time>
      </trkpt>
      <trkpt lat="55.900523001328111" lon="-4.268461978062987">
        <ele>58.299999999999997</ele>
        <time>2023-09-02T15:08:11Z</time>
      </trkpt>
      <trkpt lat="55.899267978966236" lon="-4.266804959625006">
        <ele>59.740000000000002</ele>
        <time>2023-09-02T15:08:21Z</time>
      </trkpt>
      <trkpt lat="55.89835200458765" lon="-4.266162989661098">
        <ele>62.619999999999997</ele>
        <time>2023-09-02T15:08:28Z</time>
      </trkpt>
      <trkpt lat="55.898237004876137" lon="-4.266137005761266">
        <ele>63.100000000000001</ele>
        <time>2023-09-02T15:08:29Z</time>
      </trkpt>
      <trkpt lat="55.897864010185003" lon="-4.266056958585978">
        <ele>65.030000000000001</ele>
        <time>2023-09-02T15:08:35Z</time>
      </trkpt>
      <trkpt lat="55.897838026285172" lon="-4.266054024919868">
        <ele>65.510000000000005</ele>
        <time>2023-09-02T15:08:45Z</time>
      </trkpt>
      <trkpt lat="55.89755798690021" lon="-4.266021000221372">
        <ele>65.510000000000005</ele>
        <time>2023-09-02T15:09:02Z</time>
      </trkpt>
      <trkpt lat="55.896602030843496" lon="-4.265701984986663">
        <ele>61.659999999999997</ele>
        <time>2023-09-02T15:09:13Z</time>
      </trkpt>
      <trkpt lat="55.896143037825823" lon="-4.265323961153626">
        <ele>62.140000000000001</ele>
        <time>2023-09-02T15:09:18Z</time>
      </trkpt>
      <trkpt lat="55.896059973165393" lon="-4.265233017504215">
        <ele>62.619999999999997</ele>
        <time>2023-09-02T15:09:19Z</time>
      </trkpt>
      <trkpt lat="55.895995013415813" lon="-4.265109971165657">
        <ele>62.619999999999997</ele>
        <time>2023-09-02T15:09:20Z</time>
      </trkpt>
      <trkpt lat="55.895939022302628" lon="-4.264972005039454">
        <ele>63.100000000000001</ele>
        <time>2023-09-02T15:09:21Z</time>
      </trkpt>
      <trkpt lat="55.895884959027171" lon="-4.264840995892882">
        <ele>63.579999999999998</ele>
        <time>2023-09-02T15:09:22Z</time>
      </trkpt>
      <trkpt lat="55.895847994834185" lon="-4.264668999239802">
        <ele>64.069999999999993</ele>
        <time>2023-09-02T15:09:23Z</time>
      </trkpt>
      <trkpt lat="55.895813964307308" lon="-4.264516029506922">
        <ele>64.549999999999997</ele>
        <time>2023-09-02T15:09:24Z</time>
      </trkpt>
      <trkpt lat="55.895781023427844" lon="-4.264359036460519">
        <ele>65.030000000000001</ele>
        <time>2023-09-02T15:09:25Z</time>
      </trkpt>
      <trkpt lat="55.895745987072587" lon="-4.264200031757355">
        <ele>65.510000000000005</ele>
        <time>2023-09-02T15:09:26Z</time>
      </trkpt>
      <trkpt lat="55.895421020686626" lon="-4.262654995545745">
        <ele>65.989999999999995</ele>
        <time>2023-09-02T15:09:36Z</time>
      </trkpt>
      <trkpt lat="55.895367041230202" lon="-4.262426001951098">
        <ele>65.030000000000001</ele>
        <time>2023-09-02T15:09:40Z</time>
      </trkpt>
      <trkpt lat="55.895349020138383" lon="-4.262347966432571">
        <ele>64.549999999999997</ele>
        <time>2023-09-02T15:09:41Z</time>
      </trkpt>
      <trkpt lat="55.895326975733042" lon="-4.262249981984496">
        <ele>64.549999999999997</ele>
        <time>2023-09-02T15:09:42Z</time>
      </trkpt>
      <trkpt lat="55.895206024870276" lon="-4.261966003105044">
        <ele>63.579999999999998</ele>
        <time>2023-09-02T15:09:45Z</time>
      </trkpt>
      <trkpt lat="55.895039979368448" lon="-4.261644976213574">
        <ele>63.579999999999998</ele>
        <time>2023-09-02T15:09:48Z</time>
      </trkpt>
      <trkpt lat="55.894978959113359" lon="-4.26152503117919">
        <ele>63.579999999999998</ele>
        <time>2023-09-02T15:09:49Z</time>
      </trkpt>
      <trkpt lat="55.894431034103036" lon="-4.26098900847137">
        <ele>64.549999999999997</ele>
        <time>2023-09-02T15:09:55Z</time>
      </trkpt>
      <trkpt lat="55.89407597668469" lon="-4.260793961584568">
        <ele>67.430000000000007</ele>
        <time>2023-09-02T15:10:00Z</time>
      </trkpt>
      <trkpt lat="55.89401101693511" lon="-4.260759009048343">
        <ele>67.909999999999997</ele>
        <time>2023-09-02T15:10:01Z</time>
      </trkpt>
      <trkpt lat="55.893949996680021" lon="-4.260724978521466">
        <ele>68.390000000000001</ele>
        <time>2023-09-02T15:10:02Z</time>
      </trkpt>
      <trkpt lat="55.893892999738455" lon="-4.260693965479732">
        <ele>68.870000000000005</ele>
        <time>2023-09-02T15:10:03Z</time>
      </trkpt>
      <trkpt lat="55.893842959776521" lon="-4.260666975751519">
        <ele>69.349999999999994</ele>
        <time>2023-09-02T15:10:04Z</time>
      </trkpt>
      <trkpt lat="55.893760984763503" lon="-4.260621964931488">
        <ele>69.829999999999998</ele>
        <time>2023-09-02T15:10:07Z</time>
      </trkpt>
      <trkpt lat="55.893742963671684" lon="-4.260611990466714">
        <ele>70.310000000000002</ele>
        <time>2023-09-02T15:10:08Z</time>
      </trkpt>
      <trkpt lat="55.893699964508414" lon="-4.260588018223643">
        <ele>70.790000000000006</ele>
        <time>2023-09-02T15:10:18Z</time>
      </trkpt>
      <trkpt lat="55.893120020627975" lon="-4.260269002988935">
        <ele>71.269999999999996</ele>
        <time>2023-09-02T15:10:25Z</time>
      </trkpt>
      <trkpt lat="55.891956025734544" lon="-4.25968000665307">
        <ele>65.030000000000001</ele>
        <time>2023-09-02T15:10:37Z</time>
      </trkpt>
      <trkpt lat="55.890669990330935" lon="-4.259087992832065">
        <ele>62.140000000000001</ele>
        <time>2023-09-02T15:10:51Z</time>
      </trkpt>
      <trkpt lat="55.889275996014476" lon="-4.258639980107546">
        <ele>58.780000000000001</ele>
        <time>2023-09-02T15:11:04Z</time>
      </trkpt>
      <trkpt lat="55.888180984184146" lon="-4.258081996813417">
        <ele>56.369999999999997</ele>
        <time>2023-09-02T15:11:15Z</time>
      </trkpt>
      <trkpt lat="55.887558963149786" lon="-4.257771028205752">
        <ele>55.409999999999997</ele>
        <time>2023-09-02T15:11:23Z</time>
      </trkpt>
      <trkpt lat="55.8875219989568" lon="-4.257752001285553">
        <ele>54.93</ele>
        <time>2023-09-02T15:11:24Z</time>
      </trkpt>
      <trkpt lat="55.887492997571826" lon="-4.257738003507257">
        <ele>54.93</ele>
        <time>2023-09-02T15:11:25Z</time>
      </trkpt>
      <trkpt lat="55.887471036985517" lon="-4.257727023214102">
        <ele>54.450000000000003</ele>
        <time>2023-09-02T15:11:26Z</time>
      </trkpt>
      <trkpt lat="55.887449998408556" lon="-4.257715959101915">
        <ele>54.450000000000003</ele>
        <time>2023-09-02T15:11:27Z</time>
      </trkpt>
      <trkpt lat="55.887313960120082" lon="-4.257630966603756">
        <ele>54.450000000000003</ele>
        <time>2023-09-02T15:11:35Z</time>
      </trkpt>
      <trkpt lat="55.887078009545803" lon="-4.257481014356017">
        <ele>53.969999999999999</ele>
        <time>2023-09-02T15:11:39Z</time>
      </trkpt>
      <trkpt lat="55.886939959600568" lon="-4.257394010201097">
        <ele>53.969999999999999</ele>
        <time>2023-09-02T15:11:47Z</time>
      </trkpt>
      <trkpt lat="55.886939959600568" lon="-4.257394010201097">
        <ele>53.969999999999999</ele>
        <time>2023-09-02T15:12:33Z</time>
      </trkpt>
      <trkpt lat="55.886863013729453" lon="-4.257345981895924">
        <ele>54.450000000000003</ele>
        <time>2023-09-02T15:13:21Z</time>
      </trkpt>
      <trkpt lat="55.886261025443673" lon="-4.257007017731667">
        <ele>53.969999999999999</ele>
        <time>2023-09-02T15:13:30Z</time>
      </trkpt>
      <trkpt lat="55.885586030781269" lon="-4.256640980020165">
        <ele>54.450000000000003</ele>
        <time>2023-09-02T15:13:41Z</time>
      </trkpt>
      <trkpt lat="55.885543031617999" lon="-4.256618013605475">
        <ele>54.93</ele>
        <time>2023-09-02T15:13:51Z</time>
      </trkpt>
      <trkpt lat="55.885454015806317" lon="-4.256568979471922">
        <ele>55.409999999999997</ele>
        <time>2023-09-02T15:14:03Z</time>
      </trkpt>
      <trkpt lat="55.885225022211671" lon="-4.256444005295634">
        <ele>55.409999999999997</ele>
        <time>2023-09-02T15:14:10Z</time>
      </trkpt>
      <trkpt lat="55.88468698784709" lon="-4.256028011441231">
        <ele>56.369999999999997</ele>
        <time>2023-09-02T15:14:16Z</time>
      </trkpt>
      <trkpt lat="55.88404300622642" lon="-4.255024027079344">
        <ele>57.82</ele>
        <time>2023-09-02T15:14:26Z</time>
      </trkpt>
      <trkpt lat="55.884004030376673" lon="-4.25490902736783">
        <ele>57.340000000000003</ele>
        <time>2023-09-02T15:14:27Z</time>
      </trkpt>
      <trkpt lat="55.883895987644792" lon="-4.254595041275024">
        <ele>56.859999999999999</ele>
        <time>2023-09-02T15:14:30Z</time>
      </trkpt>
      <trkpt lat="55.88380697183311" lon="-4.254335034638643">
        <ele>56.369999999999997</ele>
        <time>2023-09-02T15:14:33Z</time>
      </trkpt>
      <trkpt lat="55.883758021518588" lon="-4.254293963313103">
        <ele>55.890000000000001</ele>
        <time>2023-09-02T15:14:34Z</time>
      </trkpt>
      <trkpt lat="55.883704964071512" lon="-4.254256999120116">
        <ele>55.890000000000001</ele>
        <time>2023-09-02T15:14:35Z</time>
      </trkpt>
      <trkpt lat="55.883652996271849" lon="-4.25422003492713">
        <ele>55.890000000000001</ele>
        <time>2023-09-02T15:14:36Z</time>
      </trkpt>
      <trkpt lat="55.88359197601676" lon="-4.254224980250001">
        <ele>55.890000000000001</ele>
        <time>2023-09-02T15:14:37Z</time>
      </trkpt>
      <trkpt lat="55.883529027923942" lon="-4.254231015220285">
        <ele>55.890000000000001</ele>
        <time>2023-09-02T15:14:38Z</time>
      </trkpt>
      <trkpt lat="55.88316198438406" lon="-4.2542630340904">
        <ele>56.369999999999997</ele>
        <time>2023-09-02T15:14:47Z</time>
      </trkpt>
      <trkpt lat="55.883050002157688" lon="-4.254273008555174">
        <ele>56.859999999999999</ele>
        <time>2023-09-02T15:14:58Z</time>
      </trkpt>
      <trkpt lat="55.883026029914618" lon="-4.254275020211935">
        <ele>56.859999999999999</ele>
        <time>2023-09-02T15:14:59Z</time>
      </trkpt>
      <trkpt lat="55.882982024922967" lon="-4.254278959706426">
        <ele>56.859999999999999</ele>
        <time>2023-09-02T15:15:00Z</time>
      </trkpt>
      <trkpt lat="55.882346006110311" lon="-4.254305027425289">
        <ele>57.82</ele>
        <time>2023-09-02T15:15:08Z</time>
      </trkpt>
      <trkpt lat="55.881215035915375" lon="-4.254369987174869">
        <ele>59.740000000000002</ele>
        <time>2023-09-02T15:15:19Z</time>
      </trkpt>
      <trkpt lat="55.879740994423628" lon="-4.254421032965183">
        <ele>60.219999999999999</ele>
        <time>2023-09-02T15:15:32Z</time>
      </trkpt>
      <trkpt lat="55.878532994538546" lon="-4.25452396273613">
        <ele>59.259999999999998</ele>
        <time>2023-09-02T15:15:43Z</time>
      </trkpt>
      <trkpt lat="55.878469962626696" lon="-4.254528991878033">
        <ele>59.259999999999998</ele>
        <time>2023-09-02T15:15:44Z</time>
      </trkpt>
      <trkpt lat="55.878345994278789" lon="-4.254538966342807">
        <ele>58.780000000000001</ele>
        <time>2023-09-02T15:15:51Z</time>
      </trkpt>
      <trkpt lat="55.878268964588642" lon="-4.254550030454993">
        <ele>58.780000000000001</ele>
        <time>2023-09-02T15:16:26Z</time>
      </trkpt>
      <trkpt lat="55.877587012946606" lon="-4.254632005468011">
        <ele>58.780000000000001</ele>
        <time>2023-09-02T15:16:34Z</time>
      </trkpt>
      <trkpt lat="55.87663097307086" lon="-4.2551230173558">
        <ele>61.659999999999997</ele>
        <time>2023-09-02T15:16:43Z</time>
      </trkpt>
      <trkpt lat="55.875624977052212" lon="-4.256004961207509">
        <ele>62.140000000000001</ele>
        <time>2023-09-02T15:16:53Z</time>
      </trkpt>
      <trkpt lat="55.874501969665289" lon="-4.257011963054538">
        <ele>65.030000000000001</ele>
        <time>2023-09-02T15:17:04Z</time>
      </trkpt>
      <trkpt lat="55.874389987438917" lon="-4.257088992744684">
        <ele>65.030000000000001</ele>
        <time>2023-09-02T15:17:05Z</time>
      </trkpt>
      <trkpt lat="55.874274987727404" lon="-4.257167028263211">
        <ele>65.510000000000005</ele>
        <time>2023-09-02T15:17:06Z</time>
      </trkpt>
      <trkpt lat="55.874153031036258" lon="-4.257212961092591">
        <ele>65.510000000000005</ele>
        <time>2023-09-02T15:17:07Z</time>
      </trkpt>
      <trkpt lat="55.87403099052608" lon="-4.25725101493299">
        <ele>65.510000000000005</ele>
        <time>2023-09-02T15:17:08Z</time>
      </trkpt>
      <trkpt lat="55.873783975839615" lon="-4.257304994389415">
        <ele>65.989999999999995</ele>
        <time>2023-09-02T15:17:10Z</time>
      </trkpt>
      <trkpt lat="55.872571030631661" lon="-4.257174991071224">
        <ele>69.349999999999994</ele>
        <time>2023-09-02T15:17:20Z</time>
      </trkpt>
      <trkpt lat="55.872349999845028" lon="-4.257142972201109">
        <ele>69.349999999999994</ele>
        <time>2023-09-02T15:17:22Z</time>
      </trkpt>
      <trkpt lat="55.872241035103798" lon="-4.257126962766051">
        <ele>69.349999999999994</ele>
        <time>2023-09-02T15:17:23Z</time>
      </trkpt>
      <trkpt lat="55.871640974655747" lon="-4.257019003853202">
        <ele>68.390000000000001</ele>
        <time>2023-09-02T15:17:28Z</time>
      </trkpt>
      <trkpt lat="55.871525974944234" lon="-4.25697298720479">
        <ele>67.909999999999997</ele>
        <time>2023-09-02T15:17:29Z</time>
      </trkpt>
      <trkpt lat="55.871437964960933" lon="-4.256870979443193">
        <ele>67.430000000000007</ele>
        <time>2023-09-02T15:17:30Z</time>
      </trkpt>
      <trkpt lat="55.87134400382638" lon="-4.256741981953383">
        <ele>67.430000000000007</ele>
        <time>2023-09-02T15:17:31Z</time>
      </trkpt>
      <trkpt lat="55.871249036863446" lon="-4.256613990291953">
        <ele>66.950000000000003</ele>
        <time>2023-09-02T15:17:32Z</time>
      </trkpt>
      <trkpt lat="55.871183993294835" lon="-4.256470995023847">
        <ele>65.989999999999995</ele>
        <time>2023-09-02T15:17:33Z</time>
      </trkpt>
      <trkpt lat="55.87113001383841" lon="-4.256277959793806">
        <ele>65.510000000000005</ele>
        <time>2023-09-02T15:17:34Z</time>
      </trkpt>
      <trkpt lat="55.871078968048096" lon="-4.256096994504333">
        <ele>64.549999999999997</ele>
        <time>2023-09-02T15:17:35Z</time>
      </trkpt>
      <trkpt lat="55.871053989976645" lon="-4.255959028378129">
        <ele>64.069999999999993</ele>
        <time>2023-09-02T15:17:36Z</time>
      </trkpt>
      <trkpt lat="55.871045021340251" lon="-4.255823995918036">
        <ele>63.579999999999998</ele>
        <time>2023-09-02T15:17:37Z</time>
      </trkpt>
      <trkpt lat="55.871035968884826" lon="-4.255693992599845">
        <ele>62.619999999999997</ele>
        <time>2023-09-02T15:17:38Z</time>
      </trkpt>
      <trkpt lat="55.871030017733574" lon="-4.255606988444924">
        <ele>61.659999999999997</ele>
        <time>2023-09-02T15:17:39Z</time>
      </trkpt>
      <trkpt lat="55.871024988591671" lon="-4.255546974018216">
        <ele>61.18</ele>
        <time>2023-09-02T15:17:40Z</time>
      </trkpt>
      <trkpt lat="55.871021971106529" lon="-4.255501963198185">
        <ele>60.700000000000003</ele>
        <time>2023-09-02T15:17:41Z</time>
      </trkpt>
      <trkpt lat="55.871015014126897" lon="-4.255400039255619">
        <ele>60.219999999999999</ele>
        <time>2023-09-02T15:17:43Z</time>
      </trkpt>
      <trkpt lat="55.871015014126897" lon="-4.255400039255619">
        <ele>59.740000000000002</ele>
        <time>2023-09-02T15:17:44Z</time>
      </trkpt>
      <trkpt lat="55.871015014126897" lon="-4.255400039255619">
        <ele>58.780000000000001</ele>
        <time>2023-09-02T15:17:49Z</time>
      </trkpt>
      <trkpt lat="55.87102297693491" lon="-4.25536198541522">
        <ele>58.299999999999997</ele>
        <time>2023-09-02T15:17:50Z</time>
      </trkpt>
      <trkpt lat="55.871035968884826" lon="-4.255298031494021">
        <ele>57.340000000000003</ele>
        <time>2023-09-02T15:17:51Z</time>
      </trkpt>
      <trkpt lat="55.871137976646423" lon="-4.254806013777852">
        <ele>55.890000000000001</ele>
        <time>2023-09-02T15:17:56Z</time>
      </trkpt>
      <trkpt lat="55.8711529802531" lon="-4.254729989916086">
        <ele>55.409999999999997</ele>
        <time>2023-09-02T15:17:57Z</time>
      </trkpt>
      <trkpt lat="55.871141999959946" lon="-4.254636028781533">
        <ele>54.93</ele>
        <time>2023-09-02T15:17:58Z</time>
      </trkpt>
      <trkpt lat="55.871099000796676" lon="-4.254569979384542">
        <ele>54.450000000000003</ele>
        <time>2023-09-02T15:17:59Z</time>
      </trkpt>
      <trkpt lat="55.871048038825393" lon="-4.254494039341807">
        <ele>54.450000000000003</ele>
        <time>2023-09-02T15:18:00Z</time>
      </trkpt>
      <trkpt lat="55.870989030227065" lon="-4.254412986338139">
        <ele>53.490000000000002</ele>
        <time>2023-09-02T15:18:01Z</time>
      </trkpt>
      <trkpt lat="55.870784008875489" lon="-4.253913005813956">
        <ele>51.090000000000003</ele>
        <time>2023-09-02T15:18:05Z</time>
      </trkpt>
      <trkpt lat="55.870770011097193" lon="-4.253783002495766">
        <ele>50.609999999999999</ele>
        <time>2023-09-02T15:18:06Z</time>
      </trkpt>
      <trkpt lat="55.870715025812387" lon="-4.253489971160889">
        <ele>49.649999999999999</ele>
        <time>2023-09-02T15:18:08Z</time>
      </trkpt>
      <trkpt lat="55.870698010548949" lon="-4.253388969227672">
        <ele>49.649999999999999</ele>
        <time>2023-09-02T15:18:09Z</time>
      </trkpt>
      <trkpt lat="55.870676971971989" lon="-4.253253014758229">
        <ele>48.68</ele>
        <time>2023-09-02T15:18:10Z</time>
      </trkpt>
      <trkpt lat="55.870655011385679" lon="-4.253120999783278">
        <ele>48.200000000000003</ele>
        <time>2023-09-02T15:18:11Z</time>
      </trkpt>
      <trkpt lat="55.870632966980338" lon="-4.252980016171932">
        <ele>47.719999999999999</ele>
        <time>2023-09-02T15:18:12Z</time>
      </trkpt>
      <trkpt lat="55.870569013059139" lon="-4.252441981807351">
        <ele>45.32</ele>
        <time>2023-09-02T15:18:16Z</time>
      </trkpt>
      <trkpt lat="55.870564989745617" lon="-4.25160001963377">
        <ele>42.439999999999998</ele>
        <time>2023-09-02T15:18:22Z</time>
      </trkpt>
      <trkpt lat="55.870564989745617" lon="-4.251460041850805">
        <ele>41.950000000000003</ele>
        <time>2023-09-02T15:18:23Z</time>
      </trkpt>
      <trkpt lat="55.87050698697567" lon="-4.251377983018756">
        <ele>41.469999999999999</ele>
        <time>2023-09-02T15:18:24Z</time>
      </trkpt>
      <trkpt lat="55.8702929969877" lon="-4.249950964003801">
        <ele>40.990000000000002</ele>
        <time>2023-09-02T15:18:32Z</time>
      </trkpt>
      <trkpt lat="55.870070960372686" lon="-4.247885998338461">
        <ele>46.759999999999998</ele>
        <time>2023-09-02T15:18:41Z</time>
      </trkpt>
      <trkpt lat="55.86979703977704" lon="-4.245874006301165">
        <ele>50.130000000000003</ele>
        <time>2023-09-02T15:18:48Z</time>
      </trkpt>
      <trkpt lat="55.869484981521964" lon="-4.243131028488278">
        <ele>52.530000000000001</ele>
        <time>2023-09-02T15:18:57Z</time>
      </trkpt>
      <trkpt lat="55.869152974337339" lon="-4.24019199796021">
        <ele>52.049999999999997</ele>
        <time>2023-09-02T15:19:07Z</time>
      </trkpt>
      <trkpt lat="55.868617035448551" lon="-4.237802987918258">
        <ele>44.840000000000003</ele>
        <time>2023-09-02T15:19:15Z</time>
      </trkpt>
      <trkpt lat="55.868512010201812" lon="-4.237266965210438">
        <ele>43.399999999999999</ele>
        <time>2023-09-02T15:19:17Z</time>
      </trkpt>
      <trkpt lat="55.867571979761124" lon="-4.235310964286327">
        <ele>46.759999999999998</ele>
        <time>2023-09-02T15:19:25Z</time>
      </trkpt>
      <trkpt lat="55.866708979010582" lon="-4.233091017231345">
        <ele>49.159999999999997</ele>
        <time>2023-09-02T15:19:34Z</time>
      </trkpt>
      <trkpt lat="55.866327015683055" lon="-4.230601005256176">
        <ele>44.840000000000003</ele>
        <time>2023-09-02T15:19:41Z</time>
      </trkpt>
      <trkpt lat="55.866201035678387" lon="-4.227367015555501">
        <ele>43.399999999999999</ele>
        <time>2023-09-02T15:19:50Z</time>
      </trkpt>
      <trkpt lat="55.866193994879723" lon="-4.223747039213777">
        <ele>41.469999999999999</ele>
        <time>2023-09-02T15:20:00Z</time>
      </trkpt>
      <trkpt lat="55.866503035649657" lon="-4.220723016187549">
        <ele>43.399999999999999</ele>
        <time>2023-09-02T15:20:09Z</time>
      </trkpt>
      <trkpt lat="55.866955993697047" lon="-4.216725016012788">
        <ele>52.049999999999997</ele>
        <time>2023-09-02T15:20:21Z</time>
      </trkpt>
      <trkpt lat="55.867317002266645" lon="-4.212713018059731">
        <ele>59.259999999999998</ele>
        <time>2023-09-02T15:20:33Z</time>
      </trkpt>
      <trkpt lat="55.86797196418047" lon="-4.209521021693945">
        <ele>60.700000000000003</ele>
        <time>2023-09-02T15:20:43Z</time>
      </trkpt>
      <trkpt lat="55.869095977395773" lon="-4.204834029078484">
        <ele>68.390000000000001</ele>
        <time>2023-09-02T15:20:58Z</time>
      </trkpt>
      <trkpt lat="55.870407996699214" lon="-4.200641987845302">
        <ele>73.680000000000007</ele>
        <time>2023-09-02T15:21:12Z</time>
      </trkpt>
      <trkpt lat="55.871363030746579" lon="-4.197896998375654">
        <ele>76.560000000000002</ele>
        <time>2023-09-02T15:21:20Z</time>
      </trkpt>
      <trkpt lat="55.872340025380254" lon="-4.194065965712071">
        <ele>78.969999999999999</ele>
        <time>2023-09-02T15:21:30Z</time>
      </trkpt>
      <trkpt lat="55.873369993641973" lon="-4.190738014876843">
        <ele>78.969999999999999</ele>
        <time>2023-09-02T15:21:39Z</time>
      </trkpt>
      <trkpt lat="55.874043982475996" lon="-4.187621958553791">
        <ele>78</ele>
        <time>2023-09-02T15:21:47Z</time>
      </trkpt>
      <trkpt lat="55.874068960547447" lon="-4.186418987810612">
        <ele>76.560000000000002</ele>
        <time>2023-09-02T15:21:50Z</time>
      </trkpt>
      <trkpt lat="55.87379596196115" lon="-4.184238016605377">
        <ele>73.200000000000003</ele>
        <time>2023-09-02T15:21:56Z</time>
      </trkpt>
      <trkpt lat="55.873694038018584" lon="-4.18390198610723">
        <ele>73.200000000000003</ele>
        <time>2023-09-02T15:21:57Z</time>
      </trkpt>
      <trkpt lat="55.873594963923097" lon="-4.183572996407747">
        <ele>73.200000000000003</ele>
        <time>2023-09-02T15:21:58Z</time>
      </trkpt>
      <trkpt lat="55.872665997594595" lon="-4.181481963023543">
        <ele>74.159999999999997</ele>
        <time>2023-09-02T15:22:05Z</time>
      </trkpt>
      <trkpt lat="55.871446011587977" lon="-4.178948029875755">
        <ele>74.640000000000001</ele>
        <time>2023-09-02T15:22:13Z</time>
      </trkpt>
      <trkpt lat="55.870070960372686" lon="-4.176011011004448">
        <ele>74.159999999999997</ele>
        <time>2023-09-02T15:22:22Z</time>
      </trkpt>
      <trkpt lat="55.868362979963422" lon="-4.173116991296411">
        <ele>68.870000000000005</ele>
        <time>2023-09-02T15:22:32Z</time>
      </trkpt>
      <trkpt lat="55.868235994130373" lon="-4.172767968848348">
        <ele>68.390000000000001</ele>
        <time>2023-09-02T15:22:33Z</time>
      </trkpt>
      <trkpt lat="55.868115965276957" lon="-4.172433027997613">
        <ele>68.390000000000001</ele>
        <time>2023-09-02T15:22:34Z</time>
      </trkpt>
      <trkpt lat="55.868039019405842" lon="-4.172045029699802">
        <ele>68.390000000000001</ele>
        <time>2023-09-02T15:22:35Z</time>
      </trkpt>
      <trkpt lat="55.86797003634274" lon="-4.171658959239721">
        <ele>68.870000000000005</ele>
        <time>2023-09-02T15:22:36Z</time>
      </trkpt>
      <trkpt lat="55.867914967238903" lon="-4.171252017840743">
        <ele>68.870000000000005</ele>
        <time>2023-09-02T15:22:37Z</time>
      </trkpt>
      <trkpt lat="55.867860987782478" lon="-4.170856978744268">
        <ele>69.349999999999994</ele>
        <time>2023-09-02T15:22:38Z</time>
      </trkpt>
      <trkpt lat="55.867846990004182" lon="-4.170440984889865">
        <ele>70.310000000000002</ele>
        <time>2023-09-02T15:22:39Z</time>
      </trkpt>
      <trkpt lat="55.867965007200837" lon="-4.167962037026882">
        <ele>73.200000000000003</ele>
        <time>2023-09-02T15:22:45Z</time>
      </trkpt>
      <trkpt lat="55.868464987725019" lon="-4.163475036621094">
        <ele>79.930000000000007</ele>
        <time>2023-09-02T15:22:56Z</time>
      </trkpt>
      <trkpt lat="55.868947030976415" lon="-4.159116027876735">
        <ele>80.890000000000001</ele>
        <time>2023-09-02T15:23:07Z</time>
      </trkpt>
      <trkpt lat="55.869246013462543" lon="-4.156586034223437">
        <ele>81.849999999999994</ele>
        <time>2023-09-02T15:23:13Z</time>
      </trkpt>
      <trkpt lat="55.869294041767716" lon="-4.156145984306932">
        <ele>82.329999999999998</ele>
        <time>2023-09-02T15:23:14Z</time>
      </trkpt>
      <trkpt lat="55.869670975953341" lon="-4.152020998299122">
        <ele>82.810000000000002</ele>
        <time>2023-09-02T15:23:23Z</time>
      </trkpt>
      <trkpt lat="55.869875997304916" lon="-4.146420964971185">
        <ele>82.810000000000002</ele>
        <time>2023-09-02T15:23:35Z</time>
      </trkpt>
      <trkpt lat="55.869801985099912" lon="-4.143649991601706">
        <ele>79.930000000000007</ele>
        <time>2023-09-02T15:23:41Z</time>
      </trkpt>
      <trkpt lat="55.869381967931986" lon="-4.139011027291417">
        <ele>78.480000000000004</ele>
        <time>2023-09-02T15:23:51Z</time>
      </trkpt>
      <trkpt lat="55.868542017415166" lon="-4.13504202850163">
        <ele>78</ele>
        <time>2023-09-02T15:24:00Z</time>
      </trkpt>
      <trkpt lat="55.86715598590672" lon="-4.13106900639832">
        <ele>77.519999999999996</ele>
        <time>2023-09-02T15:24:10Z</time>
      </trkpt>
      <trkpt lat="55.865836003795266" lon="-4.12840498611331">
        <ele>75.120000000000005</ele>
        <time>2023-09-02T15:24:18Z</time>
      </trkpt>
      <trkpt lat="55.864721965044737" lon="-4.125810032710433">
        <ele>74.159999999999997</ele>
        <time>2023-09-02T15:24:27Z</time>
      </trkpt>
      <trkpt lat="55.863944962620735" lon="-4.122725995257497">
        <ele>74.159999999999997</ele>
        <time>2023-09-02T15:24:37Z</time>
      </trkpt>
      <trkpt lat="55.863400977104902" lon="-4.119881009683013">
        <ele>74.159999999999997</ele>
        <time>2023-09-02T15:24:46Z</time>
      </trkpt>
      <trkpt lat="55.862850034609437" lon="-4.116574013605714">
        <ele>72.719999999999999</ele>
        <time>2023-09-02T15:24:55Z</time>
      </trkpt>
      <trkpt lat="55.86232197470963" lon="-4.112879019230604">
        <ele>71.760000000000005</ele>
        <time>2023-09-02T15:25:06Z</time>
      </trkpt>
      <trkpt lat="55.861649997532368" lon="-4.107772009447217">
        <ele>72.719999999999999</ele>
        <time>2023-09-02T15:25:20Z</time>
      </trkpt>
      <trkpt lat="55.860985983163118" lon="-4.104481022804976">
        <ele>76.560000000000002</ele>
        <time>2023-09-02T15:25:29Z</time>
      </trkpt>
      <trkpt lat="55.860030027106404" lon="-4.101789006963372">
        <ele>79.930000000000007</ele>
        <time>2023-09-02T15:25:37Z</time>
      </trkpt>
      <trkpt lat="55.858571995049715" lon="-4.099378036335111">
        <ele>79.930000000000007</ele>
        <time>2023-09-02T15:25:46Z</time>
      </trkpt>
      <trkpt lat="55.857263999059796" lon="-4.096807977184653">
        <ele>75.599999999999994</ele>
        <time>2023-09-02T15:25:54Z</time>
      </trkpt>
      <trkpt lat="55.857123015448451" lon="-4.096490973606706">
        <ele>75.120000000000005</ele>
        <time>2023-09-02T15:25:55Z</time>
      </trkpt>
      <trkpt lat="55.856985971331596" lon="-4.096181010827422">
        <ele>75.120000000000005</ele>
        <time>2023-09-02T15:25:56Z</time>
      </trkpt>
      <trkpt lat="55.856037978082895" lon="-4.093945976346731">
        <ele>78.480000000000004</ele>
        <time>2023-09-02T15:26:04Z</time>
      </trkpt>
      <trkpt lat="55.854713972657919" lon="-4.091079030185938">
        <ele>86.180000000000007</ele>
        <time>2023-09-02T15:26:15Z</time>
      </trkpt>
      <trkpt lat="55.853327019140124" lon="-4.089584033936262">
        <ele>86.659999999999997</ele>
        <time>2023-09-02T15:26:23Z</time>
      </trkpt>
      <trkpt lat="55.851782988756895" lon="-4.089095033705235">
        <ele>84.25</ele>
        <time>2023-09-02T15:26:31Z</time>
      </trkpt>
      <trkpt lat="55.850363010540605" lon="-4.089544974267483">
        <ele>79.450000000000003</ele>
        <time>2023-09-02T15:26:38Z</time>
      </trkpt>
      <trkpt lat="55.848881006240845" lon="-4.090881971642375">
        <ele>71.760000000000005</ele>
        <time>2023-09-02T15:26:46Z</time>
      </trkpt>
      <trkpt lat="55.847378969192505" lon="-4.091839017346501">
        <ele>64.549999999999997</ele>
        <time>2023-09-02T15:26:54Z</time>
      </trkpt>
      <trkpt lat="55.84513396024704" lon="-4.092780975624919">
        <ele>58.780000000000001</ele>
        <time>2023-09-02T15:27:05Z</time>
      </trkpt>
      <trkpt lat="55.841969037428498" lon="-4.094273960217834">
        <ele>49.159999999999997</ele>
        <time>2023-09-02T15:27:21Z</time>
      </trkpt>
      <trkpt lat="55.83956996910274" lon="-4.09564197063446">
        <ele>45.32</ele>
        <time>2023-09-02T15:27:33Z</time>
      </trkpt>
      <trkpt lat="55.836418960243464" lon="-4.097644994035363">
        <ele>43.399999999999999</ele>
        <time>2023-09-02T15:27:50Z</time>
      </trkpt>
      <trkpt lat="55.834094993770123" lon="-4.098921976983547">
        <ele>39.07</ele>
        <time>2023-09-02T15:28:02Z</time>
      </trkpt>
      <trkpt lat="55.832724971696734" lon="-4.098789039999247">
        <ele>34.259999999999998</ele>
        <time>2023-09-02T15:28:09Z</time>
      </trkpt>
      <trkpt lat="55.831353021785617" lon="-4.097813973203301">
        <ele>28.02</ele>
        <time>2023-09-02T15:28:16Z</time>
      </trkpt>
      <trkpt lat="55.830195983871818" lon="-4.096037009730935">
        <ele>22.73</ele>
        <time>2023-09-02T15:28:23Z</time>
      </trkpt>
      <trkpt lat="55.828868038952351" lon="-4.09273998811841">
        <ele>19.359999999999999</ele>
        <time>2023-09-02T15:28:33Z</time>
      </trkpt>
      <trkpt lat="55.828157002106309" lon="-4.090080996975303">
        <ele>18.399999999999999</ele>
        <time>2023-09-02T15:28:41Z</time>
      </trkpt>
      <trkpt lat="55.828081984072924" lon="-4.08973197452724">
        <ele>17.920000000000002</ele>
        <time>2023-09-02T15:28:42Z</time>
      </trkpt>
      <trkpt lat="55.827401038259268" lon="-4.086127001792193">
        <ele>17.920000000000002</ele>
        <time>2023-09-02T15:28:52Z</time>
      </trkpt>
      <trkpt lat="55.826607020571828" lon="-4.08270500600338">
        <ele>23.690000000000001</ele>
        <time>2023-09-02T15:29:00Z</time>
      </trkpt>
      <trkpt lat="55.825315034016967" lon="-4.078639028593898">
        <ele>31.379999999999999</ele>
        <time>2023-09-02T15:29:10Z</time>
      </trkpt>
      <trkpt lat="55.823398008942604" lon="-4.07419603317976">
        <ele>38.590000000000003</ele>
        <time>2023-09-02T15:29:22Z</time>
      </trkpt>
      <trkpt lat="55.820913026109338" lon="-4.070014972239733">
        <ele>42.920000000000002</ele>
        <time>2023-09-02T15:29:35Z</time>
      </trkpt>
      <trkpt lat="55.818532984703779" lon="-4.06708499416709">
        <ele>42.920000000000002</ele>
        <time>2023-09-02T15:29:46Z</time>
      </trkpt>
      <trkpt lat="55.815954962745309" lon="-4.064812995493412">
        <ele>41.950000000000003</ele>
        <time>2023-09-02T15:29:57Z</time>
      </trkpt>
      <trkpt lat="55.813486995175481" lon="-4.063095962628722">
        <ele>40.509999999999998</ele>
        <time>2023-09-02T15:30:07Z</time>
      </trkpt>
      <trkpt lat="55.810588030144572" lon="-4.060868974775076">
        <ele>38.109999999999999</ele>
        <time>2023-09-02T15:30:19Z</time>
      </trkpt>
      <trkpt lat="55.807279022410512" lon="-4.058013008907437">
        <ele>33.299999999999997</ele>
        <time>2023-09-02T15:30:33Z</time>
      </trkpt>
      <trkpt lat="55.804284000769258" lon="-4.055100968107581">
        <ele>31.859999999999999</ele>
        <time>2023-09-02T15:30:46Z</time>
      </trkpt>
      <trkpt lat="55.800451040267944" lon="-4.050966007634997">
        <ele>31.859999999999999</ele>
        <time>2023-09-02T15:31:03Z</time>
      </trkpt>
      <trkpt lat="55.797197017818689" lon="-4.047013018280268">
        <ele>30.420000000000002</ele>
        <time>2023-09-02T15:31:18Z</time>
      </trkpt>
      <trkpt lat="55.79541795887053" lon="-4.044643035158515">
        <ele>30.420000000000002</ele>
        <time>2023-09-02T15:31:27Z</time>
      </trkpt>
      <trkpt lat="55.793734034523368" lon="-4.042284032329917">
        <ele>29.940000000000001</ele>
        <time>2023-09-02T15:31:36Z</time>
      </trkpt>
      <trkpt lat="55.792202996090055" lon="-4.04001496732235">
        <ele>28.98</ele>
        <time>2023-09-02T15:31:43Z</time>
      </trkpt>
      <trkpt lat="55.788901029154658" lon="-4.034748030826449">
        <ele>27.530000000000001</ele>
        <time>2023-09-02T15:31:59Z</time>
      </trkpt>
      <trkpt lat="55.786760039627552" lon="-4.031048007309437">
        <ele>28.02</ele>
        <time>2023-09-02T15:32:09Z</time>
      </trkpt>
      <trkpt lat="55.784422997385263" lon="-4.027055036276579">
        <ele>28.5</ele>
        <time>2023-09-02T15:32:21Z</time>
      </trkpt>
      <trkpt lat="55.783067978918552" lon="-4.024496041238308">
        <ele>29.940000000000001</ele>
        <time>2023-09-02T15:32:30Z</time>
      </trkpt>
      <trkpt lat="55.782703030854464" lon="-4.02366598136723">
        <ele>30.420000000000002</ele>
        <time>2023-09-02T15:32:33Z</time>
      </trkpt>
      <trkpt lat="55.781712960451841" lon="-4.020627038553357">
        <ele>31.859999999999999</ele>
        <time>2023-09-02T15:32:43Z</time>
      </trkpt>
      <trkpt lat="55.78115195967257" lon="-4.019103040918708">
        <ele>32.82</ele>
        <time>2023-09-02T15:32:49Z</time>
      </trkpt>
      <trkpt lat="55.781056992709637" lon="-4.018930960446596">
        <ele>32.82</ele>
        <time>2023-09-02T15:32:50Z</time>
      </trkpt>
      <trkpt lat="55.78095599077642" lon="-4.018786959350109">
        <ele>33.299999999999997</ele>
        <time>2023-09-02T15:32:51Z</time>
      </trkpt>
      <trkpt lat="55.780840991064906" lon="-4.018682017922401">
        <ele>33.780000000000001</ele>
        <time>2023-09-02T15:32:52Z</time>
      </trkpt>
      <trkpt lat="55.780743006616831" lon="-4.01859300211072">
        <ele>34.259999999999998</ele>
        <time>2023-09-02T15:32:53Z</time>
      </trkpt>
      <trkpt lat="55.780594982206821" lon="-4.01857296936214">
        <ele>33.780000000000001</ele>
        <time>2023-09-02T15:32:54Z</time>
      </trkpt>
      <trkpt lat="55.780464978888631" lon="-4.018556037917733">
        <ele>33.780000000000001</ele>
        <time>2023-09-02T15:32:55Z</time>
      </trkpt>
      <trkpt lat="55.780342016369104" lon="-4.018591996282339">
        <ele>33.780000000000001</ele>
        <time>2023-09-02T15:32:56Z</time>
      </trkpt>
      <trkpt lat="55.780208995565772" lon="-4.018662991002202">
        <ele>33.780000000000001</ele>
        <time>2023-09-02T15:32:57Z</time>
      </trkpt>
      <trkpt lat="55.780082009732723" lon="-4.018746977671981">
        <ele>33.780000000000001</ele>
        <time>2023-09-02T15:32:58Z</time>
      </trkpt>
      <trkpt lat="55.779969021677971" lon="-4.018910005688667">
        <ele>33.780000000000001</ele>
        <time>2023-09-02T15:32:59Z</time>
      </trkpt>
      <trkpt lat="55.779872965067625" lon="-4.019096000120044">
        <ele>33.299999999999997</ele>
        <time>2023-09-02T15:33:00Z</time>
      </trkpt>
      <trkpt lat="55.779793001711369" lon="-4.019332034513354">
        <ele>33.299999999999997</ele>
        <time>2023-09-02T15:33:01Z</time>
      </trkpt>
      <trkpt lat="55.779708009213209" lon="-4.019578965380788">
        <ele>33.299999999999997</ele>
        <time>2023-09-02T15:33:02Z</time>
      </trkpt>
      <trkpt lat="55.77962301671505" lon="-4.019832015037537">
        <ele>32.82</ele>
        <time>2023-09-02T15:33:03Z</time>
      </trkpt>
      <trkpt lat="55.779563002288342" lon="-4.02005203999579">
        <ele>32.82</ele>
        <time>2023-09-02T15:33:04Z</time>
      </trkpt>
      <trkpt lat="55.77945495955646" lon="-4.020395027473569">
        <ele>32.340000000000003</ele>
        <time>2023-09-02T15:33:05Z</time>
      </trkpt>
      <trkpt lat="55.779386982321739" lon="-4.020638018846512">
        <ele>32.340000000000003</ele>
        <time>2023-09-02T15:33:06Z</time>
      </trkpt>
      <trkpt lat="55.779310036450624" lon="-4.02091302908957">
        <ele>31.859999999999999</ele>
        <time>2023-09-02T15:33:07Z</time>
      </trkpt>
      <trkpt lat="55.779235018417239" lon="-4.021183010190725">
        <ele>31.379999999999999</ele>
        <time>2023-09-02T15:33:08Z</time>
      </trkpt>
      <trkpt lat="55.77915002591908" lon="-4.021476963534951">
        <ele>30.899999999999999</ele>
        <time>2023-09-02T15:33:09Z</time>
      </trkpt>
      <trkpt lat="55.779027985408902" lon="-4.021690031513572">
        <ele>29.460000000000001</ele>
        <time>2023-09-02T15:33:10Z</time>
      </trkpt>
      <trkpt lat="55.777713032439351" lon="-4.024004023522139">
        <ele>25.609999999999999</ele>
        <time>2023-09-02T15:33:20Z</time>
      </trkpt>
      <trkpt lat="55.776539985090494" lon="-4.026092039421201">
        <ele>24.170000000000002</ele>
        <time>2023-09-02T15:33:30Z</time>
      </trkpt>
      <trkpt lat="55.776005974039435" lon="-4.027528027072549">
        <ele>26.09</ele>
        <time>2023-09-02T15:33:37Z</time>
      </trkpt>
      <trkpt lat="55.775886029005051" lon="-4.028192041441798">
        <ele>27.050000000000001</ele>
        <time>2023-09-02T15:33:41Z</time>
      </trkpt>
      <trkpt lat="55.775875970721245" lon="-4.028366971760988">
        <ele>27.050000000000001</ele>
        <time>2023-09-02T15:33:42Z</time>
      </trkpt>
      <trkpt lat="55.775872031226754" lon="-4.028529999777675">
        <ele>27.530000000000001</ele>
        <time>2023-09-02T15:33:43Z</time>
      </trkpt>
      <trkpt lat="55.775872031226754" lon="-4.029067028313875">
        <ele>28.02</ele>
        <time>2023-09-02T15:33:46Z</time>
      </trkpt>
      <trkpt lat="55.775860967114568" lon="-4.029256962239742">
        <ele>28.5</ele>
        <time>2023-09-02T15:33:47Z</time>
      </trkpt>
      <trkpt lat="55.77558696269989" lon="-4.030620027333498">
        <ele>29.940000000000001</ele>
        <time>2023-09-02T15:33:56Z</time>
      </trkpt>
      <trkpt lat="55.775547986850142" lon="-4.030726980417967">
        <ele>30.420000000000002</ele>
        <time>2023-09-02T15:33:57Z</time>
      </trkpt>
      <trkpt lat="55.775506999343634" lon="-4.03083804063499">
        <ele>30.899999999999999</ele>
        <time>2023-09-02T15:33:58Z</time>
      </trkpt>
      <trkpt lat="55.775269037112594" lon="-4.031447991728783">
        <ele>33.299999999999997</ele>
        <time>2023-09-02T15:34:03Z</time>
      </trkpt>
      <trkpt lat="55.775180021300912" lon="-4.031537007540464">
        <ele>34.259999999999998</ele>
        <time>2023-09-02T15:34:04Z</time>
      </trkpt>
      <trkpt lat="55.775093017145991" lon="-4.031624011695385">
        <ele>34.740000000000002</ele>
        <time>2023-09-02T15:34:05Z</time>
      </trkpt>
      <trkpt lat="55.775016993284225" lon="-4.031700035557151">
        <ele>35.710000000000001</ele>
        <time>2023-09-02T15:34:06Z</time>
      </trkpt>
      <trkpt lat="55.77494197525084" lon="-4.031703975051642">
        <ele>36.189999999999998</ele>
        <time>2023-09-02T15:34:07Z</time>
      </trkpt>
      <trkpt lat="55.774868968874216" lon="-4.031703975051642">
        <ele>37.149999999999999</ele>
        <time>2023-09-02T15:34:08Z</time>
      </trkpt>
      <trkpt lat="55.774798979982734" lon="-4.031684026122093">
        <ele>38.109999999999999</ele>
        <time>2023-09-02T15:34:09Z</time>
      </trkpt>
      <trkpt lat="55.774722034111619" lon="-4.031647983938456">
        <ele>38.590000000000003</ele>
        <time>2023-09-02T15:34:10Z</time>
      </trkpt>
      <trkpt lat="55.774643998593092" lon="-4.03161202557385">
        <ele>39.07</ele>
        <time>2023-09-02T15:34:11Z</time>
      </trkpt>
      <trkpt lat="55.774563029408455" lon="-4.031573971733451">
        <ele>40.030000000000001</ele>
        <time>2023-09-02T15:34:12Z</time>
      </trkpt>
      <trkpt lat="55.774315008893609" lon="-4.031458972021937">
        <ele>41.469999999999999</ele>
        <time>2023-09-02T15:34:15Z</time>
      </trkpt>
      <trkpt lat="55.774221969768405" lon="-4.031433993950486">
        <ele>42.439999999999998</ele>
        <time>2023-09-02T15:34:16Z</time>
      </trkpt>
      <trkpt lat="55.774135971441865" lon="-4.031476993113756">
        <ele>42.920000000000002</ele>
        <time>2023-09-02T15:34:17Z</time>
      </trkpt>
      <trkpt lat="55.774052990600467" lon="-4.031517980620265">
        <ele>43.399999999999999</ele>
        <time>2023-09-02T15:34:18Z</time>
      </trkpt>
      <trkpt lat="55.773985013365746" lon="-4.031581012532115">
        <ele>43.880000000000003</ele>
        <time>2023-09-02T15:34:19Z</time>
      </trkpt>
      <trkpt lat="55.773928016424179" lon="-4.031649995595217">
        <ele>44.359999999999999</ele>
        <time>2023-09-02T15:34:20Z</time>
      </trkpt>
      <trkpt lat="55.773880993947387" lon="-4.031705986708403">
        <ele>44.840000000000003</ele>
        <time>2023-09-02T15:34:21Z</time>
      </trkpt>
      <trkpt lat="55.773763982579112" lon="-4.031885024160147">
        <ele>46.759999999999998</ele>
        <time>2023-09-02T15:34:26Z</time>
      </trkpt>
      <trkpt lat="55.773681001737714" lon="-4.032050985842943">
        <ele>47.719999999999999</ele>
        <time>2023-09-02T15:34:35Z</time>
      </trkpt>
      <trkpt lat="55.773593997582793" lon="-4.032224994152784">
        <ele>48.200000000000003</ele>
        <time>2023-09-02T15:34:37Z</time>
      </trkpt>
      <trkpt lat="55.773550998419523" lon="-4.032318033277988">
        <ele>48.200000000000003</ele>
        <time>2023-09-02T15:34:38Z</time>
      </trkpt>
      <trkpt lat="55.773518979549408" lon="-4.032435966655612">
        <ele>48.200000000000003</ele>
        <time>2023-09-02T15:34:39Z</time>
      </trkpt>
      <trkpt lat="55.773485032841563" lon="-4.032563036307693">
        <ele>48.68</ele>
        <time>2023-09-02T15:34:40Z</time>
      </trkpt>
      <trkpt lat="55.773449996486306" lon="-4.032691027969122">
        <ele>49.159999999999997</ele>
        <time>2023-09-02T15:34:41Z</time>
      </trkpt>
      <trkpt lat="55.773414960131049" lon="-4.032822037115693">
        <ele>49.159999999999997</ele>
        <time>2023-09-02T15:34:42Z</time>
      </trkpt>
      <trkpt lat="55.773403979837894" lon="-4.03294499963522">
        <ele>49.649999999999999</ele>
        <time>2023-09-02T15:34:43Z</time>
      </trkpt>
      <trkpt lat="55.773403979837894" lon="-4.033082965761423">
        <ele>50.130000000000003</ele>
        <time>2023-09-02T15:34:44Z</time>
      </trkpt>
      <trkpt lat="55.773403979837894" lon="-4.033231995999813">
        <ele>50.609999999999999</ele>
        <time>2023-09-02T15:34:45Z</time>
      </trkpt>
      <trkpt lat="55.773403979837894" lon="-4.033379014581442">
        <ele>51.090000000000003</ele>
        <time>2023-09-02T15:34:46Z</time>
      </trkpt>
      <trkpt lat="55.773404985666275" lon="-4.033511029556394">
        <ele>51.090000000000003</ele>
        <time>2023-09-02T15:34:47Z</time>
      </trkpt>
      <trkpt lat="55.77343700453639" lon="-4.033642038702965">
        <ele>51.57</ele>
        <time>2023-09-02T15:34:48Z</time>
      </trkpt>
      <trkpt lat="55.773469023406506" lon="-4.033773969858885">
        <ele>52.049999999999997</ele>
        <time>2023-09-02T15:34:49Z</time>
      </trkpt>
      <trkpt lat="55.77350196428597" lon="-4.03391201980412">
        <ele>52.049999999999997</ele>
        <time>2023-09-02T15:34:50Z</time>
      </trkpt>
      <trkpt lat="55.77380396425724" lon="-4.035143991932273">
        <ele>55.890000000000001</ele>
        <time>2023-09-02T15:35:00Z</time>
      </trkpt>
      <trkpt lat="55.77399498783052" lon="-4.035900961607695">
        <ele>59.740000000000002</ele>
        <time>2023-09-02T15:35:09Z</time>
      </trkpt>
      <trkpt lat="55.774115016683936" lon="-4.036436984315515">
        <ele>61.18</ele>
        <time>2023-09-02T15:35:14Z</time>
      </trkpt>
      <trkpt lat="55.774120967835188" lon="-4.036537986248732">
        <ele>61.659999999999997</ele>
        <time>2023-09-02T15:35:15Z</time>
      </trkpt>
      <trkpt lat="55.774133959785104" lon="-4.036724986508489">
        <ele>61.18</ele>
        <time>2023-09-02T15:35:16Z</time>
      </trkpt>
      <trkpt lat="55.774089032784104" lon="-4.036774020642042">
        <ele>61.659999999999997</ele>
        <time>2023-09-02T15:35:17Z</time>
      </trkpt>
      <trkpt lat="55.774030024185777" lon="-4.03683696873486">
        <ele>61.659999999999997</ele>
        <time>2023-09-02T15:35:18Z</time>
      </trkpt>
      <trkpt lat="55.773967998102307" lon="-4.036905029788613">
        <ele>61.659999999999997</ele>
        <time>2023-09-02T15:35:19Z</time>
      </trkpt>
      <trkpt lat="55.77309200540185" lon="-4.037367040291429">
        <ele>65.030000000000001</ele>
        <time>2023-09-02T15:35:30Z</time>
      </trkpt>
      <trkpt lat="55.772897964343429" lon="-4.037439040839672">
        <ele>65.510000000000005</ele>
        <time>2023-09-02T15:35:32Z</time>
      </trkpt>
      <trkpt lat="55.772799979895353" lon="-4.037487991154194">
        <ele>65.510000000000005</ele>
        <time>2023-09-02T15:35:33Z</time>
      </trkpt>
      <trkpt lat="55.772695038467646" lon="-4.037526967003942">
        <ele>65.989999999999995</ele>
        <time>2023-09-02T15:35:34Z</time>
      </trkpt>
      <trkpt lat="55.772594036534429" lon="-4.037548005580902">
        <ele>66.469999999999999</ele>
        <time>2023-09-02T15:35:35Z</time>
      </trkpt>
      <trkpt lat="55.772495968267322" lon="-4.037568038329482">
        <ele>66.950000000000003</ele>
        <time>2023-09-02T15:35:36Z</time>
      </trkpt>
      <trkpt lat="55.772394966334105" lon="-4.037592010572553">
        <ele>67.430000000000007</ele>
        <time>2023-09-02T15:35:37Z</time>
      </trkpt>
      <trkpt lat="55.771502964198589" lon="-4.037879006937146">
        <ele>70.310000000000002</ele>
        <time>2023-09-02T15:35:47Z</time>
      </trkpt>
      <trkpt lat="55.771233988925815" lon="-4.038008004426956">
        <ele>72.239999999999995</ele>
        <time>2023-09-02T15:35:51Z</time>
      </trkpt>
      <trkpt lat="55.771179003641009" lon="-4.038029965013266">
        <ele>72.239999999999995</ele>
        <time>2023-09-02T15:35:52Z</time>
      </trkpt>
      <trkpt lat="55.771130975335836" lon="-4.038047986105084">
        <ele>72.719999999999999</ele>
        <time>2023-09-02T15:35:53Z</time>
      </trkpt>
      <trkpt lat="55.771022010594606" lon="-4.038089979439974">
        <ele>73.200000000000003</ele>
        <time>2023-09-02T15:35:55Z</time>
      </trkpt>
      <trkpt lat="55.770941041409969" lon="-4.037982020527124">
        <ele>73.200000000000003</ele>
        <time>2023-09-02T15:35:56Z</time>
      </trkpt>
      <trkpt lat="55.770894018933177" lon="-4.038227023556829">
        <ele>73.680000000000007</ele>
        <time>2023-09-02T15:35:57Z</time>
      </trkpt>
      <trkpt lat="55.770845990628004" lon="-4.038282008841634">
        <ele>74.159999999999997</ele>
        <time>2023-09-02T15:35:58Z</time>
      </trkpt>
      <trkpt lat="55.770778013393283" lon="-4.03836197219789">
        <ele>74.159999999999997</ele>
        <time>2023-09-02T15:35:59Z</time>
      </trkpt>
      <trkpt lat="55.770691009238362" lon="-4.038427015766501">
        <ele>74.159999999999997</ele>
        <time>2023-09-02T15:36:00Z</time>
      </trkpt>
      <trkpt lat="55.770604005083442" lon="-4.038486024364829">
        <ele>74.159999999999997</ele>
        <time>2023-09-02T15:36:01Z</time>
      </trkpt>
      <trkpt lat="55.769790038466454" lon="-4.039040990173817">
        <ele>75.120000000000005</ele>
        <time>2023-09-02T15:36:11Z</time>
      </trkpt>
      <trkpt lat="55.769054023548961" lon="-4.039532002061606">
        <ele>78</ele>
        <time>2023-09-02T15:36:20Z</time>
      </trkpt>
      <trkpt lat="55.76900901272893" lon="-4.03956200927496">
        <ele>78.480000000000004</ele>
        <time>2023-09-02T15:36:21Z</time>
      </trkpt>
      <trkpt lat="55.768977999687195" lon="-4.039581958204508">
        <ele>78.969999999999999</ele>
        <time>2023-09-02T15:36:22Z</time>
      </trkpt>
      <trkpt lat="55.768960984423757" lon="-4.039594028145075">
        <ele>79.450000000000003</ele>
        <time>2023-09-02T15:36:23Z</time>
      </trkpt>
      <trkpt lat="55.768952015787363" lon="-4.039599979296327">
        <ele>79.930000000000007</ele>
        <time>2023-09-02T15:36:24Z</time>
      </trkpt>
      <trkpt lat="55.768942041322589" lon="-4.039607020094991">
        <ele>80.409999999999997</ele>
        <time>2023-09-02T15:36:25Z</time>
      </trkpt>
      <trkpt lat="55.768932988867164" lon="-4.039612971246243">
        <ele>80.409999999999997</ele>
        <time>2023-09-02T15:36:26Z</time>
      </trkpt>
      <trkpt lat="55.768932988867164" lon="-4.039612971246243">
        <ele>80.890000000000001</ele>
        <time>2023-09-02T15:36:43Z</time>
      </trkpt>
      <trkpt lat="55.768969031050801" lon="-4.039312982931733">
        <ele>82.810000000000002</ele>
        <time>2023-09-02T15:40:04Z</time>
      </trkpt>
      <trkpt lat="55.768943969160318" lon="-4.03947601094842">
        <ele>92.900000000000006</ele>
        <time>2023-09-02T15:40:19Z</time>
      </trkpt>
      <trkpt lat="55.76892301440239" lon="-4.039365034550428">
        <ele>79.450000000000003</ele>
        <time>2023-09-02T15:40:56Z</time>
      </trkpt>
      <trkpt lat="55.768753029406071" lon="-4.039518004283309">
        <ele>81.849999999999994</ele>
        <time>2023-09-02T15:41:10Z</time>
      </trkpt>
      <trkpt lat="55.768723022192717" lon="-4.039529990404844">
        <ele>82.329999999999998</ele>
        <time>2023-09-02T15:41:20Z</time>
      </trkpt>
      <trkpt lat="55.768703995272517" lon="-4.039577012881637">
        <ele>79.930000000000007</ele>
        <time>2023-09-02T15:41:32Z</time>
      </trkpt>
      <trkpt lat="55.768718998879194" lon="-4.03975403867662">
        <ele>80.409999999999997</ele>
        <time>2023-09-02T15:41:37Z</time>
      </trkpt>
      <trkpt lat="55.768677005544305" lon="-4.039781028404832">
        <ele>80.409999999999997</ele>
        <time>2023-09-02T15:41:38Z</time>
      </trkpt>
      <trkpt lat="55.768616991117597" lon="-4.03982000425458">
        <ele>80.409999999999997</ele>
        <time>2023-09-02T15:41:39Z</time>
      </trkpt>
      <trkpt lat="55.768540967255831" lon="-4.039869038388133">
        <ele>79.930000000000007</ele>
        <time>2023-09-02T15:41:40Z</time>
      </trkpt>
      <trkpt lat="55.767508987337351" lon="-4.040539003908634">
        <ele>79.450000000000003</ele>
        <time>2023-09-02T15:41:52Z</time>
      </trkpt>
      <trkpt lat="55.766192022711039" lon="-4.041379960253835">
        <ele>88.099999999999994</ele>
        <time>2023-09-02T15:42:06Z</time>
      </trkpt>
      <trkpt lat="55.764729967340827" lon="-4.042309010401368">
        <ele>98.189999999999998</ele>
        <time>2023-09-02T15:42:19Z</time>
      </trkpt>
      <trkpt lat="55.763284005224705" lon="-4.043326992541552">
        <ele>104.92</ele>
        <time>2023-09-02T15:42:32Z</time>
      </trkpt>
      <trkpt lat="55.76177098788321" lon="-4.044592995196581">
        <ele>112.13</ele>
        <time>2023-09-02T15:42:47Z</time>
      </trkpt>
      <trkpt lat="55.760849984362721" lon="-4.045483991503716">
        <ele>116.45999999999999</ele>
        <time>2023-09-02T15:42:57Z</time>
      </trkpt>
      <trkpt lat="55.760107012465596" lon="-4.046256970614195">
        <ele>120.78</ele>
        <time>2023-09-02T15:43:05Z</time>
      </trkpt>
      <trkpt lat="55.760000981390476" lon="-4.046298963949084">
        <ele>121.26000000000001</ele>
        <time>2023-09-02T15:43:06Z</time>
      </trkpt>
      <trkpt lat="55.758730033412576" lon="-4.046590989455581">
        <ele>127.03</ele>
        <time>2023-09-02T15:43:18Z</time>
      </trkpt>
      <trkpt lat="55.757310977205634" lon="-4.047235976904631">
        <ele>133.75999999999999</ele>
        <time>2023-09-02T15:43:31Z</time>
      </trkpt>
      <trkpt lat="55.75682801194489" lon="-4.04749003238976">
        <ele>134.72</ele>
        <time>2023-09-02T15:43:39Z</time>
      </trkpt>
      <trkpt lat="55.756666995584965" lon="-4.047579970210791">
        <ele>135.68000000000001</ele>
        <time>2023-09-02T15:43:49Z</time>
      </trkpt>
      <trkpt lat="55.75605402700603" lon="-4.047917006537318">
        <ele>136.63999999999999</ele>
        <time>2023-09-02T15:43:56Z</time>
      </trkpt>
      <trkpt lat="55.75485298410058" lon="-4.048553025349975">
        <ele>141.44999999999999</ele>
        <time>2023-09-02T15:44:08Z</time>
      </trkpt>
      <trkpt lat="55.753612965345383" lon="-4.048961978405714">
        <ele>146.25999999999999</ele>
        <time>2023-09-02T15:44:19Z</time>
      </trkpt>
      <trkpt lat="55.752341011539102" lon="-4.049243023619056">
        <ele>146.74000000000001</ele>
        <time>2023-09-02T15:44:30Z</time>
      </trkpt>
      <trkpt lat="55.75173701159656" lon="-4.049646025523543">
        <ele>152.03</ele>
        <time>2023-09-02T15:44:37Z</time>
      </trkpt>
      <trkpt lat="55.751645984128118" lon="-4.0497069619596">
        <ele>153.47</ele>
        <time>2023-09-02T15:44:39Z</time>
      </trkpt>
      <trkpt lat="55.751539031043649" lon="-4.049813998863101">
        <ele>154.43000000000001</ele>
        <time>2023-09-02T15:44:40Z</time>
      </trkpt>
      <trkpt lat="55.751369968056679" lon="-4.049921035766602">
        <ele>155.38999999999999</ele>
        <time>2023-09-02T15:44:42Z</time>
      </trkpt>
      <trkpt lat="55.751273995265365" lon="-4.049980966374278">
        <ele>155.38999999999999</ele>
        <time>2023-09-02T15:44:43Z</time>
      </trkpt>
      <trkpt lat="55.750663038343191" lon="-4.050332000479102">
        <ele>157.31</ele>
        <time>2023-09-02T15:44:50Z</time>
      </trkpt>
      <trkpt lat="55.750583996996284" lon="-4.050337029621005">
        <ele>157.31</ele>
        <time>2023-09-02T15:44:51Z</time>
      </trkpt>
      <trkpt lat="55.750506967306137" lon="-4.050341974943876">
        <ele>158.27000000000001</ele>
        <time>2023-09-02T15:44:52Z</time>
      </trkpt>
      <trkpt lat="55.750433960929513" lon="-4.050345998257399">
        <ele>158.75</ele>
        <time>2023-09-02T15:44:53Z</time>
      </trkpt>
      <trkpt lat="55.750336982309818" lon="-4.050221024081111">
        <ele>158.75</ele>
        <time>2023-09-02T15:44:54Z</time>
      </trkpt>
      <trkpt lat="55.750302029773593" lon="-4.050197973847389">
        <ele>159.24000000000001</ele>
        <time>2023-09-02T15:44:55Z</time>
      </trkpt>
      <trkpt lat="55.750273028388619" lon="-4.050179030746222">
        <ele>159.72</ele>
        <time>2023-09-02T15:44:56Z</time>
      </trkpt>
      <trkpt lat="55.750206978991628" lon="-4.050278021022677">
        <ele>159.72</ele>
        <time>2023-09-02T15:44:57Z</time>
      </trkpt>
      <trkpt lat="55.750174960121512" lon="-4.050341974943876">
        <ele>160.19999999999999</ele>
        <time>2023-09-02T15:44:58Z</time>
      </trkpt>
      <trkpt lat="55.750143025070429" lon="-4.0504340082407">
        <ele>160.68000000000001</ele>
        <time>2023-09-02T15:44:59Z</time>
      </trkpt>
      <trkpt lat="55.750106982886791" lon="-4.050538027659059">
        <ele>161.16</ele>
        <time>2023-09-02T15:45:00Z</time>
      </trkpt>
      <trkpt lat="55.750067001208663" lon="-4.050652021542192">
        <ele>161.63999999999999</ele>
        <time>2023-09-02T15:45:01Z</time>
      </trkpt>
      <trkpt lat="55.750027019530535" lon="-4.050767021253705">
        <ele>162.12</ele>
        <time>2023-09-02T15:45:02Z</time>
      </trkpt>
      <trkpt lat="55.749921994283795" lon="-4.05099400319159">
        <ele>162.59999999999999</ele>
        <time>2023-09-02T15:45:03Z</time>
      </trkpt>
      <trkpt lat="55.749840019270778" lon="-4.05099400319159">
        <ele>163.56</ele>
        <time>2023-09-02T15:45:04Z</time>
      </trkpt>
      <trkpt lat="55.749757038429379" lon="-4.050995009019971">
        <ele>164.52000000000001</ele>
        <time>2023-09-02T15:45:05Z</time>
      </trkpt>
      <trkpt lat="55.748717011883855" lon="-4.05170202255249">
        <ele>171.72999999999999</ele>
        <time>2023-09-02T15:45:14Z</time>
      </trkpt>
      <trkpt lat="55.746914986521006" lon="-4.052913039922714">
        <ele>185.19</ele>
        <time>2023-09-02T15:45:29Z</time>
      </trkpt>
      <trkpt lat="55.745328962802887" lon="-4.053959017619491">
        <ele>192.40000000000001</ele>
        <time>2023-09-02T15:45:42Z</time>
      </trkpt>
      <trkpt lat="55.745267020538449" lon="-4.054000005126">
        <ele>192.88</ele>
        <time>2023-09-02T15:45:43Z</time>
      </trkpt>
      <trkpt lat="55.745215974748135" lon="-4.054033029824495">
        <ele>193.36000000000001</ele>
        <time>2023-09-02T15:45:44Z</time>
      </trkpt>
      <trkpt lat="55.745168030261993" lon="-4.054064964875579">
        <ele>193.84</ele>
        <time>2023-09-02T15:45:45Z</time>
      </trkpt>
      <trkpt lat="55.745122013613582" lon="-4.054094972088933">
        <ele>193.84</ele>
        <time>2023-09-02T15:45:46Z</time>
      </trkpt>
      <trkpt lat="55.745080020278692" lon="-4.054122967645526">
        <ele>194.31999999999999</ele>
        <time>2023-09-02T15:45:47Z</time>
      </trkpt>
      <trkpt lat="55.745036015287042" lon="-4.0541519690305">
        <ele>194.31999999999999</ele>
        <time>2023-09-02T15:45:48Z</time>
      </trkpt>
      <trkpt lat="55.744987986981869" lon="-4.054183987900615">
        <ele>194.80000000000001</ele>
        <time>2023-09-02T15:45:49Z</time>
      </trkpt>
      <trkpt lat="55.744935013353825" lon="-4.054219024255872">
        <ele>194.80000000000001</ele>
        <time>2023-09-02T15:45:50Z</time>
      </trkpt>
      <trkpt lat="55.744879022240639" lon="-4.054255988448858">
        <ele>195.28</ele>
        <time>2023-09-02T15:45:51Z</time>
      </trkpt>
      <trkpt lat="55.744813978672028" lon="-4.054297981783748">
        <ele>195.77000000000001</ele>
        <time>2023-09-02T15:45:52Z</time>
      </trkpt>
      <trkpt lat="55.744738960638642" lon="-4.054348021745682">
        <ele>195.77000000000001</ele>
        <time>2023-09-02T15:45:53Z</time>
      </trkpt>
      <trkpt lat="55.744652040302753" lon="-4.054406024515629">
        <ele>195.77000000000001</ele>
        <time>2023-09-02T15:45:54Z</time>
      </trkpt>
      <trkpt lat="55.744553972035646" lon="-4.054469978436828">
        <ele>195.77000000000001</ele>
        <time>2023-09-02T15:45:55Z</time>
      </trkpt>
      <trkpt lat="55.743706980720162" lon="-4.055028967559338">
        <ele>194.31999999999999</ele>
        <time>2023-09-02T15:46:01Z</time>
      </trkpt>
      <trkpt lat="55.742280967533588" lon="-4.055968998000026">
        <ele>192.40000000000001</ele>
        <time>2023-09-02T15:46:08Z</time>
      </trkpt>
      <trkpt lat="55.741025023162365" lon="-4.05679696239531">
        <ele>191.91999999999999</ele>
        <time>2023-09-02T15:46:13Z</time>
      </trkpt>
      <trkpt lat="55.739561039954424" lon="-4.057760965079069">
        <ele>195.77000000000001</ele>
        <time>2023-09-02T15:46:19Z</time>
      </trkpt>
      <trkpt lat="55.736762993037701" lon="-4.059581011533737">
        <ele>206.81999999999999</ele>
        <time>2023-09-02T15:46:33Z</time>
      </trkpt>
      <trkpt lat="55.736175002530217" lon="-4.059897009283304">
        <ele>209.69999999999999</ele>
        <time>2023-09-02T15:46:36Z</time>
      </trkpt>
      <trkpt lat="55.734510021284223" lon="-4.060386009514332">
        <ele>211.15000000000001</ele>
        <time>2023-09-02T15:46:45Z</time>
      </trkpt>
      <trkpt lat="55.732672037556767" lon="-4.060927983373404">
        <ele>212.11000000000001</ele>
        <time>2023-09-02T15:46:56Z</time>
      </trkpt>
      <trkpt lat="55.730361985042691" lon="-4.061644971370697">
        <ele>214.03</ele>
        <time>2023-09-02T15:47:10Z</time>
      </trkpt>
      <trkpt lat="55.727668041363358" lon="-4.062461033463478">
        <ele>209.22</ele>
        <time>2023-09-02T15:47:24Z</time>
      </trkpt>
      <trkpt lat="55.724791036918759" lon="-4.063351023942232">
        <ele>215.94999999999999</ele>
        <time>2023-09-02T15:47:39Z</time>
      </trkpt>
      <trkpt lat="55.722470004111528" lon="-4.064045967534185">
        <ele>221.24000000000001</ele>
        <time>2023-09-02T15:47:51Z</time>
      </trkpt>
      <trkpt lat="55.721385972574353" lon="-4.064447041600943">
        <ele>220.75999999999999</ele>
        <time>2023-09-02T15:47:57Z</time>
      </trkpt>
      <trkpt lat="55.721252029761672" lon="-4.064559023827314">
        <ele>220.28</ele>
        <time>2023-09-02T15:47:58Z</time>
      </trkpt>
      <trkpt lat="55.721124038100243" lon="-4.064712999388576">
        <ele>220.28</ele>
        <time>2023-09-02T15:47:59Z</time>
      </trkpt>
      <trkpt lat="55.721001997590065" lon="-4.064892958849669">
        <ele>220.28</ele>
        <time>2023-09-02T15:48:00Z</time>
      </trkpt>
      <trkpt lat="55.720871994271874" lon="-4.06508699990809">
        <ele>220.28</ele>
        <time>2023-09-02T15:48:01Z</time>
      </trkpt>
      <trkpt lat="55.719627030193806" lon="-4.066986003890634">
        <ele>221.72</ele>
        <time>2023-09-02T15:48:11Z</time>
      </trkpt>
      <trkpt lat="55.719494009390473" lon="-4.067142996937037">
        <ele>221.72</ele>
        <time>2023-09-02T15:48:12Z</time>
      </trkpt>
      <trkpt lat="55.719353025779128" lon="-4.067274006083608">
        <ele>221.72</ele>
        <time>2023-09-02T15:48:13Z</time>
      </trkpt>
      <trkpt lat="55.719198966398835" lon="-4.067331003025174">
        <ele>222.19999999999999</ele>
        <time>2023-09-02T15:48:14Z</time>
      </trkpt>
      <trkpt lat="55.719039961695671" lon="-4.067389005795121">
        <ele>222.19999999999999</ele>
        <time>2023-09-02T15:48:15Z</time>
      </trkpt>
      <trkpt lat="55.718876011669636" lon="-4.067449020221829">
        <ele>222.68000000000001</ele>
        <time>2023-09-02T15:48:16Z</time>
      </trkpt>
      <trkpt lat="55.717242965474725" lon="-4.067845987156034">
        <ele>229.41</ele>
        <time>2023-09-02T15:48:25Z</time>
      </trkpt>
      <trkpt lat="55.716399997472763" lon="-4.068116974085569">
        <ele>233.74000000000001</ele>
        <time>2023-09-02T15:48:30Z</time>
      </trkpt>
      <trkpt lat="55.71624300442636" lon="-4.068110017105937">
        <ele>234.69999999999999</ele>
        <time>2023-09-02T15:48:31Z</time>
      </trkpt>
      <trkpt lat="55.715194009244442" lon="-4.068162990733981">
        <ele>239.02000000000001</ele>
        <time>2023-09-02T15:48:37Z</time>
      </trkpt>
      <trkpt lat="55.715033998712897" lon="-4.068293999880552">
        <ele>239.99000000000001</ele>
        <time>2023-09-02T15:48:38Z</time>
      </trkpt>
      <trkpt lat="55.714874994009733" lon="-4.068456022068858">
        <ele>240.94999999999999</ele>
        <time>2023-09-02T15:48:39Z</time>
      </trkpt>
      <trkpt lat="55.71439404040575" lon="-4.068973017856479">
        <ele>244.31</ele>
        <time>2023-09-02T15:48:42Z</time>
      </trkpt>
      <trkpt lat="55.714236963540316" lon="-4.069092040881515">
        <ele>245.27000000000001</ele>
        <time>2023-09-02T15:48:43Z</time>
      </trkpt>
      <trkpt lat="55.714067984372377" lon="-4.069122970104218">
        <ele>246.72</ele>
        <time>2023-09-02T15:48:44Z</time>
      </trkpt>
      <trkpt lat="55.713897999376059" lon="-4.069153983145952">
        <ele>248.16</ele>
        <time>2023-09-02T15:48:45Z</time>
      </trkpt>
      <trkpt lat="55.713732037693262" lon="-4.069145014509559">
        <ele>249.12</ele>
        <time>2023-09-02T15:48:46Z</time>
      </trkpt>
      <trkpt lat="55.713577978312969" lon="-4.069101009517908">
        <ele>249.59999999999999</ele>
        <time>2023-09-02T15:48:47Z</time>
      </trkpt>
      <trkpt lat="55.713445963338017" lon="-4.069011993706226">
        <ele>250.08000000000001</ele>
        <time>2023-09-02T15:48:48Z</time>
      </trkpt>
      <trkpt lat="55.71332098916173" lon="-4.068888025358319">
        <ele>250.56</ele>
        <time>2023-09-02T15:48:49Z</time>
      </trkpt>
      <trkpt lat="55.713202971965075" lon="-4.06871996819973">
        <ele>250.56</ele>
        <time>2023-09-02T15:48:50Z</time>
      </trkpt>
      <trkpt lat="55.713076991960406" lon="-4.068511007353663">
        <ele>250.56</ele>
        <time>2023-09-02T15:48:51Z</time>
      </trkpt>
      <trkpt lat="55.711733037605882" lon="-4.066345961764455">
        <ele>246.22999999999999</ele>
        <time>2023-09-02T15:49:01Z</time>
      </trkpt>
      <trkpt lat="55.711576966568828" lon="-4.066241020336747">
        <ele>245.75</ele>
        <time>2023-09-02T15:49:02Z</time>
      </trkpt>
      <trkpt lat="55.711434977129102" lon="-4.066164996474981">
        <ele>245.27000000000001</ele>
        <time>2023-09-02T15:49:03Z</time>
      </trkpt>
      <trkpt lat="55.711262980476022" lon="-4.06613901257515">
        <ele>244.78999999999999</ele>
        <time>2023-09-02T15:49:04Z</time>
      </trkpt>
      <trkpt lat="55.711092995479703" lon="-4.066114034503698">
        <ele>244.31</ele>
        <time>2023-09-02T15:49:05Z</time>
      </trkpt>
      <trkpt lat="55.709161972627044" lon="-4.065833995118737">
        <ele>239.50999999999999</ele>
        <time>2023-09-02T15:49:15Z</time>
      </trkpt>
      <trkpt lat="55.70724000222981" lon="-4.065528977662325">
        <ele>244.31</ele>
        <time>2023-09-02T15:49:26Z</time>
      </trkpt>
      <trkpt lat="55.704390993341804" lon="-4.065132010728121">
        <ele>246.22999999999999</ele>
        <time>2023-09-02T15:49:41Z</time>
      </trkpt>
      <trkpt lat="55.702053029090166" lon="-4.064819030463696">
        <ele>245.27000000000001</ele>
        <time>2023-09-02T15:49:53Z</time>
      </trkpt>
      <trkpt lat="55.700050005689263" lon="-4.06455097720027">
        <ele>242.38999999999999</ele>
        <time>2023-09-02T15:50:03Z</time>
      </trkpt>
      <trkpt lat="55.69942002184689" lon="-4.06446598470211">
        <ele>240.94999999999999</ele>
        <time>2023-09-02T15:50:07Z</time>
      </trkpt>
      <trkpt lat="55.699298987165093" lon="-4.064447963610292">
        <ele>240.47</ele>
        <time>2023-09-02T15:50:08Z</time>
      </trkpt>
      <trkpt lat="55.699188010767102" lon="-4.064431032165885">
        <ele>239.99000000000001</ele>
        <time>2023-09-02T15:50:09Z</time>
      </trkpt>
      <trkpt lat="55.698469011113048" lon="-4.064322989434004">
        <ele>236.62</ele>
        <time>2023-09-02T15:50:16Z</time>
      </trkpt>
      <trkpt lat="55.698415031656623" lon="-4.064315026625991">
        <ele>236.62</ele>
        <time>2023-09-02T15:50:17Z</time>
      </trkpt>
      <trkpt lat="55.698365997523069" lon="-4.064306979998946">
        <ele>236.13999999999999</ele>
        <time>2023-09-02T15:50:18Z</time>
      </trkpt>
      <trkpt lat="55.698300031945109" lon="-4.064304968342185">
        <ele>236.13999999999999</ele>
        <time>2023-09-02T15:50:19Z</time>
      </trkpt>
      <trkpt lat="55.698274970054626" lon="-4.064383003860712">
        <ele>235.66</ele>
        <time>2023-09-02T15:50:20Z</time>
      </trkpt>
      <trkpt lat="55.698242029175162" lon="-4.064482999965549">
        <ele>235.66</ele>
        <time>2023-09-02T15:50:21Z</time>
      </trkpt>
      <trkpt lat="55.698201041668653" lon="-4.064609985798597">
        <ele>235.18000000000001</ele>
        <time>2023-09-02T15:50:22Z</time>
      </trkpt>
      <trkpt lat="55.6981520075351" lon="-4.064761027693749">
        <ele>235.18000000000001</ele>
        <time>2023-09-02T15:50:23Z</time>
      </trkpt>
      <trkpt lat="55.697671975940466" lon="-4.066027030348778">
        <ele>235.18000000000001</ele>
        <time>2023-09-02T15:50:29Z</time>
      </trkpt>
      <trkpt lat="55.696853986009955" lon="-4.067956041544676">
        <ele>238.06</ele>
        <time>2023-09-02T15:50:37Z</time>
      </trkpt>
      <trkpt lat="55.695631988346577" lon="-4.07011698000133">
        <ele>238.06</ele>
        <time>2023-09-02T15:50:47Z</time>
      </trkpt>
      <trkpt lat="55.695277014747262" lon="-4.070744030177593">
        <ele>238.53999999999999</ele>
        <time>2023-09-02T15:50:51Z</time>
      </trkpt>
      <trkpt lat="55.695234015583992" lon="-4.070820976048708">
        <ele>239.02000000000001</ele>
        <time>2023-09-02T15:50:52Z</time>
      </trkpt>
      <trkpt lat="55.695224041119218" lon="-4.071073019877076">
        <ele>239.02000000000001</ele>
        <time>2023-09-02T15:50:53Z</time>
      </trkpt>
      <trkpt lat="55.695215994492173" lon="-4.071272006258369">
        <ele>239.50999999999999</ele>
        <time>2023-09-02T15:50:54Z</time>
      </trkpt>
      <trkpt lat="55.69520803168416" lon="-4.071491025388241">
        <ele>239.50999999999999</ele>
        <time>2023-09-02T15:50:55Z</time>
      </trkpt>
      <trkpt lat="55.695172995328903" lon="-4.072398031130433">
        <ele>240.47</ele>
        <time>2023-09-02T15:50:59Z</time>
      </trkpt>
      <trkpt lat="55.695137036964297" lon="-4.072571033611894">
        <ele>240.94999999999999</ele>
        <time>2023-09-02T15:51:00Z</time>
      </trkpt>
      <trkpt lat="55.695072999224067" lon="-4.072689972817898">
        <ele>240.94999999999999</ele>
        <time>2023-09-02T15:51:01Z</time>
      </trkpt>
      <trkpt lat="55.694999992847443" lon="-4.072807990014553">
        <ele>240.94999999999999</ele>
        <time>2023-09-02T15:51:02Z</time>
      </trkpt>
      <trkpt lat="55.694925980642438" lon="-4.072930030524731">
        <ele>241.43000000000001</ele>
        <time>2023-09-02T15:51:03Z</time>
      </trkpt>
      <trkpt lat="55.694861020892859" lon="-4.073035977780819">
        <ele>241.43000000000001</ele>
        <time>2023-09-02T15:51:04Z</time>
      </trkpt>
      <trkpt lat="55.694636972621083" lon="-4.073417019098997">
        <ele>242.38999999999999</ele>
        <time>2023-09-02T15:51:10Z</time>
      </trkpt>
      <trkpt lat="55.694147972390056" lon="-4.074389990419149">
        <ele>241.43000000000001</ele>
        <time>2023-09-02T15:51:16Z</time>
      </trkpt>
      <trkpt lat="55.693302992731333" lon="-4.076124960556626">
        <ele>239.02000000000001</ele>
        <time>2023-09-02T15:51:25Z</time>
      </trkpt>
      <trkpt lat="55.692512998357415" lon="-4.077390963211656">
        <ele>235.18000000000001</ele>
        <time>2023-09-02T15:51:33Z</time>
      </trkpt>
      <trkpt lat="55.692429011687636" lon="-4.077518032863736">
        <ele>234.69999999999999</ele>
        <time>2023-09-02T15:51:41Z</time>
      </trkpt>
      <trkpt lat="55.692402021959424" lon="-4.077559020370245">
        <ele>234.69999999999999</ele>
        <time>2023-09-02T15:51:58Z</time>
      </trkpt>
      <trkpt lat="55.692427000030875" lon="-4.07759103924036">
        <ele>235.18000000000001</ele>
        <time>2023-09-02T15:51:59Z</time>
      </trkpt>
      <trkpt lat="55.692472010850906" lon="-4.077648958191276">
        <ele>235.18000000000001</ele>
        <time>2023-09-02T15:52:00Z</time>
      </trkpt>
      <trkpt lat="55.692543005570769" lon="-4.077740991488099">
        <ele>235.18000000000001</ele>
        <time>2023-09-02T15:52:01Z</time>
      </trkpt>
      <trkpt lat="55.692617017775774" lon="-4.077836964279413">
        <ele>235.18000000000001</ele>
        <time>2023-09-02T15:52:02Z</time>
      </trkpt>
      <trkpt lat="55.693312967196107" lon="-4.078717986121774">
        <ele>236.13999999999999</ele>
        <time>2023-09-02T15:52:08Z</time>
      </trkpt>
      <trkpt lat="55.694754989817739" lon="-4.080586982890964">
        <ele>238.06</ele>
        <time>2023-09-02T15:52:17Z</time>
      </trkpt>
      <trkpt lat="55.696382001042366" lon="-4.083257038146257">
        <ele>238.06</ele>
        <time>2023-09-02T15:52:28Z</time>
      </trkpt>
      <trkpt lat="55.6981520075351" lon="-4.086162960156798">
        <ele>237.09999999999999</ele>
        <time>2023-09-02T15:52:40Z</time>
      </trkpt>
      <trkpt lat="55.699679022654891" lon="-4.088134970515966">
        <ele>237.58000000000001</ele>
        <time>2023-09-02T15:52:49Z</time>
      </trkpt>
      <trkpt lat="55.701830992475152" lon="-4.090720033273101">
        <ele>238.53999999999999</ele>
        <time>2023-09-02T15:53:02Z</time>
      </trkpt>
      <trkpt lat="55.703076040372252" lon="-4.091587979346514">
        <ele>239.02000000000001</ele>
        <time>2023-09-02T15:53:09Z</time>
      </trkpt>
      <trkpt lat="55.703431013971567" lon="-4.091828037053347">
        <ele>240.47</ele>
        <time>2023-09-02T15:53:11Z</time>
      </trkpt>
      <trkpt lat="55.705131031572819" lon="-4.093234017491341">
        <ele>246.22999999999999</ele>
        <time>2023-09-02T15:53:21Z</time>
      </trkpt>
      <trkpt lat="55.70556303486228" lon="-4.093774985522032">
        <ele>248.16</ele>
        <time>2023-09-02T15:53:24Z</time>
      </trkpt>
      <trkpt lat="55.705706030130386" lon="-4.093876993283629">
        <ele>248.63999999999999</ele>
        <time>2023-09-02T15:53:25Z</time>
      </trkpt>
      <trkpt lat="55.705852964892983" lon="-4.093930972740054">
        <ele>249.12</ele>
        <time>2023-09-02T15:53:26Z</time>
      </trkpt>
      <trkpt lat="55.706000989302993" lon="-4.09398696385324">
        <ele>249.12</ele>
        <time>2023-09-02T15:53:27Z</time>
      </trkpt>
      <trkpt lat="55.706153959035873" lon="-4.094043038785458">
        <ele>249.12</ele>
        <time>2023-09-02T15:53:28Z</time>
      </trkpt>
      <trkpt lat="55.706900032237172" lon="-4.094245964661241">
        <ele>246.72</ele>
        <time>2023-09-02T15:53:34Z</time>
      </trkpt>
      <trkpt lat="55.706947976723313" lon="-4.094257028773427">
        <ele>246.22999999999999</ele>
        <time>2023-09-02T15:53:35Z</time>
      </trkpt>
      <trkpt lat="55.706985024735332" lon="-4.09426499158144">
        <ele>246.22999999999999</ele>
        <time>2023-09-02T15:53:36Z</time>
      </trkpt>
      <trkpt lat="55.706904977560043" lon="-4.094334980472922">
        <ele>245.75</ele>
        <time>2023-09-02T15:53:37Z</time>
      </trkpt>
      <trkpt lat="55.706883016973734" lon="-4.094413015991449">
        <ele>245.75</ele>
        <time>2023-09-02T15:53:38Z</time>
      </trkpt>
      <trkpt lat="55.706855021417141" lon="-4.094515023753047">
        <ele>245.75</ele>
        <time>2023-09-02T15:53:39Z</time>
      </trkpt>
      <trkpt lat="55.706818979233503" lon="-4.094645027071238">
        <ele>245.27000000000001</ele>
        <time>2023-09-02T15:53:40Z</time>
      </trkpt>
      <trkpt lat="55.706774974241853" lon="-4.094802020117641">
        <ele>245.27000000000001</ele>
        <time>2023-09-02T15:53:41Z</time>
      </trkpt>
      <trkpt lat="55.706269964575768" lon="-4.096603961661458">
        <ele>241.43000000000001</ele>
        <time>2023-09-02T15:53:50Z</time>
      </trkpt>
      <trkpt lat="55.705874003469944" lon="-4.098145980387926">
        <ele>235.66</ele>
        <time>2023-09-02T15:53:57Z</time>
      </trkpt>
      <trkpt lat="55.705868974328041" lon="-4.098343038931489">
        <ele>234.69999999999999</ele>
        <time>2023-09-02T15:53:58Z</time>
      </trkpt>
      <trkpt lat="55.70586503483355" lon="-4.098528027534485">
        <ele>233.74000000000001</ele>
        <time>2023-09-02T15:53:59Z</time>
      </trkpt>
      <trkpt lat="55.705861011520028" lon="-4.098701030015945">
        <ele>233.25999999999999</ele>
        <time>2023-09-02T15:54:00Z</time>
      </trkpt>
      <trkpt lat="55.705856988206506" lon="-4.09886104054749">
        <ele>233.25999999999999</ele>
        <time>2023-09-02T15:54:01Z</time>
      </trkpt>
      <trkpt lat="55.705819018185139" lon="-4.099025996401906">
        <ele>232.78</ele>
        <time>2023-09-02T15:54:02Z</time>
      </trkpt>
      <trkpt lat="55.705771995708346" lon="-4.099151976406574">
        <ele>232.30000000000001</ele>
        <time>2023-09-02T15:54:03Z</time>
      </trkpt>
      <trkpt lat="55.705718016251922" lon="-4.09929296001792">
        <ele>231.81</ele>
        <time>2023-09-02T15:54:04Z</time>
      </trkpt>
      <trkpt lat="55.705304034054279" lon="-4.100658958777785">
        <ele>229.88999999999999</ele>
        <time>2023-09-02T15:54:11Z</time>
      </trkpt>
      <trkpt lat="55.705040004104376" lon="-4.101387010887265">
        <ele>230.37</ele>
        <time>2023-09-02T15:54:15Z</time>
      </trkpt>
      <trkpt lat="55.704935984686017" lon="-4.101517014205456">
        <ele>230.37</ele>
        <time>2023-09-02T15:54:16Z</time>
      </trkpt>
      <trkpt lat="55.704832971096039" lon="-4.101611981168389">
        <ele>230.37</ele>
        <time>2023-09-02T15:54:17Z</time>
      </trkpt>
      <trkpt lat="55.704731969162822" lon="-4.101706026121974">
        <ele>230.37</ele>
        <time>2023-09-02T15:54:18Z</time>
      </trkpt>
      <trkpt lat="55.704627027735114" lon="-4.101803004741669">
        <ele>230.84999999999999</ele>
        <time>2023-09-02T15:54:19Z</time>
      </trkpt>
      <trkpt lat="55.704437009990215" lon="-4.102007020264864">
        <ele>230.84999999999999</ele>
        <time>2023-09-02T15:54:21Z</time>
      </trkpt>
      <trkpt lat="55.704374983906746" lon="-4.102141968905926">
        <ele>230.84999999999999</ele>
        <time>2023-09-02T15:54:22Z</time>
      </trkpt>
      <trkpt lat="55.704317986965179" lon="-4.10229803994298">
        <ele>230.84999999999999</ele>
        <time>2023-09-02T15:54:23Z</time>
      </trkpt>
      <trkpt lat="55.704274987801909" lon="-4.102489985525608">
        <ele>231.33000000000001</ele>
        <time>2023-09-02T15:54:24Z</time>
      </trkpt>
      <trkpt lat="55.704238023608923" lon="-4.102701963856816">
        <ele>231.33000000000001</ele>
        <time>2023-09-02T15:54:25Z</time>
      </trkpt>
      <trkpt lat="55.704213967546821" lon="-4.102930035442114">
        <ele>231.81</ele>
        <time>2023-09-02T15:54:26Z</time>
      </trkpt>
      <trkpt lat="55.704191001132131" lon="-4.103160034865141">
        <ele>232.30000000000001</ele>
        <time>2023-09-02T15:54:27Z</time>
      </trkpt>
      <trkpt lat="55.704195024445653" lon="-4.103414006531239">
        <ele>233.25999999999999</ele>
        <time>2023-09-02T15:54:28Z</time>
      </trkpt>
      <trkpt lat="55.704214973375201" lon="-4.103672001510859">
        <ele>233.74000000000001</ele>
        <time>2023-09-02T15:54:29Z</time>
      </trkpt>
      <trkpt lat="55.704235006123781" lon="-4.103936031460762">
        <ele>234.69999999999999</ele>
        <time>2023-09-02T15:54:30Z</time>
      </trkpt>
      <trkpt lat="55.704286973923445" lon="-4.10468403249979">
        <ele>236.62</ele>
        <time>2023-09-02T15:54:33Z</time>
      </trkpt>
      <trkpt lat="55.704276999458671" lon="-4.104932975023985">
        <ele>237.09999999999999</ele>
        <time>2023-09-02T15:54:34Z</time>
      </trkpt>
      <trkpt lat="55.704153031110764" lon="-4.106967011466622">
        <ele>237.58000000000001</ele>
        <time>2023-09-02T15:54:42Z</time>
      </trkpt>
      <trkpt lat="55.704034008085728" lon="-4.109910987317562">
        <ele>239.50999999999999</ele>
        <time>2023-09-02T15:54:53Z</time>
      </trkpt>
      <trkpt lat="55.704072983935475" lon="-4.110413985326886">
        <ele>240.94999999999999</ele>
        <time>2023-09-02T15:54:55Z</time>
      </trkpt>
      <trkpt lat="55.704158982262015" lon="-4.111363990232348">
        <ele>241.91</ele>
        <time>2023-09-02T15:54:59Z</time>
      </trkpt>
      <trkpt lat="55.704178009182215" lon="-4.111566999927163">
        <ele>241.91</ele>
        <time>2023-09-02T15:55:00Z</time>
      </trkpt>
      <trkpt lat="55.704197036102414" lon="-4.11177696660161">
        <ele>242.38999999999999</ele>
        <time>2023-09-02T15:55:01Z</time>
      </trkpt>
      <trkpt lat="55.704216985031962" lon="-4.111994979903102">
        <ele>242.87</ele>
        <time>2023-09-02T15:55:02Z</time>
      </trkpt>
      <trkpt lat="55.704252021387219" lon="-4.1122040245682">
        <ele>242.87</ele>
        <time>2023-09-02T15:55:03Z</time>
      </trkpt>
      <trkpt lat="55.704303989186883" lon="-4.112432012334466">
        <ele>242.87</ele>
        <time>2023-09-02T15:55:04Z</time>
      </trkpt>
      <trkpt lat="55.704359980300069" lon="-4.112678021192551">
        <ele>242.87</ele>
        <time>2023-09-02T15:55:05Z</time>
      </trkpt>
      <trkpt lat="55.70457698777318" lon="-4.113570023328066">
        <ele>242.87</ele>
        <time>2023-09-02T15:55:09Z</time>
      </trkpt>
      <trkpt lat="55.704647982493043" lon="-4.113736990839243">
        <ele>242.87</ele>
        <time>2023-09-02T15:55:10Z</time>
      </trkpt>
      <trkpt lat="55.704742027446628" lon="-4.113886021077633">
        <ele>242.87</ele>
        <time>2023-09-02T15:55:11Z</time>
      </trkpt>
      <trkpt lat="55.704846968874335" lon="-4.114020969718695">
        <ele>242.87</ele>
        <time>2023-09-02T15:55:12Z</time>
      </trkpt>
      <trkpt lat="55.704949982464314" lon="-4.114152984693646">
        <ele>242.87</ele>
        <time>2023-09-02T15:55:13Z</time>
      </trkpt>
      <trkpt lat="55.705044027417898" lon="-4.114274019375444">
        <ele>242.87</ele>
        <time>2023-09-02T15:55:14Z</time>
      </trkpt>
      <trkpt lat="55.705129019916058" lon="-4.114397987723351">
        <ele>242.87</ele>
        <time>2023-09-02T15:55:15Z</time>
      </trkpt>
      <trkpt lat="55.705161038786173" lon="-4.114570990204811">
        <ele>242.87</ele>
        <time>2023-09-02T15:55:16Z</time>
      </trkpt>
      <trkpt lat="55.705194985494018" lon="-4.114752039313316">
        <ele>242.87</ele>
        <time>2023-09-02T15:55:17Z</time>
      </trkpt>
      <trkpt lat="55.705229016020894" lon="-4.114939039573073">
        <ele>242.87</ele>
        <time>2023-09-02T15:55:18Z</time>
      </trkpt>
      <trkpt lat="55.705263968557119" lon="-4.115128973498941">
        <ele>243.34999999999999</ele>
        <time>2023-09-02T15:55:19Z</time>
      </trkpt>
      <trkpt lat="55.705327000468969" lon="-4.11529703065753">
        <ele>243.34999999999999</ele>
        <time>2023-09-02T15:55:20Z</time>
      </trkpt>
      <trkpt lat="55.705400006845593" lon="-4.115442959591746">
        <ele>243.34999999999999</ele>
        <time>2023-09-02T15:55:21Z</time>
      </trkpt>
      <trkpt lat="55.70554400794208" lon="-4.115731967613101">
        <ele>243.83000000000001</ele>
        <time>2023-09-02T15:55:23Z</time>
      </trkpt>
      <trkpt lat="55.705613996833563" lon="-4.115871023386717">
        <ele>244.78999999999999</ele>
        <time>2023-09-02T15:55:24Z</time>
      </trkpt>
      <trkpt lat="55.705636963248253" lon="-4.116081995889545">
        <ele>245.27000000000001</ele>
        <time>2023-09-02T15:55:25Z</time>
      </trkpt>
      <trkpt lat="55.705654984340072" lon="-4.116280982270837">
        <ele>245.75</ele>
        <time>2023-09-02T15:55:26Z</time>
      </trkpt>
      <trkpt lat="55.705674011260271" lon="-4.116490026935935">
        <ele>246.22999999999999</ele>
        <time>2023-09-02T15:55:27Z</time>
      </trkpt>
      <trkpt lat="55.705862017348409" lon="-4.118589023128152">
        <ele>250.08000000000001</ele>
        <time>2023-09-02T15:55:36Z</time>
      </trkpt>
      <trkpt lat="55.705909039825201" lon="-4.118940979242325">
        <ele>251.03999999999999</ele>
        <time>2023-09-02T15:55:38Z</time>
      </trkpt>
      <trkpt lat="55.705938963219523" lon="-4.119113981723785">
        <ele>252</ele>
        <time>2023-09-02T15:55:39Z</time>
      </trkpt>
      <trkpt lat="55.705976011231542" lon="-4.119283966720104">
        <ele>252.47999999999999</ele>
        <time>2023-09-02T15:55:40Z</time>
      </trkpt>
      <trkpt lat="55.706367027014494" lon="-4.120241012424231">
        <ele>253.93000000000001</ele>
        <time>2023-09-02T15:55:46Z</time>
      </trkpt>
      <trkpt lat="55.706398040056229" lon="-4.120389958843589">
        <ele>253.93000000000001</ele>
        <time>2023-09-02T15:55:47Z</time>
      </trkpt>
      <trkpt lat="55.706411032006145" lon="-4.12056396715343">
        <ele>253.93000000000001</ele>
        <time>2023-09-02T15:55:48Z</time>
      </trkpt>
      <trkpt lat="55.706425029784441" lon="-4.120752979069948">
        <ele>253.93000000000001</ele>
        <time>2023-09-02T15:55:49Z</time>
      </trkpt>
      <trkpt lat="55.706439027562737" lon="-4.120952971279621">
        <ele>253.93000000000001</ele>
        <time>2023-09-02T15:55:50Z</time>
      </trkpt>
      <trkpt lat="55.706478003412485" lon="-4.121482037007809">
        <ele>254.41</ele>
        <time>2023-09-02T15:55:53Z</time>
      </trkpt>
      <trkpt lat="55.706436010077596" lon="-4.121649004518986">
        <ele>254.41</ele>
        <time>2023-09-02T15:55:54Z</time>
      </trkpt>
      <trkpt lat="55.706397034227848" lon="-4.121807003393769">
        <ele>254.88999999999999</ele>
        <time>2023-09-02T15:55:55Z</time>
      </trkpt>
      <trkpt lat="55.706356968730688" lon="-4.121965002268553">
        <ele>255.37</ele>
        <time>2023-09-02T15:55:56Z</time>
      </trkpt>
      <trkpt lat="55.706336013972759" lon="-4.122136998921633">
        <ele>255.37</ele>
        <time>2023-09-02T15:55:57Z</time>
      </trkpt>
      <trkpt lat="55.70636099204421" lon="-4.122286029160023">
        <ele>255.84999999999999</ele>
        <time>2023-09-02T15:55:58Z</time>
      </trkpt>
      <trkpt lat="55.706394016742706" lon="-4.122444028034806">
        <ele>255.84999999999999</ele>
        <time>2023-09-02T15:55:59Z</time>
      </trkpt>
      <trkpt lat="55.706432992592454" lon="-4.122621975839138">
        <ele>256.32999999999998</ele>
        <time>2023-09-02T15:56:00Z</time>
      </trkpt>
      <trkpt lat="55.70681101642549" lon="-4.124447973445058">
        <ele>260.17000000000002</ele>
        <time>2023-09-02T15:56:08Z</time>
      </trkpt>
      <trkpt lat="55.707218963652849" lon="-4.126522997394204">
        <ele>261.62</ele>
        <time>2023-09-02T15:56:16Z</time>
      </trkpt>
      <trkpt lat="55.707296999171376" lon="-4.126673033460975">
        <ele>261.62</ele>
        <time>2023-09-02T15:56:17Z</time>
      </trkpt>
      <trkpt lat="55.70743203163147" lon="-4.126992970705032">
        <ele>260.64999999999998</ele>
        <time>2023-09-02T15:56:19Z</time>
      </trkpt>
      <trkpt lat="55.707471007481217" lon="-4.127151975408196">
        <ele>260.64999999999998</ele>
        <time>2023-09-02T15:56:20Z</time>
      </trkpt>
      <trkpt lat="55.707483999431133" lon="-4.127326989546418">
        <ele>261.13999999999999</ele>
        <time>2023-09-02T15:56:21Z</time>
      </trkpt>
      <trkpt lat="55.707480981945992" lon="-4.127516001462936">
        <ele>261.13999999999999</ele>
        <time>2023-09-02T15:56:22Z</time>
      </trkpt>
      <trkpt lat="55.70747603662312" lon="-4.127730997279286">
        <ele>261.13999999999999</ele>
        <time>2023-09-02T15:56:23Z</time>
      </trkpt>
      <trkpt lat="55.707433959469199" lon="-4.129923032596707">
        <ele>263.06</ele>
        <time>2023-09-02T15:56:31Z</time>
      </trkpt>
      <trkpt lat="55.707421973347664" lon="-4.130558967590332">
        <ele>263.06</ele>
        <time>2023-09-02T15:56:34Z</time>
      </trkpt>
      <trkpt lat="55.70736899971962" lon="-4.13074404001236">
        <ele>262.57999999999998</ele>
        <time>2023-09-02T15:56:35Z</time>
      </trkpt>
      <trkpt lat="55.707316026091576" lon="-4.130931040272117">
        <ele>262.57999999999998</ele>
        <time>2023-09-02T15:56:36Z</time>
      </trkpt>
      <trkpt lat="55.707259029150009" lon="-4.131130026653409">
        <ele>262.10000000000002</ele>
        <time>2023-09-02T15:56:37Z</time>
      </trkpt>
      <trkpt lat="55.707201026380062" lon="-4.131331024691463">
        <ele>262.10000000000002</ele>
        <time>2023-09-02T15:56:38Z</time>
      </trkpt>
      <trkpt lat="55.707104969769716" lon="-4.131668983027339">
        <ele>261.62</ele>
        <time>2023-09-02T15:56:40Z</time>
      </trkpt>
      <trkpt lat="55.707073034718633" lon="-4.13177995942533">
        <ele>261.62</ele>
        <time>2023-09-02T15:56:41Z</time>
      </trkpt>
      <trkpt lat="55.70704897865653" lon="-4.131864029914141">
        <ele>261.13999999999999</ele>
        <time>2023-09-02T15:56:42Z</time>
      </trkpt>
      <trkpt lat="55.707035986706614" lon="-4.131910968571901">
        <ele>261.13999999999999</ele>
        <time>2023-09-02T15:56:43Z</time>
      </trkpt>
      <trkpt lat="55.707100024446845" lon="-4.131979029625654">
        <ele>260.64999999999998</ele>
        <time>2023-09-02T15:56:44Z</time>
      </trkpt>
      <trkpt lat="55.707165990024805" lon="-4.132049018517137">
        <ele>260.64999999999998</ele>
        <time>2023-09-02T15:56:45Z</time>
      </trkpt>
      <trkpt lat="55.707250982522964" lon="-4.132139962166548">
        <ele>260.17000000000002</ele>
        <time>2023-09-02T15:56:46Z</time>
      </trkpt>
      <trkpt lat="55.707345027476549" lon="-4.132240964099765">
        <ele>259.69</ele>
        <time>2023-09-02T15:56:47Z</time>
      </trkpt>
      <trkpt lat="55.708261001855135" lon="-4.13321896456182">
        <ele>253.44</ele>
        <time>2023-09-02T15:56:55Z</time>
      </trkpt>
      <trkpt lat="55.70863600820303" lon="-4.133495986461639">
        <ele>250.08000000000001</ele>
        <time>2023-09-02T15:56:58Z</time>
      </trkpt>
      <trkpt lat="55.70874203927815" lon="-4.133585002273321">
        <ele>249.59999999999999</ele>
        <time>2023-09-02T15:56:59Z</time>
      </trkpt>
      <trkpt lat="55.708823008462787" lon="-4.133748030290008">
        <ele>248.63999999999999</ele>
        <time>2023-09-02T15:57:00Z</time>
      </trkpt>
      <trkpt lat="55.708902971819043" lon="-4.133917009457946">
        <ele>248.16</ele>
        <time>2023-09-02T15:57:01Z</time>
      </trkpt>
      <trkpt lat="55.708983018994331" lon="-4.134086994454265">
        <ele>247.68000000000001</ele>
        <time>2023-09-02T15:57:02Z</time>
      </trkpt>
      <trkpt lat="55.709187034517527" lon="-4.134572977200151">
        <ele>246.72</ele>
        <time>2023-09-02T15:57:05Z</time>
      </trkpt>
      <trkpt lat="55.709232967346907" lon="-4.134754026308656">
        <ele>246.72</ele>
        <time>2023-09-02T15:57:06Z</time>
      </trkpt>
      <trkpt lat="55.709231039509177" lon="-4.134966004639864">
        <ele>246.72</ele>
        <time>2023-09-02T15:57:07Z</time>
      </trkpt>
      <trkpt lat="55.709210000932217" lon="-4.135183012112975">
        <ele>246.72</ele>
        <time>2023-09-02T15:57:08Z</time>
      </trkpt>
      <trkpt lat="55.709188040345907" lon="-4.135413011536002">
        <ele>246.72</ele>
        <time>2023-09-02T15:57:09Z</time>
      </trkpt>
      <trkpt lat="55.709164990112185" lon="-4.135652985423803">
        <ele>246.72</ele>
        <time>2023-09-02T15:57:10Z</time>
      </trkpt>
      <trkpt lat="55.709102964028716" lon="-4.136754032224417">
        <ele>247.68000000000001</ele>
        <time>2023-09-02T15:57:15Z</time>
      </trkpt>
      <trkpt lat="55.709138000383973" lon="-4.136928040534258">
        <ele>247.68000000000001</ele>
        <time>2023-09-02T15:57:16Z</time>
      </trkpt>
      <trkpt lat="55.709198014810681" lon="-4.137028036639094">
        <ele>247.68000000000001</ele>
        <time>2023-09-02T15:57:17Z</time>
      </trkpt>
      <trkpt lat="55.709277978166938" lon="-4.137158039957285">
        <ele>247.68000000000001</ele>
        <time>2023-09-02T15:57:18Z</time>
      </trkpt>
      <trkpt lat="55.709351990371943" lon="-4.137243032455444">
        <ele>247.68000000000001</ele>
        <time>2023-09-02T15:57:19Z</time>
      </trkpt>
      <trkpt lat="55.70947302505374" lon="-4.137335987761617">
        <ele>247.68000000000001</ele>
        <time>2023-09-02T15:57:20Z</time>
      </trkpt>
      <trkpt lat="55.70960596203804" lon="-4.137437995523214">
        <ele>247.68000000000001</ele>
        <time>2023-09-02T15:57:21Z</time>
      </trkpt>
      <trkpt lat="55.709874015301466" lon="-4.137649973854423">
        <ele>247.19999999999999</ele>
        <time>2023-09-02T15:57:23Z</time>
      </trkpt>
      <trkpt lat="55.709966970607638" lon="-4.137803027406335">
        <ele>247.19999999999999</ele>
        <time>2023-09-02T15:57:24Z</time>
      </trkpt>
      <trkpt lat="55.710061015561223" lon="-4.137958008795977">
        <ele>246.72</ele>
        <time>2023-09-02T15:57:25Z</time>
      </trkpt>
      <trkpt lat="55.711115961894393" lon="-4.139503967016935">
        <ele>244.78999999999999</ele>
        <time>2023-09-02T15:57:35Z</time>
      </trkpt>
      <trkpt lat="55.711996983736753" lon="-4.141028970479965">
        <ele>241.43000000000001</ele>
        <time>2023-09-02T15:57:43Z</time>
      </trkpt>
      <trkpt lat="55.713629024103284" lon="-4.142682971432805">
        <ele>237.58000000000001</ele>
        <time>2023-09-02T15:57:54Z</time>
      </trkpt>
      <trkpt lat="55.714961998164654" lon="-4.143647979944944">
        <ele>232.78</ele>
        <time>2023-09-02T15:58:03Z</time>
      </trkpt>
      <trkpt lat="55.716833006590605" lon="-4.144304031506181">
        <ele>229.88999999999999</ele>
        <time>2023-09-02T15:58:14Z</time>
      </trkpt>
      <trkpt lat="55.719028981402516" lon="-4.144963016733527">
        <ele>229.88999999999999</ele>
        <time>2023-09-02T15:58:26Z</time>
      </trkpt>
      <trkpt lat="55.720167998224497" lon="-4.145304998382926">
        <ele>232.30000000000001</ele>
        <time>2023-09-02T15:58:34Z</time>
      </trkpt>
      <trkpt lat="55.721038039773703" lon="-4.145566010847688">
        <ele>232.78</ele>
        <time>2023-09-02T15:58:41Z</time>
      </trkpt>
      <trkpt lat="55.721179023385048" lon="-4.145608004182577">
        <ele>232.30000000000001</ele>
        <time>2023-09-02T15:58:46Z</time>
      </trkpt>
      <trkpt lat="55.721179023385048" lon="-4.145608004182577">
        <ele>232.30000000000001</ele>
        <time>2023-09-02T15:59:17Z</time>
      </trkpt>
      <trkpt lat="55.721179023385048" lon="-4.145608004182577">
        <ele>232.30000000000001</ele>
        <time>2023-09-02T15:59:43Z</time>
      </trkpt>
      <trkpt lat="55.721342973411083" lon="-4.145657038316131">
        <ele>229.88999999999999</ele>
        <time>2023-09-02T15:59:52Z</time>
      </trkpt>
      <trkpt lat="55.721478005871177" lon="-4.14569802582264">
        <ele>229.41</ele>
        <time>2023-09-02T15:59:54Z</time>
      </trkpt>
      <trkpt lat="55.721521005034447" lon="-4.145711017772555">
        <ele>229.41</ele>
        <time>2023-09-02T15:59:55Z</time>
      </trkpt>
      <trkpt lat="55.721546988934278" lon="-4.145717974752188">
        <ele>228.93000000000001</ele>
        <time>2023-09-02T15:59:56Z</time>
      </trkpt>
      <trkpt lat="55.721570039168" lon="-4.145832974463701">
        <ele>228.44999999999999</ele>
        <time>2023-09-02T15:59:58Z</time>
      </trkpt>
      <trkpt lat="55.721558975055814" lon="-4.145918972790241">
        <ele>228.44999999999999</ele>
        <time>2023-09-02T15:59:59Z</time>
      </trkpt>
      <trkpt lat="55.721543971449137" lon="-4.146031960844994">
        <ele>228.44999999999999</ele>
        <time>2023-09-02T16:00:00Z</time>
      </trkpt>
      <trkpt lat="55.721499966457486" lon="-4.146300014108419">
        <ele>227.49000000000001</ele>
        <time>2023-09-02T16:00:02Z</time>
      </trkpt>
      <trkpt lat="55.721325036138296" lon="-4.147346997633576">
        <ele>220.75999999999999</ele>
        <time>2023-09-02T16:00:08Z</time>
      </trkpt>
      <trkpt lat="55.721301985904574" lon="-4.147522011771798">
        <ele>219.80000000000001</ele>
        <time>2023-09-02T16:00:09Z</time>
      </trkpt>
      <trkpt lat="55.721225962042809" lon="-4.149068975821137">
        <ele>221.72</ele>
        <time>2023-09-02T16:00:16Z</time>
      </trkpt>
      <trkpt lat="55.721089001744986" lon="-4.151944974437356">
        <ele>224.12</ele>
        <time>2023-09-02T16:00:25Z</time>
      </trkpt>
      <trkpt lat="55.720934020355344" lon="-4.155526980757713">
        <ele>227.49000000000001</ele>
        <time>2023-09-02T16:00:36Z</time>
      </trkpt>
      <trkpt lat="55.720726987347007" lon="-4.159934017807245">
        <ele>221.72</ele>
        <time>2023-09-02T16:00:49Z</time>
      </trkpt>
      <trkpt lat="55.720643000677228" lon="-4.161701006814838">
        <ele>215.47</ele>
        <time>2023-09-02T16:00:57Z</time>
      </trkpt>
      <trkpt lat="55.720519032329321" lon="-4.164462005719543">
        <ele>220.28</ele>
        <time>2023-09-02T16:01:09Z</time>
      </trkpt>
      <trkpt lat="55.72034896351397" lon="-4.168271999806166">
        <ele>220.75999999999999</ele>
        <time>2023-09-02T16:01:23Z</time>
      </trkpt>
      <trkpt lat="55.720200017094612" lon="-4.171749986708164">
        <ele>220.75999999999999</ele>
        <time>2023-09-02T16:01:35Z</time>
      </trkpt>
      <trkpt lat="55.72004503570497" lon="-4.175499966368079">
        <ele>219.80000000000001</ele>
        <time>2023-09-02T16:01:46Z</time>
      </trkpt>
      <trkpt lat="55.7198949996382" lon="-4.179128995165229">
        <ele>225.56999999999999</ele>
        <time>2023-09-02T16:01:56Z</time>
      </trkpt>
      <trkpt lat="55.71974596939981" lon="-4.182297019287944">
        <ele>229.41</ele>
        <time>2023-09-02T16:02:06Z</time>
      </trkpt>
      <trkpt lat="55.719713028520346" lon="-4.182500028982759">
        <ele>229.41</ele>
        <time>2023-09-02T16:02:07Z</time>
      </trkpt>
      <trkpt lat="55.71946601383388" lon="-4.183684978634119">
        <ele>231.33000000000001</ele>
        <time>2023-09-02T16:02:12Z</time>
      </trkpt>
      <trkpt lat="55.719408011063933" lon="-4.183966023847461">
        <ele>231.81</ele>
        <time>2023-09-02T16:02:13Z</time>
      </trkpt>
      <trkpt lat="55.71869102306664" lon="-4.187460020184517">
        <ele>234.22</ele>
        <time>2023-09-02T16:02:25Z</time>
      </trkpt>
      <trkpt lat="55.718158017843962" lon="-4.190057991072536">
        <ele>233.74000000000001</ele>
        <time>2023-09-02T16:02:34Z</time>
      </trkpt>
      <trkpt lat="55.717938998714089" lon="-4.191746022552252">
        <ele>232.78</ele>
        <time>2023-09-02T16:02:41Z</time>
      </trkpt>
      <trkpt lat="55.717926006764174" lon="-4.191810982301831">
        <ele>231.33000000000001</ele>
        <time>2023-09-02T16:02:48Z</time>
      </trkpt>
      <trkpt lat="55.717713022604585" lon="-4.192487988620997">
        <ele>229.41</ele>
        <time>2023-09-02T16:02:54Z</time>
      </trkpt>
      <trkpt lat="55.717499032616615" lon="-4.193046977743506">
        <ele>227.00999999999999</ele>
        <time>2023-09-02T16:03:00Z</time>
      </trkpt>
      <trkpt lat="55.717350002378225" lon="-4.193435981869698">
        <ele>225.09</ele>
        <time>2023-09-02T16:03:10Z</time>
      </trkpt>
      <trkpt lat="55.717388978227973" lon="-4.193547964096069">
        <ele>224.61000000000001</ele>
        <time>2023-09-02T16:03:11Z</time>
      </trkpt>
      <trkpt lat="55.717433989048004" lon="-4.1936120018363">
        <ele>224.12</ele>
        <time>2023-09-02T16:03:12Z</time>
      </trkpt>
      <trkpt lat="55.717498026788235" lon="-4.193702023476362">
        <ele>223.63999999999999</ele>
        <time>2023-09-02T16:03:13Z</time>
      </trkpt>
      <trkpt lat="55.717581007629633" lon="-4.193819034844637">
        <ele>223.16</ele>
        <time>2023-09-02T16:03:14Z</time>
      </trkpt>
      <trkpt lat="55.717668011784554" lon="-4.193940991535783">
        <ele>222.19999999999999</ele>
        <time>2023-09-02T16:03:15Z</time>
      </trkpt>
      <trkpt lat="55.717759039252996" lon="-4.194068983197212">
        <ele>220.75999999999999</ele>
        <time>2023-09-02T16:03:16Z</time>
      </trkpt>
      <trkpt lat="55.718227000907063" lon="-4.194728974252939">
        <ele>214.50999999999999</ele>
        <time>2023-09-02T16:03:23Z</time>
      </trkpt>
      <trkpt lat="55.719001991674304" lon="-4.195820968598127">
        <ele>207.30000000000001</ele>
        <time>2023-09-02T16:03:36Z</time>
      </trkpt>
      <trkpt lat="55.719320001080632" lon="-4.196181977167726">
        <ele>205.38</ele>
        <time>2023-09-02T16:03:42Z</time>
      </trkpt>
      <trkpt lat="55.719501972198486" lon="-4.196207961067557">
        <ele>204.41999999999999</ele>
        <time>2023-09-02T16:03:45Z</time>
      </trkpt>
      <trkpt lat="55.71965997107327" lon="-4.19619002379477">
        <ele>203.94</ele>
        <time>2023-09-02T16:03:53Z</time>
      </trkpt>
      <trkpt lat="55.719757033511996" lon="-4.196179965510964">
        <ele>204.41999999999999</ele>
        <time>2023-09-02T16:03:56Z</time>
      </trkpt>
      <trkpt lat="55.719817969948053" lon="-4.196204021573067">
        <ele>203.94</ele>
        <time>2023-09-02T16:03:57Z</time>
      </trkpt>
      <trkpt lat="55.719867004081607" lon="-4.196240985766053">
        <ele>203.46000000000001</ele>
        <time>2023-09-02T16:03:58Z</time>
      </trkpt>
      <trkpt lat="55.719927018508315" lon="-4.196327989920974">
        <ele>203.46000000000001</ele>
        <time>2023-09-02T16:03:59Z</time>
      </trkpt>
      <trkpt lat="55.7200020365417" lon="-4.196437960490584">
        <ele>203.46000000000001</ele>
        <time>2023-09-02T16:04:00Z</time>
      </trkpt>
      <trkpt lat="55.72009096853435" lon="-4.196568969637156">
        <ele>202.97999999999999</ele>
        <time>2023-09-02T16:04:01Z</time>
      </trkpt>
      <trkpt lat="55.720190964639187" lon="-4.196714982390404">
        <ele>202.49000000000001</ele>
        <time>2023-09-02T16:04:02Z</time>
      </trkpt>
      <trkpt lat="55.720880040898919" lon="-4.197653001174331">
        <ele>198.16999999999999</ele>
        <time>2023-09-02T16:04:09Z</time>
      </trkpt>
      <trkpt lat="55.72096997871995" lon="-4.197713015601039">
        <ele>197.21000000000001</ele>
        <time>2023-09-02T16:04:10Z</time>
      </trkpt>
      <trkpt lat="55.721165025606751" lon="-4.197778981178999">
        <ele>194.80000000000001</ele>
        <time>2023-09-02T16:04:12Z</time>
      </trkpt>
      <trkpt lat="55.721259992569685" lon="-4.197809994220734">
        <ele>193.84</ele>
        <time>2023-09-02T16:04:13Z</time>
      </trkpt>
      <trkpt lat="55.721430983394384" lon="-4.197863973677158">
        <ele>191.91999999999999</ele>
        <time>2023-09-02T16:04:15Z</time>
      </trkpt>
      <trkpt lat="55.721513964235783" lon="-4.197837989777327">
        <ele>190.96000000000001</ele>
        <time>2023-09-02T16:04:16Z</time>
      </trkpt>
      <trkpt lat="55.721596023067832" lon="-4.197790967300534">
        <ele>190.47999999999999</ele>
        <time>2023-09-02T16:04:17Z</time>
      </trkpt>
      <trkpt lat="55.721686966717243" lon="-4.19773799367249">
        <ele>190.47999999999999</ele>
        <time>2023-09-02T16:04:18Z</time>
      </trkpt>
      <trkpt lat="55.721777994185686" lon="-4.197685020044446">
        <ele>190.96000000000001</ele>
        <time>2023-09-02T16:04:19Z</time>
      </trkpt>
      <trkpt lat="55.721987038850784" lon="-4.19756499119103">
        <ele>191.44</ele>
        <time>2023-09-02T16:04:22Z</time>
      </trkpt>
      <trkpt lat="55.72202299721539" lon="-4.197582006454468">
        <ele>191.44</ele>
        <time>2023-09-02T16:04:23Z</time>
      </trkpt>
      <trkpt lat="55.722044035792351" lon="-4.197649983689189">
        <ele>191.44</ele>
        <time>2023-09-02T16:04:24Z</time>
      </trkpt>
      <trkpt lat="55.722072031348944" lon="-4.197738999500871">
        <ele>191.44</ele>
        <time>2023-09-02T16:04:25Z</time>
      </trkpt>
      <trkpt lat="55.72210798971355" lon="-4.197853999212384">
        <ele>191.44</ele>
        <time>2023-09-02T16:04:26Z</time>
      </trkpt>
      <trkpt lat="55.722377970814705" lon="-4.198720017448068">
        <ele>190.96000000000001</ele>
        <time>2023-09-02T16:04:32Z</time>
      </trkpt>
      <trkpt lat="55.722424993291497" lon="-4.198863012716174">
        <ele>190.96000000000001</ele>
        <time>2023-09-02T16:04:33Z</time>
      </trkpt>
      <trkpt lat="55.722499005496502" lon="-4.198948005214334">
        <ele>190.96000000000001</ele>
        <time>2023-09-02T16:04:34Z</time>
      </trkpt>
      <trkpt lat="55.722830006852746" lon="-4.19932602904737">
        <ele>190.47999999999999</ele>
        <time>2023-09-02T16:04:38Z</time>
      </trkpt>
      <trkpt lat="55.723510030657053" lon="-4.200194980949163">
        <ele>189.03999999999999</ele>
        <time>2023-09-02T16:04:45Z</time>
      </trkpt>
      <trkpt lat="55.723642967641354" lon="-4.200411988422275">
        <ele>189.52000000000001</ele>
        <time>2023-09-02T16:04:47Z</time>
      </trkpt>
      <trkpt lat="55.723774982616305" lon="-4.200665960088372">
        <ele>190</ele>
        <time>2023-09-02T16:04:49Z</time>
      </trkpt>
      <trkpt lat="55.723837008699775" lon="-4.200819013640285">
        <ele>190.47999999999999</ele>
        <time>2023-09-02T16:04:50Z</time>
      </trkpt>
      <trkpt lat="55.723900962620974" lon="-4.200977012515068">
        <ele>190.47999999999999</ele>
        <time>2023-09-02T16:04:51Z</time>
      </trkpt>
      <trkpt lat="55.724443020299077" lon="-4.202492963522673">
        <ele>190.96000000000001</ele>
        <time>2023-09-02T16:05:00Z</time>
      </trkpt>
      <trkpt lat="55.724520971998572" lon="-4.202811978757381">
        <ele>191.91999999999999</ele>
        <time>2023-09-02T16:05:02Z</time>
      </trkpt>
      <trkpt lat="55.724561037495732" lon="-4.202977018430829">
        <ele>192.40000000000001</ele>
        <time>2023-09-02T16:05:03Z</time>
      </trkpt>
      <trkpt lat="55.724630020558834" lon="-4.20315002091229">
        <ele>192.88</ele>
        <time>2023-09-02T16:05:04Z</time>
      </trkpt>
      <trkpt lat="55.725442981347442" lon="-4.204382998868823">
        <ele>191.91999999999999</ele>
        <time>2023-09-02T16:05:12Z</time>
      </trkpt>
      <trkpt lat="55.72664201259613" lon="-4.206042028963566">
        <ele>186.15000000000001</ele>
        <time>2023-09-02T16:05:22Z</time>
      </trkpt>
      <trkpt lat="55.728061990812421" lon="-4.207461001351476">
        <ele>181.83000000000001</ele>
        <time>2023-09-02T16:05:34Z</time>
      </trkpt>
      <trkpt lat="55.729100005701184" lon="-4.20852399431169">
        <ele>180.38</ele>
        <time>2023-09-02T16:05:42Z</time>
      </trkpt>
      <trkpt lat="55.730141960084438" lon="-4.209910025820136">
        <ele>179.90000000000001</ele>
        <time>2023-09-02T16:05:53Z</time>
      </trkpt>
      <trkpt lat="55.731334034353495" lon="-4.211974991485477">
        <ele>184.71000000000001</ele>
        <time>2023-09-02T16:06:06Z</time>
      </trkpt>
      <trkpt lat="55.731456996873021" lon="-4.212056966498494">
        <ele>185.19</ele>
        <time>2023-09-02T16:06:07Z</time>
      </trkpt>
      <trkpt lat="55.731578031554818" lon="-4.212138019502163">
        <ele>185.66999999999999</ele>
        <time>2023-09-02T16:06:08Z</time>
      </trkpt>
      <trkpt lat="55.731694959104061" lon="-4.212184036150575">
        <ele>186.15000000000001</ele>
        <time>2023-09-02T16:06:09Z</time>
      </trkpt>
      <trkpt lat="55.731804007664323" lon="-4.212226029485464">
        <ele>186.15000000000001</ele>
        <time>2023-09-02T16:06:10Z</time>
      </trkpt>
      <trkpt lat="55.731976004317403" lon="-4.212291995063424">
        <ele>186.15000000000001</ele>
        <time>2023-09-02T16:06:12Z</time>
      </trkpt>
      <trkpt lat="55.732037024572492" lon="-4.212315967306495">
        <ele>186.15000000000001</ele>
        <time>2023-09-02T16:06:13Z</time>
      </trkpt>
      <trkpt lat="55.73207700625062" lon="-4.212330970913172">
        <ele>186.15000000000001</ele>
        <time>2023-09-02T16:06:14Z</time>
      </trkpt>
      <trkpt lat="55.73210097849369" lon="-4.212486958131194">
        <ele>186.15000000000001</ele>
        <time>2023-09-02T16:06:15Z</time>
      </trkpt>
      <trkpt lat="55.732086980715394" lon="-4.212531968951225">
        <ele>186.15000000000001</ele>
        <time>2023-09-02T16:06:16Z</time>
      </trkpt>
      <trkpt lat="55.732065020129085" lon="-4.212603969499469">
        <ele>186.15000000000001</ele>
        <time>2023-09-02T16:06:17Z</time>
      </trkpt>
      <trkpt lat="55.73203501291573" lon="-4.212702037766576">
        <ele>186.15000000000001</ele>
        <time>2023-09-02T16:06:18Z</time>
      </trkpt>
      <trkpt lat="55.731996959075332" lon="-4.212827011942864">
        <ele>186.15000000000001</ele>
        <time>2023-09-02T16:06:19Z</time>
      </trkpt>
      <trkpt lat="55.731832003220916" lon="-4.213364962488413">
        <ele>186.15000000000001</ele>
        <time>2023-09-02T16:06:22Z</time>
      </trkpt>
      <trkpt lat="55.73164701461792" lon="-4.213976003229618">
        <ele>185.19</ele>
        <time>2023-09-02T16:06:25Z</time>
      </trkpt>
      <trkpt lat="55.731624970212579" lon="-4.214225029572845">
        <ele>184.71000000000001</ele>
        <time>2023-09-02T16:06:26Z</time>
      </trkpt>
      <trkpt lat="55.731415003538132" lon="-4.216651003807783">
        <ele>178.46000000000001</ele>
        <time>2023-09-02T16:06:35Z</time>
      </trkpt>
      <trkpt lat="55.731269996613264" lon="-4.218685962259769">
        <ele>175.58000000000001</ele>
        <time>2023-09-02T16:06:43Z</time>
      </trkpt>
      <trkpt lat="55.731354989111423" lon="-4.220365025103092">
        <ele>176.06</ele>
        <time>2023-09-02T16:06:50Z</time>
      </trkpt>
      <trkpt lat="55.731365969404578" lon="-4.220585972070694">
        <ele>176.53999999999999</ele>
        <time>2023-09-02T16:06:51Z</time>
      </trkpt>
      <trkpt lat="55.73134602047503" lon="-4.221377978101373">
        <ele>177.97999999999999</ele>
        <time>2023-09-02T16:06:55Z</time>
      </trkpt>
      <trkpt lat="55.731027005240321" lon="-4.223608989268541">
        <ele>176.53999999999999</ele>
        <time>2023-09-02T16:07:05Z</time>
      </trkpt>
      <trkpt lat="55.730693992227316" lon="-4.225598014891148">
        <ele>173.66</ele>
        <time>2023-09-02T16:07:14Z</time>
      </trkpt>
      <trkpt lat="55.73065803386271" lon="-4.225793983787298">
        <ele>173.16999999999999</ele>
        <time>2023-09-02T16:07:15Z</time>
      </trkpt>
      <trkpt lat="55.730578992515802" lon="-4.22594603151083">
        <ele>173.16999999999999</ele>
        <time>2023-09-02T16:07:16Z</time>
      </trkpt>
      <trkpt lat="55.730499029159546" lon="-4.226101012900472">
        <ele>173.16999999999999</ele>
        <time>2023-09-02T16:07:17Z</time>
      </trkpt>
      <trkpt lat="55.730352010577917" lon="-4.226385997608304">
        <ele>173.16999999999999</ele>
        <time>2023-09-02T16:07:19Z</time>
      </trkpt>
      <trkpt lat="55.730280010029674" lon="-4.226471995934844">
        <ele>173.16999999999999</ele>
        <time>2023-09-02T16:07:20Z</time>
      </trkpt>
      <trkpt lat="55.730216978117824" lon="-4.226503008976579">
        <ele>173.16999999999999</ele>
        <time>2023-09-02T16:07:21Z</time>
      </trkpt>
      <trkpt lat="55.730188982561231" lon="-4.226518012583256">
        <ele>173.16999999999999</ele>
        <time>2023-09-02T16:07:22Z</time>
      </trkpt>
      <trkpt lat="55.730140032246709" lon="-4.226435031741858">
        <ele>173.16999999999999</ele>
        <time>2023-09-02T16:07:23Z</time>
      </trkpt>
      <trkpt lat="55.73010197840631" lon="-4.226371999830008">
        <ele>172.69</ele>
        <time>2023-09-02T16:07:24Z</time>
      </trkpt>
      <trkpt lat="55.730053028091788" lon="-4.226288013160229">
        <ele>172.69</ele>
        <time>2023-09-02T16:07:25Z</time>
      </trkpt>
      <trkpt lat="55.729866027832031" lon="-4.225972015410662">
        <ele>171.25</ele>
        <time>2023-09-02T16:07:28Z</time>
      </trkpt>
      <trkpt lat="55.729798972606659" lon="-4.225859027355909">
        <ele>170.77000000000001</ele>
        <time>2023-09-02T16:07:29Z</time>
      </trkpt>
      <trkpt lat="55.729583976790309" lon="-4.225497012957931">
        <ele>168.84999999999999</ele>
        <time>2023-09-02T16:07:32Z</time>
      </trkpt>
      <trkpt lat="55.729512982070446" lon="-4.225440016016364">
        <ele>168.37</ele>
        <time>2023-09-02T16:07:33Z</time>
      </trkpt>
      <trkpt lat="55.729437964037061" lon="-4.225401962175965">
        <ele>167.88999999999999</ele>
        <time>2023-09-02T16:07:34Z</time>
      </trkpt>
      <trkpt lat="55.729365041479468" lon="-4.225366003811359">
        <ele>167.88999999999999</ele>
        <time>2023-09-02T16:07:35Z</time>
      </trkpt>
      <trkpt lat="55.729286000132561" lon="-4.225368015468121">
        <ele>167.41</ele>
        <time>2023-09-02T16:07:36Z</time>
      </trkpt>
      <trkpt lat="55.729192961007357" lon="-4.225401962175965">
        <ele>166.93000000000001</ele>
        <time>2023-09-02T16:07:37Z</time>
      </trkpt>
      <trkpt lat="55.729147028177977" lon="-4.225519979372621">
        <ele>166.93000000000001</ele>
        <time>2023-09-02T16:07:38Z</time>
      </trkpt>
      <trkpt lat="55.729097994044423" lon="-4.22564503736794">
        <ele>166.93000000000001</ele>
        <time>2023-09-02T16:07:39Z</time>
      </trkpt>
      <trkpt lat="55.729044014587998" lon="-4.225785015150905">
        <ele>166.93000000000001</ele>
        <time>2023-09-02T16:07:40Z</time>
      </trkpt>
      <trkpt lat="55.728989029303193" lon="-4.225927004590631">
        <ele>166.93000000000001</ele>
        <time>2023-09-02T16:07:41Z</time>
      </trkpt>
      <trkpt lat="55.728931026533246" lon="-4.226076034829021">
        <ele>166.93000000000001</ele>
        <time>2023-09-02T16:07:42Z</time>
      </trkpt>
      <trkpt lat="55.728847039863467" lon="-4.226218024268746">
        <ele>166.93000000000001</ele>
        <time>2023-09-02T16:07:43Z</time>
      </trkpt>
      <trkpt lat="55.728047993034124" lon="-4.227187978103757">
        <ele>171.25</ele>
        <time>2023-09-02T16:07:51Z</time>
      </trkpt>
      <trkpt lat="55.727983033284545" lon="-4.227314963936806">
        <ele>172.21000000000001</ele>
        <time>2023-09-02T16:07:52Z</time>
      </trkpt>
      <trkpt lat="55.727955037727952" lon="-4.227472962811589">
        <ele>172.21000000000001</ele>
        <time>2023-09-02T16:07:53Z</time>
      </trkpt>
      <trkpt lat="55.72795101441443" lon="-4.227635990828276">
        <ele>173.16999999999999</ele>
        <time>2023-09-02T16:07:54Z</time>
      </trkpt>
      <trkpt lat="55.727945985272527" lon="-4.227811004966497">
        <ele>173.66</ele>
        <time>2023-09-02T16:07:55Z</time>
      </trkpt>
      <trkpt lat="55.727935004979372" lon="-4.22959802672267">
        <ele>176.06</ele>
        <time>2023-09-02T16:08:03Z</time>
      </trkpt>
      <trkpt lat="55.727915978059173" lon="-4.230047967284918">
        <ele>176.06</ele>
        <time>2023-09-02T16:08:05Z</time>
      </trkpt>
      <trkpt lat="55.727929975837469" lon="-4.230230022221804">
        <ele>175.58000000000001</ele>
        <time>2023-09-02T16:08:06Z</time>
      </trkpt>
      <trkpt lat="55.727986972779036" lon="-4.230362959206104">
        <ele>175.58000000000001</ele>
        <time>2023-09-02T16:08:07Z</time>
      </trkpt>
      <trkpt lat="55.72805997915566" lon="-4.230490028858185">
        <ele>175.58000000000001</ele>
        <time>2023-09-02T16:08:08Z</time>
      </trkpt>
      <trkpt lat="55.728142959997058" lon="-4.230636041611433">
        <ele>175.58000000000001</ele>
        <time>2023-09-02T16:08:09Z</time>
      </trkpt>
      <trkpt lat="55.728234993293881" lon="-4.230794962495565">
        <ele>176.06</ele>
        <time>2023-09-02T16:08:10Z</time>
      </trkpt>
      <trkpt lat="55.729037979617715" lon="-4.232198009267449">
        <ele>177.02000000000001</ele>
        <time>2023-09-02T16:08:17Z</time>
      </trkpt>
      <trkpt lat="55.729260016232729" lon="-4.23258600756526">
        <ele>176.53999999999999</ele>
        <time>2023-09-02T16:08:19Z</time>
      </trkpt>
      <trkpt lat="55.729318019002676" lon="-4.232805026695132">
        <ele>176.06</ele>
        <time>2023-09-02T16:08:20Z</time>
      </trkpt>
      <trkpt lat="55.729364035651088" lon="-4.233065033331513">
        <ele>175.58000000000001</ele>
        <time>2023-09-02T16:08:21Z</time>
      </trkpt>
      <trkpt lat="55.729410974308848" lon="-4.233325961977243">
        <ele>175.58000000000001</ele>
        <time>2023-09-02T16:08:22Z</time>
      </trkpt>
      <trkpt lat="55.729457996785641" lon="-4.233588986098766">
        <ele>176.06</ele>
        <time>2023-09-02T16:08:23Z</time>
      </trkpt>
      <trkpt lat="55.729810036718845" lon="-4.235303001478314">
        <ele>175.58000000000001</ele>
        <time>2023-09-02T16:08:30Z</time>
      </trkpt>
      <trkpt lat="55.729922018945217" lon="-4.235717989504337">
        <ele>175.58000000000001</ele>
        <time>2023-09-02T16:08:32Z</time>
      </trkpt>
      <trkpt lat="55.729981027543545" lon="-4.235899038612843">
        <ele>175.58000000000001</ele>
        <time>2023-09-02T16:08:33Z</time>
      </trkpt>
      <trkpt lat="55.730621991679072" lon="-4.237297978252173">
        <ele>173.16999999999999</ele>
        <time>2023-09-02T16:08:40Z</time>
      </trkpt>
      <trkpt lat="55.731177041307092" lon="-4.238387960940599">
        <ele>169.33000000000001</ele>
        <time>2023-09-02T16:08:46Z</time>
      </trkpt>
      <trkpt lat="55.731208976358175" lon="-4.23853799700737">
        <ele>168.84999999999999</ele>
        <time>2023-09-02T16:08:47Z</time>
      </trkpt>
      <trkpt lat="55.731257004663348" lon="-4.238905962556601">
        <ele>167.41</ele>
        <time>2023-09-02T16:08:49Z</time>
      </trkpt>
      <trkpt lat="55.731318024918437" lon="-4.239109978079796">
        <ele>166.93000000000001</ele>
        <time>2023-09-02T16:08:50Z</time>
      </trkpt>
      <trkpt lat="55.731388013809919" lon="-4.239316005259752">
        <ele>166.44999999999999</ele>
        <time>2023-09-02T16:08:51Z</time>
      </trkpt>
      <trkpt lat="55.731766959652305" lon="-4.240357959643006">
        <ele>162.12</ele>
        <time>2023-09-02T16:08:56Z</time>
      </trkpt>
      <trkpt lat="55.73186201043427" lon="-4.240504978224635">
        <ele>161.16</ele>
        <time>2023-09-02T16:08:57Z</time>
      </trkpt>
      <trkpt lat="55.731954965740442" lon="-4.240650990977883">
        <ele>160.19999999999999</ele>
        <time>2023-09-02T16:08:58Z</time>
      </trkpt>
      <trkpt lat="55.73222897015512" lon="-4.241077965125442">
        <ele>157.31</ele>
        <time>2023-09-02T16:09:01Z</time>
      </trkpt>
      <trkpt lat="55.732274986803532" lon="-4.241243004798889">
        <ele>156.83000000000001</ele>
        <time>2023-09-02T16:09:02Z</time>
      </trkpt>
      <trkpt lat="55.73231304064393" lon="-4.241431010887027">
        <ele>156.34999999999999</ele>
        <time>2023-09-02T16:09:03Z</time>
      </trkpt>
      <trkpt lat="55.732754012569785" lon="-4.243336971849203">
        <ele>152.50999999999999</ele>
        <time>2023-09-02T16:09:11Z</time>
      </trkpt>
      <trkpt lat="55.733515005558729" lon="-4.246408017352223">
        <ele>148.66</ele>
        <time>2023-09-02T16:09:22Z</time>
      </trkpt>
      <trkpt lat="55.733621958643198" lon="-4.246940016746521">
        <ele>148.18000000000001</ele>
        <time>2023-09-02T16:09:25Z</time>
      </trkpt>
      <trkpt lat="55.733621958643198" lon="-4.247053004801273">
        <ele>148.18000000000001</ele>
        <time>2023-09-02T16:09:26Z</time>
      </trkpt>
      <trkpt lat="55.733568985015154" lon="-4.247148977592588">
        <ele>147.69999999999999</ele>
        <time>2023-09-02T16:09:27Z</time>
      </trkpt>
      <trkpt lat="55.733510982245207" lon="-4.247252997010946">
        <ele>147.69999999999999</ele>
        <time>2023-09-02T16:09:28Z</time>
      </trkpt>
      <trkpt lat="55.733448034152389" lon="-4.24736799672246">
        <ele>147.69999999999999</ele>
        <time>2023-09-02T16:09:29Z</time>
      </trkpt>
      <trkpt lat="55.733149973675609" lon="-4.247910976409912">
        <ele>147.22</ele>
        <time>2023-09-02T16:09:33Z</time>
      </trkpt>
      <trkpt lat="55.733107980340719" lon="-4.248108034953475">
        <ele>147.22</ele>
        <time>2023-09-02T16:09:34Z</time>
      </trkpt>
      <trkpt lat="55.733074033632874" lon="-4.24827198497951">
        <ele>147.22</ele>
        <time>2023-09-02T16:09:35Z</time>
      </trkpt>
      <trkpt lat="55.733078978955746" lon="-4.248394025489688">
        <ele>147.22</ele>
        <time>2023-09-02T16:09:36Z</time>
      </trkpt>
      <trkpt lat="55.733112003654242" lon="-4.24856903962791">
        <ele>147.69999999999999</ele>
        <time>2023-09-02T16:09:37Z</time>
      </trkpt>
      <trkpt lat="55.733148967847228" lon="-4.248758973553777">
        <ele>148.18000000000001</ele>
        <time>2023-09-02T16:09:38Z</time>
      </trkpt>
      <trkpt lat="55.733529003337026" lon="-4.250713968649507">
        <ele>153.47</ele>
        <time>2023-09-02T16:09:46Z</time>
      </trkpt>
      <trkpt lat="55.733837960287929" lon="-4.25230803899467">
        <ele>154.91</ele>
        <time>2023-09-02T16:09:54Z</time>
      </trkpt>
      <trkpt lat="55.733895041048527" lon="-4.252598974853754">
        <ele>155.38999999999999</ele>
        <time>2023-09-02T16:09:56Z</time>
      </trkpt>
      <trkpt lat="55.733917001634836" lon="-4.252766026183963">
        <ele>155.38999999999999</ele>
        <time>2023-09-02T16:09:57Z</time>
      </trkpt>
      <trkpt lat="55.733886994421482" lon="-4.25291296094656">
        <ele>155.38999999999999</ele>
        <time>2023-09-02T16:09:58Z</time>
      </trkpt>
      <trkpt lat="55.73383703827858" lon="-4.253059979528189">
        <ele>155.38999999999999</ele>
        <time>2023-09-02T16:09:59Z</time>
      </trkpt>
      <trkpt lat="55.733778029680252" lon="-4.253205992281437">
        <ele>155.38999999999999</ele>
        <time>2023-09-02T16:10:00Z</time>
      </trkpt>
      <trkpt lat="55.733149973675609" lon="-4.254283988848329">
        <ele>155.38999999999999</ele>
        <time>2023-09-02T16:10:08Z</time>
      </trkpt>
      <trkpt lat="55.732865994796157" lon="-4.254744993522763">
        <ele>153.94999999999999</ele>
        <time>2023-09-02T16:10:12Z</time>
      </trkpt>
      <trkpt lat="55.732827018946409" lon="-4.254880025982857">
        <ele>154.43000000000001</ele>
        <time>2023-09-02T16:10:13Z</time>
      </trkpt>
      <trkpt lat="55.732805980369449" lon="-4.254984967410564">
        <ele>154.43000000000001</ele>
        <time>2023-09-02T16:10:14Z</time>
      </trkpt>
      <trkpt lat="55.732805980369449" lon="-4.255116982385516">
        <ele>154.43000000000001</ele>
        <time>2023-09-02T16:10:15Z</time>
      </trkpt>
      <trkpt lat="55.732814026996493" lon="-4.255234999582171">
        <ele>154.43000000000001</ele>
        <time>2023-09-02T16:10:16Z</time>
      </trkpt>
      <trkpt lat="55.732849985361099" lon="-4.255365002900362">
        <ele>153.94999999999999</ele>
        <time>2023-09-02T16:10:17Z</time>
      </trkpt>
      <trkpt lat="55.732888961210847" lon="-4.255500035360456">
        <ele>153.94999999999999</ele>
        <time>2023-09-02T16:10:18Z</time>
      </trkpt>
      <trkpt lat="55.732932966202497" lon="-4.25563900731504">
        <ele>153.47</ele>
        <time>2023-09-02T16:10:19Z</time>
      </trkpt>
      <trkpt lat="55.732975965365767" lon="-4.255778985098004">
        <ele>153.47</ele>
        <time>2023-09-02T16:10:20Z</time>
      </trkpt>
      <trkpt lat="55.733019970357418" lon="-4.25591703504324">
        <ele>153.47</ele>
        <time>2023-09-02T16:10:21Z</time>
      </trkpt>
      <trkpt lat="55.733063975349069" lon="-4.256057012826204">
        <ele>153.47</ele>
        <time>2023-09-02T16:10:22Z</time>
      </trkpt>
      <trkpt lat="55.733106974512339" lon="-4.256193973124027">
        <ele>153.94999999999999</ele>
        <time>2023-09-02T16:10:23Z</time>
      </trkpt>
      <trkpt lat="55.733114015311003" lon="-4.25636999309063">
        <ele>154.43000000000001</ele>
        <time>2023-09-02T16:10:24Z</time>
      </trkpt>
      <trkpt lat="55.733119966462255" lon="-4.25654198974371">
        <ele>154.43000000000001</ele>
        <time>2023-09-02T16:10:25Z</time>
      </trkpt>
      <trkpt lat="55.733127007260919" lon="-4.256719015538693">
        <ele>154.91</ele>
        <time>2023-09-02T16:10:26Z</time>
      </trkpt>
      <trkpt lat="55.733134970068932" lon="-4.256901992484927">
        <ele>154.91</ele>
        <time>2023-09-02T16:10:27Z</time>
      </trkpt>
      <trkpt lat="55.733142010867596" lon="-4.257093016058207">
        <ele>155.38999999999999</ele>
        <time>2023-09-02T16:10:28Z</time>
      </trkpt>
      <trkpt lat="55.733149973675609" lon="-4.257284961640835">
        <ele>155.87</ele>
        <time>2023-09-02T16:10:29Z</time>
      </trkpt>
      <trkpt lat="55.733132036402822" lon="-4.25748797133565">
        <ele>156.34999999999999</ele>
        <time>2023-09-02T16:10:30Z</time>
      </trkpt>
      <trkpt lat="55.733114015311003" lon="-4.257702967152">
        <ele>156.34999999999999</ele>
        <time>2023-09-02T16:10:31Z</time>
      </trkpt>
      <trkpt lat="55.732908993959427" lon="-4.260062975808978">
        <ele>160.19999999999999</ele>
        <time>2023-09-02T16:10:40Z</time>
      </trkpt>
      <trkpt lat="55.732719982042909" lon="-4.262234978377819">
        <ele>166.44999999999999</ele>
        <time>2023-09-02T16:10:49Z</time>
      </trkpt>
      <trkpt lat="55.732715036720037" lon="-4.262303961440921">
        <ele>169.33000000000001</ele>
        <time>2023-09-02T16:10:55Z</time>
      </trkpt>
      <trkpt lat="55.73272299952805" lon="-4.26251501776278">
        <ele>171.72999999999999</ele>
        <time>2023-09-02T16:11:02Z</time>
      </trkpt>
      <trkpt lat="55.732776978984475" lon="-4.262591041624546">
        <ele>171.72999999999999</ele>
        <time>2023-09-02T16:11:03Z</time>
      </trkpt>
      <trkpt lat="55.732854008674622" lon="-4.262699000537396">
        <ele>171.72999999999999</ele>
        <time>2023-09-02T16:11:04Z</time>
      </trkpt>
      <trkpt lat="55.73358298279345" lon="-4.263700973242521">
        <ele>170.77000000000001</ele>
        <time>2023-09-02T16:11:10Z</time>
      </trkpt>
      <trkpt lat="55.734640024602413" lon="-4.265136038884521">
        <ele>167.88999999999999</ele>
        <time>2023-09-02T16:11:17Z</time>
      </trkpt>
      <trkpt lat="55.734734991565347" lon="-4.265265958383679">
        <ele>167.41</ele>
        <time>2023-09-02T16:11:19Z</time>
      </trkpt>
      <trkpt lat="55.734767010435462" lon="-4.265308035537601">
        <ele>166.93000000000001</ele>
        <time>2023-09-02T16:11:20Z</time>
      </trkpt>
      <trkpt lat="55.734839010983706" lon="-4.265265036374331">
        <ele>166.44999999999999</ele>
        <time>2023-09-02T16:11:21Z</time>
      </trkpt>
      <trkpt lat="55.734871029853821" lon="-4.265189012512565">
        <ele>165.96000000000001</ele>
        <time>2023-09-02T16:11:22Z</time>
      </trkpt>
      <trkpt lat="55.734908999875188" lon="-4.26509496755898">
        <ele>165.47999999999999</ele>
        <time>2023-09-02T16:11:23Z</time>
      </trkpt>
      <trkpt lat="55.734951999038458" lon="-4.264991031959653">
        <ele>164.52000000000001</ele>
        <time>2023-09-02T16:11:24Z</time>
      </trkpt>
      <trkpt lat="55.735645014792681" lon="-4.26330903545022">
        <ele>154.91</ele>
        <time>2023-09-02T16:11:38Z</time>
      </trkpt>
      <trkpt lat="55.735678039491177" lon="-4.263229994103313">
        <ele>154.43000000000001</ele>
        <time>2023-09-02T16:11:39Z</time>
      </trkpt>
      <trkpt lat="55.73570896871388" lon="-4.263151958584786">
        <ele>153.94999999999999</ele>
        <time>2023-09-02T16:11:40Z</time>
      </trkpt>
      <trkpt lat="55.735748028382659" lon="-4.263059003278613">
        <ele>153.47</ele>
        <time>2023-09-02T16:11:41Z</time>
      </trkpt>
      <trkpt lat="55.735970987007022" lon="-4.262517029419541">
        <ele>152.03</ele>
        <time>2023-09-02T16:11:46Z</time>
      </trkpt>
      <trkpt lat="55.736525030806661" lon="-4.261171985417604">
        <ele>145.30000000000001</ele>
        <time>2023-09-02T16:11:57Z</time>
      </trkpt>
      <trkpt lat="55.737137999385595" lon="-4.259684029966593">
        <ele>139.05000000000001</ele>
        <time>2023-09-02T16:12:09Z</time>
      </trkpt>
      <trkpt lat="55.737481992691755" lon="-4.258847013115883">
        <ele>134.72</ele>
        <time>2023-09-02T16:12:17Z</time>
      </trkpt>
      <trkpt lat="55.737615013495088" lon="-4.258524980396032">
        <ele>132.31999999999999</ele>
        <time>2023-09-02T16:12:26Z</time>
      </trkpt>
      <trkpt lat="55.737638985738158" lon="-4.258466977626085">
        <ele>132.31999999999999</ele>
        <time>2023-09-02T16:12:57Z</time>
      </trkpt>
      <trkpt lat="55.737638985738158" lon="-4.258466977626085">
        <ele>132.31999999999999</ele>
        <time>2023-09-02T16:13:05Z</time>
      </trkpt>
      <trkpt lat="55.737672010436654" lon="-4.258308978751302">
        <ele>132.80000000000001</ele>
        <time>2023-09-02T16:13:06Z</time>
      </trkpt>
      <trkpt lat="55.737677039578557" lon="-4.258277965709567">
        <ele>132.80000000000001</ele>
        <time>2023-09-02T16:13:07Z</time>
      </trkpt>
      <trkpt lat="55.737680979073048" lon="-4.258247036486864">
        <ele>132.80000000000001</ele>
        <time>2023-09-02T16:13:08Z</time>
      </trkpt>
      <trkpt lat="55.737699000164866" lon="-4.258124995976687">
        <ele>132.80000000000001</ele>
        <time>2023-09-02T16:13:09Z</time>
      </trkpt>
      <trkpt lat="55.737699000164866" lon="-4.258124995976687">
        <ele>132.80000000000001</ele>
        <time>2023-09-02T16:13:21Z</time>
      </trkpt>
      <trkpt lat="55.737699000164866" lon="-4.258124995976687">
        <ele>132.80000000000001</ele>
        <time>2023-09-02T16:13:25Z</time>
      </trkpt>
      <trkpt lat="55.737656001001596" lon="-4.258424984291196">
        <ele>133.28</ele>
        <time>2023-09-02T16:13:27Z</time>
      </trkpt>
      <trkpt lat="55.737647032365203" lon="-4.258447028696537">
        <ele>133.28</ele>
        <time>2023-09-02T16:13:28Z</time>
      </trkpt>
      <trkpt lat="55.737610990181565" lon="-4.258534032851458">
        <ele>133.28</ele>
        <time>2023-09-02T16:13:29Z</time>
      </trkpt>
      <trkpt lat="55.737257022410631" lon="-4.259394016116858">
        <ele>135.19999999999999</ele>
        <time>2023-09-02T16:13:37Z</time>
      </trkpt>
      <trkpt lat="55.736886039376259" lon="-4.260294986888766">
        <ele>139.05000000000001</ele>
        <time>2023-09-02T16:13:46Z</time>
      </trkpt>
      <trkpt lat="55.73652695864439" lon="-4.261166034266353">
        <ele>142.41</ele>
        <time>2023-09-02T16:13:55Z</time>
      </trkpt>
      <trkpt lat="55.736163016408682" lon="-4.262050995603204">
        <ele>144.81999999999999</ele>
        <time>2023-09-02T16:14:03Z</time>
      </trkpt>
      <trkpt lat="55.735700000077486" lon="-4.263175008818507">
        <ele>153.47</ele>
        <time>2023-09-02T16:14:14Z</time>
      </trkpt>
      <trkpt lat="55.735115027055144" lon="-4.264596998691559">
        <ele>162.59999999999999</ele>
        <time>2023-09-02T16:14:27Z</time>
      </trkpt>
      <trkpt lat="55.734854014590383" lon="-4.265228994190693">
        <ele>165.96000000000001</ele>
        <time>2023-09-02T16:14:36Z</time>
      </trkpt>
      <trkpt lat="55.734854014590383" lon="-4.265228994190693">
        <ele>166.44999999999999</ele>
        <time>2023-09-02T16:14:46Z</time>
      </trkpt>
      <trkpt lat="55.734824007377028" lon="-4.265303006395698">
        <ele>166.93000000000001</ele>
        <time>2023-09-02T16:14:47Z</time>
      </trkpt>
      <trkpt lat="55.73482995852828" lon="-4.265395039692521">
        <ele>166.93000000000001</ele>
        <time>2023-09-02T16:14:48Z</time>
      </trkpt>
      <trkpt lat="55.734873041510582" lon="-4.265453964471817">
        <ele>166.93000000000001</ele>
        <time>2023-09-02T16:14:49Z</time>
      </trkpt>
      <trkpt lat="55.734932972118258" lon="-4.265536023303866">
        <ele>166.93000000000001</ele>
        <time>2023-09-02T16:14:50Z</time>
      </trkpt>
      <trkpt lat="55.735013019293547" lon="-4.265645993873477">
        <ele>166.93000000000001</ele>
        <time>2023-09-02T16:14:51Z</time>
      </trkpt>
      <trkpt lat="55.735111003741622" lon="-4.265779014676809">
        <ele>166.93000000000001</ele>
        <time>2023-09-02T16:14:52Z</time>
      </trkpt>
      <trkpt lat="55.736035024747252" lon="-4.267038982361555">
        <ele>166.44999999999999</ele>
        <time>2023-09-02T16:14:59Z</time>
      </trkpt>
      <trkpt lat="55.736881010234356" lon="-4.268205994740129">
        <ele>165.47999999999999</ele>
        <time>2023-09-02T16:15:06Z</time>
      </trkpt>
      <trkpt lat="55.737570002675056" lon="-4.26915398798883">
        <ele>166.93000000000001</ele>
        <time>2023-09-02T16:15:15Z</time>
      </trkpt>
      <trkpt lat="55.73854498565197" lon="-4.27052803337574">
        <ele>162.12</ele>
        <time>2023-09-02T16:15:27Z</time>
      </trkpt>
      <trkpt lat="55.739259961992502" lon="-4.271510979160667">
        <ele>161.16</ele>
        <time>2023-09-02T16:15:36Z</time>
      </trkpt>
      <trkpt lat="55.739675033837557" lon="-4.272082038223743">
        <ele>160.68000000000001</ele>
        <time>2023-09-02T16:15:43Z</time>
      </trkpt>
      <trkpt lat="55.739916013553739" lon="-4.272398035973311">
        <ele>159.72</ele>
        <time>2023-09-02T16:15:50Z</time>
      </trkpt>
      <trkpt lat="55.739952977746725" lon="-4.272446986287832">
        <ele>159.72</ele>
        <time>2023-09-02T16:15:51Z</time>
      </trkpt>
      <trkpt lat="55.739947026595473" lon="-4.272635998204351">
        <ele>159.72</ele>
        <time>2023-09-02T16:15:52Z</time>
      </trkpt>
      <trkpt lat="55.739916013553739" lon="-4.272721996530891">
        <ele>160.19999999999999</ele>
        <time>2023-09-02T16:15:53Z</time>
      </trkpt>
      <trkpt lat="55.73987896554172" lon="-4.272825010120869">
        <ele>160.19999999999999</ele>
        <time>2023-09-02T16:15:54Z</time>
      </trkpt>
      <trkpt lat="55.739837978035212" lon="-4.272940009832382">
        <ele>160.19999999999999</ele>
        <time>2023-09-02T16:15:55Z</time>
      </trkpt>
      <trkpt lat="55.73935903608799" lon="-4.274291004985571">
        <ele>165</ele>
        <time>2023-09-02T16:16:04Z</time>
      </trkpt>
      <trkpt lat="55.7387800142169" lon="-4.275954980403185">
        <ele>171.25</ele>
        <time>2023-09-02T16:16:14Z</time>
      </trkpt>
      <trkpt lat="55.738240974023938" lon="-4.277455005794764">
        <ele>178.46000000000001</ele>
        <time>2023-09-02T16:16:24Z</time>
      </trkpt>
      <trkpt lat="55.737677039578557" lon="-4.279023008421063">
        <ele>182.78999999999999</ele>
        <time>2023-09-02T16:16:34Z</time>
      </trkpt>
      <trkpt lat="55.737559022381902" lon="-4.279350992292166">
        <ele>183.75</ele>
        <time>2023-09-02T16:16:36Z</time>
      </trkpt>
      <trkpt lat="55.737501019611955" lon="-4.279513014480472">
        <ele>184.22999999999999</ele>
        <time>2023-09-02T16:16:37Z</time>
      </trkpt>
      <trkpt lat="55.737001039087772" lon="-4.281011028215289">
        <ele>189.52000000000001</ele>
        <time>2023-09-02T16:16:46Z</time>
      </trkpt>
      <trkpt lat="55.736914034932852" lon="-4.281433979049325">
        <ele>190.47999999999999</ele>
        <time>2023-09-02T16:16:48Z</time>
      </trkpt>
      <trkpt lat="55.736897019669414" lon="-4.281630031764507">
        <ele>190.96000000000001</ele>
        <time>2023-09-02T16:16:49Z</time>
      </trkpt>
      <trkpt lat="55.736742960289121" lon="-4.283504979684949">
        <ele>197.69</ele>
        <time>2023-09-02T16:16:59Z</time>
      </trkpt>
      <trkpt lat="55.736348005011678" lon="-4.285107012838125">
        <ele>203.94</ele>
        <time>2023-09-02T16:17:08Z</time>
      </trkpt>
      <trkpt lat="55.735789015889168" lon="-4.287264011800289">
        <ele>211.63</ele>
        <time>2023-09-02T16:17:20Z</time>
      </trkpt>
      <trkpt lat="55.735258022323251" lon="-4.289184976369143">
        <ele>218.84</ele>
        <time>2023-09-02T16:17:28Z</time>
      </trkpt>
      <trkpt lat="55.734040969982743" lon="-4.292349983006716">
        <ele>225.09</ele>
        <time>2023-09-02T16:17:39Z</time>
      </trkpt>
      <trkpt lat="55.732489982619882" lon="-4.296193001791835">
        <ele>231.33000000000001</ele>
        <time>2023-09-02T16:17:52Z</time>
      </trkpt>
      <trkpt lat="55.731386002153158" lon="-4.298956012353301">
        <ele>237.09999999999999</ele>
        <time>2023-09-02T16:18:02Z</time>
      </trkpt>
      <trkpt lat="55.730199962854385" lon="-4.30191901512444">
        <ele>242.38999999999999</ele>
        <time>2023-09-02T16:18:13Z</time>
      </trkpt>
      <trkpt lat="55.729392031207681" lon="-4.304124964401126">
        <ele>253.44</ele>
        <time>2023-09-02T16:18:21Z</time>
      </trkpt>
      <trkpt lat="55.729019958525896" lon="-4.307386027649045">
        <ele>267.38</ele>
        <time>2023-09-02T16:18:31Z</time>
      </trkpt>
      <trkpt lat="55.728953992947936" lon="-4.310755971819162">
        <ele>276.04000000000002</ele>
        <time>2023-09-02T16:18:41Z</time>
      </trkpt>
      <trkpt lat="55.728539004921913" lon="-4.312958987429738">
        <ele>277.48000000000002</ele>
        <time>2023-09-02T16:18:48Z</time>
      </trkpt>
      <trkpt lat="55.727609032765031" lon="-4.315484035760164">
        <ele>277.48000000000002</ele>
        <time>2023-09-02T16:18:57Z</time>
      </trkpt>
      <trkpt lat="55.726345963776112" lon="-4.317977987229824">
        <ele>276.04000000000002</ele>
        <time>2023-09-02T16:19:07Z</time>
      </trkpt>
      <trkpt lat="55.724458023905754" lon="-4.32123301550746">
        <ele>276.04000000000002</ele>
        <time>2023-09-02T16:19:21Z</time>
      </trkpt>
      <trkpt lat="55.72266697883606" lon="-4.324642019346356">
        <ele>284.20999999999998</ele>
        <time>2023-09-02T16:19:35Z</time>
      </trkpt>
      <trkpt lat="55.721177011728287" lon="-4.327650032937527">
        <ele>291.89999999999998</ele>
        <time>2023-09-02T16:19:47Z</time>
      </trkpt>
      <trkpt lat="55.720167998224497" lon="-4.330453025177121">
        <ele>302.94999999999999</ele>
        <time>2023-09-02T16:19:57Z</time>
      </trkpt>
      <trkpt lat="55.718832006677985" lon="-4.334161011502147">
        <ele>300.06999999999999</ele>
        <time>2023-09-02T16:20:10Z</time>
      </trkpt>
      <trkpt lat="55.717560974881053" lon="-4.336644988507032">
        <ele>291.89999999999998</ele>
        <time>2023-09-02T16:20:20Z</time>
      </trkpt>
      <trkpt lat="55.715559041127563" lon="-4.340163040906191">
        <ele>289.49000000000001</ele>
        <time>2023-09-02T16:20:35Z</time>
      </trkpt>
      <trkpt lat="55.714491019025445" lon="-4.342815997079015">
        <ele>295.25999999999999</ele>
        <time>2023-09-02T16:20:45Z</time>
      </trkpt>
      <trkpt lat="55.713727008551359" lon="-4.345871033146977">
        <ele>304.38999999999999</ele>
        <time>2023-09-02T16:20:55Z</time>
      </trkpt>
      <trkpt lat="55.713511006906629" lon="-4.347501983866096">
        <ele>305.36000000000001</ele>
        <time>2023-09-02T16:21:00Z</time>
      </trkpt>
      <trkpt lat="55.71342702023685" lon="-4.347771964967251">
        <ele>305.36000000000001</ele>
        <time>2023-09-02T16:21:01Z</time>
      </trkpt>
      <trkpt lat="55.71332098916173" lon="-4.348032977432013">
        <ele>305.36000000000001</ele>
        <time>2023-09-02T16:21:02Z</time>
      </trkpt>
      <trkpt lat="55.71321303024888" lon="-4.348299019038677">
        <ele>305.36000000000001</ele>
        <time>2023-09-02T16:21:03Z</time>
      </trkpt>
      <trkpt lat="55.713100964203477" lon="-4.348573023453355">
        <ele>305.36000000000001</ele>
        <time>2023-09-02T16:21:04Z</time>
      </trkpt>
      <trkpt lat="55.711500020697713" lon="-4.352414030581713">
        <ele>286.61000000000001</ele>
        <time>2023-09-02T16:21:17Z</time>
      </trkpt>
      <trkpt lat="55.70960596203804" lon="-4.356984011828899">
        <ele>271.23000000000002</ele>
        <time>2023-09-02T16:21:32Z</time>
      </trkpt>
      <trkpt lat="55.708471974357963" lon="-4.35973503626883">
        <ele>265.94</ele>
        <time>2023-09-02T16:21:42Z</time>
      </trkpt>
      <trkpt lat="55.706900032237172" lon="-4.363546036183834">
        <ele>260.17000000000002</ele>
        <time>2023-09-02T16:21:57Z</time>
      </trkpt>
      <trkpt lat="55.705652972683311" lon="-4.366550026461482">
        <ele>262.57999999999998</ele>
        <time>2023-09-02T16:22:08Z</time>
      </trkpt>
      <trkpt lat="55.704634990543127" lon="-4.36899796128273">
        <ele>259.69</ele>
        <time>2023-09-02T16:22:17Z</time>
      </trkpt>
      <trkpt lat="55.703875003382564" lon="-4.370903000235558">
        <ele>258.73000000000002</ele>
        <time>2023-09-02T16:22:24Z</time>
      </trkpt>
      <trkpt lat="55.703234039247036" lon="-4.373334003612399">
        <ele>258.73000000000002</ele>
        <time>2023-09-02T16:22:32Z</time>
      </trkpt>
      <trkpt lat="55.702936984598637" lon="-4.375197971239686">
        <ele>257.29000000000002</ele>
        <time>2023-09-02T16:22:38Z</time>
      </trkpt>
      <trkpt lat="55.702817961573601" lon="-4.375498965382576">
        <ele>257.29000000000002</ele>
        <time>2023-09-02T16:22:39Z</time>
      </trkpt>
      <trkpt lat="55.702712014317513" lon="-4.375765006989241">
        <ele>256.81</ele>
        <time>2023-09-02T16:22:40Z</time>
      </trkpt>
      <trkpt lat="55.702057974413037" lon="-4.378181006759405">
        <ele>254.41</ele>
        <time>2023-09-02T16:22:48Z</time>
      </trkpt>
      <trkpt lat="55.701781958341599" lon="-4.380815019831061">
        <ele>250.56</ele>
        <time>2023-09-02T16:22:56Z</time>
      </trkpt>
      <trkpt lat="55.701106963679194" lon="-4.3839490134269">
        <ele>244.78999999999999</ele>
        <time>2023-09-02T16:23:06Z</time>
      </trkpt>
      <trkpt lat="55.700154025107622" lon="-4.386832974851131">
        <ele>238.53999999999999</ele>
        <time>2023-09-02T16:23:16Z</time>
      </trkpt>
      <trkpt lat="55.698981983587146" lon="-4.388486975803971">
        <ele>235.18000000000001</ele>
        <time>2023-09-02T16:23:24Z</time>
      </trkpt>
      <trkpt lat="55.697759985923767" lon="-4.389709979295731">
        <ele>228.44999999999999</ele>
        <time>2023-09-02T16:23:32Z</time>
      </trkpt>
      <trkpt lat="55.696059968322515" lon="-4.391411002725363">
        <ele>220.28</ele>
        <time>2023-09-02T16:23:42Z</time>
      </trkpt>
      <trkpt lat="55.69503896869719" lon="-4.392721010372043">
        <ele>219.80000000000001</ele>
        <time>2023-09-02T16:23:49Z</time>
      </trkpt>
      <trkpt lat="55.69495297037065" lon="-4.392921002581716">
        <ele>219.31999999999999</ele>
        <time>2023-09-02T16:23:50Z</time>
      </trkpt>
      <trkpt lat="55.694918017834425" lon="-4.393101967871189">
        <ele>219.31999999999999</ele>
        <time>2023-09-02T16:23:51Z</time>
      </trkpt>
      <trkpt lat="55.694911982864141" lon="-4.393292991444469">
        <ele>219.31999999999999</ele>
        <time>2023-09-02T16:23:52Z</time>
      </trkpt>
      <trkpt lat="55.694911982864141" lon="-4.393373038619757">
        <ele>219.31999999999999</ele>
        <time>2023-09-02T16:23:53Z</time>
      </trkpt>
      <trkpt lat="55.694950958713889" lon="-4.393508993089199">
        <ele>219.31999999999999</ele>
        <time>2023-09-02T16:23:54Z</time>
      </trkpt>
      <trkpt lat="55.694968979805708" lon="-4.393571019172669">
        <ele>219.31999999999999</ele>
        <time>2023-09-02T16:23:55Z</time>
      </trkpt>
      <trkpt lat="55.694984989240766" lon="-4.393627010285854">
        <ele>219.31999999999999</ele>
        <time>2023-09-02T16:23:56Z</time>
      </trkpt>
      <trkpt lat="55.694944001734257" lon="-4.393916018307209">
        <ele>218.84</ele>
        <time>2023-09-02T16:23:57Z</time>
      </trkpt>
      <trkpt lat="55.69490703754127" lon="-4.393951976671815">
        <ele>218.84</ele>
        <time>2023-09-02T16:23:58Z</time>
      </trkpt>
      <trkpt lat="55.694851968437433" lon="-4.39400402829051">
        <ele>218.84</ele>
        <time>2023-09-02T16:23:59Z</time>
      </trkpt>
      <trkpt lat="55.694782985374331" lon="-4.39406999386847">
        <ele>218.84</ele>
        <time>2023-09-02T16:24:00Z</time>
      </trkpt>
      <trkpt lat="55.694698998704553" lon="-4.394150041043758">
        <ele>218.84</ele>
        <time>2023-09-02T16:24:01Z</time>
      </trkpt>
      <trkpt lat="55.694056022912264" lon="-4.395069032907486">
        <ele>217.88</ele>
        <time>2023-09-02T16:24:07Z</time>
      </trkpt>
      <trkpt lat="55.693386979401112" lon="-4.397079013288021">
        <ele>214.99000000000001</ele>
        <time>2023-09-02T16:24:14Z</time>
      </trkpt>
      <trkpt lat="55.692689018324018" lon="-4.399808999150991">
        <ele>210.19</ele>
        <time>2023-09-02T16:24:23Z</time>
      </trkpt>
      <trkpt lat="55.692576030269265" lon="-4.400292970240116">
        <ele>209.22</ele>
        <time>2023-09-02T16:24:25Z</time>
      </trkpt>
      <trkpt lat="55.692508975043893" lon="-4.400581978261471">
        <ele>208.25999999999999</ele>
        <time>2023-09-02T16:24:26Z</time>
      </trkpt>
      <trkpt lat="55.692275958135724" lon="-4.401681013405323">
        <ele>205.38</ele>
        <time>2023-09-02T16:24:32Z</time>
      </trkpt>
      <trkpt lat="55.692165987566113" lon="-4.40180498175323">
        <ele>205.38</ele>
        <time>2023-09-02T16:24:33Z</time>
      </trkpt>
      <trkpt lat="55.692082000896335" lon="-4.401967003941536">
        <ele>204.90000000000001</ele>
        <time>2023-09-02T16:24:35Z</time>
      </trkpt>
      <trkpt lat="55.692058028653264" lon="-4.40206297673285">
        <ele>204.41999999999999</ele>
        <time>2023-09-02T16:24:36Z</time>
      </trkpt>
      <trkpt lat="55.692100021988153" lon="-4.402304962277412">
        <ele>203.94</ele>
        <time>2023-09-02T16:24:37Z</time>
      </trkpt>
      <trkpt lat="55.692018968984485" lon="-4.402628000825644">
        <ele>203.46000000000001</ele>
        <time>2023-09-02T16:24:39Z</time>
      </trkpt>
      <trkpt lat="55.691972030326724" lon="-4.402815001085401">
        <ele>202.97999999999999</ele>
        <time>2023-09-02T16:24:40Z</time>
      </trkpt>
      <trkpt lat="55.691472971811891" lon="-4.404763961210847">
        <ele>200.56999999999999</ele>
        <time>2023-09-02T16:24:48Z</time>
      </trkpt>
      <trkpt lat="55.690440991893411" lon="-4.408115968108177">
        <ele>194.80000000000001</ele>
        <time>2023-09-02T16:24:59Z</time>
      </trkpt>
      <trkpt lat="55.689844032749534" lon="-4.409635020419955">
        <ele>192.88</ele>
        <time>2023-09-02T16:25:04Z</time>
      </trkpt>
      <trkpt lat="55.689700031653047" lon="-4.409891003742814">
        <ele>192.40000000000001</ele>
        <time>2023-09-02T16:25:05Z</time>
      </trkpt>
      <trkpt lat="55.68809699267149" lon="-4.412327958270907">
        <ele>193.36000000000001</ele>
        <time>2023-09-02T16:25:16Z</time>
      </trkpt>
      <trkpt lat="55.685709994286299" lon="-4.415936032310128">
        <ele>185.19</ele>
        <time>2023-09-02T16:25:31Z</time>
      </trkpt>
      <trkpt lat="55.683214031159878" lon="-4.419677965342999">
        <ele>181.34999999999999</ele>
        <time>2023-09-02T16:25:47Z</time>
      </trkpt>
      <trkpt lat="55.681168008595705" lon="-4.423030978068709">
        <ele>178.94</ele>
        <time>2023-09-02T16:26:01Z</time>
      </trkpt>
      <trkpt lat="55.679471008479595" lon="-4.42646898329258">
        <ele>173.66</ele>
        <time>2023-09-02T16:26:13Z</time>
      </trkpt>
      <trkpt lat="55.677056014537811" lon="-4.431355968117714">
        <ele>168.37</ele>
        <time>2023-09-02T16:26:30Z</time>
      </trkpt>
      <trkpt lat="55.675330013036728" lon="-4.434514017775655">
        <ele>169.33000000000001</ele>
        <time>2023-09-02T16:26:42Z</time>
      </trkpt>
      <trkpt lat="55.673110987991095" lon="-4.438283024355769">
        <ele>164.03999999999999</ele>
        <time>2023-09-02T16:26:57Z</time>
      </trkpt>
      <trkpt lat="55.67157500423491" lon="-4.439998967573047">
        <ele>161.63999999999999</ele>
        <time>2023-09-02T16:27:06Z</time>
      </trkpt>
      <trkpt lat="55.670811999589205" lon="-4.440816035494208">
        <ele>160.19999999999999</ele>
        <time>2023-09-02T16:27:12Z</time>
      </trkpt>
      <trkpt lat="55.670746034011245" lon="-4.440873032435775">
        <ele>160.19999999999999</ele>
        <time>2023-09-02T16:27:13Z</time>
      </trkpt>
      <trkpt lat="55.670681996271014" lon="-4.440909996628761">
        <ele>159.72</ele>
        <time>2023-09-02T16:27:14Z</time>
      </trkpt>
      <trkpt lat="55.670617958530784" lon="-4.440946038812399">
        <ele>159.72</ele>
        <time>2023-09-02T16:27:15Z</time>
      </trkpt>
      <trkpt lat="55.670554004609585" lon="-4.440983003005385">
        <ele>159.72</ele>
        <time>2023-09-02T16:27:16Z</time>
      </trkpt>
      <trkpt lat="55.670406986027956" lon="-4.440836990252137">
        <ele>159.72</ele>
        <time>2023-09-02T16:27:17Z</time>
      </trkpt>
      <trkpt lat="55.67039399407804" lon="-4.440834978595376">
        <ele>159.24000000000001</ele>
        <time>2023-09-02T16:27:18Z</time>
      </trkpt>
      <trkpt lat="55.670322999358177" lon="-4.440822992473841">
        <ele>159.24000000000001</ele>
        <time>2023-09-02T16:27:19Z</time>
      </trkpt>
      <trkpt lat="55.670235995203257" lon="-4.440879989415407">
        <ele>159.24000000000001</ele>
        <time>2023-09-02T16:27:20Z</time>
      </trkpt>
      <trkpt lat="55.670214034616947" lon="-4.441136978566647">
        <ele>158.27000000000001</ele>
        <time>2023-09-02T16:27:21Z</time>
      </trkpt>
      <trkpt lat="55.670165000483394" lon="-4.441215014085174">
        <ele>157.78999999999999</ele>
        <time>2023-09-02T16:27:22Z</time>
      </trkpt>
      <trkpt lat="55.670090988278389" lon="-4.441333031281829">
        <ele>157.31</ele>
        <time>2023-09-02T16:27:23Z</time>
      </trkpt>
      <trkpt lat="55.670008007436991" lon="-4.441464962437749">
        <ele>156.83000000000001</ele>
        <time>2023-09-02T16:27:24Z</time>
      </trkpt>
      <trkpt lat="55.669206026941538" lon="-4.442739011719823">
        <ele>155.38999999999999</ele>
        <time>2023-09-02T16:27:31Z</time>
      </trkpt>
      <trkpt lat="55.667451024055481" lon="-4.444589987397194">
        <ele>152.99000000000001</ele>
        <time>2023-09-02T16:27:42Z</time>
      </trkpt>
      <trkpt lat="55.665699960663915" lon="-4.445636970922351">
        <ele>147.22</ele>
        <time>2023-09-02T16:27:52Z</time>
      </trkpt>
      <trkpt lat="55.663993991911411" lon="-4.446518998593092">
        <ele>141.44999999999999</ele>
        <time>2023-09-02T16:28:03Z</time>
      </trkpt>
      <trkpt lat="55.663343975320458" lon="-4.446863997727633">
        <ele>138.56999999999999</ele>
        <time>2023-09-02T16:28:09Z</time>
      </trkpt>
      <trkpt lat="55.663271974772215" lon="-4.44690297357738">
        <ele>138.09</ele>
        <time>2023-09-02T16:28:10Z</time>
      </trkpt>
      <trkpt lat="55.663158986717463" lon="-4.44687900133431">
        <ele>138.56999999999999</ele>
        <time>2023-09-02T16:28:11Z</time>
      </trkpt>
      <trkpt lat="55.663091009482741" lon="-4.446820998564363">
        <ele>138.56999999999999</ele>
        <time>2023-09-02T16:28:12Z</time>
      </trkpt>
      <trkpt lat="55.663037030026317" lon="-4.44662201218307">
        <ele>138.56999999999999</ele>
        <time>2023-09-02T16:28:13Z</time>
      </trkpt>
      <trkpt lat="55.663011968135834" lon="-4.446485973894596">
        <ele>139.05000000000001</ele>
        <time>2023-09-02T16:28:14Z</time>
      </trkpt>
      <trkpt lat="55.662983972579241" lon="-4.446325041353703">
        <ele>139.05000000000001</ele>
        <time>2023-09-02T16:28:15Z</time>
      </trkpt>
      <trkpt lat="55.662962011992931" lon="-4.446200989186764">
        <ele>139.05000000000001</ele>
        <time>2023-09-02T16:28:16Z</time>
      </trkpt>
      <trkpt lat="55.662905015051365" lon="-4.445986999198794">
        <ele>139.53</ele>
        <time>2023-09-02T16:28:17Z</time>
      </trkpt>
      <trkpt lat="55.662870984524488" lon="-4.445822965353727">
        <ele>139.53</ele>
        <time>2023-09-02T16:28:18Z</time>
      </trkpt>
      <trkpt lat="55.662533026188612" lon="-4.444332998245955">
        <ele>141.93000000000001</ele>
        <time>2023-09-02T16:28:28Z</time>
      </trkpt>
      <trkpt lat="55.662516010925174" lon="-4.444260997697711">
        <ele>142.41</ele>
        <time>2023-09-02T16:28:29Z</time>
      </trkpt>
      <trkpt lat="55.662504024803638" lon="-4.444212969392538">
        <ele>142.88999999999999</ele>
        <time>2023-09-02T16:28:30Z</time>
      </trkpt>
      <trkpt lat="55.662497989833355" lon="-4.444186985492706">
        <ele>144.34</ele>
        <time>2023-09-02T16:28:40Z</time>
      </trkpt>
      <trkpt lat="55.662497989833355" lon="-4.444186985492706">
        <ele>145.30000000000001</ele>
        <time>2023-09-02T16:28:55Z</time>
      </trkpt>
      <trkpt lat="55.662458008155227" lon="-4.444020017981529">
        <ele>146.25999999999999</ele>
        <time>2023-09-02T16:29:06Z</time>
      </trkpt>
      <trkpt lat="55.662458008155227" lon="-4.444020017981529">
        <ele>145.78</ele>
        <time>2023-09-02T16:29:47Z</time>
      </trkpt>
      <trkpt lat="55.662381984293461" lon="-4.443615004420281">
        <ele>146.74000000000001</ele>
        <time>2023-09-02T16:29:55Z</time>
      </trkpt>
      <trkpt lat="55.662394976243377" lon="-4.443200016394258">
        <ele>145.78</ele>
        <time>2023-09-02T16:30:00Z</time>
      </trkpt>
      <trkpt lat="55.662311995401978" lon="-4.443132961168885">
        <ele>144.81999999999999</ele>
        <time>2023-09-02T16:30:01Z</time>
      </trkpt>
      <trkpt lat="55.662253992632031" lon="-4.443218959495425">
        <ele>144.34</ele>
        <time>2023-09-02T16:30:02Z</time>
      </trkpt>
      <trkpt lat="55.662253992632031" lon="-4.443218959495425">
        <ele>143.84999999999999</ele>
        <time>2023-09-02T16:30:03Z</time>
      </trkpt>
      <trkpt lat="55.662286011502147" lon="-4.443316021934152">
        <ele>143.37</ele>
        <time>2023-09-02T16:30:04Z</time>
      </trkpt>
      <trkpt lat="55.662295985966921" lon="-4.443348040804267">
        <ele>142.88999999999999</ele>
        <time>2023-09-02T16:30:05Z</time>
      </trkpt>
      <trkpt lat="55.662295985966921" lon="-4.443348040804267">
        <ele>142.41</ele>
        <time>2023-09-02T16:30:06Z</time>
      </trkpt>
      <trkpt lat="55.662535959854722" lon="-4.44434498436749">
        <ele>138.56999999999999</ele>
        <time>2023-09-02T16:30:14Z</time>
      </trkpt>
      <trkpt lat="55.662751961499453" lon="-4.445297000929713">
        <ele>136.16</ele>
        <time>2023-09-02T16:30:21Z</time>
      </trkpt>
      <trkpt lat="55.662774005904794" lon="-4.445385010913014">
        <ele>136.16</ele>
        <time>2023-09-02T16:30:22Z</time>
      </trkpt>
      <trkpt lat="55.662725977599621" lon="-4.445606041699648">
        <ele>135.68000000000001</ele>
        <time>2023-09-02T16:30:23Z</time>
      </trkpt>
      <trkpt lat="55.662674009799957" lon="-4.445649040862918">
        <ele>135.68000000000001</ele>
        <time>2023-09-02T16:30:24Z</time>
      </trkpt>
      <trkpt lat="55.662608966231346" lon="-4.445703020319343">
        <ele>135.68000000000001</ele>
        <time>2023-09-02T16:30:25Z</time>
      </trkpt>
      <trkpt lat="55.662526991218328" lon="-4.445769991725683">
        <ele>136.16</ele>
        <time>2023-09-02T16:30:26Z</time>
      </trkpt>
      <trkpt lat="55.661736996844411" lon="-4.446319006383419">
        <ele>138.56999999999999</ele>
        <time>2023-09-02T16:30:32Z</time>
      </trkpt>
      <trkpt lat="55.65975702367723" lon="-4.447435978800058">
        <ele>139.05000000000001</ele>
        <time>2023-09-02T16:30:43Z</time>
      </trkpt>
      <trkpt lat="55.657396009191871" lon="-4.448869032785296">
        <ele>130.88</ele>
        <time>2023-09-02T16:30:55Z</time>
      </trkpt>
      <trkpt lat="55.654928963631392" lon="-4.450436029583216">
        <ele>122.22</ele>
        <time>2023-09-02T16:31:07Z</time>
      </trkpt>
      <trkpt lat="55.653142025694251" lon="-4.450821010395885">
        <ele>122.22</ele>
        <time>2023-09-02T16:31:15Z</time>
      </trkpt>
      <trkpt lat="55.650546988472342" lon="-4.451170032843947">
        <ele>120.3</ele>
        <time>2023-09-02T16:31:27Z</time>
      </trkpt>
      <trkpt lat="55.648840013891459" lon="-4.452253980562091">
        <ele>115.98</ele>
        <time>2023-09-02T16:31:35Z</time>
      </trkpt>
      <trkpt lat="55.647195987403393" lon="-4.454358005896211">
        <ele>114.05</ele>
        <time>2023-09-02T16:31:44Z</time>
      </trkpt>
      <trkpt lat="55.645960997790098" lon="-4.456822033971548">
        <ele>113.09</ele>
        <time>2023-09-02T16:31:52Z</time>
      </trkpt>
      <trkpt lat="55.645032031461596" lon="-4.4596859626472">
        <ele>112.13</ele>
        <time>2023-09-02T16:32:00Z</time>
      </trkpt>
      <trkpt lat="55.643642982468009" lon="-4.463327983394265">
        <ele>108.29000000000001</ele>
        <time>2023-09-02T16:32:11Z</time>
      </trkpt>
      <trkpt lat="55.642233984544873" lon="-4.465598976239562">
        <ele>106.36</ele>
        <time>2023-09-02T16:32:20Z</time>
      </trkpt>
      <trkpt lat="55.640646032989025" lon="-4.467079974710941">
        <ele>103.48</ele>
        <time>2023-09-02T16:32:28Z</time>
      </trkpt>
      <trkpt lat="55.638821041211486" lon="-4.467895030975342">
        <ele>99.629999999999995</ele>
        <time>2023-09-02T16:32:36Z</time>
      </trkpt>
      <trkpt lat="55.636074040085077" lon="-4.468238018453121">
        <ele>93.870000000000005</ele>
        <time>2023-09-02T16:32:47Z</time>
      </trkpt>
      <trkpt lat="55.633620992302895" lon="-4.468070967122912">
        <ele>88.579999999999998</ele>
        <time>2023-09-02T16:32:57Z</time>
      </trkpt>
      <trkpt lat="55.631070965901017" lon="-4.467348027974367">
        <ele>83.769999999999996</ele>
        <time>2023-09-02T16:33:08Z</time>
      </trkpt>
      <trkpt lat="55.628800978884101" lon="-4.466650988906622">
        <ele>79.930000000000007</ele>
        <time>2023-09-02T16:33:18Z</time>
      </trkpt>
      <trkpt lat="55.62673601321876" lon="-4.466347983106971">
        <ele>78.480000000000004</ele>
        <time>2023-09-02T16:33:27Z</time>
      </trkpt>
      <trkpt lat="55.625421982258558" lon="-4.466080013662577">
        <ele>78.480000000000004</ele>
        <time>2023-09-02T16:33:34Z</time>
      </trkpt>
      <trkpt lat="55.62458798289299" lon="-4.465927965939045">
        <ele>79.930000000000007</ele>
        <time>2023-09-02T16:33:39Z</time>
      </trkpt>
      <trkpt lat="55.624189004302025" lon="-4.465841967612505">
        <ele>80.409999999999997</ele>
        <time>2023-09-02T16:33:42Z</time>
      </trkpt>
      <trkpt lat="55.623870994895697" lon="-4.465731997042894">
        <ele>81.849999999999994</ele>
        <time>2023-09-02T16:33:47Z</time>
      </trkpt>
      <trkpt lat="55.623775022104383" lon="-4.465697966516018">
        <ele>83.290000000000006</ele>
        <time>2023-09-02T16:33:55Z</time>
      </trkpt>
      <trkpt lat="55.623657004907727" lon="-4.465883960947394">
        <ele>84.25</ele>
        <time>2023-09-02T16:34:00Z</time>
      </trkpt>
      <trkpt lat="55.62361903488636" lon="-4.46598001755774">
        <ele>84.730000000000004</ele>
        <time>2023-09-02T16:34:01Z</time>
      </trkpt>
      <trkpt lat="55.623571006581187" lon="-4.466099962592125">
        <ele>84.730000000000004</ele>
        <time>2023-09-02T16:34:02Z</time>
      </trkpt>
      <trkpt lat="55.62319197691977" lon="-4.46707796305418">
        <ele>85.209999999999994</ele>
        <time>2023-09-02T16:34:08Z</time>
      </trkpt>
      <trkpt lat="55.622412962839007" lon="-4.469007980078459">
        <ele>81.849999999999994</ele>
        <time>2023-09-02T16:34:18Z</time>
      </trkpt>
      <trkpt lat="55.621538981795311" lon="-4.471098007634282">
        <ele>76.560000000000002</ele>
        <time>2023-09-02T16:34:29Z</time>
      </trkpt>
      <trkpt lat="55.620374986901879" lon="-4.473616015166044">
        <ele>71.760000000000005</ele>
        <time>2023-09-02T16:34:43Z</time>
      </trkpt>
      <trkpt lat="55.619182996451855" lon="-4.475895976647735">
        <ele>65.510000000000005</ele>
        <time>2023-09-02T16:34:56Z</time>
      </trkpt>
      <trkpt lat="55.617877012118697" lon="-4.477702025324106">
        <ele>61.659999999999997</ele>
        <time>2023-09-02T16:35:09Z</time>
      </trkpt>
      <trkpt lat="55.616506990045309" lon="-4.479519976302981">
        <ele>58.299999999999997</ele>
        <time>2023-09-02T16:35:23Z</time>
      </trkpt>
      <trkpt lat="55.614879978820682" lon="-4.481701031327248">
        <ele>54.93</ele>
        <time>2023-09-02T16:35:40Z</time>
      </trkpt>
      <trkpt lat="55.613967021927238" lon="-4.48291003704071">
        <ele>54.450000000000003</ele>
        <time>2023-09-02T16:35:50Z</time>
      </trkpt>
      <trkpt lat="55.613924022763968" lon="-4.483014978468418">
        <ele>54.450000000000003</ele>
        <time>2023-09-02T16:35:51Z</time>
      </trkpt>
      <trkpt lat="55.613910024985671" lon="-4.48312402702868">
        <ele>54.450000000000003</ele>
        <time>2023-09-02T16:35:52Z</time>
      </trkpt>
      <trkpt lat="55.613947995007038" lon="-4.483245983719826">
        <ele>54.450000000000003</ele>
        <time>2023-09-02T16:35:53Z</time>
      </trkpt>
      <trkpt lat="55.614050002768636" lon="-4.483325025066733">
        <ele>53.969999999999999</ele>
        <time>2023-09-02T16:35:54Z</time>
      </trkpt>
      <trkpt lat="55.614088978618383" lon="-4.483476988971233">
        <ele>53.969999999999999</ele>
        <time>2023-09-02T16:35:55Z</time>
      </trkpt>
      <trkpt lat="55.614132983610034" lon="-4.483650997281075">
        <ele>53.490000000000002</ele>
        <time>2023-09-02T16:35:56Z</time>
      </trkpt>
      <trkpt lat="55.614181011915207" lon="-4.483837997540832">
        <ele>53.009999999999998</ele>
        <time>2023-09-02T16:35:57Z</time>
      </trkpt>
      <trkpt lat="55.614560963585973" lon="-4.485321007668972">
        <ele>51.57</ele>
        <time>2023-09-02T16:36:05Z</time>
      </trkpt>
      <trkpt lat="55.615067984908819" lon="-4.487208025529981">
        <ele>55.409999999999997</ele>
        <time>2023-09-02T16:36:15Z</time>
      </trkpt>
      <trkpt lat="55.615172004327178" lon="-4.487586971372366">
        <ele>56.369999999999997</ele>
        <time>2023-09-02T16:36:17Z</time>
      </trkpt>
      <trkpt lat="55.615196982398629" lon="-4.487816970795393">
        <ele>57.340000000000003</ele>
        <time>2023-09-02T16:36:18Z</time>
      </trkpt>
      <trkpt lat="55.615196982398629" lon="-4.488039007410407">
        <ele>57.340000000000003</ele>
        <time>2023-09-02T16:36:19Z</time>
      </trkpt>
      <trkpt lat="55.615196982398629" lon="-4.488263977691531">
        <ele>57.340000000000003</ele>
        <time>2023-09-02T16:36:20Z</time>
      </trkpt>
      <trkpt lat="55.615196982398629" lon="-4.488489031791687">
        <ele>57.340000000000003</ele>
        <time>2023-09-02T16:36:21Z</time>
      </trkpt>
      <trkpt lat="55.615020962432027" lon="-4.490821966901422">
        <ele>52.049999999999997</ele>
        <time>2023-09-02T16:36:32Z</time>
      </trkpt>
      <trkpt lat="55.614973017945886" lon="-4.490994969382882">
        <ele>51.57</ele>
        <time>2023-09-02T16:36:33Z</time>
      </trkpt>
      <trkpt lat="55.614927001297474" lon="-4.491164032369852">
        <ele>50.609999999999999</ele>
        <time>2023-09-02T16:36:34Z</time>
      </trkpt>
      <trkpt lat="55.61485399492085" lon="-4.491294035688043">
        <ele>49.649999999999999</ele>
        <time>2023-09-02T16:36:35Z</time>
      </trkpt>
      <trkpt lat="55.614775959402323" lon="-4.491406017914414">
        <ele>48.68</ele>
        <time>2023-09-02T16:36:36Z</time>
      </trkpt>
      <trkpt lat="55.614690966904163" lon="-4.491500984877348">
        <ele>47.719999999999999</ele>
        <time>2023-09-02T16:36:37Z</time>
      </trkpt>
      <trkpt lat="55.61461603268981" lon="-4.491583965718746">
        <ele>47.240000000000002</ele>
        <time>2023-09-02T16:36:38Z</time>
      </trkpt>
      <trkpt lat="55.614387961104512" lon="-4.491841960698366">
        <ele>44.359999999999999</ele>
        <time>2023-09-02T16:36:43Z</time>
      </trkpt>
      <trkpt lat="55.614371029660106" lon="-4.491862999275327">
        <ele>43.880000000000003</ele>
        <time>2023-09-02T16:36:44Z</time>
      </trkpt>
      <trkpt lat="55.614371029660106" lon="-4.491862999275327">
        <ele>42.920000000000002</ele>
        <time>2023-09-02T16:36:56Z</time>
      </trkpt>
      <trkpt lat="55.614088978618383" lon="-4.492173967882991">
        <ele>40.509999999999998</ele>
        <time>2023-09-02T16:37:06Z</time>
      </trkpt>
      <trkpt lat="55.613063033670187" lon="-4.49309497140348">
        <ele>41.469999999999999</ele>
        <time>2023-09-02T16:37:18Z</time>
      </trkpt>
      <trkpt lat="55.612766984850168" lon="-4.493324970826507">
        <ele>42.920000000000002</ele>
        <time>2023-09-02T16:37:24Z</time>
      </trkpt>
      <trkpt lat="55.612461967393756" lon="-4.493508031591773">
        <ele>44.359999999999999</ele>
        <time>2023-09-02T16:37:34Z</time>
      </trkpt>
      <trkpt lat="55.6122110132128" lon="-4.493627976626158">
        <ele>45.32</ele>
        <time>2023-09-02T16:37:43Z</time>
      </trkpt>
      <trkpt lat="55.612189974635839" lon="-4.493635017424822">
        <ele>45.799999999999997</ele>
        <time>2023-09-02T16:37:54Z</time>
      </trkpt>
      <trkpt lat="55.612170025706291" lon="-4.493642980232835">
        <ele>45.799999999999997</ele>
        <time>2023-09-02T16:37:56Z</time>
      </trkpt>
      <trkpt lat="55.612145969644189" lon="-4.49365102685988">
        <ele>45.799999999999997</ele>
        <time>2023-09-02T16:37:57Z</time>
      </trkpt>
      <trkpt lat="55.612101964652538" lon="-4.493667958304286">
        <ele>46.280000000000001</ele>
        <time>2023-09-02T16:37:58Z</time>
      </trkpt>
      <trkpt lat="55.612035999074578" lon="-4.493691008538008">
        <ele>45.799999999999997</ele>
        <time>2023-09-02T16:37:59Z</time>
      </trkpt>
      <trkpt lat="55.611959975212812" lon="-4.493719004094601">
        <ele>45.799999999999997</ele>
        <time>2023-09-02T16:38:00Z</time>
      </trkpt>
      <trkpt lat="55.61100896447897" lon="-4.493773989379406">
        <ele>45.799999999999997</ele>
        <time>2023-09-02T16:38:09Z</time>
      </trkpt>
      <trkpt lat="55.61079396866262" lon="-4.493827968835831">
        <ele>45.799999999999997</ele>
        <time>2023-09-02T16:38:11Z</time>
      </trkpt>
      <trkpt lat="55.610692966729403" lon="-4.493853030726314">
        <ele>45.799999999999997</ele>
        <time>2023-09-02T16:38:12Z</time>
      </trkpt>
      <trkpt lat="55.61059900559485" lon="-4.493921007961035">
        <ele>45.32</ele>
        <time>2023-09-02T16:38:13Z</time>
      </trkpt>
      <trkpt lat="55.610241014510393" lon="-4.494266007095575">
        <ele>44.359999999999999</ele>
        <time>2023-09-02T16:38:20Z</time>
      </trkpt>
      <trkpt lat="55.610227016732097" lon="-4.494283022359014">
        <ele>42.439999999999998</ele>
        <time>2023-09-02T16:38:32Z</time>
      </trkpt>
      <trkpt lat="55.609928034245968" lon="-4.49468401260674">
        <ele>40.509999999999998</ele>
        <time>2023-09-02T16:38:38Z</time>
      </trkpt>
      <trkpt lat="55.609793001785874" lon="-4.494891967624426">
        <ele>40.509999999999998</ele>
        <time>2023-09-02T16:38:40Z</time>
      </trkpt>
      <trkpt lat="55.609723012894392" lon="-4.49496204033494">
        <ele>40.509999999999998</ele>
        <time>2023-09-02T16:38:41Z</time>
      </trkpt>
      <trkpt lat="55.609627040103078" lon="-4.4950280059129">
        <ele>40.509999999999998</ele>
        <time>2023-09-02T16:38:42Z</time>
      </trkpt>
      <trkpt lat="55.609526038169861" lon="-4.495095983147621">
        <ele>40.030000000000001</ele>
        <time>2023-09-02T16:38:43Z</time>
      </trkpt>
      <trkpt lat="55.609420007094741" lon="-4.495168989524245">
        <ele>39.549999999999997</ele>
        <time>2023-09-02T16:38:44Z</time>
      </trkpt>
      <trkpt lat="55.609296038746834" lon="-4.495253982022405">
        <ele>39.07</ele>
        <time>2023-09-02T16:38:45Z</time>
      </trkpt>
      <trkpt lat="55.609210962429643" lon="-4.495267979800701">
        <ele>38.590000000000003</ele>
        <time>2023-09-02T16:38:46Z</time>
      </trkpt>
      <trkpt lat="55.6090940348804" lon="-4.495289018377662">
        <ele>38.109999999999999</ele>
        <time>2023-09-02T16:38:47Z</time>
      </trkpt>
      <trkpt lat="55.608161967247725" lon="-4.495452968403697">
        <ele>37.149999999999999</ele>
        <time>2023-09-02T16:38:56Z</time>
      </trkpt>
      <trkpt lat="55.607940014451742" lon="-4.495431007817388">
        <ele>37.149999999999999</ele>
        <time>2023-09-02T16:38:58Z</time>
      </trkpt>
      <trkpt lat="55.607821997255087" lon="-4.495397983118892">
        <ele>37.149999999999999</ele>
        <time>2023-09-02T16:38:59Z</time>
      </trkpt>
      <trkpt lat="55.606954973191023" lon="-4.495048960670829">
        <ele>34.259999999999998</ele>
        <time>2023-09-02T16:39:08Z</time>
      </trkpt>
      <trkpt lat="55.606879033148289" lon="-4.495020965114236">
        <ele>33.780000000000001</ele>
        <time>2023-09-02T16:39:09Z</time>
      </trkpt>
      <trkpt lat="55.606795968487859" lon="-4.494999004527926">
        <ele>33.299999999999997</ele>
        <time>2023-09-02T16:39:10Z</time>
      </trkpt>
      <trkpt lat="55.606730002909899" lon="-4.494981989264488">
        <ele>32.82</ele>
        <time>2023-09-02T16:39:11Z</time>
      </trkpt>
      <trkpt lat="55.606695972383022" lon="-4.494974026456475">
        <ele>32.340000000000003</ele>
        <time>2023-09-02T16:39:12Z</time>
      </trkpt>
      <trkpt lat="55.606695972383022" lon="-4.494974026456475">
        <ele>31.859999999999999</ele>
        <time>2023-09-02T16:39:24Z</time>
      </trkpt>
      <trkpt lat="55.606695972383022" lon="-4.494974026456475">
        <ele>30.899999999999999</ele>
        <time>2023-09-02T16:40:03Z</time>
      </trkpt>
      <trkpt lat="55.606697984039783" lon="-4.494974026456475">
        <ele>30.899999999999999</ele>
        <time>2023-09-02T16:40:13Z</time>
      </trkpt>
      <trkpt lat="55.606366982683539" lon="-4.494975032284856">
        <ele>28.5</ele>
        <time>2023-09-02T16:40:18Z</time>
      </trkpt>
      <trkpt lat="55.605016993358731" lon="-4.494999004527926">
        <ele>26.09</ele>
        <time>2023-09-02T16:40:30Z</time>
      </trkpt>
      <trkpt lat="55.604520030319691" lon="-4.495097994804382">
        <ele>26.09</ele>
        <time>2023-09-02T16:40:35Z</time>
      </trkpt>
      <trkpt lat="55.604422967880964" lon="-4.495155997574329">
        <ele>26.09</ele>
        <time>2023-09-02T16:40:36Z</time>
      </trkpt>
      <trkpt lat="55.604338981211185" lon="-4.495232021436095">
        <ele>26.09</ele>
        <time>2023-09-02T16:40:37Z</time>
      </trkpt>
      <trkpt lat="55.604250971227884" lon="-4.495321037247777">
        <ele>26.57</ele>
        <time>2023-09-02T16:40:38Z</time>
      </trkpt>
      <trkpt lat="55.604173019528389" lon="-4.495417010039091">
        <ele>26.57</ele>
        <time>2023-09-02T16:40:39Z</time>
      </trkpt>
      <trkpt lat="55.604109987616539" lon="-4.495557993650436">
        <ele>26.57</ele>
        <time>2023-09-02T16:40:40Z</time>
      </trkpt>
      <trkpt lat="55.604047039523721" lon="-4.49569595977664">
        <ele>27.050000000000001</ele>
        <time>2023-09-02T16:40:41Z</time>
      </trkpt>
      <trkpt lat="55.603986019268632" lon="-4.495830992236733">
        <ele>27.050000000000001</ele>
        <time>2023-09-02T16:40:42Z</time>
      </trkpt>
      <trkpt lat="55.603923993185163" lon="-4.495968958362937">
        <ele>27.050000000000001</ele>
        <time>2023-09-02T16:40:43Z</time>
      </trkpt>
      <trkpt lat="55.60365904122591" lon="-4.496476985514164">
        <ele>27.050000000000001</ele>
        <time>2023-09-02T16:40:47Z</time>
      </trkpt>
      <trkpt lat="55.603587962687016" lon="-4.496589973568916">
        <ele>27.050000000000001</ele>
        <time>2023-09-02T16:40:48Z</time>
      </trkpt>
      <trkpt lat="55.603524008765817" lon="-4.496690975502133">
        <ele>27.050000000000001</ele>
        <time>2023-09-02T16:40:49Z</time>
      </trkpt>
      <trkpt lat="55.603427030146122" lon="-4.496759958565235">
        <ele>27.050000000000001</ele>
        <time>2023-09-02T16:40:50Z</time>
      </trkpt>
      <trkpt lat="55.603344971314073" lon="-4.496818967163563">
        <ele>27.050000000000001</ele>
        <time>2023-09-02T16:40:51Z</time>
      </trkpt>
      <trkpt lat="55.603258972987533" lon="-4.496879987418652">
        <ele>27.050000000000001</ele>
        <time>2023-09-02T16:40:52Z</time>
      </trkpt>
      <trkpt lat="55.603168029338121" lon="-4.496946036815643">
        <ele>27.050000000000001</ele>
        <time>2023-09-02T16:40:53Z</time>
      </trkpt>
      <trkpt lat="55.603064009919763" lon="-4.497013008221984">
        <ele>27.530000000000001</ele>
        <time>2023-09-02T16:40:54Z</time>
      </trkpt>
      <trkpt lat="55.602957978844643" lon="-4.497007979080081">
        <ele>27.530000000000001</ele>
        <time>2023-09-02T16:40:55Z</time>
      </trkpt>
      <trkpt lat="55.602847002446651" lon="-4.497002027928829">
        <ele>27.530000000000001</ele>
        <time>2023-09-02T16:40:56Z</time>
      </trkpt>
      <trkpt lat="55.602150969207287" lon="-4.496969003230333">
        <ele>25.609999999999999</ele>
        <time>2023-09-02T16:41:04Z</time>
      </trkpt>
      <trkpt lat="55.601939996704459" lon="-4.496956011280417">
        <ele>22.73</ele>
        <time>2023-09-02T16:41:11Z</time>
      </trkpt>
      <trkpt lat="55.601829020306468" lon="-4.496948970481753">
        <ele>22.73</ele>
        <time>2023-09-02T16:41:12Z</time>
      </trkpt>
      <trkpt lat="55.601848969236016" lon="-4.496949976310134">
        <ele>22.73</ele>
        <time>2023-09-02T16:41:13Z</time>
      </trkpt>
      <trkpt lat="55.601829020306468" lon="-4.496866995468736">
        <ele>22.73</ele>
        <time>2023-09-02T16:41:14Z</time>
      </trkpt>
      <trkpt lat="55.601829020306468" lon="-4.496786026284099">
        <ele>22.73</ele>
        <time>2023-09-02T16:41:15Z</time>
      </trkpt>
      <trkpt lat="55.601829020306468" lon="-4.496707990765572">
        <ele>22.73</ele>
        <time>2023-09-02T16:41:16Z</time>
      </trkpt>
      <trkpt lat="55.601829020306468" lon="-4.496690975502133">
        <ele>22.73</ele>
        <time>2023-09-02T16:41:17Z</time>
      </trkpt>
      <trkpt lat="55.601829020306468" lon="-4.496690975502133">
        <ele>22.73</ele>
        <time>2023-09-02T16:41:18Z</time>
      </trkpt>
      <trkpt lat="55.601694993674755" lon="-4.496948970481753">
        <ele>22.73</ele>
        <time>2023-09-02T16:41:19Z</time>
      </trkpt>
      <trkpt lat="55.601660963147879" lon="-4.496948970481753">
        <ele>22.73</ele>
        <time>2023-09-02T16:41:20Z</time>
      </trkpt>
      <trkpt lat="55.601571025326848" lon="-4.496948970481753">
        <ele>22.25</ele>
        <time>2023-09-02T16:41:23Z</time>
      </trkpt>
      <trkpt lat="55.601557027548552" lon="-4.496948970481753">
        <ele>22.25</ele>
        <time>2023-09-02T16:41:24Z</time>
      </trkpt>
      <trkpt lat="55.601548980921507" lon="-4.496948970481753">
        <ele>22.25</ele>
        <time>2023-09-02T16:41:25Z</time>
      </trkpt>
      <trkpt lat="55.601542023941875" lon="-4.496948970481753">
        <ele>22.25</ele>
        <time>2023-09-02T16:41:26Z</time>
      </trkpt>
      <trkpt lat="55.601542023941875" lon="-4.496948970481753">
        <ele>21.77</ele>
        <time>2023-09-02T16:41:39Z</time>
      </trkpt>
      <trkpt lat="55.601542023941875" lon="-4.496948970481753">
        <ele>22.25</ele>
        <time>2023-09-02T16:42:29Z</time>
      </trkpt>
      <trkpt lat="55.601542023941875" lon="-4.496948970481753">
        <ele>22.73</ele>
        <time>2023-09-02T16:43:21Z</time>
      </trkpt>
      <trkpt lat="55.601542023941875" lon="-4.496948970481753">
        <ele>23.210000000000001</ele>
        <time>2023-09-02T16:44:17Z</time>
      </trkpt>
      <trkpt lat="55.601542023941875" lon="-4.496948970481753">
        <ele>23.690000000000001</ele>
        <time>2023-09-02T16:45:07Z</time>
      </trkpt>
      <trkpt lat="55.601542023941875" lon="-4.496948970481753">
        <ele>24.170000000000002</ele>
        <time>2023-09-02T16:45:52Z</time>
      </trkpt>
      <trkpt lat="55.601542023941875" lon="-4.496948970481753">
        <ele>24.649999999999999</ele>
        <time>2023-09-02T16:46:41Z</time>
      </trkpt>
      <trkpt lat="55.601542023941875" lon="-4.496948970481753">
        <ele>25.609999999999999</ele>
        <time>2023-09-02T16:47:26Z</time>
      </trkpt>
      <trkpt lat="55.601542023941875" lon="-4.496948970481753">
        <ele>25.609999999999999</ele>
        <time>2023-09-02T16:48:12Z</time>
      </trkpt>
      <trkpt lat="55.601655011996627" lon="-4.496649987995625">
        <ele>48.68</ele>
        <time>2023-09-02T16:50:33Z</time>
      </trkpt>
      <trkpt lat="55.60161997564137" lon="-4.496636996045709">
        <ele>43.399999999999999</ele>
        <time>2023-09-02T16:50:56Z</time>
      </trkpt>
      <trkpt lat="55.601642020046711" lon="-4.496948970481753">
        <ele>43.399999999999999</ele>
        <time>2023-09-02T16:50:58Z</time>
      </trkpt>
      <trkpt lat="55.601664986461401" lon="-4.496948970481753">
        <ele>42.920000000000002</ele>
        <time>2023-09-02T16:50:59Z</time>
      </trkpt>
      <trkpt lat="55.601702034473419" lon="-4.496948970481753">
        <ele>42.439999999999998</ele>
        <time>2023-09-02T16:51:00Z</time>
      </trkpt>
      <trkpt lat="55.601743021979928" lon="-4.496948970481753">
        <ele>41.469999999999999</ele>
        <time>2023-09-02T16:51:01Z</time>
      </trkpt>
      <trkpt lat="55.601776968687773" lon="-4.496948970481753">
        <ele>40.990000000000002</ele>
        <time>2023-09-02T16:51:02Z</time>
      </trkpt>
      <trkpt lat="55.601847041398287" lon="-4.496949976310134">
        <ele>39.549999999999997</ele>
        <time>2023-09-02T16:51:05Z</time>
      </trkpt>
      <trkpt lat="55.601844023913145" lon="-4.49685400351882">
        <ele>36.189999999999998</ele>
        <time>2023-09-02T16:51:12Z</time>
      </trkpt>
      <trkpt lat="55.60183203779161" lon="-4.496879987418652">
        <ele>34.740000000000002</ele>
        <time>2023-09-02T16:51:18Z</time>
      </trkpt>
      <trkpt lat="55.601829020306468" lon="-4.496945030987263">
        <ele>34.259999999999998</ele>
        <time>2023-09-02T16:51:20Z</time>
      </trkpt>
      <trkpt lat="55.601863972842693" lon="-4.496950982138515">
        <ele>33.780000000000001</ele>
        <time>2023-09-02T16:51:21Z</time>
      </trkpt>
      <trkpt lat="55.601903032511473" lon="-4.496952993795276">
        <ele>33.780000000000001</ele>
        <time>2023-09-02T16:51:22Z</time>
      </trkpt>
      <trkpt lat="55.601957011967897" lon="-4.496957017108798">
        <ele>33.780000000000001</ele>
        <time>2023-09-02T16:51:23Z</time>
      </trkpt>
      <trkpt lat="55.602016020566225" lon="-4.49696003459394">
        <ele>33.299999999999997</ele>
        <time>2023-09-02T16:51:24Z</time>
      </trkpt>
      <trkpt lat="55.602076034992933" lon="-4.49696397408843">
        <ele>33.299999999999997</ele>
        <time>2023-09-02T16:51:25Z</time>
      </trkpt>
      <trkpt lat="55.602657990530133" lon="-4.496992975473404">
        <ele>31.859999999999999</ele>
        <time>2023-09-02T16:51:33Z</time>
      </trkpt>
      <trkpt lat="55.602883966639638" lon="-4.49700403958559">
        <ele>31.379999999999999</ele>
        <time>2023-09-02T16:51:41Z</time>
      </trkpt>
      <trkpt lat="55.602883966639638" lon="-4.49700403958559">
        <ele>31.379999999999999</ele>
        <time>2023-09-02T16:52:11Z</time>
      </trkpt>
      <trkpt lat="55.602962002158165" lon="-4.497007979080081">
        <ele>34.259999999999998</ele>
        <time>2023-09-02T16:52:33Z</time>
      </trkpt>
      <trkpt lat="55.603185966610909" lon="-4.496932961046696">
        <ele>34.740000000000002</ele>
        <time>2023-09-02T16:52:37Z</time>
      </trkpt>
      <trkpt lat="55.603244975209236" lon="-4.496890967711806">
        <ele>35.229999999999997</ele>
        <time>2023-09-02T16:52:38Z</time>
      </trkpt>
      <trkpt lat="55.603425018489361" lon="-4.496761970221996">
        <ele>36.189999999999998</ele>
        <time>2023-09-02T16:52:41Z</time>
      </trkpt>
      <trkpt lat="55.603478997945786" lon="-4.496722994372249">
        <ele>36.189999999999998</ele>
        <time>2023-09-02T16:52:42Z</time>
      </trkpt>
      <trkpt lat="55.603578994050622" lon="-4.496808992698789">
        <ele>36.670000000000002</ele>
        <time>2023-09-02T16:52:43Z</time>
      </trkpt>
      <trkpt lat="55.603613024577498" lon="-4.496880993247032">
        <ele>36.189999999999998</ele>
        <time>2023-09-02T16:52:44Z</time>
      </trkpt>
      <trkpt lat="55.603648982942104" lon="-4.496958022937179">
        <ele>36.189999999999998</ele>
        <time>2023-09-02T16:52:45Z</time>
      </trkpt>
      <trkpt lat="55.603778986260295" lon="-4.497061958536506">
        <ele>36.189999999999998</ele>
        <time>2023-09-02T16:52:47Z</time>
      </trkpt>
      <trkpt lat="55.603834977373481" lon="-4.497066987678409">
        <ele>36.189999999999998</ele>
        <time>2023-09-02T16:52:48Z</time>
      </trkpt>
      <trkpt lat="55.603880994021893" lon="-4.49707000516355">
        <ele>36.189999999999998</ele>
        <time>2023-09-02T16:52:49Z</time>
      </trkpt>
      <trkpt lat="55.603977972641587" lon="-4.497015019878745">
        <ele>35.229999999999997</ele>
        <time>2023-09-02T16:52:54Z</time>
      </trkpt>
      <trkpt lat="55.603977972641587" lon="-4.497015019878745">
        <ele>34.740000000000002</ele>
        <time>2023-09-02T16:53:04Z</time>
      </trkpt>
      <trkpt lat="55.603995993733406" lon="-4.496734980493784">
        <ele>34.259999999999998</ele>
        <time>2023-09-02T16:53:15Z</time>
      </trkpt>
      <trkpt lat="55.603995993733406" lon="-4.496733974665403">
        <ele>33.780000000000001</ele>
        <time>2023-09-02T16:53:27Z</time>
      </trkpt>
      <trkpt lat="55.603995993733406" lon="-4.496733974665403">
        <ele>34.259999999999998</ele>
        <time>2023-09-02T16:53:44Z</time>
      </trkpt>
      <trkpt lat="55.603995993733406" lon="-4.496733974665403">
        <ele>34.259999999999998</ele>
        <time>2023-09-02T16:53:50Z</time>
      </trkpt>
      <trkpt lat="55.603995993733406" lon="-4.496733974665403">
        <ele>34.259999999999998</ele>
        <time>2023-09-02T16:53:51Z</time>
      </trkpt>
      <trkpt lat="55.604016026481986" lon="-4.496529959142208">
        <ele>39.07</ele>
        <time>2023-09-02T17:25:28Z</time>
      </trkpt>
      <trkpt lat="55.603984007611871" lon="-4.49655300937593">
        <ele>33.299999999999997</ele>
        <time>2023-09-02T17:26:12Z</time>
      </trkpt>
      <trkpt lat="55.603984007611871" lon="-4.49655300937593">
        <ele>33.299999999999997</ele>
        <time>2023-09-02T17:26:20Z</time>
      </trkpt>
      <trkpt lat="55.604072017595172" lon="-4.496572958305478">
        <ele>33.780000000000001</ele>
        <time>2023-09-02T17:26:24Z</time>
      </trkpt>
      <trkpt lat="55.604195985943079" lon="-4.49709297157824">
        <ele>33.299999999999997</ele>
        <time>2023-09-02T17:26:27Z</time>
      </trkpt>
      <trkpt lat="55.604234039783478" lon="-4.497095989063382">
        <ele>33.299999999999997</ele>
        <time>2023-09-02T17:26:28Z</time>
      </trkpt>
      <trkpt lat="55.604282990098" lon="-4.496408002451062">
        <ele>32.82</ele>
        <time>2023-09-02T17:26:31Z</time>
      </trkpt>
      <trkpt lat="55.604404024779797" lon="-4.495795033872128">
        <ele>32.340000000000003</ele>
        <time>2023-09-02T17:26:37Z</time>
      </trkpt>
      <trkpt lat="55.604377035051584" lon="-4.495743988081813">
        <ele>33.780000000000001</ele>
        <time>2023-09-02T17:26:41Z</time>
      </trkpt>
      <trkpt lat="55.604362031444907" lon="-4.49571599252522">
        <ele>34.259999999999998</ele>
        <time>2023-09-02T17:26:42Z</time>
      </trkpt>
      <trkpt lat="55.604339987039566" lon="-4.495671987533569">
        <ele>34.740000000000002</ele>
        <time>2023-09-02T17:26:43Z</time>
      </trkpt>
      <trkpt lat="55.604314003139734" lon="-4.495623037219048">
        <ele>35.229999999999997</ele>
        <time>2023-09-02T17:26:44Z</time>
      </trkpt>
      <trkpt lat="55.604289025068283" lon="-4.495574003085494">
        <ele>35.229999999999997</ele>
        <time>2023-09-02T17:26:45Z</time>
      </trkpt>
      <trkpt lat="55.604267986491323" lon="-4.495534021407366">
        <ele>35.710000000000001</ele>
        <time>2023-09-02T17:26:46Z</time>
      </trkpt>
      <trkpt lat="55.604250971227884" lon="-4.49550099670887">
        <ele>35.710000000000001</ele>
        <time>2023-09-02T17:26:47Z</time>
      </trkpt>
      <trkpt lat="55.604237979277968" lon="-4.495477024465799">
        <ele>35.710000000000001</ele>
        <time>2023-09-02T17:26:48Z</time>
      </trkpt>
      <trkpt lat="55.604225993156433" lon="-4.495452968403697">
        <ele>35.710000000000001</ele>
        <time>2023-09-02T17:26:49Z</time>
      </trkpt>
      <trkpt lat="55.604207972064614" lon="-4.495419021695852">
        <ele>35.710000000000001</ele>
        <time>2023-09-02T17:26:50Z</time>
      </trkpt>
      <trkpt lat="55.604189028963447" lon="-4.495381973683834">
        <ele>35.710000000000001</ele>
        <time>2023-09-02T17:26:51Z</time>
      </trkpt>
      <trkpt lat="55.604121973738074" lon="-4.495529998093844">
        <ele>35.710000000000001</ele>
        <time>2023-09-02T17:26:52Z</time>
      </trkpt>
      <trkpt lat="55.604079980403185" lon="-4.495623959228396">
        <ele>35.229999999999997</ele>
        <time>2023-09-02T17:26:53Z</time>
      </trkpt>
      <trkpt lat="55.604029018431902" lon="-4.495735019445419">
        <ele>35.229999999999997</ele>
        <time>2023-09-02T17:26:54Z</time>
      </trkpt>
      <trkpt lat="55.603972021490335" lon="-4.495862005278468">
        <ele>35.229999999999997</ele>
        <time>2023-09-02T17:26:55Z</time>
      </trkpt>
      <trkpt lat="55.603471035137773" lon="-4.496729029342532">
        <ele>33.299999999999997</ele>
        <time>2023-09-02T17:27:02Z</time>
      </trkpt>
      <trkpt lat="55.603379001840949" lon="-4.496794994920492">
        <ele>32.82</ele>
        <time>2023-09-02T17:27:03Z</time>
      </trkpt>
      <trkpt lat="55.603287974372506" lon="-4.496860038489103">
        <ele>32.82</ele>
        <time>2023-09-02T17:27:04Z</time>
      </trkpt>
      <trkpt lat="55.603198958560824" lon="-4.496922986581922">
        <ele>32.340000000000003</ele>
        <time>2023-09-02T17:27:05Z</time>
      </trkpt>
      <trkpt lat="55.603114971891046" lon="-4.49698300100863">
        <ele>32.340000000000003</ele>
        <time>2023-09-02T17:27:06Z</time>
      </trkpt>
      <trkpt lat="55.603026961907744" lon="-4.497010996565223">
        <ele>31.859999999999999</ele>
        <time>2023-09-02T17:27:07Z</time>
      </trkpt>
      <trkpt lat="55.602857982739806" lon="-4.49700303375721">
        <ele>31.859999999999999</ele>
        <time>2023-09-02T17:27:09Z</time>
      </trkpt>
      <trkpt lat="55.601675966754556" lon="-4.496948970481753">
        <ele>30.899999999999999</ele>
        <time>2023-09-02T17:27:23Z</time>
      </trkpt>
      <trkpt lat="55.601320993155241" lon="-4.496948970481753">
        <ele>29.940000000000001</ele>
        <time>2023-09-02T17:27:30Z</time>
      </trkpt>
      <trkpt lat="55.601320993155241" lon="-4.496948970481753">
        <ele>29.940000000000001</ele>
        <time>2023-09-02T17:27:46Z</time>
      </trkpt>
      <trkpt lat="55.601037014275789" lon="-4.496948970481753">
        <ele>29.460000000000001</ele>
        <time>2023-09-02T17:28:00Z</time>
      </trkpt>
      <trkpt lat="55.600366964936256" lon="-4.49692097492516">
        <ele>27.530000000000001</ele>
        <time>2023-09-02T17:28:08Z</time>
      </trkpt>
      <trkpt lat="55.600273003801703" lon="-4.49691703543067">
        <ele>27.530000000000001</ele>
        <time>2023-09-02T17:28:09Z</time>
      </trkpt>
      <trkpt lat="55.599099034443498" lon="-4.496823996305466">
        <ele>26.57</ele>
        <time>2023-09-02T17:28:20Z</time>
      </trkpt>
      <trkpt lat="55.598495034500957" lon="-4.496819972991943">
        <ele>27.050000000000001</ele>
        <time>2023-09-02T17:28:28Z</time>
      </trkpt>
      <trkpt lat="55.598471984267235" lon="-4.496819972991943">
        <ele>27.530000000000001</ele>
        <time>2023-09-02T17:28:36Z</time>
      </trkpt>
      <trkpt lat="55.59820200316608" lon="-4.496819972991943">
        <ele>28.5</ele>
        <time>2023-09-02T17:28:44Z</time>
      </trkpt>
      <trkpt lat="55.597878964617848" lon="-4.496819972991943">
        <ele>28.5</ele>
        <time>2023-09-02T17:28:48Z</time>
      </trkpt>
      <trkpt lat="55.596779007464647" lon="-4.497360019013286">
        <ele>30.420000000000002</ele>
        <time>2023-09-02T17:28:58Z</time>
      </trkpt>
      <trkpt lat="55.595804024487734" lon="-4.497850025072694">
        <ele>29.460000000000001</ele>
        <time>2023-09-02T17:29:07Z</time>
      </trkpt>
      <trkpt lat="55.594758968800306" lon="-4.49823098257184">
        <ele>33.780000000000001</ele>
        <time>2023-09-02T17:29:18Z</time>
      </trkpt>
      <trkpt lat="55.594693003222346" lon="-4.498235005885363">
        <ele>34.259999999999998</ele>
        <time>2023-09-02T17:29:19Z</time>
      </trkpt>
      <trkpt lat="55.594547996297479" lon="-4.49818798340857">
        <ele>34.740000000000002</ele>
        <time>2023-09-02T17:29:21Z</time>
      </trkpt>
      <trkpt lat="55.594454035162926" lon="-4.49818798340857">
        <ele>35.229999999999997</ele>
        <time>2023-09-02T17:29:22Z</time>
      </trkpt>
      <trkpt lat="55.594365019351244" lon="-4.498213967308402">
        <ele>35.710000000000001</ele>
        <time>2023-09-02T17:29:23Z</time>
      </trkpt>
      <trkpt lat="55.594273991882801" lon="-4.498321004211903">
        <ele>36.189999999999998</ele>
        <time>2023-09-02T17:29:24Z</time>
      </trkpt>
      <trkpt lat="55.594190005213022" lon="-4.498424017801881">
        <ele>36.670000000000002</ele>
        <time>2023-09-02T17:29:25Z</time>
      </trkpt>
      <trkpt lat="55.594147006049752" lon="-4.498643958941102">
        <ele>37.149999999999999</ele>
        <time>2023-09-02T17:29:26Z</time>
      </trkpt>
      <trkpt lat="55.594066036865115" lon="-4.498761976137757">
        <ele>37.630000000000003</ele>
        <time>2023-09-02T17:29:27Z</time>
      </trkpt>
      <trkpt lat="55.593979032710195" lon="-4.498888961970806">
        <ele>37.630000000000003</ele>
        <time>2023-09-02T17:29:28Z</time>
      </trkpt>
      <trkpt lat="55.593892028555274" lon="-4.499017037451267">
        <ele>38.109999999999999</ele>
        <time>2023-09-02T17:29:29Z</time>
      </trkpt>
      <trkpt lat="55.593783985823393" lon="-4.499072022736073">
        <ele>38.109999999999999</ele>
        <time>2023-09-02T17:29:30Z</time>
      </trkpt>
      <trkpt lat="55.593674015253782" lon="-4.499098006635904">
        <ele>38.109999999999999</ele>
        <time>2023-09-02T17:29:31Z</time>
      </trkpt>
      <trkpt lat="55.593557003885508" lon="-4.499127008020878">
        <ele>38.109999999999999</ele>
        <time>2023-09-02T17:29:32Z</time>
      </trkpt>
      <trkpt lat="55.593312000855803" lon="-4.499186016619206">
        <ele>38.590000000000003</ele>
        <time>2023-09-02T17:29:34Z</time>
      </trkpt>
      <trkpt lat="55.592367025092244" lon="-4.499854976311326">
        <ele>41.469999999999999</ele>
        <time>2023-09-02T17:29:43Z</time>
      </trkpt>
      <trkpt lat="55.590916033834219" lon="-4.501446029171348">
        <ele>40.509999999999998</ele>
        <time>2023-09-02T17:29:58Z</time>
      </trkpt>
      <trkpt lat="55.589469987899065" lon="-4.503015037626028">
        <ele>42.439999999999998</ele>
        <time>2023-09-02T17:30:13Z</time>
      </trkpt>
      <trkpt lat="55.588024025782943" lon="-4.504265030846">
        <ele>42.439999999999998</ele>
        <time>2023-09-02T17:30:27Z</time>
      </trkpt>
      <trkpt lat="55.586753999814391" lon="-4.505615020170808">
        <ele>40.990000000000002</ele>
        <time>2023-09-02T17:30:40Z</time>
      </trkpt>
      <trkpt lat="55.58529001660645" lon="-4.507623994722962">
        <ele>39.549999999999997</ele>
        <time>2023-09-02T17:30:56Z</time>
      </trkpt>
      <trkpt lat="55.584186958149076" lon="-4.509117985144258">
        <ele>39.549999999999997</ele>
        <time>2023-09-02T17:31:08Z</time>
      </trkpt>
      <trkpt lat="55.582949034869671" lon="-4.510952029377222">
        <ele>39.07</ele>
        <time>2023-09-02T17:31:21Z</time>
      </trkpt>
      <trkpt lat="55.581598039716482" lon="-4.512984976172447">
        <ele>37.149999999999999</ele>
        <time>2023-09-02T17:31:31Z</time>
      </trkpt>
      <trkpt lat="55.579765001311898" lon="-4.515772964805365">
        <ele>37.149999999999999</ele>
        <time>2023-09-02T17:31:43Z</time>
      </trkpt>
      <trkpt lat="55.577402980998158" lon="-4.519400987774134">
        <ele>43.399999999999999</ele>
        <time>2023-09-02T17:31:57Z</time>
      </trkpt>
      <trkpt lat="55.575067028403282" lon="-4.522899007424712">
        <ele>54.450000000000003</ele>
        <time>2023-09-02T17:32:11Z</time>
      </trkpt>
      <trkpt lat="55.573637997731566" lon="-4.524298030883074">
        <ele>55.890000000000001</ele>
        <time>2023-09-02T17:32:19Z</time>
      </trkpt>
      <trkpt lat="55.572457993403077" lon="-4.525063969194889">
        <ele>57.340000000000003</ele>
        <time>2023-09-02T17:32:25Z</time>
      </trkpt>
      <trkpt lat="55.569969993084669" lon="-4.526284039020538">
        <ele>63.579999999999998</ele>
        <time>2023-09-02T17:32:37Z</time>
      </trkpt>
      <trkpt lat="55.569635974243283" lon="-4.526644963771105">
        <ele>65.510000000000005</ele>
        <time>2023-09-02T17:32:39Z</time>
      </trkpt>
      <trkpt lat="55.569472024217248" lon="-4.526856020092964">
        <ele>66.469999999999999</ele>
        <time>2023-09-02T17:32:40Z</time>
      </trkpt>
      <trkpt lat="55.569340009242296" lon="-4.527065986767411">
        <ele>67.430000000000007</ele>
        <time>2023-09-02T17:32:41Z</time>
      </trkpt>
      <trkpt lat="55.56921998038888" lon="-4.527328005060554">
        <ele>68.390000000000001</ele>
        <time>2023-09-02T17:32:42Z</time>
      </trkpt>
      <trkpt lat="55.56911202147603" lon="-4.527618018910289">
        <ele>69.349999999999994</ele>
        <time>2023-09-02T17:32:43Z</time>
      </trkpt>
      <trkpt lat="55.569017976522446" lon="-4.527965029701591">
        <ele>69.829999999999998</ele>
        <time>2023-09-02T17:32:44Z</time>
      </trkpt>
      <trkpt lat="55.568922003731132" lon="-4.528322014957666">
        <ele>70.790000000000006</ele>
        <time>2023-09-02T17:32:45Z</time>
      </trkpt>
      <trkpt lat="55.567915001884103" lon="-4.531564973294735">
        <ele>77.040000000000006</ele>
        <time>2023-09-02T17:32:54Z</time>
      </trkpt>
      <trkpt lat="55.566429980099201" lon="-4.534380035474896">
        <ele>79.450000000000003</ele>
        <time>2023-09-02T17:33:03Z</time>
      </trkpt>
      <trkpt lat="55.564614962786436" lon="-4.536654967814684">
        <ele>82.329999999999998</ele>
        <time>2023-09-02T17:33:12Z</time>
      </trkpt>
      <trkpt lat="55.561830997467041" lon="-4.539487967267633">
        <ele>83.290000000000006</ele>
        <time>2023-09-02T17:33:24Z</time>
      </trkpt>
      <trkpt lat="55.560185965150595" lon="-4.541168035939336">
        <ele>86.180000000000007</ele>
        <time>2023-09-02T17:33:32Z</time>
      </trkpt>
      <trkpt lat="55.558189982548356" lon="-4.543417990207672">
        <ele>90.980000000000004</ele>
        <time>2023-09-02T17:33:44Z</time>
      </trkpt>
      <trkpt lat="55.555782029405236" lon="-4.546122997999191">
        <ele>94.349999999999994</ele>
        <time>2023-09-02T17:33:59Z</time>
      </trkpt>
      <trkpt lat="55.553328981623054" lon="-4.549269983544946">
        <ele>92.900000000000006</ele>
        <time>2023-09-02T17:34:15Z</time>
      </trkpt>
      <trkpt lat="55.550736961886287" lon="-4.552659038454294">
        <ele>93.870000000000005</ele>
        <time>2023-09-02T17:34:32Z</time>
      </trkpt>
      <trkpt lat="55.548252984881401" lon="-4.555780040100217">
        <ele>94.829999999999998</ele>
        <time>2023-09-02T17:34:48Z</time>
      </trkpt>
      <trkpt lat="55.545846037566662" lon="-4.559088964015245">
        <ele>90.019999999999996</ele>
        <time>2023-09-02T17:35:04Z</time>
      </trkpt>
      <trkpt lat="55.54332903586328" lon="-4.562617996707559">
        <ele>87.140000000000001</ele>
        <time>2023-09-02T17:35:21Z</time>
      </trkpt>
      <trkpt lat="55.541168013587594" lon="-4.565880987793207">
        <ele>79.930000000000007</ele>
        <time>2023-09-02T17:35:36Z</time>
      </trkpt>
      <trkpt lat="55.538733992725611" lon="-4.569627027958632">
        <ele>81.849999999999994</ele>
        <time>2023-09-02T17:35:53Z</time>
      </trkpt>
      <trkpt lat="55.536813028156757" lon="-4.572401018813252">
        <ele>79.450000000000003</ele>
        <time>2023-09-02T17:36:06Z</time>
      </trkpt>
      <trkpt lat="55.534030990675092" lon="-4.576423997059465">
        <ele>65.989999999999995</ele>
        <time>2023-09-02T17:36:25Z</time>
      </trkpt>
      <trkpt lat="55.531506026163697" lon="-4.580096025019884">
        <ele>57.82</ele>
        <time>2023-09-02T17:36:42Z</time>
      </trkpt>
      <trkpt lat="55.528948036953807" lon="-4.583797976374626">
        <ele>46.280000000000001</ele>
        <time>2023-09-02T17:36:59Z</time>
      </trkpt>
      <trkpt lat="55.527207031846046" lon="-4.586322018876672">
        <ele>42.920000000000002</ele>
        <time>2023-09-02T17:37:11Z</time>
      </trkpt>
      <trkpt lat="55.525158997625113" lon="-4.58919701166451">
        <ele>43.880000000000003</ele>
        <time>2023-09-02T17:37:26Z</time>
      </trkpt>
      <trkpt lat="55.525006027892232" lon="-4.58928300999105">
        <ele>43.880000000000003</ele>
        <time>2023-09-02T17:37:27Z</time>
      </trkpt>
      <trkpt lat="55.524866972118616" lon="-4.589318968355656">
        <ele>43.880000000000003</ele>
        <time>2023-09-02T17:37:28Z</time>
      </trkpt>
      <trkpt lat="55.524735962972045" lon="-4.589354004710913">
        <ele>43.880000000000003</ele>
        <time>2023-09-02T17:37:29Z</time>
      </trkpt>
      <trkpt lat="55.524604031816125" lon="-4.589388035237789">
        <ele>43.880000000000003</ele>
        <time>2023-09-02T17:37:30Z</time>
      </trkpt>
      <trkpt lat="55.524474028497934" lon="-4.589351993054152">
        <ele>43.880000000000003</ele>
        <time>2023-09-02T17:37:31Z</time>
      </trkpt>
      <trkpt lat="55.52433698438108" lon="-4.589313017204404">
        <ele>43.880000000000003</ele>
        <time>2023-09-02T17:37:32Z</time>
      </trkpt>
      <trkpt lat="55.524198012426496" lon="-4.589273035526276">
        <ele>43.880000000000003</ele>
        <time>2023-09-02T17:37:33Z</time>
      </trkpt>
      <trkpt lat="55.524062979966402" lon="-4.589187037199736">
        <ele>43.880000000000003</ele>
        <time>2023-09-02T17:37:34Z</time>
      </trkpt>
      <trkpt lat="55.523915961384773" lon="-4.589067008346319">
        <ele>43.880000000000003</ele>
        <time>2023-09-02T17:37:35Z</time>
      </trkpt>
      <trkpt lat="55.523796016350389" lon="-4.588912026956677">
        <ele>43.880000000000003</ele>
        <time>2023-09-02T17:37:36Z</time>
      </trkpt>
      <trkpt lat="55.523665007203817" lon="-4.588736006990075">
        <ele>43.880000000000003</ele>
        <time>2023-09-02T17:37:37Z</time>
      </trkpt>
      <trkpt lat="55.52203900180757" lon="-4.5865139644593">
        <ele>45.32</ele>
        <time>2023-09-02T17:37:48Z</time>
      </trkpt>
      <trkpt lat="55.520227001979947" lon="-4.583868971094489">
        <ele>44.840000000000003</ele>
        <time>2023-09-02T17:38:00Z</time>
      </trkpt>
      <trkpt lat="55.518260020762682" lon="-4.580542026087642">
        <ele>40.030000000000001</ele>
        <time>2023-09-02T17:38:14Z</time>
      </trkpt>
      <trkpt lat="55.516490014269948" lon="-4.57740199752152">
        <ele>38.109999999999999</ele>
        <time>2023-09-02T17:38:26Z</time>
      </trkpt>
      <trkpt lat="55.514348018914461" lon="-4.573731981217861">
        <ele>36.670000000000002</ele>
        <time>2023-09-02T17:38:39Z</time>
      </trkpt>
      <trkpt lat="55.512281963601708" lon="-4.570864029228687">
        <ele>35.229999999999997</ele>
        <time>2023-09-02T17:38:50Z</time>
      </trkpt>
      <trkpt lat="55.509795974940062" lon="-4.568332023918629">
        <ele>32.340000000000003</ele>
        <time>2023-09-02T17:39:02Z</time>
      </trkpt>
      <trkpt lat="55.507351979613304" lon="-4.566631000488997">
        <ele>31.859999999999999</ele>
        <time>2023-09-02T17:39:13Z</time>
      </trkpt>
      <trkpt lat="55.504786027595401" lon="-4.56554101780057">
        <ele>32.340000000000003</ele>
        <time>2023-09-02T17:39:24Z</time>
      </trkpt>
      <trkpt lat="55.501923020929098" lon="-4.565070038661361">
        <ele>30.899999999999999</ele>
        <time>2023-09-02T17:39:36Z</time>
      </trkpt>
      <trkpt lat="55.500196013599634" lon="-4.565211022272706">
        <ele>29.940000000000001</ele>
        <time>2023-09-02T17:39:44Z</time>
      </trkpt>
      <trkpt lat="55.498824985697865" lon="-4.565487960353494">
        <ele>29.460000000000001</ele>
        <time>2023-09-02T17:39:53Z</time>
      </trkpt>
      <trkpt lat="55.498072961345315" lon="-4.56573698669672">
        <ele>29.460000000000001</ele>
        <time>2023-09-02T17:40:00Z</time>
      </trkpt>
      <trkpt lat="55.497994003817439" lon="-4.565708991140127">
        <ele>29.940000000000001</ele>
        <time>2023-09-02T17:40:01Z</time>
      </trkpt>
      <trkpt lat="55.497920997440815" lon="-4.565682001411915">
        <ele>29.940000000000001</ele>
        <time>2023-09-02T17:40:02Z</time>
      </trkpt>
      <trkpt lat="55.497862994670868" lon="-4.565568007528782">
        <ele>29.940000000000001</ele>
        <time>2023-09-02T17:40:03Z</time>
      </trkpt>
      <trkpt lat="55.497788982465863" lon="-4.565512016415596">
        <ele>29.940000000000001</ele>
        <time>2023-09-02T17:40:04Z</time>
      </trkpt>
      <trkpt lat="55.497713964432478" lon="-4.56545602530241">
        <ele>29.940000000000001</ele>
        <time>2023-09-02T17:40:05Z</time>
      </trkpt>
      <trkpt lat="55.49760902300477" lon="-4.565570019185543">
        <ele>30.420000000000002</ele>
        <time>2023-09-02T17:40:06Z</time>
      </trkpt>
      <trkpt lat="55.497513972222805" lon="-4.565635984763503">
        <ele>30.420000000000002</ele>
        <time>2023-09-02T17:40:07Z</time>
      </trkpt>
      <trkpt lat="55.497411964461207" lon="-4.565706979483366">
        <ele>30.420000000000002</ele>
        <time>2023-09-02T17:40:08Z</time>
      </trkpt>
      <trkpt lat="55.496300021186471" lon="-4.566369988024235">
        <ele>29.940000000000001</ele>
        <time>2023-09-02T17:40:16Z</time>
      </trkpt>
      <trkpt lat="55.494377966970205" lon="-4.567319992929697">
        <ele>28.02</ele>
        <time>2023-09-02T17:40:26Z</time>
      </trkpt>
      <trkpt lat="55.492016030475497" lon="-4.56902302801609">
        <ele>27.050000000000001</ele>
        <time>2023-09-02T17:40:38Z</time>
      </trkpt>
      <trkpt lat="55.490031028166413" lon="-4.571135016158223">
        <ele>27.530000000000001</ele>
        <time>2023-09-02T17:40:48Z</time>
      </trkpt>
      <trkpt lat="55.488265966996551" lon="-4.573797024786472">
        <ele>28.98</ele>
        <time>2023-09-02T17:40:58Z</time>
      </trkpt>
      <trkpt lat="55.485713006928563" lon="-4.578264998272061">
        <ele>37.630000000000003</ele>
        <time>2023-09-02T17:41:13Z</time>
      </trkpt>
      <trkpt lat="55.484006032347679" lon="-4.580748975276947">
        <ele>40.990000000000002</ele>
        <time>2023-09-02T17:41:22Z</time>
      </trkpt>
      <trkpt lat="55.481492970138788" lon="-4.583167992532253">
        <ele>41.469999999999999</ele>
        <time>2023-09-02T17:41:34Z</time>
      </trkpt>
      <trkpt lat="55.479915998876095" lon="-4.584367023780942">
        <ele>44.359999999999999</ele>
        <time>2023-09-02T17:41:42Z</time>
      </trkpt>
      <trkpt lat="55.477475021034479" lon="-4.585919016972184">
        <ele>45.799999999999997</ele>
        <time>2023-09-02T17:41:57Z</time>
      </trkpt>
      <trkpt lat="55.476798014715314" lon="-4.586234008893371">
        <ele>46.759999999999998</ele>
        <time>2023-09-02T17:42:04Z</time>
      </trkpt>
      <trkpt lat="55.476750992238522" lon="-4.586234008893371">
        <ele>46.759999999999998</ele>
        <time>2023-09-02T17:42:05Z</time>
      </trkpt>
      <trkpt lat="55.476641021668911" lon="-4.586234008893371">
        <ele>48.200000000000003</ele>
        <time>2023-09-02T17:42:13Z</time>
      </trkpt>
      <trkpt lat="55.476558962836862" lon="-4.586234008893371">
        <ele>48.200000000000003</ele>
        <time>2023-09-02T17:42:19Z</time>
      </trkpt>
      <trkpt lat="55.476488973945379" lon="-4.586176006123424">
        <ele>48.68</ele>
        <time>2023-09-02T17:42:20Z</time>
      </trkpt>
      <trkpt lat="55.476429965347052" lon="-4.58612697198987">
        <ele>48.68</ele>
        <time>2023-09-02T17:42:21Z</time>
      </trkpt>
      <trkpt lat="55.476256040856242" lon="-4.585949024185538">
        <ele>48.200000000000003</ele>
        <time>2023-09-02T17:42:23Z</time>
      </trkpt>
      <trkpt lat="55.476151015609503" lon="-4.585909964516759">
        <ele>47.719999999999999</ele>
        <time>2023-09-02T17:42:24Z</time>
      </trkpt>
      <trkpt lat="55.476050013676286" lon="-4.585882974788547">
        <ele>47.240000000000002</ele>
        <time>2023-09-02T17:42:25Z</time>
      </trkpt>
      <trkpt lat="55.47593199647963" lon="-4.585890015587211">
        <ele>47.240000000000002</ele>
        <time>2023-09-02T17:42:26Z</time>
      </trkpt>
      <trkpt lat="55.475820014253259" lon="-4.585924968123436">
        <ele>47.240000000000002</ele>
        <time>2023-09-02T17:42:27Z</time>
      </trkpt>
      <trkpt lat="55.475698979571462" lon="-4.58595396950841">
        <ele>46.759999999999998</ele>
        <time>2023-09-02T17:42:28Z</time>
      </trkpt>
      <trkpt lat="55.474540013819933" lon="-4.585666973143816">
        <ele>45.32</ele>
        <time>2023-09-02T17:42:36Z</time>
      </trkpt>
      <trkpt lat="55.473035965114832" lon="-4.584846971556544">
        <ele>41.469999999999999</ele>
        <time>2023-09-02T17:42:44Z</time>
      </trkpt>
      <trkpt lat="55.471214996650815" lon="-4.584211958572269">
        <ele>36.189999999999998</ele>
        <time>2023-09-02T17:42:53Z</time>
      </trkpt>
      <trkpt lat="55.469310041517019" lon="-4.584180023521185">
        <ele>30.420000000000002</ele>
        <time>2023-09-02T17:43:02Z</time>
      </trkpt>
      <trkpt lat="55.467282962054014" lon="-4.584939004853368">
        <ele>25.609999999999999</ele>
        <time>2023-09-02T17:43:11Z</time>
      </trkpt>
      <trkpt lat="55.465340036898851" lon="-4.586512036621571">
        <ele>21.77</ele>
        <time>2023-09-02T17:43:20Z</time>
      </trkpt>
      <trkpt lat="55.462939962744713" lon="-4.589313017204404">
        <ele>19.84</ele>
        <time>2023-09-02T17:43:32Z</time>
      </trkpt>
      <trkpt lat="55.460646003484726" lon="-4.591574035584927">
        <ele>20.32</ele>
        <time>2023-09-02T17:43:43Z</time>
      </trkpt>
      <trkpt lat="55.458017019554973" lon="-4.593493994325399">
        <ele>21.289999999999999</ele>
        <time>2023-09-02T17:43:55Z</time>
      </trkpt>
      <trkpt lat="55.456732995808125" lon="-4.594424972310662">
        <ele>25.129999999999999</ele>
        <time>2023-09-02T17:44:02Z</time>
      </trkpt>
      <trkpt lat="55.455983988940716" lon="-4.594852030277252">
        <ele>28.5</ele>
        <time>2023-09-02T17:44:08Z</time>
      </trkpt>
      <trkpt lat="55.455906959250569" lon="-4.594872985035181">
        <ele>28.98</ele>
        <time>2023-09-02T17:44:09Z</time>
      </trkpt>
      <trkpt lat="55.45577896758914" lon="-4.594909027218819">
        <ele>29.940000000000001</ele>
        <time>2023-09-02T17:44:11Z</time>
      </trkpt>
      <trkpt lat="55.455722976475954" lon="-4.594925036653876">
        <ele>30.420000000000002</ele>
        <time>2023-09-02T17:44:12Z</time>
      </trkpt>
      <trkpt lat="55.45558400452137" lon="-4.594831997528672">
        <ele>31.379999999999999</ele>
        <time>2023-09-02T17:44:14Z</time>
      </trkpt>
      <trkpt lat="55.455508986487985" lon="-4.594816993921995">
        <ele>31.379999999999999</ele>
        <time>2023-09-02T17:44:15Z</time>
      </trkpt>
      <trkpt lat="55.455405972898006" lon="-4.594891006127">
        <ele>31.859999999999999</ele>
        <time>2023-09-02T17:44:16Z</time>
      </trkpt>
      <trkpt lat="55.455359034240246" lon="-4.594925036653876">
        <ele>31.859999999999999</ele>
        <time>2023-09-02T17:44:17Z</time>
      </trkpt>
      <trkpt lat="55.455239005386829" lon="-4.595073983073235">
        <ele>32.340000000000003</ele>
        <time>2023-09-02T17:44:18Z</time>
      </trkpt>
      <trkpt lat="55.455134985968471" lon="-4.595153024420142">
        <ele>32.340000000000003</ele>
        <time>2023-09-02T17:44:19Z</time>
      </trkpt>
      <trkpt lat="55.455020992085338" lon="-4.595241034403443">
        <ele>32.340000000000003</ele>
        <time>2023-09-02T17:44:20Z</time>
      </trkpt>
      <trkpt lat="55.454897023737431" lon="-4.595327032729983">
        <ele>32.340000000000003</ele>
        <time>2023-09-02T17:44:21Z</time>
      </trkpt>
      <trkpt lat="55.454755034297705" lon="-4.595398027449846">
        <ele>32.340000000000003</ele>
        <time>2023-09-02T17:44:22Z</time>
      </trkpt>
      <trkpt lat="55.452878996729851" lon="-4.596170000731945">
        <ele>37.630000000000003</ele>
        <time>2023-09-02T17:44:33Z</time>
      </trkpt>
      <trkpt lat="55.450554024428129" lon="-4.597078012302518">
        <ele>46.280000000000001</ele>
        <time>2023-09-02T17:44:44Z</time>
      </trkpt>
      <trkpt lat="55.447707027196884" lon="-4.598162965849042">
        <ele>48.68</ele>
        <time>2023-09-02T17:44:56Z</time>
      </trkpt>
      <trkpt lat="55.444663977250457" lon="-4.599358979612589">
        <ele>44.359999999999999</ele>
        <time>2023-09-02T17:45:09Z</time>
      </trkpt>
      <trkpt lat="55.441228989511728" lon="-4.600961012765765">
        <ele>42.439999999999998</ele>
        <time>2023-09-02T17:45:24Z</time>
      </trkpt>
      <trkpt lat="55.440317960456014" lon="-4.60161698050797">
        <ele>41.950000000000003</ele>
        <time>2023-09-02T17:45:30Z</time>
      </trkpt>
      <trkpt lat="55.440107993781567" lon="-4.60176601074636">
        <ele>41.950000000000003</ele>
        <time>2023-09-02T17:45:32Z</time>
      </trkpt>
      <trkpt lat="55.440001962706447" lon="-4.601835999637842">
        <ele>42.439999999999998</ele>
        <time>2023-09-02T17:45:33Z</time>
      </trkpt>
      <trkpt lat="55.439883023500443" lon="-4.601823007687926">
        <ele>42.439999999999998</ele>
        <time>2023-09-02T17:45:34Z</time>
      </trkpt>
      <trkpt lat="55.439759977161884" lon="-4.601779002696276">
        <ele>42.439999999999998</ele>
        <time>2023-09-02T17:45:35Z</time>
      </trkpt>
      <trkpt lat="55.439618993550539" lon="-4.601755030453205">
        <ele>42.920000000000002</ele>
        <time>2023-09-02T17:45:36Z</time>
      </trkpt>
      <trkpt lat="55.439501982182264" lon="-4.601769028231502">
        <ele>42.920000000000002</ele>
        <time>2023-09-02T17:45:37Z</time>
      </trkpt>
      <trkpt lat="55.439394023269415" lon="-4.601855026558042">
        <ele>42.439999999999998</ele>
        <time>2023-09-02T17:45:38Z</time>
      </trkpt>
      <trkpt lat="55.439333003014326" lon="-4.602018976584077">
        <ele>42.439999999999998</ele>
        <time>2023-09-02T17:45:39Z</time>
      </trkpt>
      <trkpt lat="55.439306013286114" lon="-4.602183010429144">
        <ele>42.439999999999998</ele>
        <time>2023-09-02T17:45:40Z</time>
      </trkpt>
      <trkpt lat="55.439269971102476" lon="-4.602372022345662">
        <ele>41.950000000000003</ele>
        <time>2023-09-02T17:45:41Z</time>
      </trkpt>
      <trkpt lat="55.439219009131193" lon="-4.602566985413432">
        <ele>41.950000000000003</ele>
        <time>2023-09-02T17:45:42Z</time>
      </trkpt>
      <trkpt lat="55.439163018018007" lon="-4.602780975401402">
        <ele>41.950000000000003</ele>
        <time>2023-09-02T17:45:43Z</time>
      </trkpt>
      <trkpt lat="55.439058998599648" lon="-4.602960012853146">
        <ele>41.950000000000003</ele>
        <time>2023-09-02T17:45:44Z</time>
      </trkpt>
      <trkpt lat="55.438946010544896" lon="-4.60314298979938">
        <ele>41.950000000000003</ele>
        <time>2023-09-02T17:45:45Z</time>
      </trkpt>
      <trkpt lat="55.438824975863099" lon="-4.603338036686182">
        <ele>41.469999999999999</ele>
        <time>2023-09-02T17:45:46Z</time>
      </trkpt>
      <trkpt lat="55.437412960454822" lon="-4.605562007054687">
        <ele>40.990000000000002</ele>
        <time>2023-09-02T17:45:56Z</time>
      </trkpt>
      <trkpt lat="55.435571959242225" lon="-4.608156960457563">
        <ele>38.590000000000003</ele>
        <time>2023-09-02T17:46:07Z</time>
      </trkpt>
      <trkpt lat="55.434275027364492" lon="-4.609209978953004">
        <ele>36.670000000000002</ele>
        <time>2023-09-02T17:46:13Z</time>
      </trkpt>
      <trkpt lat="55.43334798887372" lon="-4.609678024426103">
        <ele>34.740000000000002</ele>
        <time>2023-09-02T17:46:19Z</time>
      </trkpt>
      <trkpt lat="55.432159015908837" lon="-4.610258974134922">
        <ele>30.899999999999999</ele>
        <time>2023-09-02T17:46:29Z</time>
      </trkpt>
      <trkpt lat="55.431055035442114" lon="-4.611099008470774">
        <ele>29.940000000000001</ele>
        <time>2023-09-02T17:46:37Z</time>
      </trkpt>
      <trkpt lat="55.429505975916982" lon="-4.613015027716756">
        <ele>30.420000000000002</ele>
        <time>2023-09-02T17:46:48Z</time>
      </trkpt>
      <trkpt lat="55.427951971068978" lon="-4.614838007837534">
        <ele>30.899999999999999</ele>
        <time>2023-09-02T17:46:58Z</time>
      </trkpt>
      <trkpt lat="55.426675993949175" lon="-4.615681981667876">
        <ele>30.420000000000002</ele>
        <time>2023-09-02T17:47:06Z</time>
      </trkpt>
      <trkpt lat="55.424843039363623" lon="-4.616038966923952">
        <ele>29.940000000000001</ele>
        <time>2023-09-02T17:47:16Z</time>
      </trkpt>
      <trkpt lat="55.422999020665884" lon="-4.616003008559346">
        <ele>30.899999999999999</ele>
        <time>2023-09-02T17:47:25Z</time>
      </trkpt>
      <trkpt lat="55.421198001131415" lon="-4.616640033200383">
        <ele>32.340000000000003</ele>
        <time>2023-09-02T17:47:34Z</time>
      </trkpt>
      <trkpt lat="55.418756017461419" lon="-4.618326975032687">
        <ele>35.710000000000001</ele>
        <time>2023-09-02T17:47:47Z</time>
      </trkpt>
      <trkpt lat="55.417615994811058" lon="-4.619631031528115">
        <ele>37.630000000000003</ele>
        <time>2023-09-02T17:47:54Z</time>
      </trkpt>
      <trkpt lat="55.417296979576349" lon="-4.619850972667337">
        <ele>38.109999999999999</ele>
        <time>2023-09-02T17:47:56Z</time>
      </trkpt>
      <trkpt lat="55.417131017893553" lon="-4.619936970993877">
        <ele>38.109999999999999</ele>
        <time>2023-09-02T17:47:57Z</time>
      </trkpt>
      <trkpt lat="55.415576007217169" lon="-4.620688995346427">
        <ele>36.670000000000002</ele>
        <time>2023-09-02T17:48:06Z</time>
      </trkpt>
      <trkpt lat="55.414365995675325" lon="-4.621436996385455">
        <ele>36.189999999999998</ele>
        <time>2023-09-02T17:48:13Z</time>
      </trkpt>
      <trkpt lat="55.412623984739184" lon="-4.623245978727937">
        <ele>37.630000000000003</ele>
        <time>2023-09-02T17:48:24Z</time>
      </trkpt>
      <trkpt lat="55.412456011399627" lon="-4.623419987037778">
        <ele>37.630000000000003</ele>
        <time>2023-09-02T17:48:25Z</time>
      </trkpt>
      <trkpt lat="55.412289965897799" lon="-4.623592989519239">
        <ele>37.149999999999999</ele>
        <time>2023-09-02T17:48:26Z</time>
      </trkpt>
      <trkpt lat="55.411062017083168" lon="-4.624744998291135">
        <ele>36.189999999999998</ele>
        <time>2023-09-02T17:48:34Z</time>
      </trkpt>
      <trkpt lat="55.40941396728158" lon="-4.625819977372885">
        <ele>35.710000000000001</ele>
        <time>2023-09-02T17:48:44Z</time>
      </trkpt>
      <trkpt lat="55.407358976081014" lon="-4.627042980864644">
        <ele>33.299999999999997</ele>
        <time>2023-09-02T17:48:55Z</time>
      </trkpt>
      <trkpt lat="55.405908990651369" lon="-4.628529008477926">
        <ele>33.299999999999997</ele>
        <time>2023-09-02T17:49:04Z</time>
      </trkpt>
      <trkpt lat="55.404867958277464" lon="-4.630375038832426">
        <ele>32.82</ele>
        <time>2023-09-02T17:49:12Z</time>
      </trkpt>
      <trkpt lat="55.403896998614073" lon="-4.632256021723151">
        <ele>34.259999999999998</ele>
        <time>2023-09-02T17:49:19Z</time>
      </trkpt>
      <trkpt lat="55.402896031737328" lon="-4.633668037131429">
        <ele>36.189999999999998</ele>
        <time>2023-09-02T17:49:26Z</time>
      </trkpt>
      <trkpt lat="55.402145013213158" lon="-4.634306989610195">
        <ele>36.670000000000002</ele>
        <time>2023-09-02T17:49:31Z</time>
      </trkpt>
      <trkpt lat="55.40081899613142" lon="-4.634987013414502">
        <ele>37.149999999999999</ele>
        <time>2023-09-02T17:49:39Z</time>
      </trkpt>
      <trkpt lat="55.399287035688758" lon="-4.63504602201283">
        <ele>37.630000000000003</ele>
        <time>2023-09-02T17:49:47Z</time>
      </trkpt>
      <trkpt lat="55.397970993071795" lon="-4.634848963469267">
        <ele>40.509999999999998</ele>
        <time>2023-09-02T17:49:55Z</time>
      </trkpt>
      <trkpt lat="55.396742960438132" lon="-4.634956000372767">
        <ele>45.32</ele>
        <time>2023-09-02T17:50:03Z</time>
      </trkpt>
      <trkpt lat="55.395696982741356" lon="-4.635651027783752">
        <ele>45.799999999999997</ele>
        <time>2023-09-02T17:50:11Z</time>
      </trkpt>
      <trkpt lat="55.39486700668931" lon="-4.636703040450811">
        <ele>44.359999999999999</ele>
        <time>2023-09-02T17:50:20Z</time>
      </trkpt>
      <trkpt lat="55.394150018692017" lon="-4.638040959835053">
        <ele>42.920000000000002</ele>
        <time>2023-09-02T17:50:30Z</time>
      </trkpt>
      <trkpt lat="55.393617013469338" lon="-4.639737037941814">
        <ele>44.840000000000003</ele>
        <time>2023-09-02T17:50:39Z</time>
      </trkpt>
      <trkpt lat="55.39319003932178" lon="-4.641403025016189">
        <ele>46.759999999999998</ele>
        <time>2023-09-02T17:50:48Z</time>
      </trkpt>
      <trkpt lat="55.393117032945156" lon="-4.641566975042224">
        <ele>46.759999999999998</ele>
        <time>2023-09-02T17:50:49Z</time>
      </trkpt>
      <trkpt lat="55.39304100908339" lon="-4.641735032200813">
        <ele>46.759999999999998</ele>
        <time>2023-09-02T17:50:50Z</time>
      </trkpt>
      <trkpt lat="55.392957022413611" lon="-4.641919014975429">
        <ele>46.759999999999998</ele>
        <time>2023-09-02T17:50:51Z</time>
      </trkpt>
      <trkpt lat="55.392846968024969" lon="-4.642028985545039">
        <ele>46.759999999999998</ele>
        <time>2023-09-02T17:50:52Z</time>
      </trkpt>
      <trkpt lat="55.392736997455359" lon="-4.642139039933682">
        <ele>46.280000000000001</ele>
        <time>2023-09-02T17:50:53Z</time>
      </trkpt>
      <trkpt lat="55.392618980258703" lon="-4.642234006896615">
        <ele>46.280000000000001</ele>
        <time>2023-09-02T17:50:54Z</time>
      </trkpt>
      <trkpt lat="55.392498029395938" lon="-4.642310030758381">
        <ele>46.759999999999998</ele>
        <time>2023-09-02T17:50:55Z</time>
      </trkpt>
      <trkpt lat="55.392379006370902" lon="-4.642383959144354">
        <ele>46.759999999999998</ele>
        <time>2023-09-02T17:50:56Z</time>
      </trkpt>
      <trkpt lat="55.391047960147262" lon="-4.64284404180944">
        <ele>47.719999999999999</ele>
        <time>2023-09-02T17:51:07Z</time>
      </trkpt>
      <trkpt lat="55.389691013842821" lon="-4.642979996278882">
        <ele>49.649999999999999</ele>
        <time>2023-09-02T17:51:18Z</time>
      </trkpt>
      <trkpt lat="55.388345969840884" lon="-4.643140006810427">
        <ele>51.090000000000003</ele>
        <time>2023-09-02T17:51:28Z</time>
      </trkpt>
      <trkpt lat="55.38739001378417" lon="-4.643519958481193">
        <ele>51.57</ele>
        <time>2023-09-02T17:51:33Z</time>
      </trkpt>
      <trkpt lat="55.386177990585566" lon="-4.644068973138928">
        <ele>53.009999999999998</ele>
        <time>2023-09-02T17:51:40Z</time>
      </trkpt>
      <trkpt lat="55.384965967386961" lon="-4.64512400329113">
        <ele>57.82</ele>
        <time>2023-09-02T17:51:49Z</time>
      </trkpt>
      <trkpt lat="55.383906997740269" lon="-4.646973973140121">
        <ele>65.510000000000005</ele>
        <time>2023-09-02T17:51:59Z</time>
      </trkpt>
      <trkpt lat="55.383184980601072" lon="-4.64888303540647">
        <ele>70.790000000000006</ele>
        <time>2023-09-02T17:52:08Z</time>
      </trkpt>
      <trkpt lat="55.382326003164053" lon="-4.65075496584177">
        <ele>72.719999999999999</ele>
        <time>2023-09-02T17:52:18Z</time>
      </trkpt>
      <trkpt lat="55.381736000999808" lon="-4.651764985173941">
        <ele>71.760000000000005</ele>
        <time>2023-09-02T17:52:26Z</time>
      </trkpt>
      <trkpt lat="55.381684033200145" lon="-4.651833968237042">
        <ele>71.760000000000005</ele>
        <time>2023-09-02T17:52:27Z</time>
      </trkpt>
      <trkpt lat="55.381629969924688" lon="-4.651903035119176">
        <ele>71.269999999999996</ele>
        <time>2023-09-02T17:52:28Z</time>
      </trkpt>
      <trkpt lat="55.381517987698317" lon="-4.651880990713835">
        <ele>71.269999999999996</ele>
        <time>2023-09-02T17:52:29Z</time>
      </trkpt>
      <trkpt lat="55.381430983543396" lon="-4.651788035407662">
        <ele>70.790000000000006</ele>
        <time>2023-09-02T17:52:30Z</time>
      </trkpt>
      <trkpt lat="55.381339034065604" lon="-4.651800021529198">
        <ele>70.310000000000002</ele>
        <time>2023-09-02T17:52:31Z</time>
      </trkpt>
      <trkpt lat="55.381238032132387" lon="-4.651857018470764">
        <ele>69.829999999999998</ele>
        <time>2023-09-02T17:52:32Z</time>
      </trkpt>
      <trkpt lat="55.38118002936244" lon="-4.651959026232362">
        <ele>69.349999999999994</ele>
        <time>2023-09-02T17:52:33Z</time>
      </trkpt>
      <trkpt lat="55.381090007722378" lon="-4.652271000668407">
        <ele>68.870000000000005</ele>
        <time>2023-09-02T17:52:34Z</time>
      </trkpt>
      <trkpt lat="55.380974002182484" lon="-4.652321962639689">
        <ele>68.870000000000005</ele>
        <time>2023-09-02T17:52:35Z</time>
      </trkpt>
      <trkpt lat="55.380843998864293" lon="-4.652376025915146">
        <ele>68.390000000000001</ele>
        <time>2023-09-02T17:52:36Z</time>
      </trkpt>
      <trkpt lat="55.380697986111045" lon="-4.652432017028332">
        <ele>67.909999999999997</ele>
        <time>2023-09-02T17:52:37Z</time>
      </trkpt>
      <trkpt lat="55.379442041739821" lon="-4.652502005919814">
        <ele>64.549999999999997</ele>
        <time>2023-09-02T17:52:44Z</time>
      </trkpt>
      <trkpt lat="55.377257969230413" lon="-4.652469987049699">
        <ele>71.269999999999996</ele>
        <time>2023-09-02T17:52:54Z</time>
      </trkpt>
      <trkpt lat="55.375431971624494" lon="-4.653307003900409">
        <ele>80.890000000000001</ele>
        <time>2023-09-02T17:53:02Z</time>
      </trkpt>
      <trkpt lat="55.37379196844995" lon="-4.655073992908001">
        <ele>85.689999999999998</ele>
        <time>2023-09-02T17:53:10Z</time>
      </trkpt>
      <trkpt lat="55.372063033282757" lon="-4.658001959323883">
        <ele>89.060000000000002</ele>
        <time>2023-09-02T17:53:20Z</time>
      </trkpt>
      <trkpt lat="55.369653990492225" lon="-4.661436025053263">
        <ele>92.420000000000002</ele>
        <time>2023-09-02T17:53:33Z</time>
      </trkpt>
      <trkpt lat="55.367246037349105" lon="-4.664176991209388">
        <ele>98.189999999999998</ele>
        <time>2023-09-02T17:53:45Z</time>
      </trkpt>
      <trkpt lat="55.36553998477757" lon="-4.666438009589911">
        <ele>103</ele>
        <time>2023-09-02T17:53:54Z</time>
      </trkpt>
      <trkpt lat="55.364543963223696" lon="-4.668775973841548">
        <ele>107.31999999999999</ele>
        <time>2023-09-02T17:54:01Z</time>
      </trkpt>
      <trkpt lat="55.363157009705901" lon="-4.673671005293727">
        <ele>116.94</ele>
        <time>2023-09-02T17:54:14Z</time>
      </trkpt>
      <trkpt lat="55.361583977937698" lon="-4.679377991706133">
        <ele>127.98999999999999</ele>
        <time>2023-09-02T17:54:29Z</time>
      </trkpt>
      <trkpt lat="55.360655011609197" lon="-4.683686960488558">
        <ele>130.88</ele>
        <time>2023-09-02T17:54:40Z</time>
      </trkpt>
      <trkpt lat="55.360091999173164" lon="-4.688174966722727">
        <ele>136.63999999999999</ele>
        <time>2023-09-02T17:54:51Z</time>
      </trkpt>
      <trkpt lat="55.359455980360508" lon="-4.69224002212286">
        <ele>143.37</ele>
        <time>2023-09-02T17:55:01Z</time>
      </trkpt>
      <trkpt lat="55.358608989045024" lon="-4.694780996069312">
        <ele>144.81999999999999</ele>
        <time>2023-09-02T17:55:08Z</time>
      </trkpt>
      <trkpt lat="55.357414986938238" lon="-4.696827018633485">
        <ele>141.93000000000001</ele>
        <time>2023-09-02T17:55:15Z</time>
      </trkpt>
      <trkpt lat="55.35638895817101" lon="-4.697925969958305">
        <ele>138.56999999999999</ele>
        <time>2023-09-02T17:55:21Z</time>
      </trkpt>
      <trkpt lat="55.355875985696912" lon="-4.698358979076147">
        <ele>136.63999999999999</ele>
        <time>2023-09-02T17:55:26Z</time>
      </trkpt>
      <trkpt lat="55.355796022340655" lon="-4.698409019038081">
        <ele>136.63999999999999</ele>
        <time>2023-09-02T17:55:27Z</time>
      </trkpt>
      <trkpt lat="55.355666019022465" lon="-4.698156975209713">
        <ele>136.16</ele>
        <time>2023-09-02T17:55:28Z</time>
      </trkpt>
      <trkpt lat="55.355600975453854" lon="-4.698150018230081">
        <ele>136.16</ele>
        <time>2023-09-02T17:55:29Z</time>
      </trkpt>
      <trkpt lat="55.355510031804442" lon="-4.698139959946275">
        <ele>135.68000000000001</ele>
        <time>2023-09-02T17:55:30Z</time>
      </trkpt>
      <trkpt lat="55.355404000729322" lon="-4.698245991021395">
        <ele>135.68000000000001</ele>
        <time>2023-09-02T17:55:31Z</time>
      </trkpt>
      <trkpt lat="55.355366030707955" lon="-4.698308017104864">
        <ele>135.68000000000001</ele>
        <time>2023-09-02T17:55:32Z</time>
      </trkpt>
      <trkpt lat="55.355244996026158" lon="-4.698587972670794">
        <ele>135.68000000000001</ele>
        <time>2023-09-02T17:55:33Z</time>
      </trkpt>
      <trkpt lat="55.354340001940727" lon="-4.699200019240379">
        <ele>133.75999999999999</ele>
        <time>2023-09-02T17:55:39Z</time>
      </trkpt>
      <trkpt lat="55.35252096131444" lon="-4.7002989705652">
        <ele>126.06999999999999</ele>
        <time>2023-09-02T17:55:48Z</time>
      </trkpt>
      <trkpt lat="55.350588010624051" lon="-4.701159037649632">
        <ele>114.05</ele>
        <time>2023-09-02T17:55:58Z</time>
      </trkpt>
      <trkpt lat="55.350084006786346" lon="-4.701388031244278">
        <ele>111.17</ele>
        <time>2023-09-02T17:56:02Z</time>
      </trkpt>
      <trkpt lat="55.349959032610059" lon="-4.701203964650631">
        <ele>110.69</ele>
        <time>2023-09-02T17:56:03Z</time>
      </trkpt>
      <trkpt lat="55.349935982376337" lon="-4.701185021549463">
        <ele>110.20999999999999</ele>
        <time>2023-09-02T17:56:04Z</time>
      </trkpt>
      <trkpt lat="55.349859958514571" lon="-4.701121989637613">
        <ele>109.73</ele>
        <time>2023-09-02T17:56:05Z</time>
      </trkpt>
      <trkpt lat="55.349758034572005" lon="-4.701111009344459">
        <ele>109.25</ele>
        <time>2023-09-02T17:56:06Z</time>
      </trkpt>
      <trkpt lat="55.349671030417085" lon="-4.701196001842618">
        <ele>109.25</ele>
        <time>2023-09-02T17:56:07Z</time>
      </trkpt>
      <trkpt lat="55.349636999890208" lon="-4.701246963813901">
        <ele>108.77</ele>
        <time>2023-09-02T17:56:08Z</time>
      </trkpt>
      <trkpt lat="55.349615039303899" lon="-4.701396999880672">
        <ele>108.77</ele>
        <time>2023-09-02T17:56:09Z</time>
      </trkpt>
      <trkpt lat="55.349531974643469" lon="-4.701734036207199">
        <ele>108.29000000000001</ele>
        <time>2023-09-02T17:56:10Z</time>
      </trkpt>
      <trkpt lat="55.349434996023774" lon="-4.70186797901988">
        <ele>108.29000000000001</ele>
        <time>2023-09-02T17:56:11Z</time>
      </trkpt>
      <trkpt lat="55.349326031282544" lon="-4.70201600342989">
        <ele>107.81</ele>
        <time>2023-09-02T17:56:12Z</time>
      </trkpt>
      <trkpt lat="55.349204996600747" lon="-4.702180037274957">
        <ele>107.81</ele>
        <time>2023-09-02T17:56:13Z</time>
      </trkpt>
      <trkpt lat="55.348013006150723" lon="-4.703861027956009">
        <ele>104.44</ele>
        <time>2023-09-02T17:56:21Z</time>
      </trkpt>
      <trkpt lat="55.346016017720103" lon="-4.706640969961882">
        <ele>104.44</ele>
        <time>2023-09-02T17:56:32Z</time>
      </trkpt>
      <trkpt lat="55.343695990741253" lon="-4.710282990708947">
        <ele>107.31999999999999</ele>
        <time>2023-09-02T17:56:45Z</time>
      </trkpt>
      <trkpt lat="55.341933025047183" lon="-4.713731976225972">
        <ele>105.40000000000001</ele>
        <time>2023-09-02T17:56:56Z</time>
      </trkpt>
      <trkpt lat="55.339841991662979" lon="-4.718285026028752">
        <ele>111.17</ele>
        <time>2023-09-02T17:57:10Z</time>
      </trkpt>
      <trkpt lat="55.339619033038616" lon="-4.719029003754258">
        <ele>112.61</ele>
        <time>2023-09-02T17:57:12Z</time>
      </trkpt>
      <trkpt lat="55.33952297642827" lon="-4.719410967081785">
        <ele>113.09</ele>
        <time>2023-09-02T17:57:13Z</time>
      </trkpt>
      <trkpt lat="55.339110000059009" lon="-4.722241032868624">
        <ele>117.90000000000001</ele>
        <time>2023-09-02T17:57:20Z</time>
      </trkpt>
      <trkpt lat="55.339015033096075" lon="-4.727698992937803">
        <ele>127.51000000000001</ele>
        <time>2023-09-02T17:57:33Z</time>
      </trkpt>
      <trkpt lat="55.339051997289062" lon="-4.728095037862659">
        <ele>128.47</ele>
        <time>2023-09-02T17:57:34Z</time>
      </trkpt>
      <trkpt lat="55.339118968695402" lon="-4.728496028110385">
        <ele>128.94999999999999</ele>
        <time>2023-09-02T17:57:35Z</time>
      </trkpt>
      <trkpt lat="55.33945600502193" lon="-4.731390969827771">
        <ele>132.31999999999999</ele>
        <time>2023-09-02T17:57:42Z</time>
      </trkpt>
      <trkpt lat="55.339243020862341" lon="-4.735161988064647">
        <ele>135.19999999999999</ele>
        <time>2023-09-02T17:57:51Z</time>
      </trkpt>
      <trkpt lat="55.338713033124804" lon="-4.739264007657766">
        <ele>131.84</ele>
        <time>2023-09-02T17:58:01Z</time>
      </trkpt>
      <trkpt lat="55.338495019823313" lon="-4.742594975978136">
        <ele>128.94999999999999</ele>
        <time>2023-09-02T17:58:09Z</time>
      </trkpt>
      <trkpt lat="55.338152032345533" lon="-4.74543702788651">
        <ele>126.06999999999999</ele>
        <time>2023-09-02T17:58:16Z</time>
      </trkpt>
      <trkpt lat="55.337405037134886" lon="-4.74803801625967">
        <ele>122.70999999999999</ele>
        <time>2023-09-02T17:58:23Z</time>
      </trkpt>
      <trkpt lat="55.33644899725914" lon="-4.752759961411357">
        <ele>119.81999999999999</ele>
        <time>2023-09-02T17:58:35Z</time>
      </trkpt>
      <trkpt lat="55.336157977581024" lon="-4.754585037007928">
        <ele>119.81999999999999</ele>
        <time>2023-09-02T17:58:40Z</time>
      </trkpt>
      <trkpt lat="55.33591004088521" lon="-4.758117003366351">
        <ele>119.81999999999999</ele>
        <time>2023-09-02T17:58:49Z</time>
      </trkpt>
      <trkpt lat="55.335325989872217" lon="-4.761846028268337">
        <ele>117.90000000000001</ele>
        <time>2023-09-02T17:58:59Z</time>
      </trkpt>
      <trkpt lat="55.335207972675562" lon="-4.762173006311059">
        <ele>117.42</ele>
        <time>2023-09-02T17:59:00Z</time>
      </trkpt>
      <trkpt lat="55.335089033469558" lon="-4.762501996010542">
        <ele>116.94</ele>
        <time>2023-09-02T17:59:01Z</time>
      </trkpt>
      <trkpt lat="55.334950983524323" lon="-4.762811036780477">
        <ele>116.94</ele>
        <time>2023-09-02T17:59:02Z</time>
      </trkpt>
      <trkpt lat="55.334792984649539" lon="-4.763090992346406">
        <ele>116.94</ele>
        <time>2023-09-02T17:59:03Z</time>
      </trkpt>
      <trkpt lat="55.333452969789505" lon="-4.765080017969012">
        <ele>115.98</ele>
        <time>2023-09-02T17:59:11Z</time>
      </trkpt>
      <trkpt lat="55.332707986235619" lon="-4.765983000397682">
        <ele>116.45999999999999</ele>
        <time>2023-09-02T17:59:16Z</time>
      </trkpt>
      <trkpt lat="55.331825036555529" lon="-4.766746005043387">
        <ele>117.90000000000001</ele>
        <time>2023-09-02T17:59:23Z</time>
      </trkpt>
      <trkpt lat="55.331325978040695" lon="-4.767618980258703">
        <ele>118.86</ele>
        <time>2023-09-02T17:59:28Z</time>
      </trkpt>
      <trkpt lat="55.331261018291116" lon="-4.767842022702098">
        <ele>118.86</ele>
        <time>2023-09-02T17:59:29Z</time>
      </trkpt>
      <trkpt lat="55.331195974722505" lon="-4.76806397549808">
        <ele>118.86</ele>
        <time>2023-09-02T17:59:30Z</time>
      </trkpt>
      <trkpt lat="55.330847036093473" lon="-4.7701680008322">
        <ele>120.78</ele>
        <time>2023-09-02T17:59:40Z</time>
      </trkpt>
      <trkpt lat="55.33060303889215" lon="-4.772474030032754">
        <ele>120.78</ele>
        <time>2023-09-02T17:59:51Z</time>
      </trkpt>
      <trkpt lat="55.330424001440406" lon="-4.774952977895737">
        <ele>116.45999999999999</ele>
        <time>2023-09-02T18:00:02Z</time>
      </trkpt>
      <trkpt lat="55.330391982570291" lon="-4.775740038603544">
        <ele>115.01000000000001</ele>
        <time>2023-09-02T18:00:06Z</time>
      </trkpt>
      <trkpt lat="55.330369016155601" lon="-4.775936007499695">
        <ele>115.01000000000001</ele>
        <time>2023-09-02T18:00:07Z</time>
      </trkpt>
      <trkpt lat="55.330330040305853" lon="-4.776128958910704">
        <ele>114.53</ele>
        <time>2023-09-02T18:00:08Z</time>
      </trkpt>
      <trkpt lat="55.33019601367414" lon="-4.776478987187147">
        <ele>114.05</ele>
        <time>2023-09-02T18:00:10Z</time>
      </trkpt>
      <trkpt lat="55.32948799431324" lon="-4.778251005336642">
        <ele>110.20999999999999</ele>
        <time>2023-09-02T18:00:20Z</time>
      </trkpt>
      <trkpt lat="55.329354973509908" lon="-4.778626011684537">
        <ele>108.77</ele>
        <time>2023-09-02T18:00:22Z</time>
      </trkpt>
      <trkpt lat="55.328621976077557" lon="-4.780307002365589">
        <ele>104.44</ele>
        <time>2023-09-02T18:00:32Z</time>
      </trkpt>
      <trkpt lat="55.327793005853891" lon="-4.78200601413846">
        <ele>103.95999999999999</ele>
        <time>2023-09-02T18:00:40Z</time>
      </trkpt>
      <trkpt lat="55.326603027060628" lon="-4.783520959317684">
        <ele>102.04000000000001</ele>
        <time>2023-09-02T18:00:47Z</time>
      </trkpt>
      <trkpt lat="55.325008034706116" lon="-4.785186024382711">
        <ele>97.709999999999994</ele>
        <time>2023-09-02T18:00:55Z</time>
      </trkpt>
      <trkpt lat="55.323381023481488" lon="-4.787841998040676">
        <ele>92.900000000000006</ele>
        <time>2023-09-02T18:01:05Z</time>
      </trkpt>
      <trkpt lat="55.32235499471426" lon="-4.790738029405475">
        <ele>91.939999999999998</ele>
        <time>2023-09-02T18:01:14Z</time>
      </trkpt>
      <trkpt lat="55.322217028588057" lon="-4.791393997147679">
        <ele>91.939999999999998</ele>
        <time>2023-09-02T18:01:16Z</time>
      </trkpt>
      <trkpt lat="55.322189033031464" lon="-4.791743019595742">
        <ele>91.459999999999994</ele>
        <time>2023-09-02T18:01:17Z</time>
      </trkpt>
      <trkpt lat="55.322161037474871" lon="-4.792102016508579">
        <ele>91.459999999999994</ele>
        <time>2023-09-02T18:01:18Z</time>
      </trkpt>
      <trkpt lat="55.322046037763357" lon="-4.793573040515184">
        <ele>90.5</ele>
        <time>2023-09-02T18:01:22Z</time>
      </trkpt>
      <trkpt lat="55.321978982537985" lon="-4.79392901994288">
        <ele>90.5</ele>
        <time>2023-09-02T18:01:23Z</time>
      </trkpt>
      <trkpt lat="55.321364002302289" lon="-4.796389024704695">
        <ele>86.659999999999997</ele>
        <time>2023-09-02T18:01:30Z</time>
      </trkpt>
      <trkpt lat="55.321309017017484" lon="-4.796762019395828">
        <ele>85.689999999999998</ele>
        <time>2023-09-02T18:01:31Z</time>
      </trkpt>
      <trkpt lat="55.321270041167736" lon="-4.797149011865258">
        <ele>85.209999999999994</ele>
        <time>2023-09-02T18:01:32Z</time>
      </trkpt>
      <trkpt lat="55.321096032857895" lon="-4.799648998305202">
        <ele>79.450000000000003</ele>
        <time>2023-09-02T18:01:38Z</time>
      </trkpt>
      <trkpt lat="55.321069965139031" lon="-4.800074966624379">
        <ele>78.480000000000004</ele>
        <time>2023-09-02T18:01:39Z</time>
      </trkpt>
      <trkpt lat="55.320966029539704" lon="-4.801727961748838">
        <ele>74.640000000000001</ele>
        <time>2023-09-02T18:01:43Z</time>
      </trkpt>
      <trkpt lat="55.320890005677938" lon="-4.802107997238636">
        <ele>73.680000000000007</ele>
        <time>2023-09-02T18:01:44Z</time>
      </trkpt>
      <trkpt lat="55.320637039840221" lon="-4.803079040721059">
        <ele>71.269999999999996</ele>
        <time>2023-09-02T18:01:47Z</time>
      </trkpt>
      <trkpt lat="55.320536959916353" lon="-4.803329994902015">
        <ele>70.310000000000002</ele>
        <time>2023-09-02T18:01:48Z</time>
      </trkpt>
      <trkpt lat="55.32042003236711" lon="-4.803526969626546">
        <ele>69.349999999999994</ele>
        <time>2023-09-02T18:01:49Z</time>
      </trkpt>
      <trkpt lat="55.320277037099004" lon="-4.803708018735051">
        <ele>68.390000000000001</ele>
        <time>2023-09-02T18:01:50Z</time>
      </trkpt>
      <trkpt lat="55.320131024345756" lon="-4.803893007338047">
        <ele>67.909999999999997</ele>
        <time>2023-09-02T18:01:51Z</time>
      </trkpt>
      <trkpt lat="55.319986017420888" lon="-4.804077995941043">
        <ele>67.430000000000007</ele>
        <time>2023-09-02T18:01:52Z</time>
      </trkpt>
      <trkpt lat="55.319849979132414" lon="-4.804301038384438">
        <ele>66.469999999999999</ele>
        <time>2023-09-02T18:01:53Z</time>
      </trkpt>
      <trkpt lat="55.319715030491352" lon="-4.804549980908632">
        <ele>66.469999999999999</ele>
        <time>2023-09-02T18:01:54Z</time>
      </trkpt>
      <trkpt lat="55.319585027173162" lon="-4.804827002808452">
        <ele>65.989999999999995</ele>
        <time>2023-09-02T18:01:55Z</time>
      </trkpt>
      <trkpt lat="55.319458041340113" lon="-4.805123973637819">
        <ele>65.510000000000005</ele>
        <time>2023-09-02T18:01:56Z</time>
      </trkpt>
      <trkpt lat="55.318236965686083" lon="-4.807604011148214">
        <ele>64.069999999999993</ele>
        <time>2023-09-02T18:02:04Z</time>
      </trkpt>
      <trkpt lat="55.316415997222066" lon="-4.810874965041876">
        <ele>65.510000000000005</ele>
        <time>2023-09-02T18:02:15Z</time>
      </trkpt>
      <trkpt lat="55.314095970243216" lon="-4.814601978287101">
        <ele>73.680000000000007</ele>
        <time>2023-09-02T18:02:28Z</time>
      </trkpt>
      <trkpt lat="55.312329987064004" lon="-4.818077031522989">
        <ele>64.069999999999993</ele>
        <time>2023-09-02T18:02:39Z</time>
      </trkpt>
      <trkpt lat="55.310915959998965" lon="-4.821847965940833">
        <ele>49.159999999999997</ele>
        <time>2023-09-02T18:02:50Z</time>
      </trkpt>
      <trkpt lat="55.310092018917203" lon="-4.824175033718348">
        <ele>39.07</ele>
        <time>2023-09-02T18:03:00Z</time>
      </trkpt>
      <trkpt lat="55.310049019753933" lon="-4.824423976242542">
        <ele>38.109999999999999</ele>
        <time>2023-09-02T18:03:01Z</time>
      </trkpt>
      <trkpt lat="55.310022030025721" lon="-4.824681971222162">
        <ele>37.149999999999999</ele>
        <time>2023-09-02T18:03:02Z</time>
      </trkpt>
      <trkpt lat="55.309995040297508" lon="-4.824938038364053">
        <ele>36.670000000000002</ele>
        <time>2023-09-02T18:03:03Z</time>
      </trkpt>
      <trkpt lat="55.309991016983986" lon="-4.825195027515292">
        <ele>35.710000000000001</ele>
        <time>2023-09-02T18:03:04Z</time>
      </trkpt>
      <trkpt lat="55.310006020590663" lon="-4.825456039980054">
        <ele>34.740000000000002</ele>
        <time>2023-09-02T18:03:05Z</time>
      </trkpt>
      <trkpt lat="55.31002102419734" lon="-4.82570799998939">
        <ele>34.259999999999998</ele>
        <time>2023-09-02T18:03:06Z</time>
      </trkpt>
      <trkpt lat="55.310050025582314" lon="-4.825954008847475">
        <ele>33.299999999999997</ele>
        <time>2023-09-02T18:03:07Z</time>
      </trkpt>
      <trkpt lat="55.310219004750252" lon="-4.827363006770611">
        <ele>28.98</ele>
        <time>2023-09-02T18:03:13Z</time>
      </trkpt>
      <trkpt lat="55.310350013896823" lon="-4.830227019265294">
        <ele>17.440000000000001</ele>
        <time>2023-09-02T18:03:25Z</time>
      </trkpt>
      <trkpt lat="55.310081038624048" lon="-4.83212904073298">
        <ele>14.08</ele>
        <time>2023-09-02T18:03:33Z</time>
      </trkpt>
      <trkpt lat="55.310001997277141" lon="-4.832339007407427">
        <ele>13.6</ele>
        <time>2023-09-02T18:03:34Z</time>
      </trkpt>
      <trkpt lat="55.309915998950601" lon="-4.832537993788719">
        <ele>13.6</ele>
        <time>2023-09-02T18:03:35Z</time>
      </trkpt>
      <trkpt lat="55.309832012280822" lon="-4.83273396268487">
        <ele>13.6</ele>
        <time>2023-09-02T18:03:36Z</time>
      </trkpt>
      <trkpt lat="55.309731010347605" lon="-4.832901014015079">
        <ele>13.6</ele>
        <time>2023-09-02T18:03:37Z</time>
      </trkpt>
      <trkpt lat="55.309623973444104" lon="-4.833058007061482">
        <ele>13.6</ele>
        <time>2023-09-02T18:03:38Z</time>
      </trkpt>
      <trkpt lat="55.308935986831784" lon="-4.833834003657103">
        <ele>14.08</ele>
        <time>2023-09-02T18:03:44Z</time>
      </trkpt>
      <trkpt lat="55.308813024312258" lon="-4.8339360114187">
        <ele>14.56</ele>
        <time>2023-09-02T18:03:45Z</time>
      </trkpt>
      <trkpt lat="55.308682015165687" lon="-4.833990996703506">
        <ele>15.039999999999999</ele>
        <time>2023-09-02T18:03:46Z</time>
      </trkpt>
      <trkpt lat="55.308547988533974" lon="-4.834029972553253">
        <ele>15.52</ele>
        <time>2023-09-02T18:03:47Z</time>
      </trkpt>
      <trkpt lat="55.308414967730641" lon="-4.834059979766607">
        <ele>16</ele>
        <time>2023-09-02T18:03:48Z</time>
      </trkpt>
      <trkpt lat="55.308275995776057" lon="-4.834083030000329">
        <ele>16.48</ele>
        <time>2023-09-02T18:03:49Z</time>
      </trkpt>
      <trkpt lat="55.306658037006855" lon="-4.83440799638629">
        <ele>18.399999999999999</ele>
        <time>2023-09-02T18:03:59Z</time>
      </trkpt>
      <trkpt lat="55.304916026070714" lon="-4.835047032684088">
        <ele>18.879999999999999</ele>
        <time>2023-09-02T18:04:08Z</time>
      </trkpt>
      <trkpt lat="55.303020961582661" lon="-4.835508037358522">
        <ele>18.399999999999999</ele>
        <time>2023-09-02T18:04:16Z</time>
      </trkpt>
      <trkpt lat="55.301142996177077" lon="-4.834872018545866">
        <ele>18.879999999999999</ele>
        <time>2023-09-02T18:04:24Z</time>
      </trkpt>
      <trkpt lat="55.298750968649983" lon="-4.83458099886775">
        <ele>17.920000000000002</ele>
        <time>2023-09-02T18:04:34Z</time>
      </trkpt>
      <trkpt lat="55.296372016891837" lon="-4.834079006686807">
        <ele>17.920000000000002</ele>
        <time>2023-09-02T18:04:44Z</time>
      </trkpt>
      <trkpt lat="55.293302983045578" lon="-4.833193039521575">
        <ele>19.359999999999999</ele>
        <time>2023-09-02T18:04:57Z</time>
      </trkpt>
      <trkpt lat="55.290211988613009" lon="-4.832523996010423">
        <ele>21.289999999999999</ele>
        <time>2023-09-02T18:05:10Z</time>
      </trkpt>
      <trkpt lat="55.288739958778024" lon="-4.832554003223777">
        <ele>20.32</ele>
        <time>2023-09-02T18:05:17Z</time>
      </trkpt>
      <trkpt lat="55.286889988929033" lon="-4.833069993183017">
        <ele>19.359999999999999</ele>
        <time>2023-09-02T18:05:26Z</time>
      </trkpt>
      <trkpt lat="55.285695986822248" lon="-4.833308961242437">
        <ele>19.84</ele>
        <time>2023-09-02T18:05:33Z</time>
      </trkpt>
      <trkpt lat="55.283856997266412" lon="-4.833380039781332">
        <ele>17.920000000000002</ele>
        <time>2023-09-02T18:05:43Z</time>
      </trkpt>
      <trkpt lat="55.283039007335901" lon="-4.833466960117221">
        <ele>16.960000000000001</ele>
        <time>2023-09-02T18:05:47Z</time>
      </trkpt>
      <trkpt lat="55.282838009297848" lon="-4.833423960953951">
        <ele>17.440000000000001</ele>
        <time>2023-09-02T18:05:48Z</time>
      </trkpt>
      <trkpt lat="55.281476033851504" lon="-4.833017019554973">
        <ele>18.879999999999999</ele>
        <time>2023-09-02T18:05:55Z</time>
      </trkpt>
      <trkpt lat="55.281288027763367" lon="-4.833004027605057">
        <ele>19.359999999999999</ele>
        <time>2023-09-02T18:05:56Z</time>
      </trkpt>
      <trkpt lat="55.279435962438583" lon="-4.833326982334256">
        <ele>19.84</ele>
        <time>2023-09-02T18:06:05Z</time>
      </trkpt>
      <trkpt lat="55.279230019077659" lon="-4.83341901563108">
        <ele>19.84</ele>
        <time>2023-09-02T18:06:06Z</time>
      </trkpt>
      <trkpt lat="55.277321040630341" lon="-4.834915017709136">
        <ele>19.359999999999999</ele>
        <time>2023-09-02T18:06:16Z</time>
      </trkpt>
      <trkpt lat="55.274684010073543" lon="-4.836918963119388">
        <ele>18.879999999999999</ele>
        <time>2023-09-02T18:06:30Z</time>
      </trkpt>
      <trkpt lat="55.272082015872002" lon="-4.839301016181707">
        <ele>16.960000000000001</ele>
        <time>2023-09-02T18:06:44Z</time>
      </trkpt>
      <trkpt lat="55.270678969100118" lon="-4.840855021029711">
        <ele>16</ele>
        <time>2023-09-02T18:06:52Z</time>
      </trkpt>
      <trkpt lat="55.268948022276163" lon="-4.841916002333164">
        <ele>15.52</ele>
        <time>2023-09-02T18:07:01Z</time>
      </trkpt>
      <trkpt lat="55.266882972791791" lon="-4.842752013355494">
        <ele>15.52</ele>
        <time>2023-09-02T18:07:11Z</time>
      </trkpt>
      <trkpt lat="55.265469029545784" lon="-4.843849036842585">
        <ele>17.920000000000002</ele>
        <time>2023-09-02T18:07:19Z</time>
      </trkpt>
      <trkpt lat="55.26400001719594" lon="-4.84459301456809">
        <ele>20.32</ele>
        <time>2023-09-02T18:07:27Z</time>
      </trkpt>
      <trkpt lat="55.261900015175343" lon="-4.845072040334344">
        <ele>21.289999999999999</ele>
        <time>2023-09-02T18:07:37Z</time>
      </trkpt>
      <trkpt lat="55.259879976511002" lon="-4.845078997313976">
        <ele>22.25</ele>
        <time>2023-09-02T18:07:48Z</time>
      </trkpt>
      <trkpt lat="55.257966974750161" lon="-4.845371022820473">
        <ele>21.289999999999999</ele>
        <time>2023-09-02T18:07:57Z</time>
      </trkpt>
      <trkpt lat="55.25568500161171" lon="-4.845978962257505">
        <ele>19.84</ele>
        <time>2023-09-02T18:08:08Z</time>
      </trkpt>
      <trkpt lat="55.254592001438141" lon="-4.845834961161017">
        <ele>20.32</ele>
        <time>2023-09-02T18:08:15Z</time>
      </trkpt>
      <trkpt lat="55.252801962196827" lon="-4.845013031736016">
        <ele>22.73</ele>
        <time>2023-09-02T18:08:27Z</time>
      </trkpt>
      <trkpt lat="55.251000020653009" lon="-4.844347005710006">
        <ele>23.210000000000001</ele>
        <time>2023-09-02T18:08:38Z</time>
      </trkpt>
      <trkpt lat="55.249744998291135" lon="-4.844459993764758">
        <ele>22.25</ele>
        <time>2023-09-02T18:08:46Z</time>
      </trkpt>
      <trkpt lat="55.248880991712213" lon="-4.844649005681276">
        <ele>20.809999999999999</ele>
        <time>2023-09-02T18:08:54Z</time>
      </trkpt>
      <trkpt lat="55.248795999214053" lon="-4.844649005681276">
        <ele>20.809999999999999</ele>
        <time>2023-09-02T18:08:55Z</time>
      </trkpt>
      <trkpt lat="55.248705977573991" lon="-4.844649005681276">
        <ele>20.32</ele>
        <time>2023-09-02T18:08:56Z</time>
      </trkpt>
      <trkpt lat="55.248614028096199" lon="-4.844649005681276">
        <ele>20.32</ele>
        <time>2023-09-02T18:08:57Z</time>
      </trkpt>
      <trkpt lat="55.248530963435769" lon="-4.844554038718343">
        <ele>19.84</ele>
        <time>2023-09-02T18:08:58Z</time>
      </trkpt>
      <trkpt lat="55.2484430372715" lon="-4.844510033726692">
        <ele>19.84</ele>
        <time>2023-09-02T18:08:59Z</time>
      </trkpt>
      <trkpt lat="55.24835703894496" lon="-4.844467034563422">
        <ele>19.359999999999999</ele>
        <time>2023-09-02T18:09:00Z</time>
      </trkpt>
      <trkpt lat="55.248259976506233" lon="-4.844493018463254">
        <ele>19.359999999999999</ele>
        <time>2023-09-02T18:09:01Z</time>
      </trkpt>
      <trkpt lat="55.248179007321596" lon="-4.844554960727692">
        <ele>19.359999999999999</ele>
        <time>2023-09-02T18:09:02Z</time>
      </trkpt>
      <trkpt lat="55.248113963752985" lon="-4.844653028994799">
        <ele>18.879999999999999</ele>
        <time>2023-09-02T18:09:03Z</time>
      </trkpt>
      <trkpt lat="55.248060990124941" lon="-4.844785965979099">
        <ele>18.879999999999999</ele>
        <time>2023-09-02T18:09:04Z</time>
      </trkpt>
      <trkpt lat="55.248049004003406" lon="-4.844932984560728">
        <ele>18.399999999999999</ele>
        <time>2023-09-02T18:09:05Z</time>
      </trkpt>
      <trkpt lat="55.248041041195393" lon="-4.845110010355711">
        <ele>17.920000000000002</ele>
        <time>2023-09-02T18:09:06Z</time>
      </trkpt>
      <trkpt lat="55.24803701788187" lon="-4.84527999535203">
        <ele>17.920000000000002</ele>
        <time>2023-09-02T18:09:07Z</time>
      </trkpt>
      <trkpt lat="55.248047998175025" lon="-4.845465989783406">
        <ele>17.920000000000002</ele>
        <time>2023-09-02T18:09:08Z</time>
      </trkpt>
      <trkpt lat="55.248042969033122" lon="-4.845681991428137">
        <ele>17.920000000000002</ele>
        <time>2023-09-02T18:09:09Z</time>
      </trkpt>
      <trkpt lat="55.248012961819768" lon="-4.845843007788062">
        <ele>17.920000000000002</ele>
        <time>2023-09-02T18:09:10Z</time>
      </trkpt>
      <trkpt lat="55.247974991798401" lon="-4.846008969470859">
        <ele>17.920000000000002</ele>
        <time>2023-09-02T18:09:11Z</time>
      </trkpt>
      <trkpt lat="55.247437041252851" lon="-4.84777201898396">
        <ele>13.6</ele>
        <time>2023-09-02T18:09:22Z</time>
      </trkpt>
      <trkpt lat="55.247035967186093" lon="-4.849272966384888">
        <ele>10.710000000000001</ele>
        <time>2023-09-02T18:09:32Z</time>
      </trkpt>
      <trkpt lat="55.246539004147053" lon="-4.851345978677273">
        <ele>8.789999999999999</ele>
        <time>2023-09-02T18:09:46Z</time>
      </trkpt>
      <trkpt lat="55.246249996125698" lon="-4.852518020197749">
        <ele>9.75</ele>
        <time>2023-09-02T18:09:54Z</time>
      </trkpt>
      <trkpt lat="55.245783040300012" lon="-4.853537008166313">
        <ele>9.75</ele>
        <time>2023-09-02T18:10:02Z</time>
      </trkpt>
      <trkpt lat="55.245702993124723" lon="-4.853654019534588">
        <ele>9.75</ele>
        <time>2023-09-02T18:10:03Z</time>
      </trkpt>
      <trkpt lat="55.245622023940086" lon="-4.853772036731243">
        <ele>9.75</ele>
        <time>2023-09-02T18:10:04Z</time>
      </trkpt>
      <trkpt lat="55.245308959856629" lon="-4.853968005627394">
        <ele>9.27</ele>
        <time>2023-09-02T18:10:07Z</time>
      </trkpt>
      <trkpt lat="55.24520100094378" lon="-4.854032965376973">
        <ele>9.27</ele>
        <time>2023-09-02T18:10:08Z</time>
      </trkpt>
      <trkpt lat="55.245091030374169" lon="-4.854098008945584">
        <ele>9.27</ele>
        <time>2023-09-02T18:10:09Z</time>
      </trkpt>
      <trkpt lat="55.244988016784191" lon="-4.854159029200673">
        <ele>9.27</ele>
        <time>2023-09-02T18:10:10Z</time>
      </trkpt>
      <trkpt lat="55.244897995144129" lon="-4.854235975071788">
        <ele>9.27</ele>
        <time>2023-09-02T18:10:11Z</time>
      </trkpt>
      <trkpt lat="55.244830017909408" lon="-4.854366984218359">
        <ele>8.789999999999999</ele>
        <time>2023-09-02T18:10:12Z</time>
      </trkpt>
      <trkpt lat="55.244758017361164" lon="-4.85451802611351">
        <ele>8.310000000000001</ele>
        <time>2023-09-02T18:10:13Z</time>
      </trkpt>
      <trkpt lat="55.244681993499398" lon="-4.854677030816674">
        <ele>7.83</ele>
        <time>2023-09-02T18:10:14Z</time>
      </trkpt>
      <trkpt lat="55.244583003222942" lon="-4.854824971407652">
        <ele>7.35</ele>
        <time>2023-09-02T18:10:15Z</time>
      </trkpt>
      <trkpt lat="55.244493987411261" lon="-4.85492697916925">
        <ele>6.39</ele>
        <time>2023-09-02T18:10:16Z</time>
      </trkpt>
      <trkpt lat="55.244369013234973" lon="-4.855000991374254">
        <ele>5.91</ele>
        <time>2023-09-02T18:10:17Z</time>
      </trkpt>
      <trkpt lat="55.244267005473375" lon="-4.855061005800962">
        <ele>5.91</ele>
        <time>2023-09-02T18:10:18Z</time>
      </trkpt>
      <trkpt lat="55.244163991883397" lon="-4.855121020227671">
        <ele>5.42</ele>
        <time>2023-09-02T18:10:19Z</time>
      </trkpt>
      <trkpt lat="55.24339696392417" lon="-4.85557003878057">
        <ele>2.54</ele>
        <time>2023-09-02T18:10:27Z</time>
      </trkpt>
      <trkpt lat="55.243303002789617" lon="-4.85554900020361">
        <ele>2.54</ele>
        <time>2023-09-02T18:10:28Z</time>
      </trkpt>
      <trkpt lat="55.243108039721847" lon="-4.855504995211959">
        <ele>2.54</ele>
        <time>2023-09-02T18:10:30Z</time>
      </trkpt>
      <trkpt lat="55.24300703778863" lon="-4.855482028797269">
        <ele>2.54</ele>
        <time>2023-09-02T18:10:31Z</time>
      </trkpt>
      <trkpt lat="55.24195603094995" lon="-4.85529201105237">
        <ele>1.1</ele>
        <time>2023-09-02T18:10:41Z</time>
      </trkpt>
      <trkpt lat="55.240746019408107" lon="-4.855386978015304">
        <ele>-0.82</ele>
        <time>2023-09-02T18:10:53Z</time>
      </trkpt>
      <trkpt lat="55.239460989832878" lon="-4.855482028797269">
        <ele>1.58</ele>
        <time>2023-09-02T18:11:05Z</time>
      </trkpt>
      <trkpt lat="55.238467985764146" lon="-4.855623012408614">
        <ele>3.02</ele>
        <time>2023-09-02T18:11:15Z</time>
      </trkpt>
      <trkpt lat="55.237001990899444" lon="-4.855872038751841">
        <ele>5.42</ele>
        <time>2023-09-02T18:11:29Z</time>
      </trkpt>
      <trkpt lat="55.235385037958622" lon="-4.856127016246319">
        <ele>7.35</ele>
        <time>2023-09-02T18:11:44Z</time>
      </trkpt>
      <trkpt lat="55.233978973701596" lon="-4.856149982661009">
        <ele>7.35</ele>
        <time>2023-09-02T18:11:57Z</time>
      </trkpt>
      <trkpt lat="55.233774036169052" lon="-4.856209997087717">
        <ele>6.87</ele>
        <time>2023-09-02T18:11:59Z</time>
      </trkpt>
      <trkpt lat="55.233669010922313" lon="-4.856265988200903">
        <ele>6.87</ele>
        <time>2023-09-02T18:12:00Z</time>
      </trkpt>
      <trkpt lat="55.232799975201488" lon="-4.856793964281678">
        <ele>7.35</ele>
        <time>2023-09-02T18:12:09Z</time>
      </trkpt>
      <trkpt lat="55.232595037668943" lon="-4.856864959001541">
        <ele>7.35</ele>
        <time>2023-09-02T18:12:12Z</time>
      </trkpt>
      <trkpt lat="55.232509961351752" lon="-4.856848027557135">
        <ele>7.35</ele>
        <time>2023-09-02T18:12:13Z</time>
      </trkpt>
      <trkpt lat="55.231435988098383" lon="-4.856576034799218">
        <ele>8.310000000000001</ele>
        <time>2023-09-02T18:12:23Z</time>
      </trkpt>
      <trkpt lat="55.23014098405838" lon="-4.856211002916098">
        <ele>8.310000000000001</ele>
        <time>2023-09-02T18:12:35Z</time>
      </trkpt>
      <trkpt lat="55.228926027193666" lon="-4.855859968811274">
        <ele>11.19</ele>
        <time>2023-09-02T18:12:47Z</time>
      </trkpt>
      <trkpt lat="55.228859977796674" lon="-4.855794003233314">
        <ele>11.19</ele>
        <time>2023-09-02T18:12:48Z</time>
      </trkpt>
      <trkpt lat="55.228793006390333" lon="-4.855727031826973">
        <ele>11.67</ele>
        <time>2023-09-02T18:12:49Z</time>
      </trkpt>
      <trkpt lat="55.228686975315213" lon="-4.855513963848352">
        <ele>11.19</ele>
        <time>2023-09-02T18:12:51Z</time>
      </trkpt>
      <trkpt lat="55.228596031665802" lon="-4.855439029633999">
        <ele>11.19</ele>
        <time>2023-09-02T18:12:52Z</time>
      </trkpt>
      <trkpt lat="55.228465022519231" lon="-4.855484962463379">
        <ele>11.19</ele>
        <time>2023-09-02T18:12:53Z</time>
      </trkpt>
      <trkpt lat="55.228404002264142" lon="-4.855484962463379">
        <ele>11.19</ele>
        <time>2023-09-02T18:12:54Z</time>
      </trkpt>
      <trkpt lat="55.228298977017403" lon="-4.855484962463379">
        <ele>11.67</ele>
        <time>2023-09-02T18:12:55Z</time>
      </trkpt>
      <trkpt lat="55.228192023932934" lon="-4.855484962463379">
        <ele>11.67</ele>
        <time>2023-09-02T18:12:56Z</time>
      </trkpt>
      <trkpt lat="55.228079035878181" lon="-4.855441963300109">
        <ele>12.15</ele>
        <time>2023-09-02T18:12:57Z</time>
      </trkpt>
      <trkpt lat="55.22685301490128" lon="-4.854648029431701">
        <ele>15.52</ele>
        <time>2023-09-02T18:13:07Z</time>
      </trkpt>
      <trkpt lat="55.225719027221203" lon="-4.853428965434432">
        <ele>19.359999999999999</ele>
        <time>2023-09-02T18:13:15Z</time>
      </trkpt>
      <trkpt lat="55.224548997357488" lon="-4.852634025737643">
        <ele>25.609999999999999</ele>
        <time>2023-09-02T18:13:22Z</time>
      </trkpt>
      <trkpt lat="55.222353022545576" lon="-4.851379003375769">
        <ele>41.950000000000003</ele>
        <time>2023-09-02T18:13:34Z</time>
      </trkpt>
      <trkpt lat="55.221045026555657" lon="-4.850402008742094">
        <ele>47.719999999999999</ele>
        <time>2023-09-02T18:13:41Z</time>
      </trkpt>
      <trkpt lat="55.220916029065847" lon="-4.850217020139098">
        <ele>48.68</ele>
        <time>2023-09-02T18:13:42Z</time>
      </trkpt>
      <trkpt lat="55.22079398855567" lon="-4.850009987130761">
        <ele>50.130000000000003</ele>
        <time>2023-09-02T18:13:43Z</time>
      </trkpt>
      <trkpt lat="55.220697009935975" lon="-4.849751992151141">
        <ele>51.57</ele>
        <time>2023-09-02T18:13:44Z</time>
      </trkpt>
      <trkpt lat="55.2205990254879" lon="-4.849479999393225">
        <ele>53.009999999999998</ele>
        <time>2023-09-02T18:13:45Z</time>
      </trkpt>
      <trkpt lat="55.220054034143686" lon="-4.847829015925527">
        <ele>59.259999999999998</ele>
        <time>2023-09-02T18:13:51Z</time>
      </trkpt>
      <trkpt lat="55.219925958663225" lon="-4.847357030957937">
        <ele>61.18</ele>
        <time>2023-09-02T18:13:53Z</time>
      </trkpt>
      <trkpt lat="55.219859993085265" lon="-4.847114961594343">
        <ele>62.140000000000001</ele>
        <time>2023-09-02T18:13:54Z</time>
      </trkpt>
      <trkpt lat="55.219752034172416" lon="-4.846898959949613">
        <ele>63.579999999999998</ele>
        <time>2023-09-02T18:13:55Z</time>
      </trkpt>
      <trkpt lat="55.219644997268915" lon="-4.846685975790024">
        <ele>64.069999999999993</ele>
        <time>2023-09-02T18:13:56Z</time>
      </trkpt>
      <trkpt lat="55.219542989507318" lon="-4.846481960266829">
        <ele>65.030000000000001</ele>
        <time>2023-09-02T18:13:57Z</time>
      </trkpt>
      <trkpt lat="55.219425978139043" lon="-4.846317004412413">
        <ele>65.989999999999995</ele>
        <time>2023-09-02T18:13:58Z</time>
      </trkpt>
      <trkpt lat="55.2192900236696" lon="-4.846180966123939">
        <ele>66.950000000000003</ele>
        <time>2023-09-02T18:13:59Z</time>
      </trkpt>
      <trkpt lat="55.21913998760283" lon="-4.846137966960669">
        <ele>67.909999999999997</ele>
        <time>2023-09-02T18:14:00Z</time>
      </trkpt>
      <trkpt lat="55.218985006213188" lon="-4.846099996939302">
        <ele>68.870000000000005</ele>
        <time>2023-09-02T18:14:01Z</time>
      </trkpt>
      <trkpt lat="55.218817032873631" lon="-4.846059009432793">
        <ele>69.829999999999998</ele>
        <time>2023-09-02T18:14:02Z</time>
      </trkpt>
      <trkpt lat="55.218097027391195" lon="-4.845961024984717">
        <ele>73.200000000000003</ele>
        <time>2023-09-02T18:14:06Z</time>
      </trkpt>
      <trkpt lat="55.217932993546128" lon="-4.845978962257505">
        <ele>74.159999999999997</ele>
        <time>2023-09-02T18:14:07Z</time>
      </trkpt>
      <trkpt lat="55.217808019369841" lon="-4.846090022474527">
        <ele>74.640000000000001</ele>
        <time>2023-09-02T18:14:08Z</time>
      </trkpt>
      <trkpt lat="55.217671981081367" lon="-4.846214996650815">
        <ele>75.599999999999994</ele>
        <time>2023-09-02T18:14:09Z</time>
      </trkpt>
      <trkpt lat="55.217566033825278" lon="-4.84639503993094">
        <ele>76.560000000000002</ele>
        <time>2023-09-02T18:14:10Z</time>
      </trkpt>
      <trkpt lat="55.217444999143481" lon="-4.846600983291864">
        <ele>77.519999999999996</ele>
        <time>2023-09-02T18:14:11Z</time>
      </trkpt>
      <trkpt lat="55.216889027506113" lon="-4.847438000142574">
        <ele>81.370000000000005</ele>
        <time>2023-09-02T18:14:15Z</time>
      </trkpt>
      <trkpt lat="55.216728011146188" lon="-4.847560962662101">
        <ele>81.849999999999994</ele>
        <time>2023-09-02T18:14:16Z</time>
      </trkpt>
      <trkpt lat="55.216565988957882" lon="-4.847630029544234">
        <ele>82.329999999999998</ele>
        <time>2023-09-02T18:14:17Z</time>
      </trkpt>
      <trkpt lat="55.216406984254718" lon="-4.847698006778956">
        <ele>83.290000000000006</ele>
        <time>2023-09-02T18:14:18Z</time>
      </trkpt>
      <trkpt lat="55.216248985379934" lon="-4.847690965980291">
        <ele>83.769999999999996</ele>
        <time>2023-09-02T18:14:19Z</time>
      </trkpt>
      <trkpt lat="55.216091992333531" lon="-4.847654001787305">
        <ele>84.25</ele>
        <time>2023-09-02T18:14:20Z</time>
      </trkpt>
      <trkpt lat="55.21593801677227" lon="-4.847606979310513">
        <ele>84.730000000000004</ele>
        <time>2023-09-02T18:14:21Z</time>
      </trkpt>
      <trkpt lat="55.215786974877119" lon="-4.847546964883804">
        <ele>85.689999999999998</ele>
        <time>2023-09-02T18:14:22Z</time>
      </trkpt>
      <trkpt lat="55.215499978512526" lon="-4.847439005970955">
        <ele>86.659999999999997</ele>
        <time>2023-09-02T18:14:24Z</time>
      </trkpt>
      <trkpt lat="55.215366035699844" lon="-4.847399024292827">
        <ele>87.140000000000001</ele>
        <time>2023-09-02T18:14:25Z</time>
      </trkpt>
      <trkpt lat="55.215235026553273" lon="-4.847480999305844">
        <ele>87.620000000000005</ele>
        <time>2023-09-02T18:14:26Z</time>
      </trkpt>
      <trkpt lat="55.215106029063463" lon="-4.847573032602668">
        <ele>87.620000000000005</ele>
        <time>2023-09-02T18:14:27Z</time>
      </trkpt>
      <trkpt lat="55.21499203518033" lon="-4.84772901982069">
        <ele>88.099999999999994</ele>
        <time>2023-09-02T18:14:28Z</time>
      </trkpt>
      <trkpt lat="55.21488600410521" lon="-4.847932029515505">
        <ele>88.579999999999998</ele>
        <time>2023-09-02T18:14:29Z</time>
      </trkpt>
      <trkpt lat="55.214773016050458" lon="-4.848155993968248">
        <ele>89.060000000000002</ele>
        <time>2023-09-02T18:14:30Z</time>
      </trkpt>
      <trkpt lat="55.214389963075519" lon="-4.848840963095427">
        <ele>90.5</ele>
        <time>2023-09-02T18:14:33Z</time>
      </trkpt>
      <trkpt lat="55.214230958372355" lon="-4.849007008597255">
        <ele>91.459999999999994</ele>
        <time>2023-09-02T18:14:34Z</time>
      </trkpt>
      <trkpt lat="55.21368102170527" lon="-4.849438006058335">
        <ele>95.310000000000002</ele>
        <time>2023-09-02T18:14:38Z</time>
      </trkpt>
      <trkpt lat="55.213584965094924" lon="-4.84944898635149">
        <ele>96.269999999999996</ele>
        <time>2023-09-02T18:14:39Z</time>
      </trkpt>
      <trkpt lat="55.213501984253526" lon="-4.849392995238304">
        <ele>96.75</ele>
        <time>2023-09-02T18:14:40Z</time>
      </trkpt>
      <trkpt lat="55.213437024503946" lon="-4.849302973598242">
        <ele>97.709999999999994</ele>
        <time>2023-09-02T18:14:41Z</time>
      </trkpt>
      <trkpt lat="55.213370975106955" lon="-4.849157966673374">
        <ele>98.189999999999998</ele>
        <time>2023-09-02T18:14:42Z</time>
      </trkpt>
      <trkpt lat="55.213298974558711" lon="-4.849013965576887">
        <ele>98.670000000000002</ele>
        <time>2023-09-02T18:14:43Z</time>
      </trkpt>
      <trkpt lat="55.213190009817481" lon="-4.848969960585237">
        <ele>99.150000000000006</ele>
        <time>2023-09-02T18:14:44Z</time>
      </trkpt>
      <trkpt lat="55.213088002055883" lon="-4.848982030525804">
        <ele>99.629999999999995</ele>
        <time>2023-09-02T18:14:45Z</time>
      </trkpt>
      <trkpt lat="55.212965039536357" lon="-4.849013965576887">
        <ele>99.629999999999995</ele>
        <time>2023-09-02T18:14:46Z</time>
      </trkpt>
      <trkpt lat="55.212834030389786" lon="-4.849046990275383">
        <ele>100.11</ele>
        <time>2023-09-02T18:14:47Z</time>
      </trkpt>
      <trkpt lat="55.212706038728356" lon="-4.849081020802259">
        <ele>100.11</ele>
        <time>2023-09-02T18:14:48Z</time>
      </trkpt>
      <trkpt lat="55.212577963247895" lon="-4.849113961681724">
        <ele>100.59999999999999</ele>
        <time>2023-09-02T18:14:49Z</time>
      </trkpt>
      <trkpt lat="55.212450977414846" lon="-4.849117984995246">
        <ele>101.08</ele>
        <time>2023-09-02T18:14:50Z</time>
      </trkpt>
      <trkpt lat="55.212304964661598" lon="-4.849072974175215">
        <ele>101.56</ele>
        <time>2023-09-02T18:14:51Z</time>
      </trkpt>
      <trkpt lat="55.212157024070621" lon="-4.849013965576887">
        <ele>101.56</ele>
        <time>2023-09-02T18:14:52Z</time>
      </trkpt>
      <trkpt lat="55.211892994120717" lon="-4.848873987793922">
        <ele>102.52</ele>
        <time>2023-09-02T18:14:54Z</time>
      </trkpt>
      <trkpt lat="55.211803978309035" lon="-4.848774997517467">
        <ele>103</ele>
        <time>2023-09-02T18:14:55Z</time>
      </trkpt>
      <trkpt lat="55.21172602660954" lon="-4.848657986149192">
        <ele>103.48</ele>
        <time>2023-09-02T18:14:56Z</time>
      </trkpt>
      <trkpt lat="55.211687972769141" lon="-4.848508033901453">
        <ele>104.44</ele>
        <time>2023-09-02T18:14:57Z</time>
      </trkpt>
      <trkpt lat="55.211694007739425" lon="-4.848323967307806">
        <ele>104.92</ele>
        <time>2023-09-02T18:14:58Z</time>
      </trkpt>
      <trkpt lat="55.211700964719057" lon="-4.848106037825346">
        <ele>104.92</ele>
        <time>2023-09-02T18:14:59Z</time>
      </trkpt>
      <trkpt lat="55.211709011346102" lon="-4.847861034795642">
        <ele>105.40000000000001</ele>
        <time>2023-09-02T18:15:00Z</time>
      </trkpt>
      <trkpt lat="55.211716974154115" lon="-4.847607985138893">
        <ele>105.40000000000001</ele>
        <time>2023-09-02T18:15:01Z</time>
      </trkpt>
      <trkpt lat="55.211725020781159" lon="-4.847362982109189">
        <ele>105.88</ele>
        <time>2023-09-02T18:15:02Z</time>
      </trkpt>
      <trkpt lat="55.21170599386096" lon="-4.847157960757613">
        <ele>106.36</ele>
        <time>2023-09-02T18:15:03Z</time>
      </trkpt>
      <trkpt lat="55.211671041324735" lon="-4.84697800129652">
        <ele>106.36</ele>
        <time>2023-09-02T18:15:04Z</time>
      </trkpt>
      <trkpt lat="55.211607003584504" lon="-4.846859984099865">
        <ele>106.36</ele>
        <time>2023-09-02T18:15:05Z</time>
      </trkpt>
      <trkpt lat="55.211528968065977" lon="-4.846751019358635">
        <ele>106.84</ele>
        <time>2023-09-02T18:15:06Z</time>
      </trkpt>
      <trkpt lat="55.211417991667986" lon="-4.846726963296533">
        <ele>106.84</ele>
        <time>2023-09-02T18:15:07Z</time>
      </trkpt>
      <trkpt lat="55.211291005834937" lon="-4.84669997356832">
        <ele>107.31999999999999</ele>
        <time>2023-09-02T18:15:08Z</time>
      </trkpt>
      <trkpt lat="55.211155973374844" lon="-4.846708020195365">
        <ele>107.81</ele>
        <time>2023-09-02T18:15:09Z</time>
      </trkpt>
      <trkpt lat="55.211011972278357" lon="-4.846746996045113">
        <ele>108.29000000000001</ele>
        <time>2023-09-02T18:15:10Z</time>
      </trkpt>
      <trkpt lat="55.210877023637295" lon="-4.846820002421737">
        <ele>108.77</ele>
        <time>2023-09-02T18:15:11Z</time>
      </trkpt>
      <trkpt lat="55.210755988955498" lon="-4.84697800129652">
        <ele>108.77</ele>
        <time>2023-09-02T18:15:12Z</time>
      </trkpt>
      <trkpt lat="55.210627997294068" lon="-4.847144968807697">
        <ele>109.73</ele>
        <time>2023-09-02T18:15:13Z</time>
      </trkpt>
      <trkpt lat="55.210491959005594" lon="-4.847323000431061">
        <ele>110.20999999999999</ele>
        <time>2023-09-02T18:15:14Z</time>
      </trkpt>
      <trkpt lat="55.210242010653019" lon="-4.84772901982069">
        <ele>112.13</ele>
        <time>2023-09-02T18:15:16Z</time>
      </trkpt>
      <trkpt lat="55.210132962092757" lon="-4.847963964566588">
        <ele>112.61</ele>
        <time>2023-09-02T18:15:17Z</time>
      </trkpt>
      <trkpt lat="55.210031038150191" lon="-4.848226988688111">
        <ele>113.09</ele>
        <time>2023-09-02T18:15:18Z</time>
      </trkpt>
      <trkpt lat="55.209617977961898" lon="-4.849265003576875">
        <ele>116.45999999999999</ele>
        <time>2023-09-02T18:15:22Z</time>
      </trkpt>
      <trkpt lat="55.209480011835694" lon="-4.849481005221605">
        <ele>116.94</ele>
        <time>2023-09-02T18:15:23Z</time>
      </trkpt>
      <trkpt lat="55.208757994696498" lon="-4.850423969328404">
        <ele>121.26000000000001</ele>
        <time>2023-09-02T18:15:28Z</time>
      </trkpt>
      <trkpt lat="55.207440024241805" lon="-4.851443041115999">
        <ele>124.63</ele>
        <time>2023-09-02T18:15:36Z</time>
      </trkpt>
      <trkpt lat="55.20730197429657" lon="-4.851488973945379">
        <ele>124.63</ele>
        <time>2023-09-02T18:15:37Z</time>
      </trkpt>
      <trkpt lat="55.207184040918946" lon="-4.851496014744043">
        <ele>125.11</ele>
        <time>2023-09-02T18:15:38Z</time>
      </trkpt>
      <trkpt lat="55.207046996802092" lon="-4.851428037509322">
        <ele>125.11</ele>
        <time>2023-09-02T18:15:39Z</time>
      </trkpt>
      <trkpt lat="55.206916993483901" lon="-4.851311026141048">
        <ele>125.59</ele>
        <time>2023-09-02T18:15:40Z</time>
      </trkpt>
      <trkpt lat="55.20678598433733" lon="-4.851171970367432">
        <ele>125.59</ele>
        <time>2023-09-02T18:15:41Z</time>
      </trkpt>
      <trkpt lat="55.206675007939339" lon="-4.85103802755475">
        <ele>126.06999999999999</ele>
        <time>2023-09-02T18:15:42Z</time>
      </trkpt>
      <trkpt lat="55.206593032926321" lon="-4.850830994546413">
        <ele>126.55</ele>
        <time>2023-09-02T18:15:43Z</time>
      </trkpt>
      <trkpt lat="55.206508040428162" lon="-4.850615998730063">
        <ele>126.55</ele>
        <time>2023-09-02T18:15:44Z</time>
      </trkpt>
      <trkpt lat="55.20642296411097" lon="-4.850399997085333">
        <ele>127.03</ele>
        <time>2023-09-02T18:15:45Z</time>
      </trkpt>
      <trkpt lat="55.206257002428174" lon="-4.849996995180845">
        <ele>127.51000000000001</ele>
        <time>2023-09-02T18:15:47Z</time>
      </trkpt>
      <trkpt lat="55.206153988838196" lon="-4.849816029891372">
        <ele>127.98999999999999</ele>
        <time>2023-09-02T18:15:48Z</time>
      </trkpt>
      <trkpt lat="55.205462984740734" lon="-4.848592020571232">
        <ele>127.98999999999999</ele>
        <time>2023-09-02T18:15:54Z</time>
      </trkpt>
      <trkpt lat="55.205373968929052" lon="-4.848336959257722">
        <ele>127.51000000000001</ele>
        <time>2023-09-02T18:15:55Z</time>
      </trkpt>
      <trkpt lat="55.204756977036595" lon="-4.846336031332612">
        <ele>124.63</ele>
        <time>2023-09-02T18:16:02Z</time>
      </trkpt>
      <trkpt lat="55.204709032550454" lon="-4.846067978069186">
        <ele>124.15000000000001</ele>
        <time>2023-09-02T18:16:03Z</time>
      </trkpt>
      <trkpt lat="55.204692017287016" lon="-4.84579699113965">
        <ele>124.15000000000001</ele>
        <time>2023-09-02T18:16:04Z</time>
      </trkpt>
      <trkpt lat="55.204696040600538" lon="-4.845512006431818">
        <ele>124.15000000000001</ele>
        <time>2023-09-02T18:16:05Z</time>
      </trkpt>
      <trkpt lat="55.204700985923409" lon="-4.845203971490264">
        <ele>124.15000000000001</ele>
        <time>2023-09-02T18:16:06Z</time>
      </trkpt>
      <trkpt lat="55.204711966216564" lon="-4.844122035428882">
        <ele>125.59</ele>
        <time>2023-09-02T18:16:10Z</time>
      </trkpt>
      <trkpt lat="55.204661004245281" lon="-4.843995971605182">
        <ele>126.06999999999999</ele>
        <time>2023-09-02T18:16:11Z</time>
      </trkpt>
      <trkpt lat="55.204595038667321" lon="-4.843875020742416">
        <ele>126.55</ele>
        <time>2023-09-02T18:16:12Z</time>
      </trkpt>
      <trkpt lat="55.204522032290697" lon="-4.843794973567128">
        <ele>126.55</ele>
        <time>2023-09-02T18:16:13Z</time>
      </trkpt>
      <trkpt lat="55.204408960416913" lon="-4.843747029080987">
        <ele>127.03</ele>
        <time>2023-09-02T18:16:14Z</time>
      </trkpt>
      <trkpt lat="55.204279962927103" lon="-4.84369195997715">
        <ele>127.03</ele>
        <time>2023-09-02T18:16:15Z</time>
      </trkpt>
      <trkpt lat="55.203851982951164" lon="-4.843571009114385">
        <ele>128.47</ele>
        <time>2023-09-02T18:16:18Z</time>
      </trkpt>
      <trkpt lat="55.203702030703425" lon="-4.843593975529075">
        <ele>128.94999999999999</ele>
        <time>2023-09-02T18:16:19Z</time>
      </trkpt>
      <trkpt lat="55.203396007418633" lon="-4.843639992177486">
        <ele>129.91999999999999</ele>
        <time>2023-09-02T18:16:21Z</time>
      </trkpt>
      <trkpt lat="55.203242031857371" lon="-4.843656001612544">
        <ele>130.40000000000001</ele>
        <time>2023-09-02T18:16:22Z</time>
      </trkpt>
      <trkpt lat="55.203094007447362" lon="-4.84358299523592">
        <ele>130.88</ele>
        <time>2023-09-02T18:16:23Z</time>
      </trkpt>
      <trkpt lat="55.202964004129171" lon="-4.843463972210884">
        <ele>131.36000000000001</ele>
        <time>2023-09-02T18:16:24Z</time>
      </trkpt>
      <trkpt lat="55.202854033559561" lon="-4.843329023569822">
        <ele>132.31999999999999</ele>
        <time>2023-09-02T18:16:25Z</time>
      </trkpt>
      <trkpt lat="55.20278898999095" lon="-4.843126013875008">
        <ele>132.80000000000001</ele>
        <time>2023-09-02T18:16:26Z</time>
      </trkpt>
      <trkpt lat="55.202721012756228" lon="-4.842891991138458">
        <ele>133.75999999999999</ele>
        <time>2023-09-02T18:16:27Z</time>
      </trkpt>
      <trkpt lat="55.202645994722843" lon="-4.842635001987219">
        <ele>134.24000000000001</ele>
        <time>2023-09-02T18:16:28Z</time>
      </trkpt>
      <trkpt lat="55.2019730117172" lon="-4.840426035225391">
        <ele>139.05000000000001</ele>
        <time>2023-09-02T18:16:35Z</time>
      </trkpt>
      <trkpt lat="55.201167007908225" lon="-4.837476024404168">
        <ele>146.25999999999999</ele>
        <time>2023-09-02T18:16:44Z</time>
      </trkpt>
      <trkpt lat="55.200990987941623" lon="-4.836376989260316">
        <ele>150.09999999999999</ele>
        <time>2023-09-02T18:16:48Z</time>
      </trkpt>
      <trkpt lat="55.200975984334946" lon="-4.836104996502399">
        <ele>150.58000000000001</ele>
        <time>2023-09-02T18:16:49Z</time>
      </trkpt>
      <trkpt lat="55.200957041233778" lon="-4.835379961878061">
        <ele>152.03</ele>
        <time>2023-09-02T18:16:52Z</time>
      </trkpt>
      <trkpt lat="55.200908007100224" lon="-4.835183992981911">
        <ele>152.03</ele>
        <time>2023-09-02T18:16:53Z</time>
      </trkpt>
      <trkpt lat="55.200848998501897" lon="-4.834949970245361">
        <ele>152.50999999999999</ele>
        <time>2023-09-02T18:16:54Z</time>
      </trkpt>
      <trkpt lat="55.200763000175357" lon="-4.834826001897454">
        <ele>152.50999999999999</ele>
        <time>2023-09-02T18:16:55Z</time>
      </trkpt>
      <trkpt lat="55.200655963271856" lon="-4.834671020507813">
        <ele>152.50999999999999</ele>
        <time>2023-09-02T18:16:56Z</time>
      </trkpt>
      <trkpt lat="55.200526965782046" lon="-4.834546968340874">
        <ele>152.50999999999999</ele>
        <time>2023-09-02T18:16:57Z</time>
      </trkpt>
      <trkpt lat="55.199807966127992" lon="-4.833959983661771">
        <ele>153.94999999999999</ele>
        <time>2023-09-02T18:17:02Z</time>
      </trkpt>
      <trkpt lat="55.199640998616815" lon="-4.833910027518868">
        <ele>154.43000000000001</ele>
        <time>2023-09-02T18:17:03Z</time>
      </trkpt>
      <trkpt lat="55.198584962636232" lon="-4.833683967590332">
        <ele>156.83000000000001</ele>
        <time>2023-09-02T18:17:10Z</time>
      </trkpt>
      <trkpt lat="55.198448002338409" lon="-4.833595035597682">
        <ele>156.83000000000001</ele>
        <time>2023-09-02T18:17:11Z</time>
      </trkpt>
      <trkpt lat="55.198314981535077" lon="-4.833449022844434">
        <ele>156.34999999999999</ele>
        <time>2023-09-02T18:17:12Z</time>
      </trkpt>
      <trkpt lat="55.198173997923732" lon="-4.833294963464141">
        <ele>156.34999999999999</ele>
        <time>2023-09-02T18:17:13Z</time>
      </trkpt>
      <trkpt lat="55.198037959635258" lon="-4.833148028701544">
        <ele>155.87</ele>
        <time>2023-09-02T18:17:14Z</time>
      </trkpt>
      <trkpt lat="55.197928994894028" lon="-4.832950970157981">
        <ele>155.38999999999999</ele>
        <time>2023-09-02T18:17:15Z</time>
      </trkpt>
      <trkpt lat="55.197828998789191" lon="-4.832770004868507">
        <ele>154.43000000000001</ele>
        <time>2023-09-02T18:17:16Z</time>
      </trkpt>
      <trkpt lat="55.197733025997877" lon="-4.832598008215427">
        <ele>153.47</ele>
        <time>2023-09-02T18:17:17Z</time>
      </trkpt>
      <trkpt lat="55.197637975215912" lon="-4.832428023219109">
        <ele>152.50999999999999</ele>
        <time>2023-09-02T18:17:18Z</time>
      </trkpt>
      <trkpt lat="55.197540996596217" lon="-4.832253009080887">
        <ele>151.06</ele>
        <time>2023-09-02T18:17:19Z</time>
      </trkpt>
      <trkpt lat="55.197502020746469" lon="-4.832182014361024">
        <ele>150.09999999999999</ele>
        <time>2023-09-02T18:17:20Z</time>
      </trkpt>
      <trkpt lat="55.197329018265009" lon="-4.83206701464951">
        <ele>149.13999999999999</ele>
        <time>2023-09-02T18:17:21Z</time>
      </trkpt>
      <trkpt lat="55.197198009118438" lon="-4.831979004666209">
        <ele>148.18000000000001</ele>
        <time>2023-09-02T18:17:22Z</time>
      </trkpt>
      <trkpt lat="55.197064988315105" lon="-4.831890994682908">
        <ele>147.22</ele>
        <time>2023-09-02T18:17:23Z</time>
      </trkpt>
      <trkpt lat="55.196940014138818" lon="-4.831807008013129">
        <ele>146.25999999999999</ele>
        <time>2023-09-02T18:17:24Z</time>
      </trkpt>
      <trkpt lat="55.19681797362864" lon="-4.831695025786758">
        <ele>144.81999999999999</ele>
        <time>2023-09-02T18:17:25Z</time>
      </trkpt>
      <trkpt lat="55.196727029979229" lon="-4.831566028296948">
        <ele>143.84999999999999</ele>
        <time>2023-09-02T18:17:26Z</time>
      </trkpt>
      <trkpt lat="55.196650000289083" lon="-4.831369975581765">
        <ele>142.88999999999999</ele>
        <time>2023-09-02T18:17:27Z</time>
      </trkpt>
      <trkpt lat="55.196590991690755" lon="-4.831196973100305">
        <ele>141.44999999999999</ele>
        <time>2023-09-02T18:17:28Z</time>
      </trkpt>
      <trkpt lat="55.196529971435666" lon="-4.831018019467592">
        <ele>140.49000000000001</ele>
        <time>2023-09-02T18:17:29Z</time>
      </trkpt>
      <trkpt lat="55.196188995614648" lon="-4.830021997913718">
        <ele>134.72</ele>
        <time>2023-09-02T18:17:34Z</time>
      </trkpt>
      <trkpt lat="55.19612998701632" lon="-4.829781018197537">
        <ele>133.75999999999999</ele>
        <time>2023-09-02T18:17:35Z</time>
      </trkpt>
      <trkpt lat="55.196092016994953" lon="-4.82953098602593">
        <ele>132.31999999999999</ele>
        <time>2023-09-02T18:17:36Z</time>
      </trkpt>
      <trkpt lat="55.195674011483788" lon="-4.826626991853118">
        <ele>124.63</ele>
        <time>2023-09-02T18:17:45Z</time>
      </trkpt>
      <trkpt lat="55.1955939643085" lon="-4.826061967760325">
        <ele>123.19</ele>
        <time>2023-09-02T18:17:47Z</time>
      </trkpt>
      <trkpt lat="55.19552799873054" lon="-4.825806990265846">
        <ele>122.70999999999999</ele>
        <time>2023-09-02T18:17:48Z</time>
      </trkpt>
      <trkpt lat="55.195432025939226" lon="-4.825611021369696">
        <ele>122.70999999999999</ele>
        <time>2023-09-02T18:17:49Z</time>
      </trkpt>
      <trkpt lat="55.19514100626111" lon="-4.825014984235168">
        <ele>120.78</ele>
        <time>2023-09-02T18:17:52Z</time>
      </trkpt>
      <trkpt lat="55.195069005712867" lon="-4.824755983427167">
        <ele>120.3</ele>
        <time>2023-09-02T18:17:53Z</time>
      </trkpt>
      <trkpt lat="55.19494897685945" lon="-4.824320962652564">
        <ele>119.34</ele>
        <time>2023-09-02T18:17:55Z</time>
      </trkpt>
      <trkpt lat="55.194855015724897" lon="-4.824150977656245">
        <ele>118.86</ele>
        <time>2023-09-02T18:17:56Z</time>
      </trkpt>
      <trkpt lat="55.19475401379168" lon="-4.824019968509674">
        <ele>118.38</ele>
        <time>2023-09-02T18:17:57Z</time>
      </trkpt>
      <trkpt lat="55.194094022735953" lon="-4.823446981608868">
        <ele>118.38</ele>
        <time>2023-09-02T18:18:02Z</time>
      </trkpt>
      <trkpt lat="55.193949015811086" lon="-4.823414962738752">
        <ele>118.38</ele>
        <time>2023-09-02T18:18:03Z</time>
      </trkpt>
      <trkpt lat="55.193818006664515" lon="-4.8234280385077">
        <ele>118.38</ele>
        <time>2023-09-02T18:18:04Z</time>
      </trkpt>
      <trkpt lat="55.193693032488227" lon="-4.823508001863957">
        <ele>118.86</ele>
        <time>2023-09-02T18:18:05Z</time>
      </trkpt>
      <trkpt lat="55.193555988371372" lon="-4.823594000190496">
        <ele>118.86</ele>
        <time>2023-09-02T18:18:06Z</time>
      </trkpt>
      <trkpt lat="55.193411987274885" lon="-4.823668012395501">
        <ele>118.38</ele>
        <time>2023-09-02T18:18:07Z</time>
      </trkpt>
      <trkpt lat="55.193254994228482" lon="-4.823690978810191">
        <ele>118.38</ele>
        <time>2023-09-02T18:18:08Z</time>
      </trkpt>
      <trkpt lat="55.193087020888925" lon="-4.823715034872294">
        <ele>118.86</ele>
        <time>2023-09-02T18:18:09Z</time>
      </trkpt>
      <trkpt lat="55.192921981215477" lon="-4.823763985186815">
        <ele>118.86</ele>
        <time>2023-09-02T18:18:10Z</time>
      </trkpt>
      <trkpt lat="55.192780997604132" lon="-4.823834979906678">
        <ele>118.86</ele>
        <time>2023-09-02T18:18:11Z</time>
      </trkpt>
      <trkpt lat="55.192661974579096" lon="-4.824028015136719">
        <ele>118.38</ele>
        <time>2023-09-02T18:18:12Z</time>
      </trkpt>
      <trkpt lat="55.192554015666246" lon="-4.824203029274941">
        <ele>118.86</ele>
        <time>2023-09-02T18:18:13Z</time>
      </trkpt>
      <trkpt lat="55.192435998469591" lon="-4.824392963200808">
        <ele>119.34</ele>
        <time>2023-09-02T18:18:14Z</time>
      </trkpt>
      <trkpt lat="55.192184038460255" lon="-4.824800994247198">
        <ele>120.78</ele>
        <time>2023-09-02T18:18:16Z</time>
      </trkpt>
      <trkpt lat="55.19206702709198" lon="-4.824991011992097">
        <ele>121.26000000000001</ele>
        <time>2023-09-02T18:18:17Z</time>
      </trkpt>
      <trkpt lat="55.191929982975125" lon="-4.825109029188752">
        <ele>121.73999999999999</ele>
        <time>2023-09-02T18:18:18Z</time>
      </trkpt>
      <trkpt lat="55.191800985485315" lon="-4.825208019465208">
        <ele>122.70999999999999</ele>
        <time>2023-09-02T18:18:19Z</time>
      </trkpt>
      <trkpt lat="55.191661007702351" lon="-4.82519100420177">
        <ele>122.70999999999999</ele>
        <time>2023-09-02T18:18:20Z</time>
      </trkpt>
      <trkpt lat="55.191521029919386" lon="-4.825141970068216">
        <ele>123.19</ele>
        <time>2023-09-02T18:18:21Z</time>
      </trkpt>
      <trkpt lat="55.191374011337757" lon="-4.825090002268553">
        <ele>123.19</ele>
        <time>2023-09-02T18:18:22Z</time>
      </trkpt>
      <trkpt lat="55.191090032458305" lon="-4.824991011992097">
        <ele>123.67</ele>
        <time>2023-09-02T18:18:24Z</time>
      </trkpt>
      <trkpt lat="55.190957011654973" lon="-4.824944995343685">
        <ele>123.67</ele>
        <time>2023-09-02T18:18:25Z</time>
      </trkpt>
      <trkpt lat="55.190819967538118" lon="-4.824956981465221">
        <ele>123.67</ele>
        <time>2023-09-02T18:18:26Z</time>
      </trkpt>
      <trkpt lat="55.190674038603902" lon="-4.825000986456871">
        <ele>124.15000000000001</ele>
        <time>2023-09-02T18:18:27Z</time>
      </trkpt>
      <trkpt lat="55.190532971173525" lon="-4.82504197396338">
        <ele>124.15000000000001</ele>
        <time>2023-09-02T18:18:28Z</time>
      </trkpt>
      <trkpt lat="55.190397016704082" lon="-4.825082961469889">
        <ele>124.15000000000001</ele>
        <time>2023-09-02T18:18:29Z</time>
      </trkpt>
      <trkpt lat="55.190142039209604" lon="-4.825158985331655">
        <ele>123.67</ele>
        <time>2023-09-02T18:18:31Z</time>
      </trkpt>
      <trkpt lat="55.190018992871046" lon="-4.825145993381739">
        <ele>123.19</ele>
        <time>2023-09-02T18:18:32Z</time>
      </trkpt>
      <trkpt lat="55.188963962718844" lon="-4.824799988418818">
        <ele>117.90000000000001</ele>
        <time>2023-09-02T18:18:40Z</time>
      </trkpt>
      <trkpt lat="55.18884502351284" lon="-4.824705021455884">
        <ele>116.94</ele>
        <time>2023-09-02T18:18:41Z</time>
      </trkpt>
      <trkpt lat="55.188731029629707" lon="-4.824592033401132">
        <ele>115.98</ele>
        <time>2023-09-02T18:18:42Z</time>
      </trkpt>
      <trkpt lat="55.188620975241065" lon="-4.824480973184109">
        <ele>115.5</ele>
        <time>2023-09-02T18:18:43Z</time>
      </trkpt>
      <trkpt lat="55.188497006893158" lon="-4.824432022869587">
        <ele>114.53</ele>
        <time>2023-09-02T18:18:44Z</time>
      </trkpt>
      <trkpt lat="55.188339008018374" lon="-4.824392963200808">
        <ele>114.05</ele>
        <time>2023-09-02T18:18:45Z</time>
      </trkpt>
      <trkpt lat="55.188218979164958" lon="-4.824408972635865">
        <ele>113.56999999999999</ele>
        <time>2023-09-02T18:18:46Z</time>
      </trkpt>
      <trkpt lat="55.188061986118555" lon="-4.824430011212826">
        <ele>112.61</ele>
        <time>2023-09-02T18:18:47Z</time>
      </trkpt>
      <trkpt lat="55.186619041487575" lon="-4.824623968452215">
        <ele>107.31999999999999</ele>
        <time>2023-09-02T18:18:55Z</time>
      </trkpt>
      <trkpt lat="55.185281038284302" lon="-4.82506301254034">
        <ele>105.88</ele>
        <time>2023-09-02T18:19:03Z</time>
      </trkpt>
      <trkpt lat="55.184616018086672" lon="-4.825294017791748">
        <ele>106.84</ele>
        <time>2023-09-02T18:19:08Z</time>
      </trkpt>
      <trkpt lat="55.184525996446609" lon="-4.82525403611362">
        <ele>106.36</ele>
        <time>2023-09-02T18:19:09Z</time>
      </trkpt>
      <trkpt lat="55.184437986463308" lon="-4.825200978666544">
        <ele>106.36</ele>
        <time>2023-09-02T18:19:10Z</time>
      </trkpt>
      <trkpt lat="55.184343019500375" lon="-4.825129983946681">
        <ele>106.36</ele>
        <time>2023-09-02T18:19:11Z</time>
      </trkpt>
      <trkpt lat="55.184231037274003" lon="-4.825078016147018">
        <ele>105.88</ele>
        <time>2023-09-02T18:19:12Z</time>
      </trkpt>
      <trkpt lat="55.184110002592206" lon="-4.825039962306619">
        <ele>105.40000000000001</ele>
        <time>2023-09-02T18:19:13Z</time>
      </trkpt>
      <trkpt lat="55.183979999274015" lon="-4.82499897480011">
        <ele>104.92</ele>
        <time>2023-09-02T18:19:14Z</time>
      </trkpt>
      <trkpt lat="55.183843038976192" lon="-4.825005009770393">
        <ele>103.95999999999999</ele>
        <time>2023-09-02T18:19:15Z</time>
      </trkpt>
      <trkpt lat="55.183713035658002" lon="-4.825035016983748">
        <ele>103.48</ele>
        <time>2023-09-02T18:19:16Z</time>
      </trkpt>
      <trkpt lat="55.183589989319444" lon="-4.825107017531991">
        <ele>103</ele>
        <time>2023-09-02T18:19:17Z</time>
      </trkpt>
      <trkpt lat="55.183457974344492" lon="-4.825183041393757">
        <ele>102.52</ele>
        <time>2023-09-02T18:19:18Z</time>
      </trkpt>
      <trkpt lat="55.18332302570343" lon="-4.825261998921633">
        <ele>102.04000000000001</ele>
        <time>2023-09-02T18:19:19Z</time>
      </trkpt>
      <trkpt lat="55.183081962168217" lon="-4.825400970876217">
        <ele>101.08</ele>
        <time>2023-09-02T18:19:21Z</time>
      </trkpt>
      <trkpt lat="55.18291499465704" lon="-4.825388984754682">
        <ele>100.11</ele>
        <time>2023-09-02T18:19:22Z</time>
      </trkpt>
      <trkpt lat="55.182783985510468" lon="-4.825378004461527">
        <ele>98.670000000000002</ele>
        <time>2023-09-02T18:19:23Z</time>
      </trkpt>
      <trkpt lat="55.182662028819323" lon="-4.825369035825133">
        <ele>97.709999999999994</ele>
        <time>2023-09-02T18:19:24Z</time>
      </trkpt>
      <trkpt lat="55.18255197443068" lon="-4.825360989198089">
        <ele>96.75</ele>
        <time>2023-09-02T18:19:25Z</time>
      </trkpt>
      <trkpt lat="55.182446027174592" lon="-4.8254070058465">
        <ele>95.790000000000006</ele>
        <time>2023-09-02T18:19:26Z</time>
      </trkpt>
      <trkpt lat="55.182342007756233" lon="-4.825482023879886">
        <ele>94.829999999999998</ele>
        <time>2023-09-02T18:19:27Z</time>
      </trkpt>
      <trkpt lat="55.182258021086454" lon="-4.825614038854837">
        <ele>93.870000000000005</ele>
        <time>2023-09-02T18:19:28Z</time>
      </trkpt>
      <trkpt lat="55.182178979739547" lon="-4.825761979445815">
        <ele>92.900000000000006</ele>
        <time>2023-09-02T18:19:29Z</time>
      </trkpt>
      <trkpt lat="55.182114019989967" lon="-4.825931964442134">
        <ele>91.939999999999998</ele>
        <time>2023-09-02T18:19:30Z</time>
      </trkpt>
      <trkpt lat="55.18207898363471" lon="-4.826116031035781">
        <ele>90.980000000000004</ele>
        <time>2023-09-02T18:19:31Z</time>
      </trkpt>
      <trkpt lat="55.18205501139164" lon="-4.826324991881847">
        <ele>90.019999999999996</ele>
        <time>2023-09-02T18:19:32Z</time>
      </trkpt>
      <trkpt lat="55.182031039148569" lon="-4.826526995748282">
        <ele>89.060000000000002</ele>
        <time>2023-09-02T18:19:33Z</time>
      </trkpt>
      <trkpt lat="55.182008994743228" lon="-4.826709972694516">
        <ele>88.099999999999994</ele>
        <time>2023-09-02T18:19:34Z</time>
      </trkpt>
      <trkpt lat="55.182002959772944" lon="-4.826947012916207">
        <ele>87.140000000000001</ele>
        <time>2023-09-02T18:19:35Z</time>
      </trkpt>
      <trkpt lat="55.181959960609674" lon="-4.827516982331872">
        <ele>84.730000000000004</ele>
        <time>2023-09-02T18:19:38Z</time>
      </trkpt>
      <trkpt lat="55.181907992810011" lon="-4.827622007578611">
        <ele>84.25</ele>
        <time>2023-09-02T18:19:39Z</time>
      </trkpt>
      <trkpt lat="55.18181998282671" lon="-4.827667018398643">
        <ele>83.290000000000006</ele>
        <time>2023-09-02T18:19:40Z</time>
      </trkpt>
      <trkpt lat="55.181738007813692" lon="-4.827654026448727">
        <ele>82.329999999999998</ele>
        <time>2023-09-02T18:19:41Z</time>
      </trkpt>
      <trkpt lat="55.181632982566953" lon="-4.827638017013669">
        <ele>81.370000000000005</ele>
        <time>2023-09-02T18:19:42Z</time>
      </trkpt>
      <trkpt lat="55.181517982855439" lon="-4.827584959566593">
        <ele>80.409999999999997</ele>
        <time>2023-09-02T18:19:43Z</time>
      </trkpt>
      <trkpt lat="55.181273985654116" lon="-4.827442970126867">
        <ele>78.969999999999999</ele>
        <time>2023-09-02T18:19:45Z</time>
      </trkpt>
      <trkpt lat="55.18115496262908" lon="-4.827336017042399">
        <ele>78.480000000000004</ele>
        <time>2023-09-02T18:19:46Z</time>
      </trkpt>
      <trkpt lat="55.181043986231089" lon="-4.827161002904177">
        <ele>77.519999999999996</ele>
        <time>2023-09-02T18:19:47Z</time>
      </trkpt>
      <trkpt lat="55.180995035916567" lon="-4.827001998201013">
        <ele>76.560000000000002</ele>
        <time>2023-09-02T18:19:48Z</time>
      </trkpt>
      <trkpt lat="55.180935021489859" lon="-4.826808040961623">
        <ele>76.079999999999998</ele>
        <time>2023-09-02T18:19:49Z</time>
      </trkpt>
      <trkpt lat="55.180871989578009" lon="-4.826602013781667">
        <ele>75.120000000000005</ele>
        <time>2023-09-02T18:19:50Z</time>
      </trkpt>
      <trkpt lat="55.180802000686526" lon="-4.826392969116569">
        <ele>74.159999999999997</ele>
        <time>2023-09-02T18:19:51Z</time>
      </trkpt>
      <trkpt lat="55.180723965167999" lon="-4.826205968856812">
        <ele>73.200000000000003</ele>
        <time>2023-09-02T18:19:52Z</time>
      </trkpt>
      <trkpt lat="55.17984302714467" lon="-4.824688006192446">
        <ele>66.469999999999999</ele>
        <time>2023-09-02T18:20:00Z</time>
      </trkpt>
      <trkpt lat="55.179647980257869" lon="-4.824351975694299">
        <ele>65.030000000000001</ele>
        <time>2023-09-02T18:20:02Z</time>
      </trkpt>
      <trkpt lat="55.179082034155726" lon="-4.822800988331437">
        <ele>59.740000000000002</ele>
        <time>2023-09-02T18:20:10Z</time>
      </trkpt>
      <trkpt lat="55.17902503721416" lon="-4.822642989456654">
        <ele>59.259999999999998</ele>
        <time>2023-09-02T18:20:11Z</time>
      </trkpt>
      <trkpt lat="55.178326992318034" lon="-4.821545965969563">
        <ele>53.969999999999999</ele>
        <time>2023-09-02T18:20:17Z</time>
      </trkpt>
      <trkpt lat="55.177901023998857" lon="-4.821138018742204">
        <ele>51.090000000000003</ele>
        <time>2023-09-02T18:20:20Z</time>
      </trkpt>
      <trkpt lat="55.177743025124073" lon="-4.821026036515832">
        <ele>50.130000000000003</ele>
        <time>2023-09-02T18:20:21Z</time>
      </trkpt>
      <trkpt lat="55.177596006542444" lon="-4.821044979617">
        <ele>49.159999999999997</ele>
        <time>2023-09-02T18:20:22Z</time>
      </trkpt>
      <trkpt lat="55.176779022440314" lon="-4.82115101069212">
        <ele>50.130000000000003</ele>
        <time>2023-09-02T18:20:27Z</time>
      </trkpt>
      <trkpt lat="55.176272001117468" lon="-4.82121697627008">
        <ele>51.090000000000003</ele>
        <time>2023-09-02T18:20:30Z</time>
      </trkpt>
      <trkpt lat="55.175820970907807" lon="-4.821127960458398">
        <ele>50.609999999999999</ele>
        <time>2023-09-02T18:20:33Z</time>
      </trkpt>
      <trkpt lat="55.17496601678431" lon="-4.820797964930534">
        <ele>48.68</ele>
        <time>2023-09-02T18:20:38Z</time>
      </trkpt>
      <trkpt lat="55.174784967675805" lon="-4.82078698463738">
        <ele>48.200000000000003</ele>
        <time>2023-09-02T18:20:39Z</time>
      </trkpt>
      <trkpt lat="55.173490969464183" lon="-4.82125997543335">
        <ele>44.359999999999999</ele>
        <time>2023-09-02T18:20:46Z</time>
      </trkpt>
      <trkpt lat="55.172773981466889" lon="-4.821875039488077">
        <ele>42.920000000000002</ele>
        <time>2023-09-02T18:20:50Z</time>
      </trkpt>
      <trkpt lat="55.172601984813809" lon="-4.822068996727467">
        <ele>42.920000000000002</ele>
        <time>2023-09-02T18:20:51Z</time>
      </trkpt>
      <trkpt lat="55.171959009021521" lon="-4.82289201579988">
        <ele>42.920000000000002</ele>
        <time>2023-09-02T18:20:55Z</time>
      </trkpt>
      <trkpt lat="55.170939015224576" lon="-4.823598023504019">
        <ele>42.439999999999998</ele>
        <time>2023-09-02T18:21:01Z</time>
      </trkpt>
      <trkpt lat="55.169778959825635" lon="-4.82403002679348">
        <ele>40.030000000000001</ele>
        <time>2023-09-02T18:21:08Z</time>
      </trkpt>
      <trkpt lat="55.169611992314458" lon="-4.82409599237144">
        <ele>40.030000000000001</ele>
        <time>2023-09-02T18:21:09Z</time>
      </trkpt>
      <trkpt lat="55.169473020359874" lon="-4.824150977656245">
        <ele>40.030000000000001</ele>
        <time>2023-09-02T18:21:10Z</time>
      </trkpt>
      <trkpt lat="55.169331030920148" lon="-4.824196994304657">
        <ele>40.509999999999998</ele>
        <time>2023-09-02T18:21:11Z</time>
      </trkpt>
      <trkpt lat="55.168880000710487" lon="-4.824129017069936">
        <ele>43.399999999999999</ele>
        <time>2023-09-02T18:21:14Z</time>
      </trkpt>
      <trkpt lat="55.168735999614" lon="-4.824106972664595">
        <ele>44.359999999999999</ele>
        <time>2023-09-02T18:21:15Z</time>
      </trkpt>
      <trkpt lat="55.168608007952571" lon="-4.824105966836214">
        <ele>45.799999999999997</ele>
        <time>2023-09-02T18:21:16Z</time>
      </trkpt>
      <trkpt lat="55.168487979099154" lon="-4.824156006798148">
        <ele>46.759999999999998</ele>
        <time>2023-09-02T18:21:17Z</time>
      </trkpt>
      <trkpt lat="55.168365016579628" lon="-4.824216021224856">
        <ele>50.130000000000003</ele>
        <time>2023-09-02T18:21:18Z</time>
      </trkpt>
      <trkpt lat="55.168249011039734" lon="-4.824316017329693">
        <ele>52.049999999999997</ele>
        <time>2023-09-02T18:21:19Z</time>
      </trkpt>
      <trkpt lat="55.167978024110198" lon="-4.824550040066242">
        <ele>54.93</ele>
        <time>2023-09-02T18:21:21Z</time>
      </trkpt>
      <trkpt lat="55.167813990265131" lon="-4.824617011472583">
        <ele>55.890000000000001</ele>
        <time>2023-09-02T18:21:22Z</time>
      </trkpt>
      <trkpt lat="55.167649034410715" lon="-4.824634026736021">
        <ele>56.859999999999999</ele>
        <time>2023-09-02T18:21:23Z</time>
      </trkpt>
      <trkpt lat="55.166328968480229" lon="-4.824853967875242">
        <ele>58.299999999999997</ele>
        <time>2023-09-02T18:21:30Z</time>
      </trkpt>
      <trkpt lat="55.166154038161039" lon="-4.824899984523654">
        <ele>58.780000000000001</ele>
        <time>2023-09-02T18:21:31Z</time>
      </trkpt>
      <trkpt lat="55.165973994880915" lon="-4.824947007000446">
        <ele>59.259999999999998</ele>
        <time>2023-09-02T18:21:32Z</time>
      </trkpt>
      <trkpt lat="55.165132032707334" lon="-4.82517097145319">
        <ele>60.219999999999999</ele>
        <time>2023-09-02T18:21:36Z</time>
      </trkpt>
      <trkpt lat="55.163011997938156" lon="-4.826144026592374">
        <ele>59.259999999999998</ele>
        <time>2023-09-02T18:21:46Z</time>
      </trkpt>
      <trkpt lat="55.162206999957561" lon="-4.826584998518229">
        <ele>58.299999999999997</ele>
        <time>2023-09-02T18:21:50Z</time>
      </trkpt>
      <trkpt lat="55.161165967583656" lon="-4.82755696401">
        <ele>58.780000000000001</ele>
        <time>2023-09-02T18:21:56Z</time>
      </trkpt>
      <trkpt lat="55.160933034494519" lon="-4.827959965914488">
        <ele>58.780000000000001</ele>
        <time>2023-09-02T18:21:58Z</time>
      </trkpt>
      <trkpt lat="55.160837983712554" lon="-4.828137997537851">
        <ele>58.780000000000001</ele>
        <time>2023-09-02T18:21:59Z</time>
      </trkpt>
      <trkpt lat="55.160748967900872" lon="-4.828312005847693">
        <ele>58.780000000000001</ele>
        <time>2023-09-02T18:22:00Z</time>
      </trkpt>
      <trkpt lat="55.160488961264491" lon="-4.828922962769866">
        <ele>58.780000000000001</ele>
        <time>2023-09-02T18:22:03Z</time>
      </trkpt>
      <trkpt lat="55.160287963226438" lon="-4.829266034066677">
        <ele>58.299999999999997</ele>
        <time>2023-09-02T18:22:05Z</time>
      </trkpt>
      <trkpt lat="55.160175981000066" lon="-4.829398971050978">
        <ele>57.82</ele>
        <time>2023-09-02T18:22:06Z</time>
      </trkpt>
      <trkpt lat="55.159756969660521" lon="-4.829895012080669">
        <ele>55.890000000000001</ele>
        <time>2023-09-02T18:22:09Z</time>
      </trkpt>
      <trkpt lat="55.159458993002772" lon="-4.830247974023223">
        <ele>55.409999999999997</ele>
        <time>2023-09-02T18:22:11Z</time>
      </trkpt>
      <trkpt lat="55.159334018826485" lon="-4.830451989546418">
        <ele>55.409999999999997</ele>
        <time>2023-09-02T18:22:12Z</time>
      </trkpt>
      <trkpt lat="55.158958006650209" lon="-4.831064036116004">
        <ele>54.93</ele>
        <time>2023-09-02T18:22:15Z</time>
      </trkpt>
      <trkpt lat="55.15883001498878" lon="-4.831235026940703">
        <ele>54.450000000000003</ele>
        <time>2023-09-02T18:22:16Z</time>
      </trkpt>
      <trkpt lat="55.158679978922009" lon="-4.83135798946023">
        <ele>54.450000000000003</ele>
        <time>2023-09-02T18:22:17Z</time>
      </trkpt>
      <trkpt lat="55.157180037349463" lon="-4.832536987960339">
        <ele>53.490000000000002</ele>
        <time>2023-09-02T18:22:27Z</time>
      </trkpt>
      <trkpt lat="55.15691701322794" lon="-4.83262600377202">
        <ele>53.969999999999999</ele>
        <time>2023-09-02T18:22:29Z</time>
      </trkpt>
      <trkpt lat="55.156792039051652" lon="-4.832650981843472">
        <ele>54.450000000000003</ele>
        <time>2023-09-02T18:22:30Z</time>
      </trkpt>
      <trkpt lat="55.156387025490403" lon="-4.832661040127277">
        <ele>56.369999999999997</ele>
        <time>2023-09-02T18:22:33Z</time>
      </trkpt>
      <trkpt lat="55.1561229955405" lon="-4.83260597102344">
        <ele>57.82</ele>
        <time>2023-09-02T18:22:35Z</time>
      </trkpt>
      <trkpt lat="55.156002966687083" lon="-4.832579987123609">
        <ele>58.780000000000001</ele>
        <time>2023-09-02T18:22:36Z</time>
      </trkpt>
      <trkpt lat="55.15491901896894" lon="-4.832034995779395">
        <ele>57.82</ele>
        <time>2023-09-02T18:22:44Z</time>
      </trkpt>
      <trkpt lat="55.154220974072814" lon="-4.83142102137208">
        <ele>54.93</ele>
        <time>2023-09-02T18:22:49Z</time>
      </trkpt>
      <trkpt lat="55.154069010168314" lon="-4.831311972811818">
        <ele>54.93</ele>
        <time>2023-09-02T18:22:50Z</time>
      </trkpt>
      <trkpt lat="55.153921991586685" lon="-4.831237960606813">
        <ele>54.93</ele>
        <time>2023-09-02T18:22:51Z</time>
      </trkpt>
      <trkpt lat="55.153780002146959" lon="-4.831166965886951">
        <ele>54.93</ele>
        <time>2023-09-02T18:22:52Z</time>
      </trkpt>
      <trkpt lat="55.153646981343627" lon="-4.831151962280273">
        <ele>54.93</ele>
        <time>2023-09-02T18:22:53Z</time>
      </trkpt>
      <trkpt lat="55.153532987460494" lon="-4.831191021949053">
        <ele>54.450000000000003</ele>
        <time>2023-09-02T18:22:54Z</time>
      </trkpt>
      <trkpt lat="55.153439026325941" lon="-4.831245001405478">
        <ele>54.450000000000003</ele>
        <time>2023-09-02T18:22:55Z</time>
      </trkpt>
      <trkpt lat="55.153360990807414" lon="-4.831291018053889">
        <ele>54.450000000000003</ele>
        <time>2023-09-02T18:22:56Z</time>
      </trkpt>
      <trkpt lat="55.153169967234135" lon="-4.831366958096623">
        <ele>53.969999999999999</ele>
        <time>2023-09-02T18:22:59Z</time>
      </trkpt>
      <trkpt lat="55.153139960020781" lon="-4.83131499029696">
        <ele>53.969999999999999</ele>
        <time>2023-09-02T18:23:00Z</time>
      </trkpt>
      <trkpt lat="55.153097966685891" lon="-4.831246007233858">
        <ele>53.969999999999999</ele>
        <time>2023-09-02T18:23:01Z</time>
      </trkpt>
      <trkpt lat="55.153006017208099" lon="-4.831107035279274">
        <ele>53.490000000000002</ele>
        <time>2023-09-02T18:23:03Z</time>
      </trkpt>
      <trkpt lat="55.152958994731307" lon="-4.831045009195805">
        <ele>53.969999999999999</ele>
        <time>2023-09-02T18:23:04Z</time>
      </trkpt>
      <trkpt lat="55.152910966426134" lon="-4.830984994769096">
        <ele>53.490000000000002</ele>
        <time>2023-09-02T18:23:05Z</time>
      </trkpt>
      <trkpt lat="55.152870984748006" lon="-4.830978037789464">
        <ele>53.490000000000002</ele>
        <time>2023-09-02T18:23:06Z</time>
      </trkpt>
      <trkpt lat="55.152810970321298" lon="-4.831031011417508">
        <ele>53.490000000000002</ele>
        <time>2023-09-02T18:23:07Z</time>
      </trkpt>
      <trkpt lat="55.152752967551351" lon="-4.831082979217172">
        <ele>53.009999999999998</ele>
        <time>2023-09-02T18:23:08Z</time>
      </trkpt>
      <trkpt lat="55.152699993923306" lon="-4.831131007522345">
        <ele>53.009999999999998</ele>
        <time>2023-09-02T18:23:09Z</time>
      </trkpt>
      <trkpt lat="55.152645008638501" lon="-4.831184986978769">
        <ele>52.530000000000001</ele>
        <time>2023-09-02T18:23:10Z</time>
      </trkpt>
      <trkpt lat="55.152578037232161" lon="-4.831256987527013">
        <ele>52.049999999999997</ele>
        <time>2023-09-02T18:23:11Z</time>
      </trkpt>
      <trkpt lat="55.1521270070225" lon="-4.831669041886926">
        <ele>53.969999999999999</ele>
        <time>2023-09-02T18:23:16Z</time>
      </trkpt>
      <trkpt lat="55.152030028402805" lon="-4.831732995808125">
        <ele>54.93</ele>
        <time>2023-09-02T18:23:17Z</time>
      </trkpt>
      <trkpt lat="55.151921985670924" lon="-4.831793010234833">
        <ele>55.890000000000001</ele>
        <time>2023-09-02T18:23:18Z</time>
      </trkpt>
      <trkpt lat="55.151574974879622" lon="-4.831974981352687">
        <ele>59.259999999999998</ele>
        <time>2023-09-02T18:23:21Z</time>
      </trkpt>
      <trkpt lat="55.151472967118025" lon="-4.832030972465873">
        <ele>60.700000000000003</ele>
        <time>2023-09-02T18:23:22Z</time>
      </trkpt>
      <trkpt lat="55.151250008493662" lon="-4.832225013524294">
        <ele>62.140000000000001</ele>
        <time>2023-09-02T18:23:24Z</time>
      </trkpt>
      <trkpt lat="55.151134002953768" lon="-4.832334984093905">
        <ele>63.100000000000001</ele>
        <time>2023-09-02T18:23:25Z</time>
      </trkpt>
      <trkpt lat="55.151017997413874" lon="-4.832444032654166">
        <ele>63.579999999999998</ele>
        <time>2023-09-02T18:23:26Z</time>
      </trkpt>
      <trkpt lat="55.150910960510373" lon="-4.832546040415764">
        <ele>64.549999999999997</ele>
        <time>2023-09-02T18:23:27Z</time>
      </trkpt>
      <trkpt lat="55.150819011032581" lon="-4.832632960751653">
        <ele>65.030000000000001</ele>
        <time>2023-09-02T18:23:28Z</time>
      </trkpt>
      <trkpt lat="55.15073100104928" lon="-4.832715019583702">
        <ele>65.989999999999995</ele>
        <time>2023-09-02T18:23:29Z</time>
      </trkpt>
      <trkpt lat="55.150653971359134" lon="-4.832802023738623">
        <ele>66.469999999999999</ele>
        <time>2023-09-02T18:23:30Z</time>
      </trkpt>
      <trkpt lat="55.150609966367483" lon="-4.832959016785026">
        <ele>67.430000000000007</ele>
        <time>2023-09-02T18:23:31Z</time>
      </trkpt>
      <trkpt lat="55.150564033538103" lon="-4.83312196098268">
        <ele>67.909999999999997</ele>
        <time>2023-09-02T18:23:32Z</time>
      </trkpt>
      <trkpt lat="55.150517011061311" lon="-4.833288006484509">
        <ele>68.870000000000005</ele>
        <time>2023-09-02T18:23:33Z</time>
      </trkpt>
      <trkpt lat="55.150469988584518" lon="-4.833454973995686">
        <ele>69.349999999999994</ele>
        <time>2023-09-02T18:23:34Z</time>
      </trkpt>
      <trkpt lat="55.150420032441616" lon="-4.833630993962288">
        <ele>70.310000000000002</ele>
        <time>2023-09-02T18:23:35Z</time>
      </trkpt>
      <trkpt lat="55.150367980822921" lon="-4.833811959251761">
        <ele>70.790000000000006</ele>
        <time>2023-09-02T18:23:36Z</time>
      </trkpt>
      <trkpt lat="55.150309978052974" lon="-4.833975993096829">
        <ele>71.269999999999996</ele>
        <time>2023-09-02T18:23:37Z</time>
      </trkpt>
      <trkpt lat="55.150232026353478" lon="-4.83412804082036">
        <ele>71.760000000000005</ele>
        <time>2023-09-02T18:23:38Z</time>
      </trkpt>
      <trkpt lat="55.150153990834951" lon="-4.834281010553241">
        <ele>72.239999999999995</ele>
        <time>2023-09-02T18:23:39Z</time>
      </trkpt>
      <trkpt lat="55.149998003616929" lon="-4.834586028009653">
        <ele>72.719999999999999</ele>
        <time>2023-09-02T18:23:41Z</time>
      </trkpt>
      <trkpt lat="55.149838998913765" lon="-4.834898002445698">
        <ele>72.239999999999995</ele>
        <time>2023-09-02T18:23:43Z</time>
      </trkpt>
      <trkpt lat="55.149779990315437" lon="-4.835014007985592">
        <ele>71.760000000000005</ele>
        <time>2023-09-02T18:23:44Z</time>
      </trkpt>
      <trkpt lat="55.149701032787561" lon="-4.835006967186928">
        <ele>70.790000000000006</ele>
        <time>2023-09-02T18:23:45Z</time>
      </trkpt>
      <trkpt lat="55.149610005319118" lon="-4.834997998550534">
        <ele>70.310000000000002</ele>
        <time>2023-09-02T18:23:46Z</time>
      </trkpt>
      <trkpt lat="55.14950699172914" lon="-4.834989029914141">
        <ele>69.349999999999994</ele>
        <time>2023-09-02T18:23:47Z</time>
      </trkpt>
      <trkpt lat="55.149390986189246" lon="-4.834977965801954">
        <ele>68.870000000000005</ele>
        <time>2023-09-02T18:23:48Z</time>
      </trkpt>
      <trkpt lat="55.149262994527817" lon="-4.834964973852038">
        <ele>68.390000000000001</ele>
        <time>2023-09-02T18:23:49Z</time>
      </trkpt>
      <trkpt lat="55.149127040058374" lon="-4.834951981902123">
        <ele>67.909999999999997</ele>
        <time>2023-09-02T18:23:50Z</time>
      </trkpt>
      <trkpt lat="55.148987984284759" lon="-4.834938989952207">
        <ele>66.950000000000003</ele>
        <time>2023-09-02T18:23:51Z</time>
      </trkpt>
      <trkpt lat="55.148723032325506" lon="-4.834979977458715">
        <ele>65.989999999999995</ele>
        <time>2023-09-02T18:23:53Z</time>
      </trkpt>
      <trkpt lat="55.148592023178935" lon="-4.835023982450366">
        <ele>65.030000000000001</ele>
        <time>2023-09-02T18:23:54Z</time>
      </trkpt>
      <trkpt lat="55.148337967693806" lon="-4.835108974948525">
        <ele>63.579999999999998</ele>
        <time>2023-09-02T18:23:56Z</time>
      </trkpt>
      <trkpt lat="55.147441020235419" lon="-4.835057007148862">
        <ele>60.219999999999999</ele>
        <time>2023-09-02T18:24:03Z</time>
      </trkpt>
      <trkpt lat="55.147349992766976" lon="-4.834981989115477">
        <ele>59.740000000000002</ele>
        <time>2023-09-02T18:24:04Z</time>
      </trkpt>
      <trkpt lat="55.147257037460804" lon="-4.834904037415981">
        <ele>59.740000000000002</ele>
        <time>2023-09-02T18:24:05Z</time>
      </trkpt>
      <trkpt lat="55.147171039134264" lon="-4.834822984412313">
        <ele>59.259999999999998</ele>
        <time>2023-09-02T18:24:06Z</time>
      </trkpt>
      <trkpt lat="55.147093003615737" lon="-4.834703039377928">
        <ele>59.259999999999998</ele>
        <time>2023-09-02T18:24:07Z</time>
      </trkpt>
      <trkpt lat="55.147011028602719" lon="-4.834575969725847">
        <ele>58.780000000000001</ele>
        <time>2023-09-02T18:24:08Z</time>
      </trkpt>
      <trkpt lat="55.14647601172328" lon="-4.833500990644097">
        <ele>54.93</ele>
        <time>2023-09-02T18:24:15Z</time>
      </trkpt>
      <trkpt lat="55.146389007568359" lon="-4.833363024517894">
        <ele>53.969999999999999</ele>
        <time>2023-09-02T18:24:16Z</time>
      </trkpt>
      <trkpt lat="55.146298985928297" lon="-4.833219023421407">
        <ele>53.490000000000002</ele>
        <time>2023-09-02T18:24:17Z</time>
      </trkpt>
      <trkpt lat="55.145978964865208" lon="-4.832713007926941">
        <ele>50.130000000000003</ele>
        <time>2023-09-02T18:24:21Z</time>
      </trkpt>
      <trkpt lat="55.145846027880907" lon="-4.832531958818436">
        <ele>48.200000000000003</ele>
        <time>2023-09-02T18:24:23Z</time>
      </trkpt>
      <trkpt lat="55.145772015675902" lon="-4.832492982968688">
        <ele>47.719999999999999</ele>
        <time>2023-09-02T18:24:24Z</time>
      </trkpt>
      <trkpt lat="55.145694985985756" lon="-4.83245300129056">
        <ele>47.240000000000002</ele>
        <time>2023-09-02T18:24:25Z</time>
      </trkpt>
      <trkpt lat="55.145305981859565" lon="-4.832227025181055">
        <ele>44.840000000000003</ele>
        <time>2023-09-02T18:24:30Z</time>
      </trkpt>
      <trkpt lat="55.14523196965456" lon="-4.832172961905599">
        <ele>43.880000000000003</ele>
        <time>2023-09-02T18:24:31Z</time>
      </trkpt>
      <trkpt lat="55.145161980763078" lon="-4.832123005762696">
        <ele>43.399999999999999</ele>
        <time>2023-09-02T18:24:32Z</time>
      </trkpt>
      <trkpt lat="55.145094003528357" lon="-4.832041030749679">
        <ele>42.920000000000002</ele>
        <time>2023-09-02T18:24:33Z</time>
      </trkpt>
      <trkpt lat="55.145039018243551" lon="-4.83193701133132">
        <ele>42.920000000000002</ele>
        <time>2023-09-02T18:24:34Z</time>
      </trkpt>
      <trkpt lat="55.144984032958746" lon="-4.831833997741342">
        <ele>42.439999999999998</ele>
        <time>2023-09-02T18:24:35Z</time>
      </trkpt>
      <trkpt lat="55.144931981340051" lon="-4.831735007464886">
        <ele>42.439999999999998</ele>
        <time>2023-09-02T18:24:36Z</time>
      </trkpt>
      <trkpt lat="55.144878001883626" lon="-4.831634005531669">
        <ele>41.950000000000003</ele>
        <time>2023-09-02T18:24:37Z</time>
      </trkpt>
      <trkpt lat="55.144823016598821" lon="-4.83153099194169">
        <ele>41.950000000000003</ele>
        <time>2023-09-02T18:24:38Z</time>
      </trkpt>
      <trkpt lat="55.14475897885859" lon="-4.831410041078925">
        <ele>41.950000000000003</ele>
        <time>2023-09-02T18:24:39Z</time>
      </trkpt>
      <trkpt lat="55.144706005230546" lon="-4.831361006945372">
        <ele>41.469999999999999</ele>
        <time>2023-09-02T18:24:40Z</time>
      </trkpt>
      <trkpt lat="55.144636016339064" lon="-4.831296969205141">
        <ele>40.990000000000002</ele>
        <time>2023-09-02T18:24:41Z</time>
      </trkpt>
      <trkpt lat="55.144252963364124" lon="-4.830944007262588">
        <ele>40.990000000000002</ele>
        <time>2023-09-02T18:24:46Z</time>
      </trkpt>
      <trkpt lat="55.144186997786164" lon="-4.830858008936048">
        <ele>40.990000000000002</ele>
        <time>2023-09-02T18:24:47Z</time>
      </trkpt>
      <trkpt lat="55.14405095949769" lon="-4.830636978149414">
        <ele>40.509999999999998</ele>
        <time>2023-09-02T18:24:49Z</time>
      </trkpt>
      <trkpt lat="55.144020030274987" lon="-4.830565983429551">
        <ele>40.509999999999998</ele>
        <time>2023-09-02T18:24:50Z</time>
      </trkpt>
      <trkpt lat="55.143969990313053" lon="-4.830446038395166">
        <ele>40.509999999999998</ele>
        <time>2023-09-02T18:24:51Z</time>
      </trkpt>
      <trkpt lat="55.14392196200788" lon="-4.830332966521382">
        <ele>40.990000000000002</ele>
        <time>2023-09-02T18:24:52Z</time>
      </trkpt>
      <trkpt lat="55.143877035006881" lon="-4.830228025093675">
        <ele>40.990000000000002</ele>
        <time>2023-09-02T18:24:53Z</time>
      </trkpt>
      <trkpt lat="55.143830012530088" lon="-4.830115959048271">
        <ele>41.469999999999999</ele>
        <time>2023-09-02T18:24:54Z</time>
      </trkpt>
      <trkpt lat="55.143737979233265" lon="-4.829893000423908">
        <ele>41.469999999999999</ele>
        <time>2023-09-02T18:24:56Z</time>
      </trkpt>
      <trkpt lat="55.143700009211898" lon="-4.829783029854298">
        <ele>41.469999999999999</ele>
        <time>2023-09-02T18:24:57Z</time>
      </trkpt>
      <trkpt lat="55.143567994236946" lon="-4.829398971050978">
        <ele>41.469999999999999</ele>
        <time>2023-09-02T18:25:01Z</time>
      </trkpt>
      <trkpt lat="55.143547961488366" lon="-4.829339040443301">
        <ele>41.950000000000003</ele>
        <time>2023-09-02T18:25:02Z</time>
      </trkpt>
      <trkpt lat="55.143492976203561" lon="-4.829178024083376">
        <ele>41.469999999999999</ele>
        <time>2023-09-02T18:25:03Z</time>
      </trkpt>
      <trkpt lat="55.143461963161826" lon="-4.82920803129673">
        <ele>41.469999999999999</ele>
        <time>2023-09-02T18:25:04Z</time>
      </trkpt>
      <trkpt lat="55.14338199980557" lon="-4.829289000481367">
        <ele>42.439999999999998</ele>
        <time>2023-09-02T18:25:05Z</time>
      </trkpt>
      <trkpt lat="55.143301030620933" lon="-4.829369969666004">
        <ele>42.920000000000002</ele>
        <time>2023-09-02T18:25:06Z</time>
      </trkpt>
      <trkpt lat="55.142506007105112" lon="-4.830044964328408">
        <ele>45.799999999999997</ele>
        <time>2023-09-02T18:25:14Z</time>
      </trkpt>
      <trkpt lat="55.142420008778572" lon="-4.830101039260626">
        <ele>45.799999999999997</ele>
        <time>2023-09-02T18:25:15Z</time>
      </trkpt>
      <trkpt lat="55.14232998713851" lon="-4.830095004290342">
        <ele>45.799999999999997</ele>
        <time>2023-09-02T18:25:16Z</time>
      </trkpt>
      <trkpt lat="55.141355004161596" lon="-4.829938011243939">
        <ele>47.240000000000002</ele>
        <time>2023-09-02T18:25:25Z</time>
      </trkpt>
      <trkpt lat="55.140127977356315" lon="-4.829862993210554">
        <ele>53.009999999999998</ele>
        <time>2023-09-02T18:25:33Z</time>
      </trkpt>
      <trkpt lat="55.139972995966673" lon="-4.82978998683393">
        <ele>53.969999999999999</ele>
        <time>2023-09-02T18:25:34Z</time>
      </trkpt>
      <trkpt lat="55.139824971556664" lon="-4.829669035971165">
        <ele>54.450000000000003</ele>
        <time>2023-09-02T18:25:35Z</time>
      </trkpt>
      <trkpt lat="55.139711983501911" lon="-4.829494021832943">
        <ele>54.93</ele>
        <time>2023-09-02T18:25:36Z</time>
      </trkpt>
      <trkpt lat="55.139594972133636" lon="-4.829292017966509">
        <ele>55.409999999999997</ele>
        <time>2023-09-02T18:25:37Z</time>
      </trkpt>
      <trkpt lat="55.13852602802217" lon="-4.82792099006474">
        <ele>56.369999999999997</ele>
        <time>2023-09-02T18:25:44Z</time>
      </trkpt>
      <trkpt lat="55.137556996196508" lon="-4.826884986832738">
        <ele>55.890000000000001</ele>
        <time>2023-09-02T18:25:50Z</time>
      </trkpt>
      <trkpt lat="55.137403020635247" lon="-4.826790019869804">
        <ele>55.890000000000001</ele>
        <time>2023-09-02T18:25:51Z</time>
      </trkpt>
      <trkpt lat="55.13695701956749" lon="-4.826397998258472">
        <ele>56.369999999999997</ele>
        <time>2023-09-02T18:25:54Z</time>
      </trkpt>
      <trkpt lat="55.13680899515748" lon="-4.826237987726927">
        <ele>56.859999999999999</ele>
        <time>2023-09-02T18:25:55Z</time>
      </trkpt>
      <trkpt lat="55.136665999889374" lon="-4.826058028265834">
        <ele>57.340000000000003</ele>
        <time>2023-09-02T18:25:56Z</time>
      </trkpt>
      <trkpt lat="55.13655100017786" lon="-4.82581403106451">
        <ele>57.340000000000003</ele>
        <time>2023-09-02T18:25:57Z</time>
      </trkpt>
      <trkpt lat="55.136432982981205" lon="-4.825565004721284">
        <ele>57.82</ele>
        <time>2023-09-02T18:25:58Z</time>
      </trkpt>
      <trkpt lat="55.136316977441311" lon="-4.82532000169158">
        <ele>57.82</ele>
        <time>2023-09-02T18:25:59Z</time>
      </trkpt>
      <trkpt lat="55.135964015498757" lon="-4.82469798065722">
        <ele>59.259999999999998</ele>
        <time>2023-09-02T18:26:02Z</time>
      </trkpt>
      <trkpt lat="55.135692022740841" lon="-4.824326997622848">
        <ele>59.740000000000002</ele>
        <time>2023-09-02T18:26:04Z</time>
      </trkpt>
      <trkpt lat="55.135556990280747" lon="-4.824112001806498">
        <ele>60.219999999999999</ele>
        <time>2023-09-02T18:26:05Z</time>
      </trkpt>
      <trkpt lat="55.135449031367898" lon="-4.823848977684975">
        <ele>60.219999999999999</ele>
        <time>2023-09-02T18:26:06Z</time>
      </trkpt>
      <trkpt lat="55.135232023894787" lon="-4.823319995775819">
        <ele>60.700000000000003</ele>
        <time>2023-09-02T18:26:08Z</time>
      </trkpt>
      <trkpt lat="55.1350880227983" lon="-4.823079016059637">
        <ele>60.219999999999999</ele>
        <time>2023-09-02T18:26:09Z</time>
      </trkpt>
      <trkpt lat="55.134950978681445" lon="-4.82284901663661">
        <ele>60.700000000000003</ele>
        <time>2023-09-02T18:26:10Z</time>
      </trkpt>
      <trkpt lat="55.134685020893812" lon="-4.822403015568852">
        <ele>61.18</ele>
        <time>2023-09-02T18:26:12Z</time>
      </trkpt>
      <trkpt lat="55.134581001475453" lon="-4.82216002419591">
        <ele>61.18</ele>
        <time>2023-09-02T18:26:13Z</time>
      </trkpt>
      <trkpt lat="55.134202977642417" lon="-4.821081021800637">
        <ele>61.659999999999997</ele>
        <time>2023-09-02T18:26:17Z</time>
      </trkpt>
      <trkpt lat="55.13380098156631" lon="-4.820134034380317">
        <ele>61.659999999999997</ele>
        <time>2023-09-02T18:26:21Z</time>
      </trkpt>
      <trkpt lat="55.133693022653461" lon="-4.819980980828404">
        <ele>62.140000000000001</ele>
        <time>2023-09-02T18:26:22Z</time>
      </trkpt>
      <trkpt lat="55.133581040427089" lon="-4.819914009422064">
        <ele>62.140000000000001</ele>
        <time>2023-09-02T18:26:23Z</time>
      </trkpt>
      <trkpt lat="55.133467968553305" lon="-4.819846032187343">
        <ele>62.619999999999997</ele>
        <time>2023-09-02T18:26:24Z</time>
      </trkpt>
      <trkpt lat="55.133347017690539" lon="-4.819834968075156">
        <ele>63.100000000000001</ele>
        <time>2023-09-02T18:26:25Z</time>
      </trkpt>
      <trkpt lat="55.133208967745304" lon="-4.819856006652117">
        <ele>64.069999999999993</ele>
        <time>2023-09-02T18:26:26Z</time>
      </trkpt>
      <trkpt lat="55.133067984133959" lon="-4.819877967238426">
        <ele>64.549999999999997</ele>
        <time>2023-09-02T18:26:27Z</time>
      </trkpt>
      <trkpt lat="55.132933035492897" lon="-4.819899005815387">
        <ele>65.030000000000001</ele>
        <time>2023-09-02T18:26:28Z</time>
      </trkpt>
      <trkpt lat="55.132808983325958" lon="-4.819878973066807">
        <ele>65.510000000000005</ele>
        <time>2023-09-02T18:26:29Z</time>
      </trkpt>
      <trkpt lat="55.132690966129303" lon="-4.819824993610382">
        <ele>66.469999999999999</ele>
        <time>2023-09-02T18:26:30Z</time>
      </trkpt>
      <trkpt lat="55.132574960589409" lon="-4.819752993062139">
        <ele>66.950000000000003</ele>
        <time>2023-09-02T18:26:31Z</time>
      </trkpt>
      <trkpt lat="55.132463984191418" lon="-4.819586025550962">
        <ele>67.430000000000007</ele>
        <time>2023-09-02T18:26:32Z</time>
      </trkpt>
      <trkpt lat="55.132373040542006" lon="-4.819387039169669">
        <ele>67.909999999999997</ele>
        <time>2023-09-02T18:26:33Z</time>
      </trkpt>
      <trkpt lat="55.132272960618138" lon="-4.819165002554655">
        <ele>68.390000000000001</ele>
        <time>2023-09-02T18:26:34Z</time>
      </trkpt>
      <trkpt lat="55.13184598647058" lon="-4.818222960457206">
        <ele>70.790000000000006</ele>
        <time>2023-09-02T18:26:38Z</time>
      </trkpt>
      <trkpt lat="55.131701985374093" lon="-4.818060016259551">
        <ele>71.269999999999996</ele>
        <time>2023-09-02T18:26:39Z</time>
      </trkpt>
      <trkpt lat="55.131548009812832" lon="-4.817892964929342">
        <ele>71.269999999999996</ele>
        <time>2023-09-02T18:26:40Z</time>
      </trkpt>
      <trkpt lat="55.130939986556768" lon="-4.817228028550744">
        <ele>72.719999999999999</ele>
        <time>2023-09-02T18:26:44Z</time>
      </trkpt>
      <trkpt lat="55.130830015987158" lon="-4.817035999149084">
        <ele>72.719999999999999</ele>
        <time>2023-09-02T18:26:45Z</time>
      </trkpt>
      <trkpt lat="55.130600016564131" lon="-4.816599972546101">
        <ele>73.200000000000003</ele>
        <time>2023-09-02T18:26:47Z</time>
      </trkpt>
      <trkpt lat="55.130480993539095" lon="-4.816372990608215">
        <ele>73.680000000000007</ele>
        <time>2023-09-02T18:26:48Z</time>
      </trkpt>
      <trkpt lat="55.129387993365526" lon="-4.814335014671087">
        <ele>74.640000000000001</ele>
        <time>2023-09-02T18:26:56Z</time>
      </trkpt>
      <trkpt lat="55.12926796451211" lon="-4.814110966399312">
        <ele>75.120000000000005</ele>
        <time>2023-09-02T18:26:57Z</time>
      </trkpt>
      <trkpt lat="55.129168974235654" lon="-4.813876021653414">
        <ele>75.120000000000005</ele>
        <time>2023-09-02T18:26:58Z</time>
      </trkpt>
      <trkpt lat="55.128925982862711" lon="-4.813262969255447">
        <ele>75.120000000000005</ele>
        <time>2023-09-02T18:27:01Z</time>
      </trkpt>
      <trkpt lat="55.128821963444352" lon="-4.81309499591589">
        <ele>75.120000000000005</ele>
        <time>2023-09-02T18:27:02Z</time>
      </trkpt>
      <trkpt lat="55.127972038462758" lon="-4.8113779630512">
        <ele>75.599999999999994</ele>
        <time>2023-09-02T18:27:11Z</time>
      </trkpt>
      <trkpt lat="55.127751007676125" lon="-4.810830038040876">
        <ele>75.599999999999994</ele>
        <time>2023-09-02T18:27:14Z</time>
      </trkpt>
      <trkpt lat="55.12765503488481" lon="-4.810662986710668">
        <ele>76.079999999999998</ele>
        <time>2023-09-02T18:27:15Z</time>
      </trkpt>
      <trkpt lat="55.127555038779974" lon="-4.810497025027871">
        <ele>76.079999999999998</ele>
        <time>2023-09-02T18:27:16Z</time>
      </trkpt>
      <trkpt lat="55.127455964684486" lon="-4.810331985354424">
        <ele>76.079999999999998</ele>
        <time>2023-09-02T18:27:17Z</time>
      </trkpt>
      <trkpt lat="55.127339959144592" lon="-4.810212040320039">
        <ele>76.079999999999998</ele>
        <time>2023-09-02T18:27:18Z</time>
      </trkpt>
      <trkpt lat="55.127218002453446" lon="-4.810117995366454">
        <ele>75.599999999999994</ele>
        <time>2023-09-02T18:27:19Z</time>
      </trkpt>
      <trkpt lat="55.127099985256791" lon="-4.810047000646591">
        <ele>75.120000000000005</ele>
        <time>2023-09-02T18:27:20Z</time>
      </trkpt>
      <trkpt lat="55.126981968060136" lon="-4.810010958462954">
        <ele>75.120000000000005</ele>
        <time>2023-09-02T18:27:21Z</time>
      </trkpt>
      <trkpt lat="55.12688297778368" lon="-4.810024034231901">
        <ele>74.640000000000001</ele>
        <time>2023-09-02T18:27:22Z</time>
      </trkpt>
      <trkpt lat="55.126789016649127" lon="-4.810085976496339">
        <ele>74.640000000000001</ele>
        <time>2023-09-02T18:27:23Z</time>
      </trkpt>
      <trkpt lat="55.126690026372671" lon="-4.810150014236569">
        <ele>74.640000000000001</ele>
        <time>2023-09-02T18:27:24Z</time>
      </trkpt>
      <trkpt lat="55.126586006954312" lon="-4.810218997299671">
        <ele>74.640000000000001</ele>
        <time>2023-09-02T18:27:25Z</time>
      </trkpt>
      <trkpt lat="55.126351984217763" lon="-4.810371967032552">
        <ele>74.640000000000001</ele>
        <time>2023-09-02T18:27:27Z</time>
      </trkpt>
      <trkpt lat="55.126227010041475" lon="-4.810389988124371">
        <ele>74.640000000000001</ele>
        <time>2023-09-02T18:27:28Z</time>
      </trkpt>
      <trkpt lat="55.126092983409762" lon="-4.810367021709681">
        <ele>75.120000000000005</ele>
        <time>2023-09-02T18:27:29Z</time>
      </trkpt>
      <trkpt lat="55.125669026747346" lon="-4.810297032818198">
        <ele>75.120000000000005</ele>
        <time>2023-09-02T18:27:32Z</time>
      </trkpt>
      <trkpt lat="55.125556038692594" lon="-4.810189995914698">
        <ele>75.120000000000005</ele>
        <time>2023-09-02T18:27:33Z</time>
      </trkpt>
      <trkpt lat="55.125440033152699" lon="-4.810073990374804">
        <ele>75.120000000000005</ele>
        <time>2023-09-02T18:27:34Z</time>
      </trkpt>
      <trkpt lat="55.125351017341018" lon="-4.809912974014878">
        <ele>75.120000000000005</ele>
        <time>2023-09-02T18:27:35Z</time>
      </trkpt>
      <trkpt lat="55.125269964337349" lon="-4.809724967926741">
        <ele>75.120000000000005</ele>
        <time>2023-09-02T18:27:36Z</time>
      </trkpt>
      <trkpt lat="55.125091010704637" lon="-4.809363037347794">
        <ele>74.640000000000001</ele>
        <time>2023-09-02T18:27:38Z</time>
      </trkpt>
      <trkpt lat="55.124979028478265" lon="-4.809214007109404">
        <ele>74.159999999999997</ele>
        <time>2023-09-02T18:27:39Z</time>
      </trkpt>
      <trkpt lat="55.124850030988455" lon="-4.809108981862664">
        <ele>74.159999999999997</ele>
        <time>2023-09-02T18:27:40Z</time>
      </trkpt>
      <trkpt lat="55.1247129868716" lon="-4.809015020728111">
        <ele>73.680000000000007</ele>
        <time>2023-09-02T18:27:41Z</time>
      </trkpt>
      <trkpt lat="55.124574014917016" lon="-4.808919969946146">
        <ele>73.200000000000003</ele>
        <time>2023-09-02T18:27:42Z</time>
      </trkpt>
      <trkpt lat="55.124441999942064" lon="-4.808802036568523">
        <ele>72.719999999999999</ele>
        <time>2023-09-02T18:27:43Z</time>
      </trkpt>
      <trkpt lat="55.124314008280635" lon="-4.808681001886725">
        <ele>72.239999999999995</ele>
        <time>2023-09-02T18:27:44Z</time>
      </trkpt>
      <trkpt lat="55.124188028275967" lon="-4.808560973033309">
        <ele>72.239999999999995</ele>
        <time>2023-09-02T18:27:45Z</time>
      </trkpt>
      <trkpt lat="55.124059030786157" lon="-4.808457959443331">
        <ele>71.760000000000005</ele>
        <time>2023-09-02T18:27:46Z</time>
      </trkpt>
      <trkpt lat="55.123928021639585" lon="-4.808377996087074">
        <ele>71.760000000000005</ele>
        <time>2023-09-02T18:27:47Z</time>
      </trkpt>
      <trkpt lat="55.123799024149776" lon="-4.808299960568547">
        <ele>71.760000000000005</ele>
        <time>2023-09-02T18:27:48Z</time>
      </trkpt>
      <trkpt lat="55.123108020052314" lon="-4.807720016688108">
        <ele>71.760000000000005</ele>
        <time>2023-09-02T18:27:54Z</time>
      </trkpt>
      <trkpt lat="55.122985979542136" lon="-4.807638041675091">
        <ele>72.239999999999995</ele>
        <time>2023-09-02T18:27:55Z</time>
      </trkpt>
      <trkpt lat="55.12241299264133" lon="-4.807250965386629">
        <ele>73.200000000000003</ele>
        <time>2023-09-02T18:28:00Z</time>
      </trkpt>
      <trkpt lat="55.122298998758197" lon="-4.807175025343895">
        <ele>72.719999999999999</ele>
        <time>2023-09-02T18:28:01Z</time>
      </trkpt>
      <trkpt lat="55.121708996593952" lon="-4.806727012619376">
        <ele>72.719999999999999</ele>
        <time>2023-09-02T18:28:06Z</time>
      </trkpt>
      <trkpt lat="55.121571030467749" lon="-4.806665992364287">
        <ele>72.239999999999995</ele>
        <time>2023-09-02T18:28:07Z</time>
      </trkpt>
      <trkpt lat="55.120231015607715" lon="-4.806104991585016">
        <ele>69.829999999999998</ele>
        <time>2023-09-02T18:28:16Z</time>
      </trkpt>
      <trkpt lat="55.11991904117167" lon="-4.806050006300211">
        <ele>68.870000000000005</ele>
        <time>2023-09-02T18:28:18Z</time>
      </trkpt>
      <trkpt lat="55.118888989090919" lon="-4.805868035182357">
        <ele>64.549999999999997</ele>
        <time>2023-09-02T18:28:24Z</time>
      </trkpt>
      <trkpt lat="55.118687991052866" lon="-4.805831992998719">
        <ele>63.579999999999998</ele>
        <time>2023-09-02T18:28:25Z</time>
      </trkpt>
      <trkpt lat="55.11843703687191" lon="-4.805648010224104">
        <ele>61.659999999999997</ele>
        <time>2023-09-02T18:28:27Z</time>
      </trkpt>
      <trkpt lat="55.11830996721983" lon="-4.805514989420772">
        <ele>61.18</ele>
        <time>2023-09-02T18:28:28Z</time>
      </trkpt>
      <trkpt lat="55.118196979165077" lon="-4.805351961404085">
        <ele>60.700000000000003</ele>
        <time>2023-09-02T18:28:29Z</time>
      </trkpt>
      <trkpt lat="55.118083991110325" lon="-4.80518901720643">
        <ele>60.219999999999999</ele>
        <time>2023-09-02T18:28:30Z</time>
      </trkpt>
      <trkpt lat="55.11796697974205" lon="-4.805014003068209">
        <ele>59.740000000000002</ele>
        <time>2023-09-02T18:28:31Z</time>
      </trkpt>
      <trkpt lat="55.116983028128743" lon="-4.803323037922382">
        <ele>59.740000000000002</ele>
        <time>2023-09-02T18:28:39Z</time>
      </trkpt>
      <trkpt lat="55.116846989840269" lon="-4.803134026005864">
        <ele>59.740000000000002</ele>
        <time>2023-09-02T18:28:40Z</time>
      </trkpt>
      <trkpt lat="55.115768993273377" lon="-4.801951004192233">
        <ele>64.069999999999993</ele>
        <time>2023-09-02T18:28:48Z</time>
      </trkpt>
      <trkpt lat="55.115656005218625" lon="-4.801764003932476">
        <ele>65.030000000000001</ele>
        <time>2023-09-02T18:28:49Z</time>
      </trkpt>
      <trkpt lat="55.11555802077055" lon="-4.801567029207945">
        <ele>65.989999999999995</ele>
        <time>2023-09-02T18:28:50Z</time>
      </trkpt>
      <trkpt lat="55.115202963352203" lon="-4.800758007913828">
        <ele>70.790000000000006</ele>
        <time>2023-09-02T18:28:54Z</time>
      </trkpt>
      <trkpt lat="55.114259999245405" lon="-4.798596985638142">
        <ele>79.450000000000003</ele>
        <time>2023-09-02T18:29:04Z</time>
      </trkpt>
      <trkpt lat="55.114064030349255" lon="-4.798193983733654">
        <ele>80.409999999999997</ele>
        <time>2023-09-02T18:29:06Z</time>
      </trkpt>
      <trkpt lat="55.114010972902179" lon="-4.797959960997105">
        <ele>80.890000000000001</ele>
        <time>2023-09-02T18:29:07Z</time>
      </trkpt>
      <trkpt lat="55.113965040072799" lon="-4.797723004594445">
        <ele>80.890000000000001</ele>
        <time>2023-09-02T18:29:08Z</time>
      </trkpt>
      <trkpt lat="55.113921035081148" lon="-4.797499962151051">
        <ele>80.890000000000001</ele>
        <time>2023-09-02T18:29:09Z</time>
      </trkpt>
      <trkpt lat="55.113879963755608" lon="-4.797288989648223">
        <ele>80.890000000000001</ele>
        <time>2023-09-02T18:29:10Z</time>
      </trkpt>
      <trkpt lat="55.113671002909541" lon="-4.796220967546105">
        <ele>78</ele>
        <time>2023-09-02T18:29:16Z</time>
      </trkpt>
      <trkpt lat="55.11364602483809" lon="-4.796095993369818">
        <ele>77.040000000000006</ele>
        <time>2023-09-02T18:29:17Z</time>
      </trkpt>
      <trkpt lat="55.113590033724904" lon="-4.795846967026591">
        <ele>76.079999999999998</ele>
        <time>2023-09-02T18:29:19Z</time>
      </trkpt>
      <trkpt lat="55.113226007670164" lon="-4.794564032927156">
        <ele>73.680000000000007</ele>
        <time>2023-09-02T18:29:26Z</time>
      </trkpt>
      <trkpt lat="55.113145038485527" lon="-4.794311989098787">
        <ele>73.680000000000007</ele>
        <time>2023-09-02T18:29:27Z</time>
      </trkpt>
      <trkpt lat="55.113051999360323" lon="-4.794036978855729">
        <ele>73.680000000000007</ele>
        <time>2023-09-02T18:29:28Z</time>
      </trkpt>
      <trkpt lat="55.112171983346343" lon="-4.791636988520622">
        <ele>73.200000000000003</ele>
        <time>2023-09-02T18:29:36Z</time>
      </trkpt>
      <trkpt lat="55.111209992319345" lon="-4.789519971236587">
        <ele>71.760000000000005</ele>
        <time>2023-09-02T18:29:43Z</time>
      </trkpt>
      <trkpt lat="55.110697019845247" lon="-4.787944005802274">
        <ele>70.310000000000002</ele>
        <time>2023-09-02T18:29:48Z</time>
      </trkpt>
      <trkpt lat="55.110550001263618" lon="-4.787706965580583">
        <ele>69.829999999999998</ele>
        <time>2023-09-02T18:29:49Z</time>
      </trkpt>
      <trkpt lat="55.11040398851037" lon="-4.787471015006304">
        <ele>69.349999999999994</ele>
        <time>2023-09-02T18:29:50Z</time>
      </trkpt>
      <trkpt lat="55.109146032482386" lon="-4.785614004358649">
        <ele>66.950000000000003</ele>
        <time>2023-09-02T18:29:58Z</time>
      </trkpt>
      <trkpt lat="55.109024997800589" lon="-4.785347962751985">
        <ele>65.989999999999995</ele>
        <time>2023-09-02T18:29:59Z</time>
      </trkpt>
      <trkpt lat="55.108903041109443" lon="-4.785079993307591">
        <ele>65.989999999999995</ele>
        <time>2023-09-02T18:30:00Z</time>
      </trkpt>
      <trkpt lat="55.108828023076057" lon="-4.784771958366036">
        <ele>65.510000000000005</ele>
        <time>2023-09-02T18:30:01Z</time>
      </trkpt>
      <trkpt lat="55.108751999214292" lon="-4.784455038607121">
        <ele>64.549999999999997</ele>
        <time>2023-09-02T18:30:02Z</time>
      </trkpt>
      <trkpt lat="55.108702965080738" lon="-4.784124959260225">
        <ele>64.069999999999993</ele>
        <time>2023-09-02T18:30:03Z</time>
      </trkpt>
      <trkpt lat="55.108653008937836" lon="-4.783796975389123">
        <ele>63.579999999999998</ele>
        <time>2023-09-02T18:30:04Z</time>
      </trkpt>
      <trkpt lat="55.108551001176238" lon="-4.78314301930368">
        <ele>63.100000000000001</ele>
        <time>2023-09-02T18:30:06Z</time>
      </trkpt>
      <trkpt lat="55.108457040041685" lon="-4.782835990190506">
        <ele>62.619999999999997</ele>
        <time>2023-09-02T18:30:07Z</time>
      </trkpt>
      <trkpt lat="55.107488008216023" lon="-4.779693027958274">
        <ele>63.100000000000001</ele>
        <time>2023-09-02T18:30:17Z</time>
      </trkpt>
      <trkpt lat="55.106991967186332" lon="-4.778521992266178">
        <ele>65.510000000000005</ele>
        <time>2023-09-02T18:30:21Z</time>
      </trkpt>
      <trkpt lat="55.106835979968309" lon="-4.778283024206758">
        <ele>65.989999999999995</ele>
        <time>2023-09-02T18:30:22Z</time>
      </trkpt>
      <trkpt lat="55.106675969436765" lon="-4.778078002855182">
        <ele>66.469999999999999</ele>
        <time>2023-09-02T18:30:23Z</time>
      </trkpt>
      <trkpt lat="55.106490980833769" lon="-4.777922015637159">
        <ele>66.469999999999999</ele>
        <time>2023-09-02T18:30:24Z</time>
      </trkpt>
      <trkpt lat="55.106300041079521" lon="-4.777776002883911">
        <ele>66.950000000000003</ele>
        <time>2023-09-02T18:30:25Z</time>
      </trkpt>
      <trkpt lat="55.106113040819764" lon="-4.777633007615805">
        <ele>67.430000000000007</ele>
        <time>2023-09-02T18:30:26Z</time>
      </trkpt>
      <trkpt lat="55.10554600507021" lon="-4.777119029313326">
        <ele>68.870000000000005</ele>
        <time>2023-09-02T18:30:30Z</time>
      </trkpt>
      <trkpt lat="55.105454977601767" lon="-4.776973016560078">
        <ele>69.349999999999994</ele>
        <time>2023-09-02T18:30:31Z</time>
      </trkpt>
      <trkpt lat="55.105367973446846" lon="-4.776834966614842">
        <ele>69.829999999999998</ele>
        <time>2023-09-02T18:30:32Z</time>
      </trkpt>
      <trkpt lat="55.105098998174071" lon="-4.776215041056275">
        <ele>72.239999999999995</ele>
        <time>2023-09-02T18:30:36Z</time>
      </trkpt>
      <trkpt lat="55.105034960433841" lon="-4.776058970019221">
        <ele>73.200000000000003</ele>
        <time>2023-09-02T18:30:37Z</time>
      </trkpt>
      <trkpt lat="55.104976035654545" lon="-4.775913963094354">
        <ele>73.680000000000007</ele>
        <time>2023-09-02T18:30:38Z</time>
      </trkpt>
      <trkpt lat="55.104920966550708" lon="-4.775779014453292">
        <ele>73.680000000000007</ele>
        <time>2023-09-02T18:30:39Z</time>
      </trkpt>
      <trkpt lat="55.104868998751044" lon="-4.775650016963482">
        <ele>74.159999999999997</ele>
        <time>2023-09-02T18:30:40Z</time>
      </trkpt>
      <trkpt lat="55.10481501929462" lon="-4.775524036958814">
        <ele>74.159999999999997</ele>
        <time>2023-09-02T18:30:41Z</time>
      </trkpt>
      <trkpt lat="55.104760034009814" lon="-4.775397973135114">
        <ele>74.159999999999997</ele>
        <time>2023-09-02T18:30:42Z</time>
      </trkpt>
      <trkpt lat="55.104372035712004" lon="-4.774175975471735">
        <ele>72.719999999999999</ele>
        <time>2023-09-02T18:30:51Z</time>
      </trkpt>
      <trkpt lat="55.104296011850238" lon="-4.773746989667416">
        <ele>71.760000000000005</ele>
        <time>2023-09-02T18:30:54Z</time>
      </trkpt>
      <trkpt lat="55.104272039607167" lon="-4.773608017712832">
        <ele>71.760000000000005</ele>
        <time>2023-09-02T18:30:55Z</time>
      </trkpt>
      <trkpt lat="55.104200039058924" lon="-4.77319898083806">
        <ele>71.760000000000005</ele>
        <time>2023-09-02T18:30:58Z</time>
      </trkpt>
      <trkpt lat="55.104174977168441" lon="-4.773059003055096">
        <ele>71.760000000000005</ele>
        <time>2023-09-02T18:30:59Z</time>
      </trkpt>
      <trkpt lat="55.103590004146099" lon="-4.771498963236809">
        <ele>71.760000000000005</ele>
        <time>2023-09-02T18:31:12Z</time>
      </trkpt>
      <trkpt lat="55.103152971714735" lon="-4.770184010267258">
        <ele>73.680000000000007</ele>
        <time>2023-09-02T18:31:24Z</time>
      </trkpt>
      <trkpt lat="55.103116007521749" lon="-4.770094994455576">
        <ele>74.159999999999997</ele>
        <time>2023-09-02T18:31:25Z</time>
      </trkpt>
      <trkpt lat="55.103066973388195" lon="-4.76997597143054">
        <ele>74.159999999999997</ele>
        <time>2023-09-02T18:31:26Z</time>
      </trkpt>
      <trkpt lat="55.102421985939145" lon="-4.7690299898386">
        <ele>80.409999999999997</ele>
        <time>2023-09-02T18:31:37Z</time>
      </trkpt>
      <trkpt lat="55.102057037875056" lon="-4.768482986837626">
        <ele>84.730000000000004</ele>
        <time>2023-09-02T18:31:43Z</time>
      </trkpt>
      <trkpt lat="55.101351030170918" lon="-4.767085975036025">
        <ele>89.060000000000002</ele>
        <time>2023-09-02T18:31:57Z</time>
      </trkpt>
      <trkpt lat="55.101177021861076" lon="-4.766618013381958">
        <ele>90.5</ele>
        <time>2023-09-02T18:32:01Z</time>
      </trkpt>
      <trkpt lat="55.100889019668102" lon="-4.765705978497863">
        <ele>91.459999999999994</ele>
        <time>2023-09-02T18:32:09Z</time>
      </trkpt>
      <trkpt lat="55.10084199719131" lon="-4.765494000166655">
        <ele>91.459999999999994</ele>
        <time>2023-09-02T18:32:11Z</time>
      </trkpt>
      <trkpt lat="55.100797992199659" lon="-4.76535402238369">
        <ele>91.459999999999994</ele>
        <time>2023-09-02T18:32:12Z</time>
      </trkpt>
      <trkpt lat="55.100734038278461" lon="-4.765320997685194">
        <ele>91.459999999999994</ele>
        <time>2023-09-02T18:32:13Z</time>
      </trkpt>
      <trkpt lat="55.100661031901836" lon="-4.765282021835446">
        <ele>91.939999999999998</ele>
        <time>2023-09-02T18:32:14Z</time>
      </trkpt>
      <trkpt lat="55.100577967241406" lon="-4.765238016843796">
        <ele>91.939999999999998</ele>
        <time>2023-09-02T18:32:15Z</time>
      </trkpt>
      <trkpt lat="55.100333970040083" lon="-4.765056967735291">
        <ele>92.900000000000006</ele>
        <time>2023-09-02T18:32:18Z</time>
      </trkpt>
      <trkpt lat="55.100257024168968" lon="-4.764991002157331">
        <ele>92.900000000000006</ele>
        <time>2023-09-02T18:32:19Z</time>
      </trkpt>
      <trkpt lat="55.099768023937941" lon="-4.764611972495914">
        <ele>93.870000000000005</ele>
        <time>2023-09-02T18:32:25Z</time>
      </trkpt>
      <trkpt lat="55.09968101978302" lon="-4.76456000469625">
        <ele>94.349999999999994</ele>
        <time>2023-09-02T18:32:26Z</time>
      </trkpt>
      <trkpt lat="55.099408021196723" lon="-4.764397982507944">
        <ele>93.870000000000005</ele>
        <time>2023-09-02T18:32:29Z</time>
      </trkpt>
      <trkpt lat="55.098626995459199" lon="-4.763561971485615">
        <ele>91.939999999999998</ele>
        <time>2023-09-02T18:32:39Z</time>
      </trkpt>
      <trkpt lat="55.098183006048203" lon="-4.762748004868627">
        <ele>89.060000000000002</ele>
        <time>2023-09-02T18:32:48Z</time>
      </trkpt>
      <trkpt lat="55.097856028005481" lon="-4.762006038799882">
        <ele>88.099999999999994</ele>
        <time>2023-09-02T18:32:59Z</time>
      </trkpt>
      <trkpt lat="55.09783498942852" lon="-4.761968990787864">
        <ele>88.099999999999994</ele>
        <time>2023-09-02T18:33:04Z</time>
      </trkpt>
      <trkpt lat="55.097815962508321" lon="-4.761933032423258">
        <ele>88.099999999999994</ele>
        <time>2023-09-02T18:33:05Z</time>
      </trkpt>
      <trkpt lat="55.09755302220583" lon="-4.76144403219223">
        <ele>88.099999999999994</ele>
        <time>2023-09-02T18:33:13Z</time>
      </trkpt>
      <trkpt lat="55.097502982243896" lon="-4.761350993067026">
        <ele>87.620000000000005</ele>
        <time>2023-09-02T18:33:17Z</time>
      </trkpt>
      <trkpt lat="55.097495019435883" lon="-4.76133699528873">
        <ele>87.140000000000001</ele>
        <time>2023-09-02T18:33:18Z</time>
      </trkpt>
      <trkpt lat="55.097413966432214" lon="-4.76127496920526">
        <ele>87.140000000000001</ele>
        <time>2023-09-02T18:33:19Z</time>
      </trkpt>
      <trkpt lat="55.097395023331046" lon="-4.76129500195384">
        <ele>86.659999999999997</ele>
        <time>2023-09-02T18:33:20Z</time>
      </trkpt>
      <trkpt lat="55.097371973097324" lon="-4.76131796836853">
        <ele>86.659999999999997</ele>
        <time>2023-09-02T18:33:21Z</time>
      </trkpt>
      <trkpt lat="55.097344983369112" lon="-4.761345963925123">
        <ele>86.659999999999997</ele>
        <time>2023-09-02T18:33:22Z</time>
      </trkpt>
      <trkpt lat="55.097314976155758" lon="-4.761377982795239">
        <ele>86.180000000000007</ele>
        <time>2023-09-02T18:33:23Z</time>
      </trkpt>
      <trkpt lat="55.097278011962771" lon="-4.761415030807257">
        <ele>86.180000000000007</ele>
        <time>2023-09-02T18:33:24Z</time>
      </trkpt>
      <trkpt lat="55.097238030284643" lon="-4.761457024142146">
        <ele>86.180000000000007</ele>
        <time>2023-09-02T18:33:25Z</time>
      </trkpt>
      <trkpt lat="55.097194025292993" lon="-4.761502034962177">
        <ele>86.659999999999997</ele>
        <time>2023-09-02T18:33:26Z</time>
      </trkpt>
      <trkpt lat="55.097152031958103" lon="-4.761546961963177">
        <ele>86.659999999999997</ele>
        <time>2023-09-02T18:33:27Z</time>
      </trkpt>
      <trkpt lat="55.097112972289324" lon="-4.761586021631956">
        <ele>87.140000000000001</ele>
        <time>2023-09-02T18:33:28Z</time>
      </trkpt>
      <trkpt lat="55.09708296507597" lon="-4.761618040502071">
        <ele>87.620000000000005</ele>
        <time>2023-09-02T18:33:29Z</time>
      </trkpt>
      <trkpt lat="55.097063016146421" lon="-4.76163798943162">
        <ele>87.620000000000005</ele>
        <time>2023-09-02T18:33:30Z</time>
      </trkpt>
      <trkpt lat="55.097049018368125" lon="-4.761651987209916">
        <ele>88.579999999999998</ele>
        <time>2023-09-02T18:33:39Z</time>
      </trkpt>
    </trkseg>
  </trk>

</gpx>